
Distance (Route):
Temperature : 17.1°C
Humidity : 78.1%
Pressure : 965.1hPa| Receiver | Frames | First received | Last received |
|---|---|---|---|
| DK7TD | 867 | 2026-08-30 22:47:02 | 2026-08-31 01:16:50 |
| DM0DOS-11 | 468 | 2026-08-30 23:08:42 | 2026-08-31 01:11:32 |
| HSKMA3-T | 386 | 2026-08-30 23:28:05 | 2026-08-31 00:53:35 |
| DO3MHA-12 | 365 | 2026-08-30 23:08:48 | 2026-08-31 01:34:23 |
| DL1NUX | 342 | 2026-08-30 23:26:06 | 2026-08-31 01:24:26 |
| BIOWL1-15 | 334 | 2026-08-30 23:09:14 | 2026-08-31 01:11:53 |
| DL1XH-west | 284 | 2026-08-30 23:46:50 | 2026-08-31 00:44:00 |
| DF8AY | 204 | 2026-08-30 23:54:16 | 2026-08-31 00:46:13 |
| NBG1-10 | 176 | 2026-08-30 23:10:53 | 2026-08-31 01:39:37 |
| DL1XH1-15 | 174 | 2026-08-30 23:46:36 | 2026-08-31 00:43:44 |
| DB0NH | 169 | 2026-08-30 23:10:37 | 2026-08-31 01:39:32 |
| DJ8HS-15 | 117 | 2026-08-30 23:08:43 | 2026-08-31 01:04:56 |
| DB0UT-7 | 94 | 2026-08-30 23:10:11 | 2026-08-31 01:27:26 |
| DF7PN | 79 | 2026-08-30 22:55:45 | 2026-08-31 01:25:55 |
| DF3TZ-5 | 74 | 2026-08-30 22:58:45 | 2026-08-31 01:21:35 |
| DL6DJ-15 | 65 | 2026-08-30 23:16:14 | 2026-08-31 01:17:56 |
| DB0ND-19 | 62 | 2026-08-30 23:02:45 | 2026-08-31 01:28:06 |
| DL1ZP-14 | 49 | 2026-08-30 22:58:48 | 2026-08-31 00:55:20 |
| SO1NDE-10 | 47 | 2026-08-30 23:26:48 | 2026-08-31 01:22:17 |
| DN1GJH-1 | 44 | 2026-08-30 23:08:50 | 2026-08-31 00:49:04 |
| SONCRA | 42 | 2026-08-30 23:36:46 | 2026-08-31 01:12:06 |
| OE5DXL-15 | 41 | 2026-08-30 23:23:28 | 2026-08-31 01:01:23 |
| DG9SBQ-11 | 31 | 2026-08-30 23:58:54 | 2026-08-31 00:39:35 |
| DC4HF-4 | 29 | 2026-08-30 23:40:51 | 2026-08-31 00:55:21 |
| DJ2DS-15 | 25 | 2026-08-30 23:56:13 | 2026-08-31 00:38:03 |
| OE5DRO-10 | 22 | 2026-08-30 23:32:23 | 2026-08-31 00:46:59 |
| DF8AY-15 | 21 | 2026-08-30 23:59:02 | 2026-08-31 00:38:06 |
| EDDB2-11 | 17 | 2026-08-30 23:53:57 | 2026-08-31 00:47:46 |
| DJTTGO | 16 | 2026-08-30 23:21:36 | 2026-08-31 01:18:24 |
| OE5WHR-10 | 16 | 2026-08-30 23:59:21 | 2026-08-31 00:32:22 |
| SONDE2-11 | 16 | 2026-08-31 00:04:47 | 2026-08-31 00:51:21 |
| EDDB2-12 | 15 | 2026-08-31 00:07:33 | 2026-08-31 00:51:01 |
| AZAK | 14 | 2026-08-30 22:45:22 | 2026-08-31 00:01:32 |
| PG1ADW-2 | 12 | 2026-08-30 23:47:41 | 2026-08-31 00:43:03 |
| AA1-15 | 11 | 2026-08-31 00:24:44 | 2026-08-31 00:32:03 |
| OE5MMP-10 | 9 | 2026-08-31 00:26:04 | 2026-08-31 00:32:11 |
| HEMX73-11 | 6 | 2026-08-30 23:53:18 | 2026-08-31 00:38:04 |
| BIOWL9-15 | 4 | 2026-08-30 23:10:34 | 2026-08-30 23:17:48 |
| S52SK | 4 | 2026-08-31 00:05:07 | 2026-08-31 00:21:07 |
| KANTATE | 2 | 2026-08-30 23:13:00 | 2026-08-30 23:25:42 |
| DD8BA-10 | 2 | 2026-08-31 00:31:29 | 2026-08-31 00:31:39 |
| DL8DAS-14 | 2 | 2026-08-31 00:33:22 | 2026-08-31 00:34:24 |
| SP3BTT-10 | 1 | 2026-08-31 00:31:57 | 2026-08-31 00:31:57 |
| Receiver | Date | Latitude | Longitude | Direction | Speed | Altitude | Climb | Temperature | Humidity | Pressure | Voltage | Killtimer | Uptime | BKT | XDATA |
|---|---|---|---|---|---|---|---|---|---|---|---|---|---|---|---|
| NBG1-10 | 2026-08-31 01:39:37 | 49.49186 | 11.16377 | 306° | 20km/h | 447m | -2.7m/s | 17.1°C | 78.1% | 965.1hPa | 2.7V | 00:00:00 | 03:21:18 | 00:00:00 | |
| NBG1-10 | 2026-08-31 01:39:35 | 49.49179 | 11.16391 | 308° | 26km/h | 453m | -3.3m/s | 19.5°C | 66.6% | 964.3hPa | 2.7V | 07:22:00 | 03:21:16 | 00:00:00 | |
| NBG1-10 | 2026-08-31 01:39:33 | 49.49170 | 11.16406 | 316° | 26km/h | 460m | -3.4m/s | 19.7°C | 65.9% | 963.6hPa | 2.7V | 00:00:00 | 03:21:14 | 00:00:00 | |
| DB0NH | 2026-08-31 01:39:32 | 49.49165 | 11.16413 | 321° | 22km/h | 463m | -3.5m/s | 19.8°C | 65.5% | 963.3hPa | 2.7V | 00:00:00 | 03:21:13 | 00:00:00 | |
| NBG1-10 | 2026-08-31 01:39:31 | 49.49160 | 11.16419 | 325° | 24km/h | 467m | -3.3m/s | 19.8°C | 65.0% | 962.8hPa | 2.7V | 00:00:00 | 03:21:12 | 00:00:00 | |
| NBG1-10 | 2026-08-31 01:39:29 | 49.49151 | 11.16428 | 334° | 18km/h | 474m | -3.2m/s | 20.1°C | 63.7% | 962.1hPa | 2.7V | 00:00:00 | 03:21:10 | 00:00:00 | |
| NBG1-10 | 2026-08-31 01:39:27 | 49.49143 | 11.16434 | 333° | 15km/h | 480m | -3.1m/s | 20.2°C | 62.6% | 961.6hPa | 2.7V | 00:00:00 | 03:21:08 | 00:00:00 | |
| DB0NH | 2026-08-31 01:39:27 | 49.49143 | 11.16434 | 333° | 16km/h | 480m | -3.1m/s | 20.2°C | 62.6% | 961.6hPa | 2.7V | 07:22:00 | 03:21:08 | 00:00:00 | |
| NBG1-10 | 2026-08-31 01:39:25 | 49.49137 | 11.16440 | 324° | 15km/h | 487m | -3.2m/s | 20.4°C | 61.9% | 960.8hPa | 2.7V | 00:00:00 | 03:21:06 | 00:00:00 | |
| NBG1-10 | 2026-08-31 01:39:23 | 49.49130 | 11.16448 | 318° | 20km/h | 493m | -3.0m/s | 20.6°C | 60.1% | 959.8hPa | 2.7V | 00:00:00 | 03:21:04 | 00:00:00 | |
| DB0NH | 2026-08-31 01:39:22 | 49.49127 | 11.16453 | 319° | 22km/h | 497m | -3.2m/s | 20.7°C | 59.6% | 959.7hPa | 2.7V | 00:00:00 | 03:21:03 | 00:00:00 | |
| NBG1-10 | 2026-08-31 01:39:21 | 49.49123 | 11.16458 | 322° | 24km/h | 500m | -3.3m/s | 20.8°C | 58.9% | 959.3hPa | 2.7V | 00:00:00 | 03:21:02 | 00:00:00 | |
| NBG1-10 | 2026-08-31 01:39:19 | 49.49113 | 11.16468 | 334° | 22km/h | 506m | -3.0m/s | 21.0°C | 57.9% | 958.6hPa | 2.7V | 07:22:00 | 03:21:00 | 00:00:00 | |
| NBG1-10 | 2026-08-31 01:39:17 | 49.49103 | 11.16475 | 336° | 18km/h | 512m | -3.2m/s | 21.2°C | 56.7% | 957.8hPa | 2.7V | 00:00:00 | 03:20:58 | 00:00:00 | |
| DB0NH | 2026-08-31 01:39:17 | 49.49103 | 11.16475 | 336° | 18km/h | 512m | -3.2m/s | 21.2°C | 56.7% | 957.8hPa | 2.7V | 00:00:00 | 03:20:58 | 00:00:00 | |
| NBG1-10 | 2026-08-31 01:39:15 | 49.49096 | 11.16482 | 321° | 18km/h | 519m | -3.4m/s | 21.4°C | 55.8% | 957.3hPa | 2.7V | 00:00:00 | 03:20:56 | 00:00:00 | |
| NBG1-10 | 2026-08-31 01:39:13 | 49.49088 | 11.16492 | 318° | 24km/h | 525m | -3.1m/s | 21.4°C | 55.5% | 956.4hPa | 2.7V | 00:00:00 | 03:20:54 | 00:00:00 | |
| DB0NH | 2026-08-31 01:39:12 | 49.49084 | 11.16497 | 320° | 24km/h | 529m | -3.0m/s | 21.5°C | 54.8% | 956.0hPa | 2.7V | 00:00:00 | 03:20:53 | 00:00:00 | |
| NBG1-10 | 2026-08-31 01:39:11 | 49.49079 | 11.16503 | 325° | 26km/h | 532m | -3.3m/s | 21.5°C | 54.3% | 955.8hPa | 2.7V | 00:00:00 | 03:20:52 | 00:00:00 | |
| NBG1-10 | 2026-08-31 01:39:09 | 49.49068 | 11.16514 | 333° | 24km/h | 538m | -3.0m/s | 21.4°C | 54.2% | 955.0hPa | 2.7V | 00:00:00 | 03:20:50 | 00:00:00 | |
| NBG1-10 | 2026-08-31 01:39:07 | 49.49058 | 11.16521 | 329° | 20km/h | 544m | -3.1m/s | 21.4°C | 53.4% | 954.3hPa | 2.7V | 00:00:00 | 03:20:48 | 00:00:00 | |
| DB0NH | 2026-08-31 01:39:07 | 49.49058 | 11.16521 | 329° | 22km/h | 544m | -3.1m/s | 21.4°C | 53.4% | 954.3hPa | 2.7V | 00:00:00 | 03:20:48 | 00:00:00 | |
| NBG1-10 | 2026-08-31 01:39:05 | 49.49050 | 11.16531 | 322° | 24km/h | 551m | -3.2m/s | 21.4°C | 53.4% | 953.5hPa | 2.7V | 00:00:00 | 03:20:46 | 00:00:00 | |
| NBG1-10 | 2026-08-31 01:39:03 | 49.49040 | 11.16542 | 329° | 24km/h | 557m | -3.1m/s | 21.4°C | 53.7% | 953.0hPa | 2.7V | 07:22:00 | 03:20:44 | 00:00:00 | |
| DB0NH | 2026-08-31 01:39:02 | 49.49035 | 11.16546 | 335° | 20km/h | 561m | -3.2m/s | 21.3°C | 53.9% | 952.6hPa | 2.7V | 00:00:00 | 03:20:43 | 00:00:00 | |
| NBG1-10 | 2026-08-31 01:39:01 | 49.49030 | 11.16550 | 337° | 20km/h | 564m | -3.1m/s | 21.3°C | 54.0% | 952.1hPa | 2.7V | 00:00:00 | 03:20:42 | 00:00:00 | |
| NBG1-10 | 2026-08-31 01:38:59 | 49.49021 | 11.16556 | 328° | 18km/h | 571m | -3.2m/s | 21.3°C | 54.4% | 951.5hPa | 2.7V | 00:00:00 | 03:20:40 | 00:00:00 | |
| NBG1-10 | 2026-08-31 01:38:57 | 49.49014 | 11.16566 | 316° | 22km/h | 577m | -3.2m/s | 21.3°C | 54.1% | 950.8hPa | 2.7V | 00:00:00 | 03:20:38 | 00:00:00 | |
| DB0NH | 2026-08-31 01:38:57 | 49.49014 | 11.16566 | 316° | 24km/h | 577m | -3.2m/s | 21.3°C | 54.1% | 950.8hPa | 2.7V | 00:00:00 | 03:20:38 | 00:00:00 | |
| NBG1-10 | 2026-08-31 01:38:55 | 49.49005 | 11.16577 | 324° | 24km/h | 583m | -3.2m/s | 21.2°C | 54.2% | 949.9hPa | 2.7V | 00:00:00 | 03:20:36 | 00:00:00 | |
| NBG1-10 | 2026-08-31 01:38:53 | 49.48994 | 11.16587 | 335° | 22km/h | 590m | -3.3m/s | 21.2°C | 54.5% | 949.3hPa | 2.7V | 00:00:00 | 03:20:34 | 00:00:00 | |
| DB0NH | 2026-08-31 01:38:52 | 49.48989 | 11.16591 | 336° | 20km/h | 593m | -3.3m/s | 21.1°C | 54.8% | 949.1hPa | 2.7V | 00:00:00 | 03:20:33 | 00:00:00 | |
| NBG1-10 | 2026-08-31 01:38:51 | 49.48985 | 11.16594 | 334° | 20km/h | 596m | -3.2m/s | 21.1°C | 55.0% | 948.6hPa | 2.7V | 00:00:00 | 03:20:32 | 00:00:00 | |
| NBG1-10 | 2026-08-31 01:38:49 | 49.48976 | 11.16602 | 325° | 22km/h | 603m | -3.3m/s | 21.1°C | 55.5% | 947.8hPa | 2.7V | 00:00:00 | 03:20:30 | 00:00:00 | |
| DB0NH | 2026-08-31 01:38:47 | 49.48967 | 11.16611 | 331° | 20km/h | 610m | -3.3m/s | 21.0°C | 55.3% | 947.2hPa | 2.7V | 07:23:00 | 03:20:28 | 00:00:00 | |
| NBG1-10 | 2026-08-31 01:38:47 | 49.48967 | 11.16611 | 331° | 22km/h | 610m | -3.3m/s | 21.0°C | 55.3% | 947.2hPa | 2.7V | 07:23:00 | 03:20:28 | 00:00:00 | |
| NBG1-10 | 2026-08-31 01:38:45 | 49.48957 | 11.16618 | 339° | 18km/h | 616m | -3.2m/s | 21.0°C | 54.4% | 946.4hPa | 2.7V | 00:00:00 | 03:20:26 | 00:00:00 | |
| NBG1-10 | 2026-08-31 01:38:43 | 49.48949 | 11.16624 | 331° | 16km/h | 623m | -3.2m/s | 21.0°C | 53.9% | 945.8hPa | 2.7V | 00:00:00 | 03:20:24 | 00:00:00 | |
| DB0NH | 2026-08-31 01:38:42 | 49.48945 | 11.16628 | 321° | 22km/h | 627m | -3.3m/s | 21.0°C | 53.7% | 945.3hPa | 2.7V | 00:00:00 | 03:20:23 | 00:00:00 | |
| NBG1-10 | 2026-08-31 01:38:41 | 49.48942 | 11.16632 | 317° | 22km/h | 630m | -3.3m/s | 20.9°C | 53.7% | 944.8hPa | 2.7V | 00:00:00 | 03:20:22 | 00:00:00 | |
| NBG1-10 | 2026-08-31 01:38:39 | 49.48933 | 11.16644 | 326° | 24km/h | 637m | -3.3m/s | 20.9°C | 53.4% | 944.3hPa | 2.7V | 00:00:00 | 03:20:20 | 00:00:00 | |
| NBG1-10 | 2026-08-31 01:38:37 | 49.48922 | 11.16652 | 341° | 24km/h | 643m | -3.1m/s | 20.9°C | 53.3% | 943.7hPa | 2.7V | 00:00:00 | 03:20:18 | 00:00:00 | |
| DB0NH | 2026-08-31 01:38:37 | 49.48922 | 11.16652 | 341° | 20km/h | 643m | -3.1m/s | 20.9°C | 53.3% | 943.7hPa | 2.7V | 00:00:00 | 03:20:18 | 00:00:00 | |
| NBG1-10 | 2026-08-31 01:38:35 | 49.48911 | 11.16657 | 349° | 18km/h | 650m | -3.2m/s | 20.8°C | 53.1% | 942.8hPa | 2.7V | 00:00:00 | 03:20:16 | 00:00:00 | |
| NBG1-10 | 2026-08-31 01:38:33 | 49.48903 | 11.16660 | 338° | 15km/h | 657m | -3.4m/s | 20.7°C | 53.3% | 942.0hPa | 2.7V | 00:00:00 | 03:20:14 | 00:00:00 | |
| DB0NH | 2026-08-31 01:38:32 | 49.48899 | 11.16663 | 330° | 18km/h | 660m | -3.2m/s | 20.7°C | 53.4% | 941.7hPa | 2.7V | 00:00:00 | 03:20:13 | 00:00:00 | |
| NBG1-10 | 2026-08-31 01:38:31 | 49.48896 | 11.16667 | 320° | 16km/h | 663m | -3.2m/s | 20.7°C | 53.5% | 941.3hPa | 2.7V | 07:23:00 | 03:20:12 | 00:00:00 | |
| NBG1-10 | 2026-08-31 01:38:29 | 49.48890 | 11.16676 | 320° | 20km/h | 670m | -3.4m/s | 20.6°C | 53.6% | 940.6hPa | 2.7V | 00:00:00 | 03:20:10 | 00:00:00 | |
| NBG1-10 | 2026-08-31 01:38:27 | 49.48881 | 11.16685 | 331° | 22km/h | 676m | -3.2m/s | 20.6°C | 53.6% | 939.9hPa | 2.7V | 00:00:00 | 03:20:08 | 00:00:00 | |
| DB0NH | 2026-08-31 01:38:27 | 49.48881 | 11.16685 | 331° | 20km/h | 676m | -3.2m/s | 20.6°C | 53.6% | 939.9hPa | 2.7V | 00:00:00 | 03:20:08 | 00:00:00 | |
| NBG1-10 | 2026-08-31 01:38:25 | 49.48871 | 11.16692 | 339° | 18km/h | 683m | -3.3m/s | 20.5°C | 53.7% | 939.3hPa | 2.7V | 00:00:00 | 03:20:06 | 00:00:00 | |
| NBG1-10 | 2026-08-31 01:38:23 | 49.48863 | 11.16697 | 333° | 18km/h | 690m | -3.3m/s | 20.4°C | 53.5% | 938.3hPa | 2.7V | 00:00:00 | 03:20:04 | 00:00:00 | |
| DB0NH | 2026-08-31 01:38:22 | 49.48859 | 11.16701 | 331° | 20km/h | 693m | -3.3m/s | 20.4°C | 53.6% | 938.1hPa | 2.7V | 00:00:00 | 03:20:03 | 00:00:00 | |
| NBG1-10 | 2026-08-31 01:38:19 | 49.48844 | 11.16711 | 342° | 20km/h | 703m | -3.3m/s | 20.4°C | 52.7% | 937.0hPa | 2.7V | 00:00:00 | 03:20:00 | 00:00:00 | |
| NBG1-10 | 2026-08-31 01:38:17 | 49.48835 | 11.16715 | 344° | 16km/h | 710m | -3.2m/s | 20.3°C | 52.7% | 936.3hPa | 2.7V | 00:00:00 | 03:19:58 | 00:00:00 | |
| DB0NH | 2026-08-31 01:38:17 | 49.48835 | 11.16715 | 344° | 16km/h | 710m | -3.2m/s | 20.3°C | 52.7% | 936.3hPa | 2.7V | 00:00:00 | 03:19:58 | 00:00:00 | |
| NBG1-10 | 2026-08-31 01:38:15 | 49.48828 | 11.16721 | 329° | 16km/h | 716m | -3.2m/s | 20.3°C | 52.7% | 935.6hPa | 2.7V | 07:23:00 | 03:19:56 | 00:00:00 | |
| NBG1-10 | 2026-08-31 01:38:13 | 49.48821 | 11.16729 | 326° | 20km/h | 723m | -3.3m/s | 20.2°C | 52.8% | 935.0hPa | 2.7V | 00:00:00 | 03:19:54 | 00:00:00 | |
| DB0NH | 2026-08-31 01:38:12 | 49.48816 | 11.16732 | 330° | 18km/h | 726m | -3.2m/s | 20.2°C | 53.0% | 934.5hPa | 2.7V | 00:00:00 | 03:19:53 | 00:00:00 | |
| NBG1-10 | 2026-08-31 01:38:11 | 49.48812 | 11.16736 | 337° | 20km/h | 730m | -3.1m/s | 20.2°C | 53.0% | 934.1hPa | 2.7V | 00:00:00 | 03:19:52 | 00:00:00 | |
| NBG1-10 | 2026-08-31 01:38:09 | 49.48803 | 11.16741 | 339° | 16km/h | 736m | -3.3m/s | 20.1°C | 52.9% | 933.4hPa | 2.7V | 00:00:00 | 03:19:50 | 00:00:00 | |
| DB0NH | 2026-08-31 01:38:07 | 49.48796 | 11.16746 | 329° | 16km/h | 743m | -3.4m/s | 20.1°C | 53.1% | 932.7hPa | 2.7V | 07:23:00 | 03:19:48 | 00:00:00 | |
| NBG1-10 | 2026-08-31 01:38:07 | 49.48796 | 11.16746 | 329° | 16km/h | 743m | -3.4m/s | 20.1°C | 53.1% | 932.7hPa | 2.7V | 00:00:00 | 03:19:48 | 00:00:00 | |
| NBG1-10 | 2026-08-31 01:38:05 | 49.48788 | 11.16753 | 329° | 18km/h | 750m | -3.2m/s | 20.0°C | 53.4% | 931.9hPa | 2.7V | 00:00:00 | 03:19:46 | 00:00:00 | |
| NBG1-10 | 2026-08-31 01:38:03 | 49.48781 | 11.16759 | 338° | 15km/h | 756m | -3.2m/s | 20.1°C | 52.1% | 931.3hPa | 2.7V | 00:00:00 | 03:19:44 | 00:00:00 | |
| DB0NH | 2026-08-31 01:38:02 | 49.48777 | 11.16762 | 336° | 15km/h | 759m | -3.2m/s | 20.0°C | 51.2% | 931.0hPa | 2.7V | 00:00:00 | 03:19:43 | 00:00:00 | |
| NBG1-10 | 2026-08-31 01:38:01 | 49.48774 | 11.16764 | 331° | 15km/h | 763m | -3.3m/s | 20.0°C | 51.1% | 930.6hPa | 2.7V | 00:00:00 | 03:19:42 | 00:00:00 | |
| NBG1-10 | 2026-08-31 01:37:59 | 49.48768 | 11.16771 | 326° | 16km/h | 770m | -3.4m/s | 20.0°C | 50.7% | 929.8hPa | 2.7V | 07:23:00 | 03:19:40 | 00:00:00 | |
| NBG1-10 | 2026-08-31 01:37:57 | 49.48760 | 11.16777 | 340° | 16km/h | 776m | -3.3m/s | 20.0°C | 50.1% | 929.0hPa | 2.7V | 00:00:00 | 03:19:38 | 00:00:00 | |
| DB0NH | 2026-08-31 01:37:57 | 49.48760 | 11.16777 | 340° | 15km/h | 776m | -3.3m/s | 20.0°C | 50.1% | 929.0hPa | 2.7V | 00:00:00 | 03:19:38 | 00:00:00 | |
| NBG1-10 | 2026-08-31 01:37:55 | 49.48752 | 11.16780 | 347° | 15km/h | 783m | -3.2m/s | 19.9°C | 50.1% | 928.3hPa | 2.7V | 00:00:00 | 03:19:36 | 00:00:00 | |
| NBG1-10 | 2026-08-31 01:37:53 | 49.48745 | 11.16784 | 336° | 13km/h | 790m | -3.3m/s | 19.9°C | 50.1% | 927.5hPa | 2.7V | 00:00:00 | 03:19:34 | 00:00:00 | |
| DB0NH | 2026-08-31 01:37:52 | 49.48742 | 11.16786 | 333° | 16km/h | 793m | -3.3m/s | 19.9°C | 50.1% | 927.2hPa | 2.7V | 00:00:00 | 03:19:33 | 00:00:00 | |
| NBG1-10 | 2026-08-31 01:37:51 | 49.48739 | 11.16788 | 336° | 16km/h | 797m | -3.4m/s | 19.9°C | 50.1% | 926.8hPa | 2.7V | 00:00:00 | 03:19:32 | 00:00:00 | |
| NBG1-10 | 2026-08-31 01:37:49 | 49.48731 | 11.16792 | 350° | 16km/h | 803m | -3.2m/s | 19.8°C | 50.3% | 926.2hPa | 2.7V | 00:00:00 | 03:19:30 | 00:00:00 | |
| NBG1-10 | 2026-08-31 01:37:47 | 49.48723 | 11.16794 | 351° | 11km/h | 810m | -3.2m/s | 19.8°C | 50.4% | 925.3hPa | 2.7V | 00:00:00 | 03:19:28 | 00:00:00 | |
| DB0NH | 2026-08-31 01:37:47 | 49.48723 | 11.16794 | 351° | 13km/h | 810m | -3.2m/s | 19.8°C | 50.4% | 925.3hPa | 2.7V | 00:00:00 | 03:19:28 | 00:00:00 | |
| NBG1-10 | 2026-08-31 01:37:45 | 49.48718 | 11.16797 | 325° | 13km/h | 817m | -3.1m/s | 19.7°C | 50.3% | 924.8hPa | 2.7V | 00:00:00 | 03:19:26 | 00:00:00 | |
| NBG1-10 | 2026-08-31 01:37:43 | 49.48712 | 11.16805 | 319° | 18km/h | 823m | -3.1m/s | 19.7°C | 50.4% | 924.0hPa | 2.7V | 07:24:00 | 03:19:24 | 00:00:00 | |
| DB0NH | 2026-08-31 01:37:42 | 49.48709 | 11.16810 | 318° | 20km/h | 827m | -3.3m/s | 19.7°C | 50.2% | 923.9hPa | 2.7V | 00:00:00 | 03:19:23 | 00:00:00 | |
| NBG1-10 | 2026-08-31 01:37:41 | 49.48706 | 11.16814 | 319° | 20km/h | 830m | -3.3m/s | 19.7°C | 50.3% | 923.4hPa | 2.7V | 00:00:00 | 03:19:22 | 00:00:00 | |
| NBG1-10 | 2026-08-31 01:37:39 | 49.48698 | 11.16824 | 323° | 20km/h | 837m | -3.4m/s | 19.6°C | 49.9% | 922.5hPa | 2.7V | 00:00:00 | 03:19:20 | 00:00:00 | |
| NBG1-10 | 2026-08-31 01:37:37 | 49.48689 | 11.16833 | 331° | 22km/h | 844m | -3.5m/s | 19.6°C | 50.1% | 922.0hPa | 2.7V | 00:00:00 | 03:19:18 | 00:00:00 | |
| DB0NH | 2026-08-31 01:37:37 | 49.48689 | 11.16833 | 331° | 22km/h | 844m | -3.5m/s | 19.6°C | 50.1% | 922.0hPa | 2.7V | 00:00:00 | 03:19:18 | 00:00:00 | |
| NBG1-10 | 2026-08-31 01:37:35 | 49.48679 | 11.16840 | 339° | 22km/h | 851m | -3.2m/s | 19.6°C | 50.3% | 921.1hPa | 2.7V | 00:00:00 | 03:19:16 | 00:00:00 | |
| NBG1-10 | 2026-08-31 01:37:33 | 49.48669 | 11.16844 | 349° | 20km/h | 858m | -3.2m/s | 19.5°C | 50.6% | 920.3hPa | 2.7V | 00:00:00 | 03:19:14 | 00:00:00 | |
| DB0NH | 2026-08-31 01:37:32 | 49.48664 | 11.16845 | 358° | 16km/h | 861m | -3.4m/s | 19.5°C | 50.6% | 919.9hPa | 2.7V | 00:00:00 | 03:19:13 | 00:00:00 | |
| NBG1-10 | 2026-08-31 01:37:31 | 49.48659 | 11.16845 | 1° | 18km/h | 864m | -3.2m/s | 19.6°C | 50.8% | 919.7hPa | 2.7V | 00:00:00 | 03:19:12 | 00:00:00 | |
| NBG1-10 | 2026-08-31 01:37:29 | 49.48650 | 11.16846 | 357° | 16km/h | 871m | -3.3m/s | 19.5°C | 51.0% | 919.0hPa | 2.7V | 00:00:00 | 03:19:10 | 00:00:00 | |
| NBG1-10 | 2026-08-31 01:37:27 | 49.48642 | 11.16847 | 349° | 18km/h | 878m | -3.5m/s | 19.5°C | 51.2% | 918.3hPa | 2.7V | 07:24:00 | 03:19:08 | 00:00:00 | |
| DB0NH | 2026-08-31 01:37:27 | 49.48642 | 11.16847 | 349° | 18km/h | 878m | -3.5m/s | 19.5°C | 51.2% | 918.3hPa | 2.7V | 07:24:00 | 03:19:08 | 00:00:00 | |
| NBG1-10 | 2026-08-31 01:37:25 | 49.48633 | 11.16850 | 357° | 18km/h | 885m | -3.6m/s | 19.5°C | 51.5% | 917.6hPa | 2.7V | 00:00:00 | 03:19:06 | 00:00:00 | |
| NBG1-10 | 2026-08-31 01:37:23 | 49.48623 | 11.16850 | 359° | 16km/h | 892m | -3.8m/s | 19.5°C | 52.3% | 916.7hPa | 2.7V | 00:00:00 | 03:19:04 | 00:00:00 | |
| DB0NH | 2026-08-31 01:37:22 | 49.48619 | 11.16851 | 355° | 18km/h | 896m | -3.6m/s | 19.4°C | 52.7% | 916.5hPa | 2.7V | 00:00:00 | 03:19:03 | 00:00:00 | |
| NBG1-10 | 2026-08-31 01:37:21 | 49.48615 | 11.16851 | 353° | 20km/h | 899m | -3.5m/s | 19.4°C | 52.7% | 916.0hPa | 2.7V | 00:00:00 | 03:19:02 | 00:00:00 | |
| DB0NH | 2026-08-31 01:37:17 | 49.48595 | 11.16853 | 357° | 20km/h | 914m | -3.6m/s | 19.3°C | 53.3% | 914.4hPa | 2.7V | 00:00:00 | 03:18:58 | 00:00:00 | |
| NBG1-10 | 2026-08-31 01:37:14 | 49.48581 | 11.16858 | 341° | 22km/h | 925m | -3.6m/s | 19.2°C | 54.0% | 913.3hPa | 2.7V | 00:00:00 | 03:18:55 | 00:00:00 | |
| DB0NH | 2026-08-31 01:37:12 | 49.48569 | 11.16862 | 354° | 22km/h | 932m | -3.5m/s | 19.1°C | 54.1% | 912.4hPa | 2.7V | 00:00:00 | 03:18:53 | 00:00:00 | |
| NBG1-10 | 2026-08-31 01:37:07 | 49.48542 | 11.16859 | 358° | 20km/h | 949m | -3.3m/s | 19.0°C | 55.0% | 910.6hPa | 2.7V | 00:00:00 | 03:18:48 | 00:00:00 | |
| DB0NH | 2026-08-31 01:37:07 | 49.48542 | 11.16859 | 358° | 18km/h | 949m | -3.3m/s | 19.0°C | 55.0% | 910.6hPa | 2.7V | 00:00:00 | 03:18:48 | 00:00:00 | |
| DB0NH | 2026-08-31 01:37:02 | 49.48519 | 11.16870 | 345° | 24km/h | 967m | -3.7m/s | 18.8°C | 55.5% | 908.9hPa | 2.7V | 00:00:00 | 03:18:43 | 00:00:00 | |
| NBG1-10 | 2026-08-31 01:37:00 | 49.48507 | 11.16874 | 356° | 22km/h | 974m | -3.2m/s | 18.8°C | 55.6% | 908.2hPa | 2.7V | 00:00:00 | 03:18:41 | 00:00:00 | |
| DB0NH | 2026-08-31 01:36:57 | 49.48489 | 11.16872 | 9° | 18km/h | 983m | -3.3m/s | 18.7°C | 56.2% | 907.0hPa | 2.7V | 00:00:00 | 03:18:38 | 00:00:00 | |
| NBG1-10 | 2026-08-31 01:36:53 | 49.48471 | 11.16875 | 343° | 24km/h | 997m | -3.3m/s | 18.6°C | 56.7% | 905.6hPa | 2.7V | 00:00:00 | 03:18:34 | 00:00:00 | |
| DB0NH | 2026-08-31 01:36:52 | 49.48465 | 11.16877 | 346° | 24km/h | 1000m | -3.5m/s | 18.6°C | 57.1% | 905.4hPa | 2.7V | 00:00:00 | 03:18:33 | 00:00:00 | |
| NBG1-10 | 2026-08-31 01:36:46 | 49.48429 | 11.16883 | 350° | 26km/h | 1020m | -3.5m/s | 18.4°C | 58.5% | 903.3hPa | 2.7V | 07:25:00 | 03:18:27 | 00:00:00 | |
| DB0NH | 2026-08-31 01:36:43 | 49.48410 | 11.16889 | 354° | 26km/h | 1031m | -3.5m/s | 18.3°C | 59.4% | 901.9hPa | 2.7V | 07:25:00 | 03:18:24 | 00:00:00 | |
| NBG1-10 | 2026-08-31 01:36:39 | 49.48384 | 11.16888 | 2° | 26km/h | 1045m | -3.3m/s | 18.2°C | 59.8% | 900.5hPa | 2.7V | 00:00:00 | 03:18:20 | 00:00:00 | |
| DB0NH | 2026-08-31 01:36:33 | 49.48346 | 11.16892 | 357° | 27km/h | 1066m | -3.6m/s | 18.0°C | 60.9% | 898.5hPa | 2.7V | 00:00:00 | 03:18:14 | 00:00:00 | |
| NBG1-10 | 2026-08-31 01:36:32 | 49.48340 | 11.16893 | 353° | 27km/h | 1070m | -3.6m/s | 17.9°C | 61.1% | 898.2hPa | 2.7V | 00:00:00 | 03:18:13 | 00:00:00 | |
| NBG1-10 | 2026-08-31 01:36:25 | 49.48292 | 11.16901 | 355° | 29km/h | 1095m | -3.4m/s | 17.7°C | 62.5% | 895.4hPa | 2.7V | 00:00:00 | 03:18:06 | 00:00:00 | |
| DB0NH | 2026-08-31 01:36:23 | 49.48279 | 11.16904 | 349° | 27km/h | 1101m | -3.3m/s | 17.6°C | 62.7% | 894.5hPa | 2.7V | 00:00:00 | 03:18:04 | 00:00:00 | |
| NBG1-10 | 2026-08-31 01:36:18 | 49.48242 | 11.16908 | 3° | 26km/h | 1118m | -3.4m/s | 17.5°C | 63.0% | 892.9hPa | 2.7V | 00:00:00 | 03:17:59 | 00:00:00 | |
| DB0NH | 2026-08-31 01:36:13 | 49.48211 | 11.16916 | 345° | 31km/h | 1136m | -3.4m/s | 17.3°C | 65.0% | 891.1hPa | 2.7V | 00:00:00 | 03:17:54 | 00:00:00 | |
| NBG1-10 | 2026-08-31 01:36:11 | 49.48197 | 11.16921 | 349° | 31km/h | 1143m | -3.4m/s | 17.2°C | 66.2% | 890.2hPa | 2.7V | 00:00:00 | 03:17:52 | 00:00:00 | |
| NBG1-10 | 2026-08-31 01:36:04 | 49.48144 | 11.16934 | 347° | 33km/h | 1167m | -3.5m/s | 16.9°C | 72.9% | 887.5hPa | 2.7V | 00:00:00 | 03:17:45 | 00:00:00 | |
| DB0NH | 2026-08-31 01:36:03 | 49.48135 | 11.16936 | 351° | 33km/h | 1171m | -3.5m/s | 16.8°C | 75.2% | 887.4hPa | 2.7V | 00:00:00 | 03:17:44 | 00:00:00 | |
| NBG1-10 | 2026-08-31 01:35:57 | 49.48086 | 11.16943 | 350° | 31km/h | 1192m | -3.6m/s | 16.6°C | 76.7% | 885.2hPa | 2.7V | 00:00:00 | 03:17:38 | 00:00:00 | |
| DB0NH | 2026-08-31 01:35:53 | 49.48053 | 11.16951 | 358° | 31km/h | 1206m | -3.5m/s | 16.5°C | 77.8% | 883.7hPa | 2.7V | 00:00:00 | 03:17:34 | 00:00:00 | |
| NBG1-10 | 2026-08-31 01:35:50 | 49.48031 | 11.16954 | 348° | 33km/h | 1217m | -3.5m/s | 16.4°C | 78.0% | 882.6hPa | 2.7V | 07:26:00 | 03:17:31 | 00:00:00 | |
| DB0NH | 2026-08-31 01:35:43 | 49.47974 | 11.16972 | 358° | 33km/h | 1242m | -3.5m/s | 16.2°C | 78.9% | 879.9hPa | 2.7V | 00:00:00 | 03:17:24 | 00:00:00 | |
| NBG1-10 | 2026-08-31 01:35:43 | 49.47974 | 11.16972 | 358° | 33km/h | 1242m | -3.5m/s | 16.2°C | 78.9% | 879.9hPa | 2.7V | 00:00:00 | 03:17:24 | 00:00:00 | |
| NBG1-10 | 2026-08-31 01:35:36 | 49.47916 | 11.16977 | 358° | 35km/h | 1267m | -3.7m/s | 16.0°C | 79.9% | 877.3hPa | 2.7V | 00:00:00 | 03:17:17 | 00:00:00 | |
| DB0NH | 2026-08-31 01:35:33 | 49.47892 | 11.16983 | 349° | 35km/h | 1278m | -3.4m/s | 15.9°C | 80.6% | 876.3hPa | 2.7V | 00:00:00 | 03:17:14 | 00:00:00 | |
| NBG1-10 | 2026-08-31 01:35:29 | 49.47854 | 11.16988 | 3° | 31km/h | 1292m | -3.5m/s | 15.8°C | 81.5% | 874.8hPa | 2.7V | 00:00:00 | 03:17:10 | 00:00:00 | |
| DB0NH | 2026-08-31 01:35:23 | 49.47807 | 11.16983 | 353° | 37km/h | 1314m | -3.3m/s | 15.7°C | 81.0% | 872.5hPa | 2.7V | 07:26:00 | 03:17:04 | 00:00:00 | |
| NBG1-10 | 2026-08-31 01:35:22 | 49.47799 | 11.16985 | 352° | 38km/h | 1317m | -3.2m/s | 15.7°C | 81.1% | 872.2hPa | 2.7V | 00:00:00 | 03:17:03 | 00:00:00 | |
| NBG1-10 | 2026-08-31 01:35:15 | 49.47733 | 11.16983 | 12° | 33km/h | 1343m | -3.3m/s | 15.6°C | 81.2% | 869.7hPa | 2.7V | 00:00:00 | 03:16:56 | 00:00:00 | |
| DB0NH | 2026-08-31 01:35:13 | 49.47718 | 11.16979 | 7° | 37km/h | 1349m | -3.3m/s | 15.5°C | 81.5% | 869.0hPa | 2.7V | 00:00:00 | 03:16:54 | 00:00:00 | |
| NBG1-10 | 2026-08-31 01:35:08 | 49.47676 | 11.16982 | 1° | 38km/h | 1366m | -3.6m/s | 15.4°C | 81.8% | 867.3hPa | 2.7V | 00:00:00 | 03:16:49 | 00:00:00 | |
| DB0NH | 2026-08-31 01:35:03 | 49.47626 | 11.16971 | 16° | 33km/h | 1384m | -3.4m/s | 15.3°C | 82.2% | 865.5hPa | 2.7V | 00:00:00 | 03:16:44 | 00:00:00 | |
| NBG1-10 | 2026-08-31 01:35:01 | 49.47610 | 11.16963 | 17° | 33km/h | 1391m | -3.6m/s | 15.2°C | 82.2% | 864.8hPa | 2.7V | 00:00:00 | 03:16:42 | 00:00:00 | |
| NBG1-10 | 2026-08-31 01:34:54 | 49.47553 | 11.16953 | 8° | 35km/h | 1417m | -3.7m/s | 15.0°C | 83.4% | 862.1hPa | 2.7V | 07:26:00 | 03:16:35 | 00:00:00 | |
| DB0NH | 2026-08-31 01:34:53 | 49.47543 | 11.16951 | 12° | 37km/h | 1420m | -3.6m/s | 14.9°C | 83.6% | 861.7hPa | 2.7V | 00:00:00 | 03:16:34 | 00:00:00 | |
| NBG1-10 | 2026-08-31 01:34:47 | 49.47491 | 11.16941 | 5° | 35km/h | 1442m | -3.8m/s | 14.9°C | 83.0% | 859.7hPa | 2.7V | 00:00:00 | 03:16:28 | 00:00:00 | |
| DB0NH | 2026-08-31 01:34:43 | 49.47455 | 11.16930 | 15° | 37km/h | 1457m | -3.8m/s | 14.7°C | 83.9% | 858.1hPa | 2.7V | 00:00:00 | 03:16:24 | 00:00:00 | |
| NBG1-10 | 2026-08-31 01:34:40 | 49.47430 | 11.16924 | 6° | 38km/h | 1468m | -3.5m/s | 14.6°C | 84.4% | 856.9hPa | 2.7V | 00:00:00 | 03:16:21 | 00:00:00 | |
| NBG1-10 | 2026-08-31 01:34:33 | 49.47365 | 11.16897 | 23° | 35km/h | 1493m | -3.4m/s | 14.4°C | 84.5% | 854.4hPa | 2.7V | 00:00:00 | 03:16:14 | 00:00:00 | |
| DB0NH | 2026-08-31 01:34:33 | 49.47365 | 11.16897 | 23° | 37km/h | 1493m | -3.4m/s | 14.4°C | 84.5% | 854.4hPa | 2.7V | 00:00:00 | 03:16:14 | 00:00:00 | |
| NBG1-10 | 2026-08-31 01:34:26 | 49.47305 | 11.16880 | 10° | 37km/h | 1519m | -3.9m/s | 14.3°C | 84.2% | 851.6hPa | 2.7V | 00:00:00 | 03:16:07 | 00:00:00 | |
| DO3MHA-12 | 2026-08-31 01:34:23 | 49.47275 | 11.16869 | 18° | 40km/h | 1530m | -3.8m/s | 14.2°C | 84.1% | 850.6hPa | 2.7V | 00:00:00 | 03:16:04 | 00:00:00 | |
| DB0NH | 2026-08-31 01:34:23 | 49.47275 | 11.16869 | 18° | 37km/h | 1530m | -3.8m/s | 14.2°C | 84.1% | 850.6hPa | 2.7V | 00:00:00 | 03:16:04 | 00:00:00 | |
| DO3MHA-12 | 2026-08-31 01:34:18 | 49.47232 | 11.16845 | 19° | 35km/h | 1549m | -3.5m/s | 14.1°C | 84.4% | 848.9hPa | 2.7V | 00:00:00 | 03:15:59 | 00:00:00 | |
| DB0NH | 2026-08-31 01:34:13 | 49.47190 | 11.16823 | 22° | 33km/h | 1567m | -3.5m/s | 13.9°C | 85.2% | 846.9hPa | 2.7V | 00:00:00 | 03:15:54 | 00:00:00 | |
| DO3MHA-12 | 2026-08-31 01:34:07 | 49.47141 | 11.16798 | 23° | 33km/h | 1589m | -3.4m/s | 13.8°C | 84.6% | 844.8hPa | 2.7V | 07:27:00 | 03:15:48 | 00:00:00 | |
| NBG1-10 | 2026-08-31 01:34:04 | 49.47118 | 11.16784 | 17° | 33km/h | 1600m | -3.6m/s | 13.7°C | 83.9% | 843.7hPa | 2.7V | 00:00:00 | 03:15:45 | 00:00:00 | |
| DB0NH | 2026-08-31 01:34:03 | 49.47110 | 11.16781 | 18° | 33km/h | 1603m | -3.8m/s | 13.7°C | 83.9% | 843.3hPa | 2.7V | 07:27:00 | 03:15:44 | 00:00:00 | |
| DO3MHA-12 | 2026-08-31 01:34:02 | 49.47101 | 11.16776 | 22° | 33km/h | 1607m | -3.4m/s | 13.7°C | 83.6% | 843.0hPa | 2.7V | 00:00:00 | 03:15:43 | 00:00:00 | |
| DO3MHA-12 | 2026-08-31 01:33:57 | 49.47063 | 11.16752 | 21° | 31km/h | 1625m | -3.6m/s | 13.6°C | 81.9% | 841.1hPa | 2.7V | 00:00:00 | 03:15:38 | 00:00:00 | |
| DB0NH | 2026-08-31 01:33:53 | 49.47034 | 11.16733 | 23° | 33km/h | 1640m | -3.6m/s | 13.5°C | 81.5% | 839.7hPa | 2.7V | 00:00:00 | 03:15:34 | 00:00:00 | |
| DO3MHA-12 | 2026-08-31 01:33:47 | 49.46988 | 11.16713 | 23° | 35km/h | 1663m | -3.5m/s | 13.4°C | 79.6% | 837.5hPa | 2.7V | 00:00:00 | 03:15:28 | 00:00:00 | |
| DB0NH | 2026-08-31 01:33:43 | 49.46956 | 11.16687 | 32° | 31km/h | 1678m | -3.6m/s | 13.2°C | 79.5% | 835.8hPa | 2.7V | 00:00:00 | 03:15:24 | 00:00:00 | |
| NBG1-10 | 2026-08-31 01:33:42 | 49.46949 | 11.16680 | 31° | 31km/h | 1681m | -3.4m/s | 13.2°C | 79.1% | 835.6hPa | 2.7V | 00:00:00 | 03:15:23 | 00:00:00 | |
| DO3MHA-12 | 2026-08-31 01:33:42 | 49.46949 | 11.16680 | 31° | 29km/h | 1681m | -3.4m/s | 13.2°C | 79.1% | 835.6hPa | 2.7V | 00:00:00 | 03:15:23 | 00:00:00 | |
| DO3MHA-12 | 2026-08-31 01:33:37 | 49.46915 | 11.16658 | 22° | 31km/h | 1700m | -3.7m/s | 13.0°C | 79.4% | 833.8hPa | 2.7V | 00:00:00 | 03:15:18 | 00:00:00 | |
| DB0NH | 2026-08-31 01:33:33 | 49.46886 | 11.16639 | 20° | 31km/h | 1714m | -3.8m/s | 12.9°C | 79.6% | 832.4hPa | 2.7V | 00:00:00 | 03:15:14 | 00:00:00 | |
| DO3MHA-12 | 2026-08-31 01:33:31 | 49.46871 | 11.16631 | 20° | 33km/h | 1722m | -3.7m/s | 12.8°C | 79.6% | 831.7hPa | 2.7V | 00:00:00 | 03:15:12 | 00:00:00 | |
| DO3MHA-12 | 2026-08-31 01:33:26 | 49.46835 | 11.16600 | 32° | 27km/h | 1740m | -3.5m/s | 12.7°C | 80.3% | 829.9hPa | 2.7V | 00:00:00 | 03:15:07 | 00:00:00 | |
| DO3MHA-12 | 2026-08-31 01:33:21 | 49.46803 | 11.16581 | 22° | 31km/h | 1757m | -3.4m/s | 12.5°C | 80.3% | 828.2hPa | 2.7V | 07:28:00 | 03:15:02 | 00:00:00 | |
| NBG1-10 | 2026-08-31 01:33:20 | 49.46795 | 11.16576 | 26° | 29km/h | 1761m | -3.5m/s | 12.5°C | 80.2% | 827.7hPa | 2.7V | 00:00:00 | 03:15:01 | 00:00:00 | |
| DB0NH | 2026-08-31 01:33:13 | 49.46747 | 11.16539 | 30° | 29km/h | 1786m | -3.7m/s | 12.3°C | 79.7% | 825.3hPa | 2.7V | 00:00:00 | 03:14:54 | 00:00:00 | |
| DO3MHA-12 | 2026-08-31 01:33:11 | 49.46734 | 11.16526 | 33° | 29km/h | 1794m | -3.6m/s | 12.2°C | 80.4% | 824.6hPa | 2.7V | 00:00:00 | 03:14:52 | 00:00:00 | |
| DO3MHA-12 | 2026-08-31 01:33:06 | 49.46702 | 11.16499 | 33° | 29km/h | 1812m | -3.7m/s | 12.0°C | 80.9% | 822.8hPa | 2.7V | 00:00:00 | 03:14:47 | 00:00:00 | |
| DB0NH | 2026-08-31 01:33:03 | 49.46684 | 11.16482 | 27° | 29km/h | 1823m | -3.6m/s | 12.0°C | 81.1% | 821.8hPa | 2.7V | 00:00:00 | 03:14:44 | 00:00:00 | |
| DO3MHA-12 | 2026-08-31 01:33:01 | 49.46670 | 11.16472 | 27° | 31km/h | 1830m | -3.6m/s | 11.9°C | 79.8% | 821.0hPa | 2.7V | 00:00:00 | 03:14:42 | 00:00:00 | |
| NBG1-10 | 2026-08-31 01:32:58 | 49.46650 | 11.16453 | 36° | 31km/h | 1840m | -3.4m/s | 11.8°C | 80.2% | 820.0hPa | 2.7V | 07:28:00 | 03:14:39 | 00:00:00 | |
| DO3MHA-12 | 2026-08-31 01:32:56 | 49.46638 | 11.16441 | 32° | 31km/h | 1847m | -3.5m/s | 11.8°C | 79.5% | 819.2hPa | 2.7V | 00:00:00 | 03:14:37 | 00:00:00 | |
| DB0NH | 2026-08-31 01:32:53 | 49.46619 | 11.16423 | 33° | 31km/h | 1858m | -3.5m/s | 11.7°C | 79.1% | 818.2hPa | 2.7V | 00:00:00 | 03:14:34 | 00:00:00 | |
| DO3MHA-12 | 2026-08-31 01:32:51 | 49.46606 | 11.16408 | 40° | 29km/h | 1865m | -3.5m/s | 11.7°C | 79.0% | 817.3hPa | 2.7V | 00:00:00 | 03:14:32 | 00:00:00 | |
| DO3MHA-12 | 2026-08-31 01:32:46 | 49.46575 | 11.16377 | 31° | 31km/h | 1883m | -3.6m/s | 11.6°C | 78.1% | 815.6hPa | 2.7V | 00:00:00 | 03:14:27 | 00:00:00 | |
| DB0NH | 2026-08-31 01:32:43 | 49.46556 | 11.16355 | 41° | 31km/h | 1893m | -3.5m/s | 11.5°C | 78.3% | 814.8hPa | 2.7V | 07:29:00 | 03:14:24 | 00:00:00 | |
| DO3MHA-12 | 2026-08-31 01:32:41 | 49.46545 | 11.16341 | 37° | 31km/h | 1900m | -3.6m/s | 11.4°C | 78.5% | 814.1hPa | 2.7V | 07:29:00 | 03:14:22 | 00:00:00 | |
| DO3MHA-12 | 2026-08-31 01:32:36 | 49.46512 | 11.16306 | 39° | 31km/h | 1918m | -3.6m/s | 11.3°C | 78.7% | 812.4hPa | 2.7V | 00:00:00 | 03:14:17 | 00:00:00 | |
| NBG1-10 | 2026-08-31 01:32:36 | 49.46512 | 11.16306 | 39° | 31km/h | 1918m | -3.6m/s | 11.3°C | 78.7% | 812.4hPa | 2.7V | 00:00:00 | 03:14:17 | 00:00:00 | |
| DB0NH | 2026-08-31 01:32:33 | 49.46494 | 11.16286 | 31° | 31km/h | 1929m | -3.5m/s | 11.2°C | 78.7% | 811.3hPa | 2.7V | 00:00:00 | 03:14:14 | 00:00:00 | |
| DO3MHA-12 | 2026-08-31 01:32:31 | 49.46480 | 11.16272 | 36° | 31km/h | 1936m | -3.4m/s | 11.1°C | 78.9% | 810.6hPa | 2.7V | 00:00:00 | 03:14:12 | 00:00:00 | |
| DO3MHA-12 | 2026-08-31 01:32:26 | 49.46448 | 11.16240 | 30° | 33km/h | 1953m | -3.5m/s | 11.0°C | 79.1% | 808.9hPa | 2.7V | 00:00:00 | 03:14:07 | 00:00:00 | |
| DB0NH | 2026-08-31 01:32:23 | 49.46427 | 11.16217 | 42° | 31km/h | 1964m | -3.4m/s | 10.9°C | 80.0% | 807.9hPa | 2.7V | 00:00:00 | 03:14:04 | 00:00:00 | |
| DO3MHA-12 | 2026-08-31 01:32:21 | 49.46415 | 11.16201 | 44° | 29km/h | 1971m | -3.2m/s | 10.9°C | 80.4% | 807.2hPa | 2.7V | 00:00:00 | 03:14:02 | 00:00:00 | |
| DO3MHA-12 | 2026-08-31 01:32:16 | 49.46385 | 11.16168 | 34° | 31km/h | 1988m | -3.5m/s | 10.7°C | 81.3% | 805.6hPa | 2.7V | 00:00:00 | 03:13:57 | 00:00:00 | |
| NBG1-10 | 2026-08-31 01:32:14 | 49.46372 | 11.16153 | 38° | 33km/h | 1995m | -3.5m/s | 10.7°C | 81.5% | 805.0hPa | 2.7V | 00:00:00 | 03:13:55 | 00:00:00 | |
| DB0NH | 2026-08-31 01:32:13 | 49.46366 | 11.16147 | 35° | 33km/h | 1998m | -3.6m/s | 10.6°C | 81.8% | 804.5hPa | 2.7V | 00:00:00 | 03:13:54 | 00:00:00 | |
| DO3MHA-12 | 2026-08-31 01:32:11 | 49.46353 | 11.16133 | 32° | 33km/h | 2006m | -3.6m/s | 10.6°C | 82.0% | 803.8hPa | 2.7V | 00:00:00 | 03:13:52 | 00:00:00 | |
| DO3MHA-12 | 2026-08-31 01:32:06 | 49.46320 | 11.16092 | 45° | 29km/h | 2023m | -3.5m/s | 10.4°C | 82.8% | 802.3hPa | 2.7V | 00:00:00 | 03:13:47 | 00:00:00 | |
| DO3MHA-12 | 2026-08-31 01:32:01 | 49.46288 | 11.16061 | 30° | 38km/h | 2040m | -3.3m/s | 10.3°C | 83.6% | 800.4hPa | 2.7V | 07:29:00 | 03:13:42 | 00:00:00 | |
| DB0NH | 2026-08-31 01:31:58 | 49.46264 | 11.16036 | 41° | 35km/h | 2051m | -3.6m/s | 10.2°C | 83.9% | 799.5hPa | 2.7V | 00:00:00 | 03:13:39 | 00:00:00 | |
| DO3MHA-12 | 2026-08-31 01:31:56 | 49.46250 | 11.16016 | 46° | 31km/h | 2058m | -3.3m/s | 10.1°C | 84.1% | 799.0hPa | 2.7V | 00:00:00 | 03:13:37 | 00:00:00 | |
| NBG1-10 | 2026-08-31 01:31:52 | 49.46227 | 11.15982 | 37° | 35km/h | 2072m | -3.5m/s | 10.1°C | 83.7% | 797.7hPa | 2.7V | 00:00:00 | 03:13:33 | 00:00:00 | |
| DO3MHA-12 | 2026-08-31 01:31:51 | 49.46221 | 11.15975 | 35° | 38km/h | 2075m | -3.5m/s | 10.1°C | 83.2% | 797.3hPa | 2.7V | 00:00:00 | 03:13:32 | 00:00:00 | |
| DO3MHA-12 | 2026-08-31 01:31:46 | 49.46184 | 11.15927 | 50° | 35km/h | 2094m | -3.6m/s | 9.9°C | 83.4% | 795.4hPa | 2.7V | 00:00:00 | 03:13:27 | 00:00:00 | |
| DO3MHA-12 | 2026-08-31 01:31:41 | 49.46158 | 11.15876 | 48° | 33km/h | 2112m | -3.1m/s | 9.7°C | 84.0% | 793.9hPa | 2.7V | 00:00:00 | 03:13:22 | 00:00:00 | |
| DB0NH | 2026-08-31 01:31:38 | 49.46140 | 11.15851 | 42° | 37km/h | 2122m | -3.5m/s | 9.7°C | 84.0% | 792.7hPa | 2.7V | 00:00:00 | 03:13:19 | 00:00:00 | |
| DO3MHA-12 | 2026-08-31 01:31:36 | 49.46127 | 11.15831 | 49° | 35km/h | 2130m | -3.5m/s | 9.6°C | 84.1% | 792.1hPa | 2.7V | 00:00:00 | 03:13:17 | 00:00:00 | |
| DO3MHA-12 | 2026-08-31 01:31:31 | 49.46098 | 11.15779 | 50° | 35km/h | 2148m | -3.6m/s | 9.5°C | 82.9% | 790.4hPa | 2.7V | 00:00:00 | 03:13:12 | 00:00:00 | |
| NBG1-10 | 2026-08-31 01:31:30 | 49.46092 | 11.15768 | 53° | 38km/h | 2151m | -3.6m/s | 9.5°C | 82.9% | 790.1hPa | 2.7V | 00:00:00 | 03:13:11 | 00:00:00 | |
| DO3MHA-12 | 2026-08-31 01:31:26 | 49.46069 | 11.15727 | 44° | 40km/h | 2166m | -3.5m/s | 9.4°C | 83.1% | 788.6hPa | 2.7V | 00:00:00 | 03:13:07 | 00:00:00 | |
| DO3MHA-12 | 2026-08-31 01:31:21 | 49.46035 | 11.15669 | 55° | 38km/h | 2184m | -3.5m/s | 9.2°C | 82.9% | 786.8hPa | 2.7V | 07:30:00 | 03:13:02 | 00:00:00 | |
| DB0NH | 2026-08-31 01:31:18 | 49.46018 | 11.15634 | 50° | 38km/h | 2194m | -3.4m/s | 9.2°C | 82.2% | 785.9hPa | 2.7V | 00:00:00 | 03:12:59 | 00:00:00 | |
| DO3MHA-12 | 2026-08-31 01:31:16 | 49.46006 | 11.15612 | 51° | 38km/h | 2201m | -3.5m/s | 9.1°C | 81.9% | 785.2hPa | 2.7V | 00:00:00 | 03:12:57 | 00:00:00 | |
| DO3MHA-12 | 2026-08-31 01:31:11 | 49.45977 | 11.15551 | 52° | 40km/h | 2219m | -3.5m/s | 9.0°C | 81.9% | 783.5hPa | 2.7V | 00:00:00 | 03:12:52 | 00:00:00 | |
| NBG1-10 | 2026-08-31 01:31:08 | 49.45959 | 11.15513 | 58° | 40km/h | 2230m | -3.5m/s | 8.9°C | 82.4% | 782.4hPa | 2.7V | 00:00:00 | 03:12:49 | 00:00:00 | |
| DO3MHA-12 | 2026-08-31 01:31:01 | 49.45918 | 11.15425 | 59° | 38km/h | 2255m | -3.8m/s | 8.7°C | 81.9% | 780.2hPa | 2.7V | 00:00:00 | 03:12:42 | 00:00:00 | |
| DB0NH | 2026-08-31 01:30:58 | 49.45902 | 11.15388 | 52° | 42km/h | 2266m | -3.7m/s | 8.7°C | 81.4% | 779.0hPa | 2.7V | 00:00:00 | 03:12:39 | 00:00:00 | |
| DO3MHA-12 | 2026-08-31 01:30:56 | 49.45889 | 11.15364 | 51° | 44km/h | 2273m | -3.6m/s | 8.6°C | 81.8% | 778.4hPa | 2.7V | 00:00:00 | 03:12:37 | 00:00:00 | |
| DO3MHA-12 | 2026-08-31 01:30:51 | 49.45859 | 11.15294 | 60° | 44km/h | 2291m | -3.6m/s | 8.4°C | 84.9% | 776.7hPa | 2.7V | 00:00:00 | 03:12:32 | 00:00:00 | |
| DO3MHA-12 | 2026-08-31 01:30:46 | 49.45833 | 11.15221 | 65° | 40km/h | 2309m | -3.7m/s | 8.3°C | 86.8% | 775.1hPa | 2.7V | 00:00:00 | 03:12:27 | 00:00:00 | |
| DO3MHA-12 | 2026-08-31 01:30:41 | 49.45807 | 11.15155 | 57° | 42km/h | 2327m | -3.7m/s | 8.1°C | 88.9% | 773.3hPa | 2.7V | 07:31:00 | 03:12:22 | 00:00:00 | |
| DB0NH | 2026-08-31 01:30:38 | 49.45790 | 11.15112 | 61° | 44km/h | 2338m | -3.6m/s | 8.0°C | 91.1% | 772.5hPa | 2.6V | 07:31:00 | 03:12:19 | 00:00:00 | |
| DO3MHA-12 | 2026-08-31 01:30:36 | 49.45779 | 11.15084 | 59° | 46km/h | 2346m | -3.7m/s | 8.0°C | 91.9% | 771.8hPa | 2.6V | 00:00:00 | 03:12:17 | 00:00:00 | |
| DO3MHA-12 | 2026-08-31 01:30:26 | 49.45725 | 11.14930 | 59° | 44km/h | 2383m | -3.7m/s | 7.7°C | 93.8% | 768.3hPa | 2.6V | 00:00:00 | 03:12:07 | 00:00:00 | |
| NBG1-10 | 2026-08-31 01:30:24 | 49.45713 | 11.14899 | 63° | 46km/h | 2390m | -3.5m/s | 7.6°C | 94.5% | 767.6hPa | 2.7V | 00:00:00 | 03:12:05 | 00:00:00 | |
| DO3MHA-12 | 2026-08-31 01:30:21 | 49.45697 | 11.14858 | 55° | 46km/h | 2402m | -3.8m/s | 7.5°C | 95.0% | 766.6hPa | 2.7V | 00:00:00 | 03:12:02 | 00:00:00 | |
| DB0NH | 2026-08-31 01:30:18 | 49.45677 | 11.14817 | 56° | 46km/h | 2413m | -3.7m/s | 7.4°C | 95.9% | 765.6hPa | 2.7V | 00:00:00 | 03:11:59 | 00:00:00 | |
| DO3MHA-12 | 2026-08-31 01:30:16 | 49.45664 | 11.14784 | 61° | 46km/h | 2420m | -3.4m/s | 7.4°C | 96.5% | 764.9hPa | 2.7V | 00:00:00 | 03:11:57 | 00:00:00 | |
| DO3MHA-12 | 2026-08-31 01:30:11 | 49.45634 | 11.14708 | 53° | 49km/h | 2438m | -3.6m/s | 7.2°C | 97.5% | 763.3hPa | 2.7V | 00:00:00 | 03:11:52 | 00:00:00 | |
| DO3MHA-12 | 2026-08-31 01:30:06 | 49.45600 | 11.14626 | 65° | 42km/h | 2456m | -3.1m/s | 7.1°C | 98.7% | 761.6hPa | 2.7V | 00:00:00 | 03:11:47 | 00:00:00 | |
| NBG1-10 | 2026-08-31 01:30:02 | 49.45581 | 11.14568 | 56° | 47km/h | 2470m | -3.5m/s | 7.0°C | 99.1% | 760.3hPa | 2.7V | 07:31:00 | 03:11:43 | 00:00:00 | |
| DO3MHA-12 | 2026-08-31 01:30:01 | 49.45575 | 11.14556 | 55° | 40km/h | 2473m | -3.5m/s | 6.9°C | 98.9% | 759.9hPa | 2.7V | 07:31:00 | 03:11:42 | 00:00:00 | |
| DB0NH | 2026-08-31 01:29:58 | 49.45557 | 11.14520 | 49° | 49km/h | 2484m | -3.7m/s | 6.8°C | 99.5% | 758.8hPa | 2.7V | 00:00:00 | 03:11:39 | 00:00:00 | |
| DO3MHA-12 | 2026-08-31 01:29:56 | 49.45542 | 11.14495 | 49° | 49km/h | 2491m | -3.5m/s | 6.8°C | 99.0% | 758.3hPa | 2.7V | 00:00:00 | 03:11:37 | 00:00:00 | |
| DO3MHA-12 | 2026-08-31 01:29:51 | 49.45504 | 11.14416 | 58° | 53km/h | 2509m | -4.2m/s | 6.8°C | 96.5% | 756.5hPa | 2.7V | 00:00:00 | 03:11:32 | 00:00:00 | |
| DO3MHA-12 | 2026-08-31 01:29:46 | 49.45471 | 11.14325 | 65° | 51km/h | 2528m | -3.9m/s | 6.9°C | 93.7% | 754.8hPa | 2.7V | 00:00:00 | 03:11:27 | 00:00:00 | |
| DO3MHA-12 | 2026-08-31 01:29:41 | 49.45444 | 11.14236 | 68° | 46km/h | 2548m | -3.7m/s | 6.9°C | 90.8% | 753.0hPa | 2.7V | 00:00:00 | 03:11:22 | 00:00:00 | |
| NBG1-10 | 2026-08-31 01:29:40 | 49.45439 | 11.14218 | 68° | 46km/h | 2551m | -3.4m/s | 6.9°C | 91.1% | 752.7hPa | 2.6V | 00:00:00 | 03:11:21 | 00:00:00 | |
| DB0NH | 2026-08-31 01:29:38 | 49.45430 | 11.14186 | 67° | 46km/h | 2558m | -3.7m/s | 6.8°C | 91.2% | 751.9hPa | 2.7V | 00:00:00 | 03:11:19 | 00:00:00 | |
| DO3MHA-12 | 2026-08-31 01:29:36 | 49.45421 | 11.14157 | 61° | 40km/h | 2566m | -3.4m/s | 6.8°C | 91.3% | 751.4hPa | 2.7V | 00:00:00 | 03:11:17 | 00:00:00 | |
| DO3MHA-12 | 2026-08-31 01:29:31 | 49.45390 | 11.14092 | 52° | 51km/h | 2583m | -3.8m/s | 6.7°C | 90.9% | 749.8hPa | 2.7V | 00:00:00 | 03:11:12 | 00:00:00 | |
| DO3MHA-12 | 2026-08-31 01:29:26 | 49.45355 | 11.14006 | 66° | 47km/h | 2602m | -3.9m/s | 6.6°C | 91.0% | 748.0hPa | 2.7V | 00:00:00 | 03:11:07 | 00:00:00 | |
| DO3MHA-12 | 2026-08-31 01:29:21 | 49.45334 | 11.13921 | 69° | 40km/h | 2620m | -3.5m/s | 6.6°C | 90.4% | 746.4hPa | 2.7V | 07:32:00 | 03:11:02 | 00:00:00 | |
| NBG1-10 | 2026-08-31 01:29:18 | 49.45321 | 11.13879 | 59° | 49km/h | 2631m | -3.4m/s | 6.5°C | 90.5% | 745.4hPa | 2.7V | 00:00:00 | 03:10:59 | 00:00:00 | |
| DO3MHA-12 | 2026-08-31 01:29:16 | 49.45308 | 11.13851 | 55° | 53km/h | 2638m | -3.3m/s | 6.5°C | 90.2% | 744.9hPa | 2.7V | 00:00:00 | 03:10:57 | 00:00:00 | |
| DO3MHA-12 | 2026-08-31 01:29:11 | 49.45273 | 11.13764 | 63° | 55km/h | 2656m | -3.8m/s | 6.3°C | 90.3% | 743.1hPa | 2.7V | 00:00:00 | 03:10:52 | 00:00:00 | |
| DO3MHA-12 | 2026-08-31 01:29:06 | 49.45245 | 11.13666 | 70° | 49km/h | 2675m | -3.6m/s | 6.1°C | 91.2% | 741.2hPa | 2.7V | 00:00:00 | 03:10:47 | 00:00:00 | |
| DO3MHA-12 | 2026-08-31 01:29:01 | 49.45225 | 11.13578 | 66° | 46km/h | 2692m | -3.3m/s | 6.0°C | 91.2% | 739.8hPa | 2.7V | 00:00:00 | 03:10:42 | 00:00:00 | |
| DB0NH | 2026-08-31 01:28:58 | 49.45208 | 11.13534 | 56° | 53km/h | 2703m | -3.4m/s | 5.9°C | 91.7% | 739.0hPa | 2.7V | 00:00:00 | 03:10:39 | 00:00:00 | |
| NBG1-10 | 2026-08-31 01:28:57 | 49.45193 | 11.13502 | 57° | 55km/h | 2710m | -3.8m/s | 5.9°C | 91.9% | 738.3hPa | 2.7V | 00:00:00 | 03:10:37 | 00:00:00 | |
| DO3MHA-12 | 2026-08-31 01:28:56 | 49.45193 | 11.13502 | 57° | 55km/h | 2710m | -3.8m/s | 5.9°C | 91.9% | 738.3hPa | 2.7V | 00:00:00 | 03:10:37 | 00:00:00 | |
| DO3MHA-12 | 2026-08-31 01:28:51 | 49.45162 | 11.13406 | 72° | 51km/h | 2729m | -3.8m/s | 5.7°C | 92.8% | 736.5hPa | 2.7V | 00:00:00 | 03:10:32 | 00:00:00 | |
| DO3MHA-12 | 2026-08-31 01:28:46 | 49.45143 | 11.13314 | 67° | 51km/h | 2748m | -4.0m/s | 5.6°C | 93.4% | 734.8hPa | 2.7V | 00:00:00 | 03:10:27 | 00:00:00 | |
| DO3MHA-12 | 2026-08-31 01:28:41 | 49.45111 | 11.13227 | 61° | 62km/h | 2766m | -3.7m/s | 5.4°C | 94.5% | 733.1hPa | 2.7V | 07:33:00 | 03:10:22 | 00:00:00 | |
| DB0NH | 2026-08-31 01:28:38 | 49.45091 | 11.13162 | 66° | 55km/h | 2778m | -4.1m/s | 5.3°C | 93.6% | 732.1hPa | 2.6V | 00:00:00 | 03:10:19 | 00:00:00 | |
| DO3MHA-12 | 2026-08-31 01:28:36 | 49.45079 | 11.13118 | 69° | 60km/h | 2786m | -3.8m/s | 5.3°C | 94.0% | 731.3hPa | 2.6V | 00:00:00 | 03:10:17 | 00:00:00 | |
| NBG1-10 | 2026-08-31 01:28:34 | 49.45068 | 11.13073 | 72° | 55km/h | 2793m | -3.8m/s | 5.2°C | 93.7% | 730.8hPa | 2.6V | 00:00:00 | 03:10:15 | 00:00:00 | |
| DO3MHA-12 | 2026-08-31 01:28:31 | 49.45056 | 11.13008 | 74° | 55km/h | 2805m | -3.8m/s | 5.2°C | 93.8% | 729.8hPa | 2.6V | 00:00:00 | 03:10:12 | 00:00:00 | |
| DO3MHA-12 | 2026-08-31 01:28:26 | 49.45037 | 11.12908 | 73° | 47km/h | 2823m | -3.5m/s | 5.0°C | 95.0% | 728.0hPa | 2.6V | 00:00:00 | 03:10:07 | 00:00:00 | |
| DO3MHA-12 | 2026-08-31 01:28:21 | 49.45013 | 11.12823 | 62° | 57km/h | 2842m | -4.0m/s | 4.9°C | 94.4% | 726.3hPa | 2.7V | 00:00:00 | 03:10:02 | 00:00:00 | |
| DB0NH | 2026-08-31 01:28:18 | 49.44992 | 11.12768 | 61° | 57km/h | 2853m | -3.8m/s | 4.9°C | 94.2% | 725.2hPa | 2.7V | 00:00:00 | 03:09:59 | 00:00:00 | |
| DO3MHA-12 | 2026-08-31 01:28:16 | 49.44978 | 11.12725 | 65° | 64km/h | 2861m | -3.9m/s | 4.9°C | 93.1% | 724.7hPa | 2.7V | 00:00:00 | 03:09:57 | 00:00:00 | |
| NBG1-10 | 2026-08-31 01:28:12 | 49.44953 | 11.12635 | 69° | 53km/h | 2877m | -3.8m/s | 4.9°C | 90.4% | 723.2hPa | 2.7V | 00:00:00 | 03:09:53 | 00:00:00 | |
| DO3MHA-12 | 2026-08-31 01:28:11 | 49.44947 | 11.12612 | 69° | 58km/h | 2881m | -4.1m/s | 4.9°C | 90.0% | 722.9hPa | 2.7V | 00:00:00 | 03:09:52 | 00:00:00 | |
| DB0ND-19 | 2026-08-31 01:28:06 | 49.44920 | 11.12486 | 73° | 49km/h | 2904m | -3.9m/s | 4.9°C | 88.4% | 720.9hPa | 2.7V | 00:00:00 | 00:00:00 | 00:00:00 | |
| DO3MHA-12 | 2026-08-31 01:28:01 | 49.44903 | 11.12416 | 64° | 49km/h | 2920m | -4.0m/s | 4.8°C | 89.1% | 719.4hPa | 2.7V | 07:33:00 | 03:09:42 | 00:00:00 | |
| DB0NH | 2026-08-31 01:27:58 | 49.44885 | 11.12368 | 58° | 58km/h | 2932m | -4.3m/s | 4.9°C | 84.8% | 718.3hPa | 2.7V | 07:33:00 | 03:09:39 | 00:00:00 | |
| DO3MHA-12 | 2026-08-31 01:27:56 | 49.44871 | 11.12334 | 56° | 55km/h | 2940m | -3.7m/s | 4.9°C | 85.1% | 717.6hPa | 2.7V | 00:00:00 | 03:09:37 | 00:00:00 | |
| DO3MHA-12 | 2026-08-31 01:27:51 | 49.44830 | 11.12246 | 55° | 60km/h | 2960m | -4.5m/s | 4.7°C | 86.1% | 715.7hPa | 2.7V | 00:00:00 | 03:09:32 | 00:00:00 | |
| NBG1-10 | 2026-08-31 01:27:50 | 49.44822 | 11.12228 | 54° | 58km/h | 2964m | -4.0m/s | 4.7°C | 86.5% | 715.5hPa | 2.7V | 00:00:00 | 03:09:31 | 00:00:00 | |
| DO3MHA-12 | 2026-08-31 01:27:46 | 49.44788 | 11.12148 | 60° | 66km/h | 2981m | -4.4m/s | 4.5°C | 87.3% | 713.9hPa | 2.7V | 00:00:00 | 03:09:27 | 00:00:00 | |
| DO3MHA-12 | 2026-08-31 01:27:41 | 49.44752 | 11.12036 | 69° | 60km/h | 3000m | -3.8m/s | 4.4°C | 88.2% | 712.2hPa | 2.7V | 00:00:00 | 03:09:22 | 00:00:00 | |
| DB0NH | 2026-08-31 01:27:38 | 49.44736 | 11.11968 | 72° | 57km/h | 3011m | -4.0m/s | 4.3°C | 88.0% | 711.2hPa | 2.6V | 00:00:00 | 03:09:19 | 00:00:00 | |
| DO3MHA-12 | 2026-08-31 01:27:36 | 49.44727 | 11.11925 | 71° | 53km/h | 3019m | -4.3m/s | 4.2°C | 88.3% | 710.5hPa | 2.6V | 00:00:00 | 03:09:17 | 00:00:00 | |
| DB0ND-19 | 2026-08-31 01:27:34 | 49.44708 | 11.11849 | 66° | 49km/h | 3035m | -4.3m/s | 4.2°C | 87.3% | 709.2hPa | 2.6V | 00:00:00 | 00:00:00 | 00:00:00 | |
| DO3MHA-12 | 2026-08-31 01:27:31 | 49.44703 | 11.11832 | 65° | 53km/h | 3039m | -4.3m/s | 4.1°C | 88.8% | 708.7hPa | 2.6V | 00:00:00 | 03:09:12 | 00:00:00 | |
| NBG1-10 | 2026-08-31 01:27:28 | 49.44683 | 11.11782 | 55° | 58km/h | 3052m | -4.2m/s | 4.1°C | 87.0% | 707.7hPa | 2.6V | 00:00:00 | 03:09:09 | 00:00:00 | |
| DB0UT-7 | 2026-08-31 01:27:26 | 49.44667 | 11.11746 | 55° | 60km/h | 3060m | -4.0m/s | 4.1°C | 84.9% | 707.0hPa | 2.7V | 00:00:00 | 00:00:00 | 00:00:00 | |
| DO3MHA-12 | 2026-08-31 01:27:21 | 49.44626 | 11.11643 | 63° | 55km/h | 3080m | -4.1m/s | 4.1°C | 81.1% | 705.2hPa | 2.7V | 07:34:00 | 03:09:02 | 00:00:00 | |
| DO3MHA-12 | 2026-08-31 01:27:16 | 49.44592 | 11.11554 | 53° | 60km/h | 3100m | -4.5m/s | 4.0°C | 80.0% | 703.4hPa | 2.7V | 00:00:00 | 03:08:57 | 00:00:00 | |
| DO3MHA-12 | 2026-08-31 01:27:11 | 49.44548 | 11.11458 | 61° | 58km/h | 3121m | -4.6m/s | 4.0°C | 77.8% | 701.5hPa | 2.7V | 00:00:00 | 03:08:52 | 00:00:00 | |
| DB0NH | 2026-08-31 01:27:08 | 49.44528 | 11.11395 | 69° | 57km/h | 3133m | -4.2m/s | 4.0°C | 74.2% | 700.6hPa | 2.7V | 00:00:00 | 03:08:49 | 00:00:00 | |
| DO3MHA-12 | 2026-08-31 01:27:06 | 49.44517 | 11.11357 | 65° | 49km/h | 3142m | -4.7m/s | 4.0°C | 73.1% | 699.8hPa | 2.7V | 00:00:00 | 03:08:47 | 00:00:00 | |
| DB0ND-19 | 2026-08-31 01:27:03 | 49.44416 | 11.11148 | 46° | 58km/h | 3199m | -3.5m/s | 3.7°C | 67.4% | 695.2hPa | 2.7V | 00:00:00 | 00:00:00 | 00:00:00 | |
| DO3MHA-12 | 2026-08-31 01:27:01 | 49.44488 | 11.11274 | 56° | 51km/h | 3164m | -5.0m/s | 3.9°C | 69.9% | 698.1hPa | 2.7V | 00:00:00 | 03:08:42 | 00:00:00 | |
| DO3MHA-12 | 2026-08-31 01:26:56 | 49.44446 | 11.11197 | 48° | 58km/h | 3187m | -4.5m/s | 3.7°C | 69.6% | 696.2hPa | 2.7V | 00:00:00 | 03:08:37 | 00:00:00 | |
| DO3MHA-12 | 2026-08-31 01:26:51 | 49.44395 | 11.11112 | 49° | 66km/h | 3207m | -4.2m/s | 3.6°C | 67.5% | 694.2hPa | 2.7V | 00:00:00 | 03:08:32 | 00:00:00 | |
| DO3MHA-12 | 2026-08-31 01:26:46 | 49.44347 | 11.11009 | 60° | 62km/h | 3228m | -4.3m/s | 3.5°C | 64.6% | 692.5hPa | 2.7V | 00:00:00 | 03:08:27 | 00:00:00 | |
| NBG1-10 | 2026-08-31 01:26:44 | 49.44331 | 11.10966 | 63° | 58km/h | 3236m | -3.9m/s | 3.4°C | 63.0% | 691.8hPa | 2.7V | 00:00:00 | 03:08:25 | 00:00:00 | |
| DO3MHA-12 | 2026-08-31 01:26:41 | 49.44312 | 11.10906 | 64° | 51km/h | 3248m | -4.6m/s | 3.4°C | 61.9% | 690.9hPa | 2.7V | 07:35:00 | 03:08:22 | 00:00:00 | |
| DB0NH | 2026-08-31 01:26:38 | 49.44292 | 11.10853 | 58° | 60km/h | 3263m | -4.2m/s | 3.3°C | 61.8% | 689.7hPa | 2.7V | 00:00:00 | 03:08:19 | 00:00:00 | |
| DO3MHA-12 | 2026-08-31 01:26:36 | 49.44278 | 11.10821 | 52° | 53km/h | 3271m | -4.5m/s | 3.2°C | 61.8% | 688.8hPa | 2.7V | 00:00:00 | 03:08:17 | 00:00:00 | |
| DB0ND-19 | 2026-08-31 01:26:32 | 49.44242 | 11.10759 | 45° | 57km/h | 3288m | -4.2m/s | 3.1°C | 61.6% | 687.6hPa | 2.7V | 00:00:00 | 00:00:00 | 00:00:00 | |
| DO3MHA-12 | 2026-08-31 01:26:31 | 49.44231 | 11.10742 | 46° | 64km/h | 3292m | -4.1m/s | 3.0°C | 62.7% | 687.0hPa | 2.7V | 00:00:00 | 03:08:12 | 00:00:00 | |
| DO3MHA-12 | 2026-08-31 01:26:26 | 49.44178 | 11.10647 | 56° | 60km/h | 3313m | -4.7m/s | 2.8°C | 66.3% | 685.5hPa | 2.7V | 00:00:00 | 03:08:07 | 00:00:00 | |
| DO3MHA-12 | 2026-08-31 01:26:21 | 49.44140 | 11.10547 | 58° | 55km/h | 3334m | -4.4m/s | 2.6°C | 67.8% | 683.6hPa | 2.7V | 00:00:00 | 03:08:02 | 00:00:00 | |
| DO3MHA-12 | 2026-08-31 01:26:16 | 49.44095 | 11.10465 | 47° | 64km/h | 3354m | -5.1m/s | 2.5°C | 68.7% | 681.9hPa | 2.7V | 00:00:00 | 03:07:57 | 00:00:00 | |
| DB0UT-7 | 2026-08-31 01:26:15 | 49.44084 | 11.10447 | 48° | 62km/h | 3359m | -3.8m/s | 2.4°C | 68.9% | 681.7hPa | 2.7V | 00:00:00 | 03:07:56 | 00:00:00 | |
| DO3MHA-12 | 2026-08-31 01:26:11 | 49.44042 | 11.10371 | 53° | 66km/h | 3377m | -4.1m/s | 2.3°C | 70.0% | 679.9hPa | 2.7V | 00:00:00 | 03:07:52 | 00:00:00 | |
| DB0NH | 2026-08-31 01:26:08 | 49.44014 | 11.10307 | 61° | 60km/h | 3389m | -3.8m/s | 2.2°C | 70.4% | 679.1hPa | 2.6V | 00:00:00 | 03:07:49 | 00:00:00 | |
| DO3MHA-12 | 2026-08-31 01:26:06 | 49.43998 | 11.10262 | 63° | 60km/h | 3398m | -4.9m/s | 2.1°C | 70.6% | 678.1hPa | 2.6V | 00:00:00 | 03:07:47 | 00:00:00 | |
| DB0ND-19 | 2026-08-31 01:26:01 | 49.43936 | 11.10090 | 50° | 53km/h | 3437m | -4.7m/s | 1.9°C | 68.7% | 675.2hPa | 2.6V | 00:00:00 | 00:00:00 | 00:00:00 | |
| DF7PN | 2026-08-31 01:25:55 | 49.43908 | 11.10040 | 48° | 58km/h | 3450m | -4.6m/s | 1.8°C | 68.7% | 674.0hPa | 2.6V | 00:00:00 | 00:00:00 | 00:00:00 | |
| DO3MHA-12 | 2026-08-31 01:25:51 | 49.43876 | 11.09984 | 50° | 68km/h | 3464m | -4.9m/s | 1.7°C | 69.6% | 672.9hPa | 2.6V | 00:00:00 | 03:07:32 | 00:00:00 | |
| DO3MHA-12 | 2026-08-31 01:25:46 | 49.43825 | 11.09877 | 60° | 62km/h | 3485m | -4.1m/s | 1.5°C | 69.8% | 671.1hPa | 2.6V | 00:00:00 | 03:07:27 | 00:00:00 | |
| DB0UT-7 | 2026-08-31 01:25:45 | 49.43817 | 11.09854 | 63° | 62km/h | 3490m | -4.0m/s | 1.4°C | 69.7% | 670.7hPa | 2.6V | 00:00:00 | 00:00:00 | 00:00:00 | |
| DO3MHA-12 | 2026-08-31 01:25:41 | 49.43789 | 11.09770 | 61° | 57km/h | 3506m | -4.6m/s | 1.3°C | 69.7% | 669.3hPa | 2.7V | 00:00:00 | 03:07:22 | 00:00:00 | |
| NBG1-10 | 2026-08-31 01:25:38 | 49.43766 | 11.09717 | 52° | 62km/h | 3519m | -4.3m/s | 1.2°C | 69.8% | 668.5hPa | 2.7V | 00:00:00 | 03:07:19 | 00:00:00 | |
| DO3MHA-12 | 2026-08-31 01:25:36 | 49.43747 | 11.09681 | 51° | 64km/h | 3527m | -4.3m/s | 1.1°C | 69.6% | 667.6hPa | 2.7V | 00:00:00 | 03:07:17 | 00:00:00 | |
| DO3MHA-12 | 2026-08-31 01:25:31 | 49.43700 | 11.09578 | 60° | 62km/h | 3548m | -4.2m/s | 1.0°C | 68.9% | 666.0hPa | 2.7V | 00:00:00 | 03:07:12 | 00:00:00 | |
| DO3MHA-12 | 2026-08-31 01:25:26 | 49.43658 | 11.09476 | 59° | 62km/h | 3569m | -4.2m/s | 0.8°C | 69.3% | 664.3hPa | 2.7V | 00:00:00 | 03:07:07 | 00:00:00 | |
| DF7PN | 2026-08-31 01:25:24 | 49.43634 | 11.09414 | 57° | 60km/h | 3582m | -4.5m/s | 0.7°C | 69.1% | 663.2hPa | 2.7V | 00:00:00 | 00:00:00 | 00:00:00 | |
| DO3MHA-12 | 2026-08-31 01:25:21 | 49.43616 | 11.09373 | 57° | 62km/h | 3591m | -4.3m/s | 0.6°C | 71.8% | 662.5hPa | 2.7V | 07:36:00 | 03:07:02 | 00:00:00 | |
| DO3MHA-12 | 2026-08-31 01:25:16 | 49.43575 | 11.09269 | 59° | 62km/h | 3612m | -4.2m/s | 0.5°C | 70.2% | 660.8hPa | 2.7V | 00:00:00 | 03:06:57 | 00:00:00 | |
| DB0UT-7 | 2026-08-31 01:25:15 | 49.43567 | 11.09248 | 59° | 62km/h | 3617m | -4.3m/s | 0.4°C | 70.4% | 660.5hPa | 2.7V | 07:36:00 | 03:06:56 | 00:00:00 | |
| DO3MHA-12 | 2026-08-31 01:25:11 | 49.43535 | 11.09166 | 58° | 64km/h | 3634m | -4.2m/s | 0.3°C | 70.0% | 658.9hPa | 2.7V | 00:00:00 | 03:06:52 | 00:00:00 | |
| DB0NH | 2026-08-31 01:25:08 | 49.43510 | 11.09102 | 60° | 64km/h | 3647m | -4.2m/s | 0.2°C | 69.7% | 658.0hPa | 2.7V | 00:00:00 | 03:06:49 | 00:00:00 | |
| DO3MHA-12 | 2026-08-31 01:25:06 | 49.43494 | 11.09060 | 59° | 62km/h | 3655m | -4.3m/s | 0.1°C | 70.0% | 657.4hPa | 2.6V | 00:00:00 | 03:06:47 | 00:00:00 | |
| NBG1-10 | 2026-08-31 01:25:05 | 49.43486 | 11.09039 | 61° | 64km/h | 3660m | -4.1m/s | 0.1°C | 70.1% | 657.0hPa | 2.6V | 00:00:00 | 03:06:46 | 00:00:00 | |
| DB0ND-19 | 2026-08-31 01:24:59 | 49.43438 | 11.08914 | 58° | 64km/h | 3685m | -4.1m/s | -0.1°C | 69.7% | 654.9hPa | 2.6V | 00:00:00 | 00:00:00 | 00:00:00 | |
| DF7PN | 2026-08-31 01:24:52 | 49.43377 | 11.08760 | 62° | 68km/h | 3713m | -4.3m/s | -0.4°C | 71.2% | 652.7hPa | 2.6V | 00:00:00 | 00:00:00 | 00:00:00 | |
| DO3MHA-12 | 2026-08-31 01:24:51 | 49.43369 | 11.08737 | 65° | 60km/h | 3718m | -4.3m/s | -0.4°C | 72.9% | 652.1hPa | 2.6V | 00:00:00 | 03:06:32 | 00:00:00 | |
| DO3MHA-12 | 2026-08-31 01:24:46 | 49.43336 | 11.08635 | 59° | 60km/h | 3739m | -4.3m/s | -0.6°C | 74.3% | 650.6hPa | 2.6V | 00:00:00 | 03:06:27 | 00:00:00 | |
| DB0UT-7 | 2026-08-31 01:24:45 | 49.43328 | 11.08617 | 57° | 68km/h | 3743m | -4.4m/s | -0.6°C | 74.6% | 650.1hPa | 2.6V | 00:00:00 | 00:00:00 | 00:00:00 | |
| DO3MHA-12 | 2026-08-31 01:24:41 | 49.43291 | 11.08540 | 53° | 71km/h | 3760m | -4.3m/s | -0.8°C | 75.3% | 648.8hPa | 2.6V | 07:37:00 | 03:06:22 | 00:00:00 | |
| DB0NH | 2026-08-31 01:24:38 | 49.43261 | 11.08473 | 59° | 68km/h | 3772m | -3.8m/s | -0.9°C | 78.0% | 647.8hPa | 2.7V | 00:00:00 | 03:06:19 | 00:00:00 | |
| DO3MHA-12 | 2026-08-31 01:24:36 | 49.43243 | 11.08422 | 63° | 69km/h | 3780m | -4.1m/s | -1.0°C | 78.5% | 647.3hPa | 2.7V | 00:00:00 | 03:06:17 | 00:00:00 | |
| NBG1-10 | 2026-08-31 01:24:32 | 49.43214 | 11.08324 | 68° | 66km/h | 3797m | -4.0m/s | -1.1°C | 80.6% | 645.8hPa | 2.7V | 00:00:00 | 03:06:13 | 00:00:00 | |
| DO3MHA-12 | 2026-08-31 01:24:31 | 49.43207 | 11.08302 | 67° | 60km/h | 3801m | -3.6m/s | -1.2°C | 81.0% | 645.6hPa | 2.6V | 00:00:00 | 03:06:12 | 00:00:00 | |
| DB0ND-19 | 2026-08-31 01:24:28 | 49.43186 | 11.08242 | 58° | 58km/h | 3812m | -3.9m/s | -1.3°C | 80.0% | 644.5hPa | 2.6V | 00:00:00 | 00:00:00 | 00:00:00 | |
| DL1NUX | 2026-08-31 01:24:26 | 49.43119 | 11.08098 | 54° | 69km/h | 3842m | -4.7m/s | -1.6°C | 84.1% | 642.1hPa | 2.6V | 07:37:31 | 03:06:02 | 00:00:00 | |
| DO3MHA-12 | 2026-08-31 01:24:26 | 49.43169 | 11.08202 | 55° | 66km/h | 3820m | -3.9m/s | -1.4°C | 82.0% | 643.8hPa | 2.7V | 00:00:00 | 03:06:07 | 00:00:00 | |
| DO3MHA-12 | 2026-08-31 01:24:21 | 49.43119 | 11.08098 | 55° | 73km/h | 3842m | -4.6m/s | -1.6°C | 84.1% | 642.1hPa | 2.6V | 00:00:00 | 03:06:02 | 00:00:00 | |
| DO3MHA-12 | 2026-08-31 01:24:16 | 49.43070 | 11.07976 | 63° | 71km/h | 3862m | -4.0m/s | -1.7°C | 85.5% | 640.5hPa | 2.6V | 00:00:00 | 03:05:57 | 00:00:00 | |
| DB0UT-7 | 2026-08-31 01:24:15 | 49.43061 | 11.07950 | 66° | 69km/h | 3866m | -4.0m/s | -1.7°C | 84.6% | 640.2hPa | 2.6V | 00:00:00 | 03:05:56 | 00:00:00 | |
| DO3MHA-12 | 2026-08-31 01:24:11 | 49.43034 | 11.07854 | 63° | 60km/h | 3881m | -4.1m/s | -1.8°C | 83.7% | 638.8hPa | 2.7V | 00:00:00 | 03:05:52 | 00:00:00 | |
| DB0NH | 2026-08-31 01:24:08 | 49.43011 | 11.07792 | 59° | 71km/h | 3893m | -4.4m/s | -1.9°C | 83.7% | 637.9hPa | 2.7V | 07:37:00 | 03:05:49 | 00:00:00 | |
| DO3MHA-12 | 2026-08-31 01:24:06 | 49.42995 | 11.07753 | 56° | 64km/h | 3901m | -4.4m/s | -1.9°C | 82.6% | 637.2hPa | 2.7V | 00:00:00 | 03:05:47 | 00:00:00 | |
| DB0ND-19 | 2026-08-31 01:23:57 | 49.42903 | 11.07556 | 57° | 77km/h | 3938m | -4.4m/s | -2.3°C | 79.9% | 634.4hPa | 2.7V | 00:00:00 | 00:00:00 | 00:00:00 | |
| DF7PN | 2026-08-31 01:23:50 | 49.42841 | 11.07369 | 67° | 71km/h | 3966m | -4.1m/s | -2.5°C | 82.0% | 632.1hPa | 2.7V | 00:00:00 | 00:00:00 | 00:00:00 | |
| DL1NUX | 2026-08-31 01:23:49 | 49.42793 | 11.07227 | 56° | 71km/h | 3990m | -3.8m/s | -2.6°C | 81.9% | 630hPa | 2.7V | 07:38:08 | 03:05:25 | 00:00:00 | |
| DO3MHA-12 | 2026-08-31 01:23:46 | 49.42812 | 11.07273 | 60° | 71km/h | 3982m | -4.0m/s | -2.5°C | 82.0% | 630.6hPa | 2.7V | 00:00:00 | 03:05:27 | 00:00:00 | |
| DB0UT-7 | 2026-08-31 01:23:45 | 49.42803 | 11.07250 | 58° | 75km/h | 3986m | -3.9m/s | -2.5°C | 81.8% | 630.4hPa | 2.7V | 00:00:00 | 00:00:00 | 00:00:00 | |
| DL1NUX | 2026-08-31 01:23:44 | 49.42744 | 11.07102 | 62° | 75km/h | 4009m | -4m/s | -2.7°C | 82.1% | 628.6hPa | 2.7V | 07:38:13 | 03:05:20 | 00:00:00 | |
| DO3MHA-12 | 2026-08-31 01:23:41 | 49.42763 | 11.07153 | 61° | 75km/h | 4001m | -3.9m/s | -2.7°C | 81.9% | 629.2hPa | 2.7V | 00:00:00 | 03:05:22 | 00:00:00 | |
| DB0NH | 2026-08-31 01:23:38 | 49.42736 | 11.07077 | 62° | 77km/h | 4013m | -4.0m/s | -2.7°C | 81.3% | 628.1hPa | 2.7V | 00:00:00 | 03:05:19 | 00:00:00 | |
| DL1NUX | 2026-08-31 01:23:36 | 49.42698 | 11.06977 | 60° | 77km/h | 4029m | -4m/s | -2.8°C | 79.3% | 626.9hPa | 2.7V | 07:38:18 | 03:05:15 | 00:00:00 | |
| DO3MHA-12 | 2026-08-31 01:23:36 | 49.42717 | 11.07027 | 60° | 77km/h | 4021m | -3.9m/s | -2.7°C | 79.4% | 627.5hPa | 2.6V | 00:00:00 | 03:05:17 | 00:00:00 | |
| DO3MHA-12 | 2026-08-31 01:23:31 | 49.42669 | 11.06899 | 60° | 77km/h | 4041m | -4.1m/s | -2.9°C | 78.8% | 625.9hPa | 2.6V | 00:00:00 | 03:05:12 | 00:00:00 | |
| DL1NUX | 2026-08-31 01:23:29 | 49.42649 | 11.06847 | 59° | 78km/h | 4049m | -4.3m/s | -3°C | 78.1% | 625.4hPa | 2.6V | 07:38:23 | 03:05:10 | 00:00:00 | |
| DL1NUX | 2026-08-31 01:23:29 | 49.42603 | 11.06718 | 59° | 77km/h | 4069m | -4.1m/s | -3.1°C | 77.5% | 623.7hPa | 2.6V | 07:38:28 | 03:05:05 | 00:00:00 | |
| NBG1-10 | 2026-08-31 01:23:26 | 49.42621 | 11.06769 | 62° | 78km/h | 4061m | -4.3m/s | -3.0°C | 77.1% | 624.3hPa | 2.6V | 00:00:00 | 03:05:07 | 00:00:00 | |
| DL1NUX | 2026-08-31 01:23:21 | 49.42525 | 11.06514 | 58° | 77km/h | 4101m | -4.5m/s | -3.4°C | 78.7% | 621.3hPa | 2.6V | 07:38:36 | 03:04:57 | 00:00:00 | |
| DO3MHA-12 | 2026-08-31 01:23:21 | 49.42575 | 11.06640 | 63° | 75km/h | 4081m | -3.9m/s | -3.2°C | 78.1% | 622.7hPa | 2.6V | 07:38:00 | 03:05:02 | 00:00:00 | |
| DF7PN | 2026-08-31 01:23:19 | 49.42556 | 11.06590 | 58° | 73km/h | 4089m | -4.0m/s | -3.3°C | 76.8% | 622.1hPa | 2.6V | 00:00:00 | 00:00:00 | 00:00:00 | |
| DO3MHA-12 | 2026-08-31 01:23:16 | 49.42525 | 11.06514 | 59° | 80km/h | 4101m | -4.5m/s | -3.3°C | 78.7% | 621.2hPa | 2.6V | 00:00:00 | 03:04:57 | 00:00:00 | |
| DB0UT-7 | 2026-08-31 01:23:15 | 49.42514 | 11.06489 | 58° | 77km/h | 4105m | -4.4m/s | -3.4°C | 78.6% | 620.8hPa | 2.6V | 00:00:00 | 03:04:56 | 00:00:00 | |
| DO3MHA-12 | 2026-08-31 01:23:11 | 49.42471 | 11.06382 | 61° | 80km/h | 4122m | -4.7m/s | -3.5°C | 79.1% | 619.6hPa | 2.6V | 00:00:00 | 03:04:52 | 00:00:00 | |
| DB0NH | 2026-08-31 01:23:08 | 49.42442 | 11.06297 | 65° | 77km/h | 4134m | -3.5m/s | -3.6°C | 79.6% | 618.5hPa | 2.6V | 00:00:00 | 03:04:49 | 00:00:00 | |
| DO3MHA-12 | 2026-08-31 01:23:06 | 49.42426 | 11.06245 | 62° | 71km/h | 4142m | -4.5m/s | -3.7°C | 80.0% | 618.0hPa | 2.6V | 00:00:00 | 03:04:47 | 00:00:00 | |
| DF7PN | 2026-08-31 01:22:48 | 49.42238 | 11.05790 | 57° | 69km/h | 4216m | -4.2m/s | -4.2°C | 81.4% | 612.4hPa | 2.6V | 00:00:00 | 00:00:00 | 00:00:00 | |
| DO3MHA-12 | 2026-08-31 01:22:46 | 49.42218 | 11.05745 | 54° | 75km/h | 4224m | -4.5m/s | -4.2°C | 82.3% | 611.8hPa | 2.6V | 00:00:00 | 03:04:27 | 00:00:00 | |
| DB0UT-7 | 2026-08-31 01:22:45 | 49.42207 | 11.05724 | 51° | 78km/h | 4229m | -4.4m/s | -4.3°C | 81.0% | 611.6hPa | 2.6V | 00:00:00 | 00:00:00 | 00:00:00 | |
| DO3MHA-12 | 2026-08-31 01:22:41 | 49.42156 | 11.05634 | 49° | 84km/h | 4245m | -4.7m/s | -4.3°C | 78.9% | 610.4hPa | 2.7V | 07:39:00 | 03:04:22 | 00:00:00 | |
| DB0NH | 2026-08-31 01:22:38 | 49.42116 | 11.05559 | 54° | 78km/h | 4258m | -3.9m/s | -4.4°C | 82.1% | 609.4hPa | 2.7V | 00:00:00 | 03:04:19 | 00:00:00 | |
| DO3MHA-12 | 2026-08-31 01:22:36 | 49.42092 | 11.05504 | 59° | 80km/h | 4266m | -3.5m/s | -4.5°C | 83.2% | 608.7hPa | 2.7V | 00:00:00 | 03:04:17 | 00:00:00 | |
| DO3MHA-12 | 2026-08-31 01:22:31 | 49.42042 | 11.05372 | 58° | 71km/h | 4285m | -3.9m/s | -4.7°C | 84.1% | 607.3hPa | 2.7V | 00:00:00 | 03:04:12 | 00:00:00 | |
| DO3MHA-12 | 2026-08-31 01:22:26 | 49.41985 | 11.05262 | 49° | 82km/h | 4305m | -3.9m/s | -4.8°C | 86.4% | 605.7hPa | 2.7V | 00:00:00 | 03:04:07 | 00:00:00 | |
| DB0ND-19 | 2026-08-31 01:22:24 | 49.41959 | 11.05216 | 48° | 80km/h | 4313m | -3.7m/s | -4.9°C | 84.9% | 605.1hPa | 2.6V | 00:00:00 | 00:00:00 | 00:00:00 | |
| DO3MHA-12 | 2026-08-31 01:22:21 | 49.41918 | 11.05138 | 55° | 80km/h | 4325m | -3.8m/s | -5.0°C | 87.7% | 604.2hPa | 2.6V | 00:00:00 | 03:04:02 | 00:00:00 | |
| NBG1-10 | 2026-08-31 01:22:20 | 49.41906 | 11.05111 | 57° | 80km/h | 4329m | -4.0m/s | -5.0°C | 87.8% | 603.9hPa | 2.6V | 00:00:00 | 03:04:01 | 00:00:00 | |
| DL1NUX | 2026-08-31 01:22:17 | 49.41874 | 11.05033 | 57° | 75km/h | 4341m | -3.9m/s | -5.1°C | 88.4% | 603.2hPa | 2.6V | 07:39:35 | 03:03:58 | 00:00:00 | |
| DL1NUX | 2026-08-31 01:22:17 | 49.41818 | 11.04921 | 48° | 73km/h | 4361m | -3.7m/s | -5.2°C | 88.5% | 601.6hPa | 2.7V | 07:39:40 | 03:03:53 | 00:00:00 | |
| SO1NDE-10 | 2026-08-31 01:22:17 | 49.41874 | 11.05033 | 58° | 71km/h | 4341m | -3.9m/s | -5.1°C | 88.4% | 603.2hPa | 2.6V | 07:39:00 | 03:03:58 | 00:00:00 | |
| DO3MHA-12 | 2026-08-31 01:22:16 | 49.41864 | 11.05009 | 55° | 73km/h | 4345m | -4.0m/s | -5.1°C | 88.7% | 602.8hPa | 2.6V | 00:00:00 | 03:03:57 | 00:00:00 | |
| DB0UT-7 | 2026-08-31 01:22:15 | 49.41853 | 11.04986 | 54° | 80km/h | 4349m | -4.0m/s | -5.1°C | 88.8% | 602.4hPa | 2.6V | 00:00:00 | 03:03:56 | 00:00:00 | |
| DO3MHA-12 | 2026-08-31 01:22:11 | 49.41805 | 11.04899 | 47° | 78km/h | 4365m | -3.9m/s | -5.2°C | 88.7% | 601.2hPa | 2.6V | 00:00:00 | 03:03:52 | 00:00:00 | |
| DB0NH | 2026-08-31 01:22:08 | 49.41764 | 11.04835 | 45° | 82km/h | 4377m | -4.3m/s | -5.3°C | 88.9% | 600.3hPa | 2.7V | 00:00:00 | 03:03:49 | 00:00:00 | |
| DO3MHA-12 | 2026-08-31 01:22:06 | 49.41734 | 11.04790 | 46° | 86km/h | 4385m | -4.2m/s | -5.4°C | 88.1% | 599.8hPa | 2.7V | 00:00:00 | 03:03:47 | 00:00:00 | |
| DO3MHA-12 | 2026-08-31 01:22:01 | 49.41664 | 11.04662 | 55° | 78km/h | 4405m | -3.8m/s | -5.5°C | 88.0% | 598.2hPa | 2.7V | 07:39:00 | 03:03:42 | 00:00:00 | |
| DO3MHA-12 | 2026-08-31 01:21:56 | 49.41606 | 11.04542 | 49° | 77km/h | 4424m | -3.9m/s | -5.6°C | 87.9% | 596.6hPa | 2.7V | 00:00:00 | 03:03:37 | 00:00:00 | |
| DO3MHA-12 | 2026-08-31 01:21:51 | 49.41538 | 11.04433 | 46° | 88km/h | 4443m | -3.5m/s | -5.8°C | 87.6% | 595.1hPa | 2.6V | 00:00:00 | 03:03:32 | 00:00:00 | |
| NBG1-10 | 2026-08-31 01:21:47 | 49.41479 | 11.04330 | 53° | 80km/h | 4459m | -4.1m/s | -5.9°C | 88.0% | 594.0hPa | 2.6V | 00:00:00 | 03:03:28 | 00:00:00 | |
| DO3MHA-12 | 2026-08-31 01:21:46 | 49.41466 | 11.04303 | 54° | 84km/h | 4463m | -4.0m/s | -5.9°C | 88.2% | 593.8hPa | 2.6V | 00:00:00 | 03:03:27 | 00:00:00 | |
| DO3MHA-12 | 2026-08-31 01:21:41 | 49.41407 | 11.04170 | 56° | 75km/h | 4483m | -3.8m/s | -6.1°C | 89.3% | 592.2hPa | 2.6V | 00:00:00 | 03:03:22 | 00:00:00 | |
| DB0UT-7 | 2026-08-31 01:21:39 | 49.41385 | 11.04123 | 53° | 80km/h | 4490m | -3.9m/s | -6.2°C | 90.3% | 591.5hPa | 2.7V | 00:00:00 | 00:00:00 | 00:00:00 | |
| DB0NH | 2026-08-31 01:21:38 | 49.41374 | 11.04101 | 50° | 80km/h | 4494m | -4.1m/s | -6.2°C | 90.8% | 591.3hPa | 2.7V | 00:00:00 | 03:03:19 | 00:00:00 | |
| DO3MHA-12 | 2026-08-31 01:21:36 | 49.41349 | 11.04058 | 46° | 82km/h | 4503m | -4.2m/s | -6.2°C | 90.8% | 590.6hPa | 2.7V | 00:00:00 | 03:03:17 | 00:00:00 | |
| DF3TZ-5 | 2026-08-31 01:21:35 | 49.41335 | 11.04037 | 44° | 78km/h | 4506m | -4.2m/s | -6.3°C | 88.6% | 590.4hPa | 2.7V | 00:00:00 | 00:00:00 | 00:00:00 | |
| DO3MHA-12 | 2026-08-31 01:21:31 | 49.41275 | 11.03943 | 49° | 88km/h | 4524m | -3.7m/s | -6.4°C | 92.7% | 589.2hPa | 2.7V | 00:00:00 | 03:03:12 | 00:00:00 | |
| DO3MHA-12 | 2026-08-31 01:21:26 | 49.41210 | 11.03807 | 58° | 77km/h | 4543m | -4.1m/s | -6.6°C | 93.9% | 587.6hPa | 2.7V | 00:00:00 | 03:03:07 | 00:00:00 | |
| DO3MHA-12 | 2026-08-31 01:21:21 | 49.41157 | 11.03684 | 54° | 75km/h | 4564m | -3.9m/s | -6.8°C | 95.1% | 586.1hPa | 2.6V | 07:40:00 | 03:03:02 | 00:00:00 | |
| DO3MHA-12 | 2026-08-31 01:21:16 | 49.41092 | 11.03576 | 47° | 86km/h | 4584m | -4.1m/s | -6.9°C | 96.1% | 584.6hPa | 2.6V | 00:00:00 | 03:02:57 | 00:00:00 | |
| DF7PN | 2026-08-31 01:21:15 | 49.41078 | 11.03552 | 47° | 86km/h | 4588m | -3.8m/s | -7.0°C | 93.7% | 584.3hPa | 2.6V | 00:00:00 | 00:00:00 | 00:00:00 | |
| NBG1-10 | 2026-08-31 01:21:14 | 49.41064 | 11.03526 | 51° | 77km/h | 4592m | -4.0m/s | -7.0°C | 96.5% | 584.0hPa | 2.6V | 00:00:00 | 03:02:55 | 00:00:00 | |
| DO3MHA-12 | 2026-08-31 01:21:11 | 49.41025 | 11.03446 | 56° | 77km/h | 4604m | -3.8m/s | -7.1°C | 95.6% | 583.0hPa | 2.6V | 00:00:00 | 03:02:52 | 00:00:00 | |
| DB0UT-7 | 2026-08-31 01:21:09 | 49.41003 | 11.03395 | 56° | 77km/h | 4612m | -4.0m/s | -7.1°C | 95.3% | 582.5hPa | 2.6V | 07:40:00 | 03:02:50 | 00:00:00 | |
| DO3MHA-12 | 2026-08-31 01:21:06 | 49.40971 | 11.03326 | 53° | 69km/h | 4624m | -4.4m/s | -7.2°C | 93.3% | 581.4hPa | 2.6V | 00:00:00 | 03:02:47 | 00:00:00 | |
| DF3TZ-5 | 2026-08-31 01:21:04 | 49.40949 | 11.03284 | 50° | 69km/h | 4632m | -4.3m/s | -7.3°C | 89.8% | 580.8hPa | 2.6V | 00:00:00 | 00:00:00 | 00:00:00 | |
| DB0ND-19 | 2026-08-31 01:20:51 | 49.40771 | 11.03013 | 47° | 86km/h | 4686m | -4.2m/s | -7.7°C | 87.8% | 576.8hPa | 2.6V | 00:00:00 | 00:00:00 | 00:00:00 | |
| DF7PN | 2026-08-31 01:20:44 | 49.40684 | 11.02843 | 49° | 69km/h | 4715m | -4.2m/s | -7.9°C | 88.6% | 574.6hPa | 2.6V | 00:00:00 | 00:00:00 | 00:00:00 | |
| DO3MHA-12 | 2026-08-31 01:20:41 | 49.40647 | 11.02783 | 43° | 78km/h | 4727m | -4.0m/s | -8.0°C | 91.6% | 573.7hPa | 2.6V | 07:41:00 | 03:02:22 | 00:00:00 | |
| DB0UT-7 | 2026-08-31 01:20:39 | 49.40618 | 11.02742 | 44° | 71km/h | 4735m | -4.0m/s | -8.0°C | 92.1% | 573.2hPa | 2.6V | 00:00:00 | 00:00:00 | 00:00:00 | |
| DB0NH | 2026-08-31 01:20:38 | 49.40604 | 11.02720 | 46° | 71km/h | 4739m | -4.0m/s | -8.1°C | 92.3% | 572.9hPa | 2.6V | 00:00:00 | 03:02:19 | 00:00:00 | |
| DO3MHA-12 | 2026-08-31 01:20:36 | 49.40577 | 11.02674 | 50° | 77km/h | 4747m | -4.0m/s | -8.1°C | 93.3% | 572.3hPa | 2.6V | 00:00:00 | 03:02:17 | 00:00:00 | |
| DO3MHA-12 | 2026-08-31 01:20:31 | 49.40518 | 11.02560 | 51° | 75km/h | 4768m | -4.2m/s | -8.3°C | 92.2% | 570.6hPa | 2.6V | 00:00:00 | 03:02:12 | 00:00:00 | |
| DO3MHA-12 | 2026-08-31 01:20:26 | 49.40459 | 11.02445 | 55° | 71km/h | 4788m | -4.2m/s | -8.3°C | 89.1% | 569.2hPa | 2.6V | 00:00:00 | 03:02:07 | 00:00:00 | |
| DO3MHA-12 | 2026-08-31 01:20:21 | 49.40408 | 11.02332 | 56° | 71km/h | 4809m | -4.1m/s | -8.2°C | 79.8% | 567.7hPa | 2.6V | 00:00:00 | 03:02:02 | 00:00:00 | |
| DO3MHA-12 | 2026-08-31 01:20:16 | 49.40362 | 11.02216 | 60° | 62km/h | 4830m | -4.2m/s | -8.2°C | 73.1% | 566.2hPa | 2.6V | 00:00:00 | 03:01:57 | 00:00:00 | |
| DF7PN | 2026-08-31 01:20:13 | 49.40337 | 11.02156 | 53° | 60km/h | 4842m | -4.3m/s | -8.1°C | 64.7% | 565.3hPa | 2.6V | 00:00:00 | 00:00:00 | 00:00:00 | |
| DO3MHA-12 | 2026-08-31 01:20:11 | 49.40316 | 11.02118 | 50° | 71km/h | 4850m | -3.9m/s | -8.0°C | 64.9% | 564.7hPa | 2.6V | 00:00:00 | 03:01:52 | 00:00:00 | |
| DB0UT-7 | 2026-08-31 01:20:09 | 49.40293 | 11.02077 | 51° | 57km/h | 4858m | -4.2m/s | -7.8°C | 61.5% | 564.1hPa | 2.5V | 00:00:00 | 03:01:50 | 00:00:00 | |
| DB0NH | 2026-08-31 01:20:08 | 49.40282 | 11.02056 | 53° | 60km/h | 4862m | -4.5m/s | -7.9°C | 62.0% | 563.9hPa | 2.5V | 07:41:00 | 03:01:49 | 00:00:00 | |
| DO3MHA-12 | 2026-08-31 01:20:06 | 49.40262 | 11.02010 | 59° | 64km/h | 4871m | -3.9m/s | -7.9°C | 61.7% | 563.2hPa | 2.5V | 00:00:00 | 03:01:47 | 00:00:00 | |
| DF3TZ-5 | 2026-08-31 01:20:02 | 49.40207 | 11.01870 | 52° | 53km/h | 4900m | -4.2m/s | -8.1°C | 59.9% | 561.1hPa | 2.5V | 00:00:00 | 00:00:00 | 00:00:00 | |
| DB0ND-19 | 2026-08-31 01:19:49 | 49.40101 | 11.01680 | 58° | 66km/h | 4941m | -4.3m/s | -8.3°C | 54.6% | 558.2hPa | 2.5V | 00:00:00 | 00:00:00 | 00:00:00 | |
| DO3MHA-12 | 2026-08-31 01:19:46 | 49.40077 | 11.01617 | 61° | 55km/h | 4954m | -4.3m/s | -8.3°C | 52.3% | 557.2hPa | 2.5V | 00:00:00 | 03:01:27 | 00:00:00 | |
| DF7PN | 2026-08-31 01:19:42 | 49.40049 | 11.01544 | 56° | 49km/h | 4971m | -4.3m/s | -8.4°C | 48.7% | 556.0hPa | 2.5V | 00:00:00 | 00:00:00 | 00:00:00 | |
| DO3MHA-12 | 2026-08-31 01:19:41 | 49.40041 | 11.01528 | 54° | 49km/h | 4975m | -4.1m/s | -8.4°C | 50.2% | 555.7hPa | 2.5V | 00:00:00 | 03:01:22 | 00:00:00 | |
| DB0NH | 2026-08-31 01:19:38 | 49.40017 | 11.01484 | 47° | 55km/h | 4988m | -4.3m/s | -8.5°C | 47.7% | 554.8hPa | 2.6V | 00:00:00 | 03:01:19 | 00:00:00 | |
| DO3MHA-12 | 2026-08-31 01:19:36 | 49.39999 | 11.01458 | 43° | 58km/h | 4996m | -3.9m/s | -8.5°C | 46.0% | 554.1hPa | 2.6V | 00:00:00 | 03:01:17 | 00:00:00 | |
| NBG1-10 | 2026-08-31 01:19:35 | 49.39989 | 11.01443 | 44° | 57km/h | 5000m | -3.9m/s | -8.5°C | 44.9% | 553.8hPa | 2.6V | 00:00:00 | 03:01:16 | 00:00:00 | |
| DO3MHA-12 | 2026-08-31 01:19:27 | 49.39917 | 11.01296 | 61° | 53km/h | 5035m | -4.6m/s | -8.5°C | 36.9% | 551.5hPa | 2.6V | 00:00:00 | 03:01:08 | 00:00:00 | |
| DO3MHA-12 | 2026-08-31 01:19:17 | 49.39844 | 11.01124 | 63° | 53km/h | 5078m | -4.7m/s | -8.1°C | 26.9% | 548.5hPa | 2.6V | 00:00:00 | 03:00:58 | 00:00:00 | |
| DB0UT-7 | 2026-08-31 01:19:15 | 49.39832 | 11.01086 | 66° | 57km/h | 5088m | -4.2m/s | -8.1°C | 25.9% | 547.8hPa | 2.6V | 00:00:00 | 00:00:00 | 00:00:00 | |
| DF7PN | 2026-08-31 01:19:11 | 49.39799 | 11.01003 | 54° | 55km/h | 5109m | -4.4m/s | -7.5°C | 15.7% | 546.4hPa | 2.5V | 00:00:00 | 00:00:00 | 00:00:00 | |
| DB0NH | 2026-08-31 01:19:08 | 49.39783 | 11.00964 | 59° | 58km/h | 5118m | -4.3m/s | -6.8°C | 8.6% | 545.8hPa | 2.5V | 00:00:00 | 03:00:49 | 00:00:00 | |
| DO3MHA-12 | 2026-08-31 01:19:07 | 49.39775 | 11.00943 | 62° | 62km/h | 5122m | -4.5m/s | -6.7°C | 8.0% | 545.4hPa | 2.5V | 07:42:00 | 03:00:48 | 00:00:00 | |
| NBG1-10 | 2026-08-31 01:19:02 | 49.39740 | 11.00832 | 68° | 57km/h | 5146m | -4.8m/s | -6.7°C | 7.0% | 543.8hPa | 2.5V | 00:00:00 | 03:00:43 | 00:00:00 | |
| DF3TZ-5 | 2026-08-31 01:19:00 | 49.39698 | 11.00650 | 59° | 49km/h | 5186m | -4.4m/s | -7.1°C | 6.3% | 541.1hPa | 2.5V | 00:00:00 | 00:00:00 | 00:00:00 | |
| DO3MHA-12 | 2026-08-31 01:18:57 | 49.39716 | 11.00723 | 75° | 55km/h | 5169m | -4.7m/s | -6.9°C | 6.7% | 542.2hPa | 2.5V | 00:00:00 | 03:00:38 | 00:00:00 | |
| DO3MHA-12 | 2026-08-31 01:18:47 | 49.39651 | 11.00538 | 60° | 60km/h | 5215m | -4.7m/s | -7.2°C | 6.4% | 539.0hPa | 2.5V | 00:00:00 | 03:00:28 | 00:00:00 | |
| DB0UT-7 | 2026-08-31 01:18:45 | 49.39635 | 11.00493 | 65° | 60km/h | 5225m | -5.0m/s | -7.3°C | 6.4% | 538.3hPa | 2.6V | 00:00:00 | 03:00:26 | 00:00:00 | |
| DF7PN | 2026-08-31 01:18:40 | 49.39606 | 11.00363 | 69° | 49km/h | 5252m | -4.8m/s | -7.4°C | 5.5% | 536.5hPa | 2.6V | 00:00:00 | 00:00:00 | 00:00:00 | |
| DB0NH | 2026-08-31 01:18:38 | 49.39601 | 11.00345 | 67° | 60km/h | 5257m | -4.7m/s | -7.4°C | 5.8% | 536.1hPa | 2.6V | 00:00:00 | 03:00:19 | 00:00:00 | |
| DO3MHA-12 | 2026-08-31 01:18:37 | 49.39596 | 11.00327 | 63° | 58km/h | 5262m | -4.9m/s | -7.4°C | 5.7% | 535.6hPa | 2.6V | 00:00:00 | 03:00:18 | 00:00:00 | |
| NBG1-10 | 2026-08-31 01:18:29 | 49.39534 | 11.00178 | 59° | 60km/h | 5301m | -4.8m/s | -7.6°C | 5.7% | 533.1hPa | 2.6V | 07:43:00 | 03:00:10 | 00:00:00 | |
| DO3MHA-12 | 2026-08-31 01:18:27 | 49.39517 | 11.00132 | 63° | 60km/h | 5311m | -4.6m/s | -7.7°C | 5.8% | 532.6hPa | 2.6V | 00:00:00 | 03:00:08 | 00:00:00 | |
| DJTTGO | 2026-08-31 01:18:24 | 49.39502 | 11.00084 | 69° | 68km/h | 5320m | -4.5m/s | -7.8°C | 5.6% | 531.8hPa | 2.6V | 00:00:00 | 00:00:00 | 00:00:00 | |
| DB0ND-19 | 2026-08-31 01:18:17 | 49.39449 | 10.99884 | 56° | 58km/h | 5364m | -4.3m/s | -8.1°C | 5.7% | 528.9hPa | 2.6V | 00:00:00 | 00:00:00 | 00:00:00 | |
| DB0UT-7 | 2026-08-31 01:18:13 | 49.39432 | 10.99843 | 59° | 60km/h | 5373m | -4.9m/s | -8.1°C | 6.4% | 528.2hPa | 2.6V | 00:00:00 | 00:00:00 | 00:00:00 | |
| DF7PN | 2026-08-31 01:18:09 | 49.39396 | 10.99723 | 71° | 68km/h | 5395m | -4.6m/s | -8.3°C | 9.4% | 526.9hPa | 2.6V | 00:00:00 | 00:00:00 | 00:00:00 | |
| DB0NH | 2026-08-31 01:18:08 | 49.39395 | 10.99723 | 72° | 58km/h | 5395m | -4.6m/s | -8.3°C | 9.9% | 526.8hPa | 2.6V | 00:00:00 | 02:59:49 | 00:00:00 | |
| DO3MHA-12 | 2026-08-31 01:18:07 | 49.39390 | 10.99698 | 74° | 57km/h | 5400m | -4.5m/s | -8.3°C | 10.0% | 526.5hPa | 2.6V | 00:00:00 | 02:59:48 | 00:00:00 | |
| DF3TZ-5 | 2026-08-31 01:17:58 | 49.39337 | 10.99479 | 59° | 53km/h | 5449m | -4.6m/s | -8.8°C | 13.6% | 523.0hPa | 2.6V | 00:00:00 | 00:00:00 | 00:00:00 | |
| DL6DJ-15 | 2026-08-31 01:17:56 | 49.39297 | 10.99380 | 61° | 66km/h | 5472m | -4.4m/s | -9.0°C | 20.4% | 521.5hPa | 2.6V | 00:00:00 | 00:00:00 | 00:00:00 | |
| DB0ND-19 | 2026-08-31 01:17:45 | 49.39260 | 10.99236 | 75° | 60km/h | 5499m | -4.3m/s | -9.2°C | 24.2% | 519.7hPa | 2.6V | 00:00:00 | 00:00:00 | 00:00:00 | |
| DB0UT-7 | 2026-08-31 01:17:42 | 49.39249 | 10.99174 | 73° | 58km/h | 5514m | -4.8m/s | -9.3°C | 29.8% | 518.7hPa | 2.6V | 00:00:00 | 02:59:23 | 00:00:00 | |
| DF7PN | 2026-08-31 01:17:38 | 49.39221 | 10.99086 | 57° | 53km/h | 5536m | -4.6m/s | -9.5°C | 38.5% | 517.2hPa | 2.5V | 00:00:00 | 00:00:00 | 00:00:00 | |
| DO3MHA-12 | 2026-08-31 01:17:37 | 49.39221 | 10.99086 | 58° | 64km/h | 5537m | -4.6m/s | -9.5°C | 39.9% | 517.1hPa | 2.5V | 00:00:00 | 02:59:18 | 00:00:00 | |
| DO3MHA-12 | 2026-08-31 01:17:27 | 49.39149 | 10.98860 | 73° | 55km/h | 5582m | -4.6m/s | -9.8°C | 55.3% | 514.2hPa | 2.5V | 00:00:00 | 02:59:08 | 00:00:00 | |
| DL6DJ-15 | 2026-08-31 01:17:25 | 49.39136 | 10.98791 | 75° | 57km/h | 5596m | -4.4m/s | -10.0°C | 57.1% | 513.3hPa | 2.5V | 00:00:00 | 00:00:00 | 00:00:00 | |
| NBG1-10 | 2026-08-31 01:17:23 | 49.39132 | 10.98769 | 75° | 60km/h | 5600m | -4.3m/s | -10.0°C | 60.5% | 512.9hPa | 2.5V | 00:00:00 | 02:59:04 | 00:00:00 | |
| DO3MHA-12 | 2026-08-31 01:17:17 | 49.39100 | 10.98662 | 58° | 64km/h | 5628m | -4.4m/s | -10.3°C | 62.6% | 511.1hPa | 2.5V | 00:00:00 | 02:58:58 | 00:00:00 | |
| DB0ND-19 | 2026-08-31 01:17:14 | 49.39067 | 10.98581 | 60° | 68km/h | 5646m | -4.6m/s | -10.5°C | 63.9% | 509.9hPa | 2.5V | 00:00:00 | 00:00:00 | 00:00:00 | |
| DB0UT-7 | 2026-08-31 01:17:12 | 49.39059 | 10.98557 | 64° | 62km/h | 5650m | -4.4m/s | -10.5°C | 65.8% | 509.7hPa | 2.5V | 00:00:00 | 00:00:00 | 00:00:00 | |
| DB0NH | 2026-08-31 01:17:08 | 49.39035 | 10.98462 | 73° | 62km/h | 5667m | -4.1m/s | -10.6°C | 65.3% | 508.5hPa | 2.5V | 00:00:00 | 02:58:49 | 00:00:00 | |
| DK7TD | 2026-08-31 01:16:50 | 49.38895 | 10.98103 | 62° | 71km/h | 5744m | -4.1m/s | -11.2°C | 64% | 503.4hPa | 2.5V | 07:46:45 | 02:58:31 | 00:00:00 | |
| NBG1-10 | 2026-08-31 01:16:50 | 49.38895 | 10.98103 | 62° | 66km/h | 5744m | -4.1m/s | -11.1°C | 61.6% | 503.4hPa | 2.5V | 00:00:00 | 02:58:31 | 00:00:00 | |
| DL1NUX | 2026-08-31 01:16:49 | 49.38855 | 10.97957 | 69° | 60km/h | 5768m | -4m/s | -11.4°C | 59.8% | 501.9hPa | 2.5V | 07:45:08 | 02:58:25 | 00:00:00 | |
| DK7TD | 2026-08-31 01:16:38 | 49.38801 | 10.97820 | 53° | 66km/h | 5797m | -4.6m/s | -11.6°C | 63.1% | 500hPa | 2.5V | 07:46:45 | 02:58:18 | 00:00:00 | |
| DO3MHA-12 | 2026-08-31 01:16:37 | 49.38801 | 10.97820 | 54° | 71km/h | 5798m | -4.5m/s | -11.5°C | 60.1% | 499.9hPa | 2.6V | 00:00:00 | 02:58:18 | 00:00:00 | |
| DF7PN | 2026-08-31 01:16:35 | 49.38780 | 10.97778 | 53° | 69km/h | 5806m | -5.0m/s | -11.6°C | 58.4% | 499.3hPa | 2.6V | 00:00:00 | 00:00:00 | 00:00:00 | |
| DL1NUX | 2026-08-31 01:16:30 | 49.38709 | 10.97579 | 68° | 69km/h | 5845m | -4.9m/s | -11.9°C | 61.8% | 496.9hPa | 2.6V | 07:45:25 | 02:58:08 | 00:00:00 | |
| DK7TD | 2026-08-31 01:16:24 | 49.38691 | 10.97509 | 67° | 60km/h | 5860m | -5.1m/s | -12.1°C | 66.4% | 495.9hPa | 2.6V | 07:46:45 | 02:58:05 | 00:00:00 | |
| DL6DJ-15 | 2026-08-31 01:16:23 | 49.38678 | 10.97468 | 61° | 58km/h | 5870m | -4.9m/s | -12.2°C | 61.2% | 495.3hPa | 2.5V | 00:00:00 | 00:00:00 | 00:00:00 | |
| DO3MHA-12 | 2026-08-31 01:16:17 | 49.38635 | 10.97369 | 54° | 73km/h | 5893m | -4.7m/s | -12.4°C | 63.4% | 493.6hPa | 2.5V | 00:00:00 | 02:57:58 | 00:00:00 | |
| DB0UT-7 | 2026-08-31 01:16:12 | 49.38582 | 10.97259 | 55° | 73km/h | 5915m | -4.7m/s | -12.6°C | 65.2% | 492.2hPa | 2.5V | 00:00:00 | 00:00:00 | 00:00:00 | |
| DB0NH | 2026-08-31 01:16:08 | 49.38538 | 10.97158 | 59° | 71km/h | 5932m | -4.3m/s | -12.7°C | 65.1% | 491.2hPa | 2.6V | 07:45:00 | 02:57:49 | 00:00:00 | |
| DO3MHA-12 | 2026-08-31 01:16:07 | 49.38528 | 10.97131 | 61° | 71km/h | 5937m | -4.2m/s | -12.7°C | 65.1% | 490.8hPa | 2.6V | 00:00:00 | 02:57:48 | 00:00:00 | |
| DF7PN | 2026-08-31 01:16:04 | 49.38501 | 10.97050 | 65° | 73km/h | 5948m | -3.8m/s | -12.9°C | 63.7% | 490.2hPa | 2.6V | 00:00:00 | 00:00:00 | 00:00:00 | |
| DL1NUX | 2026-08-31 01:16:00 | 49.38445 | 10.96867 | 59° | 60km/h | 5985m | -4.7m/s | -13.3°C | 67.7% | 487.7hPa | 2.6V | 07:45:56 | 02:57:37 | 00:00:00 | |
| DL6DJ-15 | 2026-08-31 01:15:52 | 49.38395 | 10.96761 | 52° | 75km/h | 6007m | -4.0m/s | -13.5°C | 66.1% | 486.4hPa | 2.5V | 00:00:00 | 00:00:00 | 00:00:00 | |
| DL1NUX | 2026-08-31 01:15:50 | 49.38339 | 10.96634 | 59° | 82km/h | 6028m | -4.7m/s | -13.6°C | 66% | 485.1hPa | 2.5V | 07:46:06 | 02:57:27 | 00:00:00 | |
| DK7TD | 2026-08-31 01:15:48 | 49.38360 | 10.96687 | 56° | 80km/h | 6019m | -4.1m/s | -13.5°C | 69.7% | 485.7hPa | 2.6V | 07:46:45 | 02:57:29 | 00:00:00 | |
| DO3MHA-12 | 2026-08-31 01:15:47 | 49.38349 | 10.96661 | 58° | 73km/h | 6024m | -4.5m/s | -13.5°C | 66.5% | 485.2hPa | 2.5V | 00:00:00 | 02:57:28 | 00:00:00 | |
| NBG1-10 | 2026-08-31 01:15:44 | 49.38319 | 10.96579 | 64° | 66km/h | 6037m | -4.3m/s | -13.6°C | 66.1% | 484.5hPa | 2.6V | 00:00:00 | 02:57:25 | 00:00:00 | |
| DB0UT-7 | 2026-08-31 01:15:42 | 49.38303 | 10.96525 | 66° | 66km/h | 6046m | -4.4m/s | -13.7°C | 66.4% | 483.8hPa | 2.6V | 00:00:00 | 02:57:23 | 00:00:00 | |
| DL1NUX | 2026-08-31 01:15:40 | 49.38261 | 10.96392 | 58° | 58km/h | 6071m | -4.2m/s | -13.9°C | 68.6% | 482.4hPa | 2.6V | 07:46:16 | 02:57:17 | 00:00:00 | |
| DK7TD | 2026-08-31 01:15:34 | 49.38244 | 10.96353 | 55° | 62km/h | 6080m | -4.3m/s | -14°C | 68.7% | 482hPa | 2.5V | 07:46:45 | 02:57:15 | 00:00:00 | |
| DF7PN | 2026-08-31 01:15:33 | 49.38235 | 10.96333 | 53° | 62km/h | 6084m | -4.5m/s | -14.0°C | 64.3% | 481.5hPa | 2.6V | 00:00:00 | 00:00:00 | 00:00:00 | |
| DL1NUX | 2026-08-31 01:15:27 | 49.38110 | 10.96095 | 48° | 64km/h | 6143m | -5m/s | -14.6°C | 69.3% | 477.8hPa | 2.6V | 07:46:31 | 02:57:02 | 00:00:00 | |
| DK7TD | 2026-08-31 01:15:24 | 49.38142 | 10.96153 | 50° | 66km/h | 6128m | -4.9m/s | -14.5°C | 70.3% | 478.8hPa | 2.5V | 07:46:45 | 02:57:05 | 00:00:00 | |
| DK7TD | 2026-08-31 01:15:13 | 49.38020 | 10.95940 | 49° | 71km/h | 6181m | -5.3m/s | -15°C | 73.4% | 475.2hPa | 2.5V | 07:46:45 | 02:56:54 | 00:00:00 | |
| DB0UT-7 | 2026-08-31 01:15:12 | 49.38008 | 10.95919 | 50° | 68km/h | 6186m | -5.4m/s | -15.0°C | 71.3% | 474.8hPa | 2.5V | 00:00:00 | 00:00:00 | 00:00:00 | |
| NBG1-10 | 2026-08-31 01:15:11 | 49.37997 | 10.95898 | 50° | 68km/h | 6192m | -5.7m/s | -15.1°C | 71.6% | 474.5hPa | 2.5V | 00:00:00 | 02:56:52 | 00:00:00 | |
| DL1NUX | 2026-08-31 01:15:10 | 49.37936 | 10.95786 | 54° | 75km/h | 6219m | -5.6m/s | -15.2°C | 67.3% | 472.8hPa | 2.5V | 07:46:46 | 02:56:47 | 00:00:00 | |
| DK7TD | 2026-08-31 01:15:03 | 49.37905 | 10.95714 | 59° | 71km/h | 6235m | -5.5m/s | -15.4°C | 70.8% | 471.8hPa | 2.6V | 07:47:36 | 02:56:44 | 00:00:00 | |
| DL1NUX | 2026-08-31 01:14:59 | 49.37831 | 10.95531 | 51° | 57km/h | 6280m | -4.8m/s | -15.8°C | 70.9% | 468.9hPa | 2.6V | 07:46:58 | 02:56:35 | 00:00:00 | |
| DK7TD | 2026-08-31 01:14:52 | 49.37813 | 10.95497 | 47° | 57km/h | 6290m | -5m/s | -15.9°C | 71.4% | 468.2hPa | 2.6V | 07:47:36 | 02:56:33 | 00:00:00 | |
| DF3TZ-5 | 2026-08-31 01:14:52 | 49.37802 | 10.95481 | 44° | 58km/h | 6295m | -5.1m/s | -15.9°C | 68.7% | 467.9hPa | 2.6V | 00:00:00 | 00:00:00 | 00:00:00 | |
| DL6DJ-15 | 2026-08-31 01:14:50 | 49.37780 | 10.95448 | 43° | 62km/h | 6305m | -5.2m/s | -16.0°C | 68.5% | 467.4hPa | 2.6V | 00:00:00 | 00:00:00 | 00:00:00 | |
| DL1NUX | 2026-08-31 01:14:50 | 49.37719 | 10.95354 | 47° | 73km/h | 6330m | -5.2m/s | -16.2°C | 72% | 465.8hPa | 2.5V | 07:47:08 | 02:56:25 | 00:00:00 | |
| DK7TD | 2026-08-31 01:14:41 | 49.37681 | 10.95289 | 49° | 75km/h | 6347m | -5.6m/s | -16.3°C | 72.2% | 464.8hPa | 2.6V | 07:47:36 | 02:56:22 | 00:00:00 | |
| DB0ND-19 | 2026-08-31 01:14:39 | 49.37617 | 10.95150 | 59° | 69km/h | 6379m | -5.3m/s | -16.4°C | -1.0% | -1.0hPa | 2.5V | 00:00:00 | 00:00:00 | 00:00:00 | |
| DL1NUX | 2026-08-31 01:14:38 | 49.37599 | 10.95102 | 61° | 69km/h | 6389m | -4.8m/s | -16.5°C | 73.4% | 462.2hPa | 2.5V | 07:47:19 | 02:56:14 | 00:00:00 | |
| DK7TD | 2026-08-31 01:14:30 | 49.37572 | 10.95031 | 61° | 69km/h | 6404m | -5.3m/s | -16.6°C | 75.3% | 461.3hPa | 2.6V | 07:47:36 | 02:56:11 | 00:00:00 | |
| SO1NDE-10 | 2026-08-31 01:14:29 | 49.37564 | 10.95008 | 62° | 64km/h | 6409m | -5.2m/s | -16.6°C | 75.0% | 460.9hPa | 2.6V | 00:00:00 | 02:56:10 | 00:00:00 | |
| DL1NUX | 2026-08-31 01:14:28 | 49.37519 | 10.94878 | 60° | 57km/h | 6440m | -4.8m/s | -17°C | 77.1% | 459.1hPa | 2.6V | 07:47:29 | 02:56:04 | 00:00:00 | |
| DK7TD | 2026-08-31 01:14:19 | 49.37488 | 10.94806 | 51° | 55km/h | 6460m | -5.1m/s | -17.1°C | 77% | 457.9hPa | 2.5V | 07:47:36 | 02:56:00 | 00:00:00 | |
| DL6DJ-15 | 2026-08-31 01:14:18 | 49.37479 | 10.94789 | 49° | 57km/h | 6465m | -4.9m/s | -17.2°C | 75.4% | 457.6hPa | 2.6V | 00:00:00 | 00:00:00 | 00:00:00 | |
| DO3MHA-12 | 2026-08-31 01:14:17 | 49.37469 | 10.94772 | 47° | 66km/h | 6470m | -5.1m/s | -17.1°C | 78.3% | 457.2hPa | 2.6V | 00:00:00 | 02:55:58 | 00:00:00 | |
| DB0UT-7 | 2026-08-31 01:14:12 | 49.37414 | 10.94683 | 47° | 62km/h | 6495m | -5.3m/s | -17.3°C | 78.8% | 455.7hPa | 2.5V | 00:00:00 | 00:00:00 | 00:00:00 | |
| DL1NUX | 2026-08-31 01:14:08 | 49.37324 | 10.94486 | 62° | 68km/h | 6541m | -5.5m/s | -17.5°C | 80% | 453.1hPa | 2.5V | 07:47:49 | 02:55:44 | 00:00:00 | |
| DK7TD | 2026-08-31 01:14:08 | 49.37369 | 10.94601 | 54° | 71km/h | 6517m | -5.2m/s | -17.4°C | 77.6% | 454.6hPa | 2.5V | 07:48:27 | 02:55:49 | 00:00:00 | |
| DB0NH | 2026-08-31 01:14:08 | 49.37369 | 10.94601 | 54° | 62km/h | 6517m | -5.2m/s | -17.4°C | 78.8% | 454.5hPa | 2.5V | 00:00:00 | 02:55:49 | 00:00:00 | |
| DO3MHA-12 | 2026-08-31 01:14:07 | 49.37358 | 10.94578 | 56° | 66km/h | 6522m | -4.6m/s | -17.4°C | 79.0% | 454.2hPa | 2.5V | 00:00:00 | 02:55:48 | 00:00:00 | |
| NBG1-10 | 2026-08-31 01:14:05 | 49.37340 | 10.94532 | 62° | 62km/h | 6531m | -5.1m/s | -17.5°C | 79.5% | 453.7hPa | 2.5V | 07:47:00 | 02:55:46 | 00:00:00 | |
| DF7PN | 2026-08-31 01:14:00 | 49.37301 | 10.94418 | 63° | 62km/h | 6557m | -5.5m/s | -17.6°C | 77.5% | 452.2hPa | 2.5V | 00:00:00 | 00:00:00 | 00:00:00 | |
| SO1NDE-10 | 2026-08-31 01:13:59 | 49.37294 | 10.94395 | 65° | 60km/h | 6562m | -5.3m/s | -17.6°C | 80.6% | 451.7hPa | 2.5V | 00:00:00 | 02:55:40 | 00:00:00 | |
| DL1NUX | 2026-08-31 01:13:58 | 49.37256 | 10.94274 | 63° | 55km/h | 6594m | -5.6m/s | -17.8°C | 81.3% | 449.8hPa | 2.5V | 07:47:59 | 02:55:34 | 00:00:00 | |
| DK7TD | 2026-08-31 01:13:57 | 49.37281 | 10.94353 | 65° | 58km/h | 6573m | -5.4m/s | -17.7°C | 79.8% | 0hPa | 2.5V | 07:48:27 | 02:55:38 | 00:00:00 | |
| DF3TZ-5 | 2026-08-31 01:13:49 | 49.37231 | 10.94203 | 57° | 49km/h | 6615m | -5.3m/s | -18.0°C | 76.7% | 448.7hPa | 2.5V | 00:00:00 | 00:00:00 | 00:00:00 | |
| DL1NUX | 2026-08-31 01:13:48 | 49.37180 | 10.94100 | 50° | 64km/h | 6645m | -5m/s | -18.1°C | 79.8% | 446.9hPa | 2.5V | 07:48:09 | 02:55:24 | 00:00:00 | |
| DK7TD | 2026-08-31 01:13:46 | 49.37208 | 10.94154 | 53° | 55km/h | 6631m | -5m/s | -18°C | 78.9% | 0hPa | 2.6V | 07:48:27 | 02:55:27 | 00:00:00 | |
| DK7TD | 2026-08-31 01:13:35 | 49.37101 | 10.93923 | 61° | 71km/h | 6688m | -5.2m/s | -18.3°C | 78.1% | 0hPa | 2.5V | 07:48:27 | 02:55:16 | 00:00:00 | |
| DL1NUX | 2026-08-31 01:13:35 | 49.37061 | 10.93800 | 66° | 71km/h | 6714m | -5.3m/s | -18.3°C | 82.3% | 442.9hPa | 2.5V | 07:48:22 | 02:55:11 | 00:00:00 | |
| NBG1-10 | 2026-08-31 01:13:32 | 49.37076 | 10.93850 | 64° | 64km/h | 6704m | -4.8m/s | -18.2°C | 81.8% | 443.5hPa | 2.6V | 00:00:00 | 02:55:13 | 00:00:00 | |
| SO1NDE-10 | 2026-08-31 01:13:29 | 49.37053 | 10.93774 | 66° | 64km/h | 6719m | -5.5m/s | -18.2°C | 82.4% | 442.6hPa | 2.6V | 00:00:00 | 02:55:10 | 00:00:00 | |
| DO3MHA-12 | 2026-08-31 01:13:27 | 49.37038 | 10.93723 | 67° | 66km/h | 6730m | -5.1m/s | -18.2°C | 83.2% | 442.0hPa | 2.6V | 00:00:00 | 02:55:08 | 00:00:00 | |
| DL1NUX | 2026-08-31 01:13:25 | 49.36998 | 10.93551 | 72° | 64km/h | 6765m | -4.6m/s | -18.4°C | 83% | 440.1hPa | 2.6V | 07:48:32 | 02:55:01 | 00:00:00 | |
| DK7TD | 2026-08-31 01:13:24 | 49.37019 | 10.93647 | 70° | 69km/h | 6745m | -4.9m/s | 0°C | 0% | 0hPa | 2.6V | 18:12:15 | 02:55:05 | 00:00:00 | |
| DK7TD | 2026-08-31 01:13:13 | 49.36962 | 10.93394 | 69° | 60km/h | 6799m | -5.1m/s | 0°C | 0% | 0hPa | 2.6V | 18:12:15 | 02:54:54 | 00:00:00 | |
| DB0UT-7 | 2026-08-31 01:13:12 | 49.36957 | 10.93373 | 68° | 69km/h | 6804m | -4.8m/s | -18.5°C | 81.1% | 437.6hPa | 2.5V | 00:00:00 | 00:00:00 | 00:00:00 | |
| DL1NUX | 2026-08-31 01:13:10 | 49.36945 | 10.93332 | 63° | 57km/h | 6814m | -4.8m/s | -18.7°C | 81.5% | 437.2hPa | 2.5V | 07:48:42 | 02:54:51 | 00:00:00 | |
| DB0NH | 2026-08-31 01:13:08 | 49.36931 | 10.93292 | 61° | 69km/h | 6824m | -4.8m/s | -18.7°C | 81.7% | 436.6hPa | 2.6V | 00:00:00 | 02:54:49 | 00:00:00 | |
| DO3MHA-12 | 2026-08-31 01:13:07 | 49.36924 | 10.93273 | 60° | 64km/h | 6829m | -4.9m/s | -18.7°C | 81.4% | 436.2hPa | 2.5V | 00:00:00 | 02:54:48 | 00:00:00 | |
| DL1NUX | 2026-08-31 01:13:05 | 49.36864 | 10.93134 | 54° | 69km/h | 6863m | -4.8m/s | -19.1°C | 82.3% | 434.2hPa | 2.5V | 07:48:52 | 02:54:41 | 00:00:00 | |
| NBG1-10 | 2026-08-31 01:12:59 | 49.36854 | 10.93111 | 55° | 69km/h | 6868m | -5.2m/s | -19.1°C | 82.1% | 433.9hPa | 2.5V | 00:00:00 | 02:54:40 | 00:00:00 | |
| DO3MHA-12 | 2026-08-31 01:12:57 | 49.36833 | 10.93064 | 56° | 77km/h | 6879m | -5.1m/s | -19.2°C | 81.7% | 433.3hPa | 2.6V | 00:00:00 | 02:54:38 | 00:00:00 | |
| DL1NUX | 2026-08-31 01:12:55 | 49.36761 | 10.92886 | 61° | 78km/h | 6914m | -4.9m/s | -19.5°C | 82.6% | 431.2hPa | 2.6V | 07:49:02 | 02:54:31 | 00:00:00 | |
| DO3MHA-12 | 2026-08-31 01:12:47 | 49.36734 | 10.92805 | 65° | 68km/h | 6929m | -4.6m/s | -19.6°C | 82.3% | 430.5hPa | 2.5V | 00:00:00 | 02:54:28 | 00:00:00 | |
| DL1NUX | 2026-08-31 01:12:45 | 49.36683 | 10.92637 | 63° | 62km/h | 6963m | -4.7m/s | -19.7°C | 78% | 428.6hPa | 2.5V | 07:49:12 | 02:54:21 | 00:00:00 | |
| DB0UT-7 | 2026-08-31 01:12:42 | 49.36697 | 10.92681 | 65° | 71km/h | 6953m | -4.8m/s | -19.6°C | 78.3% | 429.1hPa | 2.6V | 07:49:00 | 02:54:23 | 00:00:00 | |
| DB0NH | 2026-08-31 01:12:38 | 49.36668 | 10.92595 | 61° | 73km/h | 6973m | -4.9m/s | -19.7°C | 75.4% | 428.0hPa | 2.6V | 00:00:00 | 02:54:19 | 00:00:00 | |
| DO3MHA-12 | 2026-08-31 01:12:37 | 49.36660 | 10.92575 | 58° | 64km/h | 6978m | -4.7m/s | -19.7°C | 75.6% | 427.8hPa | 2.6V | 00:00:00 | 02:54:18 | 00:00:00 | |
| DJTTGO | 2026-08-31 01:12:34 | 49.36643 | 10.92534 | 57° | 60km/h | 6987m | -4.8m/s | -19.9°C | 72.9% | 427.2hPa | 2.6V | 07:49:00 | 00:00:00 | 00:00:00 | |
| DL1NUX | 2026-08-31 01:12:28 | 49.36538 | 10.92332 | 51° | 77km/h | 7038m | -5.3m/s | -20.3°C | 77.8% | 424.4hPa | 2.6V | 07:49:27 | 02:54:06 | 00:00:00 | |
| DO3MHA-12 | 2026-08-31 01:12:27 | 49.36561 | 10.92376 | 51° | 77km/h | 7027m | -5.0m/s | -20.2°C | 78.1% | 424.9hPa | 2.5V | 07:49:00 | 02:54:08 | 00:00:00 | |
| DO3MHA-12 | 2026-08-31 01:12:17 | 49.36439 | 10.92141 | 51° | 82km/h | 7077m | -5.7m/s | -20.7°C | 79.5% | 422.0hPa | 2.5V | 00:00:00 | 02:53:58 | 00:00:00 | |
| DF3TZ-5 | 2026-08-31 01:12:16 | 49.36426 | 10.92117 | 50° | 80km/h | 7083m | -5.6m/s | -20.8°C | 75.5% | 421.8hPa | 2.5V | 00:00:00 | 00:00:00 | 00:00:00 | |
| DL6DJ-15 | 2026-08-31 01:12:14 | 49.36401 | 10.92066 | 52° | 78km/h | 7092m | -4.6m/s | -20.8°C | 74.7% | 421.1hPa | 2.5V | 00:00:00 | 00:00:00 | 00:00:00 | |
| DB0UT-7 | 2026-08-31 01:12:12 | 49.36375 | 10.92015 | 54° | 84km/h | 7101m | -3.8m/s | -20.8°C | 77.7% | 420.6hPa | 2.5V | 00:00:00 | 00:00:00 | 00:00:00 | |
| DB0NH | 2026-08-31 01:12:08 | 49.36324 | 10.91912 | 52° | 82km/h | 7117m | -5.2m/s | -21.0°C | 78.9% | 419.5hPa | 2.5V | 07:49:00 | 02:53:49 | 00:00:00 | |
| DO3MHA-12 | 2026-08-31 01:12:07 | 49.36311 | 10.91887 | 51° | 88km/h | 7122m | -5.6m/s | -21.0°C | 78.4% | 419.2hPa | 2.5V | 00:00:00 | 02:53:48 | 00:00:00 | |
| SONCRA | 2026-08-31 01:12:06 | 49.36298 | 10.91862 | 51° | 84km/h | 7127m | -5.2m/s | -21.1°C | 74.5% | 419.0hPa | 2.5V | 00:00:00 | 00:00:00 | 00:00:00 | |
| DL1NUX | 2026-08-31 01:11:58 | 49.36191 | 10.91604 | 64° | 88km/h | 7167m | -4.2m/s | -21.2°C | 74.1% | 416.7hPa | 2.5V | 07:49:55 | 02:53:38 | 00:00:00 | |
| BIOWL1-15 | 2026-08-31 01:11:53 | 49.36140 | 10.91424 | 68° | 82km/h | 7195m | -5.3m/s | -21.4°C | 73.6% | 415.1hPa | 2.5V | 07:51:51 | 02:53:32 | 00:00:00 | |
| NBG1-10 | 2026-08-31 01:11:53 | 49.36156 | 10.91484 | 68° | 80km/h | 7186m | -4.2m/s | -21.2°C | 73.1% | 415.7hPa | 2.5V | 00:00:00 | 02:53:34 | 00:00:00 | |
| DL1NUX | 2026-08-31 01:11:48 | 49.36109 | 10.91305 | 67° | 78km/h | 7213m | -4.3m/s | -21.6°C | 74.9% | 414hPa | 2.5V | 07:50:05 | 02:53:28 | 00:00:00 | |
| DF3TZ-5 | 2026-08-31 01:11:45 | 49.36095 | 10.91249 | 68° | 75km/h | 7222m | -4.5m/s | -21.7°C | 71.5% | 413.6hPa | 2.6V | 00:00:00 | 00:00:00 | 00:00:00 | |
| DL6DJ-15 | 2026-08-31 01:11:43 | 49.36080 | 10.91194 | 67° | 75km/h | 7230m | -4.2m/s | -21.7°C | 72.2% | 413.1hPa | 2.6V | 00:00:00 | 00:00:00 | 00:00:00 | |
| DB0UT-7 | 2026-08-31 01:11:42 | 49.36072 | 10.91168 | 66° | 82km/h | 7234m | -4.2m/s | -21.7°C | 76.2% | 412.8hPa | 2.6V | 00:00:00 | 02:53:23 | 00:00:00 | |
| DL1NUX | 2026-08-31 01:11:38 | 49.36029 | 10.91045 | 58° | 75km/h | 7255m | -4.3m/s | -21.9°C | 76.4% | 411.7hPa | 2.6V | 07:50:15 | 02:53:18 | 00:00:00 | |
| DK7TD | 2026-08-31 01:11:35 | 49.36009 | 10.90995 | 58° | 77km/h | 7263m | -4.2m/s | -22°C | 75.6% | 411.2hPa | 2.5V | 07:51:00 | 02:53:16 | 00:00:00 | |
| DM0DOS-11 | 2026-08-31 01:11:32 | 49.35965 | 10.90889 | 57° | 84km/h | 7279m | -4.2m/s | -22.2°C | 78.5% | 410.3hPa | 2.6V | 07:50:21 | 02:53:12 | 00:00:00 | |
| DL1NUX | 2026-08-31 01:11:28 | 49.35921 | 10.90778 | 58° | 86km/h | 7295m | -4.5m/s | -22.4°C | 79.3% | 409.4hPa | 2.6V | 07:50:25 | 02:53:08 | 00:00:00 | |
| SO1NDE-10 | 2026-08-31 01:11:27 | 49.35921 | 10.90778 | 59° | 78km/h | 7295m | -4.5m/s | -22.3°C | 79.3% | 409.4hPa | 2.6V | 00:00:00 | 02:53:08 | 00:00:00 | |
| DM0DOS-11 | 2026-08-31 01:11:26 | 49.35860 | 10.90597 | 66° | 89km/h | 7326m | -5.4m/s | -22.7°C | 80.6% | 407.6hPa | 2.6V | 07:50:31 | 02:53:02 | 00:00:00 | |
| DF7PN | 2026-08-31 01:11:25 | 49.35889 | 10.90691 | 62° | 88km/h | 7310m | -5.7m/s | -22.5°C | 75.8% | 408.5hPa | 2.6V | 00:00:00 | 00:00:00 | 00:00:00 | |
| DJTTGO | 2026-08-31 01:11:24 | 49.35889 | 10.90690 | 63° | 88km/h | 7310m | -5.7m/s | -22.5°C | 75.8% | 408.5hPa | 2.6V | 00:00:00 | 00:00:00 | 00:00:00 | |
| DL1NUX | 2026-08-31 01:11:22 | 49.35829 | 10.90473 | 72° | 82km/h | 7346m | -5.1m/s | -22.8°C | 80.3% | 406.5hPa | 2.6V | 07:50:35 | 02:52:58 | 00:00:00 | |
| DK7TD | 2026-08-31 01:11:17 | 49.35829 | 10.90473 | 72° | 82km/h | 7346m | -5.1m/s | -22.8°C | 78.8% | 406.5hPa | 2.6V | 07:51:00 | 02:52:58 | 00:00:00 | |
| DO3MHA-12 | 2026-08-31 01:11:17 | 49.35829 | 10.90473 | 73° | 78km/h | 7346m | -5.1m/s | -22.7°C | 80.3% | 406.4hPa | 2.6V | 00:00:00 | 02:52:58 | 00:00:00 | |
| DM0DOS-11 | 2026-08-31 01:11:15 | 49.35788 | 10.90266 | 71° | 75km/h | 7379m | -4.6m/s | -23.1°C | 82.2% | 404.6hPa | 2.6V | 07:50:42 | 02:52:51 | 00:00:00 | |
| DF3TZ-5 | 2026-08-31 01:11:14 | 49.35811 | 10.90382 | 73° | 80km/h | 7360m | -4.9m/s | -23.0°C | 78.9% | 405.6hPa | 2.6V | 00:00:00 | 00:00:00 | 00:00:00 | |
| DL1NUX | 2026-08-31 01:11:12 | 49.35770 | 10.90185 | 68° | 73km/h | 7391m | -5.1m/s | -23.2°C | 82.6% | 403.9hPa | 2.6V | 07:50:45 | 02:52:48 | 00:00:00 | |
| DB0UT-7 | 2026-08-31 01:11:12 | 49.35800 | 10.90323 | 74° | 75km/h | 7370m | -5.0m/s | -23.0°C | 82.1% | 405.1hPa | 2.6V | 00:00:00 | 00:00:00 | 00:00:00 | |
| DB0NH | 2026-08-31 01:11:08 | 49.35776 | 10.90212 | 71° | 75km/h | 7387m | -4.5m/s | -23.1°C | 82.8% | 404.2hPa | 2.6V | 00:00:00 | 02:52:49 | 00:00:00 | |
| DO3MHA-12 | 2026-08-31 01:11:07 | 49.35770 | 10.90185 | 69° | 71km/h | 7391m | -5.0m/s | -23.2°C | 82.6% | 403.9hPa | 2.6V | 07:50:00 | 02:52:48 | 00:00:00 | |
| DM0DOS-11 | 2026-08-31 01:11:05 | 49.35725 | 10.90002 | 69° | 71km/h | 7425m | -5.2m/s | -23.5°C | 82.3% | 402hPa | 2.6V | 07:50:52 | 02:52:41 | 00:00:00 | |
| DK7TD | 2026-08-31 01:10:58 | 49.35711 | 10.89950 | 67° | 71km/h | 7435m | -5.6m/s | -23.6°C | 80.5% | 401.4hPa | 2.5V | 07:51:00 | 02:52:39 | 00:00:00 | |
| BIOWL1-15 | 2026-08-31 01:10:56 | 49.35697 | 10.89899 | 66° | 71km/h | 7445m | -5.1m/s | -23.7°C | 79.3% | 401hPa | 2.6V | 07:51:51 | 02:52:37 | 00:00:00 | |
| DM0DOS-11 | 2026-08-31 01:10:55 | 49.35647 | 10.89744 | 62° | 77km/h | 7475m | -5.2m/s | -23.9°C | 81.7% | 399.3hPa | 2.5V | 07:51:02 | 02:52:31 | 00:00:00 | |
| DF7PN | 2026-08-31 01:10:54 | 49.35673 | 10.89822 | 63° | 75km/h | 7460m | -5.4m/s | -23.8°C | 77.6% | 400.1hPa | 2.6V | 00:00:00 | 00:00:00 | 00:00:00 | |
| DL1NUX | 2026-08-31 01:10:52 | 49.35620 | 10.89666 | 61° | 77km/h | 7491m | -5.7m/s | -24°C | 82% | 398.5hPa | 2.6V | 07:51:05 | 02:52:28 | 00:00:00 | |
| DK7TD | 2026-08-31 01:10:47 | 49.35620 | 10.89665 | 61° | 77km/h | 7491m | -5.7m/s | -24°C | 81.9% | 398.5hPa | 2.6V | 07:51:51 | 02:52:28 | 00:00:00 | |
| DO3MHA-12 | 2026-08-31 01:10:47 | 49.35620 | 10.89665 | 62° | 80km/h | 7491m | -5.6m/s | -24.0°C | 82.0% | 398.4hPa | 2.6V | 00:00:00 | 02:52:28 | 00:00:00 | |
| DF3TZ-5 | 2026-08-31 01:10:43 | 49.35582 | 10.89560 | 60° | 77km/h | 7512m | -6.2m/s | -24.2°C | 77.4% | 397.3hPa | 2.6V | 00:00:00 | 00:00:00 | 00:00:00 | |
| DL1NUX | 2026-08-31 01:10:42 | 49.35520 | 10.89395 | 61° | 86km/h | 7544m | -5.2m/s | -24.5°C | 82.8% | 395.5hPa | 2.6V | 07:51:15 | 02:52:18 | 00:00:00 | |
| BIOWL1-15 | 2026-08-31 01:10:41 | 49.35562 | 10.89507 | 60° | 80km/h | 7523m | -5.7m/s | -24.3°C | 81.8% | 396.7hPa | 2.6V | 07:51:51 | 02:52:22 | 00:00:00 | |
| DK7TD | 2026-08-31 01:10:36 | 49.35509 | 10.89365 | 61° | 88km/h | 7549m | -5.9m/s | -24.5°C | 82.2% | 395.4hPa | 2.6V | 07:51:51 | 02:52:17 | 00:00:00 | |
| SONCRA | 2026-08-31 01:10:34 | 49.35476 | 10.89273 | 62° | 91km/h | 7565m | -5.7m/s | -24.7°C | 78.6% | 394.6hPa | 2.6V | 00:00:00 | 00:00:00 | 00:00:00 | |
| DM0DOS-11 | 2026-08-31 01:10:33 | 49.35445 | 10.89175 | 64° | 95km/h | 7581m | -5.1m/s | -24.8°C | 83.9% | 393.6hPa | 2.6V | 07:51:22 | 02:52:11 | 00:00:00 | |
| DL1NUX | 2026-08-31 01:10:32 | 49.35417 | 10.89076 | 69° | 91km/h | 7597m | -5.3m/s | -24.9°C | 84.9% | 392.9hPa | 2.5V | 07:51:25 | 02:52:08 | 00:00:00 | |
| DK7TD | 2026-08-31 01:10:26 | 49.35409 | 10.89043 | 70° | 89km/h | 7603m | -5.7m/s | -25°C | 83.7% | 392.5hPa | 2.6V | 07:51:51 | 02:52:07 | 00:00:00 | |
| BIOWL1-15 | 2026-08-31 01:10:25 | 49.35395 | 10.88979 | 72° | 86km/h | 7614m | -5.7m/s | -25.1°C | 84.4% | 392hPa | 2.5V | 07:51:51 | 02:52:05 | 00:00:00 | |
| DM0DOS-11 | 2026-08-31 01:10:23 | 49.35369 | 10.88857 | 72° | 82km/h | 7635m | -5m/s | -25.3°C | 86.7% | 390.9hPa | 2.6V | 07:51:32 | 02:52:01 | 00:00:00 | |
| DF7PN | 2026-08-31 01:10:23 | 49.35382 | 10.88917 | 72° | 82km/h | 7625m | -5.6m/s | -25.2°C | 81.9% | 391.4hPa | 2.5V | 00:00:00 | 00:00:00 | 00:00:00 | |
| DL1NUX | 2026-08-31 01:10:22 | 49.35352 | 10.88767 | 73° | 80km/h | 7651m | -5.7m/s | -25.4°C | 86.5% | 389.9hPa | 2.5V | 07:51:35 | 02:51:58 | 00:00:00 | |
| DK7TD | 2026-08-31 01:10:16 | 49.35346 | 10.88738 | 73° | 78km/h | 7657m | -6.2m/s | -25.5°C | 85.9% | 389.6hPa | 2.5V | 07:51:51 | 02:51:57 | 00:00:00 | |
| BIOWL1-15 | 2026-08-31 01:10:14 | 49.35321 | 10.88624 | 68° | 77km/h | 7679m | -5.4m/s | -25.7°C | 84.3% | 388.4hPa | 2.5V | 07:51:51 | 02:51:53 | 00:00:00 | |
| NBG1-10 | 2026-08-31 01:10:14 | 49.35334 | 10.88680 | 72° | 88km/h | 7669m | -5.6m/s | -25.5°C | 84.8% | 389.0hPa | 2.5V | 00:00:00 | 02:51:55 | 00:00:00 | |
| DF3TZ-5 | 2026-08-31 01:10:12 | 49.35321 | 10.88624 | 68° | 75km/h | 7679m | -5.4m/s | -25.7°C | 80.2% | 388.4hPa | 2.5V | 00:00:00 | 00:00:00 | 00:00:00 | |
| DB0UT-7 | 2026-08-31 01:10:11 | 49.35314 | 10.88597 | 67° | 93km/h | 7685m | -5.3m/s | -25.7°C | 86.2% | 388.1hPa | 2.5V | 00:00:00 | 00:00:00 | 00:00:00 | |
| DL6DJ-15 | 2026-08-31 01:10:10 | 49.35297 | 10.88542 | 64° | 78km/h | 7695m | -5.6m/s | -25.8°C | 81.6% | 387.5hPa | 2.5V | 00:00:00 | 00:00:00 | 00:00:00 | |
| DM0DOS-11 | 2026-08-31 01:10:08 | 49.35280 | 10.88486 | 65° | 80km/h | 7706m | -5.2m/s | -25.9°C | 86.8% | 386.9hPa | 2.5V | 07:51:45 | 02:51:48 | 00:00:00 | |
| DK7TD | 2026-08-31 01:10:05 | 49.35263 | 10.88429 | 65° | 80km/h | 7716m | -5.5m/s | -26°C | 87.3% | 386.4hPa | 2.5V | 07:51:51 | 02:51:46 | 00:00:00 | |
| DL1NUX | 2026-08-31 01:10:02 | 49.35188 | 10.88183 | 65° | 91km/h | 7761m | -5.4m/s | -26.4°C | 89% | 384.1hPa | 2.6V | 07:51:55 | 02:51:38 | 00:00:00 | |
| BIOWL1-15 | 2026-08-31 01:10:02 | 49.35188 | 10.88183 | 66° | 91km/h | 7761m | -5.4m/s | -26.4°C | 87.5% | 384.1hPa | 2.6V | 07:52:42 | 02:51:38 | 00:00:00 | |
| DM0DOS-11 | 2026-08-31 01:09:58 | 49.35178 | 10.88150 | 64° | 93km/h | 7766m | -5.8m/s | -26.5°C | 89.2% | 383.9hPa | 2.5V | 07:51:56 | 02:51:37 | 00:00:00 | |
| DK7TD | 2026-08-31 01:09:54 | 49.35158 | 10.88085 | 65° | 93km/h | 7777m | -5.7m/s | -26.6°C | 89.4% | 383.3hPa | 2.5V | 07:52:42 | 02:51:35 | 00:00:00 | |
| BIOWL1-15 | 2026-08-31 01:09:47 | 49.35068 | 10.87742 | 72° | 95km/h | 7830m | -4.9m/s | -27°C | 89.1% | 380.5hPa | 2.5V | 07:52:42 | 02:51:25 | 00:00:00 | |
| DK7TD | 2026-08-31 01:09:43 | 49.35061 | 10.87707 | 73° | 95km/h | 7835m | -5.4m/s | -27°C | 89.3% | 380.3hPa | 2.5V | 07:52:42 | 02:51:24 | 00:00:00 | |
| DL1NUX | 2026-08-31 01:09:41 | 49.35023 | 10.87490 | 75° | 95km/h | 7865m | -5.6m/s | -27.3°C | 89.8% | 378.7hPa | 2.5V | 07:52:15 | 02:51:18 | 00:00:00 | |
| BIOWL1-15 | 2026-08-31 01:09:35 | 49.34987 | 10.87276 | 77° | 93km/h | 7895m | -4.9m/s | -27.5°C | 86.5% | 377hPa | 2.5V | 07:52:42 | 02:51:12 | 00:00:00 | |
| DK7TD | 2026-08-31 01:09:33 | 49.34999 | 10.87347 | 75° | 95km/h | 7885m | -5.4m/s | -27.4°C | 84.5% | 377.5hPa | 2.5V | 07:52:42 | 02:51:14 | 00:00:00 | |
| DL1NUX | 2026-08-31 01:09:31 | 49.34966 | 10.87138 | 77° | 91km/h | 7914m | -5.2m/s | -27.8°C | 93% | 376.1hPa | 2.5V | 07:52:25 | 02:51:08 | 00:00:00 | |
| BIOWL1-15 | 2026-08-31 01:09:24 | 49.34953 | 10.87035 | 79° | 91km/h | 7928m | -4.9m/s | -27.7°C | 86.2% | 375.3hPa | 2.6V | 07:52:42 | 02:51:05 | 00:00:00 | |
| DK7TD | 2026-08-31 01:09:22 | 49.34944 | 10.86966 | 79° | 89km/h | 7938m | -5.4m/s | -27.6°C | 84.4% | 374.8hPa | 2.5V | 07:52:42 | 02:51:03 | 00:00:00 | |
| DL1NUX | 2026-08-31 01:09:21 | 49.34926 | 10.86803 | 80° | 82km/h | 7964m | -5.4m/s | -27.7°C | 75.6% | 373.5hPa | 2.5V | 07:52:35 | 02:50:58 | 00:00:00 | |
| BIOWL1-15 | 2026-08-31 01:09:13 | 49.34910 | 10.86681 | 76° | 80km/h | 7985m | -5.8m/s | 0°C | 0% | 372.3hPa | 2.5V | 07:52:42 | 02:50:54 | 00:00:00 | |
| DK7TD | 2026-08-31 01:09:12 | 49.34905 | 10.86652 | 75° | 78km/h | 7991m | -5.7m/s | -28°C | 76.3% | 372.1hPa | 2.5V | 07:52:42 | 02:50:53 | 00:00:00 | |
| BIOWL1-15 | 2026-08-31 01:09:02 | 49.34807 | 10.86205 | 72° | 97km/h | 8067m | -6.2m/s | 0°C | 0% | 0hPa | 2.6V | 18:12:15 | 02:50:39 | 00:00:00 | |
| DK7TD | 2026-08-31 01:09:02 | 49.34837 | 10.86342 | 71° | 89km/h | 8045m | -5.4m/s | -28.4°C | 75% | 369.3hPa | 2.5V | 07:53:33 | 02:50:43 | 00:00:00 | |
| SONCRA | 2026-08-31 01:09:00 | 49.34822 | 10.86275 | 71° | 93km/h | 8056m | -5.6m/s | -28.5°C | 70.0% | 368.7hPa | 2.5V | 00:00:00 | 00:00:00 | 00:00:00 | |
| DO3MHA-12 | 2026-08-31 01:08:57 | 49.34799 | 10.86169 | 73° | 99km/h | 8073m | -5.4m/s | -28.6°C | 74.3% | 367.8hPa | 2.5V | 00:00:00 | 02:50:38 | 00:00:00 | |
| DL1NUX | 2026-08-31 01:08:51 | 49.34742 | 10.85795 | 81° | 97km/h | 8128m | -5.8m/s | -29.2°C | 76.1% | 365hPa | 2.5V | 07:53:05 | 02:50:28 | 00:00:00 | |
| DK7TD | 2026-08-31 01:08:51 | 49.34760 | 10.85946 | 78° | 100km/h | 8105m | -6m/s | -29°C | 75.8% | 366.2hPa | 2.6V | 07:53:33 | 02:50:32 | 00:00:00 | |
| DF7PN | 2026-08-31 01:08:49 | 49.34750 | 10.85870 | 79° | 99km/h | 8117m | -5.4m/s | -29.1°C | 71.2% | 365.6hPa | 2.5V | 00:00:00 | 00:00:00 | 00:00:00 | |
| DK7TD | 2026-08-31 01:08:41 | 49.34723 | 10.85578 | 83° | 93km/h | 8161m | -6.3m/s | -29.5°C | 78.7% | 363.2hPa | 2.5V | 07:53:33 | 02:50:22 | 00:00:00 | |
| DL1NUX | 2026-08-31 01:08:41 | 49.34711 | 10.85437 | 81° | 88km/h | 8184m | -6.1m/s | -29.7°C | 79.8% | 362.1hPa | 2.6V | 07:53:15 | 02:50:18 | 00:00:00 | |
| DF3TZ-5 | 2026-08-31 01:08:39 | 49.34717 | 10.85506 | 83° | 91km/h | 8173m | -6.1m/s | -29.6°C | 74.0% | 362.7hPa | 2.5V | 00:00:00 | 00:00:00 | 00:00:00 | |
| DL6DJ-15 | 2026-08-31 01:08:37 | 49.34708 | 10.85404 | 80° | 86km/h | 8190m | -5.7m/s | -29.8°C | 75.3% | 361.9hPa | 2.5V | 00:00:00 | 00:00:00 | 00:00:00 | |
| DM0DOS-11 | 2026-08-31 01:08:35 | 49.34682 | 10.85214 | 74° | 82km/h | 8223m | -6.3m/s | -30°C | 82.5% | 360.2hPa | 2.5V | 07:53:22 | 02:50:11 | 00:00:00 | |
| DB0UT-7 | 2026-08-31 01:08:35 | 49.34705 | 10.85371 | 81° | 91km/h | 8195m | -5.2m/s | -29.8°C | 80.7% | 361.5hPa | 2.5V | 07:53:00 | 02:50:16 | 00:00:00 | |
| DL1NUX | 2026-08-31 01:08:31 | 49.34664 | 10.85122 | 72° | 82km/h | 8241m | -5.5m/s | -30.2°C | 83.3% | 359.3hPa | 2.5V | 07:53:25 | 02:50:08 | 00:00:00 | |
| DK7TD | 2026-08-31 01:08:30 | 49.34682 | 10.85214 | 75° | 82km/h | 8223m | -6.4m/s | -30°C | 82.7% | 360.2hPa | 2.5V | 07:53:33 | 02:50:11 | 00:00:00 | |
| SONCRA | 2026-08-31 01:08:29 | 49.34676 | 10.85183 | 73° | 82km/h | 8229m | -5.9m/s | -30.1°C | 77.7% | 359.8hPa | 2.5V | 00:00:00 | 00:00:00 | 00:00:00 | |
| DO3MHA-12 | 2026-08-31 01:08:27 | 49.34664 | 10.85122 | 73° | 88km/h | 8241m | -5.5m/s | -30.1°C | 83.3% | 359.2hPa | 2.5V | 07:53:00 | 02:50:08 | 00:00:00 | |
| DM0DOS-11 | 2026-08-31 01:08:25 | 49.34611 | 10.84902 | 68° | 91km/h | 8281m | -6.1m/s | -30.5°C | 83.4% | 357.3hPa | 2.5V | 07:53:32 | 02:50:01 | 00:00:00 | |
| DJTTGO | 2026-08-31 01:08:24 | 49.34651 | 10.85060 | 71° | 84km/h | 8252m | -6.1m/s | -30.3°C | 78.7% | 358.6hPa | 2.5V | 00:00:00 | 00:00:00 | 00:00:00 | |
| DL1NUX | 2026-08-31 01:08:21 | 49.34585 | 10.84800 | 69° | 97km/h | 8298m | -6.1m/s | -30.6°C | 83.1% | 356.4hPa | 2.5V | 07:53:35 | 02:49:58 | 00:00:00 | |
| DK7TD | 2026-08-31 01:08:19 | 49.34602 | 10.84869 | 69° | 93km/h | 8287m | -5.3m/s | -30.5°C | 83.2% | 356.9hPa | 2.5V | 07:53:33 | 02:50:00 | 00:00:00 | |
| DF7PN | 2026-08-31 01:08:18 | 49.34594 | 10.84835 | 69° | 95km/h | 8292m | -5.6m/s | -30.5°C | 78.1% | 356.7hPa | 2.5V | 00:00:00 | 00:00:00 | 00:00:00 | |
| DO3MHA-12 | 2026-08-31 01:08:17 | 49.34585 | 10.84800 | 70° | 99km/h | 8298m | -6.1m/s | -30.5°C | 83.1% | 356.4hPa | 2.5V | 00:00:00 | 02:49:58 | 00:00:00 | |
| DM0DOS-11 | 2026-08-31 01:08:15 | 49.34525 | 10.84548 | 71° | 99km/h | 8338m | -5.8m/s | -30.9°C | 80.5% | 354.4hPa | 2.5V | 07:53:42 | 02:49:51 | 00:00:00 | |
| DL1NUX | 2026-08-31 01:08:11 | 49.34503 | 10.84439 | 74° | 99km/h | 8355m | -5.9m/s | -31°C | 80.8% | 353.6hPa | 2.5V | 07:53:45 | 02:49:48 | 00:00:00 | |
| DK7TD | 2026-08-31 01:08:09 | 49.34517 | 10.84512 | 72° | 99km/h | 8343m | -5.6m/s | -30.9°C | 80.1% | 354.1hPa | 2.5V | 07:54:24 | 02:49:50 | 00:00:00 | |
| DB0NH | 2026-08-31 01:08:08 | 49.34510 | 10.84475 | 74° | 95km/h | 8349m | -5.8m/s | -30.9°C | 80.7% | 353.8hPa | 2.5V | 07:53:00 | 02:49:49 | 00:00:00 | |
| DO3MHA-12 | 2026-08-31 01:08:07 | 49.34503 | 10.84439 | 75° | 97km/h | 8355m | -5.9m/s | -31.0°C | 80.8% | 353.5hPa | 2.5V | 00:00:00 | 02:49:48 | 00:00:00 | |
| DB0UT-7 | 2026-08-31 01:08:05 | 49.34490 | 10.84366 | 76° | 95km/h | 8366m | -5.6m/s | -31.1°C | 81.0% | 353.0hPa | 2.5V | 00:00:00 | 00:00:00 | 00:00:00 | |
| DM0DOS-11 | 2026-08-31 01:08:03 | 49.34461 | 10.84186 | 75° | 95km/h | 8393m | -5.8m/s | -31.3°C | 80.4% | 351.7hPa | 2.5V | 07:53:52 | 02:49:41 | 00:00:00 | |
| NBG1-10 | 2026-08-31 01:08:02 | 49.34473 | 10.84258 | 77° | 93km/h | 8382m | -5.6m/s | -31.2°C | 80.4% | 352.2hPa | 2.5V | 00:00:00 | 02:49:43 | 00:00:00 | |
| DL1NUX | 2026-08-31 01:08:01 | 49.34443 | 10.84079 | 75° | 95km/h | 8410m | -5.5m/s | -31.4°C | 80.7% | 350.9hPa | 2.5V | 07:53:55 | 02:49:38 | 00:00:00 | |
| DK7TD | 2026-08-31 01:07:58 | 49.34449 | 10.84115 | 76° | 95km/h | 8404m | -5.6m/s | -31.4°C | 80% | 351.1hPa | 2.5V | 07:54:24 | 02:49:39 | 00:00:00 | |
| SONCRA | 2026-08-31 01:07:58 | 49.34443 | 10.84079 | 75° | 95km/h | 8410m | -5.5m/s | -31.4°C | 75.6% | 350.9hPa | 2.5V | 00:00:00 | 00:00:00 | 00:00:00 | |
| DO3MHA-12 | 2026-08-31 01:07:57 | 49.34443 | 10.84079 | 76° | 95km/h | 8410m | -5.4m/s | -31.4°C | 80.7% | 350.8hPa | 2.5V | 00:00:00 | 02:49:38 | 00:00:00 | |
| DM0DOS-11 | 2026-08-31 01:07:53 | 49.34401 | 10.83832 | 74° | 95km/h | 8448m | -5.3m/s | -31.8°C | 80.9% | 348.9hPa | 2.5V | 07:54:02 | 02:49:31 | 00:00:00 | |
| DL1NUX | 2026-08-31 01:07:51 | 49.34381 | 10.83725 | 73° | 95km/h | 8464m | -5.9m/s | -31.9°C | 81% | 348.1hPa | 2.5V | 07:54:05 | 02:49:28 | 00:00:00 | |
| DK7TD | 2026-08-31 01:07:47 | 49.34381 | 10.83725 | 74° | 97km/h | 8465m | -5.9m/s | -31.9°C | 80.1% | 348.1hPa | 2.5V | 07:54:24 | 02:49:28 | 00:00:00 | |
| DO3MHA-12 | 2026-08-31 01:07:47 | 49.34381 | 10.83725 | 74° | 93km/h | 8465m | -5.8m/s | -31.9°C | 81.0% | 348.1hPa | 2.5V | 00:00:00 | 02:49:28 | 00:00:00 | |
| DM0DOS-11 | 2026-08-31 01:07:43 | 49.34335 | 10.83480 | 73° | 93km/h | 8503m | -5.8m/s | -32.2°C | 82.1% | 346.2hPa | 2.5V | 07:54:12 | 02:49:21 | 00:00:00 | |
| DL1NUX | 2026-08-31 01:07:41 | 49.34315 | 10.83377 | 72° | 93km/h | 8520m | -5.8m/s | -32.3°C | 82.4% | 345.4hPa | 2.4V | 07:54:15 | 02:49:18 | 00:00:00 | |
| DK7TD | 2026-08-31 01:07:37 | 49.34315 | 10.83377 | 73° | 93km/h | 8520m | -5.8m/s | -32.3°C | 80.8% | 345.4hPa | 2.4V | 07:54:24 | 02:49:18 | 00:00:00 | |
| DO3MHA-12 | 2026-08-31 01:07:37 | 49.34315 | 10.83377 | 73° | 91km/h | 8520m | -5.8m/s | -32.3°C | 82.4% | 345.3hPa | 2.5V | 00:00:00 | 02:49:18 | 00:00:00 | |
| DB0UT-7 | 2026-08-31 01:07:35 | 49.34301 | 10.83308 | 73° | 97km/h | 8531m | -5.5m/s | -32.3°C | 81.9% | 344.8hPa | 2.5V | 00:00:00 | 02:49:16 | 00:00:00 | |
| DL6DJ-15 | 2026-08-31 01:07:34 | 49.34294 | 10.83274 | 71° | 89km/h | 8536m | -6.0m/s | -32.4°C | 77.0% | 344.6hPa | 2.5V | 00:00:00 | 00:00:00 | 00:00:00 | |
| DM0DOS-11 | 2026-08-31 01:07:32 | 49.34263 | 10.83143 | 67° | 89km/h | 8558m | -6.2m/s | -32.5°C | 82.2% | 343.4hPa | 2.5V | 07:54:22 | 02:49:11 | 00:00:00 | |
| DL1NUX | 2026-08-31 01:07:31 | 49.34237 | 10.83046 | 65° | 89km/h | 8576m | -5.8m/s | -32.6°C | 81.9% | 342.6hPa | 2.4V | 07:54:25 | 02:49:08 | 00:00:00 | |
| DK7TD | 2026-08-31 01:07:27 | 49.34237 | 10.83046 | 66° | 89km/h | 8576m | -5.8m/s | -32.6°C | 80.7% | 342.6hPa | 2.4V | 07:55:15 | 02:49:08 | 00:00:00 | |
| DO3MHA-12 | 2026-08-31 01:07:27 | 49.34237 | 10.83046 | 66° | 89km/h | 8576m | -5.8m/s | -32.6°C | 81.9% | 342.5hPa | 2.5V | 00:00:00 | 02:49:08 | 00:00:00 | |
| DM0DOS-11 | 2026-08-31 01:07:22 | 49.34169 | 10.82827 | 61° | 89km/h | 8615m | -5.8m/s | -32.8°C | 79.1% | 340.7hPa | 2.5V | 07:54:32 | 02:49:01 | 00:00:00 | |
| DL1NUX | 2026-08-31 01:07:21 | 49.34134 | 10.82733 | 58° | 95km/h | 8632m | -6.2m/s | -32.9°C | 79.1% | 339.8hPa | 2.4V | 07:54:35 | 02:48:58 | 00:00:00 | |
| DK7TD | 2026-08-31 01:07:16 | 49.34122 | 10.82702 | 60° | 95km/h | 8638m | -5.8m/s | -32.9°C | 78.9% | 339.5hPa | 2.5V | 07:55:15 | 02:48:57 | 00:00:00 | |
| DL1NUX | 2026-08-31 01:07:11 | 49.33995 | 10.82389 | 57° | 108km/h | 8689m | -5.8m/s | -33.2°C | 78.4% | 337.1hPa | 2.4V | 07:54:45 | 02:48:48 | 00:00:00 | |
| DM0DOS-11 | 2026-08-31 01:07:11 | 49.33951 | 10.82281 | 58° | 110km/h | 8706m | -5.5m/s | -33.3°C | 77.9% | 336.2hPa | 2.5V | 07:54:48 | 02:48:45 | 00:00:00 | |
| DK7TD | 2026-08-31 01:07:06 | 49.33980 | 10.82353 | 58° | 110km/h | 8695m | -6m/s | -33.2°C | 78.4% | 336.8hPa | 2.5V | 07:55:15 | 02:48:47 | 00:00:00 | |
| DF3TZ-5 | 2026-08-31 01:07:06 | 49.33965 | 10.82317 | 57° | 108km/h | 8701m | -6.3m/s | -33.3°C | 72.9% | 336.6hPa | 2.5V | 00:00:00 | 00:00:00 | 00:00:00 | |
| DB0UT-7 | 2026-08-31 01:07:05 | 49.33965 | 10.82317 | 58° | 113km/h | 8701m | -6.2m/s | -33.2°C | 78.2% | 336.5hPa | 2.5V | 00:00:00 | 00:00:00 | 00:00:00 | |
| DL6DJ-15 | 2026-08-31 01:07:04 | 49.33936 | 10.82244 | 58° | 111km/h | 8712m | -5.8m/s | -33.4°C | 72.5% | 336.0hPa | 2.4V | 00:00:00 | 00:00:00 | 00:00:00 | |
| DL1NUX | 2026-08-31 01:07:01 | 49.33849 | 10.82014 | 61° | 115km/h | 8746m | -6.3m/s | -33.6°C | 76.8% | 334.3hPa | 2.4V | 07:54:55 | 02:48:38 | 00:00:00 | |
| DM0DOS-11 | 2026-08-31 01:06:59 | 49.33810 | 10.81893 | 63° | 115km/h | 8764m | -5.9m/s | -33.7°C | 77% | 333.6hPa | 2.5V | 07:54:58 | 02:48:35 | 00:00:00 | |
| DK7TD | 2026-08-31 01:06:55 | 49.33823 | 10.81934 | 63° | 117km/h | 8758m | -6.1m/s | -33.7°C | 77.1% | 333.9hPa | 2.5V | 07:55:15 | 02:48:36 | 00:00:00 | |
| DL1NUX | 2026-08-31 01:06:51 | 49.33723 | 10.81607 | 66° | 115km/h | 8804m | -6m/s | -34°C | 76.5% | 331.7hPa | 2.4V | 07:55:05 | 02:48:28 | 00:00:00 | |
| BIOWL1-15 | 2026-08-31 01:06:50 | 49.33758 | 10.81730 | 65° | 115km/h | 8786m | -5.9m/s | -33.9°C | 77.2% | 332.5hPa | 2.5V | 07:56:06 | 02:48:31 | 00:00:00 | |
| DM0DOS-11 | 2026-08-31 01:06:49 | 49.33690 | 10.81486 | 68° | 110km/h | 8820m | -5.2m/s | -34.1°C | 75.4% | 330.9hPa | 2.5V | 07:55:08 | 02:48:25 | 00:00:00 | |
| DK7TD | 2026-08-31 01:06:44 | 49.33690 | 10.81486 | 68° | 111km/h | 8821m | -5.3m/s | -34.1°C | 75.7% | 330.9hPa | 2.5V | 07:55:15 | 02:48:25 | 00:00:00 | |
| BIOWL1-15 | 2026-08-31 01:06:39 | 49.33637 | 10.81295 | 65° | 104km/h | 8847m | -6m/s | 0°C | 0% | 329.6hPa | 2.5V | 07:56:06 | 02:48:20 | 00:00:00 | |
| DM0DOS-11 | 2026-08-31 01:06:39 | 49.33578 | 10.81114 | 61° | 106km/h | 8873m | -5.4m/s | -34.6°C | 75.6% | 328.3hPa | 2.5V | 07:55:18 | 02:48:15 | 00:00:00 | |
| DL1NUX | 2026-08-31 01:06:39 | 49.33615 | 10.81222 | 64° | 104km/h | 8857m | -5.4m/s | -34.4°C | 74.4% | 329.1hPa | 2.4V | 07:55:15 | 02:48:18 | 00:00:00 | |
| DK7TD | 2026-08-31 01:06:33 | 49.33566 | 10.81079 | 61° | 104km/h | 8878m | -5.4m/s | -34.6°C | 74.8% | 328.1hPa | 2.5V | 07:56:06 | 02:48:14 | 00:00:00 | |
| BIOWL1-15 | 2026-08-31 01:06:29 | 49.33481 | 10.80864 | 57° | 111km/h | 8911m | -5.6m/s | 0°C | 0% | 326.5hPa | 2.4V | 07:56:06 | 02:48:08 | 00:00:00 | |
| DM0DOS-11 | 2026-08-31 01:06:28 | 49.33435 | 10.80753 | 57° | 115km/h | 8927m | -5.4m/s | -35°C | 75.1% | 325.7hPa | 2.5V | 07:55:28 | 02:48:05 | 00:00:00 | |
| DK7TD | 2026-08-31 01:06:22 | 49.33404 | 10.80680 | 57° | 111km/h | 8938m | -5.7m/s | -35.1°C | 74.1% | 325.3hPa | 2.4V | 07:56:06 | 02:48:03 | 00:00:00 | |
| BIOWL1-15 | 2026-08-31 01:06:17 | 49.33288 | 10.80413 | 58° | 126km/h | 8980m | -5.6m/s | 0°C | 0% | 0hPa | 2.4V | 07:56:06 | 02:47:56 | 00:00:00 | |
| DK7TD | 2026-08-31 01:06:11 | 49.33222 | 10.80244 | 61° | 130km/h | 9003m | -5.4m/s | -35.4°C | 72.5% | 322.4hPa | 2.5V | 07:56:06 | 02:47:52 | 00:00:00 | |
| DM0DOS-11 | 2026-08-31 01:06:08 | 49.33118 | 10.79936 | 64° | 126km/h | 9041m | -5.7m/s | -35.7°C | 73.4% | 320.7hPa | 2.4V | 07:55:48 | 02:47:45 | 00:00:00 | |
| DK7TD | 2026-08-31 01:06:01 | 49.33079 | 10.79807 | 66° | 120km/h | 9057m | -5.7m/s | -35.8°C | 71.9% | 320hPa | 2.5V | 07:56:06 | 02:47:42 | 00:00:00 | |
| BIOWL1-15 | 2026-08-31 01:05:53 | 49.32976 | 10.79492 | 60° | 111km/h | 9099m | -5.8m/s | 0°C | 0% | 0hPa | 2.5V | 07:56:06 | 02:47:34 | 00:00:00 | |
| DL1NUX | 2026-08-31 01:05:52 | 49.32878 | 10.79262 | 56° | 122km/h | 9136m | -5.8m/s | -36.2°C | 71.4% | 316.3hPa | 2.5V | 07:56:05 | 02:47:28 | 00:00:00 | |
| DK7TD | 2026-08-31 01:05:51 | 49.32946 | 10.79416 | 57° | 117km/h | 9112m | -6.3m/s | -36.1°C | 71.2% | 317.4hPa | 2.4V | 07:56:06 | 02:47:32 | 00:00:00 | |
| NBG1-10 | 2026-08-31 01:05:50 | 49.32930 | 10.79378 | 57° | 137km/h | 9118m | -5.9m/s | -36.0°C | 71.6% | 317.0hPa | 2.5V | 00:00:00 | 02:47:31 | 00:00:00 | |
| DM0DOS-11 | 2026-08-31 01:05:47 | 49.32788 | 10.79049 | 58° | 135km/h | 9166m | -6.5m/s | -36.4°C | 69.3% | 315hPa | 2.5V | 07:56:10 | 02:47:23 | 00:00:00 | |
| BIOWL1-15 | 2026-08-31 01:05:44 | 49.32770 | 10.79004 | 59° | 135km/h | 9172m | -5.6m/s | 0°C | 0% | 0hPa | 2.4V | 18:12:15 | 02:47:22 | 00:00:00 | |
| DF7PN | 2026-08-31 01:05:43 | 49.32806 | 10.79093 | 58° | 133km/h | 9160m | -6.4m/s | -36.4°C | 64.7% | 315.2hPa | 2.5V | 00:00:00 | 00:00:00 | 00:00:00 | |
| DL1NUX | 2026-08-31 01:05:41 | 49.32700 | 10.78818 | 61° | 141km/h | 9195m | -5.5m/s | -36.6°C | 67.5% | 313.7hPa | 2.5V | 07:56:15 | 02:47:18 | 00:00:00 | |
| DK7TD | 2026-08-31 01:05:40 | 49.32752 | 10.78958 | 60° | 139km/h | 9178m | -5.6m/s | -36.5°C | 68.6% | 314.4hPa | 2.4V | 07:56:57 | 02:47:21 | 00:00:00 | |
| DB0NH | 2026-08-31 01:05:38 | 49.32717 | 10.78865 | 61° | 139km/h | 9189m | -5.6m/s | -36.5°C | 68.3% | 313.9hPa | 2.5V | 00:00:00 | 02:47:19 | 00:00:00 | |
| DM0DOS-11 | 2026-08-31 01:05:37 | 49.32616 | 10.78580 | 62° | 141km/h | 9223m | -5.7m/s | -36.6°C | 65.3% | 312.4hPa | 2.4V | 07:56:20 | 02:47:13 | 00:00:00 | |
| DO3MHA-12 | 2026-08-31 01:05:36 | 49.32683 | 10.78771 | 61° | 141km/h | 9200m | -5.9m/s | -36.5°C | 66.8% | 313.4hPa | 2.4V | 00:00:00 | 02:47:17 | 00:00:00 | |
| DF3TZ-5 | 2026-08-31 01:05:33 | 49.32616 | 10.78580 | 62° | 141km/h | 9223m | -5.7m/s | -36.6°C | 60.1% | 312.4hPa | 2.4V | 00:00:00 | 00:00:00 | 00:00:00 | |
| DL1NUX | 2026-08-31 01:05:31 | 49.32536 | 10.78337 | 65° | 139km/h | 9250m | -5.2m/s | -36.8°C | 63% | 311.1hPa | 2.4V | 07:56:25 | 02:47:08 | 00:00:00 | |
| DK7TD | 2026-08-31 01:05:30 | 49.32584 | 10.78483 | 63° | 141km/h | 9234m | -5.6m/s | -36.7°C | 64.4% | 311.8hPa | 2.5V | 07:56:57 | 02:47:11 | 00:00:00 | |
| DB0UT-7 | 2026-08-31 01:05:30 | 49.32584 | 10.78483 | 63° | 139km/h | 9234m | -5.5m/s | -36.7°C | 64.6% | 311.8hPa | 2.5V | 00:00:00 | 02:47:11 | 00:00:00 | |
| SO1NDE-10 | 2026-08-31 01:05:27 | 49.32536 | 10.78336 | 66° | 135km/h | 9250m | -5.2m/s | -36.7°C | 63.0% | 311.1hPa | 2.5V | 00:00:00 | 02:47:08 | 00:00:00 | |
| DO3MHA-12 | 2026-08-31 01:05:26 | 49.32521 | 10.78287 | 65° | 142km/h | 9256m | -5.8m/s | -36.7°C | 62.1% | 310.8hPa | 2.5V | 00:00:00 | 02:47:07 | 00:00:00 | |
| DM0DOS-11 | 2026-08-31 01:05:23 | 49.32430 | 10.77988 | 65° | 141km/h | 9289m | -5.5m/s | -37°C | 61% | 309.4hPa | 2.5V | 07:56:32 | 02:47:01 | 00:00:00 | |
| DL1NUX | 2026-08-31 01:05:21 | 49.32388 | 10.77838 | 67° | 139km/h | 9306m | -5m/s | -37°C | 59.8% | 308.7hPa | 2.4V | 07:56:35 | 02:46:58 | 00:00:00 | |
| DK7TD | 2026-08-31 01:05:19 | 49.32415 | 10.77938 | 67° | 142km/h | 9295m | -5.8m/s | -37°C | 60.5% | 309.1hPa | 2.5V | 07:56:57 | 02:47:00 | 00:00:00 | |
| DM0DOS-11 | 2026-08-31 01:05:13 | 49.32298 | 10.77494 | 68° | 133km/h | 9342m | -5.2m/s | -37.3°C | 58.8% | 307hPa | 2.4V | 07:56:42 | 02:46:51 | 00:00:00 | |
| DF7PN | 2026-08-31 01:05:12 | 49.32322 | 10.77591 | 68° | 135km/h | 9332m | -5.5m/s | -37.2°C | 53.7% | 307.5hPa | 2.4V | 00:00:00 | 00:00:00 | 00:00:00 | |
| DL1NUX | 2026-08-31 01:05:09 | 49.32260 | 10.77353 | 67° | 130km/h | 9358m | -5.6m/s | -37.4°C | 57.3% | 306.2hPa | 2.4V | 07:56:45 | 02:46:48 | 00:00:00 | |
| DK7TD | 2026-08-31 01:05:08 | 49.32272 | 10.77399 | 68° | 130km/h | 9353m | -5.8m/s | -37.4°C | 58.6% | 306.5hPa | 2.5V | 07:56:57 | 02:46:49 | 00:00:00 | |
| DB0NH | 2026-08-31 01:05:08 | 49.32272 | 10.77399 | 68° | 135km/h | 9353m | -5.7m/s | -37.4°C | 58.0% | 306.4hPa | 2.4V | 00:00:00 | 02:46:49 | 00:00:00 | |
| DO3MHA-12 | 2026-08-31 01:05:06 | 49.32247 | 10.77307 | 67° | 128km/h | 9363m | -5.3m/s | -37.4°C | 57.2% | 305.9hPa | 2.4V | 00:00:00 | 02:46:47 | 00:00:00 | |
| DM0DOS-11 | 2026-08-31 01:05:03 | 49.32162 | 10.77040 | 62° | 128km/h | 9397m | -5.9m/s | -37.7°C | 57.6% | 304.5hPa | 2.4V | 07:56:52 | 02:46:41 | 00:00:00 | |
| DF3TZ-5 | 2026-08-31 01:05:02 | 49.32177 | 10.77084 | 62° | 128km/h | 9391m | -6.0m/s | -37.7°C | 52.9% | 304.7hPa | 2.5V | 00:00:00 | 00:00:00 | 00:00:00 | |
| DB0UT-7 | 2026-08-31 01:05:00 | 49.32162 | 10.77040 | 63° | 137km/h | 9397m | -5.9m/s | -37.7°C | 57.6% | 304.5hPa | 2.5V | 00:00:00 | 00:00:00 | 00:00:00 | |
| DL1NUX | 2026-08-31 01:04:59 | 49.32117 | 10.76907 | 62° | 130km/h | 9414m | -6.1m/s | -37.9°C | 57.1% | 303.7hPa | 2.5V | 07:56:55 | 02:46:38 | 00:00:00 | |
| DK7TD | 2026-08-31 01:04:58 | 49.32132 | 10.76952 | 63° | 128km/h | 9408m | -5.9m/s | -37.8°C | 58.8% | 304.1hPa | 2.5V | 07:56:57 | 02:46:39 | 00:00:00 | |
| SO1NDE-10 | 2026-08-31 01:04:57 | 49.32118 | 10.76907 | 63° | 142km/h | 9414m | -6.1m/s | -37.8°C | 57.1% | 303.7hPa | 2.4V | 00:00:00 | 02:46:38 | 00:00:00 | |
| DJ8HS-15 | 2026-08-31 01:04:56 | 49.32102 | 10.76862 | 62° | 142km/h | 9420m | -6.1m/s | -37.8°C | 57.0% | 303.4hPa | 2.4V | 00:00:00 | 02:46:37 | 00:00:00 | |
| DM0DOS-11 | 2026-08-31 01:04:53 | 49.32006 | 10.76592 | 60° | 139km/h | 9454m | -5.6m/s | -38.2°C | 58.4% | 302hPa | 2.4V | 07:57:02 | 02:46:31 | 00:00:00 | |
| SONCRA | 2026-08-31 01:04:52 | 49.32006 | 10.76592 | 60° | 139km/h | 9454m | -5.6m/s | -38.2°C | 53.3% | 302.0hPa | 2.5V | 00:00:00 | 00:00:00 | 00:00:00 | |
| DL1NUX | 2026-08-31 01:04:49 | 49.31954 | 10.76449 | 62° | 144km/h | 9472m | -5.6m/s | -38.3°C | 58.9% | 301.2hPa | 2.5V | 07:57:05 | 02:46:28 | 00:00:00 | |
| DK7TD | 2026-08-31 01:04:47 | 49.31954 | 10.76449 | 62° | 144km/h | 9472m | -5.6m/s | -38.3°C | 60% | 301.3hPa | 2.5V | 07:57:48 | 02:46:28 | 00:00:00 | |
| DO3MHA-12 | 2026-08-31 01:04:46 | 49.31936 | 10.76399 | 62° | 148km/h | 9478m | -5.7m/s | -38.3°C | 59.1% | 301.0hPa | 2.4V | 00:00:00 | 02:46:27 | 00:00:00 | |
| NBG1-10 | 2026-08-31 01:04:44 | 49.31902 | 10.76299 | 63° | 139km/h | 9489m | -5.9m/s | -38.5°C | 59.3% | 300.5hPa | 2.4V | 00:00:00 | 02:46:25 | 00:00:00 | |
| DM0DOS-11 | 2026-08-31 01:04:42 | 49.31837 | 10.76092 | 65° | 148km/h | 9512m | -5.8m/s | -38.7°C | 60.7% | 299.5hPa | 2.4V | 07:57:12 | 02:46:21 | 00:00:00 | |
| DF7PN | 2026-08-31 01:04:41 | 49.31837 | 10.76092 | 65° | 146km/h | 9512m | -5.8m/s | -38.7°C | 55.5% | 299.5hPa | 2.5V | 00:00:00 | 00:00:00 | 00:00:00 | |
| DL1NUX | 2026-08-31 01:04:39 | 49.31793 | 10.75934 | 67° | 146km/h | 9529m | -5.8m/s | -38.9°C | 61.5% | 298.8hPa | 2.5V | 07:57:15 | 02:46:18 | 00:00:00 | |
| DK7TD | 2026-08-31 01:04:36 | 49.31779 | 10.75881 | 68° | 144km/h | 9534m | -5.4m/s | -38.9°C | 62.6% | 298.6hPa | 2.5V | 07:57:48 | 02:46:17 | 00:00:00 | |
| DJ8HS-15 | 2026-08-31 01:04:36 | 49.31779 | 10.75881 | 68° | 137km/h | 9534m | -5.4m/s | -38.9°C | 62.0% | 298.5hPa | 2.5V | 00:00:00 | 02:46:17 | 00:00:00 | |
| DM0DOS-11 | 2026-08-31 01:04:32 | 49.31703 | 10.75569 | 70° | 142km/h | 9567m | -5.8m/s | -39.2°C | 63.4% | 297.2hPa | 2.5V | 07:57:22 | 02:46:11 | 00:00:00 | |
| DF3TZ-5 | 2026-08-31 01:04:31 | 49.31703 | 10.75569 | 70° | 141km/h | 9567m | -5.8m/s | -39.2°C | 58.0% | 297.2hPa | 2.4V | 00:00:00 | 00:00:00 | 00:00:00 | |
| DB0UT-7 | 2026-08-31 01:04:30 | 49.31703 | 10.75569 | 71° | 131km/h | 9567m | -5.8m/s | -39.2°C | 63.4% | 297.2hPa | 2.4V | 07:57:00 | 02:46:11 | 00:00:00 | |
| DL1NUX | 2026-08-31 01:04:29 | 49.31667 | 10.75415 | 70° | 141km/h | 9584m | -5.8m/s | -39.4°C | 64.3% | 296.4hPa | 2.4V | 07:57:25 | 02:46:08 | 00:00:00 | |
| DK7TD | 2026-08-31 01:04:26 | 49.31656 | 10.75365 | 70° | 137km/h | 9589m | -6.4m/s | -39.4°C | 65.3% | 296.1hPa | 2.5V | 07:57:48 | 02:46:07 | 00:00:00 | |
| DO3MHA-12 | 2026-08-31 01:04:26 | 49.31656 | 10.75365 | 71° | 131km/h | 9589m | -6.4m/s | -39.4°C | 64.6% | 296.1hPa | 2.4V | 07:57:00 | 02:46:07 | 00:00:00 | |
| DL1NUX | 2026-08-31 01:04:19 | 49.31546 | 10.74936 | 66° | 130km/h | 9640m | -5.8m/s | -39.9°C | 67.4% | 293.9hPa | 2.4V | 07:57:35 | 02:45:58 | 00:00:00 | |
| DK7TD | 2026-08-31 01:04:15 | 49.31520 | 10.74845 | 66° | 128km/h | 9652m | -6.3m/s | -40°C | 68.2% | 293.4hPa | 2.5V | 07:57:48 | 02:45:56 | 00:00:00 | |
| NBG1-10 | 2026-08-31 01:04:11 | 49.31467 | 10.74664 | 65° | 139km/h | 9676m | -6.1m/s | -40.2°C | 69.3% | 292.3hPa | 2.4V | 00:00:00 | 02:45:52 | 00:00:00 | |
| DF7PN | 2026-08-31 01:04:10 | 49.31438 | 10.74574 | 64° | 130km/h | 9687m | -6.1m/s | -40.3°C | 63.9% | 291.9hPa | 2.4V | 00:00:00 | 00:00:00 | 00:00:00 | |
| DL1NUX | 2026-08-31 01:04:09 | 49.31410 | 10.74482 | 64° | 131km/h | 9699m | -5.7m/s | -40.5°C | 70.3% | 291.4hPa | 2.4V | 07:57:45 | 02:45:48 | 00:00:00 | |
| DK7TD | 2026-08-31 01:04:04 | 49.31366 | 10.74345 | 63° | 133km/h | 9717m | -5.8m/s | -40.6°C | 70.5% | 290.7hPa | 2.5V | 07:57:48 | 02:45:45 | 00:00:00 | |
| DM0DOS-11 | 2026-08-31 01:04:03 | 49.31305 | 10.74161 | 63° | 131km/h | 9739m | -5.9m/s | -40.8°C | 72.2% | 289.7hPa | 2.4V | 07:57:52 | 02:45:41 | 00:00:00 | |
| DF3TZ-5 | 2026-08-31 01:04:00 | 49.31290 | 10.74115 | 63° | 133km/h | 9744m | -5.2m/s | -40.9°C | 66.3% | 289.5hPa | 2.5V | 00:00:00 | 00:00:00 | 00:00:00 | |
| DL1NUX | 2026-08-31 01:03:59 | 49.31260 | 10.74023 | 62° | 135km/h | 9755m | -4.9m/s | -41°C | 72.7% | 289.1hPa | 2.5V | 07:57:55 | 02:45:38 | 00:00:00 | |
| DK7TD | 2026-08-31 01:03:54 | 49.31213 | 10.73883 | 62° | 137km/h | 9770m | -5.5m/s | -41.1°C | 71.7% | 288.3hPa | 2.4V | 07:58:39 | 02:45:35 | 00:00:00 | |
| DM0DOS-11 | 2026-08-31 01:03:53 | 49.31146 | 10.73694 | 62° | 141km/h | 9793m | -5.3m/s | -41.3°C | 72.3% | 287.4hPa | 2.4V | 07:58:02 | 02:45:31 | 00:00:00 | |
| DL1NUX | 2026-08-31 01:03:49 | 49.31098 | 10.73544 | 64° | 148km/h | 9810m | -5.8m/s | -41.4°C | 71.7% | 286.8hPa | 2.5V | 07:58:05 | 02:45:28 | 00:00:00 | |
| SONCRA | 2026-08-31 01:03:44 | 49.31051 | 10.73386 | 65° | 150km/h | 9827m | -6.9m/s | -41.5°C | 65.0% | 286.1hPa | 2.4V | 00:00:00 | 00:00:00 | 00:00:00 | |
| DK7TD | 2026-08-31 01:03:43 | 49.31036 | 10.73333 | 67° | 150km/h | 9834m | -5.6m/s | -41.6°C | 71% | 285.8hPa | 2.4V | 07:58:39 | 02:45:24 | 00:00:00 | |
| DM0DOS-11 | 2026-08-31 01:03:42 | 49.30991 | 10.73171 | 67° | 151km/h | 9851m | -6.2m/s | -41.8°C | 71.6% | 285.1hPa | 2.4V | 07:58:12 | 02:45:21 | 00:00:00 | |
| DL1NUX | 2026-08-31 01:03:39 | 49.30947 | 10.73009 | 66° | 151km/h | 9869m | -6.3m/s | -41.9°C | 70.8% | 284.3hPa | 2.4V | 07:58:15 | 02:45:18 | 00:00:00 | |
| DK7TD | 2026-08-31 01:03:33 | 49.30888 | 10.72791 | 69° | 151km/h | 9892m | -5.7m/s | -42.1°C | 68.8% | 283.3hPa | 2.4V | 07:58:39 | 02:45:14 | 00:00:00 | |
| DJ8HS-15 | 2026-08-31 01:03:33 | 49.30888 | 10.72791 | 69° | 153km/h | 9892m | -5.7m/s | -42.0°C | 68.9% | 283.3hPa | 2.4V | 00:00:00 | 02:45:14 | 00:00:00 | |
| DM0DOS-11 | 2026-08-31 01:03:32 | 49.30844 | 10.72626 | 69° | 153km/h | 9910m | -5.8m/s | -42.2°C | 67% | 282.6hPa | 2.5V | 07:58:22 | 02:45:11 | 00:00:00 | |
| DL1NUX | 2026-08-31 01:03:29 | 49.30803 | 10.72459 | 70° | 153km/h | 9928m | -5.5m/s | -42.3°C | 66.9% | 281.9hPa | 2.4V | 07:58:25 | 02:45:08 | 00:00:00 | |
| DK7TD | 2026-08-31 01:03:23 | 49.30750 | 10.72234 | 70° | 157km/h | 9950m | -5.5m/s | -42.5°C | 67.5% | 281hPa | 2.4V | 07:58:39 | 02:45:04 | 00:00:00 | |
| DM0DOS-11 | 2026-08-31 01:03:23 | 49.30711 | 10.72065 | 70° | 157km/h | 9966m | -5.7m/s | -42.7°C | 67% | 280.3hPa | 2.4V | 07:58:32 | 02:45:01 | 00:00:00 | |
| DL1NUX | 2026-08-31 01:03:19 | 49.30673 | 10.71893 | 71° | 155km/h | 9984m | -5.8m/s | -42.8°C | 65.6% | 279.5hPa | 2.4V | 07:58:35 | 02:44:58 | 00:00:00 | |
| DO3MHA-12 | 2026-08-31 01:03:16 | 49.30660 | 10.71836 | 73° | 150km/h | 9990m | -5.3m/s | -42.8°C | 65.6% | 279.3hPa | 2.4V | 00:00:00 | 02:44:57 | 00:00:00 | |
| DM0DOS-11 | 2026-08-31 01:03:13 | 49.30593 | 10.71499 | 73° | 150km/h | 10023m | -5.7m/s | -43.1°C | 64.7% | 277.9hPa | 2.4V | 07:58:42 | 02:44:51 | 00:00:00 | |
| DK7TD | 2026-08-31 01:03:13 | 49.30626 | 10.71666 | 73° | 151km/h | 10006m | -5.6m/s | -42.9°C | 65.5% | 278.6hPa | 2.5V | 07:58:39 | 02:44:54 | 00:00:00 | |
| DJ8HS-15 | 2026-08-31 01:03:13 | 49.30626 | 10.71666 | 74° | 144km/h | 10006m | -5.6m/s | -42.9°C | 64.9% | 278.6hPa | 2.4V | 00:00:00 | 02:44:54 | 00:00:00 | |
| DF7PN | 2026-08-31 01:03:08 | 49.30561 | 10.71334 | 74° | 146km/h | 10040m | -5.9m/s | -43.2°C | 57.7% | 277.1hPa | 2.4V | 00:00:00 | 00:00:00 | 00:00:00 | |
| DO3MHA-12 | 2026-08-31 01:03:06 | 49.30551 | 10.71280 | 75° | 142km/h | 10047m | -6.0m/s | -43.2°C | 63.7% | 276.9hPa | 2.4V | 07:58:00 | 02:44:47 | 00:00:00 | |
| DL1NUX | 2026-08-31 01:03:04 | 49.30531 | 10.71171 | 74° | 146km/h | 10058m | -5.6m/s | -43.4°C | 63.7% | 276.5hPa | 2.4V | 07:58:48 | 02:44:45 | 00:00:00 | |
| DM0DOS-11 | 2026-08-31 01:03:02 | 49.30489 | 10.70960 | 71° | 141km/h | 10081m | -5.6m/s | -43.5°C | 64.5% | 275.5hPa | 2.4V | 07:58:52 | 02:44:41 | 00:00:00 | |
| DK7TD | 2026-08-31 01:03:02 | 49.30511 | 10.71064 | 73° | 142km/h | 10070m | -5.9m/s | -43.5°C | 64.5% | 0hPa | 2.5V | 07:59:30 | 02:44:43 | 00:00:00 | |
| DL1NUX | 2026-08-31 01:02:59 | 49.30414 | 10.70651 | 68° | 144km/h | 10116m | -6m/s | -43.7°C | 63.3% | 274hPa | 2.4V | 07:58:58 | 02:44:35 | 00:00:00 | |
| SO1NDE-10 | 2026-08-31 01:02:57 | 49.30453 | 10.70806 | 70° | 144km/h | 10098m | -5.9m/s | -43.6°C | 63.8% | 274.8hPa | 2.5V | 00:00:00 | 02:44:38 | 00:00:00 | |
| DM0DOS-11 | 2026-08-31 01:02:55 | 49.30360 | 10.70443 | 67° | 146km/h | 10139m | -6m/s | -43.9°C | 63.3% | 273.1hPa | 2.5V | 07:59:02 | 02:44:31 | 00:00:00 | |
| DK7TD | 2026-08-31 01:02:52 | 49.30387 | 10.70548 | 69° | 146km/h | 10127m | -5.5m/s | -43.8°C | 63.6% | 0hPa | 2.4V | 07:59:30 | 02:44:33 | 00:00:00 | |
| DB0UT-7 | 2026-08-31 01:02:47 | 49.30319 | 10.70285 | 70° | 159km/h | 10157m | -5.6m/s | -44.0°C | 63.6% | 272.4hPa | 2.4V | 00:00:00 | 00:00:00 | 00:00:00 | |
| DO3MHA-12 | 2026-08-31 01:02:46 | 49.30306 | 10.70232 | 70° | 146km/h | 10162m | -6.1m/s | -44.0°C | 63.4% | 272.1hPa | 2.4V | 00:00:00 | 02:44:27 | 00:00:00 | |
| DM0DOS-11 | 2026-08-31 01:02:45 | 49.30235 | 10.69912 | 70° | 146km/h | 10196m | -5.9m/s | -44.3°C | 62.3% | 270.8hPa | 2.5V | 07:59:12 | 02:44:21 | 00:00:00 | |
| DL1NUX | 2026-08-31 01:02:44 | 49.30247 | 10.69966 | 71° | 146km/h | 10191m | -6.2m/s | -44.3°C | 62.7% | 271hPa | 2.4V | 07:59:11 | 02:44:22 | 00:00:00 | |
| DK7TD | 2026-08-31 01:02:42 | 49.30259 | 10.70019 | 72° | 146km/h | 10185m | -6m/s | -44.3°C | 63.3% | 0hPa | 2.4V | 07:59:30 | 02:44:23 | 00:00:00 | |
| DB0NH | 2026-08-31 01:02:38 | 49.30210 | 10.69805 | 70° | 162km/h | 10209m | -5.8m/s | -44.3°C | 61.6% | 270.2hPa | 2.4V | 00:00:00 | 02:44:19 | 00:00:00 | |
| DO3MHA-12 | 2026-08-31 01:02:36 | 49.30183 | 10.69699 | 69° | 153km/h | 10221m | -6.3m/s | -44.4°C | 60.6% | 269.7hPa | 2.4V | 00:00:00 | 02:44:17 | 00:00:00 | |
| DM0DOS-11 | 2026-08-31 01:02:35 | 49.30096 | 10.69376 | 67° | 157km/h | 10256m | -5.9m/s | -44.6°C | 57.1% | 268.3hPa | 2.4V | 07:59:22 | 02:44:11 | 00:00:00 | |
| DK7TD | 2026-08-31 01:02:31 | 49.30112 | 10.69431 | 67° | 153km/h | 10250m | -5.7m/s | -44.6°C | 58.6% | 0hPa | 2.4V | 07:59:30 | 02:44:12 | 00:00:00 | |
| DL1NUX | 2026-08-31 01:02:29 | 49.30049 | 10.69205 | 66° | 161km/h | 10275m | -5.7m/s | -44.7°C | 55.5% | 267.6hPa | 2.5V | 07:59:25 | 02:44:08 | 00:00:00 | |
| DF3TZ-5 | 2026-08-31 01:02:27 | 49.30033 | 10.69148 | 67° | 162km/h | 10280m | -5.7m/s | -44.8°C | 49.2% | 267.4hPa | 2.4V | 00:00:00 | 00:00:00 | 00:00:00 | |
| DO3MHA-12 | 2026-08-31 01:02:26 | 49.30033 | 10.69148 | 68° | 168km/h | 10280m | -5.7m/s | -44.7°C | 55.2% | 267.4hPa | 2.4V | 00:00:00 | 02:44:07 | 00:00:00 | |
| DM0DOS-11 | 2026-08-31 01:02:24 | 49.29937 | 10.68790 | 67° | 168km/h | 10314m | -5.7m/s | -45°C | 52.9% | 266.1hPa | 2.4V | 07:59:32 | 02:44:01 | 00:00:00 | |
| DK7TD | 2026-08-31 01:02:21 | 49.29953 | 10.68850 | 68° | 168km/h | 10309m | -5.8m/s | 0°C | 0% | 0hPa | 2.5V | 18:12:15 | 02:44:02 | 00:00:00 | |
| DL1NUX | 2026-08-31 01:02:16 | 49.29799 | 10.68231 | 72° | 170km/h | 10367m | -5.6m/s | -45.4°C | 54.4% | 264hPa | 2.5V | 07:59:41 | 02:43:52 | 00:00:00 | |
| DB0UT-7 | 2026-08-31 01:02:16 | 49.29873 | 10.68545 | 69° | 161km/h | 10338m | -5.9m/s | -45.1°C | 52.0% | 265.1hPa | 2.5V | 00:00:00 | 02:43:57 | 00:00:00 | |
| DM0DOS-11 | 2026-08-31 01:02:13 | 49.29787 | 10.68169 | 73° | 170km/h | 10372m | -5.8m/s | -45.4°C | 54.9% | 263.7hPa | 2.5V | 07:59:42 | 02:43:51 | 00:00:00 | |
| SONCRA | 2026-08-31 01:02:11 | 49.29799 | 10.68231 | 72° | 170km/h | 10367m | -5.6m/s | -45.4°C | 48.4% | 264.0hPa | 2.4V | 00:00:00 | 00:00:00 | 00:00:00 | |
| DB0NH | 2026-08-31 01:02:08 | 49.29762 | 10.68043 | 74° | 157km/h | 10384m | -5.8m/s | -45.5°C | 57.0% | 263.3hPa | 2.4V | 00:00:00 | 02:43:49 | 00:00:00 | |
| DO3MHA-12 | 2026-08-31 01:02:06 | 49.29739 | 10.67919 | 75° | 161km/h | 10395m | -5.6m/s | -45.6°C | 59.9% | 262.8hPa | 2.4V | 00:00:00 | 02:43:47 | 00:00:00 | |
| DF7PN | 2026-08-31 01:02:05 | 49.29727 | 10.67858 | 74° | 164km/h | 10401m | -6.1m/s | -45.7°C | 55.3% | 262.6hPa | 2.4V | 00:00:00 | 00:00:00 | 00:00:00 | |
| DM0DOS-11 | 2026-08-31 01:02:02 | 49.29673 | 10.67553 | 74° | 162km/h | 10429m | -5.8m/s | -45.9°C | 69.2% | 261.5hPa | 2.4V | 07:59:52 | 02:43:41 | 00:00:00 | |
| NBG1-10 | 2026-08-31 01:01:59 | 49.29662 | 10.67493 | 75° | 161km/h | 10435m | -6.1m/s | -45.9°C | 70.9% | 261.2hPa | 2.4V | 00:00:00 | 02:43:40 | 00:00:00 | |
| DM0DOS-11 | 2026-08-31 01:01:56 | 49.29558 | 10.66984 | 71° | 150km/h | 10486m | -5.8m/s | -46.5°C | 72.2% | 259.2hPa | 2.4V | 08:00:02 | 02:43:31 | 00:00:00 | |
| DF3TZ-5 | 2026-08-31 01:01:55 | 49.29617 | 10.67262 | 72° | 153km/h | 10457m | -5.9m/s | -46.2°C | 66.2% | 260.4hPa | 2.4V | 00:00:00 | 00:00:00 | 00:00:00 | |
| DL6DJ-15 | 2026-08-31 01:01:53 | 49.29583 | 10.67094 | 71° | 151km/h | 10474m | -6.2m/s | -46.4°C | 65.6% | 259.7hPa | 2.4V | 00:00:00 | 00:00:00 | 00:00:00 | |
| DB0UT-7 | 2026-08-31 01:01:46 | 49.29506 | 10.66764 | 69° | 151km/h | 10510m | -6.3m/s | -46.6°C | 68.0% | 258.2hPa | 2.4V | 00:00:00 | 00:00:00 | 00:00:00 | |
| DJTTGO | 2026-08-31 01:01:44 | 49.29491 | 10.66709 | 69° | 153km/h | 10517m | -6.4m/s | -46.7°C | 58.8% | 258.1hPa | 2.4V | 00:00:00 | 00:00:00 | 00:00:00 | |
| DM0DOS-11 | 2026-08-31 01:01:43 | 49.29413 | 10.66428 | 67° | 162km/h | 10547m | -5.9m/s | -46.9°C | 58% | 257hPa | 2.4V | 08:00:12 | 02:43:21 | 00:00:00 | |
| SONCRA | 2026-08-31 01:01:40 | 49.29413 | 10.66428 | 67° | 162km/h | 10547m | -5.9m/s | -46.9°C | 51.4% | 257.0hPa | 2.5V | 00:00:00 | 00:00:00 | 00:00:00 | |
| DB0NH | 2026-08-31 01:01:38 | 49.29381 | 10.66309 | 69° | 168km/h | 10559m | -5.9m/s | -46.9°C | 57.0% | 256.4hPa | 2.5V | 00:00:00 | 02:43:19 | 00:00:00 | |
| DF7PN | 2026-08-31 01:01:34 | 49.29321 | 10.66064 | 71° | 170km/h | 10582m | -5.5m/s | -47.1°C | 54.5% | 255.7hPa | 2.5V | 00:00:00 | 00:00:00 | 00:00:00 | |
| DM0DOS-11 | 2026-08-31 01:01:33 | 49.29268 | 10.65813 | 72° | 170km/h | 10606m | -5.5m/s | -47.1°C | 64.5% | 254.7hPa | 2.5V | 08:00:22 | 02:43:11 | 00:00:00 | |
| DO3MHA-12 | 2026-08-31 01:01:26 | 49.29216 | 10.65561 | 73° | 168km/h | 10629m | -6.0m/s | -47.3°C | 66.0% | 253.7hPa | 2.5V | 00:00:00 | 02:43:07 | 00:00:00 | |
| DF3TZ-5 | 2026-08-31 01:01:24 | 49.29191 | 10.65436 | 73° | 168km/h | 10641m | -5.9m/s | -47.4°C | 59.9% | 253.4hPa | 2.5V | 00:00:00 | 00:00:00 | 00:00:00 | |
| OE5DXL-15 | 2026-08-31 01:01:23 | 49.29179 | 10.65373 | 74° | 161km/h | 10646m | -5.7m/s | -47.4°C | 67.6% | 253.2hPa | 2.5V | 08:00:00 | 00:00:00 | 00:00:00 | |
| DM0DOS-11 | 2026-08-31 01:01:21 | 49.29145 | 10.65184 | 74° | 168km/h | 10664m | -5.8m/s | -47.6°C | 68.5% | 252.5hPa | 2.4V | 08:00:32 | 02:43:01 | 00:00:00 | |
| DO3MHA-12 | 2026-08-31 01:01:16 | 49.29099 | 10.64934 | 75° | 166km/h | 10688m | -5.9m/s | -47.8°C | 67.9% | 251.6hPa | 2.4V | 08:00:00 | 02:42:57 | 00:00:00 | |
| DL1NUX | 2026-08-31 01:01:13 | 49.29036 | 10.64558 | 76° | 164km/h | 10724m | -6.3m/s | -48.1°C | 62.5% | 250.2hPa | 2.4V | 08:00:42 | 02:42:51 | 00:00:00 | |
| DM0DOS-11 | 2026-08-31 01:01:11 | 49.28998 | 10.64314 | 77° | 159km/h | 10748m | -5.9m/s | -48.2°C | 60.4% | 249.4hPa | 2.5V | 08:00:46 | 02:42:47 | 00:00:00 | |
| SONCRA | 2026-08-31 01:01:09 | 49.29026 | 10.64496 | 76° | 162km/h | 10730m | -6.1m/s | -48.1°C | 54.4% | 250.0hPa | 2.4V | 00:00:00 | 00:00:00 | 00:00:00 | |
| DB0NH | 2026-08-31 01:01:08 | 49.29016 | 10.64434 | 77° | 153km/h | 10737m | -6.1m/s | -48.1°C | 60.7% | 249.8hPa | 2.4V | 00:00:00 | 02:42:49 | 00:00:00 | |
| DO3MHA-12 | 2026-08-31 01:01:06 | 49.28998 | 10.64314 | 78° | 153km/h | 10748m | -5.9m/s | -48.2°C | 60.4% | 249.3hPa | 2.4V | 00:00:00 | 02:42:47 | 00:00:00 | |
| DL1NUX | 2026-08-31 01:01:03 | 49.28935 | 10.63909 | 75° | 151km/h | 10790m | -6m/s | -48.5°C | 58.2% | 247.9hPa | 2.4V | 08:00:53 | 02:42:40 | 00:00:00 | |
| DM0DOS-11 | 2026-08-31 01:00:59 | 49.28905 | 10.63742 | 73° | 148km/h | 10808m | -6m/s | -48.6°C | 58.2% | 247.2hPa | 2.4V | 08:00:56 | 02:42:37 | 00:00:00 | |
| DO3MHA-12 | 2026-08-31 01:00:56 | 49.28905 | 10.63742 | 74° | 150km/h | 10808m | -6.0m/s | -48.6°C | 58.2% | 247.2hPa | 2.5V | 00:00:00 | 02:42:37 | 00:00:00 | |
| SO1NDE-10 | 2026-08-31 01:00:54 | 49.28884 | 10.63632 | 74° | 155km/h | 10820m | -5.8m/s | -48.6°C | 57.8% | 246.7hPa | 2.5V | 00:00:00 | 02:42:35 | 00:00:00 | |
| DL1NUX | 2026-08-31 01:00:53 | 49.28826 | 10.63357 | 71° | 150km/h | 10849m | -5.9m/s | -48.8°C | 59.2% | 245.6hPa | 2.5V | 08:01:03 | 02:42:30 | 00:00:00 | |
| DL6DJ-15 | 2026-08-31 01:00:50 | 49.28838 | 10.63412 | 71° | 148km/h | 10843m | -6.0m/s | -48.8°C | 51.7% | 245.9hPa | 2.4V | 00:00:00 | 00:00:00 | 00:00:00 | |
| DO3MHA-12 | 2026-08-31 01:00:46 | 49.28788 | 10.63192 | 71° | 157km/h | 10867m | -5.9m/s | -48.9°C | 62.5% | 244.9hPa | 2.4V | 00:00:00 | 02:42:27 | 00:00:00 | |
| DM0DOS-11 | 2026-08-31 01:00:44 | 49.28693 | 10.62794 | 69° | 161km/h | 10908m | -5.9m/s | -49.2°C | 66.8% | 243.4hPa | 2.4V | 08:01:13 | 02:42:20 | 00:00:00 | |
| DJTTGO | 2026-08-31 01:00:42 | 49.28748 | 10.63023 | 71° | 155km/h | 10884m | -5.9m/s | -49.0°C | 57.3% | 244.3hPa | 2.4V | 08:01:00 | 00:00:00 | 00:00:00 | |
| DB0ND-19 | 2026-08-31 01:00:41 | 49.28707 | 10.62852 | 69° | 159km/h | 10902m | -5.9m/s | -49.2°C | 59.0% | 243.6hPa | 2.4V | 00:00:00 | 00:00:00 | 00:00:00 | |
| DB0NH | 2026-08-31 01:00:38 | 49.28678 | 10.62736 | 70° | 168km/h | 10914m | -5.9m/s | -49.2°C | 66.9% | 243.2hPa | 2.4V | 00:00:00 | 02:42:19 | 00:00:00 | |
| DO3MHA-12 | 2026-08-31 01:00:36 | 49.28650 | 10.62620 | 70° | 166km/h | 10926m | -5.8m/s | -49.2°C | 67.0% | 242.7hPa | 2.4V | 00:00:00 | 02:42:17 | 00:00:00 | |
| DM0DOS-11 | 2026-08-31 01:00:34 | 49.28551 | 10.62198 | 72° | 170km/h | 10967m | -5.9m/s | -49.5°C | 67.4% | 241.2hPa | 2.4V | 08:01:23 | 02:42:10 | 00:00:00 | |
| DL1NUX | 2026-08-31 01:00:33 | 49.28579 | 10.62321 | 70° | 166km/h | 10955m | -5.9m/s | -49.5°C | 68.2% | 241.6hPa | 2.5V | 08:01:21 | 02:42:12 | 00:00:00 | |
| DF7PN | 2026-08-31 01:00:32 | 49.28592 | 10.62382 | 70° | 164km/h | 10949m | -5.7m/s | -49.4°C | 60.4% | 241.9hPa | 2.5V | 00:00:00 | 00:00:00 | 00:00:00 | |
| DO3MHA-12 | 2026-08-31 01:00:26 | 49.28513 | 10.62010 | 74° | 170km/h | 10985m | -5.9m/s | -49.6°C | 66.5% | 240.5hPa | 2.5V | 00:00:00 | 02:42:07 | 00:00:00 | |
| SO1NDE-10 | 2026-08-31 01:00:24 | 49.28488 | 10.61884 | 74° | 164km/h | 10997m | -5.7m/s | -49.7°C | 66.1% | 240.1hPa | 2.5V | 00:00:00 | 02:42:05 | 00:00:00 | |
| DM0DOS-11 | 2026-08-31 01:00:23 | 49.28426 | 10.61570 | 73° | 170km/h | 11027m | -5.8m/s | -49.9°C | 64.6% | 239hPa | 2.5V | 08:01:33 | 02:42:00 | 00:00:00 | |
| OE5DXL-15 | 2026-08-31 01:00:23 | 49.28476 | 10.61821 | 74° | 170km/h | 11003m | -6.0m/s | -49.7°C | 65.6% | 239.9hPa | 2.4V | 00:00:00 | 00:00:00 | 00:00:00 | |
| DB0UT-7 | 2026-08-31 01:00:22 | 49.28463 | 10.61759 | 74° | 170km/h | 11009m | -6.1m/s | -49.8°C | 65.0% | 239.6hPa | 2.4V | 00:00:00 | 00:00:00 | 00:00:00 | |
| DL6DJ-15 | 2026-08-31 01:00:20 | 49.28426 | 10.61570 | 73° | 170km/h | 11027m | -5.9m/s | -49.9°C | 57.0% | 239.1hPa | 2.4V | 00:00:00 | 00:00:00 | 00:00:00 | |
| DL1NUX | 2026-08-31 01:00:18 | 49.28403 | 10.61443 | 74° | 170km/h | 11039m | -6.1m/s | -50°C | 64.5% | 238.6hPa | 2.4V | 08:01:35 | 02:41:58 | 00:00:00 | |
| DO3MHA-12 | 2026-08-31 01:00:16 | 49.28391 | 10.61380 | 75° | 170km/h | 11045m | -6.0m/s | -50.0°C | 64.4% | 238.3hPa | 2.4V | 00:00:00 | 02:41:57 | 00:00:00 | |
| DB0NH | 2026-08-31 01:00:08 | 49.28304 | 10.60873 | 75° | 172km/h | 11094m | -6.0m/s | -50.4°C | 63.5% | 236.6hPa | 2.4V | 00:00:00 | 02:41:49 | 00:00:00 | |
| SONCRA | 2026-08-31 01:00:07 | 49.28293 | 10.60810 | 74° | 170km/h | 11100m | -6.0m/s | -50.5°C | 55.9% | 236.4hPa | 2.4V | 00:00:00 | 00:00:00 | 00:00:00 | |
| DM0DOS-11 | 2026-08-31 01:00:06 | 49.28248 | 10.60555 | 74° | 172km/h | 11124m | -5.8m/s | -50.7°C | 62.6% | 235.6hPa | 2.4V | 08:01:49 | 02:41:44 | 00:00:00 | |
| DO3MHA-12 | 2026-08-31 01:00:06 | 49.28282 | 10.60746 | 76° | 172km/h | 11106m | -5.9m/s | -50.5°C | 63.3% | 236.1hPa | 2.4V | 00:00:00 | 02:41:47 | 00:00:00 | |
| DF7PN | 2026-08-31 01:00:01 | 49.28224 | 10.60428 | 74° | 170km/h | 11135m | -6.0m/s | -50.8°C | 54.2% | 235.1hPa | 2.4V | 00:00:00 | 00:00:00 | 00:00:00 | |
| DM0DOS-11 | 2026-08-31 00:59:56 | 49.28133 | 10.59918 | 74° | 172km/h | 11183m | -6m/s | -51.1°C | 58.3% | 233.3hPa | 2.4V | 08:01:59 | 02:41:34 | 00:00:00 | |
| DF3TZ-5 | 2026-08-31 00:59:51 | 49.28110 | 10.59790 | 74° | 170km/h | 11195m | -5.9m/s | -51.2°C | 49.6% | 233.0hPa | 2.4V | 00:00:00 | 00:00:00 | 00:00:00 | |
| DL6DJ-15 | 2026-08-31 00:59:48 | 49.28075 | 10.59599 | 74° | 172km/h | 11213m | -6.1m/s | -51.2°C | 47.7% | 232.3hPa | 2.4V | 00:00:00 | 00:00:00 | 00:00:00 | |
| NBG1-10 | 2026-08-31 00:59:47 | 49.28063 | 10.59535 | 75° | 164km/h | 11220m | -6.0m/s | -51.2°C | 54.6% | 232.0hPa | 2.4V | 00:00:00 | 02:41:28 | 00:00:00 | |
| DM0DOS-11 | 2026-08-31 00:59:46 | 49.28016 | 10.59280 | 74° | 172km/h | 11244m | -6.2m/s | -51.4°C | 52.8% | 231.2hPa | 2.5V | 08:02:09 | 02:41:24 | 00:00:00 | |
| DO3MHA-12 | 2026-08-31 00:59:46 | 49.28051 | 10.59471 | 74° | 172km/h | 11226m | -6.1m/s | -51.3°C | 54.2% | 231.8hPa | 2.4V | 08:02:00 | 02:41:27 | 00:00:00 | |
| DJ8HS-15 | 2026-08-31 00:59:45 | 49.28039 | 10.59407 | 75° | 168km/h | 11232m | -6.2m/s | -51.3°C | 53.8% | 231.6hPa | 2.4V | 00:00:00 | 02:41:26 | 00:00:00 | |
| DB0ND-19 | 2026-08-31 00:59:39 | 49.27962 | 10.58960 | 76° | 170km/h | 11275m | -6.1m/s | -51.5°C | 43.8% | 230.2hPa | 2.5V | 00:00:00 | 00:00:00 | 00:00:00 | |
| DB0NH | 2026-08-31 00:59:38 | 49.27962 | 10.58960 | 77° | 159km/h | 11275m | -6.1m/s | -51.5°C | 50.8% | 230.1hPa | 2.5V | 00:00:00 | 02:41:19 | 00:00:00 | |
| DO3MHA-12 | 2026-08-31 00:59:36 | 49.27943 | 10.58832 | 78° | 166km/h | 11287m | -5.9m/s | -51.5°C | 49.7% | 229.6hPa | 2.5V | 00:00:00 | 02:41:17 | 00:00:00 | |
| DM0DOS-11 | 2026-08-31 00:59:33 | 49.27897 | 10.58515 | 78° | 166km/h | 11318m | -6.1m/s | -51.6°C | 47.2% | 228.6hPa | 2.5V | 08:02:21 | 02:41:12 | 00:00:00 | |
| DF7PN | 2026-08-31 00:59:30 | 49.27888 | 10.58452 | 77° | 164km/h | 11324m | -6.3m/s | -51.7°C | 40.0% | 228.3hPa | 2.4V | 00:00:00 | 00:00:00 | 00:00:00 | |
| DJ8HS-15 | 2026-08-31 00:59:25 | 49.27848 | 10.58145 | 79° | 153km/h | 11355m | -6.2m/s | -51.7°C | 44.0% | 227.3hPa | 2.4V | 00:00:00 | 02:41:06 | 00:00:00 | |
| DM0DOS-11 | 2026-08-31 00:59:23 | 49.27817 | 10.57907 | 78° | 155km/h | 11380m | -6.1m/s | -52°C | 42.4% | 226.4hPa | 2.4V | 08:02:31 | 02:41:02 | 00:00:00 | |
| OE5DXL-15 | 2026-08-31 00:59:23 | 49.27832 | 10.58025 | 79° | 159km/h | 11368m | -6.1m/s | -51.8°C | 43.1% | 226.8hPa | 2.4V | 00:00:00 | 00:00:00 | 00:00:00 | |
| DF3TZ-5 | 2026-08-31 00:59:20 | 49.27809 | 10.57849 | 77° | 153km/h | 11386m | -6.4m/s | -52.0°C | 35.5% | 226.2hPa | 2.4V | 00:00:00 | 00:00:00 | 00:00:00 | |
| DL6DJ-15 | 2026-08-31 00:59:18 | 49.27783 | 10.57676 | 76° | 151km/h | 11405m | -6.3m/s | -52.1°C | 34.5% | 225.6hPa | 2.4V | 00:00:00 | 00:00:00 | 00:00:00 | |
| DO3MHA-12 | 2026-08-31 00:59:16 | 49.27775 | 10.57619 | 77° | 151km/h | 11411m | -6.3m/s | -52.1°C | 40.5% | 225.3hPa | 2.4V | 00:00:00 | 02:40:57 | 00:00:00 | |
| NBG1-10 | 2026-08-31 00:59:14 | 49.27756 | 10.57506 | 77° | 162km/h | 11424m | -6.3m/s | -52.2°C | 39.9% | 224.9hPa | 2.5V | 00:00:00 | 02:40:55 | 00:00:00 | |
| DB0NH | 2026-08-31 00:59:08 | 49.27695 | 10.57169 | 74° | 164km/h | 11461m | -6.0m/s | -52.3°C | 40.4% | 223.6hPa | 2.5V | 00:00:00 | 02:40:49 | 00:00:00 | |
| DB0ND-19 | 2026-08-31 00:59:07 | 49.27683 | 10.57112 | 72° | 153km/h | 11467m | -6.1m/s | -52.4°C | 34.4% | 223.4hPa | 2.5V | 00:00:00 | 00:00:00 | 00:00:00 | |
| DO3MHA-12 | 2026-08-31 00:59:06 | 49.27671 | 10.57055 | 73° | 162km/h | 11473m | -6.1m/s | -52.4°C | 41.2% | 223.2hPa | 2.5V | 00:00:00 | 02:40:47 | 00:00:00 | |
| DJ8HS-15 | 2026-08-31 00:59:05 | 49.27659 | 10.56998 | 72° | 166km/h | 11480m | -6.4m/s | -52.4°C | 41.9% | 222.9hPa | 2.5V | 00:00:00 | 02:40:46 | 00:00:00 | |
| DM0DOS-11 | 2026-08-31 00:59:03 | 49.27597 | 10.56701 | 72° | 166km/h | 11511m | -6.4m/s | -52.6°C | 43.5% | 221.9hPa | 2.5V | 08:02:52 | 02:40:41 | 00:00:00 | |
| DK7TD | 2026-08-31 00:58:56 | 49.27547 | 10.56451 | 74° | 170km/h | 11536m | -6.5m/s | -52.7°C | 43.9% | 221hPa | 2.4V | 08:03:45 | 02:40:37 | 00:00:00 | |
| DK7TD | 2026-08-31 00:58:45 | 49.27443 | 10.55758 | 79° | 162km/h | 11605m | -6.4m/s | -53.1°C | 40.7% | 218.7hPa | 2.4V | 08:03:45 | 02:40:26 | 00:00:00 | |
| DK7TD | 2026-08-31 00:58:34 | 49.27347 | 10.55069 | 78° | 164km/h | 11676m | -6.5m/s | -53.5°C | 39.6% | 216.3hPa | 2.4V | 08:03:45 | 02:40:15 | 00:00:00 | |
| BIOWL1-15 | 2026-08-31 00:58:32 | 49.27331 | 10.54945 | 79° | 164km/h | 11689m | -6.4m/s | 0°C | 0% | 0hPa | 2.4V | 08:04:36 | 02:40:13 | 00:00:00 | |
| DK7TD | 2026-08-31 00:58:23 | 49.27262 | 10.54398 | 79° | 153km/h | 11747m | -6.5m/s | -53.9°C | 35.6% | 213.9hPa | 2.4V | 08:03:45 | 02:40:04 | 00:00:00 | |
| DK7TD | 2026-08-31 00:58:12 | 49.27165 | 10.53774 | 75° | 151km/h | 11819m | -6.6m/s | -54.2°C | 33.2% | 211.5hPa | 2.5V | 08:03:45 | 02:39:53 | 00:00:00 | |
| DM0DOS-11 | 2026-08-31 00:58:08 | 49.27115 | 10.53493 | 75° | 150km/h | 11851m | -6.8m/s | -54.3°C | 32% | 210.4hPa | 2.5V | 08:03:45 | 02:39:48 | 00:00:00 | |
| DK7TD | 2026-08-31 00:58:01 | 49.27055 | 10.53160 | 74° | 150km/h | 11892m | -6.8m/s | -54.4°C | 32.2% | 209hPa | 2.5V | 08:04:36 | 02:39:42 | 00:00:00 | |
| DM0DOS-11 | 2026-08-31 00:57:58 | 49.27010 | 10.52937 | 72° | 151km/h | 11919m | -6.8m/s | -54.4°C | 30.7% | 208.2hPa | 2.4V | 08:03:55 | 02:39:38 | 00:00:00 | |
| DK7TD | 2026-08-31 00:57:50 | 49.26926 | 10.52539 | 72° | 157km/h | 11966m | -6.7m/s | -54.6°C | 32.1% | 206.7hPa | 2.4V | 08:04:36 | 02:39:31 | 00:00:00 | |
| DM0DOS-11 | 2026-08-31 00:57:48 | 49.26889 | 10.52366 | 71° | 157km/h | 11987m | -6.8m/s | -54.6°C | 30.6% | 206.1hPa | 2.4V | 08:04:05 | 02:39:28 | 00:00:00 | |
| DF3TZ-5 | 2026-08-31 00:57:47 | 49.26889 | 10.52366 | 71° | 157km/h | 11987m | -6.8m/s | -54.6°C | 24.7% | 206.1hPa | 2.4V | 00:00:00 | 00:00:00 | 00:00:00 | |
| DJ8HS-15 | 2026-08-31 00:57:45 | 49.26864 | 10.52250 | 72° | 164km/h | 12000m | -6.7m/s | -54.6°C | 30.4% | 205.6hPa | 2.4V | 00:00:00 | 02:39:26 | 00:00:00 | |
| DO3MHA-12 | 2026-08-31 00:57:44 | 49.26851 | 10.52191 | 72° | 164km/h | 12007m | -6.6m/s | -54.7°C | 30.4% | 205.3hPa | 2.5V | 00:00:00 | 02:39:25 | 00:00:00 | |
| DM0DOS-11 | 2026-08-31 00:57:43 | 49.26764 | 10.51770 | 73° | 164km/h | 12055m | -6.7m/s | -55°C | 30.5% | 203.8hPa | 2.5V | 08:04:15 | 02:39:18 | 00:00:00 | |
| DL1NUX | 2026-08-31 00:57:42 | 49.26776 | 10.51832 | 73° | 164km/h | 12048m | -6.9m/s | -55°C | 30.6% | 204.1hPa | 2.4V | 08:04:14 | 02:39:19 | 00:00:00 | |
| DK7TD | 2026-08-31 00:57:39 | 49.26788 | 10.51892 | 73° | 164km/h | 12041m | -6.8m/s | -55°C | 31.4% | 204.3hPa | 2.4V | 08:04:36 | 02:39:20 | 00:00:00 | |
| BIOWL1-15 | 2026-08-31 00:57:35 | 49.26707 | 10.51463 | 74° | 166km/h | 12089m | -6.9m/s | 0°C | 0% | 0hPa | 2.4V | 08:04:36 | 02:39:13 | 00:00:00 | |
| DK7TD | 2026-08-31 00:57:29 | 49.26673 | 10.51277 | 74° | 166km/h | 12110m | -7m/s | -55.3°C | 30.4% | 202.1hPa | 2.4V | 08:04:36 | 02:39:10 | 00:00:00 | |
| DM0DOS-11 | 2026-08-31 00:57:27 | 49.26596 | 10.50843 | 76° | 164km/h | 12158m | -6.9m/s | -55.4°C | 27.9% | 200.6hPa | 2.4V | 08:04:30 | 02:39:03 | 00:00:00 | |
| BIOWL1-15 | 2026-08-31 00:57:21 | 49.26541 | 10.50472 | 78° | 164km/h | 12200m | -6.9m/s | 0°C | 0% | 0hPa | 2.4V | 08:04:36 | 02:38:57 | 00:00:00 | |
| DK7TD | 2026-08-31 00:57:19 | 49.26559 | 10.50596 | 78° | 162km/h | 12186m | -7.1m/s | -55.4°C | 27.9% | 199.7hPa | 2.5V | 08:04:36 | 02:38:59 | 00:00:00 | |
| DM0DOS-11 | 2026-08-31 00:57:17 | 49.26506 | 10.50224 | 77° | 164km/h | 12229m | -7.3m/s | -55.5°C | 25.8% | 198.3hPa | 2.5V | 08:04:40 | 02:38:53 | 00:00:00 | |
| DL1NUX | 2026-08-31 00:57:17 | 49.26524 | 10.50348 | 77° | 164km/h | 12214m | -7.2m/s | -55.5°C | 26.2% | 198.8hPa | 2.5V | 08:04:38 | 02:38:55 | 00:00:00 | |
| BIOWL1-15 | 2026-08-31 00:57:10 | 49.26473 | 10.49977 | 79° | 161km/h | 12258m | -7m/s | 0°C | 0% | 0hPa | 2.4V | 18:12:15 | 02:38:49 | 00:00:00 | |
| DK7TD | 2026-08-31 00:57:08 | 49.26466 | 10.49916 | 80° | 159km/h | 12265m | -7.1m/s | -55.6°C | 26.4% | 197.3hPa | 2.5V | 08:05:27 | 02:38:48 | 00:00:00 | |
| DL1NUX | 2026-08-31 00:57:07 | 49.26445 | 10.49739 | 79° | 153km/h | 12286m | -7.1m/s | -55.7°C | 25.4% | 196.6hPa | 2.4V | 08:04:48 | 02:38:45 | 00:00:00 | |
| DM0DOS-11 | 2026-08-31 00:57:07 | 49.26431 | 10.49622 | 79° | 153km/h | 12300m | -7.3m/s | -55.9°C | 25.5% | 196.2hPa | 2.4V | 08:04:50 | 02:38:43 | 00:00:00 | |
| DK7TD | 2026-08-31 00:56:57 | 49.26396 | 10.49330 | 79° | 153km/h | 12336m | -7.1m/s | -56.1°C | 26.4% | 195.1hPa | 2.4V | 08:05:27 | 02:38:38 | 00:00:00 | |
| DL1NUX | 2026-08-31 00:56:57 | 49.26374 | 10.49156 | 79° | 153km/h | 12358m | -7.3m/s | -56.3°C | 25.6% | 194.4hPa | 2.5V | 08:04:58 | 02:38:35 | 00:00:00 | |
| DF7PN | 2026-08-31 00:56:55 | 49.26374 | 10.49156 | 79° | 151km/h | 12358m | -7.3m/s | -56.3°C | 19.9% | 194.4hPa | 2.4V | 00:00:00 | 00:00:00 | 00:00:00 | |
| DO3MHA-12 | 2026-08-31 00:56:54 | 49.26374 | 10.49156 | 80° | 155km/h | 12358m | -7.3m/s | -56.3°C | 25.6% | 194.3hPa | 2.4V | 00:00:00 | 02:38:35 | 00:00:00 | |
| DM0DOS-11 | 2026-08-31 00:56:53 | 49.26359 | 10.49039 | 78° | 155km/h | 12372m | -7.2m/s | -56.4°C | 25.6% | 194hPa | 2.4V | 08:05:00 | 02:38:33 | 00:00:00 | |
| DK7TD | 2026-08-31 00:56:47 | 49.26321 | 10.48744 | 78° | 155km/h | 12408m | -7.3m/s | -56.6°C | 26% | 192.9hPa | 2.4V | 08:05:27 | 02:38:28 | 00:00:00 | |
| DL1NUX | 2026-08-31 00:56:47 | 49.26289 | 10.48511 | 78° | 153km/h | 12437m | -7.2m/s | -56.7°C | 25.1% | 192hPa | 2.5V | 08:05:09 | 02:38:24 | 00:00:00 | |
| DK7TD | 2026-08-31 00:56:37 | 49.26242 | 10.48165 | 78° | 151km/h | 12480m | -7.3m/s | -56.8°C | 25% | 190.7hPa | 2.5V | 08:05:27 | 02:38:18 | 00:00:00 | |
| DB0UT-7 | 2026-08-31 00:56:37 | 49.26242 | 10.48165 | 78° | 155km/h | 12480m | -7.2m/s | -56.7°C | 24.4% | 190.6hPa | 2.5V | 08:05:00 | 00:00:00 | 00:00:00 | |
| DL1NUX | 2026-08-31 00:56:36 | 49.26184 | 10.47774 | 76° | 144km/h | 12530m | -7.5m/s | -57.1°C | 24.1% | 189.1hPa | 2.5V | 08:05:22 | 02:38:11 | 00:00:00 | |
| DO3MHA-12 | 2026-08-31 00:56:34 | 49.26218 | 10.47994 | 78° | 146km/h | 12502m | -7.3m/s | -56.8°C | 24.3% | 190.0hPa | 2.4V | 00:00:00 | 02:38:15 | 00:00:00 | |
| DB0ND-19 | 2026-08-31 00:56:32 | 49.26201 | 10.47883 | 76° | 146km/h | 12516m | -7.4m/s | -57.0°C | 18.5% | 189.6hPa | 2.4V | 00:00:00 | 00:00:00 | 00:00:00 | |
| SONCRA | 2026-08-31 00:56:31 | 49.26176 | 10.47720 | 75° | 142km/h | 12537m | -7.5m/s | -57.1°C | 18.3% | 188.9hPa | 2.4V | 00:00:00 | 00:00:00 | 00:00:00 | |
| NBG1-10 | 2026-08-31 00:56:30 | 49.26175 | 10.47719 | 76° | 153km/h | 12538m | -7.5m/s | -57.1°C | 23.9% | 188.9hPa | 2.4V | 08:05:00 | 02:38:10 | 00:00:00 | |
| DM0DOS-11 | 2026-08-31 00:56:27 | 49.26116 | 10.47332 | 77° | 153km/h | 12588m | -7.2m/s | -57.3°C | 23.4% | 187.4hPa | 2.4V | 08:05:30 | 02:38:03 | 00:00:00 | |
| DK7TD | 2026-08-31 00:56:26 | 49.26150 | 10.47557 | 76° | 146km/h | 12560m | -7.6m/s | -57.2°C | 23.8% | 188.2hPa | 2.5V | 08:05:27 | 02:38:07 | 00:00:00 | |
| DJ8HS-15 | 2026-08-31 00:56:25 | 49.26141 | 10.47502 | 78° | 153km/h | 12567m | -7.1m/s | -57.2°C | 23.6% | 188.0hPa | 2.5V | 00:00:00 | 02:38:06 | 00:00:00 | |
| DF7PN | 2026-08-31 00:56:24 | 49.26124 | 10.47390 | 77° | 150km/h | 12581m | -7.2m/s | -57.3°C | 17.8% | 187.6hPa | 2.5V | 00:00:00 | 00:00:00 | 00:00:00 | |
| DL1NUX | 2026-08-31 00:56:22 | 49.26091 | 10.47158 | 77° | 153km/h | 12610m | -7.5m/s | -57.4°C | 23.2% | 186.7hPa | 2.5V | 08:05:33 | 02:38:00 | 00:00:00 | |
| DK7TD | 2026-08-31 00:56:16 | 49.26067 | 10.46986 | 77° | 151km/h | 12632m | -7.4m/s | -57.5°C | 23.1% | 186.1hPa | 2.5V | 08:06:18 | 02:37:57 | 00:00:00 | |
| DF3TZ-5 | 2026-08-31 00:56:14 | 49.26041 | 10.46814 | 77° | 153km/h | 12654m | -7.3m/s | -57.6°C | 17.4% | 185.5hPa | 2.5V | 00:00:00 | 00:00:00 | 00:00:00 | |
| DL6DJ-15 | 2026-08-31 00:56:11 | 49.26016 | 10.46636 | 77° | 157km/h | 12675m | -7.5m/s | -57.6°C | 17.2% | 184.8hPa | 2.5V | 00:00:00 | 00:00:00 | 00:00:00 | |
| DL1NUX | 2026-08-31 00:56:10 | 49.25999 | 10.46517 | 77° | 157km/h | 12690m | -7.2m/s | -57.7°C | 22.8% | 184.4hPa | 2.5V | 08:05:44 | 02:37:49 | 00:00:00 | |
| DK7TD | 2026-08-31 00:56:06 | 49.25974 | 10.46338 | 78° | 157km/h | 12712m | -7.3m/s | -57.7°C | 22.4% | 183.7hPa | 2.4V | 08:06:18 | 02:37:46 | 00:00:00 | |
| DJ8HS-15 | 2026-08-31 00:56:05 | 49.25973 | 10.46338 | 78° | 159km/h | 12712m | -7.3m/s | -57.6°C | 22.4% | 183.7hPa | 2.4V | 00:00:00 | 02:37:46 | 00:00:00 | |
| DO3MHA-12 | 2026-08-31 00:56:04 | 49.25965 | 10.46279 | 79° | 157km/h | 12720m | -7.0m/s | -57.7°C | 22.2% | 183.5hPa | 2.4V | 00:00:00 | 02:37:45 | 00:00:00 | |
| DL1NUX | 2026-08-31 00:56:02 | 49.25915 | 10.45924 | 77° | 157km/h | 12763m | -7.7m/s | -57.9°C | 22% | 182.3hPa | 2.4V | 08:05:54 | 02:37:39 | 00:00:00 | |
| DK7TD | 2026-08-31 00:55:56 | 49.25897 | 10.45805 | 76° | 161km/h | 12778m | -7.3m/s | -58°C | 21.5% | 181.8hPa | 2.4V | 08:06:18 | 02:37:37 | 00:00:00 | |
| DK7TD | 2026-08-31 00:55:46 | 49.25792 | 10.45195 | 77° | 161km/h | 12851m | -7.2m/s | -58.1°C | 19.6% | 179.7hPa | 2.4V | 08:06:18 | 02:37:27 | 00:00:00 | |
| DJ8HS-15 | 2026-08-31 00:55:45 | 49.25783 | 10.45135 | 78° | 157km/h | 12858m | -7.2m/s | -58.1°C | 20.0% | 179.5hPa | 2.4V | 08:06:00 | 02:37:26 | 00:00:00 | |
| DO3MHA-12 | 2026-08-31 00:55:44 | 49.25774 | 10.45075 | 78° | 157km/h | 12866m | -7.5m/s | -58.1°C | 19.8% | 179.3hPa | 2.5V | 00:00:00 | 02:37:25 | 00:00:00 | |
| DM0DOS-11 | 2026-08-31 00:55:43 | 49.25758 | 10.44958 | 77° | 155km/h | 12880m | -7.2m/s | -58.2°C | 19.6% | 178.9hPa | 2.5V | 08:06:10 | 02:37:23 | 00:00:00 | |
| DF3TZ-5 | 2026-08-31 00:55:43 | 49.25758 | 10.44958 | 77° | 153km/h | 12880m | -7.3m/s | -58.2°C | 14.3% | 178.9hPa | 2.5V | 00:00:00 | 00:00:00 | 00:00:00 | |
| DL6DJ-15 | 2026-08-31 00:55:40 | 49.25733 | 10.44781 | 77° | 155km/h | 12902m | -7.2m/s | -58.3°C | 14.1% | 178.3hPa | 2.5V | 00:00:00 | 00:00:00 | 00:00:00 | |
| DB0NH | 2026-08-31 00:55:38 | 49.25724 | 10.44722 | 77° | 146km/h | 12909m | -7.3m/s | -58.3°C | 19.4% | 178.1hPa | 2.5V | 00:00:00 | 02:37:19 | 00:00:00 | |
| DM0DOS-11 | 2026-08-31 00:55:37 | 49.25665 | 10.44368 | 76° | 157km/h | 12952m | -7.6m/s | -58.4°C | 17.8% | 176.9hPa | 2.5V | 08:06:20 | 02:37:13 | 00:00:00 | |
| DK7TD | 2026-08-31 00:55:36 | 49.25705 | 10.44604 | 76° | 157km/h | 12923m | -7.1m/s | -58.4°C | 17.5% | 177.7hPa | 2.5V | 08:06:18 | 02:37:17 | 00:00:00 | |
| DO3MHA-12 | 2026-08-31 00:55:32 | 49.25665 | 10.44368 | 77° | 153km/h | 12952m | -7.5m/s | -58.3°C | 17.8% | 176.9hPa | 2.5V | 00:00:00 | 02:37:13 | 00:00:00 | |
| DL1NUX | 2026-08-31 00:55:31 | 49.25611 | 10.44017 | 77° | 151km/h | 12998m | -7.6m/s | -58.4°C | 15.1% | 175.6hPa | 2.5V | 08:06:26 | 02:37:07 | 00:00:00 | |
| DK7TD | 2026-08-31 00:55:25 | 49.25603 | 10.43961 | 77° | 150km/h | 13006m | -7.3m/s | -58.3°C | 12.6% | 175.4hPa | 2.5V | 08:07:09 | 02:37:06 | 00:00:00 | |
| DJ8HS-15 | 2026-08-31 00:55:25 | 49.25603 | 10.43961 | 78° | 139km/h | 13006m | -7.2m/s | -58.2°C | 14.6% | 175.4hPa | 2.5V | 00:00:00 | 02:37:06 | 00:00:00 | |
| DM0DOS-11 | 2026-08-31 00:55:23 | 49.25579 | 10.43796 | 76° | 142km/h | 13027m | -7.2m/s | -57.3°C | 12.3% | 174.8hPa | 2.5V | 08:06:30 | 02:37:03 | 00:00:00 | |
| NBG1-10 | 2026-08-31 00:55:23 | 49.25587 | 10.43850 | 78° | 137km/h | 13020m | -7.1m/s | -57.7°C | 13.2% | 175.0hPa | 2.5V | 00:00:00 | 02:37:04 | 00:00:00 | |
| DO3MHA-12 | 2026-08-31 00:55:22 | 49.25579 | 10.43796 | 77° | 139km/h | 13027m | -7.2m/s | -57.3°C | 12.3% | 174.8hPa | 2.5V | 00:00:00 | 02:37:03 | 00:00:00 | |
| DC4HF-4 | 2026-08-31 00:55:21 | 49.25563 | 10.43690 | 76° | 139km/h | 13042m | -7.3m/s | -57.2°C | 7.7% | 174.4hPa | 2.5V | 00:00:00 | 00:00:00 | 00:00:00 | |
| DL1NUX | 2026-08-31 00:55:21 | 49.25526 | 10.43486 | 73° | 135km/h | 13071m | -7.3m/s | -57.4°C | 11.7% | 173.6hPa | 2.4V | 08:06:36 | 02:36:57 | 00:00:00 | |
| DL1ZP-14 | 2026-08-31 00:55:20 | 49.25563 | 10.43690 | 76° | 139km/h | 13042m | -7.3m/s | -57.2°C | 7.7% | 174.4hPa | 2.5V | 00:00:00 | 00:00:00 | 00:00:00 | |
| DM0DOS-11 | 2026-08-31 00:55:17 | 49.25485 | 10.43284 | 72° | 137km/h | 13100m | -7.5m/s | -57.6°C | 11.3% | 172.8hPa | 2.4V | 08:06:40 | 02:36:53 | 00:00:00 | |
| DK7TD | 2026-08-31 00:55:14 | 49.25506 | 10.43385 | 73° | 137km/h | 13085m | -7.3m/s | -57.5°C | 9.8% | 173.3hPa | 2.5V | 08:07:09 | 02:36:55 | 00:00:00 | |
| SO1NDE-10 | 2026-08-31 00:55:13 | 49.25496 | 10.43334 | 73° | 139km/h | 13093m | -7.3m/s | -57.5°C | 11.5% | 173.0hPa | 2.4V | 00:00:00 | 02:36:54 | 00:00:00 | |
| DF3TZ-5 | 2026-08-31 00:55:12 | 49.25475 | 10.43233 | 72° | 137km/h | 13108m | -7.4m/s | -57.5°C | 7.0% | 172.6hPa | 2.4V | 00:00:00 | 00:00:00 | 00:00:00 | |
| DL1NUX | 2026-08-31 00:55:11 | 49.25426 | 10.42976 | 75° | 139km/h | 13144m | -7.2m/s | -57.5°C | 10.1% | 171.6hPa | 2.4V | 08:06:46 | 02:36:47 | 00:00:00 | |
| DL6DJ-15 | 2026-08-31 00:55:09 | 49.25445 | 10.43080 | 74° | 139km/h | 13130m | -7.3m/s | -57.6°C | 6.5% | 172.0hPa | 2.5V | 00:00:00 | 00:00:00 | 00:00:00 | |
| DB0NH | 2026-08-31 00:55:08 | 49.25445 | 10.43080 | 75° | 139km/h | 13130m | -7.2m/s | -57.5°C | 10.5% | 172.0hPa | 2.5V | 00:00:00 | 02:36:49 | 00:00:00 | |
| DJ8HS-15 | 2026-08-31 00:55:05 | 49.25417 | 10.42924 | 75° | 139km/h | 13152m | -7.4m/s | -57.4°C | 9.8% | 171.4hPa | 2.5V | 00:00:00 | 02:36:46 | 00:00:00 | |
| DM0DOS-11 | 2026-08-31 00:55:03 | 49.25390 | 10.42772 | 74° | 135km/h | 13173m | -7.3m/s | -57.5°C | 9.3% | 170.8hPa | 2.5V | 08:06:50 | 02:36:43 | 00:00:00 | |
| DK7TD | 2026-08-31 00:55:03 | 49.25399 | 10.42822 | 74° | 137km/h | 13166m | -7.4m/s | -57.5°C | 7% | 171.1hPa | 2.5V | 08:07:09 | 02:36:44 | 00:00:00 | |
| DO3MHA-12 | 2026-08-31 00:55:02 | 49.25390 | 10.42772 | 75° | 135km/h | 13174m | -7.3m/s | -57.4°C | 9.3% | 170.8hPa | 2.5V | 00:00:00 | 02:36:43 | 00:00:00 | |
| DL1NUX | 2026-08-31 00:55:01 | 49.25334 | 10.42474 | 71° | 135km/h | 13219m | -7.5m/s | -57.3°C | 8.6% | 169.6hPa | 2.5V | 08:06:56 | 02:36:37 | 00:00:00 | |
| DB0ND-19 | 2026-08-31 00:54:59 | 49.25363 | 10.42622 | 74° | 131km/h | 13196m | -7.6m/s | -57.4°C | 5.1% | 170.2hPa | 2.4V | 00:00:00 | 00:00:00 | 00:00:00 | |
| DM0DOS-11 | 2026-08-31 00:54:57 | 49.25287 | 10.42273 | 69° | 141km/h | 13248m | -7.2m/s | -57.4°C | 8.1% | 168.8hPa | 2.4V | 08:07:00 | 02:36:33 | 00:00:00 | |
| BIOWL1-15 | 2026-08-31 00:54:57 | 49.25344 | 10.42523 | 73° | 133km/h | 13211m | -7.5m/s | -57.3°C | 5.9% | 169.8hPa | 2.5V | 08:08:00 | 02:36:38 | 00:00:00 | |
| DK7TD | 2026-08-31 00:54:52 | 49.25287 | 10.42273 | 70° | 141km/h | 13248m | -7.3m/s | -57.4°C | 5% | 168.8hPa | 2.4V | 08:07:09 | 02:36:33 | 00:00:00 | |
| BIOWL1-15 | 2026-08-31 00:54:45 | 49.25199 | 10.41907 | 70° | 146km/h | 13299m | -7.3m/s | -57°C | 3.7% | 167.4hPa | 2.5V | 08:08:00 | 02:36:26 | 00:00:00 | |
| DJ8HS-15 | 2026-08-31 00:54:45 | 49.25199 | 10.41907 | 70° | 130km/h | 13299m | -7.2m/s | -56.9°C | 6.9% | 167.4hPa | 2.5V | 00:00:00 | 02:36:26 | 00:00:00 | |
| DM0DOS-11 | 2026-08-31 00:54:43 | 49.25160 | 10.41750 | 68° | 142km/h | 13322m | -7.5m/s | -56.6°C | 6.8% | 166.9hPa | 2.4V | 08:07:10 | 02:36:23 | 00:00:00 | |
| DK7TD | 2026-08-31 00:54:42 | 49.25160 | 10.41750 | 68° | 142km/h | 13322m | -7.5m/s | -56.6°C | 3.5% | 166.9hPa | 2.4V | 08:08:00 | 02:36:23 | 00:00:00 | |
| DO3MHA-12 | 2026-08-31 00:54:42 | 49.25160 | 10.41750 | 69° | 133km/h | 13322m | -7.4m/s | -56.6°C | 6.8% | 166.8hPa | 2.4V | 00:00:00 | 02:36:23 | 00:00:00 | |
| DF3TZ-5 | 2026-08-31 00:54:41 | 49.25133 | 10.41650 | 66° | 137km/h | 13337m | -7.4m/s | -56.2°C | 3.2% | 166.4hPa | 2.5V | 00:00:00 | 00:00:00 | 00:00:00 | |
| DL6DJ-15 | 2026-08-31 00:54:38 | 49.25091 | 10.41507 | 65° | 131km/h | 13359m | -7.5m/s | -55.9°C | 3.0% | 165.8hPa | 2.5V | 00:00:00 | 00:00:00 | 00:00:00 | |
| DM0DOS-11 | 2026-08-31 00:54:37 | 49.25027 | 10.41282 | 67° | 122km/h | 13396m | -7.3m/s | -55.8°C | 6.1% | 164.9hPa | 2.5V | 08:07:20 | 02:36:13 | 00:00:00 | |
| DL1NUX | 2026-08-31 00:54:36 | 49.25078 | 10.41461 | 65° | 130km/h | 13366m | -7.5m/s | -55.8°C | 6.2% | 165.6hPa | 2.4V | 08:07:16 | 02:36:17 | 00:00:00 | |
| BIOWL1-15 | 2026-08-31 00:54:32 | 49.25004 | 10.41195 | 69° | 120km/h | 13411m | -7.5m/s | -55.8°C | 2.9% | 164.5hPa | 2.4V | 08:08:00 | 02:36:11 | 00:00:00 | |
| DK7TD | 2026-08-31 00:54:32 | 49.25027 | 10.41282 | 68° | 122km/h | 13396m | -7.3m/s | -55.8°C | 3% | 164.9hPa | 2.5V | 08:08:00 | 02:36:13 | 00:00:00 | |
| DO3MHA-12 | 2026-08-31 00:54:32 | 49.25027 | 10.41282 | 68° | 119km/h | 13397m | -7.3m/s | -55.7°C | 6.1% | 164.9hPa | 2.5V | 00:00:00 | 02:36:13 | 00:00:00 | |
| DL1NUX | 2026-08-31 00:54:30 | 49.24964 | 10.41022 | 70° | 117km/h | 13442m | -7.6m/s | -55.8°C | 6.1% | 163.7hPa | 2.5V | 08:07:26 | 02:36:07 | 00:00:00 | |
| DK7TD | 2026-08-31 00:54:22 | 49.24925 | 10.40851 | 71° | 117km/h | 13472m | -7.5m/s | -55.7°C | 2.8% | 162.9hPa | 2.5V | 08:08:00 | 02:36:03 | 00:00:00 | |
| BIOWL1-15 | 2026-08-31 00:54:20 | 49.24874 | 10.40548 | 79° | 117km/h | 13525m | -7.9m/s | -54.3°C | 2.4% | 161.7hPa | 2.5V | 08:08:00 | 02:35:56 | 00:00:00 | |
| DF7PN | 2026-08-31 00:54:19 | 49.24899 | 10.40723 | 74° | 115km/h | 13495m | -7.6m/s | -55.1°C | 2.8% | 162.4hPa | 2.5V | 00:00:00 | 00:00:00 | 00:00:00 | |
| DB0UT-7 | 2026-08-31 00:54:18 | 49.24892 | 10.40680 | 77° | 102km/h | 13503m | -7.5m/s | -54.8°C | 5.9% | 162.1hPa | 2.5V | 00:00:00 | 02:35:59 | 00:00:00 | |
| NBG1-10 | 2026-08-31 00:54:17 | 49.24885 | 10.40636 | 78° | 108km/h | 13510m | -7.5m/s | -54.5°C | 5.7% | 161.9hPa | 2.5V | 00:00:00 | 02:35:58 | 00:00:00 | |
| DM0DOS-11 | 2026-08-31 00:54:13 | 49.24858 | 10.40413 | 81° | 119km/h | 13548m | -7.5m/s | -54.2°C | 5.4% | 161hPa | 2.5V | 08:07:40 | 02:35:53 | 00:00:00 | |
| DK7TD | 2026-08-31 00:54:11 | 49.24854 | 10.40368 | 82° | 120km/h | 13555m | -7.3m/s | -54.2°C | 2.2% | 160.8hPa | 2.5V | 08:08:00 | 02:35:52 | 00:00:00 | |
| DB0NH | 2026-08-31 00:54:09 | 49.24842 | 10.40230 | 83° | 100km/h | 13578m | -7.7m/s | -54.1°C | 5.2% | 160.3hPa | 2.5V | 00:00:00 | 02:35:49 | 00:00:00 | |
| DM0DOS-11 | 2026-08-31 00:54:08 | 49.24821 | 10.39921 | 84° | 108km/h | 13630m | -7.2m/s | -53.2°C | 4.9% | 159hPa | 2.5V | 08:07:51 | 02:35:42 | 00:00:00 | |
| BIOWL1-15 | 2026-08-31 00:54:06 | 49.24836 | 10.40139 | 84° | 117km/h | 13593m | -7.6m/s | -54°C | 2.1% | 159.9hPa | 2.5V | 08:08:00 | 02:35:47 | 00:00:00 | |
| DK7TD | 2026-08-31 00:54:00 | 49.24819 | 10.39881 | 85° | 104km/h | 13637m | -7.5m/s | -53.1°C | 1.9% | 158.8hPa | 2.5V | 08:08:00 | 02:35:41 | 00:00:00 | |
| BIOWL1-15 | 2026-08-31 00:53:54 | 49.24792 | 10.39502 | 83° | 95km/h | 13715m | -7.7m/s | -53.5°C | 1.9% | 156.9hPa | 2.5V | 08:12:15 | 02:35:31 | 00:00:00 | |
| DK7TD | 2026-08-31 00:53:49 | 49.24789 | 10.39465 | 84° | 95km/h | 13723m | -7.8m/s | -53.6°C | 1.8% | 156.7hPa | 2.5V | 08:08:51 | 02:35:30 | 00:00:00 | |
| DL1ZP-14 | 2026-08-31 00:53:47 | 49.24782 | 10.39358 | 83° | 91km/h | 13746m | -7.6m/s | -53.3°C | 2.1% | 156.2hPa | 2.5V | 00:00:00 | 00:00:00 | 00:00:00 | |
| DM0DOS-11 | 2026-08-31 00:53:45 | 49.24767 | 10.39151 | 84° | 88km/h | 13791m | -7.9m/s | -53°C | 4.6% | 155.1hPa | 2.5V | 08:08:12 | 02:35:21 | 00:00:00 | |
| BIOWL1-15 | 2026-08-31 00:53:42 | 49.24767 | 10.39151 | 85° | 88km/h | 13791m | -7.9m/s | -53°C | 1.7% | 155.1hPa | 2.5V | 08:12:15 | 02:35:21 | 00:00:00 | |
| DK7TD | 2026-08-31 00:53:39 | 49.24765 | 10.39117 | 85° | 86km/h | 13799m | -7.8m/s | -53°C | 1.7% | 154.9hPa | 2.5V | 08:08:51 | 02:35:20 | 00:00:00 | |
| HSKMA3-T | 2026-08-31 00:53:35 | 49.24760 | 10.38986 | 88° | 84km/h | 13830m | -7.6m/s | -53.1°C | 1.8% | 154.2hPa | 2.5V | 08:08:51 | 02:35:16 | 00:00:00 | |
| DM0DOS-11 | 2026-08-31 00:53:33 | 49.24759 | 10.38826 | 88° | 80km/h | 13868m | -7.4m/s | -53.3°C | 4.7% | 153.2hPa | 2.5V | 08:08:22 | 02:35:11 | 00:00:00 | |
| BIOWL1-15 | 2026-08-31 00:53:31 | 49.24759 | 10.38826 | 89° | 80km/h | 13868m | -7.4m/s | -53.3°C | 1.8% | 153.2hPa | 2.5V | 08:12:15 | 02:35:11 | 00:00:00 | |
| DK7TD | 2026-08-31 00:53:28 | 49.24758 | 10.38764 | 87° | 78km/h | 13883m | -7.7m/s | -53.4°C | 1.8% | 152.9hPa | 2.5V | 08:08:51 | 02:35:09 | 00:00:00 | |
| DB0ND-19 | 2026-08-31 00:53:27 | 49.24755 | 10.38704 | 86° | 77km/h | 13899m | -7.7m/s | -53.6°C | 2.1% | 152.5hPa | 2.5V | 00:00:00 | 00:00:00 | 00:00:00 | |
| DJ8HS-15 | 2026-08-31 00:53:25 | 49.24754 | 10.38674 | 86° | 75km/h | 13907m | -7.7m/s | -53.5°C | 4.8% | 152.3hPa | 2.5V | 00:00:00 | 02:35:06 | 00:00:00 | |
| DM0DOS-11 | 2026-08-31 00:53:23 | 49.24748 | 10.38532 | 86° | 73km/h | 13944m | -7.5m/s | -53.6°C | 4.8% | 151.4hPa | 2.5V | 08:08:32 | 02:35:01 | 00:00:00 | |
| HSKMA3-T | 2026-08-31 00:53:22 | 49.24750 | 10.38588 | 87° | 73km/h | 13930m | -7.4m/s | -53.6°C | 1.9% | 151.8hPa | 2.5V | 08:08:51 | 02:35:03 | 00:00:00 | |
| DO3MHA-12 | 2026-08-31 00:53:22 | 49.24750 | 10.38588 | 88° | 73km/h | 13930m | -7.3m/s | -53.5°C | 4.8% | 151.7hPa | 2.5V | 00:00:00 | 02:35:03 | 00:00:00 | |
| DL1NUX | 2026-08-31 00:53:21 | 49.24747 | 10.38422 | 90° | 69km/h | 13975m | -7.8m/s | -53.6°C | 4.8% | 150.7hPa | 2.5V | 08:08:36 | 02:34:57 | 00:00:00 | |
| BIOWL1-15 | 2026-08-31 00:53:20 | 49.24748 | 10.38532 | 87° | 73km/h | 13945m | -7.5m/s | -53.6°C | 1.9% | 151.4hPa | 2.5V | 08:12:15 | 02:35:01 | 00:00:00 | |
| DK7TD | 2026-08-31 00:53:17 | 49.24747 | 10.38449 | 90° | 71km/h | 13967m | -7.5m/s | -53.7°C | 1.9% | 150.9hPa | 2.5V | 08:08:51 | 02:34:58 | 00:00:00 | |
| BIOWL1-15 | 2026-08-31 00:53:14 | 49.24748 | 10.38251 | 90° | 77km/h | 14022m | -7.8m/s | -54°C | 2% | 149.6hPa | 2.5V | 08:12:15 | 02:34:51 | 00:00:00 | |
| DM0DOS-11 | 2026-08-31 00:53:13 | 49.24748 | 10.38251 | 90° | 77km/h | 14022m | -7.8m/s | -54°C | 4.9% | 149.6hPa | 2.5V | 08:08:42 | 02:34:51 | 00:00:00 | |
| HSKMA3-T | 2026-08-31 00:53:11 | 49.24748 | 10.38281 | 91° | 77km/h | 14014m | -8.1m/s | -53.9°C | 2% | 149.8hPa | 2.5V | 08:08:51 | 02:34:52 | 00:00:00 | |
| DK7TD | 2026-08-31 00:53:07 | 49.24749 | 10.38161 | 90° | 78km/h | 14046m | -7.6m/s | -54°C | 2.1% | 149hPa | 2.5V | 08:08:51 | 02:34:48 | 00:00:00 | |
| DJ8HS-15 | 2026-08-31 00:53:05 | 49.24748 | 10.38099 | 89° | 78km/h | 14061m | -7.5m/s | -54.1°C | 5.0% | 148.7hPa | 2.5V | 00:00:00 | 02:34:46 | 00:00:00 | |
| DL6DJ-15 | 2026-08-31 00:53:04 | 49.24747 | 10.38068 | 88° | 80km/h | 14069m | -7.6m/s | -54.3°C | 2.3% | 148.5hPa | 2.5V | 00:00:00 | 00:00:00 | 00:00:00 | |
| DM0DOS-11 | 2026-08-31 00:53:03 | 49.24744 | 10.37945 | 88° | 77km/h | 14099m | -7.6m/s | -54.5°C | 5.1% | 147.8hPa | 2.5V | 08:08:52 | 02:34:41 | 00:00:00 | |
| BIOWL1-15 | 2026-08-31 00:53:02 | 49.24742 | 10.37857 | 88° | 77km/h | 14122m | -7.5m/s | -54.7°C | 2.2% | 147.3hPa | 2.5V | 08:12:15 | 02:34:38 | 00:00:00 | |
| HSKMA3-T | 2026-08-31 00:53:01 | 49.24745 | 10.37975 | 87° | 78km/h | 14092m | -7.6m/s | -54.5°C | 2.2% | 148hPa | 2.5V | 08:08:51 | 02:34:42 | 00:00:00 | |
| DK7TD | 2026-08-31 00:52:56 | 49.24742 | 10.37827 | 88° | 77km/h | 14130m | -7.5m/s | -54.8°C | 2.3% | 147.1hPa | 2.5V | 08:09:42 | 02:34:37 | 00:00:00 | |
| DB0ND-19 | 2026-08-31 00:52:55 | 49.24741 | 10.37798 | 87° | 77km/h | 14138m | -7.5m/s | -54.9°C | 2.3% | 147.0hPa | 2.6V | 00:00:00 | 00:00:00 | 00:00:00 | |
| DO3MHA-12 | 2026-08-31 00:52:52 | 49.24738 | 10.37709 | 88° | 78km/h | 14161m | -7.8m/s | -55.0°C | 5.2% | 146.4hPa | 2.6V | 00:00:00 | 02:34:33 | 00:00:00 | |
| DL1NUX | 2026-08-31 00:52:51 | 49.24733 | 10.37528 | 87° | 80km/h | 14207m | -8m/s | -55.5°C | 5.3% | 145.3hPa | 2.6V | 08:09:06 | 02:34:27 | 00:00:00 | |
| HSKMA3-T | 2026-08-31 00:52:50 | 49.24736 | 10.37650 | 88° | 77km/h | 14176m | -7.6m/s | -55.2°C | 2.3% | 146.1hPa | 2.5V | 08:09:42 | 02:34:31 | 00:00:00 | |
| BIOWL1-15 | 2026-08-31 00:52:46 | 49.24733 | 10.37528 | 87° | 80km/h | 14207m | -8m/s | -55.5°C | 2.3% | 145.4hPa | 2.6V | 08:12:15 | 02:34:27 | 00:00:00 | |
| DK7TD | 2026-08-31 00:52:45 | 49.24732 | 10.37497 | 86° | 80km/h | 14215m | -8.3m/s | -55.5°C | 2.3% | 145.2hPa | 2.5V | 08:09:42 | 02:34:26 | 00:00:00 | |
| DJ8HS-15 | 2026-08-31 00:52:45 | 49.24732 | 10.37497 | 87° | 78km/h | 14215m | -8.3m/s | -55.5°C | 5.3% | 145.1hPa | 2.5V | 08:09:00 | 02:34:26 | 00:00:00 | |
| DJTTGO | 2026-08-31 00:52:44 | 49.24732 | 10.37497 | 87° | 80km/h | 14215m | -8.3m/s | -55.5°C | 2.4% | 145.2hPa | 2.5V | 00:00:00 | 00:00:00 | 00:00:00 | |
| SO1NDE-10 | 2026-08-31 00:52:43 | 49.24728 | 10.37435 | 83° | 77km/h | 14231m | -7.9m/s | -55.6°C | 5.4% | 144.8hPa | 2.5V | 00:00:00 | 02:34:24 | 00:00:00 | |
| DO3MHA-12 | 2026-08-31 00:52:42 | 49.24725 | 10.37404 | 80° | 78km/h | 14239m | -7.7m/s | -55.7°C | 5.4% | 144.6hPa | 2.5V | 00:00:00 | 02:34:23 | 00:00:00 | |
| DL1NUX | 2026-08-31 00:52:40 | 49.24687 | 10.37234 | 68° | 78km/h | 14285m | -7.8m/s | -56°C | 5.5% | 143.6hPa | 2.5V | 08:09:16 | 02:34:17 | 00:00:00 | |
| HSKMA3-T | 2026-08-31 00:52:40 | 49.24715 | 10.37345 | 72° | 78km/h | 14254m | -7.4m/s | -55.9°C | 2.4% | 144.3hPa | 2.6V | 08:09:42 | 02:34:21 | 00:00:00 | |
| BIOWL1-15 | 2026-08-31 00:52:39 | 49.24667 | 10.37148 | 71° | 80km/h | 14308m | -7.9m/s | -56.2°C | 2.4% | 143.1hPa | 2.5V | 08:12:15 | 02:34:14 | 00:00:00 | |
| DK7TD | 2026-08-31 00:52:34 | 49.24673 | 10.37177 | 72° | 78km/h | 14300m | -7.8m/s | -56.2°C | 2.4% | 143.2hPa | 2.5V | 08:09:42 | 02:34:15 | 00:00:00 | |
| DM0DOS-11 | 2026-08-31 00:52:33 | 49.24648 | 10.37059 | 72° | 78km/h | 14332m | -7.8m/s | -56.4°C | 5.6% | 142.5hPa | 2.5V | 08:09:22 | 02:34:11 | 00:00:00 | |
| DL6DJ-15 | 2026-08-31 00:52:33 | 49.24667 | 10.37148 | 71° | 78km/h | 14308m | -7.9m/s | -56.2°C | 2.5% | 143.1hPa | 2.5V | 00:00:00 | 00:00:00 | 00:00:00 | |
| DO3MHA-12 | 2026-08-31 00:52:32 | 49.24660 | 10.37118 | 73° | 77km/h | 14316m | -8.0m/s | -56.3°C | 5.6% | 142.8hPa | 2.5V | 00:00:00 | 02:34:13 | 00:00:00 | |
| DL1NUX | 2026-08-31 00:52:31 | 49.24620 | 10.36948 | 63° | 75km/h | 14363m | -7.7m/s | -56.6°C | 5.6% | 141.8hPa | 2.5V | 08:09:26 | 02:34:07 | 00:00:00 | |
| HSKMA3-T | 2026-08-31 00:52:29 | 49.24635 | 10.37001 | 69° | 78km/h | 14348m | -7.9m/s | -56.5°C | 2.4% | 142.1hPa | 2.5V | 08:09:42 | 02:34:09 | 00:00:00 | |
| DK7TD | 2026-08-31 00:52:24 | 49.24602 | 10.36897 | 61° | 73km/h | 14379m | -8.2m/s | -56.7°C | 2.4% | 141.4hPa | 2.5V | 08:09:42 | 02:34:05 | 00:00:00 | |
| DM0DOS-11 | 2026-08-31 00:52:24 | 49.24565 | 10.36800 | 58° | 73km/h | 14412m | -8.1m/s | -57°C | 5.8% | 140.7hPa | 2.5V | 08:09:32 | 02:34:01 | 00:00:00 | |
| BIOWL1-15 | 2026-08-31 00:52:21 | 49.24574 | 10.36824 | 59° | 73km/h | 14404m | -8.1m/s | -57°C | 2.4% | 140.9hPa | 2.5V | 08:12:15 | 02:34:02 | 00:00:00 | |
| DC4HF-4 | 2026-08-31 00:52:21 | 49.24565 | 10.36800 | 58° | 71km/h | 14412m | -8.1m/s | -57.0°C | 2.5% | 140.7hPa | 2.5V | 00:00:00 | 00:00:00 | 00:00:00 | |
| DL1NUX | 2026-08-31 00:52:20 | 49.24525 | 10.36707 | 56° | 73km/h | 14444m | -8.1m/s | -56.8°C | 5.7% | 140hPa | 2.5V | 08:09:36 | 02:33:57 | 00:00:00 | |
| HSKMA3-T | 2026-08-31 00:52:18 | 49.24545 | 10.36753 | 57° | 73km/h | 14428m | -8.1m/s | -57.1°C | 2.4% | 140.3hPa | 2.5V | 08:09:42 | 02:33:59 | 00:00:00 | |
| DB0UT-7 | 2026-08-31 00:52:15 | 49.24514 | 10.36683 | 56° | 69km/h | 14453m | -8.0m/s | -56.6°C | 5.7% | 139.8hPa | 2.5V | 00:00:00 | 02:33:56 | 00:00:00 | |
| DL1ZP-14 | 2026-08-31 00:52:14 | 49.24494 | 10.36637 | 55° | 73km/h | 14469m | -8.3m/s | -56.7°C | 2.4% | 139.4hPa | 2.5V | 00:00:00 | 00:00:00 | 00:00:00 | |
| DM0DOS-11 | 2026-08-31 00:52:13 | 49.24461 | 10.36567 | 54° | 75km/h | 14494m | -8.1m/s | -56.7°C | 5.7% | 139hPa | 2.5V | 08:09:42 | 02:33:51 | 00:00:00 | |
| DK7TD | 2026-08-31 00:52:13 | 49.24494 | 10.36637 | 55° | 73km/h | 14469m | -8.3m/s | -56.7°C | 2.3% | 139.4hPa | 2.5V | 08:09:42 | 02:33:54 | 00:00:00 | |
| SO1NDE-10 | 2026-08-31 00:52:13 | 49.24493 | 10.36636 | 56° | 69km/h | 14469m | -8.2m/s | -56.6°C | 5.6% | 139.4hPa | 2.5V | 00:00:00 | 02:33:54 | 00:00:00 | |
| DO3MHA-12 | 2026-08-31 00:52:12 | 49.24483 | 10.36613 | 55° | 71km/h | 14477m | -8.2m/s | -56.6°C | 5.6% | 139.3hPa | 2.5V | 08:09:00 | 02:33:53 | 00:00:00 | |
| DL1NUX | 2026-08-31 00:52:10 | 49.24418 | 10.36474 | 54° | 71km/h | 14526m | -8.1m/s | -56.6°C | 5.8% | 138.2hPa | 2.5V | 08:09:46 | 02:33:47 | 00:00:00 | |
| HSKMA3-T | 2026-08-31 00:52:08 | 49.24439 | 10.36520 | 54° | 75km/h | 14510m | -8.3m/s | -56.7°C | 2.4% | 138.6hPa | 2.5V | 08:10:33 | 02:33:49 | 00:00:00 | |
| DB0NH | 2026-08-31 00:52:08 | 49.24439 | 10.36520 | 55° | 69km/h | 14510m | -8.2m/s | -56.7°C | 5.8% | 138.6hPa | 2.5V | 00:00:00 | 02:33:49 | 00:00:00 | |
| DJ8HS-15 | 2026-08-31 00:52:05 | 49.24407 | 10.36452 | 56° | 68km/h | 14535m | -8.3m/s | -56.6°C | 5.8% | 138.0hPa | 2.5V | 00:00:00 | 02:33:46 | 00:00:00 | |
| DM0DOS-11 | 2026-08-31 00:52:03 | 49.24363 | 10.36347 | 61° | 62km/h | 14577m | -8.4m/s | -56.5°C | 5.8% | 137.1hPa | 2.5V | 08:09:52 | 02:33:41 | 00:00:00 | |
| DK7TD | 2026-08-31 00:52:02 | 49.24379 | 10.36388 | 57° | 64km/h | 14560m | -8.5m/s | -56.7°C | 2.4% | 137.5hPa | 2.5V | 08:10:33 | 02:33:43 | 00:00:00 | |
| BIOWL1-15 | 2026-08-31 00:52:01 | 49.24371 | 10.36367 | 59° | 62km/h | 14569m | -8.6m/s | -56.6°C | 2.4% | 137.3hPa | 2.5V | 08:12:15 | 02:33:42 | 00:00:00 | |
| HSKMA3-T | 2026-08-31 00:51:58 | 49.24350 | 10.36304 | 67° | 62km/h | 14594m | -8.6m/s | -56.5°C | 2.5% | 136.8hPa | 2.5V | 08:10:33 | 02:33:39 | 00:00:00 | |
| DM0DOS-11 | 2026-08-31 00:51:53 | 49.24306 | 10.36105 | 73° | 69km/h | 14661m | -8.5m/s | -55.6°C | 5.5% | 135.3hPa | 2.5V | 08:10:02 | 02:33:31 | 00:00:00 | |
| DK7TD | 2026-08-31 00:51:51 | 49.24312 | 10.36131 | 74° | 71km/h | 14652m | -8.4m/s | -55.8°C | 2.4% | 135.5hPa | 2.5V | 08:10:33 | 02:33:32 | 00:00:00 | |
| HSKMA3-T | 2026-08-31 00:51:48 | 49.24297 | 10.36052 | 73° | 71km/h | 14678m | -8.3m/s | -55.7°C | 2.4% | 135hPa | 2.6V | 08:10:33 | 02:33:29 | 00:00:00 | |
| BIOWL1-15 | 2026-08-31 00:51:47 | 49.24286 | 10.36000 | 71° | 71km/h | 14694m | -8.3m/s | -55.6°C | 2.3% | 134.6hPa | 2.5V | 08:12:15 | 02:33:27 | 00:00:00 | |
| DB0UT-7 | 2026-08-31 00:51:45 | 49.24280 | 10.35974 | 71° | 78km/h | 14703m | -8.2m/s | -55.6°C | 5.5% | 134.4hPa | 2.5V | 00:00:00 | 00:00:00 | 00:00:00 | |
| DM0DOS-11 | 2026-08-31 00:51:44 | 49.24249 | 10.35840 | 71° | 75km/h | 14744m | -8.7m/s | -55.6°C | 5.3% | 133.6hPa | 2.5V | 08:10:12 | 02:33:21 | 00:00:00 | |
| DK7TD | 2026-08-31 00:51:40 | 49.24249 | 10.35840 | 72° | 75km/h | 14744m | -8.7m/s | -55.6°C | 2.2% | 133.6hPa | 2.5V | 08:10:33 | 02:33:21 | 00:00:00 | |
| HSKMA3-T | 2026-08-31 00:51:37 | 49.24231 | 10.35757 | 70° | 77km/h | 14771m | -8.7m/s | -55.4°C | 2% | 133.1hPa | 2.5V | 08:10:33 | 02:33:18 | 00:00:00 | |
| BIOWL1-15 | 2026-08-31 00:51:37 | 49.24190 | 10.35617 | 61° | 82km/h | 14813m | -8.5m/s | -55.2°C | 1.8% | 132.1hPa | 2.5V | 08:12:15 | 02:33:13 | 00:00:00 | |
| DM0DOS-11 | 2026-08-31 00:51:36 | 49.24167 | 10.35562 | 54° | 86km/h | 14830m | -8.1m/s | -55.3°C | 5% | 131.8hPa | 2.6V | 08:10:22 | 02:33:11 | 00:00:00 | |
| DF3TZ-5 | 2026-08-31 00:51:34 | 49.24208 | 10.35673 | 65° | 80km/h | 14797m | -8.6m/s | -55.1°C | 2.1% | 132.5hPa | 2.5V | 00:00:00 | 00:00:00 | 00:00:00 | |
| NBG1-10 | 2026-08-31 00:51:32 | 49.24190 | 10.35617 | 61° | 73km/h | 14814m | -8.4m/s | -55.1°C | 4.9% | 132.1hPa | 2.5V | 08:10:00 | 02:33:13 | 00:00:00 | |
| DL6DJ-15 | 2026-08-31 00:51:31 | 49.24179 | 10.35589 | 57° | 84km/h | 14822m | -8.3m/s | -55.2°C | 2.0% | 131.9hPa | 2.6V | 00:00:00 | 00:00:00 | 00:00:00 | |
| DL1NUX | 2026-08-31 00:51:30 | 49.24097 | 10.35436 | 45° | 86km/h | 14872m | -8.7m/s | -55.5°C | 4.9% | 130.9hPa | 2.6V | 08:10:27 | 02:33:06 | 00:00:00 | |
| DK7TD | 2026-08-31 00:51:29 | 49.24154 | 10.35535 | 52° | 86km/h | 14838m | -8.3m/s | -55.3°C | 1.8% | 131.7hPa | 2.6V | 08:10:33 | 02:33:10 | 00:00:00 | |
| HSKMA3-T | 2026-08-31 00:51:26 | 49.24112 | 10.35460 | 47° | 86km/h | 14863m | -8.7m/s | -55.4°C | 1.8% | 131.1hPa | 2.5V | 08:10:33 | 02:33:07 | 00:00:00 | |
| DJ8HS-15 | 2026-08-31 00:51:25 | 49.24097 | 10.35436 | 46° | 69km/h | 14872m | -8.6m/s | -55.5°C | 4.9% | 130.9hPa | 2.5V | 00:00:00 | 02:33:06 | 00:00:00 | |
| DO3MHA-12 | 2026-08-31 00:51:22 | 49.24052 | 10.35369 | 43° | 66km/h | 14898m | -8.3m/s | -55.7°C | 5.0% | 130.3hPa | 2.5V | 00:00:00 | 02:33:03 | 00:00:00 | |
| SONDE2-11 | 2026-08-31 00:51:21 | 49.24011 | 10.35313 | 43° | 64km/h | 14922m | -8.3m/s | -55.9°C | 2.1% | 129.8hPa | 2.5V | 00:00:00 | 00:00:00 | 00:00:00 | |
| DL1NUX | 2026-08-31 00:51:20 | 49.23969 | 10.35242 | 50° | 62km/h | 14955m | -8.5m/s | -56.2°C | 5.3% | 129.2hPa | 2.5V | 08:10:37 | 02:32:56 | 00:00:00 | |
| DK7TD | 2026-08-31 00:51:19 | 49.24011 | 10.35313 | 44° | 66km/h | 14922m | -8.3m/s | -55.9°C | 1.8% | 129.8hPa | 2.6V | 08:10:33 | 02:33:00 | 00:00:00 | |
| HSKMA3-T | 2026-08-31 00:51:16 | 49.23968 | 10.35242 | 51° | 62km/h | 14956m | -8.5m/s | -56.2°C | 1.9% | 129.2hPa | 2.5V | 08:11:24 | 02:32:56 | 00:00:00 | |
| DB0UT-7 | 2026-08-31 00:51:15 | 49.23968 | 10.35242 | 51° | 71km/h | 14956m | -8.5m/s | -56.2°C | 5.3% | 129.2hPa | 2.5V | 08:10:00 | 02:32:56 | 00:00:00 | |
| DF7PN | 2026-08-31 00:51:13 | 49.23949 | 10.35205 | 52° | 60km/h | 14973m | -8.6m/s | -56.3°C | 2.1% | 128.8hPa | 2.5V | 00:00:00 | 00:00:00 | 00:00:00 | |
| DO3MHA-12 | 2026-08-31 00:51:12 | 49.23940 | 10.35186 | 55° | 68km/h | 14981m | -8.5m/s | -56.3°C | 5.3% | 128.7hPa | 2.5V | 00:00:00 | 02:32:53 | 00:00:00 | |
| DJTTGO | 2026-08-31 00:51:11 | 49.23940 | 10.35186 | 55° | 62km/h | 14981m | -8.6m/s | -56.3°C | 2.2% | 128.7hPa | 2.5V | 00:00:00 | 00:00:00 | 00:00:00 | |
| DM0DOS-11 | 2026-08-31 00:51:09 | 49.23906 | 10.35100 | 63° | 68km/h | 15015m | -8.3m/s | -56.6°C | 5.4% | 128hPa | 2.5V | 08:10:44 | 02:32:49 | 00:00:00 | |
| DK7TD | 2026-08-31 00:51:08 | 49.23906 | 10.35100 | 63° | 68km/h | 15015m | -8.3m/s | -56.6°C | 1.9% | 128hPa | 2.5V | 08:11:24 | 02:32:49 | 00:00:00 | |
| HSKMA3-T | 2026-08-31 00:51:05 | 49.23877 | 10.35002 | 66° | 71km/h | 15048m | -8.5m/s | -56.6°C | 2% | 127.3hPa | 2.5V | 08:11:24 | 02:32:45 | 00:00:00 | |
| DM0DOS-11 | 2026-08-31 00:51:03 | 49.23833 | 10.34840 | 68° | 78km/h | 15098m | -8.7m/s | -56.4°C | 5.4% | 126.4hPa | 2.5V | 08:10:54 | 02:32:39 | 00:00:00 | |
| DF3TZ-5 | 2026-08-31 00:51:03 | 49.23869 | 10.34977 | 67° | 71km/h | 15057m | -8.3m/s | -56.6°C | 2.2% | 127.1hPa | 2.6V | 00:00:00 | 00:00:00 | 00:00:00 | |
| DO3MHA-12 | 2026-08-31 00:51:02 | 49.23862 | 10.34951 | 68° | 78km/h | 15065m | -8.3m/s | -56.6°C | 5.4% | 126.9hPa | 2.6V | 00:00:00 | 02:32:43 | 00:00:00 | |
| EDDB2-12 | 2026-08-31 00:51:01 | 49.23855 | 10.34923 | 68° | 77km/h | 15073m | -8.1m/s | -56.6°C | 2.2% | 126.9hPa | 2.6V | 00:00:00 | 00:00:00 | 00:00:00 | |
| DL1NUX | 2026-08-31 00:51:00 | 49.23811 | 10.34755 | 66° | 78km/h | 15124m | -8.6m/s | -56.2°C | 5.4% | 125.8hPa | 2.6V | 08:10:57 | 02:32:36 | 00:00:00 | |
| DK7TD | 2026-08-31 00:50:57 | 49.23826 | 10.34811 | 68° | 78km/h | 15107m | -8.8m/s | -56.4°C | 2% | 126.1hPa | 2.5V | 08:11:24 | 02:32:38 | 00:00:00 | |
| HSKMA3-T | 2026-08-31 00:50:54 | 49.23803 | 10.34728 | 65° | 78km/h | 15133m | -8.7m/s | -56°C | 2% | 125.7hPa | 2.5V | 08:11:24 | 02:32:35 | 00:00:00 | |
| BIOWL1-15 | 2026-08-31 00:50:51 | 49.23750 | 10.34598 | 55° | 78km/h | 15176m | -8.4m/s | -55.9°C | 2.1% | 124.8hPa | 2.6V | 08:12:15 | 02:32:30 | 00:00:00 | |
| DL1NUX | 2026-08-31 00:50:50 | 49.23691 | 10.34476 | 52° | 78km/h | 15219m | -8.8m/s | -56°C | 5.3% | 123.9hPa | 2.6V | 08:11:08 | 02:32:25 | 00:00:00 | |
| SONDE2-11 | 2026-08-31 00:50:50 | 49.23762 | 10.34623 | 54° | 78km/h | 15167m | -8.6m/s | -55.9°C | 2.2% | 125.0hPa | 2.5V | 00:00:00 | 00:00:00 | 00:00:00 | |
| DM0DOS-11 | 2026-08-31 00:50:49 | 49.23738 | 10.34573 | 53° | 78km/h | 15184m | -8.4m/s | -56°C | 5.3% | 124.6hPa | 2.5V | 08:11:04 | 02:32:29 | 00:00:00 | |
| DK7TD | 2026-08-31 00:50:47 | 49.23727 | 10.34549 | 54° | 78km/h | 15192m | -8.6m/s | -55.9°C | 2.1% | 124.5hPa | 2.5V | 08:11:24 | 02:32:28 | 00:00:00 | |
| HSKMA3-T | 2026-08-31 00:50:44 | 49.23691 | 10.34476 | 53° | 78km/h | 15219m | -8.8m/s | -56.1°C | 2.1% | 123.9hPa | 2.6V | 08:11:24 | 02:32:25 | 00:00:00 | |
| SO1NDE-10 | 2026-08-31 00:50:43 | 49.23679 | 10.34452 | 54° | 77km/h | 15228m | -8.6m/s | -56.0°C | 5.3% | 123.8hPa | 2.5V | 00:00:00 | 02:32:24 | 00:00:00 | |
| DO3MHA-12 | 2026-08-31 00:50:42 | 49.23668 | 10.34428 | 55° | 78km/h | 15236m | -8.5m/s | -56.0°C | 5.3% | 123.6hPa | 2.5V | 08:11:00 | 02:32:23 | 00:00:00 | |
| DL1ZP-14 | 2026-08-31 00:50:40 | 49.23646 | 10.34379 | 55° | 75km/h | 15253m | -8.6m/s | -56.2°C | 2.2% | 123.3hPa | 2.5V | 00:00:00 | 00:00:00 | 00:00:00 | |
| DL1NUX | 2026-08-31 00:50:39 | 49.23577 | 10.34232 | 50° | 80km/h | 15305m | -8.7m/s | -56.5°C | 5.5% | 122.3hPa | 2.5V | 08:11:18 | 02:32:15 | 00:00:00 | |
| DK7TD | 2026-08-31 00:50:37 | 49.23613 | 10.34306 | 56° | 77km/h | 15279m | -8.7m/s | -56.4°C | 2.1% | 122.8hPa | 2.6V | 08:11:24 | 02:32:18 | 00:00:00 | |
| BIOWL1-15 | 2026-08-31 00:50:33 | 49.23535 | 10.34161 | 46° | 84km/h | 15331m | -8.8m/s | -56.6°C | 2.3% | 121.8hPa | 2.5V | 08:12:15 | 02:32:12 | 00:00:00 | |
| HSKMA3-T | 2026-08-31 00:50:33 | 49.23564 | 10.34208 | 49° | 82km/h | 15314m | -8.8m/s | -56.6°C | 2.1% | 122.1hPa | 2.6V | 08:11:24 | 02:32:14 | 00:00:00 | |
| DO3MHA-12 | 2026-08-31 00:50:32 | 49.23550 | 10.34184 | 48° | 82km/h | 15323m | -8.7m/s | -56.5°C | 5.6% | 121.9hPa | 2.5V | 00:00:00 | 02:32:13 | 00:00:00 | |
| DM0DOS-11 | 2026-08-31 00:50:29 | 49.23489 | 10.34093 | 40° | 84km/h | 15357m | -8.7m/s | -56.6°C | 5.7% | 121.3hPa | 2.5V | 08:11:24 | 02:32:09 | 00:00:00 | |
| DK7TD | 2026-08-31 00:50:26 | 49.23456 | 10.34053 | 37° | 82km/h | 15374m | -8.5m/s | -56.6°C | 2.3% | 120.9hPa | 2.5V | 08:12:15 | 02:32:07 | 00:00:00 | |
| BIOWL1-15 | 2026-08-31 00:50:23 | 49.23229 | 10.33732 | 61° | 69km/h | 15529m | -9m/s | -56.1°C | 1.8% | 118hPa | 2.5V | 08:12:15 | 02:31:49 | 00:00:00 | |
| DM0DOS-11 | 2026-08-31 00:50:23 | 49.23338 | 10.33920 | 38° | 68km/h | 15441m | -8.7m/s | -56.7°C | 5.6% | 119.7hPa | 2.5V | 08:11:34 | 02:31:59 | 00:00:00 | |
| HSKMA3-T | 2026-08-31 00:50:22 | 49.23393 | 10.33984 | 36° | 71km/h | 15408m | -8.4m/s | -56.7°C | 2.2% | 120.3hPa | 2.5V | 08:12:15 | 02:32:03 | 00:00:00 | |
| DO3MHA-12 | 2026-08-31 00:50:22 | 49.23393 | 10.33984 | 36° | 68km/h | 15408m | -8.4m/s | -56.7°C | 5.6% | 120.3hPa | 2.6V | 00:00:00 | 02:32:03 | 00:00:00 | |
| DB0ND-19 | 2026-08-31 00:50:20 | 49.23338 | 10.33920 | 38° | 68km/h | 15441m | -8.7m/s | -56.7°C | 2.3% | 119.7hPa | 2.6V | 00:00:00 | 00:00:00 | 00:00:00 | |
| DL1NUX | 2026-08-31 00:50:19 | 49.23287 | 10.33853 | 44° | 66km/h | 15476m | -8.7m/s | -56.1°C | 5.1% | 119hPa | 2.6V | 08:11:38 | 02:31:55 | 00:00:00 | |
| DK7TD | 2026-08-31 00:50:16 | 49.23312 | 10.33887 | 41° | 66km/h | 15459m | -8.9m/s | -56.3°C | 2% | 119.4hPa | 2.5V | 08:12:15 | 02:31:57 | 00:00:00 | |
| DB0UT-7 | 2026-08-31 00:50:15 | 49.23299 | 10.33870 | 43° | 82km/h | 15468m | -8.7m/s | -56.2°C | 5.2% | 119.1hPa | 2.5V | 00:00:00 | 02:31:56 | 00:00:00 | |
| SO1NDE-10 | 2026-08-31 00:50:13 | 49.23276 | 10.33835 | 48° | 82km/h | 15485m | -8.8m/s | -56.0°C | 5.1% | 118.8hPa | 2.5V | 00:00:00 | 02:31:54 | 00:00:00 | |
| DM0DOS-11 | 2026-08-31 00:50:12 | 49.23229 | 10.33732 | 60° | 69km/h | 15529m | -8.9m/s | -56.1°C | 5.1% | 118hPa | 2.5V | 08:11:44 | 02:31:49 | 00:00:00 | |
| HSKMA3-T | 2026-08-31 00:50:11 | 49.23256 | 10.33797 | 54° | 64km/h | 15502m | -8.7m/s | -56.1°C | 1.8% | 118.6hPa | 2.5V | 08:12:15 | 02:31:52 | 00:00:00 | |
| DK7TD | 2026-08-31 00:50:06 | 49.23212 | 10.33682 | 64° | 77km/h | 15546m | -9m/s | -56.2°C | 1.7% | 117.7hPa | 2.5V | 08:12:15 | 02:31:47 | 00:00:00 | |
| DJ8HS-15 | 2026-08-31 00:50:05 | 49.23203 | 10.33654 | 65° | 89km/h | 15555m | -8.7m/s | -56.1°C | 5.0% | 117.5hPa | 2.6V | 00:00:00 | 02:31:46 | 00:00:00 | |
| DM0DOS-11 | 2026-08-31 00:50:02 | 49.23129 | 10.33433 | 57° | 99km/h | 15618m | -8.4m/s | -56.5°C | 5.1% | 116.4hPa | 2.6V | 08:11:54 | 02:31:39 | 00:00:00 | |
| HSKMA3-T | 2026-08-31 00:50:00 | 49.23154 | 10.33498 | 62° | 97km/h | 15601m | -9.2m/s | -56.4°C | 1.7% | 116.7hPa | 2.5V | 08:12:15 | 02:31:41 | 00:00:00 | |
| DL1NUX | 2026-08-31 00:49:59 | 49.23069 | 10.33318 | 47° | 93km/h | 15652m | -9m/s | -56.6°C | 5.1% | 115.8hPa | 2.5V | 08:11:58 | 02:31:35 | 00:00:00 | |
| DK7TD | 2026-08-31 00:49:55 | 49.23085 | 10.33345 | 49° | 95km/h | 15643m | -8.9m/s | -56.7°C | 1.6% | 115.9hPa | 2.5V | 08:12:15 | 02:31:36 | 00:00:00 | |
| NBG1-10 | 2026-08-31 00:49:53 | 49.23053 | 10.33292 | 48° | 77km/h | 15662m | -8.7m/s | -56.5°C | 5.1% | 115.6hPa | 2.5V | 00:00:00 | 02:31:34 | 00:00:00 | |
| DM0DOS-11 | 2026-08-31 00:49:52 | 49.22981 | 10.33166 | 51° | 77km/h | 15706m | -8.9m/s | -56.6°C | 5% | 114.8hPa | 2.5V | 08:12:04 | 02:31:29 | 00:00:00 | |
| HSKMA3-T | 2026-08-31 00:49:49 | 49.22994 | 10.33190 | 50° | 82km/h | 15697m | -8.8m/s | -56.5°C | 1.5% | 115hPa | 2.5V | 08:12:15 | 02:31:30 | 00:00:00 | |
| BIOWL1-15 | 2026-08-31 00:49:48 | 49.22981 | 10.33166 | 51° | 77km/h | 15706m | -9m/s | -56.6°C | 1.5% | 114.8hPa | 2.5V | 08:12:15 | 02:31:29 | 00:00:00 | |
| DK7TD | 2026-08-31 00:49:44 | 49.22941 | 10.33073 | 63° | 69km/h | 15741m | -8.8m/s | -56.8°C | 1.5% | 114.1hPa | 2.5V | 08:12:15 | 02:31:25 | 00:00:00 | |
| SO1NDE-10 | 2026-08-31 00:49:43 | 49.22933 | 10.33049 | 65° | 75km/h | 15750m | -8.7m/s | -56.8°C | 5.0% | 113.9hPa | 2.5V | 00:00:00 | 02:31:24 | 00:00:00 | |
| DM0DOS-11 | 2026-08-31 00:49:42 | 49.22899 | 10.32923 | 70° | 71km/h | 15795m | -8.9m/s | -57.1°C | 5.1% | 113.2hPa | 2.5V | 08:12:14 | 02:31:19 | 00:00:00 | |
| DO3MHA-12 | 2026-08-31 00:49:42 | 49.22926 | 10.33024 | 66° | 73km/h | 15759m | -8.9m/s | -56.9°C | 5.0% | 113.8hPa | 2.5V | 00:00:00 | 02:31:23 | 00:00:00 | |
| DF7PN | 2026-08-31 00:49:40 | 49.22912 | 10.32975 | 67° | 69km/h | 15777m | -9.0m/s | -57.1°C | 1.9% | 113.5hPa | 2.5V | 00:00:00 | 00:00:00 | 00:00:00 | |
| DL1NUX | 2026-08-31 00:49:39 | 49.22874 | 10.32815 | 72° | 77km/h | 15830m | -8.9m/s | -57.1°C | 5.1% | 112.6hPa | 2.5V | 08:12:18 | 02:31:15 | 00:00:00 | |
| HSKMA3-T | 2026-08-31 00:49:39 | 49.22905 | 10.32949 | 68° | 71km/h | 15786m | -8.9m/s | -57.1°C | 1.5% | 113.4hPa | 2.5V | 08:12:15 | 02:31:20 | 00:00:00 | |
| DK7TD | 2026-08-31 00:49:33 | 49.22868 | 10.32786 | 72° | 78km/h | 15839m | -9m/s | -57.2°C | 1.4% | 112.5hPa | 2.5V | 08:13:06 | 02:31:14 | 00:00:00 | |
| DO3MHA-12 | 2026-08-31 00:49:32 | 49.22863 | 10.32757 | 74° | 80km/h | 15848m | -8.8m/s | -57.2°C | 5.1% | 112.2hPa | 2.6V | 00:00:00 | 02:31:13 | 00:00:00 | |
| DL1NUX | 2026-08-31 00:49:30 | 49.22809 | 10.32493 | 70° | 78km/h | 15929m | -9.2m/s | -57.3°C | 5.1% | 110.9hPa | 2.6V | 08:12:29 | 02:31:04 | 00:00:00 | |
| DM0DOS-11 | 2026-08-31 00:49:30 | 49.22840 | 10.32639 | 73° | 80km/h | 15884m | -9.1m/s | -57.4°C | 5.2% | 111.6hPa | 2.5V | 08:12:24 | 02:31:09 | 00:00:00 | |
| HSKMA3-T | 2026-08-31 00:49:28 | 49.22840 | 10.32639 | 74° | 80km/h | 15884m | -9.1m/s | -57.4°C | 1.3% | 111.6hPa | 2.5V | 08:13:06 | 02:31:09 | 00:00:00 | |
| BIOWL1-15 | 2026-08-31 00:49:24 | 49.22790 | 10.32409 | 72° | 75km/h | 15957m | -9.1m/s | -57.2°C | 1.2% | 110.3hPa | 2.5V | 08:13:06 | 02:31:01 | 00:00:00 | |
| DK7TD | 2026-08-31 00:49:23 | 49.22809 | 10.32493 | 70° | 78km/h | 15929m | -9.2m/s | -57.3°C | 1.2% | 110.9hPa | 2.6V | 08:13:06 | 02:31:04 | 00:00:00 | |
| HSKMA3-T | 2026-08-31 00:49:17 | 49.22775 | 10.32329 | 76° | 68km/h | 15984m | -9.3m/s | -56.6°C | 0.9% | 109.8hPa | 2.6V | 08:13:06 | 02:30:58 | 00:00:00 | |
| DK7TD | 2026-08-31 00:49:13 | 49.22765 | 10.32231 | 88° | 64km/h | 16022m | -9.3m/s | -56.4°C | 0.9% | 109.2hPa | 2.6V | 08:13:06 | 02:30:54 | 00:00:00 | |
| BIOWL1-15 | 2026-08-31 00:49:09 | 49.22770 | 10.32004 | 86° | 82km/h | 16095m | -9m/s | -56.3°C | 0.9% | 108hPa | 2.5V | 08:13:06 | 02:30:46 | 00:00:00 | |
| HSKMA3-T | 2026-08-31 00:49:07 | 49.22770 | 10.32066 | 91° | 80km/h | 16077m | -9.3m/s | -56.4°C | 0.9% | 108.3hPa | 2.6V | 08:13:06 | 02:30:48 | 00:00:00 | |
| DJ8HS-15 | 2026-08-31 00:49:05 | 49.22769 | 10.32004 | 86° | 69km/h | 16095m | -8.9m/s | -56.3°C | 4.7% | 108.0hPa | 2.5V | 00:00:00 | 02:30:46 | 00:00:00 | |
| DN1GJH-1 | 2026-08-31 00:49:04 | 49.22769 | 10.32004 | 87° | 82km/h | 16095m | -9.0m/s | -56.3°C | 1.5% | 108.0hPa | 2.5V | 00:00:00 | 00:00:00 | 00:00:00 | |
| DL1NUX | 2026-08-31 00:49:03 | 49.22764 | 10.31940 | 78° | 82km/h | 16113m | -9.2m/s | -56.2°C | 4.6% | 107.7hPa | 2.5V | 08:12:49 | 02:30:44 | 00:00:00 | |
| DK7TD | 2026-08-31 00:49:02 | 49.22759 | 10.31910 | 76° | 80km/h | 16122m | -9.3m/s | -56.1°C | 0.8% | 107.6hPa | 2.5V | 08:13:06 | 02:30:43 | 00:00:00 | |
| BIOWL1-15 | 2026-08-31 00:48:59 | 49.22719 | 10.31741 | 63° | 75km/h | 16178m | -9.7m/s | -56.2°C | 0.7% | 106.6hPa | 2.6V | 08:13:06 | 02:30:37 | 00:00:00 | |
| DL1NUX | 2026-08-31 00:48:58 | 49.22691 | 10.31670 | 55° | 68km/h | 16207m | -9.7m/s | -56.3°C | 4.6% | 106.1hPa | 2.5V | 08:12:59 | 02:30:34 | 00:00:00 | |
| HSKMA3-T | 2026-08-31 00:48:57 | 49.22727 | 10.31767 | 65° | 75km/h | 16169m | -9.5m/s | -56.2°C | 0.8% | 106.7hPa | 2.5V | 08:13:06 | 02:30:38 | 00:00:00 | |
| DM0DOS-11 | 2026-08-31 00:48:56 | 49.22682 | 10.31649 | 53° | 64km/h | 16217m | -9.3m/s | -56.4°C | 4.7% | 106hPa | 2.5V | 08:13:00 | 02:30:33 | 00:00:00 | |
| DK7TD | 2026-08-31 00:48:52 | 49.22682 | 10.31649 | 54° | 64km/h | 16217m | -9.3m/s | -56.4°C | 0.8% | 106hPa | 2.5V | 08:13:06 | 02:30:33 | 00:00:00 | |
| BIOWL1-15 | 2026-08-31 00:48:47 | 49.22625 | 10.31539 | 60° | 42km/h | 16282m | -9.1m/s | -55.6°C | 0.6% | 104.9hPa | 2.5V | 08:13:57 | 02:30:26 | 00:00:00 | |
| HSKMA3-T | 2026-08-31 00:48:46 | 49.22631 | 10.31553 | 55° | 44km/h | 16273m | -9.1m/s | -55.6°C | 0.7% | 105hPa | 2.5V | 08:13:06 | 02:30:27 | 00:00:00 | |
| DM0DOS-11 | 2026-08-31 00:48:45 | 49.22610 | 10.31495 | 65° | 44km/h | 16309m | -9.4m/s | -55.7°C | 4.5% | 104.5hPa | 2.5V | 08:13:10 | 02:30:23 | 00:00:00 | |
| DC4HF-4 | 2026-08-31 00:48:44 | 49.22620 | 10.31525 | 62° | 42km/h | 16291m | -9.1m/s | -55.7°C | 1.4% | 104.7hPa | 2.6V | 00:00:00 | 00:00:00 | 00:00:00 | |
| DL1NUX | 2026-08-31 00:48:43 | 49.22615 | 10.31510 | 63° | 42km/h | 16300m | -9.4m/s | -55.7°C | 4.5% | 104.5hPa | 2.6V | 08:13:09 | 02:30:24 | 00:00:00 | |
| DK7TD | 2026-08-31 00:48:41 | 49.22606 | 10.31480 | 67° | 44km/h | 16319m | -9.3m/s | -55.8°C | 0.7% | 104.2hPa | 2.5V | 08:13:57 | 02:30:22 | 00:00:00 | |
| DL1NUX | 2026-08-31 00:48:38 | 49.22570 | 10.31361 | 60° | 40km/h | 16394m | -9.4m/s | -55.2°C | 4.4% | 103hPa | 2.6V | 08:13:19 | 02:30:14 | 00:00:00 | |
| BIOWL1-15 | 2026-08-31 00:48:35 | 49.22575 | 10.31375 | 62° | 42km/h | 16385m | -9.7m/s | -55.4°C | 0.6% | 103.2hPa | 2.5V | 08:13:57 | 02:30:15 | 00:00:00 | |
| HSKMA3-T | 2026-08-31 00:48:35 | 49.22580 | 10.31390 | 65° | 42km/h | 16375m | -9.4m/s | -55.6°C | 0.6% | 103.4hPa | 2.5V | 08:13:57 | 02:30:16 | 00:00:00 | |
| DM0DOS-11 | 2026-08-31 00:48:33 | 49.22560 | 10.31335 | 56° | 38km/h | 16413m | -9.4m/s | -54.8°C | 4.2% | 102.7hPa | 2.5V | 08:13:21 | 02:30:12 | 00:00:00 | |
| DK7TD | 2026-08-31 00:48:31 | 49.22560 | 10.31335 | 57° | 38km/h | 16413m | -9.4m/s | -54.8°C | 0.5% | 102.7hPa | 2.5V | 08:13:57 | 02:30:12 | 00:00:00 | |
| DL1NUX | 2026-08-31 00:48:28 | 49.22529 | 10.31246 | 81° | 35km/h | 16491m | -9.9m/s | -54°C | 4% | 101.4hPa | 2.5V | 08:13:29 | 02:30:04 | 00:00:00 | |
| DF3TZ-5 | 2026-08-31 00:48:28 | 49.22540 | 10.31291 | 59° | 31km/h | 16452m | -9.7m/s | -54.1°C | 1.1% | 102.1hPa | 2.6V | 00:00:00 | 00:00:00 | 00:00:00 | |
| DM0DOS-11 | 2026-08-31 00:48:26 | 49.22527 | 10.31217 | 82° | 40km/h | 16510m | -9.5m/s | -53.8°C | 4% | 101.2hPa | 2.6V | 08:13:31 | 02:30:02 | 00:00:00 | |
| HSKMA3-T | 2026-08-31 00:48:25 | 49.22533 | 10.31269 | 69° | 31km/h | 16471m | -9.9m/s | -54°C | 0.3% | 101.8hPa | 2.5V | 08:13:57 | 02:30:06 | 00:00:00 | |
| BIOWL1-15 | 2026-08-31 00:48:25 | 49.22531 | 10.31258 | 76° | 31km/h | 16481m | -10m/s | -54°C | 0.3% | 101.7hPa | 2.5V | 08:13:57 | 02:30:05 | 00:00:00 | |
| DK7TD | 2026-08-31 00:48:20 | 49.22525 | 10.31201 | 81° | 46km/h | 16520m | -9.5m/s | -53.8°C | 0.3% | 101hPa | 2.5V | 08:13:57 | 02:30:01 | 00:00:00 | |
| DB0UT-7 | 2026-08-31 00:48:20 | 49.22525 | 10.31201 | 82° | 42km/h | 16520m | -9.4m/s | -53.7°C | 4.0% | 101.0hPa | 2.5V | 00:00:00 | 00:00:00 | 00:00:00 | |
| DL1NUX | 2026-08-31 00:48:18 | 49.22495 | 10.31069 | 65° | 49km/h | 16586m | -9.9m/s | -53.4°C | 3.9% | 100hPa | 2.5V | 08:13:39 | 02:29:54 | 00:00:00 | |
| HSKMA3-T | 2026-08-31 00:48:14 | 49.22501 | 10.31087 | 65° | 51km/h | 16577m | -9.7m/s | -53.6°C | 0.3% | 100.2hPa | 2.5V | 08:13:57 | 02:29:55 | 00:00:00 | |
| BIOWL1-15 | 2026-08-31 00:48:13 | 49.22490 | 10.31051 | 66° | 49km/h | 16596m | -9.7m/s | -53.3°C | 0.3% | 99.9hPa | 2.5V | 08:13:57 | 02:29:53 | 00:00:00 | |
| DK7TD | 2026-08-31 00:48:10 | 49.22480 | 10.31017 | 66° | 47km/h | 16616m | -9.7m/s | -53°C | 0.2% | 99.6hPa | 2.6V | 08:13:57 | 02:29:51 | 00:00:00 | |
| HSKMA3-T | 2026-08-31 00:48:04 | 49.22452 | 10.30927 | 61° | 38km/h | 16675m | -9.9m/s | -52.3°C | 0.1% | 98.7hPa | 2.6V | 08:13:57 | 02:29:45 | 00:00:00 | |
| DL1NUX | 2026-08-31 00:48:03 | 49.22447 | 10.30914 | 59° | 37km/h | 16685m | -10m/s | -52.4°C | 3.5% | 98.5hPa | 2.5V | 08:13:49 | 02:29:44 | 00:00:00 | |
| DK7TD | 2026-08-31 00:48:00 | 49.22433 | 10.30881 | 54° | 33km/h | 16714m | -9.5m/s | -52.5°C | 0.1% | 98.1hPa | 2.5V | 08:13:57 | 02:29:41 | 00:00:00 | |
| DM0DOS-11 | 2026-08-31 00:47:59 | 49.22418 | 10.30851 | 50° | 33km/h | 16744m | -10.2m/s | -52.7°C | 3.6% | 97.7hPa | 2.5V | 08:13:55 | 02:29:38 | 00:00:00 | |
| DN1GJH-1 | 2026-08-31 00:47:59 | 49.22433 | 10.30881 | 55° | 33km/h | 16715m | -9.5m/s | -52.5°C | 1.0% | 98.1hPa | 2.6V | 08:13:00 | 00:00:00 | 00:00:00 | |
| DL1NUX | 2026-08-31 00:47:58 | 49.22394 | 10.30809 | 47° | 40km/h | 16784m | -9.8m/s | -52.8°C | 3.5% | 97hPa | 2.6V | 08:13:59 | 02:29:34 | 00:00:00 | |
| BIOWL1-15 | 2026-08-31 00:47:58 | 49.22400 | 10.30820 | 49° | 38km/h | 16774m | -9.6m/s | -52.8°C | 0.1% | 97.1hPa | 2.5V | 08:14:48 | 02:29:35 | 00:00:00 | |
| HSKMA3-T | 2026-08-31 00:47:53 | 49.22394 | 10.30809 | 48° | 40km/h | 16784m | -9.8m/s | -52.8°C | 0.1% | 97hPa | 2.6V | 08:14:48 | 02:29:34 | 00:00:00 | |
| DK7TD | 2026-08-31 00:47:50 | 49.22371 | 10.30772 | 47° | 46km/h | 16814m | -9.6m/s | -52.9°C | 0.1% | 96.5hPa | 2.5V | 08:14:48 | 02:29:31 | 00:00:00 | |
| DB0UT-7 | 2026-08-31 00:47:50 | 49.22371 | 10.30772 | 47° | 53km/h | 16814m | -9.6m/s | -52.8°C | 3.5% | 96.5hPa | 2.5V | 00:00:00 | 02:29:31 | 00:00:00 | |
| DL1NUX | 2026-08-31 00:47:48 | 49.22298 | 10.30677 | 33° | 62km/h | 16882m | -9.6m/s | -53.2°C | 3.6% | 95.5hPa | 2.5V | 08:14:09 | 02:29:24 | 00:00:00 | |
| BIOWL1-15 | 2026-08-31 00:47:46 | 49.22311 | 10.30690 | 36° | 60km/h | 16873m | -9.6m/s | -53.1°C | 0.1% | 95.7hPa | 2.5V | 08:14:48 | 02:29:25 | 00:00:00 | |
| EDDB2-11 | 2026-08-31 00:47:46 | 49.22323 | 10.30704 | 38° | 57km/h | 16863m | -9.7m/s | -53.1°C | 1.0% | 95.8hPa | 2.6V | 00:00:00 | 00:00:00 | 00:00:00 | |
| DB0ND-19 | 2026-08-31 00:47:45 | 49.22311 | 10.30690 | 36° | 60km/h | 16873m | -9.6m/s | -53.1°C | 1.0% | 95.7hPa | 2.6V | 00:00:00 | 00:00:00 | 00:00:00 | |
| HSKMA3-T | 2026-08-31 00:47:43 | 49.22284 | 10.30663 | 31° | 64km/h | 16892m | -9.6m/s | -53.2°C | 0.1% | 95.4hPa | 2.6V | 08:14:48 | 02:29:23 | 00:00:00 | |
| DK7TD | 2026-08-31 00:47:40 | 49.22241 | 10.30628 | 24° | 64km/h | 16921m | -9.5m/s | -53.5°C | 0.1% | 95hPa | 2.5V | 08:14:48 | 02:29:20 | 00:00:00 | |
| DL1NUX | 2026-08-31 00:47:38 | 49.22160 | 10.30584 | 16° | 46km/h | 16978m | -8.8m/s | -53.8°C | 3.8% | 94.2hPa | 2.5V | 08:14:19 | 02:29:14 | 00:00:00 | |
| HSKMA3-T | 2026-08-31 00:47:33 | 49.22160 | 10.30584 | 17° | 46km/h | 16978m | -8.8m/s | -53.8°C | 0.2% | 94.2hPa | 2.5V | 08:14:48 | 02:29:14 | 00:00:00 | |
| BIOWL1-15 | 2026-08-31 00:47:33 | 49.22149 | 10.30579 | 17° | 44km/h | 16987m | -9.3m/s | -53.8°C | 0.2% | 94hPa | 2.5V | 08:14:48 | 02:29:13 | 00:00:00 | |
| DK7TD | 2026-08-31 00:47:29 | 49.22118 | 10.30565 | 17° | 40km/h | 17015m | -9.5m/s | -54°C | 0.2% | 93.6hPa | 2.5V | 08:14:48 | 02:29:10 | 00:00:00 | |
| HSKMA3-T | 2026-08-31 00:47:23 | 49.22068 | 10.30532 | 37° | 35km/h | 17072m | -9.6m/s | -54.4°C | 0.3% | 92.7hPa | 2.5V | 08:14:48 | 02:29:04 | 00:00:00 | |
| DK7TD | 2026-08-31 00:47:18 | 49.22039 | 10.30476 | 59° | 38km/h | 17119m | -9.3m/s | -54.6°C | 0.3% | 92.1hPa | 2.6V | 08:14:48 | 02:28:59 | 00:00:00 | |
| HSKMA3-T | 2026-08-31 00:47:13 | 49.22016 | 10.30410 | 68° | 40km/h | 17166m | -9.5m/s | -54.8°C | 0.4% | 91.4hPa | 2.6V | 08:14:48 | 02:28:54 | 00:00:00 | |
| BIOWL1-15 | 2026-08-31 00:47:12 | 49.21986 | 10.30250 | 79° | 47km/h | 17262m | -9.6m/s | -54.9°C | 0.4% | 90hPa | 2.5V | 08:15:39 | 02:28:44 | 00:00:00 | |
| DK7TD | 2026-08-31 00:47:07 | 49.21996 | 10.30317 | 77° | 44km/h | 17223m | -9.9m/s | -54.8°C | 0.4% | 90.6hPa | 2.6V | 08:14:48 | 02:28:48 | 00:00:00 | |
| DJ8HS-15 | 2026-08-31 00:47:05 | 49.21991 | 10.30284 | 79° | 57km/h | 17243m | -9.7m/s | -54.8°C | 4.0% | 90.3hPa | 2.5V | 00:00:00 | 02:28:46 | 00:00:00 | |
| DL1NUX | 2026-08-31 00:47:03 | 49.21986 | 10.30250 | 78° | 47km/h | 17262m | -9.6m/s | -54.9°C | 4.1% | 90hPa | 2.5V | 08:14:49 | 02:28:44 | 00:00:00 | |
| HSKMA3-T | 2026-08-31 00:47:02 | 49.21983 | 10.30231 | 77° | 49km/h | 17272m | -9.6m/s | -54.9°C | 0.4% | 89.9hPa | 2.6V | 08:15:39 | 02:28:43 | 00:00:00 | |
| DO3MHA-12 | 2026-08-31 00:47:02 | 49.21983 | 10.30231 | 78° | 58km/h | 17272m | -9.5m/s | -54.9°C | 4.1% | 89.8hPa | 2.5V | 00:00:00 | 02:28:43 | 00:00:00 | |
| DM0DOS-11 | 2026-08-31 00:47:00 | 49.21951 | 10.30085 | 68° | 60km/h | 17339m | -9.8m/s | -54.9°C | 4.1% | 89hPa | 2.5V | 08:14:57 | 02:28:36 | 00:00:00 | |
| OE5DRO-10 | 2026-08-31 00:46:59 | 49.21972 | 10.30171 | 73° | 57km/h | 17300m | -9.6m/s | -54.9°C | 4.1% | 89.5hPa | 2.5V | 00:00:00 | 00:00:00 | 00:00:00 | |
| DL1NUX | 2026-08-31 00:46:58 | 49.21939 | 10.30042 | 69° | 60km/h | 17358m | -9.7m/s | -54.9°C | 4.1% | 88.7hPa | 2.5V | 08:14:59 | 02:28:34 | 00:00:00 | |
| DK7TD | 2026-08-31 00:46:57 | 49.21962 | 10.30128 | 70° | 58km/h | 17319m | -9.4m/s | -54.9°C | 0.4% | 89.2hPa | 2.6V | 08:15:39 | 02:28:38 | 00:00:00 | |
| HSKMA3-T | 2026-08-31 00:46:51 | 49.21929 | 10.29998 | 72° | 60km/h | 17377m | -9.7m/s | -54.8°C | 0.3% | 88.4hPa | 2.6V | 08:15:39 | 02:28:32 | 00:00:00 | |
| DB0UT-7 | 2026-08-31 00:46:49 | 49.21920 | 10.29955 | 76° | 42km/h | 17397m | -10.0m/s | -54.7°C | 4.0% | 88.1hPa | 2.5V | 00:00:00 | 02:28:30 | 00:00:00 | |
| DL1NUX | 2026-08-31 00:46:48 | 49.21904 | 10.29834 | 81° | 47km/h | 17457m | -9.8m/s | -54.9°C | 4.1% | 87.4hPa | 2.5V | 08:15:09 | 02:28:24 | 00:00:00 | |
| DK7TD | 2026-08-31 00:46:46 | 49.21911 | 10.29891 | 78° | 53km/h | 17427m | -9.7m/s | -54.8°C | 0.3% | 87.7hPa | 2.5V | 08:15:39 | 02:28:27 | 00:00:00 | |
| HSKMA3-T | 2026-08-31 00:46:40 | 49.21893 | 10.29744 | 78° | 47km/h | 17506m | -9.9m/s | -54.8°C | 0.4% | 86.7hPa | 2.5V | 08:15:39 | 02:28:19 | 00:00:00 | |
| SONCRA | 2026-08-31 00:46:40 | 49.21895 | 10.29762 | 78° | 46km/h | 17496m | -10.0m/s | -54.8°C | 1.1% | 86.8hPa | 2.6V | 00:00:00 | 00:00:00 | 00:00:00 | |
| DL1NUX | 2026-08-31 00:46:38 | 49.21882 | 10.29661 | 81° | 40km/h | 17557m | -10.4m/s | -54.7°C | 4.1% | 86hPa | 2.6V | 08:15:19 | 02:28:14 | 00:00:00 | |
| DK7TD | 2026-08-31 00:46:35 | 49.21886 | 10.29693 | 79° | 44km/h | 17537m | -10.1m/s | -54.7°C | 0.4% | 86.3hPa | 2.5V | 08:15:39 | 02:28:16 | 00:00:00 | |
| HSKMA3-T | 2026-08-31 00:46:30 | 49.21876 | 10.29601 | 80° | 37km/h | 17598m | -10.1m/s | -54.7°C | 0.3% | 85.4hPa | 2.5V | 08:15:39 | 02:28:10 | 00:00:00 | |
| DK7TD | 2026-08-31 00:46:25 | 49.21869 | 10.29549 | 76° | 31km/h | 17638m | -10m/s | -54.2°C | 0.3% | 84.9hPa | 2.5V | 08:15:39 | 02:28:06 | 00:00:00 | |
| DJ8HS-15 | 2026-08-31 00:46:25 | 49.21869 | 10.29549 | 76° | 29km/h | 17638m | -10.0m/s | -54.1°C | 4.0% | 84.8hPa | 2.6V | 00:00:00 | 02:28:06 | 00:00:00 | |
| DL1NUX | 2026-08-31 00:46:24 | 49.21865 | 10.29527 | 71° | 29km/h | 17658m | -10m/s | -54°C | 3.9% | 84.6hPa | 2.6V | 08:15:29 | 02:28:04 | 00:00:00 | |
| HSKMA3-T | 2026-08-31 00:46:19 | 49.21855 | 10.29486 | 73° | 27km/h | 17698m | -10m/s | -53.8°C | 0.2% | 84.1hPa | 2.5V | 08:15:39 | 02:28:00 | 00:00:00 | |
| DB0UT-7 | 2026-08-31 00:46:19 | 49.21855 | 10.29486 | 74° | 37km/h | 17698m | -10.0m/s | -53.7°C | 3.8% | 84.0hPa | 2.5V | 08:15:00 | 00:00:00 | 00:00:00 | |
| DL1NUX | 2026-08-31 00:46:18 | 49.21847 | 10.29422 | 84° | 29km/h | 17759m | -10.2m/s | -54.1°C | 3.9% | 83.3hPa | 2.5V | 08:15:39 | 02:27:54 | 00:00:00 | |
| DK7TD | 2026-08-31 00:46:14 | 49.21848 | 10.29433 | 83° | 29km/h | 17749m | -10.3m/s | -54.1°C | 0.3% | 83.4hPa | 2.5V | 08:15:39 | 02:27:55 | 00:00:00 | |
| DF8AY | 2026-08-31 00:46:13 | 49.21847 | 10.29422 | 84° | 29km/h | 17759m | -10.2m/s | -54.1°C | 0.3% | 83.3hPa | 2.5V | 08:15:39 | 02:27:54 | 00:00:00 | |
| DB0ND-19 | 2026-08-31 00:46:12 | 49.21846 | 10.29400 | 87° | 27km/h | 17780m | -10.3m/s | -54.0°C | 1.1% | 83.1hPa | 2.5V | 00:00:00 | 00:00:00 | 00:00:00 | |
| DM0DOS-11 | 2026-08-31 00:46:09 | 49.21847 | 10.29313 | 91° | 35km/h | 17853m | -10.6m/s | -54.1°C | 3.9% | 82.1hPa | 2.5V | 08:15:48 | 02:27:45 | 00:00:00 | |
| HSKMA3-T | 2026-08-31 00:46:08 | 49.21846 | 10.29365 | 92° | 31km/h | 17811m | -10.5m/s | -54°C | 0.3% | 82.6hPa | 2.5V | 08:16:30 | 02:27:49 | 00:00:00 | |
| DK7TD | 2026-08-31 00:46:03 | 49.21847 | 10.29299 | 92° | 37km/h | 17864m | -10.3m/s | -54.2°C | 0.4% | 81.9hPa | 2.5V | 08:16:30 | 02:27:44 | 00:00:00 | |
| DF8AY | 2026-08-31 00:46:02 | 49.21848 | 10.29284 | 91° | 38km/h | 17874m | -10.8m/s | -54.2°C | 0.4% | 81.8hPa | 2.5V | 08:17:21 | 02:27:43 | 00:00:00 | |
| HSKMA3-T | 2026-08-31 00:45:58 | 49.21846 | 10.29221 | 86° | 44km/h | 17917m | -10.6m/s | -53.9°C | 0.4% | 81.3hPa | 2.5V | 08:16:30 | 02:27:39 | 00:00:00 | |
| DL1NUX | 2026-08-31 00:45:58 | 49.21839 | 10.29135 | 82° | 44km/h | 17969m | -10.8m/s | -53.1°C | 3.6% | 80.6hPa | 2.5V | 08:15:59 | 02:27:34 | 00:00:00 | |
| DK7TD | 2026-08-31 00:45:53 | 49.21839 | 10.29135 | 83° | 44km/h | 17969m | -10.8m/s | -53.1°C | 0.1% | 80.6hPa | 2.5V | 08:16:30 | 02:27:34 | 00:00:00 | |
| DF8AY | 2026-08-31 00:45:51 | 49.21836 | 10.29103 | 84° | 40km/h | 17991m | -10.7m/s | -53.2°C | 0.1% | 80.4hPa | 2.5V | 08:17:21 | 02:27:32 | 00:00:00 | |
| EDDB2-12 | 2026-08-31 00:45:51 | 49.21836 | 10.29087 | 87° | 40km/h | 18001m | -10.6m/s | -53.3°C | 1.0% | 80.2hPa | 2.6V | 00:00:00 | 00:00:00 | 00:00:00 | |
| DL6DJ-15 | 2026-08-31 00:45:49 | 49.21835 | 10.29071 | 88° | 38km/h | 18012m | -10.6m/s | -53.4°C | 1.0% | 80.1hPa | 2.6V | 00:00:00 | 00:00:00 | 00:00:00 | |
| DL1NUX | 2026-08-31 00:45:48 | 49.21839 | 10.28991 | 98° | 29km/h | 18078m | -10.8m/s | -53.2°C | 3.6% | 79.3hPa | 2.6V | 08:16:09 | 02:27:24 | 00:00:00 | |
| HSKMA3-T | 2026-08-31 00:45:47 | 49.21836 | 10.29042 | 94° | 37km/h | 18033m | -11m/s | -53.4°C | 0.2% | 79.8hPa | 2.5V | 08:16:30 | 02:27:28 | 00:00:00 | |
| DC4HF-4 | 2026-08-31 00:45:44 | 49.21838 | 10.29003 | 96° | 31km/h | 18067m | -11.1m/s | -53.3°C | 1.0% | 79.3hPa | 2.6V | 00:00:00 | 00:00:00 | 00:00:00 | |
| DK7TD | 2026-08-31 00:45:42 | 49.21840 | 10.28980 | 97° | 27km/h | 18089m | -10.8m/s | -53.2°C | 0.1% | 79.1hPa | 2.6V | 08:16:30 | 02:27:23 | 00:00:00 | |
| DF8AY | 2026-08-31 00:45:40 | 49.21841 | 10.28961 | 95° | 22km/h | 18110m | -10.7m/s | -53.3°C | 0% | 78.9hPa | 2.5V | 08:17:21 | 02:27:21 | 00:00:00 | |
| SONDE2-11 | 2026-08-31 00:45:40 | 49.21841 | 10.28953 | 91° | 20km/h | 18121m | -11.0m/s | -53.4°C | 1.0% | 78.7hPa | 2.5V | 00:00:00 | 00:00:00 | 00:00:00 | |
| DL1NUX | 2026-08-31 00:45:38 | 49.21841 | 10.28911 | 92° | 18km/h | 18186m | -10.9m/s | -53.7°C | 3.7% | 78hPa | 2.5V | 08:16:19 | 02:27:14 | 00:00:00 | |
| HSKMA3-T | 2026-08-31 00:45:37 | 49.21841 | 10.28932 | 89° | 16km/h | 18153m | -10.9m/s | -53.6°C | 0.2% | 78.3hPa | 2.5V | 08:16:30 | 02:27:17 | 00:00:00 | |
| DK7TD | 2026-08-31 00:45:31 | 49.21841 | 10.28898 | 91° | 18km/h | 18207m | -11.1m/s | -53.8°C | 0.2% | 77.7hPa | 2.6V | 08:16:30 | 02:27:12 | 00:00:00 | |
| DF8AY | 2026-08-31 00:45:29 | 49.21841 | 10.28884 | 99° | 20km/h | 18229m | -10.9m/s | -54°C | 0.2% | 77.4hPa | 2.5V | 08:17:21 | 02:27:10 | 00:00:00 | |
| NBG1-10 | 2026-08-31 00:45:29 | 49.21841 | 10.28884 | 99° | 37km/h | 18229m | -10.9m/s | -53.9°C | 3.8% | 77.4hPa | 2.5V | 00:00:00 | 02:27:10 | 00:00:00 | |
| DL1NUX | 2026-08-31 00:45:28 | 49.21849 | 10.28825 | 101° | 33km/h | 18295m | -10.8m/s | -54.5°C | 3.9% | 76.6hPa | 2.5V | 08:16:29 | 02:27:04 | 00:00:00 | |
| HSKMA3-T | 2026-08-31 00:45:26 | 49.21845 | 10.28858 | 101° | 27km/h | 18262m | -11m/s | -54.2°C | 0.3% | 77hPa | 2.6V | 08:16:30 | 02:27:07 | 00:00:00 | |
| DK7TD | 2026-08-31 00:45:20 | 49.21853 | 10.28787 | 96° | 35km/h | 18328m | -10.9m/s | -54.7°C | 0.3% | 76.2hPa | 2.6V | 08:17:21 | 02:27:01 | 00:00:00 | |
| BIOWL1-15 | 2026-08-31 00:45:20 | 49.21855 | 10.28700 | 89° | 38km/h | 18393m | -11m/s | -55°C | 0.3% | 75.5hPa | 2.5V | 08:17:21 | 02:26:55 | 00:00:00 | |
| DF8AY | 2026-08-31 00:45:19 | 49.21854 | 10.28758 | 94° | 38km/h | 18349m | -11.1m/s | -54.9°C | 0.4% | 76hPa | 2.5V | 08:17:21 | 02:26:59 | 00:00:00 | |
| HSKMA3-T | 2026-08-31 00:45:16 | 49.21855 | 10.28729 | 91° | 38km/h | 18371m | -11m/s | -55°C | 0.4% | 75.7hPa | 2.6V | 08:17:21 | 02:26:57 | 00:00:00 | |
| DK7TD | 2026-08-31 00:45:10 | 49.21852 | 10.28640 | 83° | 40km/h | 18437m | -10.9m/s | -54.2°C | 0.2% | 74.9hPa | 2.6V | 08:17:21 | 02:26:51 | 00:00:00 | |
| BIOWL1-15 | 2026-08-31 00:45:06 | 49.21839 | 10.28548 | 71° | 42km/h | 18502m | -11.3m/s | -54.5°C | 0.2% | 74.2hPa | 2.6V | 08:17:21 | 02:26:45 | 00:00:00 | |
| HSKMA3-T | 2026-08-31 00:45:05 | 49.21842 | 10.28563 | 73° | 42km/h | 18491m | -11.3m/s | -54.4°C | 0.2% | 74.3hPa | 2.5V | 08:17:21 | 02:26:46 | 00:00:00 | |
| DK7TD | 2026-08-31 00:44:59 | 49.21816 | 10.28475 | 57° | 40km/h | 18557m | -11.2m/s | -55°C | 0.3% | 73.5hPa | 2.6V | 08:17:21 | 02:26:40 | 00:00:00 | |
| DF8AY | 2026-08-31 00:44:57 | 49.21804 | 10.28449 | 56° | 40km/h | 18579m | -11.6m/s | -55.1°C | 0.4% | 73.3hPa | 2.5V | 08:17:21 | 02:26:38 | 00:00:00 | |
| BIOWL1-15 | 2026-08-31 00:44:54 | 49.21789 | 10.28409 | 65° | 38km/h | 18613m | -11.6m/s | -55.4°C | 0.4% | 72.9hPa | 2.5V | 08:17:21 | 02:26:35 | 00:00:00 | |
| DK7TD | 2026-08-31 00:44:48 | 49.21771 | 10.28326 | 78° | 38km/h | 18681m | -11.2m/s | -55.6°C | 0.5% | 72.1hPa | 2.6V | 08:17:21 | 02:26:29 | 00:00:00 | |
| DL1NUX | 2026-08-31 00:44:48 | 49.21756 | 10.28254 | 65° | 40km/h | 18738m | -11.3m/s | -55.3°C | 4.3% | 71.5hPa | 2.5V | 08:17:09 | 02:26:24 | 00:00:00 | |
| DF8AY | 2026-08-31 00:44:47 | 49.21768 | 10.28311 | 76° | 38km/h | 18692m | -11.7m/s | -55.5°C | 0.5% | 72hPa | 2.6V | 08:17:21 | 02:26:28 | 00:00:00 | |
| HSKMA3-T | 2026-08-31 00:44:44 | 49.21760 | 10.28268 | 70° | 40km/h | 18727m | -11.7m/s | -55.5°C | 0.5% | 71.6hPa | 2.5V | 08:17:21 | 02:26:25 | 00:00:00 | |
| SO1NDE-10 | 2026-08-31 00:44:43 | 49.21756 | 10.28254 | 66° | 38km/h | 18738m | -11.3m/s | -55.3°C | 4.3% | 71.5hPa | 2.6V | 00:00:00 | 02:26:24 | 00:00:00 | |
| DO3MHA-12 | 2026-08-31 00:44:42 | 49.21752 | 10.28240 | 62° | 40km/h | 18750m | -11.4m/s | -55.1°C | 4.3% | 71.3hPa | 2.6V | 08:17:00 | 02:26:23 | 00:00:00 | |
| DB0ND-19 | 2026-08-31 00:44:39 | 49.21731 | 10.28185 | 54° | 40km/h | 18795m | -11.5m/s | -54.7°C | 1.1% | 70.8hPa | 2.5V | 00:00:00 | 00:00:00 | 00:00:00 | |
| DL1NUX | 2026-08-31 00:44:38 | 49.21701 | 10.28124 | 48° | 37km/h | 18851m | -11.1m/s | -53.9°C | 3.8% | 70.2hPa | 2.5V | 08:17:19 | 02:26:14 | 00:00:00 | |
| BIOWL1-15 | 2026-08-31 00:44:38 | 49.21731 | 10.28185 | 55° | 40km/h | 18795m | -11.5m/s | -54.7°C | 0.5% | 70.8hPa | 2.5V | 08:17:21 | 02:26:19 | 00:00:00 | |
| DK7TD | 2026-08-31 00:44:37 | 49.21724 | 10.28172 | 54° | 40km/h | 18806m | -11.1m/s | -54.7°C | 0.4% | 70.7hPa | 2.6V | 08:17:21 | 02:26:18 | 00:00:00 | |
| DF8AY | 2026-08-31 00:44:37 | 49.21719 | 10.28159 | 56° | 38km/h | 18817m | -11.2m/s | -54.6°C | 0.4% | 70.6hPa | 2.6V | 08:17:21 | 02:26:17 | 00:00:00 | |
| HSKMA3-T | 2026-08-31 00:44:33 | 49.21701 | 10.28124 | 48° | 37km/h | 18851m | -11.1m/s | -53.9°C | 0.2% | 70.2hPa | 2.5V | 08:17:21 | 02:26:14 | 00:00:00 | |
| DC4HF-4 | 2026-08-31 00:44:33 | 49.21695 | 10.28114 | 51° | 35km/h | 18863m | -11.1m/s | -53.9°C | 1.0% | 70.1hPa | 2.5V | 00:00:00 | 00:00:00 | 00:00:00 | |
| DO3MHA-12 | 2026-08-31 00:44:32 | 49.21695 | 10.28114 | 52° | 38km/h | 18863m | -11.1m/s | -53.8°C | 3.9% | 70.0hPa | 2.5V | 00:00:00 | 02:26:13 | 00:00:00 | |
| DF7PN | 2026-08-31 00:44:29 | 49.21678 | 10.28082 | 52° | 37km/h | 18897m | -11.1m/s | -53.9°C | 1.0% | 69.7hPa | 2.5V | 00:00:00 | 00:00:00 | 00:00:00 | |
| DL1NUX | 2026-08-31 00:44:28 | 49.21641 | 10.28012 | 50° | 38km/h | 18965m | -11.2m/s | -53.8°C | 3.8% | 69hPa | 2.5V | 08:17:29 | 02:26:04 | 00:00:00 | |
| DK7TD | 2026-08-31 00:44:26 | 49.21660 | 10.28047 | 53° | 38km/h | 18931m | -11m/s | -54°C | 0.3% | 69.4hPa | 2.6V | 08:19:03 | 02:26:07 | 00:00:00 | |
| DF8AY | 2026-08-31 00:44:26 | 49.21648 | 10.28023 | 48° | 38km/h | 18953m | -11.3m/s | -54°C | 0.4% | 69.2hPa | 2.5V | 08:18:12 | 02:26:05 | 00:00:00 | |
| HSKMA3-T | 2026-08-31 00:44:21 | 49.21628 | 10.27990 | 45° | 38km/h | 18988m | -11.8m/s | -53.4°C | 0.2% | 68.8hPa | 2.5V | 08:18:12 | 02:26:02 | 00:00:00 | |
| DF3TZ-5 | 2026-08-31 00:44:19 | 49.21614 | 10.27970 | 39° | 38km/h | 19011m | -11.5m/s | -53.4°C | 1.0% | 68.5hPa | 2.5V | 00:00:00 | 00:00:00 | 00:00:00 | |
| DL1NUX | 2026-08-31 00:44:18 | 49.21569 | 10.27909 | 47° | 40km/h | 19080m | -11.9m/s | -53.7°C | 3.7% | 67.8hPa | 2.5V | 08:17:39 | 02:25:54 | 00:00:00 | |
| DF8AY | 2026-08-31 00:44:15 | 49.21510 | 10.27773 | 56° | 37km/h | 19209m | -11.6m/s | -54.3°C | 0.2% | 66.5hPa | 2.5V | 08:18:12 | 02:25:43 | 00:00:00 | |
| DK7TD | 2026-08-31 00:44:15 | 49.21583 | 10.27930 | 41° | 40km/h | 19057m | -11.6m/s | -53.7°C | 0.2% | 68hPa | 2.6V | 08:19:03 | 02:25:56 | 00:00:00 | |
| DM0DOS-11 | 2026-08-31 00:44:14 | 49.21556 | 10.27885 | 53° | 38km/h | 19104m | -11.3m/s | -53.8°C | 3.7% | 67.5hPa | 2.5V | 08:17:41 | 02:25:52 | 00:00:00 | |
| BIOWL1-15 | 2026-08-31 00:44:14 | 49.21576 | 10.27920 | 45° | 40km/h | 19068m | -11.6m/s | -53.7°C | 0.2% | 67.9hPa | 2.6V | 08:18:12 | 02:25:55 | 00:00:00 | |
| HSKMA3-T | 2026-08-31 00:44:10 | 49.21550 | 10.27873 | 56° | 38km/h | 19115m | -11.7m/s | -53.9°C | 0.2% | 67.4hPa | 2.5V | 08:18:12 | 02:25:51 | 00:00:00 | |
| DK7TD | 2026-08-31 00:44:05 | 49.21525 | 10.27809 | 58° | 38km/h | 19173m | -11.6m/s | -54.1°C | 0.2% | 66.9hPa | 2.5V | 08:19:03 | 02:25:46 | 00:00:00 | |
| DJ8HS-15 | 2026-08-31 00:44:05 | 49.21525 | 10.27809 | 59° | 33km/h | 19174m | -11.6m/s | -54.1°C | 3.8% | 66.8hPa | 2.5V | 00:00:00 | 02:25:46 | 00:00:00 | |
| DM0DOS-11 | 2026-08-31 00:44:04 | 49.21505 | 10.27762 | 54° | 35km/h | 19220m | -11.6m/s | -54.3°C | 3.8% | 66.3hPa | 2.5V | 08:17:51 | 02:25:42 | 00:00:00 | |
| DF8AY | 2026-08-31 00:44:02 | 49.21505 | 10.27762 | 55° | 35km/h | 19220m | -11.6m/s | -54.3°C | 0.2% | 66.3hPa | 2.5V | 08:18:12 | 02:25:42 | 00:00:00 | |
| DL1XH-west | 2026-08-31 00:44:00 | 49.21500 | 10.27751 | 52° | 35km/h | 19232m | -12m/s | -54.4°C | 0.2% | 66.2hPa | 2.5V | 08:18:12 | 02:25:41 | 00:00:00 | |
| HSKMA3-T | 2026-08-31 00:43:59 | 49.21489 | 10.27730 | 48° | 35km/h | 19256m | -11.8m/s | -54.5°C | 0.2% | 66hPa | 2.6V | 08:18:12 | 02:25:39 | 00:00:00 | |
| DL1NUX | 2026-08-31 00:43:58 | 49.21459 | 10.27685 | 47° | 31km/h | 19315m | -11.4m/s | -55°C | 4% | 65.4hPa | 2.6V | 08:17:59 | 02:25:34 | 00:00:00 | |
| DF7PN | 2026-08-31 00:43:58 | 49.21489 | 10.27730 | 47° | 33km/h | 19256m | -11.8m/s | -54.5°C | 1.0% | 66.0hPa | 2.5V | 00:00:00 | 00:00:00 | 00:00:00 | |
| DL1ZP-14 | 2026-08-31 00:43:57 | 49.21477 | 10.27712 | 44° | 33km/h | 19280m | -11.8m/s | -54.7°C | 1.0% | 65.8hPa | 2.5V | 00:00:00 | 00:00:00 | 00:00:00 | |
| DC4HF-4 | 2026-08-31 00:43:56 | 49.21477 | 10.27712 | 44° | 33km/h | 19280m | -11.8m/s | -54.7°C | 1.0% | 65.8hPa | 2.5V | 00:00:00 | 00:00:00 | 00:00:00 | |
| DM0DOS-11 | 2026-08-31 00:43:54 | 49.21449 | 10.27668 | 47° | 31km/h | 19338m | -11.6m/s | -55.1°C | 4.1% | 65.2hPa | 2.5V | 08:18:01 | 02:25:32 | 00:00:00 | |
| DK7TD | 2026-08-31 00:43:54 | 49.21465 | 10.27694 | 45° | 31km/h | 19303m | -11.8m/s | -54.9°C | 0.3% | 65.5hPa | 2.5V | 08:19:03 | 02:25:35 | 00:00:00 | |
| DF8AY | 2026-08-31 00:43:50 | 49.21439 | 10.27651 | 46° | 31km/h | 19362m | -11.8m/s | -55.2°C | 0.4% | 64.9hPa | 2.5V | 08:18:12 | 02:25:30 | 00:00:00 | |
| BIOWL1-15 | 2026-08-31 00:43:48 | 49.21433 | 10.27642 | 46° | 31km/h | 19373m | -11.7m/s | -55.2°C | 0.4% | 64.8hPa | 2.5V | 08:18:12 | 02:25:29 | 00:00:00 | |
| HSKMA3-T | 2026-08-31 00:43:47 | 49.21427 | 10.27633 | 44° | 33km/h | 19385m | -11.5m/s | -55.3°C | 0.4% | 64.7hPa | 2.6V | 08:18:12 | 02:25:28 | 00:00:00 | |
| EDDB2-12 | 2026-08-31 00:43:46 | 49.21421 | 10.27624 | 44° | 33km/h | 19397m | -11.8m/s | -55.3°C | 1.1% | 64.5hPa | 2.5V | 00:00:00 | 00:00:00 | 00:00:00 | |
| DJ8HS-15 | 2026-08-31 00:43:45 | 49.21415 | 10.27614 | 44° | 37km/h | 19408m | -11.8m/s | -55.3°C | 4.1% | 64.4hPa | 2.5V | 08:18:00 | 02:25:26 | 00:00:00 | |
| DL1XH1-15 | 2026-08-31 00:43:44 | 49.21395 | 10.27584 | 46° | 38km/h | 19444m | -11.9m/s | -55.3°C | 4.1% | 64hPa | 2.6V | 08:18:10 | 02:25:23 | 00:00:00 | |
| DK7TD | 2026-08-31 00:43:44 | 49.21408 | 10.27605 | 46° | 37km/h | 19420m | -11.9m/s | -55.4°C | 0.4% | 64.3hPa | 2.5V | 08:19:03 | 02:25:25 | 00:00:00 | |
| DF8AY | 2026-08-31 00:43:39 | 49.21369 | 10.27537 | 54° | 38km/h | 19492m | -11.8m/s | -55.2°C | 0.4% | 63.6hPa | 2.5V | 08:19:54 | 02:25:19 | 00:00:00 | |
| DL1NUX | 2026-08-31 00:43:38 | 49.21345 | 10.27478 | 58° | 35km/h | 19552m | -12.1m/s | -55.5°C | 4.2% | 63hPa | 2.5V | 08:18:19 | 02:25:14 | 00:00:00 | |
| HSKMA3-T | 2026-08-31 00:43:36 | 49.21359 | 10.27513 | 59° | 37km/h | 19516m | -11.9m/s | -55.4°C | 0.4% | 63.3hPa | 2.6V | 08:19:03 | 02:25:17 | 00:00:00 | |
| BIOWL1-15 | 2026-08-31 00:43:36 | 49.21345 | 10.27478 | 59° | 35km/h | 19552m | -12.1m/s | -55.5°C | 0.5% | 63hPa | 2.5V | 08:19:03 | 02:25:14 | 00:00:00 | |
| SONDE2-11 | 2026-08-31 00:43:35 | 49.21354 | 10.27501 | 58° | 35km/h | 19528m | -12.0m/s | -55.4°C | 1.1% | 63.2hPa | 2.6V | 00:00:00 | 00:00:00 | 00:00:00 | |
| DM0DOS-11 | 2026-08-31 00:43:32 | 49.21336 | 10.27456 | 58° | 33km/h | 19576m | -11.9m/s | -55.4°C | 4.1% | 62.8hPa | 2.6V | 08:18:21 | 02:25:12 | 00:00:00 | |
| DK7TD | 2026-08-31 00:43:32 | 49.21341 | 10.27467 | 59° | 33km/h | 19564m | -11.9m/s | -55.4°C | 0.4% | 62.9hPa | 2.5V | 08:19:03 | 02:25:13 | 00:00:00 | |
| DF8AY | 2026-08-31 00:43:29 | 49.21322 | 10.27423 | 55° | 35km/h | 19612m | -12.2m/s | -55.5°C | 0.5% | 62.4hPa | 2.5V | 08:19:54 | 02:25:09 | 00:00:00 | |
| DL1NUX | 2026-08-31 00:43:28 | 49.21294 | 10.27365 | 51° | 40km/h | 19671m | -12m/s | -55.6°C | 4.2% | 61.8hPa | 2.5V | 08:18:29 | 02:25:04 | 00:00:00 | |
| DL1XH-west | 2026-08-31 00:43:27 | 49.21317 | 10.27412 | 57° | 35km/h | 19624m | -12.1m/s | -55.5°C | 0.5% | 62.3hPa | 2.5V | 08:19:03 | 02:25:08 | 00:00:00 | |
| DL1XH1-15 | 2026-08-31 00:43:25 | 49.21288 | 10.27353 | 50° | 40km/h | 19684m | -12.2m/s | -55.7°C | 4.3% | 61.7hPa | 2.5V | 08:18:30 | 02:25:03 | 00:00:00 | |
| HSKMA3-T | 2026-08-31 00:43:25 | 49.21307 | 10.27389 | 53° | 37km/h | 19648m | -11.8m/s | -55.5°C | 0.4% | 62hPa | 2.6V | 08:19:03 | 02:25:06 | 00:00:00 | |
| BIOWL1-15 | 2026-08-31 00:43:24 | 49.21301 | 10.27377 | 50° | 40km/h | 19660m | -12m/s | -55.6°C | 0.5% | 61.9hPa | 2.6V | 08:19:03 | 02:25:05 | 00:00:00 | |
| DF8AY | 2026-08-31 00:43:18 | 49.21265 | 10.27305 | 57° | 35km/h | 19733m | -12m/s | -55.9°C | 0.6% | 61.2hPa | 2.5V | 08:19:54 | 02:24:59 | 00:00:00 | |
| DL1NUX | 2026-08-31 00:43:18 | 49.21250 | 10.27256 | 77° | 22km/h | 19794m | -12.4m/s | -55.7°C | 4.4% | 60.6hPa | 2.6V | 08:18:39 | 02:24:54 | 00:00:00 | |
| DL1XH-west | 2026-08-31 00:43:16 | 49.21256 | 10.27284 | 65° | 29km/h | 19757m | -12.4m/s | -55.9°C | 0.6% | 61hPa | 2.5V | 08:19:03 | 02:24:57 | 00:00:00 | |
| BIOWL1-15 | 2026-08-31 00:43:14 | 49.21247 | 10.27223 | 83° | 18km/h | 19844m | -12.3m/s | -55.7°C | 0.5% | 60.1hPa | 2.6V | 08:19:03 | 02:24:50 | 00:00:00 | |
| HSKMA3-T | 2026-08-31 00:43:14 | 49.21252 | 10.27265 | 73° | 24km/h | 19782m | -12.4m/s | -55.9°C | 0.5% | 60.8hPa | 2.6V | 08:19:03 | 02:24:55 | 00:00:00 | |
| SO1NDE-10 | 2026-08-31 00:43:13 | 49.21250 | 10.27256 | 78° | 13km/h | 19795m | -12.4m/s | -55.6°C | 4.4% | 60.6hPa | 2.5V | 00:00:00 | 02:24:54 | 00:00:00 | |
| DO3MHA-12 | 2026-08-31 00:43:12 | 49.21249 | 10.27247 | 80° | 18km/h | 19807m | -12.5m/s | -55.6°C | 4.3% | 60.5hPa | 2.5V | 08:18:00 | 02:24:53 | 00:00:00 | |
| OE5DRO-10 | 2026-08-31 00:43:11 | 49.21248 | 10.27239 | 83° | 13km/h | 19820m | -12.3m/s | -55.6°C | 4.3% | 60.4hPa | 2.6V | 00:00:00 | 00:00:00 | 00:00:00 | |
| DL1NUX | 2026-08-31 00:43:08 | 49.21241 | 10.27188 | 58° | 11km/h | 19917m | -12.2m/s | -55.6°C | 4.4% | 59.5hPa | 2.6V | 08:18:49 | 02:24:44 | 00:00:00 | |
| DF8AY | 2026-08-31 00:43:05 | 49.21243 | 10.27197 | 70° | 15km/h | 19893m | -12.2m/s | -55.7°C | 0.6% | 59.7hPa | 2.5V | 08:19:54 | 02:24:46 | 00:00:00 | |
| HSKMA3-T | 2026-08-31 00:43:03 | 49.21240 | 10.27188 | 59° | 11km/h | 19917m | -12.2m/s | -55.6°C | 0.6% | 59.5hPa | 2.6V | 08:19:03 | 02:24:44 | 00:00:00 | |
| PG1ADW-2 | 2026-08-31 00:43:03 | 49.21240 | 10.27188 | 59° | 9km/h | 19917m | -12.2m/s | -55.6°C | 4.4% | 59.4hPa | 2.5V | 00:00:00 | 02:24:44 | 00:00:00 | |
| DM0DOS-11 | 2026-08-31 00:43:02 | 49.21238 | 10.27181 | 55° | 9km/h | 19942m | -12.4m/s | -55.4°C | 4.4% | 59.2hPa | 2.5V | 08:18:51 | 02:24:42 | 00:00:00 | |
| BIOWL1-15 | 2026-08-31 00:43:01 | 49.21237 | 10.27181 | 55° | 9km/h | 19942m | -12.4m/s | -55.4°C | 0.6% | 59.2hPa | 2.5V | 08:19:03 | 02:24:42 | 00:00:00 | |
| DF8AY | 2026-08-31 00:42:55 | 49.21233 | 10.27163 | 78° | 7km/h | 20016m | -12.5m/s | -54.9°C | 0.5% | 58.5hPa | 2.5V | 08:19:54 | 02:24:36 | 00:00:00 | |
| DL1XH-west | 2026-08-31 00:42:53 | 49.21233 | 10.27157 | 92° | 9km/h | 20041m | -12.3m/s | -54.7°C | 0.5% | 58.4hPa | 2.5V | 08:19:03 | 02:24:34 | 00:00:00 | |
| DM0DOS-11 | 2026-08-31 00:42:52 | 49.21233 | 10.27150 | 116° | 9km/h | 20066m | -12.2m/s | -54.3°C | 4.1% | 58.1hPa | 2.6V | 08:19:01 | 02:24:32 | 00:00:00 | |
| HSKMA3-T | 2026-08-31 00:42:52 | 49.21233 | 10.27153 | 100° | 9km/h | 20053m | -12.4m/s | -54.5°C | 0.5% | 58.2hPa | 2.6V | 08:19:03 | 02:24:33 | 00:00:00 | |
| DK7TD | 2026-08-31 00:42:48 | 49.21237 | 10.27142 | 142° | 9km/h | 20103m | -12.5m/s | -54°C | 0.4% | 57.8hPa | 2.5V | 08:19:54 | 02:24:29 | 00:00:00 | |
| DL1NUX | 2026-08-31 00:42:48 | 49.21248 | 10.27136 | 180° | 7km/h | 20165m | -12.6m/s | -53.7°C | 4% | 57.2hPa | 2.5V | 08:19:09 | 02:24:24 | 00:00:00 | |
| DF8AY | 2026-08-31 00:42:44 | 49.21246 | 10.27136 | 169° | 9km/h | 20153m | -12.5m/s | -53.8°C | 0.4% | 57.3hPa | 2.5V | 08:19:54 | 02:24:25 | 00:00:00 | |
| DC4HF-4 | 2026-08-31 00:42:44 | 49.21246 | 10.27136 | 169° | 7km/h | 20153m | -12.5m/s | -53.8°C | 1.0% | 57.3hPa | 2.5V | 00:00:00 | 00:00:00 | 00:00:00 | |
| DL1XH-west | 2026-08-31 00:42:43 | 49.21248 | 10.27136 | 181° | 7km/h | 20165m | -12.6m/s | -53.7°C | 0.4% | 57.2hPa | 2.5V | 08:19:54 | 02:24:24 | 00:00:00 | |
| DM0DOS-11 | 2026-08-31 00:42:43 | 49.21252 | 10.27137 | 203° | 7km/h | 20190m | -12.4m/s | -53.4°C | 3.8% | 57hPa | 2.6V | 08:19:11 | 02:24:22 | 00:00:00 | |
| HSKMA3-T | 2026-08-31 00:42:42 | 49.21250 | 10.27136 | 190° | 7km/h | 20178m | -12.4m/s | -53.6°C | 0.4% | 57.1hPa | 2.5V | 08:19:54 | 02:24:23 | 00:00:00 | |
| BIOWL1-15 | 2026-08-31 00:42:38 | 49.21256 | 10.27146 | 251° | 11km/h | 20228m | -12.6m/s | -53.1°C | 0.3% | 56.6hPa | 2.5V | 08:21:36 | 02:24:19 | 00:00:00 | |
| DL1NUX | 2026-08-31 00:42:38 | 49.21255 | 10.27176 | 287° | 20km/h | 20291m | -12.7m/s | -53.2°C | 3.7% | 56.1hPa | 2.5V | 08:19:19 | 02:24:14 | 00:00:00 | |
| DK7TD | 2026-08-31 00:42:37 | 49.21257 | 10.27150 | 262° | 13km/h | 20241m | -12.8m/s | -53.1°C | 0.2% | 56.6hPa | 2.5V | 08:19:54 | 02:24:18 | 00:00:00 | |
| DF8AY | 2026-08-31 00:42:32 | 49.21253 | 10.27183 | 295° | 22km/h | 20304m | -12.9m/s | -53.2°C | 0.2% | 56hPa | 2.5V | 08:19:54 | 02:24:13 | 00:00:00 | |
| HSKMA3-T | 2026-08-31 00:42:31 | 49.21250 | 10.27191 | 303° | 22km/h | 20316m | -12.6m/s | -53.3°C | 0.2% | 55.9hPa | 2.5V | 08:19:54 | 02:24:12 | 00:00:00 | |
| SONCRA | 2026-08-31 00:42:31 | 49.21247 | 10.27198 | 311° | 22km/h | 20329m | -12.7m/s | -53.3°C | 1.0% | 55.8hPa | 2.5V | 00:00:00 | 00:00:00 | 00:00:00 | |
| DL1NUX | 2026-08-31 00:42:28 | 49.21209 | 10.27232 | 341° | 26km/h | 20418m | -12.8m/s | -53.5°C | 3.8% | 55hPa | 2.5V | 08:19:29 | 02:24:04 | 00:00:00 | |
| BIOWL1-15 | 2026-08-31 00:42:28 | 49.21238 | 10.27210 | 324° | 24km/h | 20354m | -12.5m/s | -53.5°C | 0.2% | 55.5hPa | 2.5V | 08:21:36 | 02:24:09 | 00:00:00 | |
| DK7TD | 2026-08-31 00:42:27 | 49.21227 | 10.27220 | 332° | 26km/h | 20380m | -12.8m/s | -53.5°C | 0.3% | 55.4hPa | 2.5V | 08:19:54 | 02:24:07 | 00:00:00 | |
| DL1XH-west | 2026-08-31 00:42:24 | 49.21215 | 10.27228 | 338° | 26km/h | 20405m | -12.8m/s | -53.6°C | 0.3% | 55.1hPa | 2.6V | 08:19:54 | 02:24:05 | 00:00:00 | |
| DF8AY | 2026-08-31 00:42:22 | 49.21203 | 10.27234 | 350° | 24km/h | 20431m | -12.8m/s | -53.5°C | 0.3% | 54.9hPa | 2.5V | 08:19:54 | 02:24:03 | 00:00:00 | |
| HSKMA3-T | 2026-08-31 00:42:20 | 49.21191 | 10.27235 | 8° | 24km/h | 20457m | -12.9m/s | -53.4°C | 0.3% | 54.7hPa | 2.6V | 08:19:54 | 02:24:01 | 00:00:00 | |
| DL1XH1-15 | 2026-08-31 00:42:19 | 49.21179 | 10.27230 | 23° | 24km/h | 20482m | -12.9m/s | -53.4°C | 3.7% | 54.4hPa | 2.5V | 08:19:34 | 02:23:59 | 00:00:00 | |
| DL1NUX | 2026-08-31 00:42:18 | 49.21158 | 10.27203 | 60° | 20km/h | 20547m | -13.1m/s | -53.9°C | 3.8% | 53.9hPa | 2.6V | 08:19:39 | 02:23:54 | 00:00:00 | |
| DK7TD | 2026-08-31 00:42:16 | 49.21165 | 10.27216 | 43° | 22km/h | 20521m | -13.1m/s | -53.7°C | 0.3% | 54.1hPa | 2.5V | 08:19:54 | 02:23:56 | 00:00:00 | |
| BIOWL1-15 | 2026-08-31 00:42:16 | 49.21158 | 10.27203 | 60° | 20km/h | 20547m | -13.1m/s | -53.9°C | 0.3% | 53.9hPa | 2.6V | 08:21:36 | 02:23:54 | 00:00:00 | |
| DL1XH-west | 2026-08-31 00:42:14 | 49.21161 | 10.27210 | 53° | 22km/h | 20534m | -13.1m/s | -53.8°C | 0.3% | 54hPa | 2.5V | 08:19:54 | 02:23:55 | 00:00:00 | |
| DF8AY | 2026-08-31 00:42:11 | 49.21155 | 10.27190 | 76° | 16km/h | 20574m | -13.1m/s | -54.1°C | 0.3% | 53.7hPa | 2.6V | 08:19:54 | 02:23:52 | 00:00:00 | |
| HSKMA3-T | 2026-08-31 00:42:09 | 49.21155 | 10.27179 | 104° | 13km/h | 20600m | -13.2m/s | -54.2°C | 0.3% | 53.5hPa | 2.5V | 08:19:54 | 02:23:50 | 00:00:00 | |
| DL1XH1-15 | 2026-08-31 00:42:09 | 49.21156 | 10.27175 | 119° | 11km/h | 20613m | -13.1m/s | -54.2°C | 3.9% | 53.3hPa | 2.5V | 08:19:44 | 02:23:49 | 00:00:00 | |
| DK7TD | 2026-08-31 00:42:05 | 49.21162 | 10.27170 | 186° | 11km/h | 20652m | -13.1m/s | -54.3°C | 0.4% | 53hPa | 2.6V | 08:19:54 | 02:23:46 | 00:00:00 | |
| DL1XH-west | 2026-08-31 00:42:04 | 49.21165 | 10.27171 | 205° | 11km/h | 20665m | -13.2m/s | -54.4°C | 0.4% | 52.9hPa | 2.6V | 08:19:54 | 02:23:45 | 00:00:00 | |
| DL1XH1-15 | 2026-08-31 00:42:03 | 49.21175 | 10.27203 | 266° | 20km/h | 20744m | -13m/s | -54.5°C | 4.1% | 52.2hPa | 2.5V | 08:19:54 | 02:23:39 | 00:00:00 | |
| BIOWL1-15 | 2026-08-31 00:42:00 | 49.21173 | 10.27189 | 251° | 18km/h | 20718m | -13.1m/s | -54.4°C | 0.4% | 52.5hPa | 2.5V | 08:21:36 | 02:23:41 | 00:00:00 | |
| HSKMA3-T | 2026-08-31 00:41:58 | 49.21175 | 10.27203 | 266° | 20km/h | 20744m | -13m/s | -54.5°C | 0.4% | 52.3hPa | 2.5V | 08:19:54 | 02:23:39 | 00:00:00 | |
| DL1NUX | 2026-08-31 00:41:58 | 49.21171 | 10.27247 | 288° | 26km/h | 20809m | -13m/s | -54.1°C | 4% | 51.8hPa | 2.5V | 08:19:59 | 02:23:34 | 00:00:00 | |
| DM0DOS-11 | 2026-08-31 00:41:56 | 49.21166 | 10.27266 | 295° | 27km/h | 20836m | -13.4m/s | -54°C | 3.9% | 51.6hPa | 2.5V | 08:20:01 | 02:23:32 | 00:00:00 | |
| DK7TD | 2026-08-31 00:41:55 | 49.21174 | 10.27229 | 280° | 24km/h | 20783m | -13.1m/s | -54.2°C | 0.4% | 52hPa | 2.6V | 08:20:45 | 02:23:36 | 00:00:00 | |
| DF7PN | 2026-08-31 00:41:54 | 49.21171 | 10.27247 | 288° | 24km/h | 20810m | -13.0m/s | -54.1°C | 1.0% | 51.8hPa | 2.6V | 00:00:00 | 00:00:00 | 00:00:00 | |
| DL1XH-west | 2026-08-31 00:41:54 | 49.21173 | 10.27238 | 283° | 24km/h | 20797m | -13.1m/s | -54.2°C | 0.4% | 51.9hPa | 2.5V | 08:20:45 | 02:23:35 | 00:00:00 | |
| DO3MHA-12 | 2026-08-31 00:41:52 | 49.21169 | 10.27256 | 294° | 27km/h | 20823m | -13.1m/s | -54.0°C | 4.0% | 51.6hPa | 2.6V | 00:00:00 | 02:23:33 | 00:00:00 | |
| DN1GJH-1 | 2026-08-31 00:41:50 | 49.21163 | 10.27275 | 298° | 26km/h | 20849m | -13.0m/s | -53.9°C | 1.0% | 51.4hPa | 2.6V | 08:20:00 | 00:00:00 | 00:00:00 | |
| DL1XH1-15 | 2026-08-31 00:41:49 | 49.21157 | 10.27293 | 301° | 27km/h | 20875m | -13.3m/s | -54°C | 3.9% | 51.2hPa | 2.6V | 08:20:04 | 02:23:29 | 00:00:00 | |
| DJTTGO | 2026-08-31 00:41:49 | 49.21160 | 10.27284 | 301° | 27km/h | 20862m | -13.2m/s | -54.0°C | 1.0% | 51.3hPa | 2.5V | 00:00:00 | 00:00:00 | 00:00:00 | |
| DL1NUX | 2026-08-31 00:41:48 | 49.21136 | 10.27336 | 313° | 27km/h | 20942m | -13.4m/s | -54.1°C | 4% | 50.7hPa | 2.5V | 08:20:09 | 02:23:24 | 00:00:00 | |
| HSKMA3-T | 2026-08-31 00:41:48 | 49.21157 | 10.27293 | 301° | 27km/h | 20875m | -13.3m/s | -54°C | 0.3% | 51.2hPa | 2.6V | 08:20:45 | 02:23:29 | 00:00:00 | |
| BIOWL1-15 | 2026-08-31 00:41:48 | 49.21149 | 10.27310 | 304° | 27km/h | 20902m | -13.4m/s | -54.1°C | 0.4% | 51hPa | 2.5V | 08:21:36 | 02:23:27 | 00:00:00 | |
| DF8AY | 2026-08-31 00:41:47 | 49.21153 | 10.27301 | 303° | 27km/h | 20889m | -13.2m/s | -54.1°C | 0.4% | 51.1hPa | 2.6V | 08:22:27 | 02:23:28 | 00:00:00 | |
| DK7TD | 2026-08-31 00:41:45 | 49.21145 | 10.27319 | 307° | 29km/h | 20915m | -13.5m/s | -54.1°C | 0.4% | 50.9hPa | 2.5V | 08:20:45 | 02:23:26 | 00:00:00 | |
| DF3TZ-5 | 2026-08-31 00:41:44 | 49.21141 | 10.27328 | 309° | 27km/h | 20929m | -13.4m/s | -54.1°C | 1.0% | 50.8hPa | 2.5V | 00:00:00 | 00:00:00 | 00:00:00 | |
| DL1XH-west | 2026-08-31 00:41:43 | 49.21136 | 10.27336 | 314° | 27km/h | 20942m | -13.4m/s | -54.1°C | 0.4% | 50.7hPa | 2.5V | 08:20:45 | 02:23:24 | 00:00:00 | |
| HSKMA3-T | 2026-08-31 00:41:38 | 49.21106 | 10.27358 | 358° | 26km/h | 21010m | -13.3m/s | -54.1°C | 0.4% | 50.1hPa | 2.5V | 08:20:45 | 02:23:19 | 00:00:00 | |
| BIOWL1-15 | 2026-08-31 00:41:36 | 49.21093 | 10.27355 | 19° | 27km/h | 21036m | -13.5m/s | -54.3°C | 0.4% | 50hPa | 2.5V | 08:21:36 | 02:23:17 | 00:00:00 | |
| DM0DOS-11 | 2026-08-31 00:41:34 | 49.21059 | 10.27311 | 63° | 29km/h | 21118m | -13.9m/s | -54.2°C | 3.9% | 49.3hPa | 2.5V | 08:20:22 | 02:23:11 | 00:00:00 | |
| DK7TD | 2026-08-31 00:41:34 | 49.21079 | 10.27345 | 33° | 29km/h | 21064m | -13.5m/s | -54.3°C | 0.4% | 49.7hPa | 2.6V | 08:20:45 | 02:23:15 | 00:00:00 | |
| DL1XH-west | 2026-08-31 00:41:33 | 49.21073 | 10.27338 | 42° | 31km/h | 21077m | -14m/s | -54.2°C | 0.4% | 49.6hPa | 2.6V | 08:20:45 | 02:23:14 | 00:00:00 | |
| DO3MHA-12 | 2026-08-31 00:41:32 | 49.21068 | 10.27329 | 48° | 26km/h | 21091m | -13.7m/s | -54.1°C | 4.0% | 49.5hPa | 2.6V | 00:00:00 | 02:23:13 | 00:00:00 | |
| SONDE2-11 | 2026-08-31 00:41:31 | 49.21063 | 10.27320 | 53° | 29km/h | 21105m | -13.6m/s | -54.2°C | 1.0% | 49.4hPa | 2.6V | 00:00:00 | 00:00:00 | 00:00:00 | |
| DL1XH1-15 | 2026-08-31 00:41:30 | 49.21054 | 10.27290 | 79° | 27km/h | 21146m | -13.6m/s | -54.2°C | 4% | 49.1hPa | 2.6V | 08:20:24 | 02:23:09 | 00:00:00 | |
| SONCRA | 2026-08-31 00:41:29 | 49.21054 | 10.27290 | 79° | 26km/h | 21146m | -13.6m/s | -54.3°C | 1.0% | 49.1hPa | 2.6V | 00:00:00 | 00:00:00 | 00:00:00 | |
| DL1NUX | 2026-08-31 00:41:28 | 49.21057 | 10.27247 | 113° | 20km/h | 21213m | -13.4m/s | -53.9°C | 3.9% | 48.6hPa | 2.6V | 08:20:29 | 02:23:04 | 00:00:00 | |
| HSKMA3-T | 2026-08-31 00:41:28 | 49.21054 | 10.27290 | 79° | 27km/h | 21146m | -13.6m/s | -54.3°C | 0.4% | 49.1hPa | 2.6V | 08:20:45 | 02:23:09 | 00:00:00 | |
| DF8AY | 2026-08-31 00:41:26 | 49.21053 | 10.27271 | 95° | 24km/h | 21173m | -13.4m/s | -54.2°C | 0.4% | 48.9hPa | 2.5V | 08:22:27 | 02:23:07 | 00:00:00 | |
| BIOWL1-15 | 2026-08-31 00:41:26 | 49.21061 | 10.27233 | 119° | 18km/h | 21240m | -13.8m/s | -54°C | 0.3% | 48.4hPa | 2.5V | 08:21:36 | 02:23:02 | 00:00:00 | |
| DK7TD | 2026-08-31 00:41:24 | 49.21055 | 10.27254 | 105° | 22km/h | 21199m | -13.5m/s | -54.1°C | 0.3% | 48.7hPa | 2.5V | 08:20:45 | 02:23:05 | 00:00:00 | |
| DL1XH1-15 | 2026-08-31 00:41:24 | 49.21068 | 10.27216 | 127° | 16km/h | 21281m | -13.7m/s | -54.1°C | 3.9% | 48.1hPa | 2.6V | 08:20:34 | 02:22:59 | 00:00:00 | |
| DL1XH-west | 2026-08-31 00:41:22 | 49.21059 | 10.27240 | 115° | 20km/h | 21227m | -13.7m/s | -54°C | 0.3% | 48.5hPa | 2.6V | 08:20:45 | 02:23:03 | 00:00:00 | |
| DO3MHA-12 | 2026-08-31 00:41:22 | 49.21059 | 10.27240 | 115° | 16km/h | 21227m | -13.6m/s | -53.9°C | 3.9% | 48.5hPa | 2.5V | 00:00:00 | 02:23:03 | 00:00:00 | |
| DL1ZP-14 | 2026-08-31 00:41:21 | 49.21061 | 10.27233 | 118° | 18km/h | 21240m | -13.8m/s | -54.0°C | 1.0% | 48.4hPa | 2.5V | 00:00:00 | 00:00:00 | 00:00:00 | |
| DL1NUX | 2026-08-31 00:41:18 | 49.21082 | 10.27196 | 150° | 15km/h | 21350m | -13.8m/s | -54.1°C | 3.9% | 47.5hPa | 2.6V | 08:20:39 | 02:22:54 | 00:00:00 | |
| HSKMA3-T | 2026-08-31 00:41:17 | 49.21071 | 10.27211 | 130° | 16km/h | 21295m | -13.7m/s | -54.1°C | 0.4% | 48hPa | 2.6V | 08:20:45 | 02:22:58 | 00:00:00 | |
| DF8AY | 2026-08-31 00:41:15 | 49.21076 | 10.27202 | 139° | 15km/h | 21322m | -13.8m/s | -54.1°C | 0.4% | 47.8hPa | 2.5V | 08:22:27 | 02:22:56 | 00:00:00 | |
| DM0DOS-11 | 2026-08-31 00:41:14 | 49.21094 | 10.27189 | 169° | 16km/h | 21391m | -13.6m/s | -54.3°C | 3.9% | 47.3hPa | 2.5V | 08:20:42 | 02:22:51 | 00:00:00 | |
| BIOWL1-15 | 2026-08-31 00:41:14 | 49.21094 | 10.27189 | 169° | 16km/h | 21391m | -13.6m/s | -54.3°C | 0.4% | 47.3hPa | 2.5V | 08:21:36 | 02:22:51 | 00:00:00 | |
| DK7TD | 2026-08-31 00:41:13 | 49.21082 | 10.27196 | 150° | 15km/h | 21350m | -13.8m/s | -54.1°C | 0.4% | 47.6hPa | 2.6V | 08:20:45 | 02:22:54 | 00:00:00 | |
| DL1XH-west | 2026-08-31 00:41:12 | 49.21090 | 10.27191 | 160° | 16km/h | 21377m | -13.7m/s | -54.2°C | 0.3% | 47.4hPa | 2.5V | 08:20:45 | 02:22:52 | 00:00:00 | |
| HSKMA3-T | 2026-08-31 00:41:06 | 49.21112 | 10.27190 | 200° | 18km/h | 21446m | -13.8m/s | -54.4°C | 0.4% | 46.9hPa | 2.6V | 08:21:36 | 02:22:47 | 00:00:00 | |
| DF8AY | 2026-08-31 00:41:05 | 49.21120 | 10.27196 | 217° | 18km/h | 21473m | -13.6m/s | -54.3°C | 0.3% | 46.6hPa | 2.5V | 08:22:27 | 02:22:45 | 00:00:00 | |
| DK7TD | 2026-08-31 00:41:03 | 49.21123 | 10.27200 | 224° | 18km/h | 21487m | -13.8m/s | -54.2°C | 0.3% | 46.6hPa | 2.5V | 08:22:27 | 02:22:44 | 00:00:00 | |
| DM0DOS-11 | 2026-08-31 00:41:03 | 49.21130 | 10.27217 | 251° | 18km/h | 21527m | -13.7m/s | -54.2°C | 3.9% | 46.3hPa | 2.6V | 08:20:52 | 02:22:41 | 00:00:00 | |
| DL1XH-west | 2026-08-31 00:41:00 | 49.21130 | 10.27217 | 251° | 18km/h | 21528m | -13.7m/s | -54.2°C | 0.3% | 46.3hPa | 2.6V | 08:21:36 | 02:22:41 | 00:00:00 | |
| HSKMA3-T | 2026-08-31 00:40:56 | 49.21133 | 10.27245 | 263° | 20km/h | 21583m | -13.8m/s | -54.4°C | 0.3% | 45.9hPa | 2.5V | 08:21:36 | 02:22:37 | 00:00:00 | |
| BIOWL1-15 | 2026-08-31 00:40:55 | 49.21139 | 10.27278 | 246° | 24km/h | 21639m | -13.8m/s | -54.7°C | 0.4% | 45.5hPa | 2.6V | 08:21:36 | 02:22:33 | 00:00:00 | |
| DF8AY | 2026-08-31 00:40:54 | 49.21157 | 10.27321 | 234° | 27km/h | 21708m | -14m/s | -55.2°C | 0.5% | 45hPa | 2.5V | 08:22:27 | 02:22:28 | 00:00:00 | |
| DK7TD | 2026-08-31 00:40:53 | 49.21137 | 10.27269 | 249° | 24km/h | 21625m | -13.9m/s | -54.6°C | 0.4% | 45.6hPa | 2.6V | 08:22:27 | 02:22:34 | 00:00:00 | |
| DL1XH-west | 2026-08-31 00:40:50 | 49.21145 | 10.27295 | 240° | 26km/h | 21666m | -13.9m/s | -54.9°C | 0.5% | 45.3hPa | 2.5V | 08:21:36 | 02:22:31 | 00:00:00 | |
| DL1NUX | 2026-08-31 00:40:48 | 49.21172 | 10.27358 | 243° | 27km/h | 21765m | -14.3m/s | -55.1°C | 4.2% | 44.6hPa | 2.5V | 08:21:09 | 02:22:24 | 00:00:00 | |
| HSKMA3-T | 2026-08-31 00:40:45 | 49.21165 | 10.27339 | 237° | 29km/h | 21737m | -14.3m/s | -55.2°C | 0.5% | 44.8hPa | 2.6V | 08:21:36 | 02:22:26 | 00:00:00 | |
| DK7TD | 2026-08-31 00:40:43 | 49.21172 | 10.27358 | 244° | 27km/h | 21765m | -14.3m/s | -55.1°C | 0.5% | 44.6hPa | 2.5V | 08:22:27 | 02:22:24 | 00:00:00 | |
| BIOWL1-15 | 2026-08-31 00:40:42 | 49.21175 | 10.27368 | 250° | 27km/h | 21779m | -14.3m/s | -55°C | 0.5% | 44.5hPa | 2.5V | 08:21:36 | 02:22:23 | 00:00:00 | |
| DL1XH-west | 2026-08-31 00:40:39 | 49.21178 | 10.27400 | 273° | 29km/h | 21822m | -14.1m/s | -55°C | 0.5% | 44.2hPa | 2.6V | 08:21:36 | 02:22:20 | 00:00:00 | |
| DL6DJ-15 | 2026-08-31 00:40:39 | 49.21177 | 10.27411 | 280° | 29km/h | 21836m | -14.3m/s | -55.0°C | 1.1% | 44.1hPa | 2.5V | 00:00:00 | 00:00:00 | 00:00:00 | |
| DL1NUX | 2026-08-31 00:40:38 | 49.21163 | 10.27470 | 300° | 33km/h | 21908m | -14.6m/s | -55°C | 4.3% | 43.6hPa | 2.5V | 08:21:19 | 02:22:14 | 00:00:00 | |
| DF8AY | 2026-08-31 00:40:37 | 49.21176 | 10.27422 | 285° | 31km/h | 21851m | -14.4m/s | -55°C | 0.5% | 44hPa | 2.5V | 08:22:27 | 02:22:18 | 00:00:00 | |
| HSKMA3-T | 2026-08-31 00:40:34 | 49.21167 | 10.27458 | 295° | 35km/h | 21894m | -14.5m/s | -55°C | 0.5% | 43.7hPa | 2.5V | 08:21:36 | 02:22:15 | 00:00:00 | |
| DK7TD | 2026-08-31 00:40:32 | 49.21159 | 10.27480 | 306° | 33km/h | 21923m | -14.3m/s | -54.9°C | 0.5% | 43.5hPa | 2.6V | 08:22:27 | 02:22:13 | 00:00:00 | |
| DL1XH-west | 2026-08-31 00:40:29 | 49.21134 | 10.27516 | 325° | 33km/h | 21980m | -14.2m/s | -54.9°C | 0.5% | 43.1hPa | 2.5V | 08:21:36 | 02:22:09 | 00:00:00 | |
| DF8AY | 2026-08-31 00:40:25 | 49.21112 | 10.27536 | 332° | 35km/h | 22024m | -14.5m/s | -54.6°C | 0.5% | 42.8hPa | 2.6V | 08:22:27 | 02:22:06 | 00:00:00 | |
| BIOWL1-15 | 2026-08-31 00:40:24 | 49.21032 | 10.27603 | 326° | 26km/h | 22199m | -14.8m/s | -54.2°C | 0.4% | 41.7hPa | 2.5V | 08:23:18 | 02:21:54 | 00:00:00 | |
| DM0DOS-11 | 2026-08-31 00:40:24 | 49.21074 | 10.27566 | 332° | 31km/h | 22097m | -14.7m/s | -54.3°C | 4.1% | 42.3hPa | 2.5V | 08:21:32 | 02:22:01 | 00:00:00 | |
| HSKMA3-T | 2026-08-31 00:40:24 | 49.21104 | 10.27543 | 331° | 35km/h | 22038m | -14.7m/s | -54.5°C | 0.4% | 42.7hPa | 2.6V | 08:21:36 | 02:22:05 | 00:00:00 | |
| DL1XH1-15 | 2026-08-31 00:40:23 | 49.21060 | 10.27577 | 331° | 27km/h | 22126m | -14.6m/s | -54.3°C | 4.1% | 42.1hPa | 2.6V | 08:21:34 | 02:21:59 | 00:00:00 | |
| DK7TD | 2026-08-31 00:40:22 | 49.21088 | 10.27555 | 333° | 35km/h | 22068m | -14.5m/s | -54.5°C | 0.5% | 42.5hPa | 2.5V | 08:22:27 | 02:22:03 | 00:00:00 | |
| DL1XH-west | 2026-08-31 00:40:18 | 49.21060 | 10.27577 | 332° | 27km/h | 22126m | -14.6m/s | -54.3°C | 0.4% | 42.1hPa | 2.6V | 08:21:36 | 02:21:59 | 00:00:00 | |
| BIOWL1-15 | 2026-08-31 00:40:15 | 49.21027 | 10.27609 | 328° | 27km/h | 22214m | -15m/s | -54.1°C | 0.4% | 41.6hPa | 2.5V | 08:23:18 | 02:21:53 | 00:00:00 | |
| DF8AY | 2026-08-31 00:40:14 | 49.21007 | 10.27623 | 341° | 29km/h | 22259m | -15m/s | -54°C | 0.5% | 41.3hPa | 2.6V | 08:22:27 | 02:21:50 | 00:00:00 | |
| HSKMA3-T | 2026-08-31 00:40:14 | 49.21038 | 10.27597 | 325° | 26km/h | 22185m | -14.7m/s | -54.3°C | 0.5% | 41.7hPa | 2.5V | 08:22:27 | 02:21:55 | 00:00:00 | |
| SO1NDE-10 | 2026-08-31 00:40:13 | 49.21032 | 10.27603 | 326° | 31km/h | 22199m | -14.7m/s | -54.2°C | 4.1% | 41.6hPa | 2.6V | 00:00:00 | 02:21:54 | 00:00:00 | |
| DM0DOS-11 | 2026-08-31 00:40:12 | 49.21014 | 10.27618 | 336° | 29km/h | 22244m | -15.2m/s | -54°C | 4.1% | 41.4hPa | 2.6V | 08:21:42 | 02:21:51 | 00:00:00 | |
| DL1XH1-15 | 2026-08-31 00:40:12 | 49.21000 | 10.27626 | 346° | 31km/h | 22274m | -15.1m/s | -54°C | 4.1% | 41.2hPa | 2.5V | 08:21:44 | 02:21:49 | 00:00:00 | |
| DK7TD | 2026-08-31 00:40:11 | 49.21021 | 10.27614 | 333° | 27km/h | 22229m | -14.8m/s | -54°C | 0.4% | 41.4hPa | 2.6V | 08:22:27 | 02:21:52 | 00:00:00 | |
| DL1XH-west | 2026-08-31 00:40:07 | 49.20992 | 10.27628 | 353° | 31km/h | 22289m | -15m/s | -54°C | 0.4% | 41.1hPa | 2.5V | 08:22:27 | 02:21:48 | 00:00:00 | |
| HSKMA3-T | 2026-08-31 00:40:03 | 49.20961 | 10.27624 | 20° | 31km/h | 22350m | -15.3m/s | -53.8°C | 0.4% | 40.7hPa | 2.6V | 08:22:27 | 02:21:44 | 00:00:00 | |
| PG1ADW-2 | 2026-08-31 00:40:03 | 49.20961 | 10.27624 | 21° | 31km/h | 22350m | -15.2m/s | -53.8°C | 4.0% | 40.6hPa | 2.5V | 00:00:00 | 00:00:00 | 00:00:00 | |
| DM0DOS-11 | 2026-08-31 00:40:02 | 49.20941 | 10.27604 | 46° | 29km/h | 22396m | -15.6m/s | -53.2°C | 3.8% | 40.4hPa | 2.5V | 08:21:52 | 02:21:41 | 00:00:00 | |
| DF8AY | 2026-08-31 00:39:58 | 49.20933 | 10.27586 | 68° | 27km/h | 22428m | -15.6m/s | -53.1°C | 0.2% | 40.2hPa | 2.6V | 08:22:27 | 02:21:39 | 00:00:00 | |
| DL1NUX | 2026-08-31 00:39:58 | 49.20939 | 10.27538 | 134° | 29km/h | 22506m | -15.6m/s | -53°C | 3.6% | 39.7hPa | 2.6V | 08:21:59 | 02:21:34 | 00:00:00 | |
| DL1XH-west | 2026-08-31 00:39:57 | 49.20931 | 10.27576 | 80° | 26km/h | 22443m | -15.7m/s | -53°C | 0.2% | 40.1hPa | 2.5V | 08:22:27 | 02:21:38 | 00:00:00 | |
| HSKMA3-T | 2026-08-31 00:39:53 | 49.20939 | 10.27538 | 134° | 29km/h | 22506m | -15.6m/s | -53°C | 0.2% | 39.7hPa | 2.6V | 08:22:27 | 02:21:34 | 00:00:00 | |
| DM0DOS-11 | 2026-08-31 00:39:52 | 49.20959 | 10.27522 | 168° | 31km/h | 22553m | -15.9m/s | -53.1°C | 3.7% | 39.4hPa | 2.5V | 08:22:02 | 02:21:31 | 00:00:00 | |
| BIOWL1-15 | 2026-08-31 00:39:52 | 49.20951 | 10.27526 | 157° | 31km/h | 22538m | -15.7m/s | -53.1°C | 0.2% | 39.5hPa | 2.6V | 08:23:18 | 02:21:32 | 00:00:00 | |
| DL1XH1-15 | 2026-08-31 00:39:51 | 49.20975 | 10.27522 | 190° | 33km/h | 22585m | -15.7m/s | -53.3°C | 3.7% | 39.2hPa | 2.5V | 08:22:04 | 02:21:29 | 00:00:00 | |
| DK7TD | 2026-08-31 00:39:49 | 49.20967 | 10.27521 | 178° | 33km/h | 22569m | -15.9m/s | -53.2°C | 0.3% | 39.3hPa | 2.5V | 08:22:27 | 02:21:30 | 00:00:00 | |
| DF8AY | 2026-08-31 00:39:47 | 49.20983 | 10.27525 | 203° | 35km/h | 22601m | -15.4m/s | -53.4°C | 0.3% | 39.1hPa | 2.5V | 08:22:27 | 02:21:28 | 00:00:00 | |
| DL1XH-west | 2026-08-31 00:39:47 | 49.20991 | 10.27532 | 213° | 35km/h | 22616m | -15.7m/s | -53.4°C | 0.3% | 39hPa | 2.5V | 08:22:27 | 02:21:27 | 00:00:00 | |
| DN1GJH-1 | 2026-08-31 00:39:46 | 49.20983 | 10.27525 | 204° | 35km/h | 22601m | -15.4m/s | -53.4°C | 1.0% | 39.1hPa | 2.6V | 08:22:00 | 00:00:00 | 00:00:00 | |
| DJ8HS-15 | 2026-08-31 00:39:45 | 49.20998 | 10.27540 | 226° | 33km/h | 22632m | -15.7m/s | -53.4°C | 3.8% | 38.9hPa | 2.6V | 00:00:00 | 02:21:26 | 00:00:00 | |
| DC4HF-4 | 2026-08-31 00:39:44 | 49.21008 | 10.27563 | 247° | 35km/h | 22663m | -15.5m/s | -53.4°C | 0.9% | 38.8hPa | 2.6V | 00:00:00 | 00:00:00 | 00:00:00 | |
| DL1XH1-15 | 2026-08-31 00:39:43 | 49.21005 | 10.27631 | 293° | 35km/h | 22741m | -15.6m/s | -53.5°C | 3.8% | 38.3hPa | 2.6V | 08:22:14 | 02:21:19 | 00:00:00 | |
| HSKMA3-T | 2026-08-31 00:39:42 | 49.21010 | 10.27576 | 260° | 37km/h | 22679m | -15.4m/s | -53.4°C | 0.3% | 38.6hPa | 2.5V | 08:22:27 | 02:21:23 | 00:00:00 | |
| DK7TD | 2026-08-31 00:39:38 | 49.21005 | 10.27631 | 294° | 35km/h | 22741m | -15.6m/s | -53.5°C | 0.3% | 38.3hPa | 2.6V | 08:22:27 | 02:21:19 | 00:00:00 | |
| DL1XH-west | 2026-08-31 00:39:35 | 49.20990 | 10.27660 | 323° | 31km/h | 22787m | -15.3m/s | -53.5°C | 0.2% | 38hPa | 2.5V | 08:22:27 | 02:21:16 | 00:00:00 | |
| DG9SBQ-11 | 2026-08-31 00:39:35 | 49.20990 | 10.27660 | 324° | 31km/h | 22788m | -15.3m/s | -53.5°C | 0.9% | 38.0hPa | 2.5V | 08:22:00 | 00:00:00 | 00:00:00 | |
| DL1NUX | 2026-08-31 00:39:32 | 49.20962 | 10.27674 | 1° | 31km/h | 22848m | -15.5m/s | -53.6°C | 3.8% | 37.6hPa | 2.5V | 08:22:21 | 02:21:12 | 00:00:00 | |
| DO3MHA-12 | 2026-08-31 00:39:32 | 49.20970 | 10.27673 | 353° | 27km/h | 22833m | -15.0m/s | -53.5°C | 3.8% | 37.7hPa | 2.5V | 00:00:00 | 02:21:13 | 00:00:00 | |
| DL1XH1-15 | 2026-08-31 00:39:31 | 49.20938 | 10.27668 | 15° | 33km/h | 22896m | -16.2m/s | -53.9°C | 3.9% | 37.3hPa | 2.5V | 08:22:24 | 02:21:09 | 00:00:00 | |
| HSKMA3-T | 2026-08-31 00:39:31 | 49.20962 | 10.27674 | 1° | 31km/h | 22849m | -15.5m/s | -53.6°C | 0.3% | 37.6hPa | 2.5V | 08:22:27 | 02:21:12 | 00:00:00 | |
| BIOWL1-15 | 2026-08-31 00:39:27 | 49.20931 | 10.27664 | 19° | 31km/h | 22912m | -16m/s | -53.9°C | 0.4% | 37.3hPa | 2.6V | 08:23:18 | 02:21:08 | 00:00:00 | |
| SONDE2-11 | 2026-08-31 00:39:27 | 49.20924 | 10.27660 | 25° | 27km/h | 22929m | -15.8m/s | -53.9°C | 1.0% | 37.2hPa | 2.5V | 00:00:00 | 00:00:00 | 00:00:00 | |
| DL1NUX | 2026-08-31 00:39:26 | 49.20908 | 10.27636 | 87° | 11km/h | 23006m | -15.5m/s | -54°C | 4% | 36.8hPa | 2.5V | 08:22:31 | 02:21:02 | 00:00:00 | |
| DF8AY | 2026-08-31 00:39:25 | 49.20918 | 10.27655 | 30° | 24km/h | 22944m | -15.7m/s | -53.9°C | 0.4% | 37.1hPa | 2.6V | 08:22:27 | 02:21:06 | 00:00:00 | |
| DL1XH-west | 2026-08-31 00:39:24 | 49.20914 | 10.27650 | 41° | 20km/h | 22960m | -15.4m/s | -53.8°C | 0.4% | 37hPa | 2.5V | 08:23:18 | 02:21:05 | 00:00:00 | |
| HSKMA3-T | 2026-08-31 00:39:20 | 49.20909 | 10.27632 | 103° | 11km/h | 23022m | -15.6m/s | -54°C | 0.4% | 36.7hPa | 2.6V | 08:23:18 | 02:21:01 | 00:00:00 | |
| DK7TD | 2026-08-31 00:39:17 | 49.20912 | 10.27621 | 127° | 11km/h | 23070m | -15.9m/s | -54.1°C | 0.4% | 36.4hPa | 2.5V | 08:23:18 | 02:20:58 | 00:00:00 | |
| BIOWL1-15 | 2026-08-31 00:39:16 | 49.20914 | 10.27618 | 140° | 11km/h | 23086m | -16.1m/s | -54.1°C | 0.4% | 36.3hPa | 2.5V | 08:23:18 | 02:20:57 | 00:00:00 | |
| DL1XH-west | 2026-08-31 00:39:14 | 49.20919 | 10.27615 | 174° | 11km/h | 23118m | -16m/s | -54°C | 0.4% | 36.1hPa | 2.6V | 08:23:18 | 02:20:55 | 00:00:00 | |
| DG9SBQ-11 | 2026-08-31 00:39:13 | 49.20919 | 10.27615 | 175° | 11km/h | 23118m | -16.0m/s | -54.0°C | 1.0% | 36.1hPa | 2.5V | 08:23:00 | 00:00:00 | 00:00:00 | |
| DL1NUX | 2026-08-31 00:39:12 | 49.20929 | 10.27618 | 207° | 16km/h | 23166m | -16.1m/s | -53.8°C | 3.9% | 35.8hPa | 2.5V | 08:22:41 | 02:20:52 | 00:00:00 | |
| DO3MHA-12 | 2026-08-31 00:39:12 | 49.20925 | 10.27616 | 199° | 26km/h | 23150m | -16.0m/s | -53.8°C | 3.9% | 35.9hPa | 2.5V | 00:00:00 | 02:20:53 | 00:00:00 | |
| DL1XH1-15 | 2026-08-31 00:39:11 | 49.20940 | 10.27635 | 239° | 24km/h | 23214m | -15.8m/s | -53.7°C | 3.8% | 35.6hPa | 2.6V | 08:22:44 | 02:20:49 | 00:00:00 | |
| DM0DOS-11 | 2026-08-31 00:39:11 | 49.20933 | 10.27622 | 220° | 18km/h | 23182m | -16.3m/s | -53.7°C | 3.9% | 35.8hPa | 2.5V | 08:22:42 | 02:20:51 | 00:00:00 | |
| HSKMA3-T | 2026-08-31 00:39:09 | 49.20937 | 10.27628 | 231° | 22km/h | 23199m | -16.3m/s | -53.7°C | 0.3% | 35.6hPa | 2.6V | 08:23:18 | 02:20:50 | 00:00:00 | |
| DF3TZ-5 | 2026-08-31 00:39:09 | 49.20940 | 10.27635 | 239° | 24km/h | 23215m | -15.8m/s | -53.7°C | 0.9% | 35.6hPa | 2.6V | 00:00:00 | 00:00:00 | 00:00:00 | |
| DC4HF-4 | 2026-08-31 00:39:08 | 49.20943 | 10.27644 | 250° | 27km/h | 23231m | -16.1m/s | -53.6°C | 0.9% | 35.5hPa | 2.6V | 00:00:00 | 00:00:00 | 00:00:00 | |
| EDDB2-12 | 2026-08-31 00:39:07 | 49.20943 | 10.27644 | 250° | 27km/h | 23231m | -16.1m/s | -53.6°C | 0.9% | 35.5hPa | 2.6V | 00:00:00 | 00:00:00 | 00:00:00 | |
| DL1NUX | 2026-08-31 00:39:06 | 49.20941 | 10.27720 | 289° | 38km/h | 23327m | -16.1m/s | -53.7°C | 3.9% | 35hPa | 2.6V | 08:22:51 | 02:20:42 | 00:00:00 | |
| DK7TD | 2026-08-31 00:39:06 | 49.20945 | 10.27655 | 257° | 29km/h | 23246m | -16.1m/s | -53.6°C | 0.3% | 35.4hPa | 2.5V | 08:23:18 | 02:20:47 | 00:00:00 | |
| BIOWL1-15 | 2026-08-31 00:39:05 | 49.20946 | 10.27679 | 271° | 35km/h | 23279m | -16.2m/s | -53.6°C | 0.3% | 35.2hPa | 2.5V | 08:23:18 | 02:20:45 | 00:00:00 | |
| DL1XH-west | 2026-08-31 00:39:03 | 49.20946 | 10.27692 | 277° | 35km/h | 23295m | -16.2m/s | -53.6°C | 0.3% | 35.1hPa | 2.5V | 08:23:18 | 02:20:44 | 00:00:00 | |
| DL1XH1-15 | 2026-08-31 00:39:03 | 49.20927 | 10.27759 | 306° | 40km/h | 23375m | -16m/s | -53.6°C | 3.9% | 34.7hPa | 2.5V | 08:22:54 | 02:20:39 | 00:00:00 | |
| DF8AY | 2026-08-31 00:39:02 | 49.20944 | 10.27706 | 284° | 37km/h | 23311m | -15.9m/s | -53.7°C | 0.3% | 35hPa | 2.6V | 08:23:18 | 02:20:43 | 00:00:00 | |
| DO3MHA-12 | 2026-08-31 00:39:02 | 49.20944 | 10.27706 | 284° | 40km/h | 23311m | -15.9m/s | -53.6°C | 3.8% | 35.0hPa | 2.5V | 00:00:00 | 02:20:43 | 00:00:00 | |
| DM0DOS-11 | 2026-08-31 00:39:01 | 49.20937 | 10.27733 | 295° | 38km/h | 23343m | -16.1m/s | -53.6°C | 3.9% | 34.9hPa | 2.5V | 08:22:52 | 02:20:41 | 00:00:00 | |
| HSKMA3-T | 2026-08-31 00:38:58 | 49.20927 | 10.27759 | 307° | 40km/h | 23375m | -16m/s | -53.6°C | 0.3% | 34.7hPa | 2.5V | 08:23:18 | 02:20:39 | 00:00:00 | |
| DK7TD | 2026-08-31 00:38:56 | 49.20914 | 10.27783 | 315° | 40km/h | 23408m | -16.2m/s | -53.8°C | 0.4% | 34.5hPa | 2.6V | 08:23:18 | 02:20:37 | 00:00:00 | |
| SONDE2-11 | 2026-08-31 00:38:56 | 49.20906 | 10.27793 | 318° | 40km/h | 23424m | -16.2m/s | -53.9°C | 1.0% | 34.4hPa | 2.5V | 00:00:00 | 00:00:00 | 00:00:00 | |
| DM0DOS-11 | 2026-08-31 00:38:54 | 49.20864 | 10.27833 | 339° | 38km/h | 23506m | -16.4m/s | -54°C | 4.1% | 34hPa | 2.5V | 08:23:02 | 02:20:31 | 00:00:00 | |
| DL1XH-west | 2026-08-31 00:38:53 | 49.20890 | 10.27812 | 326° | 38km/h | 23457m | -16.4m/s | -54°C | 0.5% | 34.2hPa | 2.5V | 08:23:18 | 02:20:34 | 00:00:00 | |
| DL1NUX | 2026-08-31 00:38:52 | 49.20873 | 10.27827 | 333° | 38km/h | 23490m | -16.3m/s | -53.9°C | 4.1% | 34.1hPa | 2.6V | 08:23:01 | 02:20:32 | 00:00:00 | |
| DF8AY | 2026-08-31 00:38:49 | 49.20855 | 10.27837 | 344° | 38km/h | 23523m | -16.5m/s | -53.9°C | 0.5% | 33.9hPa | 2.5V | 08:23:18 | 02:20:30 | 00:00:00 | |
| HSKMA3-T | 2026-08-31 00:38:48 | 49.20846 | 10.27841 | 350° | 37km/h | 23539m | -16.7m/s | -53.9°C | 0.4% | 33.8hPa | 2.5V | 08:23:18 | 02:20:29 | 00:00:00 | |
| DF7PN | 2026-08-31 00:38:48 | 49.20837 | 10.27843 | 355° | 37km/h | 23556m | -16.6m/s | -53.9°C | 1.0% | 33.8hPa | 2.5V | 00:00:00 | 00:00:00 | 00:00:00 | |
| DL1NUX | 2026-08-31 00:38:47 | 49.20788 | 10.27824 | 34° | 33km/h | 23654m | -16.5m/s | -53.7°C | 4% | 33.2hPa | 2.5V | 08:23:11 | 02:20:22 | 00:00:00 | |
| DN1GJH-1 | 2026-08-31 00:38:46 | 49.20828 | 10.27843 | 361° | 37km/h | 23573m | -16.5m/s | -53.9°C | 1.0% | 33.6hPa | 2.6V | 08:23:00 | 00:00:00 | 00:00:00 | |
| DJ8HS-15 | 2026-08-31 00:38:45 | 49.20819 | 10.27842 | 9° | 29km/h | 23589m | -16.2m/s | -53.8°C | 4.1% | 33.5hPa | 2.6V | 00:00:00 | 02:20:26 | 00:00:00 | |
| DL1XH1-15 | 2026-08-31 00:38:43 | 49.20771 | 10.27796 | 55° | 33km/h | 23704m | -17m/s | -53.6°C | 4% | 33hPa | 2.6V | 08:23:14 | 02:20:19 | 00:00:00 | |
| BIOWL1-15 | 2026-08-31 00:38:43 | 49.20803 | 10.27836 | 21° | 33km/h | 23621m | -16m/s | -53.8°C | 0.4% | 33.4hPa | 2.5V | 08:23:18 | 02:20:24 | 00:00:00 | |
| DO3MHA-12 | 2026-08-31 00:38:42 | 49.20795 | 10.27830 | 29° | 31km/h | 23638m | -16.3m/s | -53.7°C | 4.0% | 33.2hPa | 2.5V | 08:23:00 | 02:20:23 | 00:00:00 | |
| DM0DOS-11 | 2026-08-31 00:38:41 | 49.20782 | 10.27816 | 42° | 33km/h | 23670m | -16.7m/s | -53.7°C | 4% | 33.1hPa | 2.5V | 08:23:12 | 02:20:21 | 00:00:00 | |
| DF8AY | 2026-08-31 00:38:40 | 49.20776 | 10.27807 | 50° | 33km/h | 23688m | -16.8m/s | -53.7°C | 0.4% | 33hPa | 2.6V | 08:23:18 | 02:20:20 | 00:00:00 | |
| DK7TD | 2026-08-31 00:38:40 | 49.20782 | 10.27816 | 43° | 33km/h | 23670m | -16.7m/s | -53.7°C | 0.4% | 33.1hPa | 2.5V | 08:23:18 | 02:20:21 | 00:00:00 | |
| HSKMA3-T | 2026-08-31 00:38:38 | 49.20771 | 10.27796 | 56° | 33km/h | 23704m | -17m/s | -53.6°C | 0.4% | 33hPa | 2.6V | 08:23:18 | 02:20:19 | 00:00:00 | |
| DL1XH-west | 2026-08-31 00:38:32 | 49.20762 | 10.27731 | 110° | 24km/h | 23805m | -16.8m/s | -53°C | 0.3% | 32.4hPa | 2.5V | 08:24:09 | 02:20:13 | 00:00:00 | |
| DL1NUX | 2026-08-31 00:38:32 | 49.20765 | 10.27722 | 124° | 22km/h | 23822m | -16.8m/s | -52.8°C | 3.7% | 32.4hPa | 2.5V | 08:23:21 | 02:20:12 | 00:00:00 | |
| DC4HF-4 | 2026-08-31 00:38:32 | 49.20765 | 10.27722 | 124° | 22km/h | 23822m | -16.8m/s | -52.8°C | 0.9% | 32.4hPa | 2.6V | 00:00:00 | 00:00:00 | 00:00:00 | |
| DL1XH1-15 | 2026-08-31 00:38:31 | 49.20778 | 10.27711 | 178° | 20km/h | 23873m | -16.8m/s | -52.8°C | 3.7% | 32.1hPa | 2.6V | 08:23:24 | 02:20:09 | 00:00:00 | |
| BIOWL1-15 | 2026-08-31 00:38:31 | 49.20773 | 10.27712 | 158° | 20km/h | 23856m | -16.6m/s | -52.8°C | 0.2% | 32.2hPa | 2.6V | 08:25:00 | 02:20:10 | 00:00:00 | |
| DK7TD | 2026-08-31 00:38:30 | 49.20769 | 10.27716 | 140° | 20km/h | 23839m | -16.8m/s | -52.8°C | 0.2% | 32.2hPa | 2.5V | 08:24:09 | 02:20:11 | 00:00:00 | |
| DF8AY | 2026-08-31 00:38:28 | 49.20796 | 10.27788 | 298° | 31km/h | 24043m | -16.7m/s | -52.9°C | 0.3% | 31.3hPa | 2.6V | 08:24:09 | 02:19:59 | 00:00:00 | |
| HSKMA3-T | 2026-08-31 00:38:27 | 49.20783 | 10.27712 | 194° | 20km/h | 23890m | -17.1m/s | -52.8°C | 0.2% | 32hPa | 2.5V | 08:24:09 | 02:20:08 | 00:00:00 | |
| EDDB2-11 | 2026-08-31 00:38:27 | 49.20788 | 10.27715 | 208° | 22km/h | 23907m | -17.2m/s | -52.8°C | 0.9% | 31.9hPa | 2.5V | 00:00:00 | 00:00:00 | 00:00:00 | |
| DL1NUX | 2026-08-31 00:38:26 | 49.20802 | 10.27755 | 270° | 29km/h | 23992m | -16.8m/s | -52.7°C | 3.6% | 31.5hPa | 2.5V | 08:23:31 | 02:20:02 | 00:00:00 | |
| DJ8HS-15 | 2026-08-31 00:38:25 | 49.20792 | 10.27719 | 221° | 29km/h | 23924m | -17.1m/s | -52.7°C | 3.6% | 31.8hPa | 2.6V | 00:00:00 | 02:20:06 | 00:00:00 | |
| DL1XH1-15 | 2026-08-31 00:38:23 | 49.20796 | 10.27788 | 298° | 31km/h | 24043m | -16.7m/s | -52.9°C | 3.7% | 31.3hPa | 2.6V | 08:23:34 | 02:19:59 | 00:00:00 | |
| PG1ADW-2 | 2026-08-31 00:38:23 | 49.20800 | 10.27735 | 248° | 31km/h | 23958m | -16.7m/s | -52.6°C | 3.6% | 31.6hPa | 2.6V | 00:00:00 | 00:00:00 | 00:00:00 | |
| DO3MHA-12 | 2026-08-31 00:38:22 | 49.20801 | 10.27745 | 261° | 29km/h | 23975m | -16.8m/s | -52.6°C | 3.6% | 31.5hPa | 2.5V | 00:00:00 | 02:20:03 | 00:00:00 | |
| DM0DOS-11 | 2026-08-31 00:38:21 | 49.20801 | 10.27767 | 282° | 29km/h | 24009m | -16.9m/s | -52.8°C | 3.7% | 31.4hPa | 2.5V | 08:23:32 | 02:20:01 | 00:00:00 | |
| DL1XH-west | 2026-08-31 00:38:21 | 49.20802 | 10.27755 | 271° | 29km/h | 23992m | -16.8m/s | -52.7°C | 0.2% | 31.5hPa | 2.5V | 08:24:09 | 02:20:02 | 00:00:00 | |
| DK7TD | 2026-08-31 00:38:20 | 49.20799 | 10.27778 | 291° | 31km/h | 24026m | -17m/s | -52.9°C | 0.2% | 31.4hPa | 2.6V | 08:24:09 | 02:20:00 | 00:00:00 | |
| DF8AY | 2026-08-31 00:38:18 | 49.20774 | 10.27820 | 333° | 29km/h | 24109m | -16.6m/s | -53.1°C | 0.3% | 30.9hPa | 2.5V | 08:24:09 | 02:19:55 | 00:00:00 | |
| HSKMA3-T | 2026-08-31 00:38:17 | 49.20792 | 10.27798 | 308° | 31km/h | 24059m | -16.6m/s | -53°C | 0.3% | 31.2hPa | 2.5V | 08:24:09 | 02:19:58 | 00:00:00 | |
| DB0UT-7 | 2026-08-31 00:38:17 | 49.20792 | 10.27798 | 308° | 35km/h | 24060m | -16.5m/s | -53.0°C | 3.8% | 31.1hPa | 2.5V | 00:00:00 | 00:00:00 | 00:00:00 | |
| DF7PN | 2026-08-31 00:38:16 | 49.20787 | 10.27807 | 315° | 29km/h | 24076m | -16.8m/s | -53.1°C | 0.9% | 31.1hPa | 2.5V | 00:00:00 | 00:00:00 | 00:00:00 | |
| DL1ZP-14 | 2026-08-31 00:38:15 | 49.20774 | 10.27820 | 332° | 29km/h | 24110m | -16.6m/s | -53.1°C | 0.9% | 30.9hPa | 2.5V | 00:00:00 | 00:00:00 | 00:00:00 | |
| DM0DOS-11 | 2026-08-31 00:38:13 | 49.20745 | 10.27832 | 353° | 31km/h | 24176m | -16.8m/s | -53°C | 3.7% | 30.6hPa | 2.5V | 08:23:42 | 02:19:51 | 00:00:00 | |
| DO3MHA-12 | 2026-08-31 00:38:12 | 49.20760 | 10.27828 | 347° | 33km/h | 24143m | -16.4m/s | -53.0°C | 3.8% | 30.7hPa | 2.6V | 00:00:00 | 02:19:53 | 00:00:00 | |
| DL1XH1-15 | 2026-08-31 00:38:11 | 49.20729 | 10.27834 | 358° | 33km/h | 24210m | -16.8m/s | -52.9°C | 3.7% | 30.4hPa | 2.5V | 08:23:44 | 02:19:49 | 00:00:00 | |
| DL1XH-west | 2026-08-31 00:38:11 | 49.20753 | 10.27830 | 350° | 31km/h | 24159m | -16.8m/s | -53°C | 0.3% | 30.7hPa | 2.6V | 08:24:09 | 02:19:52 | 00:00:00 | |
| DK7TD | 2026-08-31 00:38:09 | 49.20737 | 10.27833 | 354° | 33km/h | 24193m | -16.8m/s | -52.9°C | 0.2% | 30.5hPa | 2.5V | 08:24:09 | 02:19:50 | 00:00:00 | |
| BIOWL1-15 | 2026-08-31 00:38:08 | 49.20729 | 10.27834 | 358° | 33km/h | 24210m | -16.8m/s | -52.9°C | 0.2% | 30.5hPa | 2.5V | 08:25:00 | 02:19:49 | 00:00:00 | |
| HSKMA3-T | 2026-08-31 00:38:06 | 49.20711 | 10.27835 | 360° | 35km/h | 24243m | -17m/s | -53°C | 0.3% | 30.3hPa | 2.6V | 08:24:09 | 02:19:47 | 00:00:00 | |
| DF8AY-15 | 2026-08-31 00:38:06 | 49.20711 | 10.27835 | 360° | 37km/h | 24244m | -17.0m/s | -52.9°C | 3.7% | 30.2hPa | 2.5V | 00:00:00 | 02:19:47 | 00:00:00 | |
| DJ8HS-15 | 2026-08-31 00:38:05 | 49.20702 | 10.27835 | 359° | 37km/h | 24261m | -16.8m/s | -53.0°C | 3.8% | 30.2hPa | 2.5V | 00:00:00 | 02:19:46 | 00:00:00 | |
| HEMX73-11 | 2026-08-31 00:38:04 | 49.20693 | 10.27835 | 359° | 37km/h | 24278m | -17.0m/s | -53.1°C | 0.9% | 30.1hPa | 2.5V | 08:24:00 | 00:00:00 | 00:00:00 | |
| DL1XH1-15 | 2026-08-31 00:38:03 | 49.20635 | 10.27837 | 4° | 40km/h | 24381m | -17.8m/s | -53.3°C | 3.9% | 29.7hPa | 2.5V | 08:23:54 | 02:19:39 | 00:00:00 | |
| DJ2DS-15 | 2026-08-31 00:38:03 | 49.20684 | 10.27836 | 358° | 37km/h | 24295m | -16.9m/s | -53.1°C | 3.8% | 30.0hPa | 2.6V | 00:00:00 | 02:19:44 | 00:00:00 | |
| DO3MHA-12 | 2026-08-31 00:38:02 | 49.20675 | 10.27837 | 358° | 38km/h | 24312m | -16.9m/s | -53.2°C | 3.8% | 29.9hPa | 2.6V | 00:00:00 | 02:19:43 | 00:00:00 | |
| DM0DOS-11 | 2026-08-31 00:38:01 | 49.20655 | 10.27838 | 358° | 38km/h | 24346m | -17.4m/s | -53.3°C | 3.9% | 29.8hPa | 2.6V | 08:23:52 | 02:19:41 | 00:00:00 | |
| DL1XH-west | 2026-08-31 00:38:00 | 49.20655 | 10.27838 | 359° | 38km/h | 24346m | -17.4m/s | -53.3°C | 0.4% | 29.8hPa | 2.6V | 08:24:09 | 02:19:41 | 00:00:00 | |
| DK7TD | 2026-08-31 00:37:58 | 49.20635 | 10.27837 | 5° | 40km/h | 24381m | -17.8m/s | -53.3°C | 0.3% | 29.7hPa | 2.5V | 08:24:09 | 02:19:39 | 00:00:00 | |
| DF8AY | 2026-08-31 00:37:57 | 49.20625 | 10.27835 | 10° | 38km/h | 24399m | -17.8m/s | -53.3°C | 0.3% | 29.6hPa | 2.5V | 08:24:09 | 02:19:38 | 00:00:00 | |
| HSKMA3-T | 2026-08-31 00:37:55 | 49.20607 | 10.27828 | 20° | 38km/h | 24435m | -17.8m/s | -53.4°C | 0.3% | 29.4hPa | 2.6V | 08:24:09 | 02:19:36 | 00:00:00 | |
| SONDE2-11 | 2026-08-31 00:37:54 | 49.20590 | 10.27815 | 35° | 35km/h | 24470m | -17.8m/s | -53.4°C | 0.9% | 29.2hPa | 2.6V | 00:00:00 | 00:00:00 | 00:00:00 | |
| DL1NUX | 2026-08-31 00:37:52 | 49.20577 | 10.27796 | 52° | 35km/h | 24506m | -17.9m/s | -53.3°C | 3.9% | 29.1hPa | 2.6V | 08:24:01 | 02:19:32 | 00:00:00 | |
| DG9SBQ-11 | 2026-08-31 00:37:52 | 49.20583 | 10.27806 | 45° | 37km/h | 24489m | -18.2m/s | -53.3°C | 0.9% | 29.2hPa | 2.5V | 08:24:00 | 00:00:00 | 00:00:00 | |
| DL1XH1-15 | 2026-08-31 00:37:51 | 49.20568 | 10.27758 | 86° | 37km/h | 24561m | -18.6m/s | -53.2°C | 3.9% | 28.9hPa | 2.5V | 08:24:04 | 02:19:29 | 00:00:00 | |
| BIOWL1-15 | 2026-08-31 00:37:50 | 49.20572 | 10.27785 | 64° | 35km/h | 24525m | -18.2m/s | -53.3°C | 0.4% | 29hPa | 2.6V | 08:25:00 | 02:19:31 | 00:00:00 | |
| DK7TD | 2026-08-31 00:37:47 | 49.20568 | 10.27744 | 99° | 37km/h | 24580m | -18.7m/s | -53.1°C | 0.4% | 28.8hPa | 2.5V | 08:24:09 | 02:19:28 | 00:00:00 | |
| DF8AY | 2026-08-31 00:37:46 | 49.20571 | 10.27731 | 111° | 37km/h | 24599m | -18.7m/s | -53.1°C | 0.4% | 28.7hPa | 2.6V | 08:24:09 | 02:19:27 | 00:00:00 | |
| HSKMA3-T | 2026-08-31 00:37:45 | 49.20575 | 10.27718 | 124° | 37km/h | 24617m | -18.4m/s | -52.9°C | 0.3% | 28.6hPa | 2.6V | 08:24:09 | 02:19:26 | 00:00:00 | |
| DJ8HS-15 | 2026-08-31 00:37:45 | 49.20575 | 10.27718 | 124° | 40km/h | 24617m | -18.4m/s | -52.9°C | 3.8% | 28.5hPa | 2.6V | 08:24:00 | 02:19:26 | 00:00:00 | |
| DL1ZP-14 | 2026-08-31 00:37:44 | 49.20589 | 10.27699 | 152° | 37km/h | 24653m | -17.7m/s | -52.9°C | 0.9% | 28.4hPa | 2.5V | 00:00:00 | 00:00:00 | 00:00:00 | |
| DL1XH1-15 | 2026-08-31 00:37:43 | 49.20635 | 10.27709 | 220° | 42km/h | 24744m | -18.5m/s | -53°C | 3.8% | 28hPa | 2.5V | 08:24:14 | 02:19:19 | 00:00:00 | |
| DL1XH-west | 2026-08-31 00:37:40 | 49.20617 | 10.27695 | 195° | 40km/h | 24707m | -18.2m/s | -53°C | 0.3% | 28.2hPa | 2.6V | 08:25:00 | 02:19:21 | 00:00:00 | |
| BIOWL1-15 | 2026-08-31 00:37:40 | 49.20642 | 10.27721 | 232° | 42km/h | 24763m | -18.5m/s | -52.9°C | 0.3% | 27.9hPa | 2.5V | 08:25:00 | 02:19:18 | 00:00:00 | |
| DF8AY | 2026-08-31 00:37:36 | 49.20648 | 10.27735 | 244° | 44km/h | 24781m | -18.7m/s | -52.9°C | 0.3% | 27.8hPa | 2.6V | 08:25:00 | 02:19:17 | 00:00:00 | |
| HSKMA3-T | 2026-08-31 00:37:34 | 49.20653 | 10.27767 | 268° | 42km/h | 24818m | -18.3m/s | -53°C | 0.3% | 27.7hPa | 2.5V | 08:25:00 | 02:19:15 | 00:00:00 | |
| EDDB2-12 | 2026-08-31 00:37:34 | 49.20653 | 10.27767 | 267° | 42km/h | 24818m | -18.3m/s | -53.0°C | 0.9% | 27.7hPa | 2.5V | 00:00:00 | 00:00:00 | 00:00:00 | |
| DG9SBQ-11 | 2026-08-31 00:37:33 | 49.20653 | 10.27767 | 269° | 44km/h | 24819m | -18.3m/s | -53.0°C | 0.9% | 27.7hPa | 2.5V | 08:25:00 | 00:00:00 | 00:00:00 | |
| DO3MHA-12 | 2026-08-31 00:37:32 | 49.20649 | 10.27799 | 295° | 35km/h | 24855m | -18.2m/s | -52.9°C | 3.8% | 27.5hPa | 2.5V | 00:00:00 | 02:19:13 | 00:00:00 | |
| DL1XH1-15 | 2026-08-31 00:37:31 | 49.20620 | 10.27836 | 347° | 37km/h | 24928m | -18.4m/s | -53°C | 3.9% | 27.2hPa | 2.5V | 08:24:24 | 02:19:09 | 00:00:00 | |
| DL1XH-west | 2026-08-31 00:37:29 | 49.20629 | 10.27831 | 334° | 38km/h | 24909m | -18.4m/s | -53°C | 0.3% | 27.3hPa | 2.5V | 08:25:00 | 02:19:10 | 00:00:00 | |
| DG9SBQ-11 | 2026-08-31 00:37:28 | 49.20629 | 10.27831 | 335° | 38km/h | 24910m | -18.4m/s | -53.0°C | 0.9% | 27.3hPa | 2.6V | 08:25:00 | 00:00:00 | 00:00:00 | |
| DL1NUX | 2026-08-31 00:37:26 | 49.20583 | 10.27802 | 96° | 20km/h | 25056m | -18.4m/s | -52.8°C | 3.9% | 26.7hPa | 2.6V | 08:24:31 | 02:19:02 | 00:00:00 | |
| DK7TD | 2026-08-31 00:37:26 | 49.20603 | 10.27836 | 15° | 31km/h | 24965m | -18.5m/s | -52.9°C | 0.3% | 27.1hPa | 2.6V | 08:25:00 | 02:19:07 | 00:00:00 | |
| DF8AY | 2026-08-31 00:37:25 | 49.20596 | 10.27831 | 28° | 29km/h | 24983m | -18.4m/s | -52.9°C | 0.4% | 27hPa | 2.6V | 08:25:00 | 02:19:06 | 00:00:00 | |
| HSKMA3-T | 2026-08-31 00:37:24 | 49.20590 | 10.27825 | 42° | 27km/h | 25002m | -18.3m/s | -52.8°C | 0.4% | 26.9hPa | 2.5V | 08:25:00 | 02:19:05 | 00:00:00 | |
| DL1XH-west | 2026-08-31 00:37:18 | 49.20593 | 10.27785 | 160° | 24km/h | 25111m | -18.5m/s | -52.7°C | 0.4% | 26.5hPa | 2.5V | 08:25:00 | 02:18:59 | 00:00:00 | |
| DK7TD | 2026-08-31 00:37:15 | 49.20614 | 10.27786 | 201° | 31km/h | 25167m | -19.1m/s | -52.4°C | 0.3% | 26.2hPa | 2.6V | 08:25:00 | 02:18:56 | 00:00:00 | |
| DF8AY | 2026-08-31 00:37:15 | 49.20621 | 10.27791 | 213° | 33km/h | 25187m | -19m/s | -52.3°C | 0.3% | 26.1hPa | 2.5V | 08:25:00 | 02:18:55 | 00:00:00 | |
| HSKMA3-T | 2026-08-31 00:37:13 | 49.20627 | 10.27800 | 225° | 35km/h | 25205m | -19m/s | -52.2°C | 0.3% | 26hPa | 2.5V | 08:25:00 | 02:18:54 | 00:00:00 | |
| DO3MHA-12 | 2026-08-31 00:37:13 | 49.20633 | 10.27810 | 239° | 40km/h | 25225m | -18.9m/s | -52.1°C | 3.8% | 25.9hPa | 2.5V | 08:24:00 | 02:18:53 | 00:00:00 | |
| DL1NUX | 2026-08-31 00:37:13 | 49.20637 | 10.27824 | 250° | 38km/h | 25243m | -18.8m/s | -52.2°C | 3.7% | 25.9hPa | 2.6V | 08:24:41 | 02:18:52 | 00:00:00 | |
| DM0DOS-11 | 2026-08-31 00:37:11 | 49.20639 | 10.27838 | 263° | 40km/h | 25262m | -19m/s | -52.1°C | 3.8% | 25.8hPa | 2.6V | 08:24:42 | 02:18:51 | 00:00:00 | |
| DL1XH-west | 2026-08-31 00:37:07 | 49.20633 | 10.27885 | 298° | 42km/h | 25319m | -19.1m/s | -52°C | 0.3% | 25.6hPa | 2.5V | 08:25:00 | 02:18:48 | 00:00:00 | |
| DL1NUX | 2026-08-31 00:37:06 | 49.20589 | 10.27923 | 16° | 27km/h | 25434m | -19.2m/s | -51.7°C | 3.7% | 25.2hPa | 2.6V | 08:24:51 | 02:18:42 | 00:00:00 | |
| DK7TD | 2026-08-31 00:37:04 | 49.20613 | 10.27918 | 330° | 37km/h | 25377m | -19.2m/s | -51.8°C | 0.2% | 25.4hPa | 2.5V | 08:25:00 | 02:18:45 | 00:00:00 | |
| DF8AY | 2026-08-31 00:37:03 | 49.20605 | 10.27923 | 344° | 33km/h | 25396m | -18.9m/s | -51.8°C | 0.2% | 25.3hPa | 2.5V | 08:25:00 | 02:18:44 | 00:00:00 | |
| HSKMA3-T | 2026-08-31 00:37:02 | 49.20597 | 10.27925 | 359° | 31km/h | 25415m | -18.9m/s | -51.7°C | 0.3% | 25.2hPa | 2.5V | 08:25:00 | 02:18:43 | 00:00:00 | |
| BIOWL1-15 | 2026-08-31 00:37:02 | 49.20641 | 10.27975 | 288° | 53km/h | 25790m | -20.1m/s | -50.8°C | 0.2% | 23.8hPa | 2.5V | 08:25:51 | 02:18:24 | 00:00:00 | |
| DM0DOS-11 | 2026-08-31 00:37:01 | 49.20584 | 10.27919 | 35° | 26km/h | 25453m | -19.2m/s | -51.7°C | 3.7% | 25.1hPa | 2.6V | 08:24:52 | 02:18:41 | 00:00:00 | |
| DL1XH-west | 2026-08-31 00:36:57 | 49.20577 | 10.27895 | 95° | 24km/h | 25511m | -19.7m/s | -51.6°C | 0.2% | 24.9hPa | 2.5V | 08:25:00 | 02:18:38 | 00:00:00 | |
| DK7TD | 2026-08-31 00:36:53 | 49.20594 | 10.27864 | 160° | 31km/h | 25591m | -20.1m/s | -51.4°C | 0.3% | 24.5hPa | 2.5V | 08:25:00 | 02:18:34 | 00:00:00 | |
| DL1NUX | 2026-08-31 00:36:52 | 49.20610 | 10.27862 | 190° | 35km/h | 25631m | -19.6m/s | -51.3°C | 3.6% | 24.4hPa | 2.6V | 08:30:00 | 02:18:32 | 00:00:00 | |
| HSKMA3-T | 2026-08-31 00:36:52 | 49.20602 | 10.27861 | 175° | 33km/h | 25611m | -20.1m/s | -51.4°C | 0.2% | 24.4hPa | 2.5V | 08:25:00 | 02:18:33 | 00:00:00 | |
| DO3MHA-12 | 2026-08-31 00:36:52 | 49.20602 | 10.27861 | 176° | 44km/h | 25611m | -20.0m/s | -51.3°C | 3.6% | 24.4hPa | 2.6V | 00:00:00 | 02:18:33 | 00:00:00 | |
| DM0DOS-11 | 2026-08-31 00:36:51 | 49.20619 | 10.27866 | 206° | 37km/h | 25650m | -19.6m/s | -51.2°C | 3.6% | 24.3hPa | 2.6V | 08:25:02 | 02:18:31 | 00:00:00 | |
| SONCRA | 2026-08-31 00:36:49 | 49.20634 | 10.27886 | 234° | 42km/h | 25690m | -19.9m/s | -51.1°C | 0.8% | 24.2hPa | 2.6V | 00:00:00 | 00:00:00 | 00:00:00 | |
| DL1NUX | 2026-08-31 00:36:46 | 49.20629 | 10.28010 | 309° | 51km/h | 25831m | -20m/s | -50.7°C | 3.4% | 23.6hPa | 2.6V | 08:30:00 | 02:18:22 | 00:00:00 | |
| DL1XH-west | 2026-08-31 00:36:46 | 49.20643 | 10.27918 | 257° | 47km/h | 25730m | -20.4m/s | -51°C | 0.1% | 24hPa | 2.6V | 08:25:51 | 02:18:27 | 00:00:00 | |
| DJ8HS-15 | 2026-08-31 00:36:45 | 49.20645 | 10.27936 | 268° | 37km/h | 25750m | -20.2m/s | -50.9°C | 3.5% | 23.9hPa | 2.6V | 00:00:00 | 02:18:26 | 00:00:00 | |
| DC4HF-4 | 2026-08-31 00:36:44 | 49.20641 | 10.27975 | 288° | 51km/h | 25791m | -20.1m/s | -50.8°C | 0.8% | 23.8hPa | 2.6V | 00:00:00 | 00:00:00 | 00:00:00 | |
| PG1ADW-2 | 2026-08-31 00:36:43 | 49.20641 | 10.27975 | 289° | 37km/h | 25791m | -20.1m/s | -50.8°C | 3.5% | 23.7hPa | 2.6V | 00:00:00 | 00:00:00 | 00:00:00 | |
| DM0DOS-11 | 2026-08-31 00:36:42 | 49.20620 | 10.28023 | 320° | 49km/h | 25850m | -19.8m/s | -50.8°C | 3.5% | 23.6hPa | 2.6V | 08:25:12 | 02:18:21 | 00:00:00 | |
| HSKMA3-T | 2026-08-31 00:36:42 | 49.20636 | 10.27993 | 299° | 53km/h | 25810m | -20m/s | -50.7°C | 0.1% | 23.7hPa | 2.5V | 08:25:51 | 02:18:23 | 00:00:00 | |
| DL1ZP-14 | 2026-08-31 00:36:42 | 49.20629 | 10.28009 | 309° | 49km/h | 25831m | -20.0m/s | -50.7°C | 0.7% | 23.6hPa | 2.6V | 00:00:00 | 00:00:00 | 00:00:00 | |
| DB0UT-7 | 2026-08-31 00:36:41 | 49.20629 | 10.28009 | 310° | 40km/h | 25831m | -20.0m/s | -50.7°C | 3.4% | 23.6hPa | 2.5V | 00:00:00 | 02:18:22 | 00:00:00 | |
| DL1XH1-15 | 2026-08-31 00:36:39 | 49.20599 | 10.28040 | 345° | 42km/h | 25890m | -20.2m/s | -50.7°C | 3.5% | 23.4hPa | 2.5V | 08:25:14 | 02:18:19 | 00:00:00 | |
| DL1XH-west | 2026-08-31 00:36:36 | 49.20579 | 10.28041 | 11° | 37km/h | 25931m | -20.3m/s | -50.5°C | 0.1% | 23.3hPa | 2.6V | 08:25:51 | 02:18:17 | 00:00:00 | |
| DK7TD | 2026-08-31 00:36:32 | 49.20558 | 10.28013 | 80° | 24km/h | 26011m | -20.4m/s | -50.2°C | 0% | 23hPa | 2.5V | 08:25:51 | 02:18:13 | 00:00:00 | |
| DO3MHA-12 | 2026-08-31 00:36:32 | 49.20558 | 10.28013 | 81° | 31km/h | 26012m | -20.3m/s | -50.1°C | 3.3% | 22.9hPa | 2.6V | 00:00:00 | 02:18:13 | 00:00:00 | |
| DM0DOS-11 | 2026-08-31 00:36:31 | 49.20560 | 10.27997 | 128° | 22km/h | 26052m | -20.6m/s | -50.1°C | 3.3% | 22.9hPa | 2.6V | 08:25:22 | 02:18:11 | 00:00:00 | |
| HSKMA3-T | 2026-08-31 00:36:31 | 49.20558 | 10.28004 | 103° | 22km/h | 26032m | -20.5m/s | -50.2°C | 0% | 22.9hPa | 2.6V | 08:25:51 | 02:18:12 | 00:00:00 | |
| DL6DJ-15 | 2026-08-31 00:36:30 | 49.20561 | 10.27997 | 128° | 20km/h | 26052m | -20.7m/s | -50.1°C | 0.7% | 22.9hPa | 2.5V | 00:00:00 | 00:00:00 | 00:00:00 | |
| DL1XH1-15 | 2026-08-31 00:36:29 | 49.20570 | 10.27990 | 178° | 24km/h | 26093m | -20.5m/s | -50.1°C | 3.3% | 22.7hPa | 2.5V | 08:25:24 | 02:18:09 | 00:00:00 | |
| DL1NUX | 2026-08-31 00:36:28 | 49.20577 | 10.27992 | 201° | 29km/h | 26114m | -20.5m/s | -50.1°C | 3.3% | 22.7hPa | 2.5V | 08:30:00 | 02:18:08 | 00:00:00 | |
| DL1XH-west | 2026-08-31 00:36:26 | 49.20584 | 10.27998 | 220° | 33km/h | 26134m | -21m/s | -50.2°C | 0% | 22.6hPa | 2.6V | 08:25:51 | 02:18:07 | 00:00:00 | |
| DJ8HS-15 | 2026-08-31 00:36:25 | 49.20590 | 10.28008 | 234° | 47km/h | 26156m | -21.1m/s | -50.2°C | 3.3% | 22.5hPa | 2.5V | 00:00:00 | 02:18:06 | 00:00:00 | |
| EDDB2-11 | 2026-08-31 00:36:23 | 49.20598 | 10.28056 | 273° | 49km/h | 26220m | -21.4m/s | -50.3°C | 0.8% | 22.3hPa | 2.5V | 00:00:00 | 00:00:00 | 00:00:00 | |
| DO3MHA-12 | 2026-08-31 00:36:22 | 49.20598 | 10.28056 | 274° | 51km/h | 26220m | -21.3m/s | -50.3°C | 3.3% | 22.2hPa | 2.5V | 00:00:00 | 02:18:03 | 00:00:00 | |
| DL1XH1-15 | 2026-08-31 00:36:21 | 49.20574 | 10.28124 | 323° | 53km/h | 26303m | -21.1m/s | -50.4°C | 3.3% | 22hPa | 2.5V | 08:25:34 | 02:17:59 | 00:00:00 | |
| DK7TD | 2026-08-31 00:36:21 | 49.20596 | 10.28075 | 285° | 51km/h | 26241m | -21.4m/s | -50.3°C | 0% | 22.2hPa | 2.6V | 08:25:51 | 02:18:02 | 00:00:00 | |
| HSKMA3-T | 2026-08-31 00:36:20 | 49.20591 | 10.28094 | 298° | 53km/h | 26262m | -21.1m/s | -50.3°C | 0% | 22.1hPa | 2.6V | 08:25:51 | 02:18:01 | 00:00:00 | |
| DL1NUX | 2026-08-31 00:36:18 | 49.20562 | 10.28134 | 338° | 53km/h | 26324m | -21.4m/s | -50.3°C | 3.3% | 21.9hPa | 2.5V | 08:30:00 | 02:17:58 | 00:00:00 | |
| DL1XH-west | 2026-08-31 00:36:16 | 49.20549 | 10.28139 | 351° | 53km/h | 26346m | -21.6m/s | -50.3°C | 0% | 21.8hPa | 2.6V | 08:25:51 | 02:17:57 | 00:00:00 | |
| DL1XH1-15 | 2026-08-31 00:36:13 | 49.20501 | 10.28058 | 125° | 40km/h | 26519m | -21.3m/s | -50.5°C | 3.3% | 21.3hPa | 2.5V | 08:25:44 | 02:17:49 | 00:00:00 | |
| BIOWL1-15 | 2026-08-31 00:36:12 | 49.20541 | 10.28039 | 193° | 51km/h | 26605m | -21.6m/s | -50.6°C | 0.1% | 21hPa | 2.5V | 08:25:51 | 02:17:45 | 00:00:00 | |
| DF8AY | 2026-08-31 00:36:11 | 49.20517 | 10.28040 | 161° | 44km/h | 26563m | -21.3m/s | -50.5°C | 0.1% | 21.1hPa | 2.6V | 08:25:51 | 02:17:47 | 00:00:00 | |
| HSKMA3-T | 2026-08-31 00:36:10 | 49.20495 | 10.28087 | 86° | 42km/h | 26476m | -21.8m/s | -50.6°C | 0.1% | 21.4hPa | 2.6V | 08:25:51 | 02:17:51 | 00:00:00 | |
| DL1XH-west | 2026-08-31 00:36:05 | 49.20528 | 10.28037 | 179° | 47km/h | 26584m | -21.4m/s | -50.5°C | 0.1% | 21.1hPa | 2.6V | 08:25:51 | 02:17:46 | 00:00:00 | |
| DL1XH1-15 | 2026-08-31 00:36:03 | 49.20588 | 10.28130 | 269° | 53km/h | 26735m | -21.8m/s | -50.8°C | 3.4% | 20.6hPa | 2.5V | 08:25:54 | 02:17:39 | 00:00:00 | |
| DK7TD | 2026-08-31 00:36:00 | 49.20581 | 10.28090 | 246° | 55km/h | 26692m | -21.7m/s | -50.9°C | 0.1% | 20.7hPa | 2.6V | 08:26:42 | 02:17:41 | 00:00:00 | |
| BIOWL1-15 | 2026-08-31 00:35:59 | 49.20577 | 10.28180 | 309° | 42km/h | 26800m | -22.1m/s | -51°C | 0.2% | 20.4hPa | 2.6V | 08:26:42 | 02:17:36 | 00:00:00 | |
| HSKMA3-T | 2026-08-31 00:35:59 | 49.20586 | 10.28110 | 255° | 53km/h | 26713m | -21.1m/s | -50.9°C | 0.2% | 20.6hPa | 2.5V | 08:26:42 | 02:17:40 | 00:00:00 | |
| DF8AY | 2026-08-31 00:35:56 | 49.20582 | 10.28166 | 296° | 44km/h | 26779m | -22m/s | -50.9°C | 0.2% | 20.4hPa | 2.6V | 08:26:42 | 02:17:37 | 00:00:00 | |
| DL1XH-west | 2026-08-31 00:35:54 | 49.20570 | 10.28190 | 325° | 38km/h | 26823m | -21.6m/s | -51°C | 0.2% | 20.3hPa | 2.5V | 08:26:42 | 02:17:35 | 00:00:00 | |
| EDDB2-11 | 2026-08-31 00:35:52 | 49.20548 | 10.28196 | 22° | 24km/h | 26887m | -21.4m/s | -50.9°C | 0.8% | 20.1hPa | 2.6V | 00:00:00 | 00:00:00 | 00:00:00 | |
| DM0DOS-11 | 2026-08-31 00:35:51 | 49.20543 | 10.28192 | 43° | 22km/h | 26908m | -21.5m/s | -50.8°C | 3.5% | 20hPa | 2.6V | 08:26:02 | 02:17:31 | 00:00:00 | |
| DL1XH1-15 | 2026-08-31 00:35:51 | 49.20540 | 10.28179 | 96° | 18km/h | 26952m | -21.7m/s | -50.8°C | 3.5% | 19.9hPa | 2.5V | 08:26:04 | 02:17:29 | 00:00:00 | |
| DF8AY | 2026-08-31 00:35:50 | 49.20560 | 10.28168 | 194° | 31km/h | 27040m | -22.5m/s | -51°C | 0.2% | 19.7hPa | 2.5V | 08:26:42 | 02:17:25 | 00:00:00 | |
| DK7TD | 2026-08-31 00:35:50 | 49.20543 | 10.28192 | 44° | 22km/h | 26908m | -21.5m/s | -50.8°C | 0.2% | 20hPa | 2.6V | 08:26:42 | 02:17:31 | 00:00:00 | |
| HSKMA3-T | 2026-08-31 00:35:49 | 49.20541 | 10.28186 | 67° | 18km/h | 26930m | -21.8m/s | -50.8°C | 0.1% | 19.9hPa | 2.5V | 08:26:42 | 02:17:30 | 00:00:00 | |
| SONCRA | 2026-08-31 00:35:47 | 49.20546 | 10.28169 | 158° | 22km/h | 26996m | -22.0m/s | -50.9°C | 0.8% | 19.7hPa | 2.6V | 00:00:00 | 00:00:00 | 00:00:00 | |
| DJ8HS-15 | 2026-08-31 00:35:45 | 49.20552 | 10.28167 | 178° | 53km/h | 27018m | -22.2m/s | -50.9°C | 3.6% | 19.6hPa | 2.6V | 00:00:00 | 02:17:26 | 00:00:00 | |
| DM0DOS-11 | 2026-08-31 00:35:44 | 49.20587 | 10.28214 | 249° | 51km/h | 27130m | -23.6m/s | -50.9°C | 3.6% | 19.4hPa | 2.6V | 08:26:12 | 02:17:21 | 00:00:00 | |
| DL1XH-west | 2026-08-31 00:35:43 | 49.20567 | 10.28174 | 214° | 37km/h | 27062m | -22.5m/s | -51°C | 0.1% | 19.5hPa | 2.5V | 08:26:42 | 02:17:24 | 00:00:00 | |
| DK7TD | 2026-08-31 00:35:40 | 49.20587 | 10.28214 | 250° | 51km/h | 27130m | -23.6m/s | -50.9°C | 0.2% | 19.4hPa | 2.6V | 08:26:42 | 02:17:21 | 00:00:00 | |
| HSKMA3-T | 2026-08-31 00:35:39 | 49.20591 | 10.28256 | 274° | 57km/h | 27176m | -23.1m/s | -50.7°C | 0.2% | 19.2hPa | 2.5V | 08:26:42 | 02:17:19 | 00:00:00 | |
| BIOWL1-15 | 2026-08-31 00:35:38 | 49.20465 | 10.28217 | 133° | 38km/h | 27548m | -22.3m/s | -50.2°C | 0.1% | 18.1hPa | 2.5V | 08:26:42 | 02:17:03 | 00:00:00 | |
| DL1XH-west | 2026-08-31 00:35:33 | 49.20551 | 10.28344 | 337° | 64km/h | 27289m | -23.6m/s | -50.2°C | 0.1% | 18.8hPa | 2.5V | 08:26:42 | 02:17:14 | 00:00:00 | |
| DM0DOS-11 | 2026-08-31 00:35:31 | 49.20504 | 10.28346 | 20° | 68km/h | 27359m | -24.8m/s | -50.3°C | 3.4% | 18.7hPa | 2.6V | 08:26:22 | 02:17:11 | 00:00:00 | |
| DK7TD | 2026-08-31 00:35:29 | 49.20489 | 10.28335 | 28° | 64km/h | 27383m | -23.3m/s | -50.4°C | 0.2% | 18.6hPa | 2.5V | 08:26:42 | 02:17:10 | 00:00:00 | |
| HSKMA3-T | 2026-08-31 00:35:28 | 49.20477 | 10.28322 | 42° | 60km/h | 27406m | -23.8m/s | -50.5°C | 0.1% | 18.6hPa | 2.5V | 08:26:42 | 02:17:09 | 00:00:00 | |
| DG9SBQ-11 | 2026-08-31 00:35:28 | 49.20477 | 10.28322 | 43° | 60km/h | 27407m | -23.8m/s | -50.5°C | 0.8% | 18.5hPa | 2.6V | 08:26:00 | 00:00:00 | 00:00:00 | |
| DL1NUX | 2026-08-31 00:35:25 | 49.20473 | 10.28209 | 153° | 38km/h | 27571m | -23.4m/s | -50.2°C | 3.4% | 18.1hPa | 2.6V | 08:30:00 | 02:17:02 | 00:00:00 | |
| DF8AY | 2026-08-31 00:35:24 | 49.20473 | 10.28209 | 154° | 38km/h | 27571m | -23.4m/s | -50.2°C | 0.1% | 18.1hPa | 2.6V | 08:26:42 | 02:17:02 | 00:00:00 | |
| DM0DOS-11 | 2026-08-31 00:35:24 | 49.20481 | 10.28205 | 172° | 33km/h | 27594m | -22.9m/s | -50.3°C | 3.4% | 18hPa | 2.6V | 08:26:32 | 02:17:01 | 00:00:00 | |
| DL1XH1-15 | 2026-08-31 00:35:23 | 49.20496 | 10.28214 | 223° | 35km/h | 27640m | -24.1m/s | -50.3°C | 3.5% | 17.8hPa | 2.5V | 08:26:34 | 02:16:59 | 00:00:00 | |
| DL1XH-west | 2026-08-31 00:35:23 | 49.20460 | 10.28230 | 114° | 44km/h | 27525m | -24.4m/s | -50.2°C | 0.1% | 18.2hPa | 2.5V | 08:26:42 | 02:17:04 | 00:00:00 | |
| DK7TD | 2026-08-31 00:35:18 | 49.20496 | 10.28214 | 223° | 35km/h | 27640m | -24.2m/s | -50.3°C | 0.2% | 17.9hPa | 2.5V | 08:26:42 | 02:16:59 | 00:00:00 | |
| HSKMA3-T | 2026-08-31 00:35:17 | 49.20501 | 10.28224 | 245° | 35km/h | 27664m | -23.6m/s | -50.3°C | 0.1% | 17.8hPa | 2.5V | 08:26:42 | 02:16:58 | 00:00:00 | |
| DF8AY | 2026-08-31 00:35:13 | 49.20490 | 10.28280 | 323° | 44km/h | 27758m | -23.7m/s | -50.2°C | 0.2% | 17.5hPa | 2.5V | 08:26:42 | 02:16:54 | 00:00:00 | |
| BIOWL1-15 | 2026-08-31 00:35:13 | 49.20474 | 10.28220 | 227° | 42km/h | 28089m | -23.9m/s | -49.7°C | 0.1% | 16.7hPa | 2.5V | 08:28:24 | 02:16:40 | 00:00:00 | |
| DM0DOS-11 | 2026-08-31 00:35:12 | 49.20457 | 10.28294 | 11° | 46km/h | 27828m | -24.7m/s | -49.9°C | 3.4% | 17.4hPa | 2.6V | 08:26:42 | 02:16:51 | 00:00:00 | |
| DL1XH-west | 2026-08-31 00:35:12 | 49.20480 | 10.28289 | 334° | 49km/h | 27781m | -24m/s | -50.1°C | 0.2% | 17.5hPa | 2.5V | 08:26:42 | 02:16:53 | 00:00:00 | |
| DK7TD | 2026-08-31 00:35:08 | 49.20438 | 10.28280 | 44° | 42km/h | 27875m | -23.4m/s | -49.8°C | 0% | 17.2hPa | 2.5V | 08:27:33 | 02:16:49 | 00:00:00 | |
| HSKMA3-T | 2026-08-31 00:35:07 | 49.20432 | 10.28268 | 66° | 42km/h | 27899m | -25.2m/s | -49.9°C | 0.1% | 17.2hPa | 2.5V | 08:27:33 | 02:16:48 | 00:00:00 | |
| DF8AY | 2026-08-31 00:35:03 | 49.20439 | 10.28213 | 143° | 37km/h | 27995m | -22.8m/s | -49.5°C | 0.1% | 16.9hPa | 2.5V | 08:27:33 | 02:16:44 | 00:00:00 | |
| DL1XH1-15 | 2026-08-31 00:35:03 | 49.20480 | 10.28235 | 248° | 49km/h | 28112m | -23.6m/s | -49.7°C | 3.4% | 16.6hPa | 2.5V | 08:26:54 | 02:16:39 | 00:00:00 | |
| DF8AY-15 | 2026-08-31 00:35:03 | 49.20439 | 10.28213 | 143° | 44km/h | 27995m | -22.7m/s | -49.5°C | 3.3% | 16.9hPa | 2.5V | 08:26:00 | 02:16:44 | 00:00:00 | |
| DM0DOS-11 | 2026-08-31 00:35:02 | 49.20466 | 10.28210 | 208° | 42km/h | 28065m | -24m/s | -49.6°C | 3.3% | 16.7hPa | 2.6V | 08:26:52 | 02:16:41 | 00:00:00 | |
| DL1XH-west | 2026-08-31 00:35:01 | 49.20457 | 10.28206 | 184° | 37km/h | 28042m | -23.6m/s | -49.5°C | 0% | 16.8hPa | 2.6V | 08:27:33 | 02:16:42 | 00:00:00 | |
| DK7TD | 2026-08-31 00:34:57 | 49.20483 | 10.28253 | 266° | 49km/h | 28135m | -23.7m/s | -49.8°C | 0.2% | 16.6hPa | 2.5V | 08:27:33 | 02:16:38 | 00:00:00 | |
| HSKMA3-T | 2026-08-31 00:34:56 | 49.20482 | 10.28273 | 282° | 55km/h | 28159m | -24.8m/s | -49.7°C | 0.2% | 16.5hPa | 2.6V | 08:27:33 | 02:16:37 | 00:00:00 | |
| DC4HF-4 | 2026-08-31 00:34:55 | 49.20477 | 10.28293 | 299° | 57km/h | 28183m | -23.7m/s | -49.6°C | 0.8% | 16.4hPa | 2.5V | 00:00:00 | 00:00:00 | 00:00:00 | |
| DL1XH1-15 | 2026-08-31 00:34:53 | 49.20397 | 10.28306 | 55° | 47km/h | 28350m | -23.3m/s | -49.2°C | 3.3% | 16hPa | 2.5V | 08:27:04 | 02:16:29 | 00:00:00 | |
| DF8AY | 2026-08-31 00:34:52 | 49.20444 | 10.28331 | 347° | 55km/h | 28255m | -25.4m/s | -49.5°C | 0.1% | 16.2hPa | 2.5V | 08:27:33 | 02:16:33 | 00:00:00 | |
| DM0DOS-11 | 2026-08-31 00:34:51 | 49.20416 | 10.28329 | 18° | 53km/h | 28304m | -24m/s | -49.4°C | 3.4% | 16.1hPa | 2.6V | 08:27:02 | 02:16:31 | 00:00:00 | |
| BIOWL1-15 | 2026-08-31 00:34:51 | 49.20416 | 10.28329 | 18° | 53km/h | 28304m | -24m/s | -49.4°C | 0.1% | 16.1hPa | 2.6V | 08:28:24 | 02:16:31 | 00:00:00 | |
| DL1XH-west | 2026-08-31 00:34:51 | 49.20430 | 10.28333 | 5° | 55km/h | 28280m | -24.8m/s | -49.5°C | 0.1% | 16.2hPa | 2.6V | 08:27:33 | 02:16:32 | 00:00:00 | |
| DK7TD | 2026-08-31 00:34:47 | 49.20392 | 10.28289 | 79° | 49km/h | 28373m | -24.8m/s | -49.1°C | 0.1% | 16hPa | 2.5V | 08:27:33 | 02:16:28 | 00:00:00 | |
| HSKMA3-T | 2026-08-31 00:34:46 | 49.20392 | 10.28271 | 99° | 46km/h | 28397m | -23.5m/s | -49.2°C | 0.1% | 15.9hPa | 2.6V | 08:27:33 | 02:16:27 | 00:00:00 | |
| SONCRA | 2026-08-31 00:34:44 | 49.20403 | 10.28241 | 137° | 46km/h | 28446m | -24.2m/s | -49.1°C | 0.7% | 15.8hPa | 2.5V | 00:00:00 | 00:00:00 | 00:00:00 | |
| DL1XH1-15 | 2026-08-31 00:34:43 | 49.20461 | 10.28260 | 249° | 53km/h | 28591m | -24.3m/s | -48.7°C | 3.2% | 15.4hPa | 2.5V | 08:27:14 | 02:16:19 | 00:00:00 | |
| SO1NDE-10 | 2026-08-31 00:34:43 | 49.20412 | 10.28230 | 153° | 22km/h | 28471m | -25.5m/s | -49.0°C | 3.3% | 15.7hPa | 2.6V | 00:00:00 | 02:16:24 | 00:00:00 | |
| DM0DOS-11 | 2026-08-31 00:34:41 | 49.20446 | 10.28232 | 210° | 47km/h | 28544m | -24.3m/s | -48.8°C | 3.3% | 15.5hPa | 2.6V | 08:27:12 | 02:16:21 | 00:00:00 | |
| BIOWL1-15 | 2026-08-31 00:34:41 | 49.20435 | 10.28226 | 190° | 46km/h | 28520m | -24m/s | -48.9°C | 0% | 15.6hPa | 2.6V | 08:28:24 | 02:16:22 | 00:00:00 | |
| DL1XH-west | 2026-08-31 00:34:40 | 49.20446 | 10.28232 | 210° | 47km/h | 28544m | -24.3m/s | -48.8°C | 0.1% | 15.5hPa | 2.6V | 08:27:33 | 02:16:21 | 00:00:00 | |
| DK7TD | 2026-08-31 00:34:36 | 49.20463 | 10.28300 | 280° | 58km/h | 28639m | -23.8m/s | -48.5°C | 0% | 15.3hPa | 2.6V | 08:27:33 | 02:16:17 | 00:00:00 | |
| HSKMA3-T | 2026-08-31 00:34:35 | 49.20459 | 10.28321 | 297° | 55km/h | 28662m | -24.4m/s | -48.4°C | 0% | 15.3hPa | 2.6V | 08:27:33 | 02:16:16 | 00:00:00 | |
| DG9SBQ-11 | 2026-08-31 00:34:34 | 49.20459 | 10.28321 | 298° | 55km/h | 28663m | -24.4m/s | -48.4°C | 0.7% | 15.3hPa | 2.5V | 00:00:00 | 00:00:00 | 00:00:00 | |
| DL1XH1-15 | 2026-08-31 00:34:33 | 49.20375 | 10.28354 | 42° | 47km/h | 28836m | -24.7m/s | -48.4°C | 3.2% | 14.8hPa | 2.5V | 08:27:24 | 02:16:09 | 00:00:00 | |
| HEMX73-11 | 2026-08-31 00:34:32 | 49.20440 | 10.28354 | 327° | 57km/h | 28712m | -25.4m/s | -48.3°C | 0.7% | 15.2hPa | 2.6V | 00:00:00 | 00:00:00 | 00:00:00 | |
| DM0DOS-11 | 2026-08-31 00:34:31 | 49.20398 | 10.28369 | 9° | 53km/h | 28787m | -24.8m/s | -48.4°C | 3.2% | 15hPa | 2.6V | 08:27:22 | 02:16:11 | 00:00:00 | |
| DF8AY | 2026-08-31 00:34:31 | 49.20412 | 10.28369 | 351° | 55km/h | 28762m | -25.2m/s | -48.4°C | 0% | 15hPa | 2.6V | 08:27:33 | 02:16:12 | 00:00:00 | |
| DL1XH-west | 2026-08-31 00:34:29 | 49.20386 | 10.28364 | 20° | 53km/h | 28812m | -25.3m/s | -48.4°C | 0.1% | 14.9hPa | 2.5V | 08:27:33 | 02:16:10 | 00:00:00 | |
| HSKMA3-T | 2026-08-31 00:34:25 | 49.20361 | 10.28307 | 95° | 47km/h | 28909m | -25m/s | -48°C | 0% | 14.7hPa | 2.6V | 08:27:33 | 02:16:06 | 00:00:00 | |
| DJ8HS-15 | 2026-08-31 00:34:25 | 49.20361 | 10.28307 | 95° | 46km/h | 28910m | -24.9m/s | -48.0°C | 3.2% | 14.6hPa | 2.5V | 00:00:00 | 02:16:06 | 00:00:00 | |
| DL8DAS-14 | 2026-08-31 00:34:24 | 49.20363 | 10.28290 | 109° | 42km/h | 28935m | -26.1m/s | -48.1°C | -1.0% | 14.7hPa | 2.5V | 00:00:00 | 00:00:00 | 00:00:00 | |
| DL1XH1-15 | 2026-08-31 00:34:23 | 49.20409 | 10.28264 | 226° | 33km/h | 29086m | -24.8m/s | -47.1°C | 3% | 14.3hPa | 2.5V | 08:27:34 | 02:15:59 | 00:00:00 | |
| BIOWL1-15 | 2026-08-31 00:34:20 | 49.20394 | 10.28256 | 179° | 38km/h | 29036m | -25.9m/s | -47.5°C | 0% | 14.4hPa | 2.6V | 08:28:24 | 02:16:01 | 00:00:00 | |
| DL1XH-west | 2026-08-31 00:34:18 | 49.20409 | 10.28264 | 227° | 33km/h | 29086m | -24.8m/s | -47.2°C | 0% | 14.3hPa | 2.5V | 08:28:24 | 02:15:59 | 00:00:00 | |
| DK7TD | 2026-08-31 00:34:15 | 49.20411 | 10.28300 | 298° | 40km/h | 29159m | -26m/s | -47°C | 0% | 14.2hPa | 2.6V | 08:28:24 | 02:15:56 | 00:00:00 | |
| DL1XH1-15 | 2026-08-31 00:34:13 | 49.20334 | 10.28298 | 52° | 55km/h | 29335m | -25m/s | -46.5°C | 3% | 13.8hPa | 2.5V | 08:27:44 | 02:15:49 | 00:00:00 | |
| DF8AY-15 | 2026-08-31 00:34:12 | 49.20382 | 10.28327 | 352° | 47km/h | 29237m | -26.2m/s | -46.9°C | 3.0% | 14.0hPa | 2.6V | 00:00:00 | 02:15:53 | 00:00:00 | |
| HEMX73-11 | 2026-08-31 00:34:11 | 49.20383 | 10.28327 | 353° | 49km/h | 29237m | -26.2m/s | -46.9°C | 0.6% | 14.0hPa | 2.6V | 08:28:00 | 00:00:00 | 00:00:00 | |
| DM0DOS-11 | 2026-08-31 00:34:10 | 49.20356 | 10.28322 | 18° | 57km/h | 29287m | -25.1m/s | -46.8°C | 3% | 13.9hPa | 2.6V | 08:27:42 | 02:15:51 | 00:00:00 | |
| DF8AY | 2026-08-31 00:34:09 | 49.20343 | 10.28313 | 36° | 55km/h | 29311m | -23.6m/s | -46.7°C | 0% | 13.8hPa | 2.5V | 08:28:24 | 02:15:50 | 00:00:00 | |
| DL1XH-west | 2026-08-31 00:34:07 | 49.20327 | 10.28281 | 69° | 53km/h | 29361m | -25.2m/s | -46.2°C | 0% | 13.7hPa | 2.5V | 08:28:24 | 02:15:48 | 00:00:00 | |
| HSKMA3-T | 2026-08-31 00:34:04 | 49.20327 | 10.28224 | 112° | 47km/h | 29440m | -26m/s | -45.9°C | 0% | 13.6hPa | 2.5V | 08:28:24 | 02:15:45 | 00:00:00 | |
| BIOWL1-15 | 2026-08-31 00:34:00 | 49.20363 | 10.28196 | 219° | 33km/h | 29569m | -24.7m/s | -46.1°C | 0% | 13.3hPa | 2.5V | 08:28:24 | 02:15:40 | 00:00:00 | |
| DL1XH-west | 2026-08-31 00:33:57 | 49.20373 | 10.28219 | 251° | 42km/h | 29619m | -24.3m/s | -46.2°C | 0% | 13.2hPa | 2.5V | 08:28:24 | 02:15:38 | 00:00:00 | |
| DK7TD | 2026-08-31 00:33:53 | 49.20373 | 10.28292 | 283° | 49km/h | 29720m | -26.3m/s | -45.9°C | 0% | 13hPa | 2.5V | 08:28:24 | 02:15:34 | 00:00:00 | |
| DF8AY | 2026-08-31 00:33:48 | 49.20344 | 10.28352 | 333° | 33km/h | 29846m | -24.3m/s | -45.4°C | 0% | 12.7hPa | 2.5V | 08:28:24 | 02:15:29 | 00:00:00 | |
| BIOWL1-15 | 2026-08-31 00:33:44 | 49.20317 | 10.28352 | 21° | 29km/h | 29944m | -26.2m/s | -44.9°C | 0% | 12.6hPa | 2.5V | 08:28:24 | 02:15:25 | 00:00:00 | |
| DM0DOS-11 | 2026-08-31 00:33:44 | 49.20287 | 10.28329 | 35° | 37km/h | 30047m | -25.6m/s | -44.3°C | 2.8% | 12.3hPa | 2.6V | 08:28:12 | 02:15:21 | 00:00:00 | |
| DK7TD | 2026-08-31 00:33:43 | 49.20310 | 10.28348 | 18° | 33km/h | 29970m | -25.9m/s | -44.7°C | 0% | 12.5hPa | 2.5V | 08:28:24 | 02:15:24 | 00:00:00 | |
| HSKMA3-T | 2026-08-31 00:33:42 | 49.20302 | 10.28343 | 21° | 33km/h | 29995m | -25.9m/s | -44.5°C | 0% | 12.5hPa | 2.5V | 08:28:24 | 02:15:23 | 00:00:00 | |
| DF8AY | 2026-08-31 00:33:38 | 49.20275 | 10.28309 | 60° | 37km/h | 30098m | -25.7m/s | -44.1°C | 0% | 12.3hPa | 2.5V | 08:28:24 | 02:15:19 | 00:00:00 | |
| BIOWL1-15 | 2026-08-31 00:33:34 | 49.20276 | 10.28262 | 129° | 35km/h | 30199m | -25.6m/s | -43.6°C | 0% | 12.1hPa | 2.5V | 08:28:24 | 02:15:15 | 00:00:00 | |
| HSKMA3-T | 2026-08-31 00:33:33 | 49.20289 | 10.28243 | 150° | 38km/h | 30251m | -25.5m/s | -43.5°C | 0% | 12hPa | 2.5V | 08:28:24 | 02:15:13 | 00:00:00 | |
| DL1XH-west | 2026-08-31 00:33:23 | 49.20380 | 10.28292 | 249° | 51km/h | 30485m | -26.4m/s | -42.3°C | 0% | 11.6hPa | 2.5V | 08:29:15 | 02:15:04 | 00:00:00 | |
| BIOWL1-15 | 2026-08-31 00:33:22 | 49.20382 | 10.28353 | 286° | 55km/h | 30564m | -25.9m/s | -42.3°C | 0% | 11.4hPa | 2.6V | 08:29:15 | 02:15:01 | 00:00:00 | |
| DK7TD | 2026-08-31 00:33:22 | 49.20384 | 10.28312 | 262° | 55km/h | 30511m | -26.3m/s | -42.2°C | 0% | 11.5hPa | 2.5V | 08:29:15 | 02:15:03 | 00:00:00 | |
| DL8DAS-14 | 2026-08-31 00:33:22 | 49.20384 | 10.28312 | 261° | 53km/h | 30512m | -26.3m/s | -42.2°C | -1.0% | -1.0hPa | 2.5V | 00:00:00 | 00:00:00 | 00:00:00 | |
| DL1XH1-15 | 2026-08-31 00:33:21 | 49.20369 | 10.28392 | 306° | 58km/h | 30616m | -26.4m/s | -42.2°C | 2.4% | 11.3hPa | 2.5V | 08:28:34 | 02:14:59 | 00:00:00 | |
| HSKMA3-T | 2026-08-31 00:33:21 | 49.20384 | 10.28332 | 274° | 55km/h | 30538m | -27.1m/s | -42.2°C | 0% | 11.5hPa | 2.6V | 08:29:15 | 02:15:02 | 00:00:00 | |
| DF8AY | 2026-08-31 00:33:14 | 49.20319 | 10.28441 | 348° | 60km/h | 30723m | -26.9m/s | -42.3°C | 0% | 11.2hPa | 2.5V | 18:12:15 | 02:14:55 | 00:00:00 | |
| DL1XH1-15 | 2026-08-31 00:33:13 | 49.20232 | 10.28404 | 45° | 57km/h | 30884m | -27.3m/s | -42.1°C | 2.4% | 10.9hPa | 2.5V | 08:28:44 | 02:14:49 | 00:00:00 | |
| DL1XH-west | 2026-08-31 00:33:12 | 49.20287 | 10.28443 | 7° | 64km/h | 30777m | -26.6m/s | -42.3°C | 0% | 11.1hPa | 2.5V | 08:29:15 | 02:14:53 | 00:00:00 | |
| DF8AY-15 | 2026-08-31 00:33:12 | 49.20287 | 10.28443 | 7° | 38km/h | 30777m | -26.5m/s | -42.2°C | 2.4% | 11.0hPa | 2.5V | 00:00:00 | 02:14:53 | 00:00:00 | |
| DM0DOS-11 | 2026-08-31 00:33:11 | 49.20223 | 10.28388 | 56° | 55km/h | 30912m | -28.6m/s | -42°C | 2.4% | 10.8hPa | 2.5V | 08:28:45 | 02:14:48 | 00:00:00 | |
| DK7TD | 2026-08-31 00:33:11 | 49.20271 | 10.28438 | 14° | 64km/h | 30804m | -27.5m/s | -42.2°C | 0% | 11hPa | 2.6V | 08:29:15 | 02:14:52 | 00:00:00 | |
| HSKMA3-T | 2026-08-31 00:33:10 | 49.20256 | 10.28430 | 26° | 60km/h | 30831m | -27.2m/s | -42.2°C | 0% | 11hPa | 2.6V | 08:29:15 | 02:14:51 | 00:00:00 | |
| DF8AY | 2026-08-31 00:33:04 | 49.20211 | 10.28339 | 82° | 40km/h | 30996m | -27.5m/s | -41.7°C | 0% | 10.7hPa | 2.5V | 18:12:15 | 02:14:45 | 00:00:00 | |
| OE5DRO-10 | 2026-08-31 00:33:04 | 49.20211 | 10.28338 | 82° | 37km/h | 30996m | -27.5m/s | -41.6°C | 2.3% | 10.7hPa | 2.5V | 00:00:00 | 00:00:00 | 00:00:00 | |
| DL1XH1-15 | 2026-08-31 00:33:03 | 49.20225 | 10.28304 | 231° | 18km/h | 31161m | -28.3m/s | -41.3°C | 2.3% | 10.4hPa | 2.5V | 08:28:54 | 02:14:39 | 00:00:00 | |
| DL1XH-west | 2026-08-31 00:33:01 | 49.20216 | 10.28305 | 126° | 20km/h | 31080m | -27.5m/s | -41.5°C | 0% | 10.6hPa | 2.6V | 08:29:15 | 02:14:42 | 00:00:00 | |
| DM0DOS-11 | 2026-08-31 00:33:01 | 49.20227 | 10.28310 | 252° | 20km/h | 31189m | -28.2m/s | -41.3°C | 2.3% | 10.4hPa | 2.5V | 08:28:55 | 02:14:38 | 00:00:00 | |
| HSKMA3-T | 2026-08-31 00:33:00 | 49.20219 | 10.28301 | 148° | 18km/h | 31106m | -27.6m/s | -41.5°C | 0% | 10.5hPa | 2.6V | 08:29:15 | 02:14:41 | 00:00:00 | |
| DF8AY | 2026-08-31 00:32:54 | 49.20225 | 10.28344 | 287° | 38km/h | 31270m | -26.9m/s | -41.4°C | 0% | 10.3hPa | 2.5V | 18:12:15 | 02:14:35 | 00:00:00 | |
| DL6DJ-15 | 2026-08-31 00:32:53 | 49.20215 | 10.28373 | 304° | 47km/h | 31325m | -29.4m/s | -41.4°C | 0.4% | 10.2hPa | 2.5V | 00:00:00 | 00:00:00 | 00:00:00 | |
| DF8AY-15 | 2026-08-31 00:32:52 | 49.20215 | 10.28373 | 305° | 53km/h | 31325m | -29.3m/s | -41.3°C | 2.3% | 10.2hPa | 2.5V | 00:00:00 | 02:14:33 | 00:00:00 | |
| DM0DOS-11 | 2026-08-31 00:32:51 | 49.20161 | 10.28426 | 353° | 51km/h | 31471m | -30m/s | -41.1°C | 2.2% | 9.9hPa | 2.5V | 08:29:05 | 02:14:28 | 00:00:00 | |
| DK7TD | 2026-08-31 00:32:50 | 49.20197 | 10.28403 | 321° | 55km/h | 31384m | -29.7m/s | -41.3°C | 0% | 10.1hPa | 2.6V | 08:29:15 | 02:14:31 | 00:00:00 | |
| DB0ND-19 | 2026-08-31 00:32:45 | 49.20135 | 10.28418 | 25° | 53km/h | 31529m | -27.2m/s | -41.0°C | 0.4% | 9.9hPa | 2.5V | 00:00:00 | 00:00:00 | 00:00:00 | |
| DF8AY | 2026-08-31 00:32:43 | 49.20113 | 10.28393 | 45° | 58km/h | 31584m | -29.1m/s | -40.9°C | 0% | 9.8hPa | 2.5V | 18:12:15 | 02:14:24 | 00:00:00 | |
| SONDE2-11 | 2026-08-31 00:32:43 | 49.20113 | 10.28393 | 44° | 58km/h | 31584m | -29.1m/s | -40.9°C | 0.4% | 9.8hPa | 2.5V | 00:00:00 | 00:00:00 | 00:00:00 | |
| DL1XH1-15 | 2026-08-31 00:32:43 | 49.20079 | 10.28294 | 77° | 57km/h | 31727m | -28.4m/s | -40.7°C | 2.2% | 9.6hPa | 2.5V | 08:29:14 | 02:14:19 | 00:00:00 | |
| DJ2DS-15 | 2026-08-31 00:32:42 | 49.20094 | 10.28358 | 58° | 60km/h | 31641m | -28.8m/s | -40.8°C | 0.4% | 9.7hPa | 2.5V | 00:00:00 | 00:00:00 | 00:00:00 | |
| DM0DOS-11 | 2026-08-31 00:32:41 | 49.20076 | 10.28273 | 81° | 53km/h | 31755m | -28.5m/s | -40.7°C | 2.3% | 9.6hPa | 2.5V | 08:29:15 | 02:14:18 | 00:00:00 | |
| DL1XH-west | 2026-08-31 00:32:40 | 49.20087 | 10.28337 | 67° | 60km/h | 31669m | -29.1m/s | -40.7°C | 0% | 9.7hPa | 2.6V | 08:29:15 | 02:14:21 | 00:00:00 | |
| DK7TD | 2026-08-31 00:32:39 | 49.20082 | 10.28316 | 76° | 58km/h | 31698m | -29.1m/s | -40.6°C | 0% | 9.6hPa | 2.5V | 08:29:15 | 02:14:20 | 00:00:00 | |
| BIOWL1-15 | 2026-08-31 00:32:35 | 49.20077 | 10.28219 | 100° | 46km/h | 31843m | -29.7m/s | -40.8°C | 0% | 9.4hPa | 2.5V | 18:12:15 | 02:14:15 | 00:00:00 | |
| DF8AY | 2026-08-31 00:32:34 | 49.20085 | 10.28187 | 122° | 44km/h | 31901m | -28.9m/s | -40.8°C | 0% | 9.4hPa | 2.5V | 18:12:15 | 02:14:13 | 00:00:00 | |
| DL1XH1-15 | 2026-08-31 00:32:33 | 49.20116 | 10.28148 | 155° | 40km/h | 32016m | -29.8m/s | -40.7°C | 2.3% | 9.2hPa | 2.5V | 08:30:00 | 02:14:09 | 00:00:00 | |
| DL1ZP-14 | 2026-08-31 00:32:33 | 49.20080 | 10.28202 | 109° | 44km/h | 31873m | -29.1m/s | -40.8°C | 0.4% | 9.4hPa | 2.5V | 00:00:00 | 00:00:00 | 00:00:00 | |
| DF8AY-15 | 2026-08-31 00:32:32 | 49.20085 | 10.28187 | 123° | 37km/h | 31902m | -28.8m/s | -40.8°C | 2.3% | 9.3hPa | 2.5V | 00:00:00 | 02:14:13 | 00:00:00 | |
| DM0DOS-11 | 2026-08-31 00:32:31 | 49.20126 | 10.28143 | 162° | 40km/h | 32046m | -29.9m/s | -40.7°C | 2.3% | 9.2hPa | 2.5V | 08:30:00 | 02:14:08 | 00:00:00 | |
| HSKMA3-T | 2026-08-31 00:32:29 | 49.20107 | 10.28155 | 151° | 40km/h | 31987m | -29.7m/s | -40.7°C | 0% | 9.3hPa | 2.5V | 18:12:15 | 02:14:10 | 00:00:00 | |
| BIOWL1-15 | 2026-08-31 00:32:24 | 49.20153 | 10.28140 | 195° | 33km/h | 32134m | -30.3m/s | -40.4°C | 0% | 9hPa | 2.5V | 18:12:15 | 02:14:05 | 00:00:00 | |
| DL1XH1-15 | 2026-08-31 00:32:24 | 49.20169 | 10.28196 | 284° | 33km/h | 32317m | -31.3m/s | -39.5°C | 2.1% | 8.8hPa | 2.5V | 08:30:00 | 02:13:59 | 00:00:00 | |
| DF8AY | 2026-08-31 00:32:22 | 49.20166 | 10.28208 | 294° | 33km/h | 32348m | -31.6m/s | -39.4°C | 0% | 8.7hPa | 2.5V | 18:12:15 | 02:13:58 | 00:00:00 | |
| OE5WHR-10 | 2026-08-31 00:32:22 | 49.20166 | 10.28152 | 232° | 37km/h | 32195m | -30.4m/s | -40.0°C | 2.2% | 8.9hPa | 2.5V | 00:00:00 | 02:14:03 | 00:00:00 | |
| DM0DOS-11 | 2026-08-31 00:32:21 | 49.20166 | 10.28208 | 294° | 33km/h | 32348m | -31.6m/s | -39.4°C | 2.1% | 8.7hPa | 2.5V | 08:30:00 | 02:13:58 | 00:00:00 | |
| DL1XH-west | 2026-08-31 00:32:19 | 49.20171 | 10.28185 | 274° | 31km/h | 32287m | -30.6m/s | -39.5°C | 0% | 8.8hPa | 2.5V | 18:12:15 | 02:14:00 | 00:00:00 | |
| HSKMA3-T | 2026-08-31 00:32:18 | 49.20169 | 10.28196 | 285° | 33km/h | 32317m | -31.3m/s | -39.5°C | 0% | 8.8hPa | 2.5V | 18:12:15 | 02:13:59 | 00:00:00 | |
| BIOWL1-15 | 2026-08-31 00:32:16 | 49.20149 | 10.28236 | 336° | 38km/h | 32442m | -31.6m/s | -39.2°C | 0% | 8.6hPa | 2.5V | 18:12:15 | 02:13:55 | 00:00:00 | |
| DB0ND-19 | 2026-08-31 00:32:14 | 49.20149 | 10.28236 | 335° | 37km/h | 32443m | -31.6m/s | -39.2°C | 0.4% | 8.6hPa | 2.6V | 00:00:00 | 00:00:00 | 00:00:00 | |
| DN1GJH-1 | 2026-08-31 00:32:13 | 49.20149 | 10.28236 | 336° | 38km/h | 32443m | -31.6m/s | -39.2°C | 0.4% | 8.6hPa | 2.6V | 00:00:00 | 00:00:00 | 00:00:00 | |
| DF8AY-15 | 2026-08-31 00:32:12 | 49.20128 | 10.28240 | 4° | 44km/h | 32505m | -30.6m/s | -39.1°C | 2.0% | 8.5hPa | 2.6V | 00:00:00 | 02:13:53 | 00:00:00 | |
| OE5MMP-10 | 2026-08-31 00:32:11 | 49.20116 | 10.28237 | 13° | 62km/h | 32536m | -30.7m/s | -39.1°C | 2.0% | 8.5hPa | 2.6V | 00:00:00 | 02:13:52 | 00:00:00 | |
| DM0DOS-11 | 2026-08-31 00:32:10 | 49.20061 | 10.28205 | 25° | 64km/h | 32660m | -31.2m/s | -39.4°C | 2.1% | 8.4hPa | 2.5V | 08:30:00 | 02:13:48 | 00:00:00 | |
| DL1XH-west | 2026-08-31 00:32:09 | 49.20090 | 10.28224 | 23° | 60km/h | 32598m | -31.6m/s | -39.2°C | 0% | 8.4hPa | 2.5V | 18:12:15 | 02:13:50 | 00:00:00 | |
| HSKMA3-T | 2026-08-31 00:32:07 | 49.20061 | 10.28205 | 25° | 64km/h | 32660m | -31.2m/s | -39.4°C | 0% | 8.4hPa | 2.5V | 18:12:15 | 02:13:48 | 00:00:00 | |
| AA1-15 | 2026-08-31 00:32:03 | 49.20000 | 10.28159 | 23° | 64km/h | 32789m | -33.7m/s | -39.8°C | 0% | 0hPa | 2.5V | 18:12:15 | 02:13:44 | 00:00:00 | |
| DL1XH1-15 | 2026-08-31 00:32:03 | 49.19943 | 10.28139 | 1° | 24km/h | 32962m | -34.3m/s | -39.2°C | 2.1% | 8hPa | 2.5V | 08:30:00 | 02:13:39 | 00:00:00 | |
| DL1XH-west | 2026-08-31 00:31:59 | 49.19951 | 10.28140 | 7° | 37km/h | 32927m | -34.9m/s | -39.2°C | 0% | 8hPa | 2.5V | 18:12:15 | 02:13:40 | 00:00:00 | |
| DF8AY | 2026-08-31 00:31:58 | 49.19943 | 10.28139 | 2° | 24km/h | 32962m | -34.3m/s | -39.2°C | 0% | 8hPa | 2.5V | 18:12:15 | 02:13:39 | 00:00:00 | |
| DK7TD | 2026-08-31 00:31:57 | 49.19938 | 10.28141 | 342° | 20km/h | 32996m | -32.6m/s | -39.1°C | 0% | 8hPa | 2.5V | 18:12:15 | 02:13:38 | 00:00:00 | |
| SP3BTT-10 | 2026-08-31 00:31:57 | 49.19938 | 10.28140 | 343° | 20km/h | 32996m | -32.5m/s | -39.1°C | 2.1% | 7.9hPa | 2.6V | 00:00:00 | 00:00:00 | 00:00:00 | |
| DL1NUX | 2026-08-31 00:31:55 | 49.19930 | 10.28162 | 155° | 5km/h | 33239m | -36.7m/s | -38.4°C | 2% | 7.7hPa | 2.6V | 08:30:00 | 02:13:31 | 00:00:00 | |
| BIOWL1-15 | 2026-08-31 00:31:52 | 49.19929 | 10.28161 | 267° | 9km/h | 33167m | -35.5m/s | -38.7°C | 0% | 7.8hPa | 2.5V | 18:12:15 | 02:13:33 | 00:00:00 | |
| DF8AY-15 | 2026-08-31 00:31:52 | 49.19929 | 10.28161 | 268° | 20km/h | 33168m | -35.4m/s | -38.6°C | 2.1% | 7.7hPa | 2.5V | 00:00:00 | 02:13:33 | 08:30:00 | |
| OE5DXL-15 | 2026-08-31 00:31:51 | 49.19929 | 10.28163 | 195° | 31km/h | 33203m | -35.6m/s | -38.5°C | 2.0% | 7.7hPa | 2.5V | 00:00:00 | 00:00:00 | 00:00:00 | |
| DL1XH1-15 | 2026-08-31 00:31:50 | 49.19930 | 10.28154 | 64° | 18km/h | 33315m | -39.9m/s | -38.3°C | 2% | 7.6hPa | 2.5V | 08:30:00 | 02:13:29 | 00:00:00 | |
| DO3MHA-12 | 2026-08-31 00:31:50 | 49.19930 | 10.28162 | 156° | 26km/h | 33240m | -36.7m/s | -38.4°C | 2.0% | 7.6hPa | 2.5V | 00:00:00 | 02:13:31 | 00:00:00 | |
| DM0DOS-11 | 2026-08-31 00:31:49 | 49.19927 | 10.28147 | 64° | 26km/h | 33357m | -43.1m/s | -38.2°C | 1.9% | 7.6hPa | 2.5V | 08:30:00 | 02:13:28 | 00:00:00 | |
| DL1XH-west | 2026-08-31 00:31:49 | 49.19931 | 10.28160 | 89° | 13km/h | 33277m | -37.4m/s | -38.4°C | 0% | 7.6hPa | 2.5V | 18:12:15 | 02:13:30 | 00:00:00 | |
| DF8AY | 2026-08-31 00:31:48 | 49.19930 | 10.28154 | 65° | 18km/h | 33315m | -39.9m/s | -38.3°C | 0% | 7.6hPa | 2.5V | 18:12:15 | 02:13:29 | 00:00:00 | |
| HSKMA3-T | 2026-08-31 00:31:47 | 49.19927 | 10.28147 | 64° | 26km/h | 33357m | -43.1m/s | -38.2°C | 0% | 7.6hPa | 2.5V | 18:12:15 | 02:13:28 | 00:00:00 | |
| DJ8HS-15 | 2026-08-31 00:31:45 | 49.19920 | 10.28125 | 64° | 33km/h | 33452m | -46.5m/s | -38.0°C | 1.9% | 7.4hPa | 2.6V | 00:00:00 | 02:13:26 | 08:30:00 | |
| NBG1-10 | 2026-08-31 00:31:44 | 49.19916 | 10.28113 | 61° | 35km/h | 33498m | -45.2m/s | -38.0°C | 1.9% | 7.4hPa | 2.5V | 00:00:00 | 02:13:25 | 08:30:00 | |
| DL1XH1-15 | 2026-08-31 00:31:43 | 49.19901 | 10.28067 | 270° | 7km/h | 33716m | -30.1m/s | -38.6°C | 2.1% | 7.2hPa | 2.5V | 08:30:00 | 02:13:19 | 00:00:00 | |
| AA1-15 | 2026-08-31 00:31:41 | 49.19905 | 10.28079 | 64° | 27km/h | 33617m | -35.3m/s | -38.4°C | 0% | 0hPa | 2.6V | 18:12:15 | 02:13:22 | 00:00:00 | |
| DL1NUX | 2026-08-31 00:31:41 | 49.19901 | 10.28077 | 260° | 18km/h | 33775m | -27.7m/s | -38.6°C | 2.1% | 7.1hPa | 2.6V | 08:30:00 | 02:13:17 | 00:00:00 | |
| DB0UT-7 | 2026-08-31 00:31:41 | 49.19905 | 10.28079 | 64° | 35km/h | 33618m | -35.2m/s | -38.4°C | 2.0% | 7.2hPa | 2.6V | 00:00:00 | 02:13:22 | 00:00:00 | |
| DO3MHA-12 | 2026-08-31 00:31:40 | 49.19902 | 10.28071 | 64° | 20km/h | 33652m | -33.1m/s | -38.5°C | 2.0% | 7.2hPa | 2.6V | 00:00:00 | 02:13:21 | 00:00:00 | |
| DD8BA-10 | 2026-08-31 00:31:39 | 49.19901 | 10.28067 | 73° | 15km/h | 33685m | -32.3m/s | 0°C | 0% | 0hPa | 2.5V | 00:00:00 | 00:00:00 | 00:00:00 | |
| DM0DOS-11 | 2026-08-31 00:31:38 | 49.19901 | 10.28071 | 263° | 15km/h | 33746m | -30m/s | -38.6°C | 2.1% | 7.1hPa | 2.5V | 08:30:00 | 02:13:18 | 00:00:00 | |
| DL1XH-west | 2026-08-31 00:31:38 | 49.19901 | 10.28067 | 270° | 7km/h | 33716m | -30.1m/s | -38.7°C | 0% | 7.2hPa | 2.5V | 18:12:15 | 02:13:19 | 00:00:00 | |
| DF8AY | 2026-08-31 00:31:37 | 49.19901 | 10.28071 | 264° | 15km/h | 33746m | -30m/s | -38.6°C | 0% | 7.1hPa | 2.5V | 18:12:15 | 02:13:18 | 00:00:00 | |
| HSKMA3-T | 2026-08-31 00:31:36 | 49.19901 | 10.28077 | 261° | 18km/h | 33775m | -27.7m/s | -38.6°C | 0% | 7.1hPa | 2.6V | 18:12:15 | 02:13:17 | 00:00:00 | |
| OE5MMP-10 | 2026-08-31 00:31:35 | 49.19901 | 10.28084 | 279° | 47km/h | 33804m | -28.2m/s | -38.4°C | 2.0% | 7.0hPa | 2.5V | 00:00:00 | 02:13:16 | 00:00:00 | |
| DL1XH1-15 | 2026-08-31 00:31:33 | 49.19846 | 10.28010 | 55° | 80km/h | 33985m | -22m/s | -37.9°C | 1.9% | 6.8hPa | 2.5V | 08:30:00 | 02:13:09 | 00:00:00 | |
| SO1NDE-10 | 2026-08-31 00:31:33 | 49.19895 | 10.28088 | 14° | 35km/h | 33864m | -29.9m/s | -38.4°C | 2.1% | 6.9hPa | 2.5V | 00:00:00 | 02:13:14 | 00:00:00 | |
| DF8AY-15 | 2026-08-31 00:31:32 | 49.19889 | 10.28083 | 35° | 42km/h | 33893m | -27.8m/s | -38.4°C | 2.0% | 6.9hPa | 2.6V | 00:00:00 | 02:13:13 | 00:00:00 | |
| DL1ZP-14 | 2026-08-31 00:31:31 | 49.19880 | 10.28072 | 42° | 53km/h | 33919m | -25.1m/s | -38.4°C | 0.4% | 6.9hPa | 2.6V | 00:00:00 | 00:00:00 | 00:00:00 | |
| DO3MHA-12 | 2026-08-31 00:31:30 | 49.19869 | 10.28056 | 48° | 53km/h | 33943m | -22.4m/s | -38.2°C | 2.0% | 6.8hPa | 2.6V | 00:00:00 | 02:13:11 | 00:00:00 | |
| DD8BA-10 | 2026-08-31 00:31:29 | 49.19858 | 10.28035 | 52° | 53km/h | 33964m | -20.8m/s | 0°C | 0% | 0hPa | 2.6V | 00:00:00 | 00:00:00 | 00:00:00 | |
| DL1NUX | 2026-08-31 00:31:28 | 49.19830 | 10.27966 | 75° | 40km/h | 34041m | -37.4m/s | -37.4°C | 1.8% | 6.8hPa | 2.6V | 08:30:00 | 02:13:07 | 00:00:00 | |
| DM0DOS-11 | 2026-08-31 00:31:28 | 49.19836 | 10.27986 | 60° | 71km/h | 34009m | -26.4m/s | -37.7°C | 1.9% | 6.8hPa | 2.5V | 08:30:00 | 02:13:08 | 00:00:00 | |
| DF8AY | 2026-08-31 00:31:27 | 49.19830 | 10.27966 | 76° | 40km/h | 34041m | -37.4m/s | -37.4°C | 0% | 6.8hPa | 2.6V | 18:12:15 | 02:13:07 | 00:00:00 | |
| DK7TD | 2026-08-31 00:31:25 | 49.19828 | 10.27952 | 76° | 38km/h | 34075m | -31m/s | -37.3°C | 0% | 6.7hPa | 2.6V | 18:12:15 | 02:13:06 | 00:00:00 | |
| OE5MMP-10 | 2026-08-31 00:31:25 | 49.19827 | 10.27952 | 76° | 31km/h | 34075m | -30.9m/s | -37.3°C | 1.8% | 6.7hPa | 2.6V | 00:00:00 | 02:13:06 | 00:00:00 | |
| DJ2DS-15 | 2026-08-31 00:31:24 | 49.19825 | 10.27937 | 78° | 33km/h | 34102m | -22.2m/s | -37.3°C | 1.8% | 6.6hPa | 2.5V | 00:00:00 | 02:13:05 | 00:00:00 | |
| DL1XH1-15 | 2026-08-31 00:31:23 | 49.19815 | 10.27866 | 70° | 16km/h | 34108m | 5.7m/s | -37.5°C | 1.9% | 6.7hPa | 2.5V | 08:30:00 | 02:12:59 | 00:00:00 | |
| DG9SBQ-11 | 2026-08-31 00:31:22 | 49.19823 | 10.27923 | 79° | 38km/h | 34119m | -13.3m/s | -37.4°C | 0.3% | 6.7hPa | 2.6V | 00:00:00 | 00:00:00 | 00:00:00 | |
| DL1NUX | 2026-08-31 00:31:21 | 49.19811 | 10.27853 | 53° | 24km/h | 34096m | 5.9m/s | -37.6°C | 1.9% | 6.7hPa | 2.6V | 08:30:00 | 02:12:57 | 00:00:00 | |
| DM0DOS-11 | 2026-08-31 00:31:21 | 49.19814 | 10.27860 | 60° | 18km/h | 34102m | 5.9m/s | -37.6°C | 1.9% | 6.7hPa | 2.5V | 08:30:00 | 02:12:58 | 00:00:00 | |
| DL1XH-west | 2026-08-31 00:31:17 | 49.19814 | 10.27860 | 60° | 18km/h | 34102m | 5.9m/s | -37.6°C | 0% | 6.7hPa | 2.5V | 18:12:15 | 02:12:58 | 00:00:00 | |
| HSKMA3-T | 2026-08-31 00:31:15 | 49.19806 | 10.27845 | 52° | 31km/h | 34090m | 5.9m/s | -37.7°C | 0% | 6.7hPa | 2.6V | 18:12:15 | 02:12:56 | 00:00:00 | |
| DK7TD | 2026-08-31 00:31:14 | 49.19801 | 10.27834 | 53° | 38km/h | 34085m | 5.5m/s | -37.8°C | 0% | 6.7hPa | 2.5V | 18:12:15 | 02:12:55 | 00:00:00 | |
| OE5MMP-10 | 2026-08-31 00:31:14 | 49.19801 | 10.27834 | 53° | 33km/h | 34085m | 5.5m/s | -37.7°C | 1.9% | 6.7hPa | 2.5V | 00:00:00 | 02:12:55 | 00:00:00 | |
| DL1XH1-15 | 2026-08-31 00:31:13 | 49.19770 | 10.27757 | 66° | 27km/h | 34050m | 5.3m/s | -38.1°C | 1.9% | 6.7hPa | 2.5V | 08:30:00 | 02:12:49 | 00:00:00 | |
| BIOWL1-15 | 2026-08-31 00:31:13 | 49.19770 | 10.27757 | 67° | 27km/h | 34050m | 5.3m/s | -38.1°C | 0% | 6.7hPa | 2.5V | 18:12:15 | 02:12:49 | 00:00:00 | |
| DB0ND-19 | 2026-08-31 00:31:12 | 49.19788 | 10.27807 | 56° | 44km/h | 34074m | 5.3m/s | -37.9°C | 0.4% | 6.7hPa | 2.6V | 00:00:00 | 00:00:00 | 00:00:00 | |
| DB0UT-7 | 2026-08-31 00:31:11 | 49.19782 | 10.27793 | 59° | 29km/h | 34069m | 5.8m/s | -37.9°C | 1.9% | 6.7hPa | 2.6V | 00:00:00 | 00:00:00 | 00:00:00 | |
| DO3MHA-12 | 2026-08-31 00:31:10 | 49.19777 | 10.27780 | 61° | 33km/h | 34063m | 6.3m/s | -38.0°C | 1.9% | 6.7hPa | 2.6V | 00:00:00 | 02:12:51 | 08:30:00 | |
| DM0DOS-11 | 2026-08-31 00:31:08 | 49.19767 | 10.27748 | 69° | 26km/h | 34045m | 4.9m/s | -38.2°C | 1.9% | 6.7hPa | 2.5V | 08:30:00 | 02:12:48 | 00:00:00 | |
| DL1NUX | 2026-08-31 00:31:08 | 49.19759 | 10.27718 | 60° | 33km/h | 34029m | 6.1m/s | -38.3°C | 2% | 6.8hPa | 2.5V | 08:30:00 | 02:12:45 | 00:00:00 | |
| DL1XH-west | 2026-08-31 00:31:06 | 49.19765 | 10.27738 | 68° | 26km/h | 34040m | 4.9m/s | -38.2°C | 0% | 6.8hPa | 2.6V | 18:12:15 | 02:12:47 | 00:00:00 | |
| DK7TD | 2026-08-31 00:31:04 | 49.19758 | 10.27718 | 61° | 33km/h | 34029m | 6.1m/s | -38.3°C | 0% | 6.8hPa | 2.5V | 18:12:15 | 02:12:45 | 00:00:00 | |
| DJ2DS-15 | 2026-08-31 00:31:04 | 49.19758 | 10.27718 | 61° | 29km/h | 34030m | 6.0m/s | -38.3°C | 2.0% | 6.7hPa | 2.5V | 00:00:00 | 02:12:45 | 00:00:00 | |
| OE5MMP-10 | 2026-08-31 00:31:01 | 49.19743 | 10.27684 | 50° | 29km/h | 34014m | 4.5m/s | -38.5°C | 2.0% | 6.7hPa | 2.5V | 00:00:00 | 02:12:42 | 00:00:00 | |
| DO3MHA-12 | 2026-08-31 00:31:00 | 49.19737 | 10.27675 | 48° | 27km/h | 34008m | 6.0m/s | -38.5°C | 1.9% | 6.8hPa | 2.5V | 00:00:00 | 02:12:41 | 00:00:00 | |
| DM0DOS-11 | 2026-08-31 00:30:58 | 49.19723 | 10.27658 | 25° | 22km/h | 33990m | 5.3m/s | -38.7°C | 2% | 6.8hPa | 2.5V | 08:30:00 | 02:12:38 | 00:00:00 | |
| DL1XH1-15 | 2026-08-31 00:30:58 | 49.19728 | 10.27662 | 33° | 22km/h | 33995m | 5.9m/s | -38.6°C | 2% | 6.8hPa | 2.5V | 08:30:00 | 02:12:39 | 00:00:00 | |
| DL1XH-west | 2026-08-31 00:30:55 | 49.19712 | 10.27650 | 24° | 29km/h | 33978m | 6.5m/s | -38.8°C | 0% | 6.8hPa | 2.6V | 18:12:15 | 02:12:36 | 00:00:00 | |
| DL1NUX | 2026-08-31 00:30:55 | 49.19705 | 10.27645 | 28° | 33km/h | 33972m | 5.8m/s | -38.8°C | 2% | 6.8hPa | 2.5V | 08:30:00 | 02:12:35 | 00:00:00 | |
| HSKMA3-T | 2026-08-31 00:30:54 | 49.19705 | 10.27645 | 29° | 33km/h | 33972m | 5.8m/s | -38.8°C | 0% | 6.8hPa | 2.5V | 18:12:15 | 02:12:35 | 00:00:00 | |
| DF3TZ-5 | 2026-08-31 00:30:52 | 49.19685 | 10.27622 | 48° | 29km/h | 33956m | 6.7m/s | -38.8°C | 0.4% | 6.8hPa | 2.5V | 00:00:00 | 00:00:00 | 00:00:00 | |
| EDDB2-12 | 2026-08-31 00:30:50 | 49.19681 | 10.27613 | 56° | 27km/h | 33949m | 6.2m/s | -38.9°C | 0.4% | 6.8hPa | 2.5V | 00:00:00 | 00:00:00 | 00:00:00 | |
| DL6DJ-15 | 2026-08-31 00:30:49 | 49.19674 | 10.27594 | 59° | 27km/h | 33938m | 5.4m/s | -38.8°C | 0.4% | 6.9hPa | 2.5V | 00:00:00 | 00:00:00 | 00:00:00 | |
| DM0DOS-11 | 2026-08-31 00:30:48 | 49.19670 | 10.27585 | 53° | 29km/h | 33932m | 6.4m/s | -38.8°C | 2% | 6.9hPa | 2.5V | 08:30:00 | 02:12:28 | 00:00:00 | |
| DL1NUX | 2026-08-31 00:30:48 | 49.19654 | 10.27564 | 29° | 24km/h | 33915m | 5.3m/s | -38.8°C | 2% | 6.9hPa | 2.5V | 08:30:00 | 02:12:25 | 00:00:00 | |
| DL1XH-west | 2026-08-31 00:30:45 | 49.19660 | 10.27570 | 37° | 27km/h | 33920m | 5.4m/s | -38.8°C | 0% | 6.9hPa | 2.6V | 18:12:15 | 02:12:26 | 00:00:00 | |
| DK7TD | 2026-08-31 00:30:44 | 49.19655 | 10.27564 | 30° | 24km/h | 33915m | 5.3m/s | -38.8°C | 0% | 6.9hPa | 2.5V | 18:12:15 | 02:12:25 | 00:00:00 | |
| HSKMA3-T | 2026-08-31 00:30:43 | 49.19650 | 10.27560 | 23° | 20km/h | 33909m | 6.6m/s | -38.8°C | 0% | 6.9hPa | 2.5V | 18:12:15 | 02:12:24 | 00:00:00 | |
| DB0UT-7 | 2026-08-31 00:30:41 | 49.19642 | 10.27556 | 22° | 20km/h | 33896m | 5.6m/s | -38.7°C | 2.0% | 6.9hPa | 2.6V | 00:00:00 | 02:12:22 | 00:00:00 | |
| DO3MHA-12 | 2026-08-31 00:30:40 | 49.19639 | 10.27553 | 32° | 26km/h | 33891m | 5.1m/s | -38.7°C | 2.0% | 6.9hPa | 2.6V | 00:00:00 | 02:12:21 | 00:00:00 | |
| SONDE2-11 | 2026-08-31 00:30:39 | 49.19632 | 10.27544 | 47° | 24km/h | 33879m | 6.5m/s | -38.8°C | 0.4% | 6.9hPa | 2.5V | 00:00:00 | 00:00:00 | 00:00:00 | |
| DB0NH | 2026-08-31 00:30:38 | 49.19632 | 10.27543 | 48° | 20km/h | 33879m | 6.5m/s | -38.7°C | 2.0% | 6.9hPa | 2.5V | 00:00:00 | 02:12:19 | 00:00:00 | |
| SONCRA | 2026-08-31 00:30:36 | 49.19623 | 10.27525 | 58° | 31km/h | 33867m | 5.2m/s | -38.8°C | 0.4% | 7.0hPa | 2.5V | 00:00:00 | 00:00:00 | 00:00:00 | |
| DL1NUX | 2026-08-31 00:30:34 | 49.19616 | 10.27504 | 68° | 29km/h | 33855m | 6.6m/s | -38.9°C | 2% | 7hPa | 2.5V | 08:30:00 | 02:12:15 | 00:00:00 | |
| DK7TD | 2026-08-31 00:30:34 | 49.19615 | 10.27504 | 68° | 29km/h | 33855m | 6.6m/s | -38.9°C | 0% | 7hPa | 2.5V | 18:12:15 | 02:12:15 | 00:00:00 | |
| DF8AY | 2026-08-31 00:30:34 | 49.19613 | 10.27494 | 71° | 26km/h | 33849m | 5.7m/s | -38.9°C | 0% | 7hPa | 2.5V | 18:12:15 | 02:12:14 | 00:00:00 | |
| HSKMA3-T | 2026-08-31 00:30:32 | 49.19611 | 10.27486 | 65° | 22km/h | 33843m | 5.1m/s | -38.9°C | 0% | 7hPa | 2.5V | 18:12:15 | 02:12:13 | 00:00:00 | |
| BIOWL1-15 | 2026-08-31 00:30:30 | 49.19556 | 10.27406 | 51° | 11km/h | 33749m | 6.2m/s | -39°C | 0% | 7.1hPa | 2.6V | 18:12:15 | 02:11:57 | 00:00:00 | |
| DO3MHA-12 | 2026-08-31 00:30:30 | 49.19605 | 10.27474 | 36° | 20km/h | 33832m | 6.9m/s | -38.9°C | 2.0% | 6.9hPa | 2.5V | 00:00:00 | 02:12:11 | 00:00:00 | |
| DL1ZP-14 | 2026-08-31 00:30:29 | 49.19594 | 10.27468 | 10° | 24km/h | 33820m | 5.3m/s | -39.0°C | 0.4% | 7.0hPa | 2.5V | 00:00:00 | 00:00:00 | 00:00:00 | |
| DL1NUX | 2026-08-31 00:30:28 | 49.19574 | 10.27464 | 29° | 11km/h | 33797m | 5.8m/s | -39°C | 2.1% | 7hPa | 2.5V | 08:30:00 | 02:12:05 | 00:00:00 | |
| DK7TD | 2026-08-31 00:30:24 | 49.19572 | 10.27460 | 58° | 13km/h | 33791m | 5.8m/s | -39.1°C | 0% | 7hPa | 2.5V | 18:12:15 | 02:12:04 | 00:00:00 | |
| DF8AY | 2026-08-31 00:30:23 | 49.19568 | 10.27447 | 69° | 26km/h | 33778m | 7.1m/s | -39.1°C | 0% | 7hPa | 2.6V | 18:12:15 | 02:12:02 | 00:00:00 | |
| HSKMA3-T | 2026-08-31 00:30:23 | 49.19570 | 10.27455 | 68° | 18km/h | 33785m | 6.5m/s | -39.1°C | 0% | 7hPa | 2.5V | 18:12:15 | 02:12:03 | 00:00:00 | |
| BIOWL1-15 | 2026-08-31 00:30:20 | 49.19552 | 10.27404 | 348° | 11km/h | 33736m | 6.3m/s | -39°C | 0% | 7.1hPa | 2.5V | 18:12:15 | 02:11:55 | 00:00:00 | |
| DK7TD | 2026-08-31 00:30:12 | 49.19545 | 10.27406 | 354° | 16km/h | 33724m | 5.7m/s | -39°C | 0% | 7.1hPa | 2.5V | 18:12:15 | 02:11:53 | 00:00:00 | |
| HSKMA3-T | 2026-08-31 00:30:11 | 49.19541 | 10.27406 | 3° | 16km/h | 33719m | 5m/s | -39°C | 0% | 7.1hPa | 2.6V | 18:12:15 | 02:11:52 | 00:00:00 | |
| AA1-15 | 2026-08-31 00:30:06 | 49.19529 | 10.27390 | 82° | 18km/h | 33690m | 5.2m/s | -39°C | 0% | 0hPa | 2.6V | 18:12:15 | 02:11:47 | 00:00:00 | |
| BIOWL1-15 | 2026-08-31 00:30:04 | 49.19526 | 10.27374 | 68° | 26km/h | 33679m | 6.7m/s | -38.9°C | 0% | 7.1hPa | 2.5V | 18:12:15 | 02:11:45 | 00:00:00 | |
| DJ2DS-15 | 2026-08-31 00:30:04 | 49.19526 | 10.27373 | 69° | 24km/h | 33679m | 6.7m/s | -38.9°C | 2.1% | 7.1hPa | 2.5V | 00:00:00 | 02:11:45 | 00:00:00 | |
| DL1XH1-15 | 2026-08-31 00:30:03 | 49.19504 | 10.27326 | 60° | 13km/h | 33641m | 5.7m/s | -38.8°C | 2.1% | 7.2hPa | 2.5V | 08:30:00 | 02:11:39 | 00:00:00 | |
| DK7TD | 2026-08-31 00:30:02 | 49.19519 | 10.27354 | 53° | 31km/h | 33665m | 6m/s | -38.9°C | 0% | 7.1hPa | 2.5V | 18:12:15 | 02:11:43 | 00:00:00 | |
| DL1XH-west | 2026-08-31 00:30:02 | 49.19514 | 10.27345 | 50° | 29km/h | 33660m | 5.5m/s | -38.9°C | 0% | 7.2hPa | 2.6V | 18:12:15 | 02:11:42 | 00:00:00 | |
| HSKMA3-T | 2026-08-31 00:30:01 | 49.19510 | 10.27337 | 49° | 26km/h | 33654m | 6.6m/s | -38.8°C | 0% | 7.2hPa | 2.6V | 18:12:15 | 02:11:41 | 00:00:00 | |
| AA1-15 | 2026-08-31 00:29:55 | 49.19499 | 10.27312 | 60° | 16km/h | 33624m | 6.4m/s | -38.7°C | 0% | 0hPa | 2.6V | 18:12:15 | 02:11:36 | 00:00:00 | |
| DF8AY | 2026-08-31 00:29:52 | 49.19489 | 10.27289 | 57° | 29km/h | 33606m | 5.4m/s | -38.7°C | 0% | 7.2hPa | 2.5V | 18:12:15 | 02:11:33 | 00:00:00 | |
| DK7TD | 2026-08-31 00:29:51 | 49.19486 | 10.27279 | 61° | 27km/h | 33600m | 6.3m/s | -38.7°C | 0% | 7.2hPa | 2.6V | 18:12:15 | 02:11:32 | 00:00:00 | |
| BIOWL1-15 | 2026-08-31 00:29:51 | 49.19478 | 10.27251 | 71° | 27km/h | 33582m | 5.3m/s | -38.6°C | 0% | 7.2hPa | 2.5V | 18:12:15 | 02:11:29 | 00:00:00 | |
| HSKMA3-T | 2026-08-31 00:29:50 | 49.19483 | 10.27270 | 66° | 27km/h | 33594m | 6.6m/s | -38.7°C | 0% | 7.2hPa | 2.6V | 18:12:15 | 02:11:31 | 00:00:00 | |
| DF3TZ-5 | 2026-08-31 00:29:50 | 49.19480 | 10.27261 | 70° | 26km/h | 33588m | 5.8m/s | -38.6°C | 0.4% | 7.2hPa | 2.6V | 00:00:00 | 00:00:00 | 00:00:00 | |
| EDDB2-12 | 2026-08-31 00:29:48 | 49.19478 | 10.27251 | 71° | 26km/h | 33582m | 5.3m/s | -38.6°C | 0.4% | 7.2hPa | 2.6V | 00:00:00 | 00:00:00 | 00:00:00 | |
| DL6DJ-15 | 2026-08-31 00:29:46 | 49.19473 | 10.27231 | 64° | 29km/h | 33570m | 6.9m/s | -38.6°C | 0.4% | 7.2hPa | 2.6V | 00:00:00 | 00:00:00 | 00:00:00 | |
| DJ8HS-15 | 2026-08-31 00:29:45 | 49.19469 | 10.27221 | 61° | 35km/h | 33563m | 6.1m/s | -38.6°C | 2.0% | 7.2hPa | 2.6V | 00:00:00 | 02:11:26 | 00:00:00 | |
| DJ2DS-15 | 2026-08-31 00:29:44 | 49.19465 | 10.27210 | 61° | 33km/h | 33558m | 5.4m/s | -38.6°C | 2.0% | 7.2hPa | 2.5V | 00:00:00 | 02:11:25 | 00:00:00 | |
| DL1XH1-15 | 2026-08-31 00:29:43 | 49.19450 | 10.27153 | 67° | 33km/h | 33521m | 7m/s | -38.8°C | 2% | 7.3hPa | 2.5V | 08:30:00 | 02:11:19 | 00:00:00 | |
| DM0DOS-11 | 2026-08-31 00:29:41 | 49.19447 | 10.27140 | 64° | 38km/h | 33514m | 6.5m/s | -38.8°C | 2% | 7.3hPa | 2.5V | 08:30:00 | 02:11:18 | 00:00:00 | |
| DL1XH-west | 2026-08-31 00:29:41 | 49.19455 | 10.27173 | 75° | 24km/h | 33533m | 5.4m/s | -38.8°C | 0% | 7.3hPa | 2.6V | 18:12:15 | 02:11:21 | 00:00:00 | |
| DK7TD | 2026-08-31 00:29:41 | 49.19457 | 10.27182 | 73° | 24km/h | 33539m | 6.1m/s | -38.7°C | 0% | 7.3hPa | 2.6V | 18:12:15 | 02:11:22 | 00:00:00 | |
| HSKMA3-T | 2026-08-31 00:29:39 | 49.19453 | 10.27164 | 72° | 27km/h | 33527m | 5.9m/s | -38.7°C | 0% | 7.3hPa | 2.5V | 18:12:15 | 02:11:20 | 00:00:00 | |
| AA1-15 | 2026-08-31 00:29:38 | 49.19451 | 10.27153 | 68° | 33km/h | 33521m | 7m/s | -38.8°C | 0% | 0hPa | 2.5V | 18:12:15 | 02:11:19 | 00:00:00 | |
| DB0NH | 2026-08-31 00:29:38 | 49.19451 | 10.27153 | 68° | 33km/h | 33521m | 7.0m/s | -38.7°C | 2.0% | 7.2hPa | 2.5V | 00:00:00 | 02:11:19 | 00:00:00 | |
| SONDE2-11 | 2026-08-31 00:29:37 | 49.19442 | 10.27127 | 63° | 40km/h | 33508m | 5.8m/s | -38.8°C | 0.4% | 7.3hPa | 2.5V | 00:00:00 | 00:00:00 | 00:00:00 | |
| SONCRA | 2026-08-31 00:29:34 | 49.19434 | 10.27098 | 67° | 38km/h | 33496m | 7.0m/s | -38.9°C | 0.4% | 7.3hPa | 2.5V | 00:00:00 | 00:00:00 | 00:00:00 | |
| DL1NUX | 2026-08-31 00:29:33 | 49.19427 | 10.27071 | 69° | 35km/h | 33483m | 5.5m/s | -39°C | 2% | 7.3hPa | 2.5V | 08:30:00 | 02:11:13 | 00:00:00 | |
| DL1XH1-15 | 2026-08-31 00:29:33 | 49.19411 | 10.27021 | 60° | 38km/h | 33459m | 5.5m/s | -38.9°C | 2% | 7.4hPa | 2.5V | 08:30:00 | 02:11:09 | 00:00:00 | |
| DF8AY | 2026-08-31 00:29:32 | 49.19427 | 10.27071 | 69° | 35km/h | 33483m | 5.5m/s | -39°C | 0% | 7.3hPa | 2.5V | 18:12:15 | 02:11:13 | 00:00:00 | |
| DM0DOS-11 | 2026-08-31 00:29:31 | 49.19406 | 10.27008 | 63° | 37km/h | 33454m | 5.2m/s | -38.9°C | 2% | 7.4hPa | 2.5V | 08:30:00 | 02:11:08 | 00:00:00 | |
| DK7TD | 2026-08-31 00:29:31 | 49.19423 | 10.27059 | 67° | 35km/h | 33478m | 5.8m/s | -39°C | 0% | 7.4hPa | 2.6V | 18:12:15 | 02:11:12 | 00:00:00 | |
| DL1XH-west | 2026-08-31 00:29:30 | 49.19420 | 10.27047 | 64° | 37km/h | 33472m | 6.7m/s | -39°C | 0% | 7.4hPa | 2.6V | 18:12:15 | 02:11:11 | 00:00:00 | |
| HSKMA3-T | 2026-08-31 00:29:29 | 49.19415 | 10.27034 | 61° | 38km/h | 33465m | 6.2m/s | -39°C | 0% | 7.3hPa | 2.5V | 18:12:15 | 02:11:10 | 00:00:00 | |
| BIOWL1-15 | 2026-08-31 00:29:26 | 49.19402 | 10.26996 | 69° | 35km/h | 33448m | 6.2m/s | -39°C | 0% | 7.4hPa | 2.6V | 18:12:15 | 02:11:07 | 00:00:00 | |
| DJ8HS-15 | 2026-08-31 00:29:25 | 49.19400 | 10.26983 | 77° | 29km/h | 33442m | 6.9m/s | -38.9°C | 2.0% | 7.3hPa | 2.5V | 00:00:00 | 02:11:06 | 00:00:00 | |
| DL1NUX | 2026-08-31 00:29:24 | 49.19397 | 10.26949 | 78° | 29km/h | 33425m | 5.2m/s | -38.9°C | 2% | 7.4hPa | 2.5V | 08:30:00 | 02:11:03 | 00:00:00 | |
| DL1XH1-15 | 2026-08-31 00:29:23 | 49.19381 | 10.26905 | 51° | 37km/h | 33400m | 4.8m/s | -39°C | 2.1% | 7.4hPa | 2.5V | 08:30:00 | 02:10:59 | 00:00:00 | |
| DM0DOS-11 | 2026-08-31 00:29:21 | 49.19376 | 10.26894 | 56° | 33km/h | 33396m | 4.7m/s | -39°C | 2.1% | 7.5hPa | 2.5V | 08:30:00 | 02:10:58 | 00:00:00 | |
| DF8AY | 2026-08-31 00:29:20 | 49.19386 | 10.26916 | 54° | 37km/h | 33406m | 5.9m/s | -39°C | 0% | 7.5hPa | 2.5V | 18:12:15 | 02:11:00 | 00:00:00 | |
| DK7TD | 2026-08-31 00:29:20 | 49.19391 | 10.26927 | 61° | 35km/h | 33412m | 6.8m/s | -38.9°C | 0% | 7.4hPa | 2.6V | 18:12:15 | 02:11:01 | 00:00:00 | |
| HSKMA3-T | 2026-08-31 00:29:18 | 49.19381 | 10.26905 | 52° | 37km/h | 33401m | 4.8m/s | -39°C | 0% | 7.4hPa | 2.5V | 18:12:15 | 02:10:59 | 00:00:00 | |
| BIOWL1-15 | 2026-08-31 00:29:15 | 49.19370 | 10.26864 | 95° | 26km/h | 33377m | 6.2m/s | -39.1°C | 0% | 7.5hPa | 2.5V | 18:12:15 | 02:10:55 | 00:00:00 | |
| AA1-15 | 2026-08-31 00:29:15 | 49.19370 | 10.26874 | 81° | 26km/h | 33383m | 6.9m/s | -39.1°C | 0% | 0hPa | 2.6V | 18:12:15 | 02:10:56 | 00:00:00 | |
| DL6DJ-15 | 2026-08-31 00:29:15 | 49.19370 | 10.26874 | 81° | 26km/h | 33384m | 6.9m/s | -39.1°C | 0.4% | 7.4hPa | 2.5V | 00:00:00 | 00:00:00 | 00:00:00 | |
| DL1NUX | 2026-08-31 00:29:13 | 49.19372 | 10.26834 | 91° | 27km/h | 33358m | 5.9m/s | -39.1°C | 2.1% | 7.5hPa | 2.5V | 08:30:00 | 02:10:52 | 00:00:00 | |
| DM0DOS-11 | 2026-08-31 00:29:11 | 49.19370 | 10.26791 | 81° | 27km/h | 33334m | 6.4m/s | -39°C | 2.1% | 7.5hPa | 2.5V | 08:30:00 | 02:10:48 | 00:00:00 | |
| DK7TD | 2026-08-31 00:29:10 | 49.19372 | 10.26823 | 86° | 29km/h | 33352m | 5.4m/s | -39.1°C | 0% | 7.5hPa | 2.6V | 18:12:15 | 02:10:51 | 00:00:00 | |
| DL1XH-west | 2026-08-31 00:29:09 | 49.19371 | 10.26812 | 83° | 29km/h | 33347m | 5.5m/s | -39.1°C | 0% | 7.5hPa | 2.6V | 18:12:15 | 02:10:50 | 00:00:00 | |
| DF8AY | 2026-08-31 00:29:09 | 49.19370 | 10.26801 | 82° | 27km/h | 33341m | 6.7m/s | -39.1°C | 0% | 7.5hPa | 2.6V | 18:12:15 | 02:10:49 | 00:00:00 | |
| HSKMA3-T | 2026-08-31 00:29:07 | 49.19369 | 10.26790 | 81° | 27km/h | 33334m | 6.4m/s | -39.1°C | 0% | 7.5hPa | 2.5V | 18:12:15 | 02:10:48 | 00:00:00 | |
| AA1-15 | 2026-08-31 00:29:05 | 49.19363 | 10.26761 | 61° | 27km/h | 33317m | 6.3m/s | -39.1°C | 0% | 0hPa | 2.5V | 18:12:15 | 02:10:45 | 00:00:00 | |
| BIOWL1-15 | 2026-08-31 00:29:05 | 49.19366 | 10.26771 | 70° | 27km/h | 33323m | 5.4m/s | -39.1°C | 0% | 7.5hPa | 2.5V | 18:12:15 | 02:10:46 | 00:00:00 | |
| DJ8HS-15 | 2026-08-31 00:29:05 | 49.19366 | 10.26771 | 70° | 29km/h | 33323m | 5.3m/s | -39.0°C | 2.0% | 7.5hPa | 2.6V | 00:00:00 | 02:10:46 | 00:00:00 | |
| DJ2DS-15 | 2026-08-31 00:29:04 | 49.19363 | 10.26761 | 61° | 29km/h | 33317m | 6.2m/s | -39.0°C | 2.1% | 7.5hPa | 2.6V | 00:00:00 | 02:10:45 | 00:00:00 | |
| DL1XH1-15 | 2026-08-31 00:29:03 | 49.19346 | 10.26703 | 103° | 26km/h | 33280m | 5.7m/s | -39°C | 2% | 7.5hPa | 2.6V | 08:30:00 | 02:10:39 | 00:00:00 | |
| DK7TD | 2026-08-31 00:28:59 | 49.19346 | 10.26713 | 85° | 26km/h | 33287m | 7m/s | -39°C | 0% | 7.6hPa | 2.5V | 18:12:15 | 02:10:40 | 00:00:00 | |
| DL1XH-west | 2026-08-31 00:28:59 | 49.19346 | 10.26703 | 103° | 26km/h | 33280m | 5.7m/s | -39°C | 0% | 7.6hPa | 2.6V | 18:12:15 | 02:10:39 | 00:00:00 | |
| DF8AY | 2026-08-31 00:28:57 | 49.19348 | 10.26693 | 110° | 27km/h | 33275m | 4.8m/s | -39°C | 0% | 7.6hPa | 2.6V | 18:12:15 | 02:10:38 | 00:00:00 | |
| HSKMA3-T | 2026-08-31 00:28:56 | 49.19350 | 10.26684 | 107° | 26km/h | 33270m | 5m/s | -39°C | 0% | 7.6hPa | 2.5V | 18:12:15 | 02:10:37 | 00:00:00 | |
| BIOWL1-15 | 2026-08-31 00:28:54 | 49.19345 | 10.26644 | 53° | 33km/h | 33246m | 6.2m/s | -39°C | 0% | 7.6hPa | 2.6V | 18:12:15 | 02:10:33 | 00:00:00 | |
| DL1NUX | 2026-08-31 00:28:53 | 49.19339 | 10.26635 | 50° | 33km/h | 33240m | 5.2m/s | -39°C | 2% | 7.6hPa | 2.5V | 08:30:00 | 02:10:32 | 00:00:00 | |
| DK7TD | 2026-08-31 00:28:49 | 49.19330 | 10.26615 | 62° | 29km/h | 33229m | 6.4m/s | -39.1°C | 0% | 7.6hPa | 2.5V | 18:12:15 | 02:10:30 | 00:00:00 | |
| DM0DOS-11 | 2026-08-31 00:28:48 | 49.19326 | 10.26595 | 81° | 27km/h | 33217m | 5.5m/s | -39.2°C | 2.1% | 7.6hPa | 2.6V | 08:30:00 | 02:10:28 | 00:00:00 | |
| DL1XH-west | 2026-08-31 00:28:48 | 49.19328 | 10.26605 | 73° | 27km/h | 33223m | 5.9m/s | -39.2°C | 0% | 7.7hPa | 2.6V | 18:12:15 | 02:10:29 | 00:00:00 | |
| HSKMA3-T | 2026-08-31 00:28:45 | 49.19324 | 10.26573 | 80° | 29km/h | 33205m | 6.6m/s | -39.3°C | 0% | 7.7hPa | 2.5V | 18:12:15 | 02:10:26 | 00:00:00 | |
| DL6DJ-15 | 2026-08-31 00:28:44 | 49.19322 | 10.26562 | 73° | 29km/h | 33199m | 6.1m/s | -39.3°C | 0.4% | 7.7hPa | 2.5V | 00:00:00 | 00:00:00 | 00:00:00 | |
| BIOWL1-15 | 2026-08-31 00:28:43 | 49.19314 | 10.26528 | 69° | 31km/h | 33181m | 6.5m/s | -39.4°C | 0% | 7.7hPa | 2.5V | 18:12:15 | 02:10:22 | 00:00:00 | |
| DL1NUX | 2026-08-31 00:28:43 | 49.19314 | 10.26528 | 68° | 31km/h | 33181m | 6.5m/s | -39.3°C | 2.1% | 7.7hPa | 2.5V | 08:30:00 | 02:10:22 | 00:00:00 | |
| DL1XH1-15 | 2026-08-31 00:28:43 | 49.19305 | 10.26496 | 63° | 31km/h | 33164m | 5m/s | -39.4°C | 2.1% | 7.7hPa | 2.6V | 08:30:00 | 02:10:19 | 00:00:00 | |
| DK7TD | 2026-08-31 00:28:38 | 49.19306 | 10.26496 | 63° | 31km/h | 33164m | 5m/s | -39.4°C | 0% | 7.7hPa | 2.6V | 18:12:15 | 02:10:19 | 00:00:00 | |
| DL1XH-west | 2026-08-31 00:28:37 | 49.19302 | 10.26485 | 57° | 33km/h | 33158m | 6.7m/s | -39.4°C | 0% | 7.7hPa | 2.6V | 18:12:15 | 02:10:18 | 00:00:00 | |
| BIOWL1-15 | 2026-08-31 00:28:35 | 49.19281 | 10.26436 | 70° | 38km/h | 33135m | 6.6m/s | -39.5°C | 0% | 7.8hPa | 2.6V | 18:12:15 | 02:10:14 | 00:00:00 | |
| HSKMA3-T | 2026-08-31 00:28:34 | 49.19286 | 10.26449 | 61° | 40km/h | 33140m | 5.2m/s | -39.5°C | 0% | 7.8hPa | 2.5V | 18:12:15 | 02:10:15 | 00:00:00 | |
| DL1XH1-15 | 2026-08-31 00:28:34 | 49.19276 | 10.26367 | 76° | 35km/h | 33106m | 6.2m/s | -39.5°C | 2.1% | 7.8hPa | 2.5V | 08:30:00 | 02:10:09 | 00:00:00 | |
| DF8AY | 2026-08-31 00:28:32 | 49.19279 | 10.26422 | 80° | 37km/h | 33128m | 6.4m/s | -39.5°C | 0% | 7.8hPa | 2.6V | 18:12:15 | 02:10:13 | 00:00:00 | |
| SONCRA | 2026-08-31 00:28:32 | 49.19278 | 10.26408 | 87° | 35km/h | 33122m | 5.3m/s | -39.6°C | 0.4% | 7.8hPa | 2.6V | 00:00:00 | 00:00:00 | 00:00:00 | |
| OE5MMP-10 | 2026-08-31 00:28:31 | 49.19278 | 10.26408 | 88° | 37km/h | 33123m | 5.2m/s | -39.5°C | 2.1% | 7.7hPa | 2.6V | 00:00:00 | 02:10:12 | 00:00:00 | |
| DO3MHA-12 | 2026-08-31 00:28:30 | 49.19277 | 10.26394 | 90° | 37km/h | 33117m | 4.9m/s | -39.5°C | 2.1% | 7.7hPa | 2.6V | 00:00:00 | 02:10:11 | 00:00:00 | |
| DJ2DS-15 | 2026-08-31 00:28:29 | 49.19277 | 10.26381 | 84° | 35km/h | 33112m | 5.6m/s | -39.5°C | 0.4% | 7.8hPa | 2.6V | 00:00:00 | 00:00:00 | 00:00:00 | |
| DM0DOS-11 | 2026-08-31 00:28:28 | 49.19273 | 10.26354 | 67° | 38km/h | 33099m | 6.2m/s | -39.5°C | 2.1% | 7.8hPa | 2.6V | 08:30:00 | 02:10:08 | 00:00:00 | |
| DK7TD | 2026-08-31 00:28:28 | 49.19276 | 10.26367 | 77° | 37km/h | 33106m | 6.2m/s | -39.5°C | 0% | 7.8hPa | 2.5V | 18:12:15 | 02:10:09 | 00:00:00 | |
| DL1XH-west | 2026-08-31 00:28:26 | 49.19255 | 10.26301 | 65° | 38km/h | 33075m | 6.4m/s | -39.5°C | 0% | 7.8hPa | 2.5V | 18:12:15 | 02:10:04 | 00:00:00 | |
| NBG1-10 | 2026-08-31 00:28:26 | 49.19269 | 10.26341 | 62° | 37km/h | 33094m | 5.9m/s | -39.5°C | 2.1% | 7.7hPa | 2.6V | 00:00:00 | 02:10:07 | 00:00:00 | |
| DL1ZP-14 | 2026-08-31 00:28:25 | 49.19259 | 10.26314 | 61° | 38km/h | 33082m | 6.6m/s | -39.5°C | 0.4% | 7.8hPa | 2.5V | 00:00:00 | 00:00:00 | 00:00:00 | |
| DL1XH1-15 | 2026-08-31 00:28:24 | 49.19235 | 10.26239 | 61° | 33km/h | 33046m | 5.3m/s | -39.5°C | 2.1% | 7.8hPa | 2.5V | 08:30:00 | 02:09:59 | 00:00:00 | |
| BIOWL1-15 | 2026-08-31 00:28:23 | 49.19247 | 10.26275 | 66° | 37km/h | 33064m | 5.5m/s | -39.5°C | 0% | 7.8hPa | 2.5V | 18:12:15 | 02:10:02 | 00:00:00 | |
| DM0DOS-11 | 2026-08-31 00:28:23 | 49.19231 | 10.26228 | 65° | 33km/h | 33040m | 5.7m/s | -39.5°C | 2.1% | 7.8hPa | 2.5V | 08:30:00 | 02:09:58 | 00:00:00 | |
| DF8AY | 2026-08-31 00:28:23 | 49.19228 | 10.26217 | 72° | 31km/h | 33034m | 7m/s | -39.5°C | 0% | 7.9hPa | 2.5V | 18:12:15 | 02:09:57 | 00:00:00 | |
| DK7TD | 2026-08-31 00:28:17 | 49.19231 | 10.26228 | 66° | 33km/h | 33040m | 5.7m/s | -39.5°C | 0% | 7.9hPa | 2.5V | 18:12:15 | 02:09:58 | 00:00:00 | |
| DL1XH-west | 2026-08-31 00:28:16 | 49.19181 | 10.26088 | 69° | 37km/h | 32977m | 6.3m/s | -39.7°C | 0% | 7.9hPa | 2.5V | 18:12:15 | 02:09:47 | 00:00:00 | |
| EDDB2-12 | 2026-08-31 00:28:15 | 49.19226 | 10.26205 | 76° | 29km/h | 33028m | 5.6m/s | -39.5°C | 0.4% | 7.9hPa | 2.6V | 00:00:00 | 00:00:00 | 00:00:00 | |
| DL1XH1-15 | 2026-08-31 00:28:13 | 49.19156 | 10.26013 | 42° | 38km/h | 32937m | 5.4m/s | -39.8°C | 2.1% | 8hPa | 2.6V | 08:30:00 | 02:09:40 | 00:00:00 | |
| DL6DJ-15 | 2026-08-31 00:28:13 | 49.19222 | 10.26181 | 69° | 33km/h | 33018m | 4.7m/s | -39.6°C | 0.4% | 7.9hPa | 2.6V | 00:00:00 | 00:00:00 | 00:00:00 | |
| DM0DOS-11 | 2026-08-31 00:28:12 | 49.19092 | 10.25899 | 52° | 35km/h | 32872m | 6.2m/s | -40.2°C | 2.2% | 8.1hPa | 2.6V | 08:30:00 | 02:09:29 | 00:00:00 | |
| DO3MHA-12 | 2026-08-31 00:28:11 | 49.19206 | 10.26143 | 50° | 37km/h | 32999m | 5.8m/s | -39.6°C | 2.1% | 7.9hPa | 2.6V | 00:00:00 | 02:09:51 | 08:30:00 | |
| DB0UT-7 | 2026-08-31 00:28:10 | 49.19206 | 10.26143 | 50° | 38km/h | 32999m | 5.8m/s | -39.6°C | 2.1% | 7.9hPa | 2.6V | 00:00:00 | 00:00:00 | 08:30:00 | |
| EDDB2-11 | 2026-08-31 00:28:09 | 49.19178 | 10.26075 | 77° | 33km/h | 32971m | 5.4m/s | -39.7°C | 0.4% | 8.0hPa | 2.5V | 00:00:00 | 00:00:00 | 00:00:00 | |
| DK7TD | 2026-08-31 00:28:09 | 49.19066 | 10.25853 | 41° | 47km/h | 32849m | 6.9m/s | -40.3°C | 0% | 8.1hPa | 2.5V | 18:12:15 | 02:09:25 | 00:00:00 | |
| DL1XH1-15 | 2026-08-31 00:28:08 | 49.19074 | 10.25865 | 46° | 44km/h | 32856m | 6m/s | -40.2°C | 2.2% | 8.1hPa | 2.5V | 08:30:00 | 02:09:26 | 00:00:00 | |
| DJ2DS-15 | 2026-08-31 00:28:07 | 49.19176 | 10.26063 | 81° | 35km/h | 32966m | 4.9m/s | -39.7°C | 2.1% | 7.9hPa | 2.5V | 00:00:00 | 02:09:45 | 00:00:00 | |
| SONDE2-11 | 2026-08-31 00:28:06 | 49.19175 | 10.26052 | 75° | 27km/h | 32961m | 5.3m/s | -39.7°C | 0.4% | 8.0hPa | 2.5V | 00:00:00 | 00:00:00 | 00:00:00 | |
| DL1NUX | 2026-08-31 00:28:03 | 49.19081 | 10.25877 | 51° | 38km/h | 32861m | 5m/s | -40.2°C | 2.2% | 8.1hPa | 2.5V | 08:30:00 | 02:09:27 | 00:00:00 | |
| DN1GJH-1 | 2026-08-31 00:28:01 | 49.19074 | 10.25865 | 47° | 44km/h | 32856m | 6.0m/s | -40.3°C | 0.5% | 8.1hPa | 2.5V | 00:00:00 | 00:00:00 | 00:00:00 | |
| DK7TD | 2026-08-31 00:28:01 | 49.19056 | 10.25841 | 36° | 53km/h | 32843m | 5.4m/s | -40.3°C | 0% | 8.1hPa | 2.5V | 18:12:15 | 02:09:24 | 00:00:00 | |
| DJ2DS-15 | 2026-08-31 00:27:55 | 49.19066 | 10.25853 | 41° | 42km/h | 32850m | 6.8m/s | -40.2°C | 2.2% | 8.0hPa | 2.5V | 00:00:00 | 02:09:25 | 00:00:00 | |
| BIOWL1-15 | 2026-08-31 00:27:55 | 49.19045 | 10.25829 | 34° | 53km/h | 32838m | 4.6m/s | -40.3°C | 0% | 8.1hPa | 2.6V | 18:12:15 | 02:09:23 | 00:00:00 | |
| DC4HF-4 | 2026-08-31 00:27:52 | 49.19045 | 10.25829 | 34° | 53km/h | 32838m | 4.6m/s | -40.3°C | 0.4% | 8.1hPa | 2.5V | 00:00:00 | 00:00:00 | 00:00:00 | |
| DL6DJ-15 | 2026-08-31 00:27:49 | 49.19045 | 10.25829 | 34° | 53km/h | 32838m | 4.6m/s | -40.3°C | 0.4% | 8.1hPa | 2.5V | 00:00:00 | 00:00:00 | 00:00:00 | |
| DM0DOS-11 | 2026-08-31 00:27:42 | 49.19025 | 10.25807 | 36° | 46km/h | 32827m | 6.4m/s | -40.3°C | 2.2% | 8.1hPa | 2.5V | 08:30:00 | 02:09:21 | 00:00:00 | |
| HSKMA3-T | 2026-08-31 00:27:39 | 49.19016 | 10.25797 | 40° | 38km/h | 32821m | 6.4m/s | -40.4°C | 0% | 8.1hPa | 2.5V | 18:12:15 | 02:09:20 | 00:00:00 | |
| DK7TD | 2026-08-31 00:27:37 | 49.19004 | 10.25780 | 48° | 31km/h | 32809m | 5.5m/s | -40.3°C | 0% | 8.1hPa | 2.6V | 18:12:15 | 02:09:18 | 00:00:00 | |
| DL1XH-west | 2026-08-31 00:27:33 | 49.18982 | 10.25739 | 54° | 40km/h | 32785m | 5.6m/s | -40.1°C | 0% | 8.2hPa | 2.5V | 18:12:15 | 02:09:14 | 00:00:00 | |
| BIOWL1-15 | 2026-08-31 00:27:32 | 49.18971 | 10.25711 | 62° | 44km/h | 32772m | 6.4m/s | -40°C | 0% | 8.2hPa | 2.6V | 18:12:15 | 02:09:12 | 00:00:00 | |
| DF8AY-15 | 2026-08-31 00:27:31 | 49.18971 | 10.25711 | 62° | 38km/h | 32773m | 6.3m/s | -40.0°C | 2.2% | 8.1hPa | 2.5V | 00:00:00 | 02:09:12 | 00:00:00 | |
| DO3MHA-12 | 2026-08-31 00:27:30 | 49.18965 | 10.25696 | 62° | 38km/h | 32767m | 5.5m/s | -39.9°C | 2.2% | 8.1hPa | 2.5V | 00:00:00 | 02:09:11 | 00:00:00 | |
| DL1NUX | 2026-08-31 00:27:29 | 49.18925 | 10.25615 | 56° | 31km/h | 32732m | 6.9m/s | -39.7°C | 2.1% | 8.2hPa | 2.5V | 08:30:00 | 02:09:05 | 00:00:00 | |
| HSKMA3-T | 2026-08-31 00:27:28 | 49.18952 | 10.25665 | 54° | 49km/h | 32755m | 6.9m/s | -39.9°C | 0% | 8.2hPa | 2.5V | 18:12:15 | 02:09:09 | 00:00:00 | |
| DK7TD | 2026-08-31 00:27:27 | 49.18945 | 10.25650 | 50° | 47km/h | 32748m | 5.6m/s | -39.8°C | 0% | 8.2hPa | 2.6V | 18:12:15 | 02:09:08 | 00:00:00 | |
| DF8AY | 2026-08-31 00:27:21 | 49.18918 | 10.25587 | 70° | 26km/h | 32715m | 5.2m/s | -39.7°C | 0% | 8.2hPa | 2.6V | 18:12:15 | 02:09:02 | 00:00:00 | |
| DM0DOS-11 | 2026-08-31 00:27:21 | 49.18915 | 10.25578 | 61° | 29km/h | 32710m | 5.8m/s | -39.6°C | 2.1% | 8.3hPa | 2.6V | 08:30:00 | 02:09:01 | 00:00:00 | |
| BIOWL1-15 | 2026-08-31 00:27:20 | 49.18880 | 10.25511 | 62° | 38km/h | 32676m | 5.9m/s | -39.5°C | 0% | 8.3hPa | 2.6V | 18:12:15 | 02:08:55 | 00:00:00 | |
| DO3MHA-12 | 2026-08-31 00:27:20 | 49.18915 | 10.25578 | 62° | 38km/h | 32710m | 5.8m/s | -39.6°C | 2.1% | 8.2hPa | 2.6V | 00:00:00 | 02:09:01 | 00:00:00 | |
| DL1NUX | 2026-08-31 00:27:19 | 49.18880 | 10.25511 | 61° | 38km/h | 32676m | 5.9m/s | -39.5°C | 2.1% | 8.3hPa | 2.6V | 08:30:00 | 02:08:55 | 00:00:00 | |
| HSKMA3-T | 2026-08-31 00:27:18 | 49.18905 | 10.25558 | 47° | 37km/h | 32698m | 5.4m/s | -39.6°C | 0% | 8.3hPa | 2.5V | 18:12:15 | 02:08:59 | 00:00:00 | |
| DK7TD | 2026-08-31 00:27:16 | 49.18892 | 10.25536 | 49° | 40km/h | 32688m | 5.5m/s | -39.6°C | 0% | 8.3hPa | 2.5V | 18:12:15 | 02:08:57 | 00:00:00 | |
| DL1XH1-15 | 2026-08-31 00:27:15 | 49.18864 | 10.25452 | 65° | 44km/h | 32653m | 5.5m/s | -39.5°C | 2.1% | 8.3hPa | 2.5V | 08:30:00 | 02:08:51 | 00:00:00 | |
| DF8AY | 2026-08-31 00:27:12 | 49.18868 | 10.25467 | 69° | 44km/h | 32659m | 6.4m/s | -39.5°C | 0% | 8.3hPa | 2.5V | 18:12:15 | 02:08:52 | 00:00:00 | |
| DL1XH-west | 2026-08-31 00:27:11 | 49.18864 | 10.25452 | 66° | 44km/h | 32653m | 5.5m/s | -39.5°C | 0% | 8.3hPa | 2.5V | 18:12:15 | 02:08:51 | 00:00:00 | |
| DO3MHA-12 | 2026-08-31 00:27:10 | 49.18864 | 10.25452 | 66° | 29km/h | 32653m | 5.4m/s | -39.5°C | 2.1% | 8.3hPa | 2.5V | 00:00:00 | 02:08:51 | 00:00:00 | |
| DL1NUX | 2026-08-31 00:27:09 | 49.18844 | 10.25397 | 44° | 16km/h | 32618m | 4.8m/s | -39.4°C | 2.1% | 8.4hPa | 2.6V | 08:30:00 | 02:08:45 | 00:00:00 | |
| HSKMA3-T | 2026-08-31 00:27:07 | 49.18852 | 10.25415 | 62° | 27km/h | 32637m | 6.9m/s | -39.5°C | 0% | 8.3hPa | 2.5V | 18:12:15 | 02:08:48 | 00:00:00 | |
| DK7TD | 2026-08-31 00:27:06 | 49.18849 | 10.25407 | 61° | 20km/h | 32630m | 6.9m/s | -39.4°C | 0% | 8.3hPa | 2.5V | 18:12:15 | 02:08:47 | 00:00:00 | |
| BIOWL1-15 | 2026-08-31 00:27:06 | 49.18847 | 10.25401 | 55° | 16km/h | 32624m | 5.8m/s | -39.4°C | 0% | 8.4hPa | 2.5V | 18:12:15 | 02:08:46 | 00:00:00 | |
| DF8AY | 2026-08-31 00:27:01 | 49.18829 | 10.25376 | 45° | 37km/h | 32601m | 5.7m/s | -39.3°C | 0% | 8.4hPa | 2.5V | 18:12:15 | 02:08:42 | 00:00:00 | |
| DL1XH-west | 2026-08-31 00:27:00 | 49.18823 | 10.25365 | 49° | 42km/h | 32596m | 5.2m/s | -39.3°C | 0% | 8.4hPa | 2.5V | 18:12:15 | 02:08:41 | 00:00:00 | |
| DO3MHA-12 | 2026-08-31 00:27:00 | 49.18823 | 10.25365 | 50° | 31km/h | 32596m | 5.2m/s | -39.2°C | 2.1% | 8.4hPa | 2.5V | 00:00:00 | 02:08:41 | 00:00:00 | |
| DL1NUX | 2026-08-31 00:26:59 | 49.18794 | 10.25293 | 56° | 29km/h | 32560m | 6m/s | -39.4°C | 2.1% | 8.4hPa | 2.5V | 08:30:00 | 02:08:35 | 00:00:00 | |
| HSKMA3-T | 2026-08-31 00:26:57 | 49.18806 | 10.25327 | 64° | 37km/h | 32578m | 5.8m/s | -39.3°C | 0% | 8.4hPa | 2.5V | 18:12:15 | 02:08:38 | 00:00:00 | |
| DK7TD | 2026-08-31 00:26:55 | 49.18798 | 10.25303 | 62° | 31km/h | 32566m | 6.4m/s | -39.3°C | 0% | 8.4hPa | 2.5V | 18:12:15 | 02:08:36 | 00:00:00 | |
| DF8AY | 2026-08-31 00:26:51 | 49.18784 | 10.25274 | 50° | 16km/h | 32543m | 6.4m/s | -39.3°C | 0% | 8.5hPa | 2.6V | 18:12:15 | 02:08:32 | 00:00:00 | |
| DL1XH-west | 2026-08-31 00:26:50 | 49.18782 | 10.25269 | 58° | 13km/h | 32537m | 6.3m/s | -39.3°C | 0% | 8.5hPa | 2.5V | 18:12:15 | 02:08:31 | 00:00:00 | |
| DO3MHA-12 | 2026-08-31 00:26:50 | 49.18782 | 10.25269 | 58° | 26km/h | 32537m | 6.3m/s | -39.2°C | 2.1% | 8.4hPa | 2.6V | 00:00:00 | 02:08:31 | 00:00:00 | |
| DM0DOS-11 | 2026-08-31 00:26:47 | 49.18770 | 10.25245 | 47° | 31km/h | 32515m | 6.9m/s | -39.3°C | 2.1% | 8.5hPa | 2.6V | 08:30:00 | 02:08:27 | 00:00:00 | |
| HSKMA3-T | 2026-08-31 00:26:47 | 49.18775 | 10.25253 | 52° | 24km/h | 32522m | 6.1m/s | -39.3°C | 0% | 8.5hPa | 2.5V | 18:12:15 | 02:08:28 | 00:00:00 | |
| OE5MMP-10 | 2026-08-31 00:26:47 | 49.18775 | 10.25253 | 52° | 27km/h | 32522m | 6.0m/s | 0°C | 0% | 0hPa | 2.6V | 00:00:00 | 02:08:28 | 00:00:00 | |
| DL1XH1-15 | 2026-08-31 00:26:45 | 49.18742 | 10.25192 | 67° | 18km/h | 32480m | 5.7m/s | -39.3°C | 2.1% | 8.6hPa | 2.6V | 08:30:00 | 02:08:21 | 00:00:00 | |
| DJ8HS-15 | 2026-08-31 00:26:45 | 49.18764 | 10.25236 | 46° | 24km/h | 32509m | 5.6m/s | -39.3°C | 2.1% | 8.5hPa | 2.6V | 00:00:00 | 02:08:26 | 00:00:00 | |
| DL1NUX | 2026-08-31 00:26:44 | 49.18744 | 10.25199 | 63° | 22km/h | 32486m | 5.7m/s | -39.3°C | 2.1% | 8.5hPa | 2.6V | 08:30:00 | 02:08:22 | 00:00:00 | |
| DK7TD | 2026-08-31 00:26:44 | 49.18758 | 10.25226 | 47° | 37km/h | 32504m | 4.7m/s | -39.3°C | 0% | 8.5hPa | 2.5V | 18:12:15 | 02:08:25 | 00:00:00 | |
| DF8AY | 2026-08-31 00:26:40 | 49.18742 | 10.25192 | 68° | 18km/h | 32480m | 5.7m/s | -39.3°C | 0% | 8.6hPa | 2.6V | 18:12:15 | 02:08:21 | 00:00:00 | |
| DL1XH-west | 2026-08-31 00:26:39 | 49.18741 | 10.25186 | 64° | 15km/h | 32475m | 5.9m/s | -39.3°C | 0% | 8.6hPa | 2.5V | 18:12:15 | 02:08:20 | 00:00:00 | |
| DB0UT-7 | 2026-08-31 00:26:39 | 49.18741 | 10.25186 | 64° | 18km/h | 32475m | 5.9m/s | -39.3°C | 2.1% | 8.5hPa | 2.5V | 00:00:00 | 02:08:20 | 00:00:00 | |
| DB0NH | 2026-08-31 00:26:38 | 49.18738 | 10.25181 | 54° | 18km/h | 32469m | 6.5m/s | -39.3°C | 2.1% | 8.5hPa | 2.5V | 00:00:00 | 02:08:19 | 08:30:00 | |
| DM0DOS-11 | 2026-08-31 00:26:37 | 49.18733 | 10.25172 | 38° | 18km/h | 32457m | 5.1m/s | -39.4°C | 2.1% | 8.6hPa | 2.6V | 08:30:00 | 02:08:17 | 00:00:00 | |
| HSKMA3-T | 2026-08-31 00:26:37 | 49.18736 | 10.25177 | 44° | 16km/h | 32462m | 5.7m/s | -39.4°C | 0% | 8.6hPa | 2.5V | 18:12:15 | 02:08:18 | 00:00:00 | |
| OE5MMP-10 | 2026-08-31 00:26:37 | 49.18736 | 10.25177 | 44° | 22km/h | 32463m | 5.6m/s | 0°C | 0% | 0hPa | 2.6V | 00:00:00 | 02:08:18 | 00:00:00 | |
| DL1XH1-15 | 2026-08-31 00:26:35 | 49.18710 | 10.25138 | 43° | 33km/h | 32421m | 6.9m/s | -39.6°C | 2.1% | 8.6hPa | 2.6V | 08:30:00 | 02:08:11 | 00:00:00 | |
| DL1NUX | 2026-08-31 00:26:34 | 49.18715 | 10.25146 | 45° | 27km/h | 32428m | 6.3m/s | -39.5°C | 2.1% | 8.6hPa | 2.5V | 08:30:00 | 02:08:12 | 00:00:00 | |
| DK7TD | 2026-08-31 00:26:34 | 49.18726 | 10.25164 | 44° | 16km/h | 32445m | 6.6m/s | -39.5°C | 0% | 8.6hPa | 2.5V | 18:12:15 | 02:08:15 | 00:00:00 | |
| BIOWL1-15 | 2026-08-31 00:26:30 | 49.18698 | 10.25121 | 44° | 31km/h | 32411m | 4.5m/s | -39.6°C | 0% | 8.6hPa | 2.6V | 18:12:15 | 02:08:09 | 00:00:00 | |
| DF8AY | 2026-08-31 00:26:29 | 49.18704 | 10.25130 | 43° | 35km/h | 32415m | 5.3m/s | -39.6°C | 0% | 8.6hPa | 2.6V | 18:12:15 | 02:08:10 | 00:00:00 | |
| DL1XH-west | 2026-08-31 00:26:28 | 49.18693 | 10.25113 | 47° | 26km/h | 32405m | 6.4m/s | -39.6°C | 0% | 8.6hPa | 2.5V | 18:12:15 | 02:08:08 | 00:00:00 | |
| HSKMA3-T | 2026-08-31 00:26:26 | 49.18689 | 10.25106 | 52° | 18km/h | 32399m | 6.3m/s | -39.6°C | 0% | 8.6hPa | 2.5V | 18:12:15 | 02:08:07 | 00:00:00 | |
| DL1XH1-15 | 2026-08-31 00:26:25 | 49.18674 | 10.25092 | 17° | 16km/h | 32364m | 5.2m/s | -39.8°C | 2.1% | 8.7hPa | 2.5V | 08:30:00 | 02:08:01 | 00:00:00 | |
| DJ8HS-15 | 2026-08-31 00:26:25 | 49.18686 | 10.25102 | 55° | 15km/h | 32393m | 5.5m/s | -39.6°C | 2.1% | 8.6hPa | 2.5V | 00:00:00 | 02:08:06 | 00:00:00 | |
| DL1NUX | 2026-08-31 00:26:24 | 49.18670 | 10.25090 | 21° | 16km/h | 32358m | 6.1m/s | -39.8°C | 2.1% | 8.7hPa | 2.5V | 08:30:00 | 02:08:00 | 00:00:00 | |
| DK7TD | 2026-08-31 00:26:23 | 49.18683 | 10.25097 | 29° | 9km/h | 32382m | 6.5m/s | -39.7°C | 0% | 8.7hPa | 2.6V | 18:12:15 | 02:08:04 | 00:00:00 | |
| DF8AY | 2026-08-31 00:26:18 | 49.18666 | 10.25087 | 27° | 16km/h | 32352m | 6.4m/s | -39.8°C | 0% | 8.7hPa | 2.6V | 18:12:15 | 02:07:59 | 00:00:00 | |
| HSKMA3-T | 2026-08-31 00:26:16 | 49.18659 | 10.25080 | 35° | 20km/h | 32341m | 5.2m/s | -39.9°C | 0% | 8.7hPa | 2.5V | 18:12:15 | 02:07:57 | 00:00:00 | |
| DK7TD | 2026-08-31 00:26:13 | 49.18645 | 10.25064 | 40° | 24km/h | 32323m | 4.6m/s | -39.9°C | 0% | 8.8hPa | 2.6V | 18:12:15 | 02:07:54 | 00:00:00 | |
| DF3TZ-5 | 2026-08-31 00:26:12 | 49.18641 | 10.25058 | 46° | 18km/h | 32319m | 5.2m/s | -39.9°C | 0.4% | 8.8hPa | 2.5V | 00:00:00 | 00:00:00 | 00:00:00 | |
| DM0DOS-11 | 2026-08-31 00:26:11 | 49.18637 | 10.25049 | 85° | 9km/h | 32306m | 6.1m/s | -39.9°C | 2.1% | 8.8hPa | 2.5V | 08:30:00 | 02:07:51 | 00:00:00 | |
| DF8AY | 2026-08-31 00:26:08 | 49.18638 | 10.25043 | 98° | 7km/h | 32294m | 5.6m/s | -39.9°C | 0% | 8.8hPa | 2.5V | 18:12:15 | 02:07:49 | 00:00:00 | |
| BIOWL1-15 | 2026-08-31 00:26:07 | 49.18638 | 10.25040 | 68° | 7km/h | 32288m | 6.8m/s | -39.9°C | 0% | 8.8hPa | 2.6V | 18:12:15 | 02:07:48 | 00:00:00 | |
| HSKMA3-T | 2026-08-31 00:26:06 | 49.18636 | 10.25038 | 44° | 11km/h | 32282m | 5.7m/s | -40°C | 0% | 8.8hPa | 2.6V | 18:12:15 | 02:07:47 | 00:00:00 | |
| DL1XH-west | 2026-08-31 00:26:05 | 49.18634 | 10.25034 | 41° | 15km/h | 32277m | 5.2m/s | -40°C | 0% | 8.8hPa | 2.6V | 18:12:15 | 02:07:46 | 00:00:00 | |
| DJ8HS-15 | 2026-08-31 00:26:05 | 49.18634 | 10.25034 | 42° | 15km/h | 32277m | 5.2m/s | -40.0°C | 2.1% | 8.8hPa | 2.6V | 00:00:00 | 02:07:46 | 00:00:00 | |
| OE5MMP-10 | 2026-08-31 00:26:04 | 49.18631 | 10.25030 | 46° | 16km/h | 32272m | 4.9m/s | 0°C | 0% | 0hPa | 2.6V | 00:00:00 | 02:07:45 | 00:00:00 | |
| DL1NUX | 2026-08-31 00:26:03 | 49.18626 | 10.25001 | 90° | 16km/h | 32243m | 4.9m/s | -40.3°C | 2.1% | 8.8hPa | 2.6V | 08:30:00 | 02:07:40 | 00:00:00 | |
| DK7TD | 2026-08-31 00:26:02 | 49.18627 | 10.25020 | 71° | 16km/h | 32260m | 6.4m/s | -40.2°C | 0% | 8.8hPa | 2.5V | 18:12:15 | 02:07:43 | 00:00:00 | |
| DF8AY | 2026-08-31 00:25:57 | 49.18625 | 10.24988 | 69° | 16km/h | 32231m | 5.9m/s | -40.5°C | 0% | 8.9hPa | 2.5V | 18:12:15 | 02:07:38 | 00:00:00 | |
| BIOWL1-15 | 2026-08-31 00:25:57 | 49.18622 | 10.24970 | 116° | 11km/h | 32210m | 6.8m/s | -40.7°C | 0% | 8.9hPa | 2.5V | 18:12:15 | 02:07:34 | 00:00:00 | |
| DL1XH-west | 2026-08-31 00:25:55 | 49.18622 | 10.24978 | 67° | 13km/h | 32221m | 4.4m/s | -40.6°C | 0% | 8.9hPa | 2.6V | 18:12:15 | 02:07:36 | 00:00:00 | |
| DK7TD | 2026-08-31 00:25:52 | 49.18624 | 10.24966 | 138° | 15km/h | 32203m | 6.2m/s | -40.7°C | 0% | 8.9hPa | 2.5V | 18:12:15 | 02:07:33 | 00:00:00 | |
| AA1-15 | 2026-08-31 00:25:48 | 49.18632 | 10.24951 | 86° | 13km/h | 32181m | 5.7m/s | 0°C | 0% | 0hPa | 2.5V | 18:12:15 | 02:07:29 | 00:00:00 | |
| DF8AY | 2026-08-31 00:25:47 | 49.18631 | 10.24946 | 76° | 16km/h | 32176m | 5m/s | -41°C | 0% | 8.9hPa | 2.5V | 18:12:15 | 02:07:28 | 00:00:00 | |
| DL1XH-west | 2026-08-31 00:25:44 | 49.18628 | 10.24922 | 83° | 24km/h | 32158m | 5.4m/s | -41.1°C | 0% | 8.9hPa | 2.6V | 18:12:15 | 02:07:25 | 00:00:00 | |
| DJ2DS-15 | 2026-08-31 00:25:44 | 49.18628 | 10.24922 | 83° | 22km/h | 32158m | 5.3m/s | -41.0°C | 2.3% | 8.9hPa | 2.5V | 00:00:00 | 02:07:25 | 00:00:00 | |
| OE5DRO-10 | 2026-08-31 00:25:43 | 49.18627 | 10.24913 | 80° | 20km/h | 32153m | 5.0m/s | -41.0°C | 2.3% | 8.9hPa | 2.5V | 00:00:00 | 00:00:00 | 00:00:00 | |
| DM0DOS-11 | 2026-08-31 00:25:41 | 49.18621 | 10.24891 | 52° | 18km/h | 32134m | 6m/s | -41.1°C | 2.3% | 9hPa | 2.5V | 08:30:00 | 02:07:21 | 00:00:00 | |
| DK7TD | 2026-08-31 00:25:41 | 49.18624 | 10.24897 | 62° | 20km/h | 32141m | 6.8m/s | -41.1°C | 0% | 9hPa | 2.5V | 18:12:15 | 02:07:22 | 00:00:00 | |
| BIOWL1-15 | 2026-08-31 00:25:41 | 49.18616 | 10.24870 | 89° | 11km/h | 32105m | 5.3m/s | -41.3°C | 0% | 9.1hPa | 2.5V | 18:12:15 | 02:07:16 | 00:00:00 | |
| DF8AY | 2026-08-31 00:25:37 | 49.18616 | 10.24878 | 85° | 9km/h | 32116m | 6.7m/s | -41.3°C | 0% | 9hPa | 2.6V | 18:12:15 | 02:07:18 | 00:00:00 | |
| DL1XH-west | 2026-08-31 00:25:34 | 49.18616 | 10.24865 | 71° | 15km/h | 32099m | 6.6m/s | -41.3°C | 0% | 9.1hPa | 2.5V | 18:12:15 | 02:07:15 | 00:00:00 | |
| DM0DOS-11 | 2026-08-31 00:25:31 | 49.18603 | 10.24836 | 56° | 29km/h | 32074m | 6.6m/s | -41.2°C | 2.3% | 9.1hPa | 2.5V | 08:30:00 | 02:07:11 | 00:00:00 | |
| BIOWL1-15 | 2026-08-31 00:25:30 | 49.18603 | 10.24836 | 57° | 31km/h | 32074m | 6.6m/s | -41.2°C | 0% | 9.1hPa | 2.5V | 18:12:15 | 02:07:11 | 00:00:00 | |
| AA1-15 | 2026-08-31 00:25:26 | 49.18582 | 10.24798 | 38° | 31km/h | 32052m | 6.4m/s | 0°C | 0% | 0hPa | 2.6V | 18:12:15 | 02:07:07 | 00:00:00 | |
| DL1XH-west | 2026-08-31 00:25:23 | 49.18567 | 10.24782 | 37° | 16km/h | 32035m | 6m/s | -41.2°C | 0% | 9.1hPa | 2.5V | 18:12:15 | 02:07:04 | 00:00:00 | |
| DM0DOS-11 | 2026-08-31 00:25:21 | 49.18563 | 10.24770 | 83° | 13km/h | 32017m | 4.4m/s | -41.3°C | 2.3% | 9.2hPa | 2.5V | 08:30:00 | 02:07:01 | 00:00:00 | |
| BIOWL1-15 | 2026-08-31 00:25:20 | 49.18563 | 10.24770 | 84° | 13km/h | 32017m | 4.4m/s | -41.3°C | 0% | 9.2hPa | 2.5V | 18:12:15 | 02:07:01 | 00:00:00 | |
| DK7TD | 2026-08-31 00:25:19 | 49.18562 | 10.24765 | 67° | 15km/h | 32013m | 5.3m/s | -41.3°C | 0% | 9.2hPa | 2.6V | 18:12:15 | 02:07:00 | 00:00:00 | |
| DF8AY | 2026-08-31 00:25:16 | 49.18517 | 10.24698 | 47° | 33km/h | 31965m | 5.5m/s | -41.4°C | 0% | 9.2hPa | 2.5V | 18:12:15 | 02:06:52 | 00:00:00 | |
| DL1XH-west | 2026-08-31 00:25:13 | 49.18529 | 10.24718 | 48° | 37km/h | 31976m | 5.8m/s | -41.4°C | 0% | 9.2hPa | 2.6V | 18:12:15 | 02:06:54 | 00:00:00 | |
| BIOWL1-15 | 2026-08-31 00:25:09 | 49.18499 | 10.24671 | 54° | 16km/h | 31941m | 6.8m/s | -41.5°C | 0% | 9.3hPa | 2.6V | 18:12:15 | 02:06:48 | 00:00:00 | |
| DK7TD | 2026-08-31 00:25:08 | 49.18502 | 10.24677 | 44° | 20km/h | 31947m | 5.3m/s | -41.5°C | 0% | 9.3hPa | 2.6V | 18:12:15 | 02:06:49 | 00:00:00 | |
| DF8AY | 2026-08-31 00:25:05 | 49.18496 | 10.24660 | 71° | 16km/h | 31929m | 5.1m/s | -41.4°C | 0% | 9.3hPa | 2.5V | 18:12:15 | 02:06:46 | 00:00:00 | |
| HSKMA3-T | 2026-08-31 00:25:02 | 49.18486 | 10.24639 | 41° | 31km/h | 31912m | 6m/s | -41.4°C | 0% | 9.3hPa | 2.5V | 18:12:15 | 02:06:43 | 00:00:00 | |
| AA1-15 | 2026-08-31 00:24:59 | 49.18451 | 10.24588 | 51° | 37km/h | 31883m | 4.7m/s | 0°C | 0% | 0hPa | 2.5V | 18:12:15 | 02:06:38 | 00:00:00 | |
| DK7TD | 2026-08-31 00:24:58 | 49.18457 | 10.24599 | 49° | 38km/h | 31888m | 5.6m/s | -41.5°C | 0% | 9.4hPa | 2.5V | 18:12:15 | 02:06:39 | 00:00:00 | |
| BIOWL1-15 | 2026-08-31 00:24:57 | 49.18445 | 10.24578 | 49° | 33km/h | 31878m | 5m/s | -41.5°C | 0% | 9.4hPa | 2.6V | 18:12:15 | 02:06:37 | 00:00:00 | |
| DF8AY | 2026-08-31 00:24:54 | 49.18434 | 10.24561 | 36° | 29km/h | 31866m | 6.4m/s | -41.5°C | 0% | 9.4hPa | 2.5V | 18:12:15 | 02:06:35 | 00:00:00 | |
| DL1XH-west | 2026-08-31 00:24:53 | 49.18423 | 10.24551 | 24° | 24km/h | 31854m | 5.5m/s | -41.4°C | 0% | 9.4hPa | 2.5V | 18:12:15 | 02:06:33 | 00:00:00 | |
| HSKMA3-T | 2026-08-31 00:24:51 | 49.18418 | 10.24548 | 26° | 18km/h | 31849m | 5.4m/s | -41.4°C | 0% | 9.4hPa | 2.5V | 18:12:15 | 02:06:32 | 00:00:00 | |
| DF7PN | 2026-08-31 00:24:48 | 49.18409 | 10.24537 | 49° | 15km/h | 31831m | 4.6m/s | -41.3°C | 0.5% | 9.4hPa | 2.6V | 00:00:00 | 00:00:00 | 00:00:00 | |
| DM0DOS-11 | 2026-08-31 00:24:47 | 49.18369 | 10.24502 | 28° | 37km/h | 31798m | 6.1m/s | -41.4°C | 2.2% | 9.5hPa | 2.6V | 08:30:00 | 02:06:23 | 00:00:00 | |
| DK7TD | 2026-08-31 00:24:47 | 49.18406 | 10.24532 | 44° | 20km/h | 31826m | 5m/s | -41.3°C | 0% | 9.4hPa | 2.5V | 18:12:15 | 02:06:28 | 00:00:00 | |
| DL1ZP-14 | 2026-08-31 00:24:47 | 49.18406 | 10.24532 | 43° | 18km/h | 31826m | 5.0m/s | -41.3°C | 0.5% | 9.4hPa | 2.5V | 00:00:00 | 00:00:00 | 00:00:00 | |
| BIOWL1-15 | 2026-08-31 00:24:45 | 49.18378 | 10.24509 | 25° | 38km/h | 31803m | 5.1m/s | -41.4°C | 0% | 9.5hPa | 2.6V | 18:12:15 | 02:06:24 | 00:00:00 | |
| AA1-15 | 2026-08-31 00:24:44 | 49.18387 | 10.24515 | 25° | 38km/h | 31808m | 5m/s | 0°C | 0% | 0hPa | 2.5V | 18:12:15 | 02:06:25 | 00:00:00 | |
| DL1XH-west | 2026-08-31 00:24:41 | 49.18362 | 10.24495 | 33° | 33km/h | 31792m | 6.2m/s | -41.4°C | 0% | 9.5hPa | 2.5V | 18:12:15 | 02:06:22 | 00:00:00 | |
| HSKMA3-T | 2026-08-31 00:24:40 | 49.18355 | 10.24489 | 38° | 27km/h | 31785m | 5.7m/s | -41.4°C | 0% | 9.5hPa | 2.5V | 18:12:15 | 02:06:21 | 00:00:00 | |
| DK7TD | 2026-08-31 00:24:37 | 49.18342 | 10.24474 | 27° | 18km/h | 31769m | 5.9m/s | -41.4°C | 0% | 9.5hPa | 2.6V | 18:12:15 | 02:06:18 | 00:00:00 | |
| BIOWL1-15 | 2026-08-31 00:24:34 | 49.18327 | 10.24468 | 10° | 22km/h | 31752m | 5m/s | -41.5°C | 0% | 9.5hPa | 2.5V | 18:12:15 | 02:06:15 | 00:00:00 | |
| DF8AY | 2026-08-31 00:24:34 | 49.18322 | 10.24466 | 11° | 20km/h | 31746m | 5.8m/s | -41.6°C | 0% | 9.5hPa | 2.5V | 18:12:15 | 02:06:14 | 00:00:00 | |
| DM0DOS-11 | 2026-08-31 00:24:32 | 49.18309 | 10.24460 | 24° | 20km/h | 31728m | 5.1m/s | -41.7°C | 2.3% | 9.6hPa | 2.6V | 08:30:00 | 02:06:11 | 00:00:00 | |
| HSKMA3-T | 2026-08-31 00:24:30 | 49.18309 | 10.24460 | 24° | 20km/h | 31728m | 5.1m/s | -41.7°C | 0% | 9.6hPa | 2.6V | 18:12:15 | 02:06:11 | 00:00:00 | |
| DK7TD | 2026-08-31 00:24:27 | 49.18292 | 10.24450 | 19° | 26km/h | 31710m | 4.9m/s | -41.8°C | 0% | 9.6hPa | 2.5V | 18:12:15 | 02:06:08 | 00:00:00 | |
| BIOWL1-15 | 2026-08-31 00:24:24 | 49.18278 | 10.24441 | 31° | 13km/h | 31693m | 6.5m/s | -41.8°C | 0% | 9.6hPa | 2.6V | 18:12:15 | 02:06:05 | 00:00:00 | |
| DF8AY | 2026-08-31 00:24:23 | 49.18276 | 10.24439 | 31° | 9km/h | 31687m | 5.6m/s | -41.8°C | 0% | 9.6hPa | 2.5V | 18:12:15 | 02:06:04 | 00:00:00 | |
| OE5WHR-10 | 2026-08-31 00:24:23 | 49.18276 | 10.24439 | 31° | 16km/h | 31688m | 5.6m/s | -41.8°C | 2.3% | 9.6hPa | 2.5V | 00:00:00 | 02:06:04 | 00:00:00 | |
| DM0DOS-11 | 2026-08-31 00:24:22 | 49.18267 | 10.24436 | 1° | 15km/h | 31669m | 5.4m/s | -41.9°C | 2.4% | 9.7hPa | 2.5V | 08:30:00 | 02:06:01 | 00:00:00 | |
| DL1XH-west | 2026-08-31 00:24:20 | 49.18268 | 10.24436 | 2° | 15km/h | 31669m | 5.4m/s | -41.9°C | 0% | 9.7hPa | 2.5V | 18:12:15 | 02:06:01 | 00:00:00 | |
| HSKMA3-T | 2026-08-31 00:24:19 | 49.18263 | 10.24436 | 4° | 16km/h | 31664m | 4.9m/s | -41.9°C | 0% | 9.7hPa | 2.6V | 18:12:15 | 02:06:00 | 00:00:00 | |
| DK7TD | 2026-08-31 00:24:16 | 49.18253 | 10.24431 | 35° | 11km/h | 31646m | 5.6m/s | -41.8°C | 0% | 9.7hPa | 2.5V | 18:12:15 | 02:05:57 | 00:00:00 | |
| DF8AY | 2026-08-31 00:24:11 | 49.18234 | 10.24413 | 28° | 27km/h | 31619m | 5.6m/s | -41.9°C | 0% | 9.7hPa | 2.6V | 18:12:15 | 02:05:52 | 00:00:00 | |
| DL1XH-west | 2026-08-31 00:24:10 | 49.18223 | 10.24401 | 40° | 26km/h | 31608m | 6.7m/s | -41.9°C | 0% | 9.8hPa | 2.5V | 18:12:15 | 02:05:50 | 00:00:00 | |
| HSKMA3-T | 2026-08-31 00:24:08 | 49.18219 | 10.24395 | 47° | 22km/h | 31602m | 5.8m/s | -41.9°C | 0% | 9.8hPa | 2.5V | 18:12:15 | 02:05:49 | 00:00:00 | |
| DB0NH | 2026-08-31 00:24:08 | 49.18219 | 10.24395 | 48° | 20km/h | 31602m | 5.7m/s | -41.8°C | 2.3% | 9.7hPa | 2.6V | 00:00:00 | 02:05:49 | 00:00:00 | |
| DC4HF-4 | 2026-08-31 00:24:06 | 49.18212 | 10.24384 | 38° | 16km/h | 31590m | 6.5m/s | -41.9°C | 0.5% | 9.8hPa | 2.6V | 00:00:00 | 00:00:00 | 00:00:00 | |
| DM0DOS-11 | 2026-08-31 00:24:06 | 49.18209 | 10.24381 | 23° | 16km/h | 31584m | 6.6m/s | -41.9°C | 2.3% | 9.8hPa | 2.5V | 08:30:00 | 02:05:46 | 00:00:00 | |
| DL1XH1-15 | 2026-08-31 00:24:05 | 49.18190 | 10.24371 | 38° | 18km/h | 31555m | 4.9m/s | -42.1°C | 2.4% | 9.8hPa | 2.6V | 08:30:00 | 02:05:41 | 00:00:00 | |
| DK7TD | 2026-08-31 00:24:05 | 49.18209 | 10.24381 | 24° | 16km/h | 31584m | 6.6m/s | -41.9°C | 0% | 9.8hPa | 2.5V | 18:12:15 | 02:05:46 | 00:00:00 | |
| BIOWL1-15 | 2026-08-31 00:24:03 | 49.18201 | 10.24378 | 8° | 15km/h | 31572m | 5.1m/s | -42°C | 0% | 9.8hPa | 2.5V | 18:12:15 | 02:05:44 | 00:00:00 | |
| DF8AY | 2026-08-31 00:24:00 | 49.18191 | 10.24371 | 39° | 18km/h | 31555m | 4.9m/s | -42.1°C | 0% | 9.8hPa | 2.6V | 18:12:15 | 02:05:41 | 00:00:00 | |
| DL1XH-west | 2026-08-31 00:23:59 | 49.18187 | 10.24367 | 37° | 22km/h | 31550m | 4.8m/s | -42.1°C | 0% | 9.8hPa | 2.6V | 18:12:15 | 02:05:40 | 00:00:00 | |
| HSKMA3-T | 2026-08-31 00:23:57 | 49.18176 | 10.24358 | 21° | 26km/h | 31539m | 6.5m/s | -42.1°C | 0% | 9.8hPa | 2.5V | 18:12:15 | 02:05:38 | 00:00:00 | |
| DM0DOS-11 | 2026-08-31 00:23:56 | 49.18164 | 10.24352 | 13° | 24km/h | 31528m | 4.7m/s | -42.2°C | 2.4% | 9.9hPa | 2.5V | 08:30:00 | 02:05:36 | 00:00:00 | |
| DL1XH1-15 | 2026-08-31 00:23:55 | 49.18145 | 10.24334 | 44° | 16km/h | 31500m | 5.2m/s | -42.3°C | 2.4% | 9.9hPa | 2.5V | 08:30:00 | 02:05:31 | 00:00:00 | |
| DK7TD | 2026-08-31 00:23:54 | 49.18158 | 10.24350 | 18° | 22km/h | 31523m | 4.9m/s | -42.2°C | 0% | 9.9hPa | 2.6V | 18:12:15 | 02:05:35 | 00:00:00 | |
| DF8AY | 2026-08-31 00:23:50 | 49.18145 | 10.24334 | 44° | 16km/h | 31500m | 5.2m/s | -42.3°C | 0% | 9.9hPa | 2.5V | 18:12:15 | 02:05:31 | 00:00:00 | |
| DL1XH-west | 2026-08-31 00:23:48 | 49.18137 | 10.24328 | 11° | 22km/h | 31487m | 6.4m/s | -42.3°C | 0% | 9.9hPa | 2.6V | 18:12:15 | 02:05:29 | 00:00:00 | |
| HSKMA3-T | 2026-08-31 00:23:46 | 49.18124 | 10.24327 | 2° | 27km/h | 31475m | 5.7m/s | -42.4°C | 0% | 10hPa | 2.6V | 18:12:15 | 02:05:27 | 00:00:00 | |
| DL1XH1-15 | 2026-08-31 00:23:45 | 49.18088 | 10.24315 | 14° | 24km/h | 31440m | 6.4m/s | -42.4°C | 2.4% | 10hPa | 2.6V | 08:30:00 | 02:05:21 | 00:00:00 | |
| DL1ZP-14 | 2026-08-31 00:23:45 | 49.18110 | 10.24324 | 10° | 24km/h | 31463m | 5.9m/s | -42.4°C | 0.5% | 10.0hPa | 2.5V | 00:00:00 | 00:00:00 | 00:00:00 | |
| BIOWL1-15 | 2026-08-31 00:23:43 | 49.18104 | 10.24322 | 15° | 24km/h | 31457m | 5.2m/s | -42.4°C | 0% | 10hPa | 2.5V | 18:12:15 | 02:05:24 | 00:00:00 | |
| DF8AY | 2026-08-31 00:23:40 | 49.18088 | 10.24315 | 15° | 24km/h | 31440m | 6.4m/s | -42.4°C | 0% | 10hPa | 2.6V | 18:12:15 | 02:05:21 | 00:00:00 | |
| DL1XH-west | 2026-08-31 00:23:38 | 49.18076 | 10.24309 | 22° | 27km/h | 31429m | 4.8m/s | -42.4°C | 0% | 10hPa | 2.5V | 18:12:15 | 02:05:19 | 00:00:00 | |
| DB0NH | 2026-08-31 00:23:38 | 49.18076 | 10.24309 | 22° | 22km/h | 31430m | 4.7m/s | -42.4°C | 2.4% | 10.0hPa | 2.5V | 00:00:00 | 02:05:19 | 00:00:00 | |
| DF3TZ-5 | 2026-08-31 00:23:37 | 49.18070 | 10.24305 | 31° | 26km/h | 31425m | 5.5m/s | -42.4°C | 0.5% | 10.0hPa | 2.6V | 00:00:00 | 00:00:00 | 00:00:00 | |
| DM0DOS-11 | 2026-08-31 00:23:36 | 49.18060 | 10.24292 | 52° | 24km/h | 31412m | 6.3m/s | -42.4°C | 2.4% | 10hPa | 2.6V | 08:30:00 | 02:05:16 | 00:00:00 | |
| HSKMA3-T | 2026-08-31 00:23:36 | 49.18065 | 10.24299 | 42° | 26km/h | 31418m | 6.7m/s | -42.4°C | 0% | 10.1hPa | 2.6V | 18:12:15 | 02:05:17 | 00:00:00 | |
| DL1XH1-15 | 2026-08-31 00:23:35 | 49.18042 | 10.24277 | 346° | 26km/h | 31384m | 6m/s | -42.4°C | 2.4% | 10.1hPa | 2.6V | 08:30:00 | 02:05:11 | 00:00:00 | |
| DK7TD | 2026-08-31 00:23:33 | 49.18055 | 10.24280 | 48° | 15km/h | 31402m | 4.4m/s | -42.4°C | 0% | 10.1hPa | 2.5V | 18:12:15 | 02:05:14 | 00:00:00 | |
| BIOWL1-15 | 2026-08-31 00:23:32 | 49.18052 | 10.24277 | 22° | 15km/h | 31397m | 5.9m/s | -42.4°C | 0% | 10.1hPa | 2.5V | 18:12:15 | 02:05:13 | 00:00:00 | |
| DM0DOS-11 | 2026-08-31 00:23:31 | 49.18010 | 10.24280 | 17° | 18km/h | 31356m | 4.8m/s | -42.4°C | 2.4% | 10.1hPa | 2.5V | 08:30:00 | 02:05:06 | 00:00:00 | |
| DF8AY | 2026-08-31 00:23:29 | 49.18036 | 10.24280 | 347° | 29km/h | 31378m | 5.2m/s | -42.4°C | 0% | 10.1hPa | 2.6V | 18:12:15 | 02:05:10 | 00:00:00 | |
| DL1XH-west | 2026-08-31 00:23:28 | 49.18028 | 10.24282 | 352° | 29km/h | 31373m | 5.5m/s | -42.5°C | 0% | 10.1hPa | 2.6V | 18:12:15 | 02:05:09 | 00:00:00 | |
| OE5DRO-10 | 2026-08-31 00:23:26 | 49.18014 | 10.24282 | 10° | 20km/h | 31362m | 5.4m/s | -42.4°C | 2.5% | 10.1hPa | 2.5V | 00:00:00 | 00:00:00 | 00:00:00 | |
| DL1XH1-15 | 2026-08-31 00:23:25 | 49.17990 | 10.24280 | 346° | 22km/h | 31327m | 5.5m/s | -42.3°C | 2.4% | 10.2hPa | 2.5V | 08:30:00 | 02:05:01 | 00:00:00 | |
| HSKMA3-T | 2026-08-31 00:23:25 | 49.18010 | 10.24280 | 18° | 18km/h | 31356m | 4.8m/s | -42.4°C | 0% | 10.1hPa | 2.5V | 18:12:15 | 02:05:06 | 00:00:00 | |
| DK7TD | 2026-08-31 00:23:22 | 49.17999 | 10.24277 | 355° | 13km/h | 31339m | 6.4m/s | -42.4°C | 0% | 10.2hPa | 2.6V | 18:12:15 | 02:05:03 | 00:00:00 | |
| DL1XH-west | 2026-08-31 00:23:18 | 49.17978 | 10.24282 | 3° | 27km/h | 31316m | 6.2m/s | -42.3°C | 0% | 10.2hPa | 2.5V | 18:12:15 | 02:04:59 | 00:00:00 | |
| DF7PN | 2026-08-31 00:23:15 | 49.17958 | 10.24274 | 16° | 27km/h | 31298m | 4.8m/s | -42.2°C | 0.5% | 10.2hPa | 2.5V | 00:00:00 | 00:00:00 | 00:00:00 | |
| HSKMA3-T | 2026-08-31 00:23:15 | 49.17958 | 10.24274 | 17° | 27km/h | 31298m | 4.8m/s | -42.2°C | 0% | 10.2hPa | 2.6V | 18:12:15 | 02:04:56 | 00:00:00 | |
| DL1ZP-14 | 2026-08-31 00:23:14 | 49.17945 | 10.24272 | 355° | 20km/h | 31286m | 6.2m/s | -42.1°C | 0.5% | 10.3hPa | 2.5V | 00:00:00 | 00:00:00 | 00:00:00 | |
| DL1XH1-15 | 2026-08-31 00:23:12 | 49.17935 | 10.24279 | 325° | 9km/h | 31270m | 5.9m/s | -42.1°C | 2.4% | 10.2hPa | 2.6V | 08:30:00 | 02:04:51 | 00:00:00 | |
| DK7TD | 2026-08-31 00:23:12 | 49.17941 | 10.24273 | 338° | 16km/h | 31280m | 5.1m/s | -42.1°C | 0% | 10.2hPa | 2.5V | 18:12:15 | 02:04:53 | 00:00:00 | |
| DF8AY | 2026-08-31 00:23:08 | 49.17930 | 10.24279 | 16° | 13km/h | 31258m | 5.2m/s | -42.1°C | 0% | 10.3hPa | 2.5V | 18:12:15 | 02:04:49 | 00:00:00 | |
| DL1XH-west | 2026-08-31 00:23:07 | 49.17926 | 10.24278 | 18° | 20km/h | 31253m | 5m/s | -42.1°C | 0% | 10.3hPa | 2.5V | 18:12:15 | 02:04:48 | 00:00:00 | |
| HSKMA3-T | 2026-08-31 00:23:05 | 49.17913 | 10.24273 | 6° | 33km/h | 31242m | 6.4m/s | -42.1°C | 0% | 10.3hPa | 2.5V | 18:12:15 | 02:04:46 | 00:00:00 | |
| BIOWL1-15 | 2026-08-31 00:23:01 | 49.17881 | 10.24276 | 357° | 24km/h | 31221m | 5.7m/s | -42.2°C | 0% | 10.3hPa | 2.5V | 18:12:15 | 02:04:42 | 00:00:00 | |
| DL1XH-west | 2026-08-31 00:22:57 | 49.17867 | 10.24265 | 58° | 13km/h | 31197m | 4.7m/s | -42.3°C | 0% | 10.4hPa | 2.6V | 18:12:15 | 02:04:38 | 00:00:00 | |
| HSKMA3-T | 2026-08-31 00:22:55 | 49.17862 | 10.24259 | 14° | 16km/h | 31186m | 6.3m/s | -42.3°C | 0% | 10.4hPa | 2.5V | 18:12:15 | 02:04:36 | 00:00:00 | |
| DK7TD | 2026-08-31 00:22:51 | 49.17833 | 10.24261 | 4° | 24km/h | 31155m | 5.8m/s | -42.3°C | 0% | 10.4hPa | 2.6V | 18:12:15 | 02:04:31 | 00:00:00 | |
| DL1XH-west | 2026-08-31 00:22:46 | 49.17809 | 10.24258 | 4° | 22km/h | 31131m | 5.9m/s | -42.2°C | 0% | 10.5hPa | 2.5V | 18:12:15 | 02:04:27 | 00:00:00 | |
| BIOWL1-15 | 2026-08-31 00:22:46 | 49.17804 | 10.24257 | 10° | 18km/h | 31125m | 5.8m/s | -42.2°C | 0% | 10.5hPa | 2.5V | 18:12:15 | 02:04:26 | 00:00:00 | |
| DF7PN | 2026-08-31 00:22:44 | 49.17800 | 10.24255 | 21° | 15km/h | 31119m | 7.1m/s | -42.2°C | 0.5% | 10.5hPa | 2.5V | 00:00:00 | 00:00:00 | 00:00:00 | |
| HSKMA3-T | 2026-08-31 00:22:44 | 49.17800 | 10.24255 | 22° | 16km/h | 31119m | 7.1m/s | -42.2°C | 0% | 10.5hPa | 2.6V | 18:12:15 | 02:04:25 | 00:00:00 | |
| DK7TD | 2026-08-31 00:22:39 | 49.17784 | 10.24248 | 343° | 22km/h | 31088m | 6.8m/s | -42.3°C | 0% | 10.5hPa | 2.5V | 18:12:15 | 02:04:20 | 00:00:00 | |
| DL1XH-west | 2026-08-31 00:22:35 | 49.17755 | 10.24258 | 3° | 29km/h | 31064m | 6.4m/s | -42.5°C | 0% | 10.6hPa | 2.5V | 18:12:15 | 02:04:16 | 00:00:00 | |
| HSKMA3-T | 2026-08-31 00:22:34 | 49.17748 | 10.24256 | 14° | 29km/h | 31058m | 6.3m/s | -42.5°C | 0% | 10.6hPa | 2.5V | 18:12:15 | 02:04:15 | 00:00:00 | |
| BIOWL1-15 | 2026-08-31 00:22:29 | 49.17704 | 10.24234 | 8° | 18km/h | 31009m | 5.1m/s | -42.6°C | 0% | 10.7hPa | 2.5V | 18:12:15 | 02:04:07 | 00:00:00 | |
| DK7TD | 2026-08-31 00:22:28 | 49.17713 | 10.24238 | 20° | 16km/h | 31020m | 7.2m/s | -42.6°C | 0% | 10.7hPa | 2.5V | 18:12:15 | 02:04:09 | 00:00:00 | |
| DF8AY | 2026-08-31 00:22:25 | 49.17699 | 10.24234 | 360° | 24km/h | 31003m | 7m/s | -42.6°C | 0% | 10.7hPa | 2.6V | 18:12:15 | 02:04:06 | 00:00:00 | |
| DL1XH-west | 2026-08-31 00:22:24 | 49.17693 | 10.24234 | 356° | 29km/h | 30996m | 6.8m/s | -42.6°C | 0% | 10.7hPa | 2.6V | 18:12:15 | 02:04:05 | 00:00:00 | |
| HSKMA3-T | 2026-08-31 00:22:23 | 49.17685 | 10.24235 | 358° | 33km/h | 30990m | 5.8m/s | -42.6°C | 0% | 10.7hPa | 2.6V | 18:12:15 | 02:04:04 | 00:00:00 | |
| DK7TD | 2026-08-31 00:22:18 | 49.17647 | 10.24222 | 26° | 27km/h | 30959m | 5.8m/s | -42.6°C | 0% | 10.7hPa | 2.6V | 18:12:15 | 02:03:59 | 00:00:00 | |
| DL1XH-west | 2026-08-31 00:22:14 | 49.17620 | 10.24207 | 13° | 27km/h | 30934m | 5.8m/s | -42.5°C | 0% | 10.8hPa | 2.5V | 18:12:15 | 02:03:55 | 00:00:00 | |
| HSKMA3-T | 2026-08-31 00:22:13 | 49.17613 | 10.24205 | 15° | 26km/h | 30928m | 7.1m/s | -42.5°C | 0% | 10.8hPa | 2.5V | 18:12:15 | 02:03:54 | 00:00:00 | |
| BIOWL1-15 | 2026-08-31 00:22:11 | 49.17601 | 10.24201 | 7° | 24km/h | 30916m | 5.1m/s | -42.5°C | 0% | 10.8hPa | 2.6V | 18:12:15 | 02:03:52 | 00:00:00 | |
| DF8AY-15 | 2026-08-31 00:22:11 | 49.17601 | 10.24201 | 8° | 26km/h | 30916m | 5.1m/s | -42.5°C | 2.5% | 10.8hPa | 2.6V | 00:00:00 | 02:03:52 | 00:00:00 | |
| DO3MHA-12 | 2026-08-31 00:22:10 | 49.17595 | 10.24200 | 357° | 27km/h | 30910m | 5.9m/s | -42.5°C | 2.4% | 10.8hPa | 2.6V | 00:00:00 | 02:03:51 | 08:30:00 | |
| DB0UT-7 | 2026-08-31 00:22:09 | 49.17588 | 10.24202 | 348° | 26km/h | 30904m | 7.4m/s | -42.5°C | 2.4% | 10.8hPa | 2.5V | 00:00:00 | 00:00:00 | 00:00:00 | |
| DM0DOS-11 | 2026-08-31 00:22:08 | 49.17558 | 10.24214 | 355° | 27km/h | 30879m | 7m/s | -42.6°C | 2.4% | 10.9hPa | 2.6V | 08:30:00 | 02:03:46 | 00:00:00 | |
| DK7TD | 2026-08-31 00:22:07 | 49.17573 | 10.24209 | 343° | 33km/h | 30891m | 5m/s | -42.6°C | 0% | 10.8hPa | 2.5V | 18:12:15 | 02:03:48 | 00:00:00 | |
| DL1XH1-15 | 2026-08-31 00:22:05 | 49.17529 | 10.24209 | 350° | 24km/h | 30848m | 6.7m/s | -42.6°C | 2.5% | 10.9hPa | 2.5V | 08:30:00 | 02:03:41 | 00:00:00 | |
| DL1XH-west | 2026-08-31 00:22:04 | 49.17552 | 10.24214 | 8° | 26km/h | 30872m | 6.1m/s | -42.6°C | 0% | 10.9hPa | 2.6V | 18:12:15 | 02:03:45 | 00:00:00 | |
| HSKMA3-T | 2026-08-31 00:22:02 | 49.17540 | 10.24210 | 13° | 22km/h | 30861m | 5.4m/s | -42.6°C | 0% | 10.9hPa | 2.5V | 18:12:15 | 02:03:43 | 00:00:00 | |
| BIOWL1-15 | 2026-08-31 00:22:00 | 49.17529 | 10.24209 | 350° | 24km/h | 30848m | 6.7m/s | -42.6°C | 0% | 10.9hPa | 2.5V | 18:12:15 | 02:03:41 | 00:00:00 | |
| DK7TD | 2026-08-31 00:21:57 | 49.17511 | 10.24220 | 333° | 24km/h | 30829m | 7m/s | -42.6°C | 0% | 11hPa | 2.6V | 18:12:15 | 02:03:38 | 00:00:00 | |
| OE5WHR-10 | 2026-08-31 00:21:56 | 49.17506 | 10.24224 | 332° | 24km/h | 30823m | 6.2m/s | -42.6°C | 2.5% | 10.9hPa | 2.5V | 00:00:00 | 00:00:00 | 08:30:00 | |
| DL1XH1-15 | 2026-08-31 00:21:55 | 49.17474 | 10.24254 | 337° | 24km/h | 30786m | 6.9m/s | -42.5°C | 2.4% | 11.1hPa | 2.6V | 08:30:00 | 02:03:31 | 00:00:00 | |
| DF8AY | 2026-08-31 00:21:54 | 49.17496 | 10.24233 | 327° | 24km/h | 30811m | 6m/s | -42.6°C | 0% | 11hPa | 2.5V | 18:12:15 | 02:03:35 | 00:00:00 | |
| DL1XH-west | 2026-08-31 00:21:53 | 49.17491 | 10.24238 | 325° | 26km/h | 30805m | 7.4m/s | -42.6°C | 0% | 11hPa | 2.5V | 18:12:15 | 02:03:34 | 00:00:00 | |
| HSKMA3-T | 2026-08-31 00:21:52 | 49.17485 | 10.24244 | 326° | 27km/h | 30798m | 6m/s | -42.6°C | 0% | 11hPa | 2.5V | 18:12:15 | 02:03:33 | 00:00:00 | |
| BIOWL1-15 | 2026-08-31 00:21:50 | 49.17463 | 10.24257 | 358° | 22km/h | 30773m | 5.1m/s | -42.6°C | 0% | 11hPa | 2.5V | 18:12:15 | 02:03:29 | 00:00:00 | |
| DK7TD | 2026-08-31 00:21:47 | 49.17457 | 10.24258 | 357° | 24km/h | 30768m | 4.8m/s | -42.6°C | 0% | 11.1hPa | 2.5V | 18:12:15 | 02:03:28 | 00:00:00 | |
| DJ8HS-15 | 2026-08-31 00:21:45 | 49.17445 | 10.24262 | 338° | 20km/h | 30756m | 6.8m/s | -42.5°C | 2.4% | 11.0hPa | 2.5V | 00:00:00 | 02:03:26 | 00:00:00 | |
| DM0DOS-11 | 2026-08-31 00:21:44 | 49.17419 | 10.24294 | 319° | 18km/h | 30726m | 5.8m/s | -42.6°C | 2.5% | 11.1hPa | 2.5V | 08:30:00 | 02:03:21 | 00:00:00 | |
| DF8AY | 2026-08-31 00:21:43 | 49.17432 | 10.24274 | 319° | 29km/h | 30744m | 5.5m/s | -42.5°C | 0% | 11.1hPa | 2.6V | 18:12:15 | 02:03:24 | 00:00:00 | |
| HSKMA3-T | 2026-08-31 00:21:42 | 49.17427 | 10.24282 | 314° | 27km/h | 30738m | 5.8m/s | -42.5°C | 0% | 11.1hPa | 2.5V | 18:12:15 | 02:03:23 | 00:00:00 | |
| DK7TD | 2026-08-31 00:21:36 | 49.17403 | 10.24307 | 332° | 24km/h | 30703m | 6.1m/s | -42.7°C | 0% | 11.2hPa | 2.6V | 18:12:15 | 02:03:17 | 00:00:00 | |
| OE5WHR-10 | 2026-08-31 00:21:35 | 49.17397 | 10.24312 | 326° | 18km/h | 30697m | 5.5m/s | -42.6°C | 2.5% | 11.1hPa | 2.6V | 00:00:00 | 00:00:00 | 00:00:00 | |
| DN1GJH-1 | 2026-08-31 00:21:33 | 49.17393 | 10.24317 | 318° | 22km/h | 30691m | 5.7m/s | -42.7°C | 0.6% | 11.2hPa | 2.6V | 00:00:00 | 00:00:00 | 00:00:00 | |
| DM0DOS-11 | 2026-08-31 00:21:32 | 49.17382 | 10.24336 | 317° | 13km/h | 30667m | 5.4m/s | -42.6°C | 2.5% | 11.3hPa | 2.6V | 08:30:00 | 02:03:11 | 00:00:00 | |
| HSKMA3-T | 2026-08-31 00:21:32 | 49.17387 | 10.24328 | 304° | 15km/h | 30679m | 6.3m/s | -42.7°C | 0% | 11.2hPa | 2.5V | 18:12:15 | 02:03:13 | 00:00:00 | |
| DL1XH-west | 2026-08-31 00:21:31 | 49.17385 | 10.24333 | 305° | 13km/h | 30673m | 5.6m/s | -42.6°C | 0% | 11.2hPa | 2.5V | 18:12:15 | 02:03:12 | 00:00:00 | |
| DK7TD | 2026-08-31 00:21:26 | 49.17368 | 10.24349 | 325° | 18km/h | 30642m | 6.3m/s | -42.6°C | 0% | 11.3hPa | 2.5V | 18:12:15 | 02:03:07 | 00:00:00 | |
| HSKMA3-T | 2026-08-31 00:21:22 | 49.17360 | 10.24374 | 286° | 22km/h | 30617m | 7.2m/s | -42.6°C | 0% | 11.3hPa | 2.6V | 18:12:15 | 02:03:03 | 00:00:00 | |
| DL1XH-west | 2026-08-31 00:21:20 | 49.17356 | 10.24391 | 291° | 24km/h | 30604m | 5.2m/s | -42.5°C | 0% | 11.3hPa | 2.5V | 18:12:15 | 02:03:01 | 00:00:00 | |
| DK7TD | 2026-08-31 00:21:15 | 49.17353 | 10.24423 | 278° | 9km/h | 30575m | 5.4m/s | -42.5°C | 0% | 11.4hPa | 2.5V | 18:12:15 | 02:02:56 | 00:00:00 | |
| DL1XH1-15 | 2026-08-31 00:21:15 | 49.17342 | 10.24457 | 282° | 31km/h | 30546m | 5.8m/s | -42.5°C | 2.4% | 11.5hPa | 2.5V | 08:30:00 | 02:02:51 | 00:00:00 | |
| HSKMA3-T | 2026-08-31 00:21:12 | 49.17347 | 10.24438 | 303° | 24km/h | 30558m | 6m/s | -42.5°C | 0% | 11.4hPa | 2.6V | 18:12:15 | 02:02:53 | 00:00:00 | |
| DF8AY | 2026-08-31 00:21:11 | 49.17344 | 10.24446 | 293° | 27km/h | 30552m | 6.1m/s | -42.5°C | 0% | 11.4hPa | 2.5V | 18:12:15 | 02:02:52 | 00:00:00 | |
| DL1XH-west | 2026-08-31 00:21:10 | 49.17342 | 10.24457 | 283° | 31km/h | 30546m | 5.8m/s | -42.5°C | 0% | 11.5hPa | 2.5V | 18:12:15 | 02:02:51 | 00:00:00 | |
| DO3MHA-12 | 2026-08-31 00:21:10 | 49.17342 | 10.24457 | 283° | 18km/h | 30546m | 5.7m/s | -42.5°C | 2.4% | 11.4hPa | 2.5V | 00:00:00 | 02:02:51 | 00:00:00 | |
| DB0UT-7 | 2026-08-31 00:21:09 | 49.17341 | 10.24468 | 272° | 16km/h | 30541m | 5.2m/s | -42.5°C | 2.4% | 11.4hPa | 2.5V | 00:00:00 | 00:00:00 | 00:00:00 | |
| DB0NH | 2026-08-31 00:21:08 | 49.17341 | 10.24479 | 264° | 16km/h | 30535m | 5.4m/s | -42.5°C | 2.4% | 11.4hPa | 2.5V | 00:00:00 | 02:02:49 | 00:00:00 | |
| S52SK | 2026-08-31 00:21:07 | 49.17341 | 10.24479 | 265° | 26km/h | 30535m | 5.5m/s | 0°C | 0% | 0hPa | 2.5V | 00:00:00 | 00:00:00 | 00:00:00 | |
| DC4HF-4 | 2026-08-31 00:21:06 | 49.17343 | 10.24495 | 257° | 15km/h | 30523m | 6.6m/s | -42.6°C | 0.5% | 11.5hPa | 2.5V | 00:00:00 | 00:00:00 | 00:00:00 | |
| DL1XH1-15 | 2026-08-31 00:21:05 | 49.17347 | 10.24524 | 254° | 24km/h | 30485m | 6m/s | -42.8°C | 2.4% | 11.6hPa | 2.5V | 08:30:00 | 02:02:41 | 00:00:00 | |
| DK7TD | 2026-08-31 00:21:04 | 49.17344 | 10.24503 | 267° | 7km/h | 30510m | 5.6m/s | -42.6°C | 0% | 11.5hPa | 2.5V | 18:12:15 | 02:02:45 | 00:00:00 | |
| HSKMA3-T | 2026-08-31 00:21:03 | 49.17346 | 10.24516 | 254° | 18km/h | 30492m | 6.9m/s | -42.7°C | 0% | 11.6hPa | 2.6V | 18:12:15 | 02:02:42 | 00:00:00 | |
| DM0DOS-11 | 2026-08-31 00:21:03 | 49.17353 | 10.24558 | 254° | 22km/h | 30461m | 5.3m/s | -42.9°C | 2.4% | 11.6hPa | 2.6V | 08:30:00 | 02:02:37 | 00:00:00 | |
| DF8AY | 2026-08-31 00:21:00 | 49.17347 | 10.24524 | 254° | 24km/h | 30485m | 6m/s | -42.8°C | 0% | 11.6hPa | 2.5V | 18:12:15 | 02:02:41 | 00:00:00 | |
| DL1XH-west | 2026-08-31 00:20:59 | 49.17349 | 10.24533 | 256° | 26km/h | 30479m | 5.8m/s | -42.8°C | 0% | 11.6hPa | 2.5V | 18:12:15 | 02:02:40 | 00:00:00 | |
| DK7TD | 2026-08-31 00:20:53 | 49.17360 | 10.24581 | 234° | 22km/h | 30442m | 5.6m/s | -43°C | 0% | 11.6hPa | 2.5V | 18:12:15 | 02:02:34 | 00:00:00 | |
| DL1XH1-15 | 2026-08-31 00:20:53 | 49.17368 | 10.24596 | 231° | 9km/h | 30424m | 7.2m/s | -43.2°C | 2.5% | 11.7hPa | 2.6V | 08:30:00 | 02:02:31 | 00:00:00 | |
| HSKMA3-T | 2026-08-31 00:20:51 | 49.17368 | 10.24596 | 231° | 9km/h | 30424m | 7.2m/s | -43.2°C | 0% | 11.7hPa | 2.6V | 18:12:15 | 02:02:31 | 00:00:00 | |
| DL1XH-west | 2026-08-31 00:20:49 | 49.17369 | 10.24598 | 242° | 5km/h | 30418m | 5.7m/s | -43.2°C | 0% | 11.7hPa | 2.5V | 18:12:15 | 02:02:30 | 00:00:00 | |
| SONDE2-11 | 2026-08-31 00:20:49 | 49.17369 | 10.24601 | 247° | 7km/h | 30412m | 5.3m/s | -43.2°C | 0.5% | 11.7hPa | 2.6V | 00:00:00 | 00:00:00 | 00:00:00 | |
| DM0DOS-11 | 2026-08-31 00:20:47 | 49.17372 | 10.24608 | 241° | 16km/h | 30399m | 6.2m/s | -43.2°C | 2.5% | 11.7hPa | 2.6V | 08:30:00 | 02:02:27 | 00:00:00 | |
| SONCRA | 2026-08-31 00:20:46 | 49.17372 | 10.24608 | 241° | 15km/h | 30400m | 6.2m/s | -43.2°C | 0.5% | 11.7hPa | 2.6V | 00:00:00 | 00:00:00 | 00:00:00 | |
| DL1XH1-15 | 2026-08-31 00:20:45 | 49.17384 | 10.24644 | 233° | 16km/h | 30363m | 6.6m/s | -43.4°C | 2.5% | 11.8hPa | 2.6V | 08:30:00 | 02:02:21 | 00:00:00 | |
| DK7TD | 2026-08-31 00:20:43 | 49.17378 | 10.24627 | 245° | 18km/h | 30381m | 6.8m/s | -43.3°C | 0% | 11.8hPa | 2.5V | 18:12:15 | 02:02:24 | 00:00:00 | |
| DJ2DS-15 | 2026-08-31 00:20:42 | 49.17380 | 10.24633 | 246° | 13km/h | 30375m | 5.6m/s | -43.3°C | 2.4% | 11.7hPa | 2.5V | 00:00:00 | 02:02:23 | 00:00:00 | |
| DM0DOS-11 | 2026-08-31 00:20:41 | 49.17395 | 10.24657 | 187° | 5km/h | 30340m | 7.5m/s | -43.5°C | 2.5% | 11.8hPa | 2.5V | 08:30:00 | 02:02:17 | 00:00:00 | |
| DF8AY | 2026-08-31 00:20:39 | 49.17387 | 10.24649 | 227° | 18km/h | 30357m | 5.9m/s | -43.5°C | 0% | 11.8hPa | 2.5V | 18:12:15 | 02:02:20 | 00:00:00 | |
| DL1XH-west | 2026-08-31 00:20:38 | 49.17390 | 10.24653 | 220° | 15km/h | 30352m | 4.6m/s | -43.5°C | 0% | 11.8hPa | 2.5V | 18:12:15 | 02:02:19 | 00:00:00 | |
| DK7TD | 2026-08-31 00:20:32 | 49.17391 | 10.24660 | 295° | 13km/h | 30314m | 6.8m/s | -43.8°C | 0% | 11.8hPa | 2.5V | 18:12:15 | 02:02:13 | 00:00:00 | |
| DN1GJH-1 | 2026-08-31 00:20:32 | 49.17392 | 10.24660 | 296° | 13km/h | 30314m | 6.8m/s | -43.8°C | 0.6% | 11.8hPa | 2.6V | 00:00:00 | 00:00:00 | 00:00:00 | |
| DL1XH1-15 | 2026-08-31 00:20:31 | 49.17389 | 10.24674 | 280° | 22km/h | 30303m | 5.2m/s | -43.8°C | 2.5% | 11.9hPa | 2.6V | 08:30:00 | 02:02:11 | 00:00:00 | |
| HSKMA3-T | 2026-08-31 00:20:29 | 49.17388 | 10.24682 | 277° | 20km/h | 30297m | 5.9m/s | -43.8°C | 0% | 11.9hPa | 2.6V | 18:12:15 | 02:02:10 | 00:00:00 | |
| DL1XH-west | 2026-08-31 00:20:28 | 49.17388 | 10.24689 | 274° | 16km/h | 30291m | 6.3m/s | -43.8°C | 0% | 11.9hPa | 2.5V | 18:12:15 | 02:02:09 | 00:00:00 | |
| DF8AY | 2026-08-31 00:20:28 | 49.17397 | 10.24703 | 196° | 15km/h | 30261m | 6.1m/s | -43.9°C | 0% | 11.9hPa | 2.5V | 18:12:15 | 02:02:04 | 00:00:00 | |
| DL6DJ-15 | 2026-08-31 00:20:27 | 49.17389 | 10.24698 | 227° | 7km/h | 30280m | 5.0m/s | -43.9°C | 0.5% | 11.9hPa | 2.5V | 00:00:00 | 00:00:00 | 00:00:00 | |
| DJ8HS-15 | 2026-08-31 00:20:25 | 49.17390 | 10.24699 | 201° | 9km/h | 30275m | 5.5m/s | -43.8°C | 2.5% | 11.9hPa | 2.5V | 00:00:00 | 02:02:06 | 00:00:00 | |
| DM0DOS-11 | 2026-08-31 00:20:23 | 49.17405 | 10.24705 | 150° | 5km/h | 30245m | 6.3m/s | -43.9°C | 2.5% | 12hPa | 2.5V | 08:30:00 | 02:02:01 | 00:00:00 | |
| DK7TD | 2026-08-31 00:20:22 | 49.17400 | 10.24704 | 195° | 13km/h | 30256m | 4.9m/s | -43.9°C | 0% | 12hPa | 2.5V | 18:12:15 | 02:02:03 | 00:00:00 | |
| DF8AY | 2026-08-31 00:20:18 | 49.17404 | 10.24701 | 51° | 9km/h | 30232m | 6.4m/s | -44°C | 0% | 12hPa | 2.6V | 18:12:15 | 02:01:59 | 00:00:00 | |
| DL1XH-west | 2026-08-31 00:20:17 | 49.17402 | 10.24698 | 32° | 9km/h | 30226m | 5.3m/s | -44°C | 0% | 12hPa | 2.5V | 18:12:15 | 02:01:58 | 00:00:00 | |
| BIOWL1-15 | 2026-08-31 00:20:15 | 49.17399 | 10.24707 | 271° | 15km/h | 30203m | 4.9m/s | -44.1°C | 0% | 12.1hPa | 2.6V | 18:12:15 | 02:01:54 | 00:00:00 | |
| DK7TD | 2026-08-31 00:20:11 | 49.17398 | 10.24718 | 282° | 13km/h | 30191m | 6.5m/s | -44.2°C | 0% | 12.1hPa | 2.5V | 18:12:15 | 02:01:52 | 00:00:00 | |
| DL1XH1-15 | 2026-08-31 00:20:11 | 49.17397 | 10.24722 | 300° | 9km/h | 30184m | 6m/s | -44.2°C | 2.5% | 12.1hPa | 2.5V | 08:30:00 | 02:01:51 | 00:00:00 | |
| DF8AY | 2026-08-31 00:20:07 | 49.17395 | 10.24725 | 169° | 0km/h | 30168m | 6m/s | -44.2°C | 0% | 12.1hPa | 2.5V | 18:12:15 | 02:01:48 | 00:00:00 | |
| DL1ZP-14 | 2026-08-31 00:20:07 | 49.17395 | 10.24725 | 168° | 0km/h | 30168m | 6.0m/s | -44.2°C | 0.6% | 12.1hPa | 2.5V | 00:00:00 | 00:00:00 | 00:00:00 | |
| DL1XH1-15 | 2026-08-31 00:20:05 | 49.17399 | 10.24721 | 109° | 4km/h | 30126m | 5.4m/s | -44.5°C | 2.6% | 12.2hPa | 2.5V | 08:30:00 | 02:01:41 | 00:00:00 | |
| DK7TD | 2026-08-31 00:20:00 | 49.17399 | 10.24721 | 109° | 4km/h | 30126m | 5.4m/s | -44.5°C | 0% | 12.2hPa | 2.5V | 18:12:15 | 02:01:41 | 00:00:00 | |
| DL1XH-west | 2026-08-31 00:19:57 | 49.17404 | 10.24718 | 163° | 13km/h | 30107m | 5.6m/s | -44.7°C | 0% | 12.3hPa | 2.6V | 18:12:15 | 02:01:38 | 00:00:00 | |
| DL6DJ-15 | 2026-08-31 00:19:56 | 49.17410 | 10.24713 | 135° | 15km/h | 30094m | 6.3m/s | -44.8°C | 0.6% | 12.3hPa | 2.5V | 00:00:00 | 00:00:00 | 00:00:00 | |
| DC4HF-4 | 2026-08-31 00:19:54 | 49.17413 | 10.24709 | 130° | 15km/h | 30088m | 4.9m/s | -44.8°C | 0.6% | 12.3hPa | 2.5V | 00:00:00 | 00:00:00 | 00:00:00 | |
| DL1XH1-15 | 2026-08-31 00:19:51 | 49.17422 | 10.24695 | 135° | 7km/h | 30065m | 5m/s | -44.9°C | 2.6% | 12.3hPa | 2.5V | 08:30:00 | 02:01:31 | 00:00:00 | |
| DK7TD | 2026-08-31 00:19:50 | 49.17423 | 10.24693 | 102° | 5km/h | 30059m | 7.1m/s | -44.9°C | 0% | 12.3hPa | 2.5V | 18:12:15 | 02:01:30 | 00:00:00 | |
| DL1XH-west | 2026-08-31 00:19:47 | 49.17422 | 10.24688 | 55° | 7km/h | 30046m | 5.4m/s | -45°C | 0% | 12.4hPa | 2.6V | 18:12:15 | 02:01:28 | 00:00:00 | |
| DF8AY | 2026-08-31 00:19:46 | 49.17422 | 10.24687 | 64° | 4km/h | 30040m | 6m/s | -45.1°C | 0% | 12.4hPa | 2.6V | 18:12:15 | 02:01:27 | 00:00:00 | |
| SONCRA | 2026-08-31 00:19:44 | 49.17423 | 10.24686 | 182° | 7km/h | 30028m | 5.8m/s | -45.3°C | 0.6% | 12.4hPa | 2.5V | 00:00:00 | 00:00:00 | 00:00:00 | |
| DK7TD | 2026-08-31 00:19:39 | 49.17438 | 10.24676 | 149° | 16km/h | 29998m | 5.9m/s | -45.6°C | 0% | 12.4hPa | 2.5V | 18:12:15 | 02:01:20 | 00:00:00 | |
| DL1XH-west | 2026-08-31 00:19:37 | 49.17444 | 10.24672 | 161° | 11km/h | 29985m | 5.1m/s | -45.7°C | 0% | 12.5hPa | 2.6V | 18:12:15 | 02:01:18 | 00:00:00 | |
| HSKMA3-T | 2026-08-31 00:19:36 | 49.17446 | 10.24670 | 153° | 7km/h | 29980m | 5.4m/s | -45.7°C | 0% | 12.5hPa | 2.6V | 18:12:15 | 02:01:17 | 00:00:00 | |
| DF8AY | 2026-08-31 00:19:35 | 49.17447 | 10.24669 | 78° | 4km/h | 29974m | 7m/s | -45.7°C | 0% | 12.5hPa | 2.5V | 18:12:15 | 02:01:16 | 00:00:00 | |
| BIOWL1-15 | 2026-08-31 00:19:33 | 49.17443 | 10.24666 | 18° | 13km/h | 29961m | 5.4m/s | -45.7°C | 0% | 12.5hPa | 2.5V | 18:12:15 | 02:01:14 | 00:00:00 | |
| DM0DOS-11 | 2026-08-31 00:19:32 | 49.17437 | 10.24665 | 290° | 2km/h | 29944m | 6.5m/s | -45.9°C | 2.8% | 12.5hPa | 2.6V | 08:30:00 | 02:01:11 | 00:00:00 | |
| DK7TD | 2026-08-31 00:19:29 | 49.17438 | 10.24666 | 202° | 7km/h | 29938m | 5.5m/s | -45.9°C | 0% | 12.5hPa | 2.5V | 18:12:15 | 02:01:10 | 00:00:00 | |
| DL1XH-west | 2026-08-31 00:19:27 | 49.17442 | 10.24666 | 168° | 11km/h | 29926m | 6.5m/s | -46°C | 0% | 12.6hPa | 2.5V | 18:12:15 | 02:01:08 | 00:00:00 | |
| HSKMA3-T | 2026-08-31 00:19:26 | 49.17445 | 10.24665 | 149° | 9km/h | 29920m | 6m/s | -46°C | 0% | 12.6hPa | 2.6V | 18:12:15 | 02:01:07 | 00:00:00 | |
| DF8AY | 2026-08-31 00:19:25 | 49.17446 | 10.24662 | 77° | 2km/h | 29910m | 4.3m/s | -46°C | 0% | 12.6hPa | 2.5V | 18:12:15 | 02:01:05 | 00:00:00 | |
| DM0DOS-11 | 2026-08-31 00:19:22 | 49.17443 | 10.24675 | 290° | 16km/h | 29886m | 5.2m/s | -46°C | 2.8% | 12.7hPa | 2.6V | 08:30:00 | 02:01:01 | 00:00:00 | |
| DK7TD | 2026-08-31 00:19:19 | 49.17441 | 10.24680 | 297° | 15km/h | 29881m | 6.3m/s | -46.1°C | 0% | 12.6hPa | 2.5V | 18:12:15 | 02:01:00 | 00:00:00 | |
| DL1XH-west | 2026-08-31 00:19:16 | 49.17437 | 10.24687 | 355° | 4km/h | 29862m | 6.5m/s | -46.1°C | 0% | 12.7hPa | 2.5V | 18:12:15 | 02:00:57 | 00:00:00 | |
| SONDE2-11 | 2026-08-31 00:19:16 | 49.17436 | 10.24687 | 34° | 2km/h | 29855m | 6.7m/s | -46.1°C | 0.6% | 12.7hPa | 2.6V | 00:00:00 | 00:00:00 | 00:00:00 | |
| DL1XH1-15 | 2026-08-31 00:19:15 | 49.17431 | 10.24672 | 51° | 15km/h | 29824m | 4.8m/s | -46.3°C | 2.8% | 12.8hPa | 2.6V | 08:30:00 | 02:00:51 | 00:00:00 | |
| HSKMA3-T | 2026-08-31 00:19:15 | 49.17436 | 10.24687 | 35° | 2km/h | 29855m | 6.7m/s | -46.1°C | 0% | 12.7hPa | 2.6V | 18:12:15 | 02:00:56 | 00:00:00 | |
| DF8AY | 2026-08-31 00:19:14 | 49.17435 | 10.24684 | 76° | 7km/h | 29843m | 5.6m/s | -46.1°C | 0% | 12.8hPa | 2.5V | 18:12:15 | 02:00:54 | 00:00:00 | |
| SONCRA | 2026-08-31 00:19:13 | 49.17435 | 10.24684 | 75° | 5km/h | 29844m | 5.6m/s | -46.1°C | 0.6% | 12.8hPa | 2.5V | 00:00:00 | 00:00:00 | 00:00:00 | |
| DM0DOS-11 | 2026-08-31 00:19:11 | 49.17424 | 10.24671 | 297° | 11km/h | 29801m | 5.9m/s | -46.6°C | 2.9% | 12.8hPa | 2.5V | 08:30:00 | 02:00:47 | 00:00:00 | |
| BIOWL1-15 | 2026-08-31 00:19:09 | 49.17429 | 10.24669 | 38° | 11km/h | 29819m | 5.1m/s | -46.4°C | 0% | 12.8hPa | 2.6V | 18:12:15 | 02:00:50 | 00:00:00 | |
| DK7TD | 2026-08-31 00:19:09 | 49.17427 | 10.24668 | 10° | 7km/h | 29814m | 6.8m/s | -46.4°C | 0% | 12.8hPa | 2.5V | 18:12:15 | 02:00:49 | 00:00:00 | |
| HSKMA3-T | 2026-08-31 00:19:05 | 49.17423 | 10.24674 | 299° | 11km/h | 29795m | 6.3m/s | -46.7°C | 0% | 12.8hPa | 2.6V | 18:12:15 | 02:00:46 | 00:00:00 | |
| DF8AY | 2026-08-31 00:19:02 | 49.17418 | 10.24680 | 350° | 7km/h | 29777m | 5.2m/s | -46.9°C | 0% | 12.9hPa | 2.5V | 18:12:15 | 02:00:43 | 00:00:00 | |
| DJ2DS-15 | 2026-08-31 00:19:02 | 49.17418 | 10.24680 | 350° | 13km/h | 29777m | 5.2m/s | -46.8°C | 2.9% | 12.8hPa | 2.5V | 00:00:00 | 02:00:43 | 00:00:00 | |
| DO3MHA-12 | 2026-08-31 00:19:00 | 49.17414 | 10.24681 | 343° | 13km/h | 29764m | 6.2m/s | -46.9°C | 3.0% | 12.8hPa | 2.5V | 00:00:00 | 02:00:41 | 00:00:00 | |
| DM0DOS-11 | 2026-08-31 00:18:58 | 49.17402 | 10.24678 | 22° | 15km/h | 29740m | 5m/s | -47°C | 3% | 12.9hPa | 2.5V | 08:30:00 | 02:00:37 | 00:00:00 | |
| DK7TD | 2026-08-31 00:18:58 | 49.17409 | 10.24682 | 13° | 11km/h | 29752m | 6.6m/s | -47°C | 0% | 12.9hPa | 2.6V | 18:12:15 | 02:00:39 | 00:00:00 | |
| DF3TZ-5 | 2026-08-31 00:18:58 | 49.17406 | 10.24680 | 24° | 13km/h | 29746m | 6.6m/s | -47.0°C | 0.7% | 12.9hPa | 2.5V | 00:00:00 | 00:00:00 | 00:00:00 | |
| EDDB2-12 | 2026-08-31 00:18:56 | 49.17399 | 10.24676 | 9° | 13km/h | 29735m | 5.0m/s | -46.9°C | 0.6% | 13.0hPa | 2.5V | 00:00:00 | 00:00:00 | 00:00:00 | |
| DL1XH1-15 | 2026-08-31 00:18:55 | 49.17385 | 10.24691 | 314° | 13km/h | 29706m | 6.3m/s | -46.9°C | 2.9% | 13hPa | 2.5V | 08:30:00 | 02:00:31 | 00:00:00 | |
| HSKMA3-T | 2026-08-31 00:18:55 | 49.17399 | 10.24676 | 10° | 15km/h | 29735m | 5m/s | -46.9°C | 0% | 13hPa | 2.5V | 18:12:15 | 02:00:36 | 00:00:00 | |
| DL1XH-west | 2026-08-31 00:18:55 | 49.17392 | 10.24678 | 324° | 15km/h | 29723m | 6.4m/s | -46.9°C | 0% | 13hPa | 2.6V | 18:12:15 | 02:00:34 | 00:00:00 | |
| DF8AY | 2026-08-31 00:18:52 | 49.17387 | 10.24687 | 305° | 15km/h | 29712m | 4.7m/s | -46.9°C | 0% | 13hPa | 2.5V | 18:12:15 | 02:00:32 | 00:00:00 | |
| DK7TD | 2026-08-31 00:18:47 | 49.17377 | 10.24695 | 359° | 11km/h | 29688m | 5.7m/s | -46.8°C | 0% | 13hPa | 2.5V | 18:12:15 | 02:00:28 | 00:00:00 | |
| DM0DOS-11 | 2026-08-31 00:18:47 | 49.17374 | 10.24695 | 354° | 11km/h | 29682m | 6.8m/s | -46.8°C | 2.9% | 13hPa | 2.5V | 08:30:00 | 02:00:27 | 00:00:00 | |
| HSKMA3-T | 2026-08-31 00:18:45 | 49.17371 | 10.24696 | 354° | 11km/h | 29676m | 5.5m/s | -46.8°C | 0% | 13.1hPa | 2.5V | 18:12:15 | 02:00:26 | 00:00:00 | |
| DL1XH-west | 2026-08-31 00:18:44 | 49.17368 | 10.24696 | 0° | 13km/h | 29670m | 5.7m/s | -46.8°C | 0% | 13.1hPa | 2.5V | 18:12:15 | 02:00:25 | 00:00:00 | |
| SONDE2-11 | 2026-08-31 00:18:44 | 49.17368 | 10.24696 | 0° | 13km/h | 29670m | 5.7m/s | -46.8°C | 0.6% | 13.1hPa | 2.5V | 00:00:00 | 00:00:00 | 00:00:00 | |
| DF8AY | 2026-08-31 00:18:42 | 49.17358 | 10.24693 | 14° | 15km/h | 29651m | 5.1m/s | -46.8°C | 0% | 13.1hPa | 2.5V | 18:12:15 | 02:00:22 | 00:00:00 | |
| DK7TD | 2026-08-31 00:18:37 | 49.17350 | 10.24698 | 291° | 9km/h | 29627m | 4.9m/s | -46.8°C | 0% | 13.2hPa | 2.6V | 18:12:15 | 02:00:18 | 00:00:00 | |
| DJTTGO | 2026-08-31 00:18:36 | 49.17349 | 10.24701 | 309° | 5km/h | 29623m | 5.7m/s | -46.8°C | 0.7% | 13.2hPa | 2.5V | 00:00:00 | 00:00:00 | 00:00:00 | |
| DL1XH1-15 | 2026-08-31 00:18:35 | 49.17337 | 10.24684 | 42° | 11km/h | 29587m | 6.3m/s | -46.8°C | 2.9% | 13.2hPa | 2.5V | 08:30:00 | 02:00:11 | 00:00:00 | |
| HSKMA3-T | 2026-08-31 00:18:35 | 49.17348 | 10.24701 | 12° | 5km/h | 29616m | 7m/s | -46.8°C | 0% | 13.2hPa | 2.5V | 18:12:15 | 02:00:16 | 00:00:00 | |
| DL1XH-west | 2026-08-31 00:18:34 | 49.17342 | 10.24691 | 52° | 16km/h | 29599m | 5.3m/s | -46.8°C | 0% | 13.2hPa | 2.6V | 18:12:15 | 02:00:13 | 00:00:00 | |
| BIOWL1-15 | 2026-08-31 00:18:33 | 49.17344 | 10.24696 | 51° | 15km/h | 29604m | 4.8m/s | -46.9°C | 0% | 13.2hPa | 2.6V | 18:12:15 | 02:00:14 | 00:00:00 | |
| DM0DOS-11 | 2026-08-31 00:18:32 | 49.17339 | 10.24687 | 49° | 13km/h | 29593m | 6.4m/s | -46.8°C | 2.9% | 13.2hPa | 2.5V | 08:30:00 | 02:00:12 | 00:00:00 | |
| DF8AY | 2026-08-31 00:18:31 | 49.17339 | 10.24687 | 49° | 13km/h | 29593m | 6.4m/s | -46.8°C | 0% | 13.2hPa | 2.5V | 18:12:15 | 02:00:12 | 00:00:00 | |
| DK7TD | 2026-08-31 00:18:27 | 49.17333 | 10.24680 | 27° | 7km/h | 29570m | 6.2m/s | -46.8°C | 0% | 13.3hPa | 2.6V | 18:12:15 | 02:00:08 | 00:00:00 | |
| DF3TZ-5 | 2026-08-31 00:18:27 | 49.17331 | 10.24678 | 35° | 9km/h | 29563m | 6.9m/s | -46.8°C | 0.7% | 13.3hPa | 2.5V | 00:00:00 | 00:00:00 | 00:00:00 | |
| DL1XH1-15 | 2026-08-31 00:18:26 | 49.17324 | 10.24664 | 87° | 4km/h | 29528m | 4.8m/s | -46.7°C | 2.9% | 13.4hPa | 2.5V | 08:30:00 | 02:00:01 | 00:00:00 | |
| HSKMA3-T | 2026-08-31 00:18:25 | 49.17326 | 10.24672 | 50° | 11km/h | 29551m | 5.3m/s | -46.8°C | 0% | 13.3hPa | 2.5V | 18:12:15 | 02:00:05 | 00:00:00 | |
| DL1XH-west | 2026-08-31 00:18:22 | 49.17324 | 10.24666 | 77° | 5km/h | 29539m | 7m/s | -46.7°C | 0% | 13.4hPa | 2.6V | 18:12:15 | 02:00:03 | 00:00:00 | |
| DM0DOS-11 | 2026-08-31 00:18:21 | 49.17324 | 10.24665 | 108° | 4km/h | 29533m | 5.4m/s | -46.7°C | 2.9% | 13.3hPa | 2.6V | 08:30:00 | 02:00:02 | 00:00:00 | |
| DK7TD | 2026-08-31 00:18:16 | 49.17317 | 10.24650 | 43° | 18km/h | 29504m | 5.2m/s | -46.7°C | 0% | 13.4hPa | 2.6V | 18:12:15 | 01:59:57 | 00:00:00 | |
| EDDB2-11 | 2026-08-31 00:18:16 | 49.17314 | 10.24645 | 44° | 16km/h | 29499m | 5.9m/s | -46.8°C | 0.6% | 13.4hPa | 2.6V | 00:00:00 | 00:00:00 | 00:00:00 | |
| DL1XH1-15 | 2026-08-31 00:18:13 | 49.17307 | 10.24625 | 71° | 13km/h | 29471m | 6.4m/s | -47°C | 2.9% | 13.5hPa | 2.6V | 08:30:00 | 01:59:51 | 00:00:00 | |
| HSKMA3-T | 2026-08-31 00:18:13 | 49.17310 | 10.24637 | 63° | 11km/h | 29487m | 5.3m/s | -46.9°C | 0% | 13.4hPa | 2.5V | 18:12:15 | 01:59:54 | 00:00:00 | |
| DL1XH-west | 2026-08-31 00:18:12 | 49.17309 | 10.24634 | 78° | 9km/h | 29482m | 4.8m/s | -46.9°C | 0% | 13.5hPa | 2.5V | 18:12:15 | 01:59:53 | 00:00:00 | |
| BIOWL1-15 | 2026-08-31 00:18:10 | 49.17307 | 10.24625 | 72° | 13km/h | 29471m | 6.4m/s | -47°C | 0% | 13.5hPa | 2.6V | 18:12:15 | 01:59:51 | 00:00:00 | |
| DF8AY | 2026-08-31 00:18:09 | 49.17306 | 10.24620 | 57° | 16km/h | 29464m | 6.2m/s | -47.1°C | 0% | 13.5hPa | 2.5V | 18:12:15 | 01:59:50 | 00:00:00 | |
| DK7TD | 2026-08-31 00:18:06 | 49.17296 | 10.24608 | 20° | 15km/h | 29447m | 5.6m/s | -47.2°C | 0% | 13.5hPa | 2.6V | 18:12:15 | 01:59:47 | 00:00:00 | |
| DF8AY | 2026-08-31 00:18:04 | 49.17276 | 10.24607 | 38° | 15km/h | 29403m | 6.6m/s | -47.5°C | 0% | 13.6hPa | 2.5V | 18:12:15 | 01:59:40 | 00:00:00 | |
| HSKMA3-T | 2026-08-31 00:18:03 | 49.17288 | 10.24609 | 332° | 11km/h | 29428m | 5.6m/s | -47.4°C | 0% | 13.6hPa | 2.5V | 18:12:15 | 01:59:44 | 00:00:00 | |
| DL1XH-west | 2026-08-31 00:18:02 | 49.17279 | 10.24610 | 25° | 15km/h | 29409m | 5.9m/s | -47.5°C | 0% | 13.6hPa | 2.6V | 18:12:15 | 01:59:41 | 00:00:00 | |
| DK7TD | 2026-08-31 00:17:55 | 49.17263 | 10.24585 | 47° | 27km/h | 29378m | 7.3m/s | -47.6°C | 0% | 13.7hPa | 2.6V | 18:12:15 | 01:59:36 | 00:00:00 | |
| HSKMA3-T | 2026-08-31 00:17:52 | 49.17248 | 10.24566 | 32° | 22km/h | 29360m | 6.8m/s | -47.6°C | 0% | 13.7hPa | 2.5V | 18:12:15 | 01:59:33 | 00:00:00 | |
| DL1XH-west | 2026-08-31 00:17:52 | 49.17243 | 10.24563 | 23° | 16km/h | 29354m | 6.1m/s | -47.6°C | 0% | 13.7hPa | 2.5V | 18:12:15 | 01:59:32 | 00:00:00 | |
| BIOWL1-15 | 2026-08-31 00:17:49 | 49.17220 | 10.24540 | 48° | 16km/h | 29311m | 6.1m/s | -47.6°C | 0% | 13.8hPa | 2.6V | 18:12:15 | 01:59:25 | 00:00:00 | |
| DF8AY | 2026-08-31 00:17:48 | 49.17233 | 10.24556 | 28° | 16km/h | 29335m | 6.5m/s | -47.6°C | 0% | 13.8hPa | 2.5V | 18:12:15 | 01:59:29 | 00:00:00 | |
| DK7TD | 2026-08-31 00:17:45 | 49.17222 | 10.24544 | 44° | 16km/h | 29317m | 7m/s | -47.6°C | 0% | 13.8hPa | 2.6V | 18:12:15 | 01:59:26 | 00:00:00 | |
| DJ8HS-15 | 2026-08-31 00:17:45 | 49.17222 | 10.24544 | 44° | 18km/h | 29317m | 6.9m/s | -47.6°C | 3.0% | 13.8hPa | 2.6V | 00:00:00 | 01:59:26 | 00:00:00 | |
| OE5DRO-10 | 2026-08-31 00:17:44 | 49.17219 | 10.24540 | 49° | 20km/h | 29311m | 6.1m/s | -47.6°C | 3.1% | 13.8hPa | 2.6V | 00:00:00 | 00:00:00 | 00:00:00 | |
| DM0DOS-11 | 2026-08-31 00:17:43 | 49.17205 | 10.24510 | 56° | 31km/h | 29286m | 5.4m/s | -47.6°C | 3% | 13.9hPa | 2.5V | 08:30:00 | 01:59:21 | 00:00:00 | |
| HSKMA3-T | 2026-08-31 00:17:43 | 49.17214 | 10.24528 | 55° | 24km/h | 29299m | 6.9m/s | -47.6°C | 0% | 13.8hPa | 2.5V | 18:12:15 | 01:59:23 | 00:00:00 | |
| DL1XH-west | 2026-08-31 00:17:40 | 49.17206 | 10.24509 | 57° | 31km/h | 29286m | 5.4m/s | -47.6°C | 0% | 13.9hPa | 2.5V | 18:12:15 | 01:59:21 | 00:00:00 | |
| DF8AY | 2026-08-31 00:17:37 | 49.17183 | 10.24470 | 31° | 13km/h | 29243m | 5.2m/s | -47.7°C | 0% | 14hPa | 2.6V | 18:12:15 | 01:59:14 | 00:00:00 | |
| DK7TD | 2026-08-31 00:17:34 | 49.17186 | 10.24473 | 36° | 15km/h | 29249m | 6.1m/s | -47.7°C | 0% | 14hPa | 2.6V | 18:12:15 | 01:59:15 | 00:00:00 | |
| DF7PN | 2026-08-31 00:17:33 | 49.17183 | 10.24470 | 31° | 13km/h | 29243m | 5.2m/s | -47.7°C | 0.7% | 14.0hPa | 2.5V | 00:00:00 | 00:00:00 | 00:00:00 | |
| DL1XH1-15 | 2026-08-31 00:17:31 | 49.17176 | 10.24466 | 16° | 11km/h | 29225m | 5.5m/s | -47.6°C | 3% | 14hPa | 2.5V | 08:30:00 | 01:59:11 | 00:00:00 | |
| HSKMA3-T | 2026-08-31 00:17:31 | 49.17178 | 10.24467 | 15° | 11km/h | 29231m | 7.1m/s | -47.7°C | 0% | 14hPa | 2.5V | 18:12:15 | 01:59:12 | 00:00:00 | |
| DL1XH-west | 2026-08-31 00:17:30 | 49.17173 | 10.24464 | 30° | 15km/h | 29220m | 5.1m/s | -47.7°C | 0% | 14hPa | 2.6V | 18:12:15 | 01:59:10 | 00:00:00 | |
| BIOWL1-15 | 2026-08-31 00:17:23 | 49.17149 | 10.24425 | 47° | 18km/h | 29183m | 5.9m/s | -47.7°C | 0% | 14.1hPa | 2.6V | 18:12:15 | 01:59:04 | 00:00:00 | |
| EDDB2-12 | 2026-08-31 00:17:23 | 49.17146 | 10.24420 | 45° | 15km/h | 29177m | 5.5m/s | -47.7°C | 0.7% | 14.1hPa | 2.5V | 00:00:00 | 00:00:00 | 00:00:00 | |
| DM0DOS-11 | 2026-08-31 00:17:22 | 49.17141 | 10.24413 | 40° | 11km/h | 29164m | 6m/s | -47.7°C | 3% | 14.1hPa | 2.5V | 08:30:00 | 01:59:01 | 00:00:00 | |
| HSKMA3-T | 2026-08-31 00:17:20 | 49.17141 | 10.24413 | 41° | 11km/h | 29164m | 6m/s | -47.7°C | 0% | 14.1hPa | 2.5V | 18:12:15 | 01:59:01 | 00:00:00 | |
| DL1XH-west | 2026-08-31 00:17:19 | 49.17138 | 10.24411 | 23° | 7km/h | 29159m | 5.2m/s | -47.7°C | 0% | 14.1hPa | 2.5V | 18:12:15 | 01:59:00 | 00:00:00 | |
| DK7TD | 2026-08-31 00:17:13 | 49.17128 | 10.24410 | 56° | 16km/h | 29122m | 6.6m/s | -47.9°C | 0% | 14.2hPa | 2.6V | 18:12:15 | 01:58:54 | 00:00:00 | |
| BIOWL1-15 | 2026-08-31 00:17:12 | 49.17115 | 10.24377 | 14° | 11km/h | 29088m | 4.9m/s | -48.1°C | 0% | 14.3hPa | 2.6V | 18:12:15 | 01:58:48 | 00:00:00 | |
| DF8AY | 2026-08-31 00:17:12 | 49.17123 | 10.24396 | 66° | 22km/h | 29111m | 4.8m/s | -47.9°C | 0% | 14.2hPa | 2.5V | 18:12:15 | 01:58:52 | 00:00:00 | |
| DL1XH1-15 | 2026-08-31 00:17:12 | 49.17121 | 10.24389 | 65° | 20km/h | 29105m | 6.2m/s | -48°C | 3% | 14.3hPa | 2.5V | 08:30:00 | 01:58:51 | 00:00:00 | |
| HSKMA3-T | 2026-08-31 00:17:10 | 49.17121 | 10.24389 | 66° | 20km/h | 29105m | 6.2m/s | -48°C | 0% | 14.3hPa | 2.5V | 18:12:15 | 01:58:51 | 00:00:00 | |
| DO3MHA-12 | 2026-08-31 00:17:10 | 49.17121 | 10.24389 | 66° | 16km/h | 29106m | 6.2m/s | -47.9°C | 3.0% | 14.2hPa | 2.5V | 00:00:00 | 01:58:51 | 00:00:00 | |
| DM0DOS-11 | 2026-08-31 00:17:09 | 49.17104 | 10.24374 | 17° | 18km/h | 29070m | 6.3m/s | -48.2°C | 3.1% | 14.3hPa | 2.5V | 08:30:00 | 01:58:45 | 00:00:00 | |
| DL1XH-west | 2026-08-31 00:17:08 | 49.17117 | 10.24379 | 40° | 11km/h | 29093m | 5.7m/s | -48.1°C | 0% | 14.3hPa | 2.5V | 18:12:15 | 01:58:49 | 00:00:00 | |
| DB0NH | 2026-08-31 00:17:08 | 49.17117 | 10.24379 | 41° | 13km/h | 29093m | 5.7m/s | -48.0°C | 3.0% | 14.2hPa | 2.5V | 00:00:00 | 01:58:49 | 00:00:00 | |
| OE5DRO-10 | 2026-08-31 00:17:07 | 49.17112 | 10.24377 | 6° | 11km/h | 29083m | 5.3m/s | -48.1°C | 3.0% | 14.3hPa | 2.5V | 00:00:00 | 00:00:00 | 00:00:00 | |
| DL1XH1-15 | 2026-08-31 00:17:05 | 49.17089 | 10.24363 | 26° | 9km/h | 29046m | 7m/s | -48.4°C | 3.2% | 14.4hPa | 2.5V | 08:30:00 | 01:58:41 | 00:00:00 | |
| DF8AY | 2026-08-31 00:17:02 | 49.17095 | 10.24368 | 28° | 18km/h | 29058m | 5.1m/s | -48.3°C | 0% | 14.4hPa | 2.6V | 18:12:15 | 01:58:43 | 00:00:00 | |
| HSKMA3-T | 2026-08-31 00:17:00 | 49.17089 | 10.24363 | 27° | 9km/h | 29046m | 7m/s | -48.4°C | 0% | 14.4hPa | 2.5V | 18:12:15 | 01:58:41 | 00:00:00 | |
| DL1XH-west | 2026-08-31 00:16:57 | 49.17086 | 10.24360 | 64° | 5km/h | 29029m | 6.7m/s | -48.4°C | 0% | 14.4hPa | 2.6V | 18:12:15 | 01:58:38 | 00:00:00 | |
| BIOWL1-15 | 2026-08-31 00:16:56 | 49.17085 | 10.24357 | 61° | 9km/h | 29022m | 6.6m/s | -48.5°C | 0% | 14.4hPa | 2.6V | 18:12:15 | 01:58:37 | 00:00:00 | |
| DK7TD | 2026-08-31 00:16:52 | 49.17078 | 10.24345 | 38° | 7km/h | 28999m | 6.4m/s | -48.5°C | 0.1% | 14.5hPa | 2.5V | 18:12:15 | 01:58:33 | 00:00:00 | |
| EDDB2-12 | 2026-08-31 00:16:52 | 49.17077 | 10.24343 | 23° | 7km/h | 28993m | 5.7m/s | -48.5°C | 0.7% | 14.5hPa | 2.6V | 00:00:00 | 00:00:00 | 00:00:00 | |
| DM0DOS-11 | 2026-08-31 00:16:51 | 49.17075 | 10.24342 | 23° | 9km/h | 28987m | 5.5m/s | -48.5°C | 3.2% | 14.5hPa | 2.6V | 08:30:00 | 01:58:31 | 00:00:00 | |
| DF8AY | 2026-08-31 00:16:51 | 49.17077 | 10.24343 | 24° | 7km/h | 28993m | 5.7m/s | -48.5°C | 0.1% | 14.5hPa | 2.6V | 18:12:15 | 01:58:32 | 00:00:00 | |
| HSKMA3-T | 2026-08-31 00:16:49 | 49.17072 | 10.24340 | 30° | 13km/h | 28982m | 6.3m/s | -48.5°C | 0% | 14.6hPa | 2.5V | 18:12:15 | 01:58:30 | 00:00:00 | |
| DL1XH-west | 2026-08-31 00:16:47 | 49.17065 | 10.24333 | 31° | 22km/h | 28968m | 5.3m/s | -48.4°C | 0.1% | 14.5hPa | 2.5V | 18:12:15 | 01:58:28 | 00:00:00 | |
| OE5DRO-10 | 2026-08-31 00:16:47 | 49.17065 | 10.24333 | 31° | 16km/h | 28969m | 5.3m/s | -48.4°C | 3.2% | 14.5hPa | 2.5V | 00:00:00 | 00:00:00 | 00:00:00 | |
| DJ8HS-15 | 2026-08-31 00:16:45 | 49.17054 | 10.24326 | 14° | 15km/h | 28958m | 6.6m/s | -48.3°C | 3.2% | 14.5hPa | 2.6V | 00:00:00 | 01:58:26 | 08:30:00 | |
| EDDB2-11 | 2026-08-31 00:16:43 | 49.17040 | 10.24327 | 345° | 15km/h | 28939m | 5.9m/s | -48.3°C | 0.7% | 14.6hPa | 2.6V | 00:00:00 | 00:00:00 | 00:00:00 | |
| DJ2DS-15 | 2026-08-31 00:16:42 | 49.17040 | 10.24327 | 346° | 15km/h | 28939m | 5.9m/s | -48.3°C | 3.1% | 14.6hPa | 2.6V | 00:00:00 | 01:58:23 | 00:00:00 | |
| DM0DOS-11 | 2026-08-31 00:16:41 | 49.17034 | 10.24328 | 3° | 9km/h | 28926m | 6.1m/s | -48.3°C | 3.1% | 14.7hPa | 2.6V | 08:30:00 | 01:58:21 | 00:00:00 | |
| DK7TD | 2026-08-31 00:16:41 | 49.17036 | 10.24328 | 352° | 13km/h | 28933m | 6.8m/s | -48.3°C | 0% | 14.7hPa | 2.6V | 18:12:15 | 01:58:22 | 00:00:00 | |
| HSKMA3-T | 2026-08-31 00:16:39 | 49.17031 | 10.24328 | 4° | 9km/h | 28921m | 4.9m/s | -48.3°C | 0% | 14.7hPa | 2.5V | 18:12:15 | 01:58:20 | 00:00:00 | |
| DL1XH-west | 2026-08-31 00:16:37 | 49.17027 | 10.24329 | 335° | 9km/h | 28908m | 7.1m/s | -48.3°C | 0% | 14.7hPa | 2.5V | 18:12:15 | 01:58:18 | 00:00:00 | |
| DK7TD | 2026-08-31 00:16:30 | 49.16998 | 10.24333 | 340° | 20km/h | 28865m | 5.9m/s | -48.5°C | 0% | 14.8hPa | 2.6V | 18:12:15 | 01:58:11 | 00:00:00 | |
| HSKMA3-T | 2026-08-31 00:16:28 | 49.16990 | 10.24339 | 331° | 15km/h | 28854m | 5.9m/s | -48.5°C | 0% | 14.8hPa | 2.5V | 18:12:15 | 01:58:09 | 00:00:00 | |
| DL1XH-west | 2026-08-31 00:16:26 | 49.16983 | 10.24343 | 345° | 13km/h | 28842m | 5.2m/s | -48.5°C | 0% | 14.8hPa | 2.5V | 18:12:15 | 01:58:07 | 00:00:00 | |
| DK7TD | 2026-08-31 00:16:20 | 49.16964 | 10.24370 | 300° | 18km/h | 28808m | 6.1m/s | -48.5°C | 0% | 14.9hPa | 2.5V | 18:12:15 | 01:58:01 | 00:00:00 | |
| BIOWL1-15 | 2026-08-31 00:16:19 | 49.16962 | 10.24375 | 302° | 13km/h | 28802m | 6.8m/s | -48.4°C | 0% | 15hPa | 2.6V | 18:12:15 | 01:58:00 | 00:00:00 | |
| HSKMA3-T | 2026-08-31 00:16:17 | 49.16959 | 10.24381 | 315° | 5km/h | 28789m | 5.8m/s | -48.4°C | 0% | 15hPa | 2.5V | 18:12:15 | 01:57:58 | 00:00:00 | |
| DL1XH-west | 2026-08-31 00:16:15 | 49.16954 | 10.24389 | 315° | 15km/h | 28771m | 5.1m/s | -48.3°C | 0% | 15hPa | 2.6V | 18:12:15 | 01:57:55 | 00:00:00 | |
| OE5WHR-10 | 2026-08-31 00:16:13 | 49.16951 | 10.24392 | 324° | 18km/h | 28766m | 5.2m/s | -48.2°C | 3.2% | 15.0hPa | 2.5V | 00:00:00 | 00:00:00 | 00:00:00 | |
| DM0DOS-11 | 2026-08-31 00:16:11 | 49.16938 | 10.24401 | 341° | 22km/h | 28748m | 4.9m/s | -48.2°C | 3.2% | 15hPa | 2.5V | 08:30:00 | 01:57:51 | 00:00:00 | |
| DF8AY | 2026-08-31 00:16:10 | 49.16929 | 10.24409 | 317° | 20km/h | 28737m | 6.6m/s | -48.2°C | 0% | 15.1hPa | 2.6V | 18:12:15 | 01:57:49 | 00:00:00 | |
| DK7TD | 2026-08-31 00:16:09 | 49.16933 | 10.24405 | 333° | 22km/h | 28743m | 4.6m/s | -48.2°C | 0% | 15.1hPa | 2.6V | 18:12:15 | 01:57:50 | 00:00:00 | |
| BIOWL1-15 | 2026-08-31 00:16:09 | 49.16926 | 10.24415 | 293° | 18km/h | 28731m | 6.2m/s | -48.2°C | 0% | 15.1hPa | 2.5V | 18:12:15 | 01:57:48 | 00:00:00 | |
| HSKMA3-T | 2026-08-31 00:16:06 | 49.16925 | 10.24422 | 270° | 18km/h | 28725m | 5.6m/s | -48.1°C | 0% | 15.1hPa | 2.5V | 18:12:15 | 01:57:47 | 00:00:00 | |
| DL1XH-west | 2026-08-31 00:16:04 | 49.16928 | 10.24433 | 230° | 13km/h | 28713m | 7.2m/s | -48.1°C | 0% | 15.2hPa | 2.5V | 18:12:15 | 01:57:45 | 00:00:00 | |
| DF8AY | 2026-08-31 00:15:59 | 49.16931 | 10.24440 | 340° | 9km/h | 28682m | 5.5m/s | -48.1°C | 0% | 15.2hPa | 2.5V | 18:12:15 | 01:57:40 | 00:00:00 | |
| DK7TD | 2026-08-31 00:15:58 | 49.16928 | 10.24441 | 349° | 13km/h | 28676m | 7.2m/s | -48.1°C | 0% | 15.3hPa | 2.6V | 18:12:15 | 01:57:39 | 00:00:00 | |
| HSKMA3-T | 2026-08-31 00:15:55 | 49.16917 | 10.24448 | 319° | 18km/h | 28659m | 5.7m/s | -48.1°C | 0% | 15.3hPa | 2.5V | 18:12:15 | 01:57:36 | 00:00:00 | |
| DL1XH-west | 2026-08-31 00:15:53 | 49.16913 | 10.24461 | 270° | 22km/h | 28646m | 5.1m/s | -48.2°C | 0% | 15.3hPa | 2.6V | 18:12:15 | 01:57:34 | 00:00:00 | |
| DF8AY | 2026-08-31 00:15:48 | 49.16931 | 10.24482 | 168° | 11km/h | 28611m | 6.6m/s | -48.4°C | 0% | 15.4hPa | 2.6V | 18:12:15 | 01:57:28 | 00:00:00 | |
| DK7TD | 2026-08-31 00:15:48 | 49.16928 | 10.24482 | 173° | 15km/h | 28617m | 5.2m/s | -48.4°C | 0% | 15.4hPa | 2.5V | 18:12:15 | 01:57:29 | 00:00:00 | |
| DL6DJ-15 | 2026-08-31 00:15:47 | 49.16931 | 10.24482 | 167° | 9km/h | 28611m | 6.6m/s | -48.4°C | 0.7% | 15.4hPa | 2.6V | 00:00:00 | 00:00:00 | 00:00:00 | |
| BIOWL1-15 | 2026-08-31 00:15:46 | 49.16937 | 10.24477 | 191° | 7km/h | 28568m | 7m/s | -48.5°C | 0% | 15.5hPa | 2.6V | 18:12:15 | 01:57:21 | 00:00:00 | |
| HSKMA3-T | 2026-08-31 00:15:44 | 49.16934 | 10.24480 | 94° | 2km/h | 28593m | 5.5m/s | -48.5°C | 0% | 15.4hPa | 2.5V | 18:12:15 | 01:57:25 | 00:00:00 | |
| DL1XH-west | 2026-08-31 00:15:43 | 49.16934 | 10.24478 | 135° | 5km/h | 28580m | 6.5m/s | -48.5°C | 0% | 15.5hPa | 2.5V | 18:12:15 | 01:57:23 | 00:00:00 | |
| DJ2DS-15 | 2026-08-31 00:15:42 | 49.16934 | 10.24478 | 135° | 9km/h | 28581m | 6.5m/s | -48.5°C | 3.1% | 15.4hPa | 2.6V | 00:00:00 | 01:57:23 | 00:00:00 | |
| DM0DOS-11 | 2026-08-31 00:15:41 | 49.16937 | 10.24477 | 190° | 7km/h | 28568m | 7m/s | -48.5°C | 3.1% | 15.5hPa | 2.6V | 08:30:00 | 01:57:21 | 00:00:00 | |
| DF8AY | 2026-08-31 00:15:38 | 49.16942 | 10.24481 | 203° | 15km/h | 28555m | 5.1m/s | -48.5°C | 0% | 15.5hPa | 2.5V | 18:12:15 | 01:57:19 | 00:00:00 | |
| DK7TD | 2026-08-31 00:15:37 | 49.16946 | 10.24482 | 190° | 15km/h | 28550m | 5.8m/s | -48.6°C | 0% | 15.5hPa | 2.5V | 18:12:15 | 01:57:18 | 00:00:00 | |
| HSKMA3-T | 2026-08-31 00:15:34 | 49.16957 | 10.24478 | 144° | 15km/h | 28531m | 5.8m/s | -48.6°C | 0% | 15.6hPa | 2.5V | 18:12:15 | 01:57:15 | 00:00:00 | |
| DL1XH1-15 | 2026-08-31 00:15:32 | 49.16959 | 10.24469 | 34° | 7km/h | 28508m | 5.5m/s | -48.7°C | 3.2% | 15.6hPa | 2.5V | 08:30:00 | 01:57:11 | 00:00:00 | |
| DL1XH-west | 2026-08-31 00:15:31 | 49.16960 | 10.24470 | 46° | 5km/h | 28513m | 5.2m/s | -48.7°C | 0.1% | 15.7hPa | 2.6V | 18:12:15 | 01:57:12 | 00:00:00 | |
| DF8AY | 2026-08-31 00:15:28 | 49.16955 | 10.24463 | 55° | 11km/h | 28495m | 6.2m/s | -48.6°C | 0% | 15.7hPa | 2.5V | 18:12:15 | 01:57:09 | 00:00:00 | |
| DK7TD | 2026-08-31 00:15:26 | 49.16953 | 10.24458 | 61° | 5km/h | 28484m | 5.8m/s | -48.7°C | 0% | 15.7hPa | 2.5V | 18:12:15 | 01:57:07 | 00:00:00 | |
| HSKMA3-T | 2026-08-31 00:15:23 | 49.16952 | 10.24457 | 231° | 4km/h | 28466m | 5.4m/s | -48.7°C | 0% | 15.7hPa | 2.6V | 18:12:15 | 01:57:04 | 00:00:00 | |
| DL1XH-west | 2026-08-31 00:15:21 | 49.16954 | 10.24457 | 146° | 5km/h | 28453m | 5.5m/s | -48.8°C | 0% | 15.8hPa | 2.5V | 18:12:15 | 01:57:02 | 00:00:00 | |
| BIOWL1-15 | 2026-08-31 00:15:20 | 49.16955 | 10.24455 | 66° | 2km/h | 28443m | 6.1m/s | -48.8°C | 0.1% | 15.8hPa | 2.5V | 18:12:15 | 01:57:00 | 00:00:00 | |
| DF8AY | 2026-08-31 00:15:18 | 49.16953 | 10.24456 | 341° | 7km/h | 28431m | 5.3m/s | -48.9°C | 0.1% | 15.8hPa | 2.6V | 18:12:15 | 01:56:58 | 00:00:00 | |
| DK7TD | 2026-08-31 00:15:15 | 49.16949 | 10.24456 | 11° | 7km/h | 28420m | 5.5m/s | -48.9°C | 0% | 15.9hPa | 2.6V | 18:12:15 | 01:56:56 | 00:00:00 | |
| HSKMA3-T | 2026-08-31 00:15:13 | 49.16946 | 10.24452 | 68° | 11km/h | 28408m | 6.2m/s | -49°C | 0.1% | 15.9hPa | 2.5V | 18:12:15 | 01:56:54 | 00:00:00 | |
| DL1XH-west | 2026-08-31 00:15:11 | 49.16943 | 10.24441 | 31° | 7km/h | 28392m | 6.4m/s | -48.9°C | 0.1% | 15.9hPa | 2.5V | 18:12:15 | 01:56:51 | 00:00:00 | |
| DK7TD | 2026-08-31 00:15:05 | 49.16927 | 10.24457 | 336° | 9km/h | 28356m | 5.6m/s | -48.7°C | 0% | 16hPa | 2.5V | 18:12:15 | 01:56:45 | 00:00:00 | |
| HSKMA3-T | 2026-08-31 00:15:03 | 49.16925 | 10.24458 | 354° | 7km/h | 28350m | 4.9m/s | -48.7°C | 0% | 16hPa | 2.5V | 18:12:15 | 01:56:44 | 00:00:00 | |
| DJ2DS-15 | 2026-08-31 00:15:02 | 49.16923 | 10.24458 | 360° | 11km/h | 28345m | 5.7m/s | -48.7°C | 3.2% | 16.0hPa | 2.5V | 00:00:00 | 01:56:43 | 00:00:00 | |
| DN1GJH-1 | 2026-08-31 00:15:01 | 49.16923 | 10.24458 | 360° | 7km/h | 28345m | 5.8m/s | -48.7°C | 0.8% | 16.0hPa | 2.5V | 00:00:00 | 00:00:00 | 00:00:00 | |
| DM0DOS-11 | 2026-08-31 00:15:00 | 49.16914 | 10.24458 | 7° | 13km/h | 28327m | 5.6m/s | -48.7°C | 3.2% | 16.1hPa | 2.5V | 08:30:00 | 01:56:40 | 00:00:00 | |
| DL1XH-west | 2026-08-31 00:15:00 | 49.16914 | 10.24458 | 8° | 13km/h | 28327m | 5.6m/s | -48.7°C | 0% | 16.1hPa | 2.5V | 18:12:15 | 01:56:40 | 00:00:00 | |
| DK7TD | 2026-08-31 00:14:54 | 49.16901 | 10.24454 | 329° | 13km/h | 28297m | 6.7m/s | -48.6°C | 0% | 16.1hPa | 2.5V | 18:12:15 | 01:56:35 | 00:00:00 | |
| DF8AY | 2026-08-31 00:14:53 | 49.16898 | 10.24458 | 310° | 15km/h | 28291m | 5.9m/s | -48.6°C | 0% | 16.2hPa | 2.5V | 18:12:15 | 01:56:34 | 00:00:00 | |
| HSKMA3-T | 2026-08-31 00:14:52 | 49.16896 | 10.24462 | 300° | 15km/h | 28285m | 5.7m/s | -48.7°C | 0% | 16.2hPa | 2.5V | 18:12:15 | 01:56:33 | 00:00:00 | |
| DL1XH1-15 | 2026-08-31 00:14:52 | 49.16894 | 10.24471 | 281° | 11km/h | 28273m | 5.2m/s | -48.8°C | 3.2% | 16.2hPa | 2.6V | 08:30:00 | 01:56:31 | 00:00:00 | |
| DL1XH-west | 2026-08-31 00:14:49 | 49.16893 | 10.24475 | 285° | 9km/h | 28268m | 4.9m/s | -48.8°C | 0.1% | 16.2hPa | 2.5V | 18:12:15 | 01:56:30 | 00:00:00 | |
| DK7TD | 2026-08-31 00:14:44 | 49.16883 | 10.24483 | 16° | 11km/h | 28238m | 7.1m/s | -48.9°C | 0.1% | 16.3hPa | 2.5V | 18:12:15 | 01:56:25 | 00:00:00 | |
| HSKMA3-T | 2026-08-31 00:14:42 | 49.16878 | 10.24478 | 38° | 13km/h | 28226m | 5.2m/s | -48.9°C | 0.1% | 16.3hPa | 2.5V | 18:12:15 | 01:56:23 | 00:00:00 | |
| DJ2DS-15 | 2026-08-31 00:14:42 | 49.16877 | 10.24478 | 38° | 13km/h | 28226m | 5.1m/s | -48.8°C | 3.2% | 16.3hPa | 2.6V | 00:00:00 | 01:56:23 | 00:00:00 | |
| DL1XH1-15 | 2026-08-31 00:14:41 | 49.16872 | 10.24475 | 4° | 13km/h | 28214m | 5.9m/s | -48.8°C | 3.2% | 16.4hPa | 2.6V | 08:30:00 | 01:56:21 | 00:00:00 | |
| DL1XH-west | 2026-08-31 00:14:38 | 49.16867 | 10.24477 | 314° | 11km/h | 28203m | 5.8m/s | -48.8°C | 0.1% | 16.4hPa | 2.5V | 18:12:15 | 01:56:19 | 00:00:00 | |
| DB0NH | 2026-08-31 00:14:38 | 49.16867 | 10.24477 | 314° | 15km/h | 28203m | 5.8m/s | -48.8°C | 3.2% | 16.3hPa | 2.5V | 00:00:00 | 01:56:19 | 00:00:00 | |
| OE5WHR-10 | 2026-08-31 00:14:36 | 49.16865 | 10.24485 | 275° | 13km/h | 28191m | 5.4m/s | -48.7°C | 3.2% | 16.4hPa | 2.6V | 00:00:00 | 01:56:17 | 00:00:00 | |
| DL1XH1-15 | 2026-08-31 00:14:34 | 49.16853 | 10.24520 | 325° | 15km/h | 28157m | 6.7m/s | -48.8°C | 3.2% | 16.5hPa | 2.6V | 08:30:00 | 01:56:11 | 00:00:00 | |
| DK7TD | 2026-08-31 00:14:33 | 49.16862 | 10.24503 | 295° | 20km/h | 28174m | 6.3m/s | -48.8°C | 0.1% | 16.5hPa | 2.5V | 18:12:15 | 01:56:14 | 00:00:00 | |
| BIOWL1-15 | 2026-08-31 00:14:32 | 49.16859 | 10.24510 | 306° | 20km/h | 28168m | 5.7m/s | -48.8°C | 0.1% | 16.5hPa | 2.5V | 18:12:15 | 01:56:13 | 00:00:00 | |
| HSKMA3-T | 2026-08-31 00:14:31 | 49.16856 | 10.24516 | 315° | 18km/h | 28163m | 5.4m/s | -48.8°C | 0% | 16.5hPa | 2.5V | 18:12:15 | 01:56:12 | 00:00:00 | |
| DL1XH-west | 2026-08-31 00:14:28 | 49.16841 | 10.24519 | 14° | 13km/h | 28132m | 5.8m/s | -48.7°C | 0% | 16.6hPa | 2.5V | 18:12:15 | 01:56:07 | 00:00:00 | |
| DK7TD | 2026-08-31 00:14:23 | 49.16836 | 10.24518 | 276° | 2km/h | 28114m | 5.8m/s | -48.7°C | 0% | 16.6hPa | 2.6V | 18:12:15 | 01:56:04 | 00:00:00 | |
| DL1NUX | 2026-08-31 00:14:22 | 49.16830 | 10.24549 | 305° | 15km/h | 28077m | 6.1m/s | -48.7°C | 3.2% | 16.7hPa | 2.5V | 08:30:00 | 01:55:58 | 00:00:00 | |
| BIOWL1-15 | 2026-08-31 00:14:21 | 49.16830 | 10.24549 | 305° | 15km/h | 28077m | 6.1m/s | -48.7°C | 0.1% | 16.7hPa | 2.5V | 18:12:15 | 01:55:58 | 00:00:00 | |
| DF8AY | 2026-08-31 00:14:21 | 49.16836 | 10.24524 | 276° | 13km/h | 28102m | 6.8m/s | -48.7°C | 0% | 16.6hPa | 2.5V | 18:12:15 | 01:56:02 | 00:00:00 | |
| HSKMA3-T | 2026-08-31 00:14:21 | 49.16836 | 10.24529 | 285° | 18km/h | 28095m | 6.6m/s | -48.7°C | 0% | 16.7hPa | 2.5V | 18:12:15 | 01:56:01 | 00:00:00 | |
| DM0DOS-11 | 2026-08-31 00:14:19 | 49.16834 | 10.24536 | 292° | 20km/h | 28089m | 5.6m/s | -48.8°C | 3.2% | 16.7hPa | 2.6V | 08:30:00 | 01:56:00 | 00:00:00 | |
| DL1XH-west | 2026-08-31 00:14:16 | 49.16827 | 10.24553 | 330° | 13km/h | 28071m | 5.3m/s | -48.7°C | 0% | 16.7hPa | 2.5V | 18:12:15 | 01:55:57 | 00:00:00 | |
| DL1XH1-15 | 2026-08-31 00:14:15 | 49.16805 | 10.24542 | 43° | 13km/h | 28035m | 5.1m/s | -48.8°C | 3.2% | 16.8hPa | 2.5V | 08:30:00 | 01:55:51 | 00:00:00 | |
| DK7TD | 2026-08-31 00:14:13 | 49.16816 | 10.24552 | 17° | 20km/h | 28053m | 6.2m/s | -48.8°C | 0.1% | 16.8hPa | 2.6V | 18:12:15 | 01:55:54 | 00:00:00 | |
| DF8AY | 2026-08-31 00:14:10 | 49.16805 | 10.24542 | 43° | 13km/h | 28036m | 5.1m/s | -48.8°C | 0% | 16.9hPa | 2.5V | 18:12:15 | 01:55:51 | 00:00:00 | |
| DO3MHA-12 | 2026-08-31 00:14:10 | 49.16805 | 10.24542 | 44° | 11km/h | 28036m | 5.0m/s | -48.7°C | 3.2% | 16.8hPa | 2.5V | 00:00:00 | 01:55:51 | 00:00:00 | |
| DM0DOS-11 | 2026-08-31 00:14:09 | 49.16796 | 10.24545 | 305° | 16km/h | 28012m | 5.7m/s | -48.7°C | 3.2% | 16.9hPa | 2.5V | 08:30:00 | 01:55:47 | 00:00:00 | |
| BIOWL1-15 | 2026-08-31 00:14:09 | 49.16803 | 10.24540 | 30° | 7km/h | 28030m | 4.8m/s | -48.8°C | 0.1% | 16.8hPa | 2.5V | 18:12:15 | 01:55:50 | 00:00:00 | |
| DL1XH-west | 2026-08-31 00:14:06 | 49.16792 | 10.24556 | 301° | 15km/h | 28001m | 6m/s | -48.6°C | 0% | 16.9hPa | 2.5V | 18:12:15 | 01:55:45 | 00:00:00 | |
| DL1XH1-15 | 2026-08-31 00:14:05 | 49.16783 | 10.24559 | 16° | 16km/h | 27979m | 6.8m/s | -48.5°C | 3.2% | 17hPa | 2.5V | 08:30:00 | 01:55:41 | 00:00:00 | |
| DK7TD | 2026-08-31 00:14:02 | 49.16789 | 10.24561 | 349° | 7km/h | 27990m | 5m/s | -48.6°C | 0.1% | 16.9hPa | 2.6V | 18:12:15 | 01:55:43 | 00:00:00 | |
| DJ2DS-15 | 2026-08-31 00:14:02 | 49.16789 | 10.24561 | 350° | 11km/h | 27990m | 5.0m/s | -48.5°C | 3.2% | 16.9hPa | 2.6V | 00:00:00 | 01:55:43 | 00:00:00 | |
| DO3MHA-12 | 2026-08-31 00:14:00 | 49.16783 | 10.24559 | 17° | 13km/h | 27979m | 6.7m/s | -48.5°C | 3.2% | 16.9hPa | 2.6V | 00:00:00 | 01:55:41 | 00:00:00 | |
| DM0DOS-11 | 2026-08-31 00:13:59 | 49.16771 | 10.24553 | 353° | 4km/h | 27955m | 5.7m/s | -48.4°C | 3.2% | 17hPa | 2.6V | 08:30:00 | 01:55:37 | 00:00:00 | |
| HSKMA3-T | 2026-08-31 00:13:59 | 49.16779 | 10.24558 | 19° | 18km/h | 27972m | 5.4m/s | -48.5°C | 0% | 17hPa | 2.5V | 18:12:15 | 01:55:40 | 00:00:00 | |
| BIOWL1-15 | 2026-08-31 00:13:58 | 49.16775 | 10.24555 | 20° | 16km/h | 27968m | 4.9m/s | -48.5°C | 0% | 17hPa | 2.5V | 18:12:15 | 01:55:39 | 00:00:00 | |
| OE5DRO-10 | 2026-08-31 00:13:56 | 49.16771 | 10.24553 | 354° | 9km/h | 27956m | 5.7m/s | -48.4°C | 3.2% | 16.9hPa | 2.6V | 00:00:00 | 00:00:00 | 00:00:00 | |
| DL1XH1-15 | 2026-08-31 00:13:55 | 49.16765 | 10.24575 | 307° | 9km/h | 27923m | 6.2m/s | -48.4°C | 3.1% | 17.1hPa | 2.5V | 08:30:00 | 01:55:31 | 00:00:00 | |
| DL1XH-west | 2026-08-31 00:13:53 | 49.16769 | 10.24562 | 284° | 13km/h | 27939m | 6.1m/s | -48.4°C | 0% | 17.1hPa | 2.5V | 18:12:15 | 01:55:34 | 00:00:00 | |
| DK7TD | 2026-08-31 00:13:51 | 49.16767 | 10.24572 | 302° | 13km/h | 27929m | 4.5m/s | -48.4°C | 0% | 17.1hPa | 2.6V | 18:12:15 | 01:55:32 | 00:00:00 | |
| HSKMA3-T | 2026-08-31 00:13:49 | 49.16764 | 10.24577 | 319° | 5km/h | 27917m | 6.5m/s | -48.4°C | 0% | 17.1hPa | 2.5V | 18:12:15 | 01:55:30 | 00:00:00 | |
| BIOWL1-15 | 2026-08-31 00:13:48 | 49.16763 | 10.24578 | 356° | 4km/h | 27911m | 5.6m/s | -48.4°C | 0% | 17.1hPa | 2.5V | 18:12:15 | 01:55:29 | 00:00:00 | |
| DF3TZ-5 | 2026-08-31 00:13:47 | 49.16761 | 10.24578 | 10° | 5km/h | 27905m | 5.2m/s | -48.4°C | 0.7% | 17.1hPa | 2.5V | 00:00:00 | 00:00:00 | 00:00:00 | |
| EDDB2-12 | 2026-08-31 00:13:46 | 49.16757 | 10.24578 | 353° | 11km/h | 27893m | 5.5m/s | -48.5°C | 0.7% | 17.2hPa | 2.5V | 00:00:00 | 00:00:00 | 00:00:00 | |
| DL1XH1-15 | 2026-08-31 00:13:46 | 49.16751 | 10.24588 | 262° | 11km/h | 27865m | 5.1m/s | -48.6°C | 3.2% | 17.3hPa | 2.6V | 08:30:00 | 01:55:21 | 00:00:00 | |
| DL1XH-west | 2026-08-31 00:13:43 | 49.16752 | 10.24580 | 330° | 9km/h | 27883m | 6.2m/s | -48.6°C | 0% | 17.2hPa | 2.5V | 18:12:15 | 01:55:24 | 00:00:00 | |
| DJ2DS-15 | 2026-08-31 00:13:42 | 49.16751 | 10.24582 | 297° | 11km/h | 27877m | 6.1m/s | -48.5°C | 3.2% | 17.2hPa | 2.6V | 00:00:00 | 01:55:23 | 00:00:00 | |
| DM0DOS-11 | 2026-08-31 00:13:41 | 49.16748 | 10.24609 | 289° | 11km/h | 27843m | 5.9m/s | -48.6°C | 3.2% | 17.4hPa | 2.6V | 08:30:00 | 01:55:17 | 00:00:00 | |
| DK7TD | 2026-08-31 00:13:41 | 49.16751 | 10.24584 | 264° | 7km/h | 27871m | 5.6m/s | -48.6°C | 0% | 17.3hPa | 2.6V | 18:12:15 | 01:55:22 | 00:00:00 | |
| DL1NUX | 2026-08-31 00:13:40 | 49.16751 | 10.24593 | 272° | 15km/h | 27859m | 6.6m/s | -48.6°C | 3.2% | 17.3hPa | 2.5V | 08:30:00 | 01:55:20 | 00:00:00 | |
| HSKMA3-T | 2026-08-31 00:13:38 | 49.16750 | 10.24599 | 283° | 16km/h | 27853m | 5.8m/s | -48.6°C | 0% | 17.3hPa | 2.5V | 18:12:15 | 01:55:19 | 00:00:00 | |
| BIOWL1-15 | 2026-08-31 00:13:38 | 49.16748 | 10.24609 | 290° | 11km/h | 27843m | 5.9m/s | -48.6°C | 0% | 17.4hPa | 2.6V | 18:12:15 | 01:55:17 | 00:00:00 | |
| DF8AY | 2026-08-31 00:13:37 | 49.16749 | 10.24604 | 289° | 15km/h | 27848m | 4.9m/s | -48.6°C | 0% | 17.3hPa | 2.5V | 18:12:15 | 01:55:18 | 00:00:00 | |
| DL1XH-west | 2026-08-31 00:13:33 | 49.16747 | 10.24613 | 74° | 2km/h | 27825m | 5.3m/s | -48.7°C | 0% | 17.4hPa | 2.5V | 18:12:15 | 01:55:14 | 00:00:00 | |
| DK7TD | 2026-08-31 00:13:30 | 49.16745 | 10.24611 | 32° | 4km/h | 27808m | 4.6m/s | -48.7°C | 0% | 17.4hPa | 2.6V | 18:12:15 | 01:55:11 | 00:00:00 | |
| DL1NUX | 2026-08-31 00:13:30 | 49.16745 | 10.24610 | 128° | 2km/h | 27802m | 5.5m/s | -48.7°C | 3.2% | 17.4hPa | 2.6V | 08:30:00 | 01:55:10 | 00:00:00 | |
| DF8AY | 2026-08-31 00:13:27 | 49.16762 | 10.24643 | 247° | 9km/h | 27758m | 5.9m/s | -48.8°C | 0% | 17.6hPa | 2.5V | 18:12:15 | 01:55:02 | 00:00:00 | |
| BIOWL1-15 | 2026-08-31 00:13:27 | 49.16748 | 10.24611 | 199° | 13km/h | 27790m | 5.3m/s | -48.7°C | 0% | 17.4hPa | 2.5V | 18:12:15 | 01:55:08 | 00:00:00 | |
| PG1ADW-2 | 2026-08-31 00:13:26 | 49.16751 | 10.24613 | 217° | 9km/h | 27785m | 5.3m/s | -48.7°C | 3.2% | 17.5hPa | 2.5V | 00:00:00 | 00:00:00 | 08:30:00 | |
| DJ8HS-15 | 2026-08-31 00:13:25 | 49.16754 | 10.24618 | 230° | 9km/h | 27779m | 7.0m/s | -48.6°C | 3.1% | 17.5hPa | 2.6V | 00:00:00 | 01:55:06 | 00:00:00 | |
| DM0DOS-11 | 2026-08-31 00:13:24 | 49.16763 | 10.24645 | 200° | 4km/h | 27751m | 5.9m/s | -48.7°C | 3.2% | 17.5hPa | 2.6V | 08:30:00 | 01:55:01 | 00:00:00 | |
| DL1XH-west | 2026-08-31 00:13:22 | 49.16761 | 10.24638 | 251° | 16km/h | 27763m | 4.8m/s | -48.8°C | 0% | 17.5hPa | 2.5V | 18:12:15 | 01:55:03 | 00:00:00 | |
| DK7TD | 2026-08-31 00:13:19 | 49.16763 | 10.24644 | 108° | 4km/h | 27746m | 5.4m/s | -48.8°C | 0% | 17.6hPa | 2.6V | 18:12:15 | 01:55:00 | 00:00:00 | |
| HSKMA3-T | 2026-08-31 00:13:16 | 49.16761 | 10.24637 | 52° | 9km/h | 27728m | 5.6m/s | -48.8°C | 0% | 17.6hPa | 2.5V | 18:12:15 | 01:54:57 | 00:00:00 | |
| DF8AY | 2026-08-31 00:13:14 | 49.16759 | 10.24631 | 78° | 7km/h | 27716m | 6.2m/s | -48.9°C | 0% | 17.7hPa | 2.5V | 18:12:15 | 01:54:55 | 00:00:00 | |
| DL1XH-west | 2026-08-31 00:13:12 | 49.16760 | 10.24629 | 191° | 4km/h | 27705m | 5.3m/s | -49°C | 0% | 17.7hPa | 2.6V | 18:12:15 | 01:54:53 | 00:00:00 | |
| DK7TD | 2026-08-31 00:13:09 | 49.16762 | 10.24636 | 244° | 11km/h | 27687m | 4.9m/s | -49.1°C | 0.1% | 17.8hPa | 2.5V | 18:12:15 | 01:54:50 | 00:00:00 | |
| HSKMA3-T | 2026-08-31 00:13:05 | 49.16768 | 10.24639 | 111° | 7km/h | 27664m | 6m/s | -49.1°C | 0.1% | 17.8hPa | 2.6V | 18:12:15 | 01:54:46 | 00:00:00 | |
| DB0UT-7 | 2026-08-31 00:13:05 | 49.16768 | 10.24639 | 112° | 13km/h | 27664m | 6.0m/s | -49.1°C | 3.3% | 17.8hPa | 2.6V | 00:00:00 | 00:00:00 | 00:00:00 | |
| DM0DOS-11 | 2026-08-31 00:13:04 | 49.16761 | 10.24619 | 55° | 18km/h | 27634m | 5.9m/s | -49.1°C | 3.3% | 17.9hPa | 2.6V | 08:30:00 | 01:54:41 | 00:00:00 | |
| DF8AY | 2026-08-31 00:13:03 | 49.16767 | 10.24633 | 56° | 11km/h | 27651m | 5.6m/s | -49.2°C | 0.1% | 17.8hPa | 2.5V | 18:12:15 | 01:54:44 | 00:00:00 | |
| DL1XH-west | 2026-08-31 00:13:01 | 49.16763 | 10.24625 | 54° | 16km/h | 27640m | 6.2m/s | -49.1°C | 0.1% | 17.9hPa | 2.6V | 18:12:15 | 01:54:42 | 00:00:00 | |
| DK7TD | 2026-08-31 00:12:58 | 49.16755 | 10.24610 | 34° | 15km/h | 27624m | 5.6m/s | -49.1°C | 0.1% | 17.9hPa | 2.5V | 18:12:15 | 01:54:39 | 00:00:00 | |
| DM0DOS-11 | 2026-08-31 00:12:55 | 49.16743 | 10.24612 | 39° | 11km/h | 27580m | 6m/s | -49.1°C | 3.2% | 18hPa | 2.6V | 08:30:00 | 01:54:31 | 00:00:00 | |
| HSKMA3-T | 2026-08-31 00:12:55 | 49.16746 | 10.24614 | 288° | 7km/h | 27601m | 6.4m/s | -49.1°C | 0.1% | 18hPa | 2.6V | 18:12:15 | 01:54:35 | 00:00:00 | |
| DF8AY | 2026-08-31 00:12:53 | 49.16746 | 10.24616 | 274° | 4km/h | 27595m | 5.8m/s | -49.1°C | 0.1% | 18hPa | 2.5V | 18:12:15 | 01:54:34 | 00:00:00 | |
| DL1XH-west | 2026-08-31 00:12:51 | 49.16745 | 10.24614 | 61° | 7km/h | 27585m | 4.6m/s | -49.1°C | 0% | 18hPa | 2.5V | 18:12:15 | 01:54:32 | 00:00:00 | |
| DK7TD | 2026-08-31 00:12:48 | 49.16737 | 10.24606 | 25° | 22km/h | 27567m | 5.8m/s | -49.1°C | 0.1% | 18hPa | 2.5V | 18:12:15 | 01:54:29 | 00:00:00 | |
| DF3TZ-5 | 2026-08-31 00:12:45 | 49.16722 | 10.24593 | 36° | 20km/h | 27550m | 5.3m/s | -49.1°C | 0.7% | 18.1hPa | 2.6V | 00:00:00 | 00:00:00 | 00:00:00 | |
| HSKMA3-T | 2026-08-31 00:12:44 | 49.16715 | 10.24586 | 25° | 15km/h | 27539m | 6.7m/s | -49.1°C | 0.1% | 18.2hPa | 2.6V | 18:12:15 | 01:54:24 | 00:00:00 | |
| DM0DOS-11 | 2026-08-31 00:12:43 | 49.16708 | 10.24584 | 25° | 4km/h | 27522m | 6.3m/s | -49.1°C | 3.3% | 18.2hPa | 2.5V | 08:30:00 | 01:54:21 | 00:00:00 | |
| DF8AY | 2026-08-31 00:12:42 | 49.16712 | 10.24584 | 8° | 11km/h | 27533m | 5.6m/s | -49.1°C | 0% | 18.2hPa | 2.5V | 18:12:15 | 01:54:23 | 00:00:00 | |
| BIOWL1-15 | 2026-08-31 00:12:41 | 49.16709 | 10.24584 | 2° | 7km/h | 27528m | 5.3m/s | -49.1°C | 0.1% | 18.2hPa | 2.5V | 18:12:15 | 01:54:22 | 00:00:00 | |
| DL1XH-west | 2026-08-31 00:12:40 | 49.16708 | 10.24584 | 26° | 4km/h | 27522m | 6.3m/s | -49.1°C | 0.1% | 18.2hPa | 2.5V | 18:12:15 | 01:54:21 | 00:00:00 | |
| DK7TD | 2026-08-31 00:12:38 | 49.16707 | 10.24580 | 83° | 9km/h | 27510m | 4.9m/s | -49.1°C | 0.1% | 18.3hPa | 2.6V | 18:12:15 | 01:54:19 | 00:00:00 | |
| DB0NH | 2026-08-31 00:12:38 | 49.16707 | 10.24580 | 83° | 20km/h | 27510m | 4.9m/s | -49.1°C | 3.3% | 18.2hPa | 2.5V | 00:00:00 | 01:54:19 | 00:00:00 | |
| DB0UT-7 | 2026-08-31 00:12:35 | 49.16702 | 10.24569 | 31° | 20km/h | 27494m | 5.4m/s | -49.1°C | 3.3% | 18.2hPa | 2.5V | 00:00:00 | 01:54:16 | 00:00:00 | |
| DM0DOS-11 | 2026-08-31 00:12:34 | 49.16679 | 10.24548 | 34° | 22km/h | 27465m | 5.1m/s | -49.1°C | 3.2% | 18.4hPa | 2.5V | 08:30:00 | 01:54:11 | 00:00:00 | |
| HSKMA3-T | 2026-08-31 00:12:33 | 49.16693 | 10.24562 | 27° | 20km/h | 27483m | 6m/s | -49.1°C | 0.1% | 18.3hPa | 2.6V | 18:12:15 | 01:54:14 | 00:00:00 | |
| DF8AY | 2026-08-31 00:12:32 | 49.16689 | 10.24558 | 34° | 22km/h | 27477m | 6.3m/s | -49.1°C | 0.1% | 18.4hPa | 2.5V | 18:12:15 | 01:54:13 | 00:00:00 | |
| BIOWL1-15 | 2026-08-31 00:12:30 | 49.16679 | 10.24548 | 35° | 22km/h | 27465m | 5.1m/s | -49.1°C | 0% | 18.4hPa | 2.5V | 18:12:15 | 01:54:11 | 00:00:00 | |
| DL1NUX | 2026-08-31 00:12:30 | 49.16675 | 10.24544 | 26° | 22km/h | 27459m | 6.3m/s | -49.1°C | 3.3% | 18.4hPa | 2.5V | 08:30:00 | 01:54:10 | 00:00:00 | |
| DK7TD | 2026-08-31 00:12:27 | 49.16664 | 10.24539 | 11° | 20km/h | 27447m | 5.2m/s | -49°C | 0.1% | 18.4hPa | 2.6V | 18:12:15 | 01:54:08 | 00:00:00 | |
| DJ8HS-15 | 2026-08-31 00:12:25 | 49.16656 | 10.24535 | 25° | 20km/h | 27436m | 6.5m/s | -49.0°C | 3.2% | 18.4hPa | 2.5V | 00:00:00 | 01:54:06 | 00:00:00 | |
| DM0DOS-11 | 2026-08-31 00:12:24 | 49.16640 | 10.24525 | 18° | 18km/h | 27406m | 5.6m/s | -49°C | 3.2% | 18.5hPa | 2.5V | 08:30:00 | 01:54:01 | 00:00:00 | |
| DL1NUX | 2026-08-31 00:12:24 | 49.16635 | 10.24522 | 24° | 20km/h | 27400m | 6.7m/s | -49°C | 3.2% | 18.6hPa | 2.5V | 08:30:00 | 01:54:00 | 00:00:00 | |
| HSKMA3-T | 2026-08-31 00:12:23 | 49.16650 | 10.24530 | 29° | 13km/h | 27424m | 5.4m/s | -49°C | 0.1% | 18.5hPa | 2.6V | 18:12:15 | 01:54:04 | 00:00:00 | |
| DF8AY | 2026-08-31 00:12:21 | 49.16644 | 10.24526 | 14° | 16km/h | 27412m | 5.7m/s | -49°C | 0.1% | 18.5hPa | 2.5V | 18:12:15 | 01:54:02 | 00:00:00 | |
| BIOWL1-15 | 2026-08-31 00:12:20 | 49.16640 | 10.24525 | 19° | 18km/h | 27406m | 5.6m/s | -49°C | 0% | 18.5hPa | 2.5V | 18:12:15 | 01:54:01 | 00:00:00 | |
| DL1XH-west | 2026-08-31 00:12:19 | 49.16635 | 10.24522 | 25° | 20km/h | 27400m | 6.7m/s | -49°C | 0% | 18.6hPa | 2.5V | 18:12:15 | 01:54:00 | 00:00:00 | |
| DK7TD | 2026-08-31 00:12:17 | 49.16624 | 10.24514 | 20° | 27km/h | 27389m | 5.2m/s | -49.1°C | 0% | 18.6hPa | 2.6V | 18:12:15 | 01:53:58 | 00:00:00 | |
| OE5DXL-15 | 2026-08-31 00:12:16 | 49.16617 | 10.24511 | 13° | 24km/h | 27383m | 6.9m/s | -49.0°C | 3.2% | 18.6hPa | 2.5V | 00:00:00 | 00:00:00 | 00:00:00 | |
| DM0DOS-11 | 2026-08-31 00:12:15 | 49.16581 | 10.24507 | 352° | 15km/h | 27347m | 6.6m/s | -49.2°C | 3.2% | 18.7hPa | 2.5V | 08:30:00 | 01:53:51 | 00:00:00 | |
| HSKMA3-T | 2026-08-31 00:12:12 | 49.16590 | 10.24508 | 6° | 20km/h | 27358m | 5.8m/s | -49.1°C | 0% | 18.7hPa | 2.6V | 18:12:15 | 01:53:53 | 00:00:00 | |
| EDDB2-12 | 2026-08-31 00:12:12 | 49.16590 | 10.24508 | 5° | 20km/h | 27359m | 5.8m/s | -49.1°C | 0.7% | 18.7hPa | 2.5V | 00:00:00 | 00:00:00 | 00:00:00 | |
| DL1NUX | 2026-08-31 00:12:10 | 49.16578 | 10.24509 | 342° | 16km/h | 27340m | 6.6m/s | -49.1°C | 3.3% | 18.7hPa | 2.5V | 08:30:00 | 01:53:50 | 00:00:00 | |
| BIOWL1-15 | 2026-08-31 00:12:09 | 49.16577 | 10.24509 | 343° | 16km/h | 27340m | 6.6m/s | -49.2°C | 0.1% | 18.7hPa | 2.5V | 18:12:15 | 01:53:50 | 00:00:00 | |
| DL1XH-west | 2026-08-31 00:12:08 | 49.16573 | 10.24510 | 346° | 16km/h | 27334m | 5.1m/s | -49.2°C | 0.1% | 18.7hPa | 2.5V | 18:12:15 | 01:53:49 | 00:00:00 | |
| DK7TD | 2026-08-31 00:12:07 | 49.16569 | 10.24511 | 355° | 16km/h | 27328m | 6.4m/s | -49.2°C | 0.1% | 18.8hPa | 2.5V | 18:12:15 | 01:53:48 | 00:00:00 | |
| DB0UT-7 | 2026-08-31 00:12:05 | 49.16560 | 10.24510 | 11° | 20km/h | 27317m | 4.8m/s | -49.2°C | 3.3% | 18.7hPa | 2.5V | 00:00:00 | 00:00:00 | 00:00:00 | |
| DL1NUX | 2026-08-31 00:12:04 | 49.16520 | 10.24513 | 354° | 26km/h | 27282m | 6.1m/s | -49.3°C | 3.3% | 18.9hPa | 2.5V | 08:30:00 | 01:53:40 | 00:00:00 | |
| EDDB2-11 | 2026-08-31 00:12:03 | 49.16547 | 10.24508 | 359° | 27km/h | 27305m | 6.7m/s | -49.4°C | 0.8% | 18.8hPa | 2.6V | 00:00:00 | 00:00:00 | 00:00:00 | |
| DM0DOS-11 | 2026-08-31 00:12:02 | 49.16526 | 10.24512 | 351° | 27km/h | 27288m | 6.1m/s | -49.3°C | 3.3% | 18.9hPa | 2.6V | 08:30:00 | 01:53:41 | 00:00:00 | |
| HSKMA3-T | 2026-08-31 00:12:02 | 49.16533 | 10.24510 | 350° | 29km/h | 27293m | 5m/s | -49.3°C | 0.1% | 18.9hPa | 2.6V | 18:12:15 | 01:53:42 | 00:00:00 | |
| DF8AY | 2026-08-31 00:12:00 | 49.16526 | 10.24512 | 352° | 27km/h | 27288m | 6.1m/s | -49.3°C | 0.1% | 18.9hPa | 2.6V | 18:12:15 | 01:53:41 | 00:00:00 | |
| BIOWL1-15 | 2026-08-31 00:11:59 | 49.16519 | 10.24513 | 355° | 26km/h | 27282m | 6.1m/s | -49.3°C | 0.1% | 18.9hPa | 2.5V | 18:12:15 | 01:53:40 | 00:00:00 | |
| DK7TD | 2026-08-31 00:11:57 | 49.16502 | 10.24517 | 344° | 24km/h | 27265m | 6.5m/s | -49.2°C | 0.1% | 18.9hPa | 2.6V | 18:12:15 | 01:53:37 | 00:00:00 | |
| HSKMA3-T | 2026-08-31 00:11:51 | 49.16473 | 10.24525 | 355° | 22km/h | 27236m | 5.6m/s | -49.1°C | 0% | 19hPa | 2.5V | 18:12:15 | 01:53:32 | 00:00:00 | |
| DL1XH1-15 | 2026-08-31 00:11:51 | 49.16468 | 10.24527 | 347° | 22km/h | 27229m | 6.9m/s | -49.1°C | 3.2% | 19.1hPa | 2.6V | 08:30:00 | 01:53:31 | 00:00:00 | |
| DF8AY | 2026-08-31 00:11:50 | 49.16468 | 10.24527 | 347° | 22km/h | 27229m | 6.9m/s | -49.1°C | 0.1% | 19.1hPa | 2.6V | 18:12:15 | 01:53:31 | 00:00:00 | |
| DL1NUX | 2026-08-31 00:11:50 | 49.16462 | 10.24529 | 338° | 24km/h | 27223m | 5.6m/s | -49.1°C | 3.2% | 19.1hPa | 2.6V | 08:30:00 | 01:53:30 | 00:00:00 | |
| DK7TD | 2026-08-31 00:11:46 | 49.16449 | 10.24539 | 334° | 15km/h | 27206m | 5.8m/s | -49.1°C | 0% | 19.1hPa | 2.5V | 18:12:15 | 01:53:27 | 00:00:00 | |
| DL1XH-west | 2026-08-31 00:11:45 | 49.16445 | 10.24542 | 333° | 15km/h | 27201m | 4.7m/s | -49.1°C | 0% | 19.1hPa | 2.6V | 18:12:15 | 01:53:26 | 00:00:00 | |
| DJ8HS-15 | 2026-08-31 00:11:45 | 49.16445 | 10.24542 | 333° | 20km/h | 27201m | 4.7m/s | -49.1°C | 3.2% | 19.1hPa | 2.6V | 00:00:00 | 01:53:26 | 00:00:00 | |
| DL1NUX | 2026-08-31 00:11:44 | 49.16419 | 10.24566 | 337° | 16km/h | 27167m | 6m/s | -49.2°C | 3.2% | 19.2hPa | 2.6V | 08:30:00 | 01:53:20 | 00:00:00 | |
| HSKMA3-T | 2026-08-31 00:11:40 | 49.16423 | 10.24563 | 331° | 22km/h | 27173m | 5.8m/s | -49.2°C | 0% | 19.2hPa | 2.5V | 18:12:15 | 01:53:21 | 00:00:00 | |
| DF8AY | 2026-08-31 00:11:39 | 49.16419 | 10.24566 | 338° | 16km/h | 27167m | 6m/s | -49.2°C | 0.1% | 19.2hPa | 2.6V | 18:12:15 | 01:53:20 | 00:00:00 | |
| DK7TD | 2026-08-31 00:11:36 | 49.16407 | 10.24571 | 346° | 18km/h | 27151m | 6.3m/s | -49.3°C | 0.1% | 19.3hPa | 2.5V | 18:12:15 | 01:53:17 | 00:00:00 | |
| DL1XH-west | 2026-08-31 00:11:35 | 49.16403 | 10.24573 | 339° | 18km/h | 27145m | 5.7m/s | -49.3°C | 0.1% | 19.3hPa | 2.5V | 18:12:15 | 01:53:16 | 00:00:00 | |
| BIOWL1-15 | 2026-08-31 00:11:33 | 49.16394 | 10.24593 | 271° | 22km/h | 27120m | 5.6m/s | -49.4°C | 0.1% | 19.3hPa | 2.5V | 18:12:15 | 01:53:12 | 00:00:00 | |
| EDDB2-11 | 2026-08-31 00:11:32 | 49.16395 | 10.24586 | 280° | 15km/h | 27127m | 6.2m/s | -49.4°C | 0.8% | 19.3hPa | 2.5V | 00:00:00 | 00:00:00 | 00:00:00 | |
| DL1XH1-15 | 2026-08-31 00:11:31 | 49.16394 | 10.24602 | 272° | 24km/h | 27114m | 6.7m/s | -49.5°C | 3.3% | 19.4hPa | 2.5V | 08:30:00 | 01:53:11 | 00:00:00 | |
| HSKMA3-T | 2026-08-31 00:11:29 | 49.16393 | 10.24612 | 278° | 27km/h | 27108m | 6m/s | -49.5°C | 0.1% | 19.4hPa | 2.5V | 18:12:15 | 01:53:10 | 00:00:00 | |
| DF8AY | 2026-08-31 00:11:28 | 49.16392 | 10.24622 | 280° | 27km/h | 27103m | 5.1m/s | -49.5°C | 0.1% | 19.4hPa | 2.6V | 18:12:15 | 01:53:09 | 00:00:00 | |
| DK7TD | 2026-08-31 00:11:26 | 49.16390 | 10.24639 | 286° | 18km/h | 27091m | 6.6m/s | -49.5°C | 0% | 19.5hPa | 2.5V | 18:12:15 | 01:53:07 | 00:00:00 | |
| DL1XH-west | 2026-08-31 00:11:24 | 49.16387 | 10.24648 | 319° | 11km/h | 27079m | 5.2m/s | -49.5°C | 0.1% | 19.5hPa | 2.5V | 18:12:15 | 01:53:05 | 00:00:00 | |
| DL1NUX | 2026-08-31 00:11:24 | 49.16370 | 10.24666 | 299° | 18km/h | 27051m | 6.8m/s | -49.7°C | 3.3% | 19.6hPa | 2.5V | 08:30:00 | 01:53:00 | 00:00:00 | |
| NBG1-10 | 2026-08-31 00:11:23 | 49.16384 | 10.24651 | 335° | 22km/h | 27074m | 6.6m/s | -49.5°C | 3.3% | 19.4hPa | 2.5V | 00:00:00 | 01:53:04 | 00:00:00 | |
| DL1XH1-15 | 2026-08-31 00:11:21 | 49.16373 | 10.24661 | 315° | 18km/h | 27057m | 4.9m/s | -49.6°C | 3.3% | 19.5hPa | 2.5V | 08:30:00 | 01:53:01 | 00:00:00 | |
| BIOWL1-15 | 2026-08-31 00:11:20 | 49.16368 | 10.24690 | 267° | 27km/h | 27033m | 6m/s | 0°C | 0% | 19.6hPa | 2.5V | 18:12:15 | 01:52:57 | 00:00:00 | |
| HSKMA3-T | 2026-08-31 00:11:19 | 49.16370 | 10.24666 | 300° | 18km/h | 27051m | 6.8m/s | -49.7°C | 0.1% | 19.6hPa | 2.5V | 18:12:15 | 01:53:00 | 00:00:00 | |
| DF8AY | 2026-08-31 00:11:17 | 49.16368 | 10.24681 | 267° | 24km/h | 27039m | 5.8m/s | -49.8°C | 0.2% | 19.6hPa | 2.6V | 18:12:15 | 01:52:58 | 00:00:00 | |
| DK7TD | 2026-08-31 00:11:16 | 49.16369 | 10.24701 | 270° | 29km/h | 27026m | 6.7m/s | -49.8°C | 0.1% | 19.6hPa | 2.5V | 18:12:15 | 01:52:56 | 00:00:00 | |
| DL1NUX | 2026-08-31 00:11:15 | 49.16364 | 10.24760 | 289° | 18km/h | 26992m | 5.8m/s | -49.9°C | 3.3% | 19.7hPa | 2.6V | 08:30:00 | 01:52:50 | 00:00:00 | |
| DL1XH-west | 2026-08-31 00:11:13 | 49.16367 | 10.24725 | 277° | 29km/h | 27015m | 4.4m/s | -49.8°C | 0.1% | 19.7hPa | 2.5V | 18:12:15 | 01:52:54 | 00:00:00 | |
| HSKMA3-T | 2026-08-31 00:11:09 | 49.16364 | 10.24760 | 290° | 18km/h | 26992m | 5.8m/s | -49.9°C | 0.1% | 19.7hPa | 2.6V | 18:12:15 | 01:52:50 | 00:00:00 | |
| DF8AY | 2026-08-31 00:11:07 | 49.16359 | 10.24773 | 306° | 22km/h | 26980m | 5.7m/s | -49.9°C | 0.1% | 19.8hPa | 2.5V | 18:12:15 | 01:52:48 | 00:00:00 | |
| DK7TD | 2026-08-31 00:11:05 | 49.16353 | 10.24786 | 302° | 20km/h | 26968m | 6.6m/s | -49.9°C | 0.1% | 19.9hPa | 2.5V | 18:12:15 | 01:52:46 | 00:00:00 | |
| DJ8HS-15 | 2026-08-31 00:11:05 | 49.16353 | 10.24786 | 303° | 22km/h | 26969m | 6.6m/s | -49.8°C | 3.4% | 19.8hPa | 2.5V | 00:00:00 | 01:52:46 | 00:00:00 | |
| DM0DOS-11 | 2026-08-31 00:11:04 | 49.16343 | 10.24829 | 279° | 27km/h | 26939m | 5.3m/s | -49.8°C | 3.3% | 19.9hPa | 2.5V | 08:30:00 | 01:52:41 | 00:00:00 | |
| DL1XH-west | 2026-08-31 00:11:02 | 49.16346 | 10.24809 | 291° | 26km/h | 26951m | 7m/s | -49.8°C | 0.1% | 19.9hPa | 2.5V | 18:12:15 | 01:52:43 | 00:00:00 | |
| HSKMA3-T | 2026-08-31 00:10:58 | 49.16342 | 10.24849 | 263° | 26km/h | 26926m | 6.1m/s | -49.8°C | 0.2% | 19.9hPa | 2.6V | 18:12:15 | 01:52:39 | 00:00:00 | |
| DF8AY | 2026-08-31 00:10:56 | 49.16344 | 10.24867 | 262° | 24km/h | 26916m | 5.2m/s | -49.9°C | 0.2% | 20hPa | 2.5V | 18:12:15 | 01:52:37 | 00:00:00 | |
| DN1GJH-1 | 2026-08-31 00:10:55 | 49.16344 | 10.24868 | 263° | 24km/h | 26916m | 5.2m/s | -49.9°C | 0.8% | 20.0hPa | 2.5V | 00:00:00 | 00:00:00 | 00:00:00 | |
| DM0DOS-11 | 2026-08-31 00:10:54 | 49.16337 | 10.24913 | 269° | 15km/h | 26880m | 6.3m/s | -50°C | 3.3% | 20.1hPa | 2.5V | 08:30:00 | 01:52:31 | 00:00:00 | |
| DK7TD | 2026-08-31 00:10:54 | 49.16343 | 10.24884 | 285° | 22km/h | 26903m | 6m/s | -49.9°C | 0.2% | 20hPa | 2.5V | 18:12:15 | 01:52:35 | 00:00:00 | |
| DL1XH-west | 2026-08-31 00:10:52 | 49.16338 | 10.24907 | 286° | 16km/h | 26886m | 6.7m/s | -50°C | 0.1% | 20.1hPa | 2.5V | 18:12:15 | 01:52:32 | 00:00:00 | |
| HSKMA3-T | 2026-08-31 00:10:48 | 49.16339 | 10.24925 | 256° | 18km/h | 26868m | 5.9m/s | -49.9°C | 0.1% | 20.1hPa | 2.6V | 18:12:15 | 01:52:29 | 00:00:00 | |
| DF8AY | 2026-08-31 00:10:46 | 49.16342 | 10.24942 | 253° | 27km/h | 26856m | 5.1m/s | -49.9°C | 0.1% | 20.2hPa | 2.5V | 18:12:15 | 01:52:27 | 00:00:00 | |
| DJ8HS-15 | 2026-08-31 00:10:45 | 49.16344 | 10.24952 | 249° | 26km/h | 26851m | 5.3m/s | -49.8°C | 3.3% | 20.1hPa | 2.5V | 00:00:00 | 01:52:26 | 08:30:00 | |
| DL1NUX | 2026-08-31 00:10:44 | 49.16362 | 10.25006 | 264° | 18km/h | 26814m | 5.5m/s | -50°C | 3.3% | 20.3hPa | 2.5V | 08:30:00 | 01:52:20 | 00:00:00 | |
| DK7TD | 2026-08-31 00:10:43 | 49.16351 | 10.24973 | 237° | 29km/h | 26838m | 6.1m/s | -49.9°C | 0.1% | 20.2hPa | 2.5V | 18:12:15 | 01:52:24 | 00:00:00 | |
| DM0DOS-11 | 2026-08-31 00:10:43 | 49.16360 | 10.24999 | 251° | 22km/h | 26820m | 7m/s | -50°C | 3.3% | 20.3hPa | 2.5V | 08:30:00 | 01:52:21 | 00:00:00 | |
| DL1XH-west | 2026-08-31 00:10:41 | 49.16358 | 10.24990 | 242° | 24km/h | 26826m | 5.4m/s | -49.9°C | 0.1% | 20.3hPa | 2.6V | 18:12:15 | 01:52:22 | 00:00:00 | |
| HSKMA3-T | 2026-08-31 00:10:38 | 49.16362 | 10.25013 | 269° | 16km/h | 26809m | 4.9m/s | -50.1°C | 0.1% | 20.3hPa | 2.5V | 18:12:15 | 01:52:19 | 00:00:00 | |
| DF8AY | 2026-08-31 00:10:35 | 49.16366 | 10.25030 | 228° | 20km/h | 26791m | 5.6m/s | -50.1°C | 0.2% | 20.4hPa | 2.5V | 18:12:15 | 01:52:16 | 00:00:00 | |
| DL1NUX | 2026-08-31 00:10:34 | 49.16394 | 10.25079 | 222° | 33km/h | 26755m | 5.8m/s | -50.6°C | 3.5% | 20.4hPa | 2.5V | 08:30:00 | 01:52:10 | 00:00:00 | |
| DK7TD | 2026-08-31 00:10:33 | 49.16374 | 10.25043 | 232° | 26km/h | 26779m | 6.7m/s | -50.3°C | 0.2% | 20.4hPa | 2.5V | 18:12:15 | 01:52:14 | 00:00:00 | |
| DL1XH-west | 2026-08-31 00:10:30 | 49.16389 | 10.25070 | 226° | 33km/h | 26761m | 7m/s | -50.6°C | 0.2% | 20.5hPa | 2.6V | 18:12:15 | 01:52:11 | 00:00:00 | |
| BIOWL1-15 | 2026-08-31 00:10:30 | 49.16394 | 10.25079 | 222° | 33km/h | 26755m | 5.8m/s | 0°C | 0% | 20.4hPa | 2.5V | 18:12:15 | 01:52:10 | 00:00:00 | |
| HSKMA3-T | 2026-08-31 00:10:28 | 49.16400 | 10.25087 | 223° | 31km/h | 26750m | 4.9m/s | -50.7°C | 0.2% | 20.5hPa | 2.5V | 18:12:15 | 01:52:09 | 00:00:00 | |
| DF8AY | 2026-08-31 00:10:25 | 49.16413 | 10.25111 | 240° | 22km/h | 26732m | 5.6m/s | -50.6°C | 0.2% | 20.6hPa | 2.6V | 18:12:15 | 01:52:06 | 00:00:00 | |
| DK7TD | 2026-08-31 00:10:22 | 49.16423 | 10.25128 | 216° | 20km/h | 26714m | 5m/s | -50.7°C | 0.2% | 20.6hPa | 2.5V | 18:12:15 | 01:52:03 | 00:00:00 | |
| DL1XH-west | 2026-08-31 00:10:20 | 49.16431 | 10.25137 | 221° | 20km/h | 26702m | 6.6m/s | -50.7°C | 0.2% | 20.7hPa | 2.6V | 18:12:15 | 01:52:01 | 00:00:00 | |
| BIOWL1-15 | 2026-08-31 00:10:18 | 49.16468 | 10.25183 | 245° | 24km/h | 26647m | 6.3m/s | 0°C | 0% | 20.8hPa | 2.6V | 18:12:15 | 01:51:51 | 00:00:00 | |
| HSKMA3-T | 2026-08-31 00:10:17 | 49.16445 | 10.25153 | 208° | 24km/h | 26685m | 6.6m/s | -50.7°C | 0.2% | 20.7hPa | 2.5V | 18:12:15 | 01:51:58 | 00:00:00 | |
| DF8AY | 2026-08-31 00:10:15 | 49.16459 | 10.25161 | 203° | 16km/h | 26668m | 5.6m/s | -50.6°C | 0.2% | 20.8hPa | 2.6V | 18:12:15 | 01:51:55 | 00:00:00 | |
| DL1NUX | 2026-08-31 00:10:14 | 49.16471 | 10.25191 | 238° | 22km/h | 26640m | 6.2m/s | -50.6°C | 3.5% | 20.9hPa | 2.6V | 08:30:00 | 01:51:50 | 00:00:00 | |
| DK7TD | 2026-08-31 00:10:11 | 49.16466 | 10.25176 | 248° | 20km/h | 26652m | 5.5m/s | -50.6°C | 0.3% | 20.8hPa | 2.5V | 18:12:15 | 01:51:52 | 00:00:00 | |
| BIOWL1-15 | 2026-08-31 00:10:10 | 49.16484 | 10.25213 | 234° | 9km/h | 26612m | 5m/s | 0°C | 0% | 20.9hPa | 2.6V | 18:12:15 | 01:51:45 | 00:00:00 | |
| DL1XH-west | 2026-08-31 00:10:10 | 49.16471 | 10.25191 | 239° | 22km/h | 26640m | 6.2m/s | -50.6°C | 0.2% | 20.9hPa | 2.6V | 18:12:15 | 01:51:50 | 00:00:00 | |
| HSKMA3-T | 2026-08-31 00:10:07 | 49.16477 | 10.25203 | 222° | 18km/h | 26629m | 5.6m/s | -50.5°C | 0.2% | 20.9hPa | 2.5V | 18:12:15 | 01:51:48 | 00:00:00 | |
| S52SK | 2026-08-31 00:10:06 | 49.16477 | 10.25203 | 223° | 18km/h | 26629m | 5.6m/s | 0°C | 0% | 0hPa | 2.6V | 00:00:00 | 00:00:00 | 00:00:00 | |
| DJ8HS-15 | 2026-08-31 00:10:05 | 49.16482 | 10.25210 | 226° | 7km/h | 26618m | 5.6m/s | -50.5°C | 3.4% | 20.9hPa | 2.6V | 00:00:00 | 01:51:46 | 00:00:00 | |
| DL1NUX | 2026-08-31 00:10:04 | 49.16495 | 10.25227 | 222° | 13km/h | 26585m | 5.7m/s | -50.4°C | 3.4% | 21hPa | 2.6V | 08:30:00 | 01:51:40 | 00:00:00 | |
| DF8AY | 2026-08-31 00:10:03 | 49.16486 | 10.25216 | 230° | 9km/h | 26608m | 4.9m/s | -50.5°C | 0.2% | 21hPa | 2.6V | 18:12:15 | 01:51:44 | 00:00:00 | |
| DM0DOS-11 | 2026-08-31 00:10:02 | 49.16492 | 10.25224 | 213° | 13km/h | 26590m | 5.1m/s | -50.4°C | 3.4% | 21hPa | 2.5V | 08:30:00 | 01:51:41 | 00:00:00 | |
| DK7TD | 2026-08-31 00:10:01 | 49.16490 | 10.25221 | 212° | 13km/h | 26596m | 5.9m/s | -50.4°C | 0.2% | 21hPa | 2.5V | 18:12:15 | 01:51:42 | 00:00:00 | |
| DL1XH-west | 2026-08-31 00:09:59 | 49.16497 | 10.25230 | 241° | 11km/h | 26579m | 6.5m/s | -50.4°C | 0.2% | 21.1hPa | 2.6V | 18:12:15 | 01:51:39 | 00:00:00 | |
| HSKMA3-T | 2026-08-31 00:09:56 | 49.16498 | 10.25237 | 265° | 7km/h | 26567m | 5.1m/s | -50.4°C | 0.2% | 21.1hPa | 2.5V | 18:12:15 | 01:51:37 | 00:00:00 | |
| BIOWL1-15 | 2026-08-31 00:09:55 | 49.16499 | 10.25240 | 202° | 4km/h | 26555m | 5.6m/s | 0°C | 0% | 21.1hPa | 2.5V | 18:12:15 | 01:51:35 | 00:00:00 | |
| DL1NUX | 2026-08-31 00:09:54 | 49.16500 | 10.25242 | 196° | 2km/h | 26526m | 6.6m/s | -50.5°C | 3.4% | 21.2hPa | 2.5V | 08:30:00 | 01:51:30 | 00:00:00 | |
| SONCRA | 2026-08-31 00:09:54 | 49.16500 | 10.25240 | 185° | 2km/h | 26550m | 4.8m/s | -50.4°C | 0.8% | 21.1hPa | 2.5V | 00:00:00 | 00:00:00 | 00:00:00 | |
| OE5WHR-10 | 2026-08-31 00:09:53 | 49.16499 | 10.25240 | 186° | 7km/h | 26551m | 4.7m/s | -50.4°C | 3.4% | 21.1hPa | 2.5V | 00:00:00 | 01:51:34 | 00:00:00 | |
| DM0DOS-11 | 2026-08-31 00:09:52 | 49.16500 | 10.25241 | 273° | 2km/h | 26532m | 5.3m/s | -50.5°C | 3.5% | 21.2hPa | 2.5V | 08:30:00 | 01:51:31 | 00:00:00 | |
| DF8AY | 2026-08-31 00:09:52 | 49.16500 | 10.25241 | 206° | 2km/h | 26544m | 6.7m/s | -50.4°C | 0.2% | 21.2hPa | 2.6V | 18:12:15 | 01:51:33 | 00:00:00 | |
| DK7TD | 2026-08-31 00:09:50 | 49.16500 | 10.25241 | 273° | 2km/h | 26532m | 5.3m/s | -50.5°C | 0.2% | 21.2hPa | 2.5V | 18:12:15 | 01:51:31 | 00:00:00 | |
| DL1XH-west | 2026-08-31 00:09:49 | 49.16501 | 10.25242 | 202° | 4km/h | 26520m | 5.3m/s | -50.5°C | 0.2% | 21.3hPa | 2.6V | 18:12:15 | 01:51:29 | 00:00:00 | |
| HSKMA3-T | 2026-08-31 00:09:46 | 49.16502 | 10.25245 | 265° | 7km/h | 26510m | 6.5m/s | -50.5°C | 0.1% | 21.3hPa | 2.5V | 18:12:15 | 01:51:27 | 00:00:00 | |
| DJ8HS-15 | 2026-08-31 00:09:45 | 49.16502 | 10.25249 | 283° | 9km/h | 26504m | 6.3m/s | -50.4°C | 3.4% | 21.2hPa | 2.5V | 00:00:00 | 01:51:26 | 00:00:00 | |
| DL1NUX | 2026-08-31 00:09:44 | 49.16499 | 10.25273 | 304° | 5km/h | 26470m | 6m/s | -50.6°C | 3.5% | 21.4hPa | 2.5V | 08:30:00 | 01:51:20 | 00:00:00 | |
| BIOWL1-15 | 2026-08-31 00:09:43 | 49.16498 | 10.25274 | 334° | 7km/h | 26464m | 6.6m/s | 0°C | 0% | 21.4hPa | 2.5V | 18:12:15 | 01:51:19 | 00:00:00 | |
| DF8AY | 2026-08-31 00:09:42 | 49.16500 | 10.25264 | 274° | 13km/h | 26487m | 6.5m/s | -50.6°C | 0.2% | 21.3hPa | 2.6V | 18:12:15 | 01:51:23 | 00:00:00 | |
| DK7TD | 2026-08-31 00:09:40 | 49.16500 | 10.25271 | 271° | 5km/h | 26476m | 4.9m/s | -50.6°C | 0.2% | 21.4hPa | 2.5V | 18:12:15 | 01:51:21 | 00:00:00 | |
| DL1XH-west | 2026-08-31 00:09:38 | 49.16496 | 10.25275 | 347° | 11km/h | 26458m | 5.1m/s | -50.7°C | 0.3% | 21.4hPa | 2.6V | 18:12:15 | 01:51:18 | 00:00:00 | |
| HSKMA3-T | 2026-08-31 00:09:36 | 49.16491 | 10.25276 | 2° | 9km/h | 26447m | 6.6m/s | -50.7°C | 0.2% | 21.5hPa | 2.5V | 18:12:15 | 01:51:16 | 00:00:00 | |
| DL6DJ-15 | 2026-08-31 00:09:35 | 49.16489 | 10.25276 | 7° | 5km/h | 26441m | 5.7m/s | -50.7°C | 0.9% | 21.5hPa | 2.5V | 00:00:00 | 00:00:00 | 00:00:00 | |
| DL1NUX | 2026-08-31 00:09:34 | 49.16481 | 10.25285 | 310° | 11km/h | 26412m | 6.5m/s | -50.7°C | 3.5% | 21.6hPa | 2.5V | 08:30:00 | 01:51:10 | 00:00:00 | |
| DF8AY | 2026-08-31 00:09:32 | 49.16484 | 10.25279 | 319° | 11km/h | 26423m | 6.1m/s | -50.7°C | 0.2% | 21.6hPa | 2.6V | 18:12:15 | 01:51:12 | 00:00:00 | |
| BIOWL1-15 | 2026-08-31 00:09:30 | 49.16479 | 10.25288 | 309° | 9km/h | 26406m | 5.6m/s | 0°C | 0% | 21.6hPa | 2.5V | 18:12:15 | 01:51:09 | 00:00:00 | |
| DK7TD | 2026-08-31 00:09:29 | 49.16481 | 10.25285 | 310° | 11km/h | 26412m | 6.5m/s | -50.7°C | 0.2% | 21.6hPa | 2.5V | 18:12:15 | 01:51:10 | 00:00:00 | |
| DL1XH-west | 2026-08-31 00:09:28 | 49.16478 | 10.25291 | 307° | 11km/h | 26401m | 4.4m/s | -50.7°C | 0.2% | 21.6hPa | 2.5V | 18:12:15 | 01:51:08 | 00:00:00 | |
| HSKMA3-T | 2026-08-31 00:09:24 | 49.16471 | 10.25304 | 307° | 18km/h | 26383m | 5m/s | -50.6°C | 0.2% | 21.7hPa | 2.5V | 18:12:15 | 01:51:05 | 00:00:00 | |
| DL1NUX | 2026-08-31 00:09:24 | 49.16459 | 10.25325 | 318° | 18km/h | 26355m | 6m/s | -50.6°C | 3.5% | 21.8hPa | 2.5V | 08:30:00 | 01:51:00 | 00:00:00 | |
| BIOWL1-15 | 2026-08-31 00:09:20 | 49.16462 | 10.25321 | 317° | 15km/h | 26361m | 6.5m/s | 0°C | 0% | 21.8hPa | 2.6V | 18:12:15 | 01:51:01 | 00:00:00 | |
| DK7TD | 2026-08-31 00:09:18 | 49.16455 | 10.25330 | 319° | 18km/h | 26349m | 5.4m/s | -50.6°C | 0.2% | 21.8hPa | 2.5V | 18:12:15 | 01:50:59 | 00:00:00 | |
| DL1XH-west | 2026-08-31 00:09:17 | 49.16449 | 10.25337 | 319° | 13km/h | 26337m | 6.1m/s | -50.6°C | 0.2% | 21.9hPa | 2.5V | 18:12:15 | 01:50:57 | 00:00:00 | |
| HSKMA3-T | 2026-08-31 00:09:14 | 49.16445 | 10.25344 | 303° | 13km/h | 26327m | 5.5m/s | -50.6°C | 0.1% | 21.9hPa | 2.6V | 18:12:15 | 01:50:55 | 00:00:00 | |
| BIOWL1-15 | 2026-08-31 00:09:11 | 49.16440 | 10.25373 | 273° | 24km/h | 26303m | 5.7m/s | 0°C | 0% | 21.9hPa | 2.6V | 18:12:15 | 01:50:51 | 00:00:00 | |
| DL1XH1-15 | 2026-08-31 00:09:11 | 49.16440 | 10.25373 | 272° | 24km/h | 26303m | 5.7m/s | -50.6°C | 3.5% | 21.9hPa | 2.6V | 08:30:00 | 01:50:51 | 00:00:00 | |
| DK7TD | 2026-08-31 00:09:08 | 49.16439 | 10.25392 | 279° | 26km/h | 26293m | 5.6m/s | -50.6°C | 0.2% | 22hPa | 2.5V | 18:12:15 | 01:50:49 | 00:00:00 | |
| DL1XH-west | 2026-08-31 00:09:07 | 49.16435 | 10.25410 | 301° | 24km/h | 26281m | 5.5m/s | -50.6°C | 0.2% | 22hPa | 2.5V | 18:12:15 | 01:50:47 | 00:00:00 | |
| HSKMA3-T | 2026-08-31 00:09:05 | 49.16428 | 10.25422 | 325° | 18km/h | 26268m | 6.3m/s | -50.6°C | 0.2% | 22.1hPa | 2.6V | 18:12:15 | 01:50:45 | 00:00:00 | |
| DK7TD | 2026-08-31 00:08:57 | 49.16397 | 10.25451 | 305° | 18km/h | 26230m | 6m/s | -50.7°C | 0.2% | 22.2hPa | 2.5V | 18:12:15 | 01:50:38 | 00:00:00 | |
| DL1XH-west | 2026-08-31 00:08:56 | 49.16395 | 10.25457 | 299° | 18km/h | 26225m | 5.2m/s | -50.6°C | 0.2% | 22.2hPa | 2.5V | 18:12:15 | 01:50:37 | 00:00:00 | |
| DF8AY | 2026-08-31 00:08:55 | 49.16393 | 10.25463 | 299° | 20km/h | 26220m | 4.8m/s | -50.7°C | 0.2% | 22.2hPa | 2.5V | 18:12:15 | 01:50:36 | 00:00:00 | |
| HSKMA3-T | 2026-08-31 00:08:53 | 49.16387 | 10.25478 | 304° | 26km/h | 26209m | 5.2m/s | -50.7°C | 0.2% | 22.3hPa | 2.6V | 18:12:15 | 01:50:34 | 00:00:00 | |
| DK7TD | 2026-08-31 00:08:47 | 49.16370 | 10.25516 | 304° | 16km/h | 26173m | 5.8m/s | -50.7°C | 0.2% | 22.4hPa | 2.6V | 18:12:15 | 01:50:28 | 00:00:00 | |
| DL1XH-west | 2026-08-31 00:08:45 | 49.16365 | 10.25532 | 281° | 13km/h | 26155m | 5.9m/s | -50.8°C | 0.2% | 22.4hPa | 2.5V | 18:12:15 | 01:50:25 | 00:00:00 | |
| DF8AY | 2026-08-31 00:08:45 | 49.16357 | 10.25570 | 291° | 20km/h | 26121m | 5.3m/s | -50.9°C | 0.2% | 22.6hPa | 2.5V | 18:12:15 | 01:50:19 | 00:00:00 | |
| BIOWL1-15 | 2026-08-31 00:08:43 | 49.16365 | 10.25537 | 279° | 15km/h | 26150m | 4.3m/s | 0°C | 0% | 22.4hPa | 2.5V | 18:12:15 | 01:50:24 | 00:00:00 | |
| HSKMA3-T | 2026-08-31 00:08:42 | 49.16364 | 10.25543 | 284° | 16km/h | 26145m | 6.4m/s | -50.8°C | 0.2% | 22.5hPa | 2.6V | 18:12:15 | 01:50:23 | 00:00:00 | |
| DG9SBQ-11 | 2026-08-31 00:08:41 | 49.16364 | 10.25543 | 285° | 16km/h | 26145m | 6.4m/s | -50.8°C | 0.8% | 22.5hPa | 2.5V | 00:00:00 | 00:00:00 | 00:00:00 | |
| DJ2DS-15 | 2026-08-31 00:08:40 | 49.16361 | 10.25556 | 293° | 20km/h | 26134m | 4.7m/s | 0°C | 0% | 0hPa | 2.5V | 00:00:00 | 01:50:21 | 00:00:00 | |
| DL1NUX | 2026-08-31 00:08:38 | 49.16347 | 10.25600 | 299° | 22km/h | 26100m | 4.4m/s | -50.8°C | 3.5% | 22.6hPa | 2.5V | 08:30:00 | 01:50:15 | 00:00:00 | |
| DK7TD | 2026-08-31 00:08:37 | 49.16355 | 10.25577 | 296° | 22km/h | 26116m | 4.9m/s | -50.8°C | 0.2% | 22.6hPa | 2.6V | 18:12:15 | 01:50:18 | 00:00:00 | |
| DF3TZ-5 | 2026-08-31 00:08:36 | 49.16353 | 10.25585 | 300° | 22km/h | 26111m | 6.5m/s | -50.8°C | 0.8% | 22.6hPa | 2.6V | 00:00:00 | 00:00:00 | 00:00:00 | |
| DL1XH1-15 | 2026-08-31 00:08:35 | 49.16342 | 10.25625 | 275° | 16km/h | 26077m | 6m/s | -50.7°C | 3.5% | 22.7hPa | 2.6V | 08:30:00 | 01:50:11 | 00:00:00 | |
| DL1XH-west | 2026-08-31 00:08:34 | 49.16347 | 10.25600 | 300° | 22km/h | 26100m | 4.4m/s | -50.8°C | 0.2% | 22.7hPa | 2.5V | 18:12:15 | 01:50:15 | 00:00:00 | |
| DF8AY | 2026-08-31 00:08:33 | 49.16344 | 10.25607 | 293° | 18km/h | 26095m | 6.5m/s | -50.8°C | 0.2% | 22.7hPa | 2.5V | 18:12:15 | 01:50:14 | 00:00:00 | |
| DM0DOS-11 | 2026-08-31 00:08:32 | 49.16342 | 10.25632 | 278° | 18km/h | 26072m | 5.5m/s | -50.7°C | 3.5% | 22.8hPa | 2.5V | 08:30:00 | 01:50:10 | 00:00:00 | |
| HSKMA3-T | 2026-08-31 00:08:32 | 49.16343 | 10.25613 | 280° | 15km/h | 26089m | 5.6m/s | -50.8°C | 0.2% | 22.7hPa | 2.5V | 18:12:15 | 01:50:13 | 00:00:00 | |
| BIOWL1-15 | 2026-08-31 00:08:29 | 49.16342 | 10.25631 | 279° | 18km/h | 26072m | 5.5m/s | 0°C | 0% | 0hPa | 2.5V | 18:12:15 | 01:50:10 | 00:00:00 | |
| DL1NUX | 2026-08-31 00:08:28 | 49.16340 | 10.25673 | 274° | 22km/h | 26045m | 5m/s | -50.9°C | 3.5% | 22.8hPa | 2.5V | 08:30:00 | 01:50:05 | 00:00:00 | |
| DK7TD | 2026-08-31 00:08:26 | 49.16340 | 10.25656 | 271° | 22km/h | 26056m | 6.4m/s | -50.8°C | 0.2% | 22.8hPa | 2.6V | 18:12:15 | 01:50:07 | 00:00:00 | |
| DL1XH1-15 | 2026-08-31 00:08:25 | 49.16334 | 10.25705 | 281° | 20km/h | 26024m | 6.3m/s | -51°C | 3.5% | 22.9hPa | 2.6V | 08:30:00 | 01:50:01 | 00:00:00 | |
| DL1XH-west | 2026-08-31 00:08:24 | 49.16340 | 10.25673 | 275° | 22km/h | 26045m | 5m/s | -50.9°C | 0.2% | 22.8hPa | 2.5V | 18:12:15 | 01:50:05 | 00:00:00 | |
| DF8AY | 2026-08-31 00:08:23 | 49.16339 | 10.25682 | 284° | 22km/h | 26039m | 6.3m/s | -50.9°C | 0.2% | 22.9hPa | 2.5V | 18:12:15 | 01:50:04 | 00:00:00 | |
| DM0DOS-11 | 2026-08-31 00:08:22 | 49.16333 | 10.25713 | 267° | 18km/h | 26018m | 5.9m/s | -51°C | 3.5% | 23hPa | 2.6V | 08:30:00 | 01:50:00 | 00:00:00 | |
| HSKMA3-T | 2026-08-31 00:08:22 | 49.16337 | 10.25690 | 291° | 22km/h | 26033m | 4.7m/s | -50.9°C | 0.2% | 22.9hPa | 2.5V | 18:12:15 | 01:50:03 | 00:00:00 | |
| SONCRA | 2026-08-31 00:08:21 | 49.16334 | 10.25705 | 281° | 18km/h | 26024m | 6.4m/s | -51.0°C | 0.9% | 22.9hPa | 2.6V | 00:00:00 | 00:00:00 | 00:00:00 | |
| DJ2DS-15 | 2026-08-31 00:08:20 | 49.16334 | 10.25705 | 282° | 20km/h | 26024m | 6.3m/s | 0°C | 0% | 0hPa | 2.6V | 00:00:00 | 01:50:01 | 08:30:00 | |
| SO1NDE-10 | 2026-08-31 00:08:19 | 49.16334 | 10.25712 | 268° | 20km/h | 26018m | 5.8m/s | -51.0°C | 3.5% | 22.9hPa | 2.6V | 00:00:00 | 01:50:00 | 00:00:00 | |
| DL1NUX | 2026-08-31 00:08:18 | 49.16336 | 10.25751 | 269° | 22km/h | 25990m | 4.4m/s | -51.1°C | 3.5% | 23hPa | 2.6V | 08:30:00 | 01:49:55 | 00:00:00 | |
| DK7TD | 2026-08-31 00:08:16 | 49.16335 | 10.25734 | 267° | 20km/h | 26001m | 6.3m/s | -51°C | 0.3% | 23hPa | 2.5V | 18:12:15 | 01:49:57 | 00:00:00 | |
| DF7PN | 2026-08-31 00:08:14 | 49.16335 | 10.25751 | 269° | 22km/h | 25991m | 4.4m/s | -51.1°C | 0.8% | 23.0hPa | 2.5V | 00:00:00 | 00:00:00 | 00:00:00 | |
| DM0DOS-11 | 2026-08-31 00:08:13 | 49.16339 | 10.25790 | 273° | 18km/h | 25962m | 5.7m/s | -51.2°C | 3.5% | 23.1hPa | 2.5V | 08:30:00 | 01:49:50 | 00:00:00 | |
| DF8AY | 2026-08-31 00:08:13 | 49.16337 | 10.25768 | 258° | 22km/h | 25979m | 6m/s | -51.1°C | 0.3% | 23.1hPa | 2.5V | 18:12:15 | 01:49:53 | 00:00:00 | |
| BIOWL1-15 | 2026-08-31 00:08:11 | 49.16338 | 10.25776 | 258° | 20km/h | 25974m | 5m/s | 0°C | 0% | 0hPa | 2.5V | 18:12:15 | 01:49:52 | 00:00:00 | |
| DF8AY-15 | 2026-08-31 00:08:10 | 49.16338 | 10.25783 | 263° | 20km/h | 25968m | 6.3m/s | -51.2°C | 3.6% | 23.1hPa | 2.5V | 00:00:00 | 01:49:51 | 00:00:00 | |
| DL1NUX | 2026-08-31 00:08:08 | 49.16340 | 10.25823 | 257° | 20km/h | 25935m | 5.3m/s | -51.3°C | 3.6% | 23.2hPa | 2.5V | 08:30:00 | 01:49:45 | 00:00:00 | |
| DK7TD | 2026-08-31 00:08:05 | 49.16339 | 10.25815 | 254° | 18km/h | 25940m | 5.1m/s | -51.3°C | 0.3% | 23.2hPa | 2.5V | 18:12:15 | 01:49:46 | 00:00:00 | |
| DJ8HS-15 | 2026-08-31 00:08:05 | 49.16339 | 10.25815 | 254° | 20km/h | 25941m | 5.1m/s | -51.2°C | 3.6% | 23.2hPa | 2.5V | 00:00:00 | 01:49:46 | 00:00:00 | |
| EDDB2-12 | 2026-08-31 00:08:04 | 49.16341 | 10.25831 | 265° | 22km/h | 25929m | 6.6m/s | -51.3°C | 0.9% | 23.3hPa | 2.5V | 00:00:00 | 00:00:00 | 00:00:00 | |
| DM0DOS-11 | 2026-08-31 00:08:02 | 49.16341 | 10.25870 | 269° | 22km/h | 25906m | 5m/s | -51.2°C | 3.5% | 23.4hPa | 2.5V | 08:30:00 | 01:49:40 | 00:00:00 | |
| DL1XH-west | 2026-08-31 00:08:02 | 49.16341 | 10.25841 | 271° | 26km/h | 25923m | 5.5m/s | -51.2°C | 0.3% | 23.3hPa | 2.5V | 18:12:15 | 01:49:43 | 00:00:00 | |
| HSKMA3-T | 2026-08-31 00:08:01 | 49.16341 | 10.25851 | 273° | 26km/h | 25918m | 4.8m/s | -51.2°C | 0.2% | 23.3hPa | 2.6V | 18:12:15 | 01:49:42 | 00:00:00 | |
| BIOWL1-15 | 2026-08-31 00:08:00 | 49.16341 | 10.25870 | 270° | 22km/h | 25906m | 5.1m/s | 0°C | 0% | 0hPa | 2.5V | 18:12:15 | 01:49:40 | 00:00:00 | |
| DJ2DS-15 | 2026-08-31 00:08:00 | 49.16341 | 10.25860 | 271° | 18km/h | 25913m | 6.3m/s | 0°C | 0% | 0hPa | 2.5V | 00:00:00 | 01:49:41 | 00:00:00 | |
| DL1NUX | 2026-08-31 00:07:58 | 49.16336 | 10.25908 | 275° | 20km/h | 25879m | 6.2m/s | -51.1°C | 3.5% | 23.5hPa | 2.5V | 08:30:00 | 01:49:35 | 00:00:00 | |
| DK7TD | 2026-08-31 00:07:54 | 49.16336 | 10.25908 | 276° | 20km/h | 25879m | 6.3m/s | -51.1°C | 0.2% | 23.5hPa | 2.5V | 18:12:15 | 01:49:35 | 00:00:00 | |
| DC4HF-4 | 2026-08-31 00:07:53 | 49.16336 | 10.25915 | 264° | 18km/h | 25874m | 5.2m/s | -51.1°C | 0.8% | 23.5hPa | 2.6V | 00:00:00 | 00:00:00 | 00:00:00 | |
| DM0DOS-11 | 2026-08-31 00:07:52 | 49.16338 | 10.25945 | 270° | 18km/h | 25852m | 5.5m/s | -51.2°C | 3.5% | 23.6hPa | 2.6V | 08:30:00 | 01:49:30 | 00:00:00 | |
| HSKMA3-T | 2026-08-31 00:07:51 | 49.16338 | 10.25930 | 264° | 20km/h | 25864m | 5.9m/s | -51.1°C | 0.2% | 23.5hPa | 2.5V | 18:12:15 | 01:49:32 | 00:00:00 | |
| SONCRA | 2026-08-31 00:07:50 | 49.16338 | 10.25945 | 270° | 18km/h | 25852m | 5.5m/s | -51.2°C | 0.9% | 23.6hPa | 2.6V | 00:00:00 | 00:00:00 | 00:00:00 | |
| SO1NDE-10 | 2026-08-31 00:07:49 | 49.16338 | 10.25945 | 271° | 15km/h | 25853m | 5.5m/s | -51.1°C | 3.5% | 23.5hPa | 2.6V | 00:00:00 | 01:49:30 | 00:00:00 | |
| DN1GJH-1 | 2026-08-31 00:07:48 | 49.16338 | 10.25945 | 272° | 18km/h | 25853m | 5.5m/s | -51.2°C | 0.9% | 23.6hPa | 2.5V | 00:00:00 | 00:00:00 | 00:00:00 | |
| OE5DXL-15 | 2026-08-31 00:07:47 | 49.16338 | 10.25958 | 262° | 15km/h | 25840m | 5.9m/s | -51.2°C | 3.5% | 23.5hPa | 2.5V | 00:00:00 | 00:00:00 | 00:00:00 | |
| DL1XH1-15 | 2026-08-31 00:07:46 | 49.16335 | 10.25996 | 269° | 16km/h | 25802m | 6.1m/s | -51.4°C | 3.6% | 23.8hPa | 2.5V | 08:30:00 | 01:49:21 | 00:00:00 | |
| BIOWL1-15 | 2026-08-31 00:07:45 | 49.16340 | 10.25969 | 266° | 13km/h | 25831m | 4.4m/s | 0°C | 0% | 0hPa | 2.6V | 18:12:15 | 01:49:26 | 00:00:00 | |
| DL1NUX | 2026-08-31 00:07:45 | 49.16339 | 10.25974 | 283° | 13km/h | 25825m | 6.3m/s | -51.3°C | 3.6% | 23.7hPa | 2.6V | 08:30:00 | 01:49:25 | 00:00:00 | |
| DK7TD | 2026-08-31 00:07:45 | 49.16340 | 10.25974 | 283° | 13km/h | 25825m | 6.3m/s | -51.3°C | 0.2% | 23.7hPa | 2.6V | 18:12:15 | 01:49:25 | 00:00:00 | |
| DF8AY | 2026-08-31 00:07:41 | 49.16335 | 10.25990 | 284° | 16km/h | 25809m | 6.4m/s | -51.4°C | 0.3% | 23.7hPa | 2.5V | 18:12:15 | 01:49:22 | 00:00:00 | |
| HSKMA3-T | 2026-08-31 00:07:40 | 49.16335 | 10.25996 | 270° | 16km/h | 25802m | 6.1m/s | -51.4°C | 0.3% | 23.8hPa | 2.5V | 18:12:15 | 01:49:21 | 00:00:00 | |
| DJ2DS-15 | 2026-08-31 00:07:40 | 49.16335 | 10.25996 | 270° | 15km/h | 25803m | 6.1m/s | 0°C | 0% | 0hPa | 2.5V | 00:00:00 | 01:49:21 | 00:00:00 | |
| DB0NH | 2026-08-31 00:07:38 | 49.16336 | 10.26010 | 261° | 15km/h | 25791m | 6.1m/s | -51.4°C | 3.6% | 23.7hPa | 2.5V | 00:00:00 | 01:49:19 | 00:00:00 | |
| DG9SBQ-11 | 2026-08-31 00:07:37 | 49.16336 | 10.26010 | 262° | 18km/h | 25791m | 6.2m/s | -51.4°C | 0.9% | 23.8hPa | 2.5V | 00:00:00 | 00:00:00 | 00:00:00 | |
| S52SK | 2026-08-31 00:07:36 | 49.16337 | 10.26016 | 260° | 16km/h | 25786m | 5.1m/s | 0°C | 0% | 0hPa | 2.5V | 00:00:00 | 00:00:00 | 00:00:00 | |
| DL1XH1-15 | 2026-08-31 00:07:35 | 49.16340 | 10.26046 | 292° | 7km/h | 25746m | 6.4m/s | -51.4°C | 3.6% | 23.9hPa | 2.5V | 08:30:00 | 01:49:11 | 00:00:00 | |
| DK7TD | 2026-08-31 00:07:34 | 49.16340 | 10.26032 | 245° | 11km/h | 25768m | 4.4m/s | -51.4°C | 0.3% | 23.8hPa | 2.6V | 18:12:15 | 01:49:15 | 00:00:00 | |
| EDDB2-12 | 2026-08-31 00:07:33 | 49.16341 | 10.26039 | 280° | 9km/h | 25757m | 6.2m/s | -51.4°C | 0.8% | 23.9hPa | 2.5V | 00:00:00 | 00:00:00 | 00:00:00 | |
| DM0DOS-11 | 2026-08-31 00:07:32 | 49.16339 | 10.26049 | 280° | 7km/h | 25741m | 5.3m/s | -51.4°C | 3.6% | 24hPa | 2.5V | 08:30:00 | 01:49:10 | 00:00:00 | |
| DL1XH-west | 2026-08-31 00:07:31 | 49.16341 | 10.26043 | 293° | 9km/h | 25752m | 4.5m/s | -51.4°C | 0.3% | 23.9hPa | 2.5V | 18:12:15 | 01:49:12 | 00:00:00 | |
| HSKMA3-T | 2026-08-31 00:07:30 | 49.16340 | 10.26046 | 293° | 7km/h | 25746m | 6.4m/s | -51.4°C | 0.2% | 23.9hPa | 2.5V | 18:12:15 | 01:49:11 | 00:00:00 | |
| DF8AY-15 | 2026-08-31 00:07:30 | 49.16340 | 10.26046 | 293° | 15km/h | 25747m | 6.3m/s | -51.4°C | 3.6% | 23.9hPa | 2.5V | 00:00:00 | 01:49:11 | 00:00:00 | |
| DL1NUX | 2026-08-31 00:07:28 | 49.16341 | 10.26073 | 239° | 18km/h | 25713m | 6.6m/s | -51.5°C | 3.6% | 24.1hPa | 2.5V | 08:30:00 | 01:49:05 | 00:00:00 | |
| DB0UT-7 | 2026-08-31 00:07:28 | 49.16339 | 10.26052 | 273° | 15km/h | 25736m | 4.6m/s | -51.4°C | 3.6% | 23.9hPa | 2.5V | 00:00:00 | 01:49:09 | 00:00:00 | |
| DN1GJH-1 | 2026-08-31 00:07:27 | 49.16339 | 10.26052 | 274° | 9km/h | 25736m | 4.7m/s | -51.4°C | 0.9% | 24.0hPa | 2.5V | 00:00:00 | 00:00:00 | 00:00:00 | |
| DL1XH1-15 | 2026-08-31 00:07:25 | 49.16353 | 10.26095 | 240° | 18km/h | 25691m | 5.6m/s | -51.6°C | 3.6% | 24.1hPa | 2.5V | 08:30:00 | 01:49:01 | 00:00:00 | |
| DK7TD | 2026-08-31 00:07:24 | 49.16344 | 10.26078 | 228° | 18km/h | 25707m | 5.1m/s | -51.5°C | 0.3% | 24.1hPa | 2.6V | 18:12:15 | 01:49:04 | 00:00:00 | |
| DM0DOS-11 | 2026-08-31 00:07:22 | 49.16355 | 10.26101 | 245° | 16km/h | 25685m | 5.7m/s | -51.6°C | 3.6% | 24.1hPa | 2.5V | 08:30:00 | 01:49:00 | 00:00:00 | |
| DL1XH-west | 2026-08-31 00:07:20 | 49.16353 | 10.26095 | 241° | 18km/h | 25691m | 5.6m/s | -51.6°C | 0.3% | 24.1hPa | 2.5V | 18:12:15 | 01:49:01 | 00:00:00 | |
| HSKMA3-T | 2026-08-31 00:07:19 | 49.16355 | 10.26101 | 245° | 16km/h | 25685m | 5.7m/s | -51.6°C | 0.3% | 24.2hPa | 2.5V | 18:12:15 | 01:49:00 | 00:00:00 | |
| BIOWL1-15 | 2026-08-31 00:07:18 | 49.16357 | 10.26106 | 244° | 15km/h | 25679m | 6.3m/s | 0°C | 0% | 0hPa | 2.5V | 18:12:15 | 01:48:59 | 00:00:00 | |
| OE5DXL-15 | 2026-08-31 00:07:17 | 49.16358 | 10.26111 | 239° | 15km/h | 25673m | 5.4m/s | -51.5°C | 3.6% | 24.2hPa | 2.5V | 00:00:00 | 00:00:00 | 00:00:00 | |
| DL1XH1-15 | 2026-08-31 00:07:15 | 49.16368 | 10.26147 | 223° | 18km/h | 25636m | 5.4m/s | -51.5°C | 3.6% | 24.4hPa | 2.5V | 08:30:00 | 01:48:51 | 00:00:00 | |
| DK7TD | 2026-08-31 00:07:12 | 49.16364 | 10.26137 | 253° | 16km/h | 25647m | 4.7m/s | -51.5°C | 0.2% | 24.3hPa | 2.6V | 18:12:15 | 01:48:53 | 00:00:00 | |
| DL1XH-west | 2026-08-31 00:07:10 | 49.16369 | 10.26147 | 223° | 18km/h | 25636m | 5.4m/s | -51.5°C | 0.3% | 24.4hPa | 2.5V | 18:12:15 | 01:48:51 | 00:00:00 | |
| HSKMA3-T | 2026-08-31 00:07:09 | 49.16372 | 10.26152 | 218° | 18km/h | 25630m | 5m/s | -51.6°C | 0.3% | 24.4hPa | 2.5V | 18:12:15 | 01:48:50 | 00:00:00 | |
| DB0NH | 2026-08-31 00:07:08 | 49.16376 | 10.26156 | 217° | 15km/h | 25625m | 6.5m/s | -51.5°C | 3.6% | 24.4hPa | 2.5V | 00:00:00 | 01:48:49 | 00:00:00 | |
| DN1GJH-1 | 2026-08-31 00:07:07 | 49.16376 | 10.26156 | 218° | 18km/h | 25625m | 6.5m/s | -51.5°C | 0.9% | 24.4hPa | 2.6V | 00:00:00 | 00:00:00 | 00:00:00 | |
| DL1XH1-15 | 2026-08-31 00:07:05 | 49.16395 | 10.26186 | 268° | 15km/h | 25581m | 5.2m/s | -51.5°C | 3.6% | 24.6hPa | 2.6V | 08:30:00 | 01:48:41 | 00:00:00 | |
| DJ8HS-15 | 2026-08-31 00:07:05 | 49.16386 | 10.26167 | 211° | 15km/h | 25609m | 6.1m/s | -51.5°C | 3.6% | 24.4hPa | 2.5V | 00:00:00 | 01:48:46 | 00:00:00 | |
| DF3TZ-5 | 2026-08-31 00:07:03 | 49.16392 | 10.26173 | 221° | 11km/h | 25599m | 4.0m/s | -51.6°C | 0.9% | 24.5hPa | 2.5V | 00:00:00 | 00:00:00 | 00:00:00 | |
| DM0DOS-11 | 2026-08-31 00:07:02 | 49.16396 | 10.26197 | 245° | 15km/h | 25570m | 6.2m/s | -51.5°C | 3.6% | 24.6hPa | 2.5V | 08:30:00 | 01:48:39 | 00:00:00 | |
| DK7TD | 2026-08-31 00:07:01 | 49.16394 | 10.26181 | 262° | 13km/h | 25587m | 6.1m/s | -51.5°C | 0.2% | 24.5hPa | 2.6V | 18:12:15 | 01:48:42 | 00:00:00 | |
| DL1XH-west | 2026-08-31 00:06:59 | 49.16395 | 10.26192 | 262° | 15km/h | 25576m | 5.7m/s | -51.5°C | 0.3% | 24.6hPa | 2.5V | 18:12:15 | 01:48:40 | 00:00:00 | |
| HSKMA3-T | 2026-08-31 00:06:58 | 49.16396 | 10.26197 | 245° | 15km/h | 25570m | 6.2m/s | -51.5°C | 0.3% | 24.6hPa | 2.5V | 18:12:15 | 01:48:39 | 00:00:00 | |
| DL1NUX | 2026-08-31 00:06:58 | 49.16408 | 10.26217 | 224° | 18km/h | 25549m | 5.4m/s | -51.6°C | 3.6% | 24.7hPa | 2.6V | 08:30:00 | 01:48:35 | 00:00:00 | |
| DB0UT-7 | 2026-08-31 00:06:58 | 49.16396 | 10.26197 | 246° | 11km/h | 25570m | 6.2m/s | -51.4°C | 3.6% | 24.6hPa | 2.5V | 00:00:00 | 00:00:00 | 00:00:00 | |
| DG9SBQ-11 | 2026-08-31 00:06:57 | 49.16396 | 10.26197 | 246° | 15km/h | 25570m | 6.2m/s | -51.5°C | 0.9% | 24.6hPa | 2.6V | 00:00:00 | 00:00:00 | 00:00:00 | |
| DL1XH1-15 | 2026-08-31 00:06:55 | 49.16421 | 10.26230 | 210° | 11km/h | 25528m | 4.3m/s | -51.8°C | 3.6% | 24.8hPa | 2.6V | 08:30:00 | 01:48:31 | 00:00:00 | |
| EDDB2-11 | 2026-08-31 00:06:53 | 49.16415 | 10.26225 | 212° | 15km/h | 25539m | 6.1m/s | -51.7°C | 0.9% | 24.7hPa | 2.5V | 00:00:00 | 00:00:00 | 00:00:00 | |
| DM0DOS-11 | 2026-08-31 00:06:52 | 49.16424 | 10.26236 | 264° | 11km/h | 25517m | 6.3m/s | -51.8°C | 3.6% | 24.8hPa | 2.5V | 08:30:00 | 01:48:29 | 00:00:00 | |
| BIOWL1-15 | 2026-08-31 00:06:52 | 49.16415 | 10.26225 | 212° | 15km/h | 25539m | 6.1m/s | 0°C | 0% | 0hPa | 2.5V | 18:12:15 | 01:48:33 | 00:00:00 | |
| DK7TD | 2026-08-31 00:06:51 | 49.16418 | 10.26227 | 205° | 15km/h | 25533m | 5.7m/s | -51.7°C | 0.3% | 24.8hPa | 2.5V | 18:12:15 | 01:48:32 | 00:00:00 | |
| DF8AY-15 | 2026-08-31 00:06:50 | 49.16421 | 10.26230 | 211° | 15km/h | 25528m | 4.3m/s | -51.7°C | 3.6% | 24.7hPa | 2.6V | 00:00:00 | 01:48:31 | 00:00:00 | |
| SO1NDE-10 | 2026-08-31 00:06:49 | 49.16423 | 10.26232 | 235° | 13km/h | 25524m | 5.2m/s | -51.7°C | 3.6% | 24.7hPa | 2.6V | 00:00:00 | 01:48:30 | 00:00:00 | |
| DL1NUX | 2026-08-31 00:06:48 | 49.16423 | 10.26264 | 259° | 18km/h | 25497m | 5.5m/s | -51.8°C | 3.7% | 24.9hPa | 2.6V | 08:30:00 | 01:48:25 | 00:00:00 | |
| HSKMA3-T | 2026-08-31 00:06:48 | 49.16424 | 10.26236 | 265° | 13km/h | 25518m | 6.3m/s | -51.8°C | 0.3% | 24.8hPa | 2.5V | 18:12:15 | 01:48:29 | 00:00:00 | |
| SONCRA | 2026-08-31 00:06:48 | 49.16424 | 10.26242 | 276° | 16km/h | 25512m | 5.1m/s | -51.8°C | 0.9% | 24.8hPa | 2.5V | 00:00:00 | 00:00:00 | 00:00:00 | |
| OE5DXL-15 | 2026-08-31 00:06:47 | 49.16424 | 10.26242 | 277° | 13km/h | 25512m | 5.0m/s | -51.7°C | 3.6% | 24.8hPa | 2.5V | 00:00:00 | 00:00:00 | 08:30:00 | |
| DN1GJH-1 | 2026-08-31 00:06:46 | 49.16424 | 10.26242 | 277° | 18km/h | 25512m | 5.1m/s | -51.8°C | 0.9% | 24.8hPa | 2.5V | 00:00:00 | 00:00:00 | 00:00:00 | |
| DL1XH1-15 | 2026-08-31 00:06:45 | 49.16430 | 10.26283 | 241° | 11km/h | 25476m | 5.3m/s | -51.9°C | 3.6% | 25hPa | 2.5V | 08:30:00 | 01:48:21 | 00:00:00 | |
| DM0DOS-11 | 2026-08-31 00:06:42 | 49.16433 | 10.26292 | 229° | 15km/h | 25465m | 6.1m/s | -52°C | 3.7% | 25hPa | 2.6V | 08:30:00 | 01:48:19 | 00:00:00 | |
| DK7TD | 2026-08-31 00:06:40 | 49.16430 | 10.26283 | 241° | 11km/h | 25476m | 5.3m/s | -51.9°C | 0.3% | 25hPa | 2.5V | 18:12:15 | 01:48:21 | 00:00:00 | |
| DF8AY | 2026-08-31 00:06:38 | 49.16439 | 10.26302 | 236° | 18km/h | 25455m | 4.2m/s | -52°C | 0.3% | 25.1hPa | 2.5V | 18:12:15 | 01:48:17 | 00:00:00 | |
| DL1NUX | 2026-08-31 00:06:38 | 49.16442 | 10.26315 | 258° | 18km/h | 25443m | 5.5m/s | -52°C | 3.7% | 25.1hPa | 2.5V | 08:30:00 | 01:48:15 | 00:00:00 | |
| HSKMA3-T | 2026-08-31 00:06:37 | 49.16436 | 10.26296 | 228° | 18km/h | 25460m | 5.6m/s | -52°C | 0.3% | 25hPa | 2.5V | 18:12:15 | 01:48:18 | 00:00:00 | |
| OE5WHR-10 | 2026-08-31 00:06:37 | 49.16436 | 10.26296 | 229° | 9km/h | 25460m | 5.5m/s | -51.9°C | 3.6% | 25.0hPa | 2.6V | 00:00:00 | 01:48:18 | 00:00:00 | |
| DG9SBQ-11 | 2026-08-31 00:06:34 | 49.16441 | 10.26308 | 246° | 18km/h | 25450m | 6.6m/s | -52.0°C | 0.9% | 25.1hPa | 2.6V | 00:00:00 | 00:00:00 | 00:00:00 | |
| DM0DOS-11 | 2026-08-31 00:06:32 | 49.16448 | 10.26334 | 207° | 5km/h | 25412m | 5.5m/s | -52.1°C | 3.7% | 25.2hPa | 2.6V | 08:30:00 | 01:48:09 | 00:00:00 | |
| DK7TD | 2026-08-31 00:06:29 | 49.16447 | 10.26333 | 202° | 7km/h | 25417m | 4.4m/s | -52.1°C | 0.4% | 25.2hPa | 2.5V | 18:12:15 | 01:48:10 | 00:00:00 | |
| DL1XH-west | 2026-08-31 00:06:27 | 49.16449 | 10.26336 | 240° | 5km/h | 25407m | 5.5m/s | -52.1°C | 0.3% | 25.2hPa | 2.6V | 18:12:15 | 01:48:08 | 00:00:00 | |
| DF8AY | 2026-08-31 00:06:26 | 49.16451 | 10.26343 | 253° | 13km/h | 25397m | 5.1m/s | -52.1°C | 0.3% | 25.3hPa | 2.5V | 18:12:15 | 01:48:06 | 00:00:00 | |
| NBG1-10 | 2026-08-31 00:06:26 | 49.16450 | 10.26338 | 257° | 7km/h | 25402m | 4.7m/s | -52.1°C | 3.6% | 25.2hPa | 2.5V | 00:00:00 | 01:48:07 | 00:00:00 | |
| DL1XH1-15 | 2026-08-31 00:06:25 | 49.16458 | 10.26367 | 268° | 11km/h | 25369m | 5.6m/s | -52.2°C | 3.7% | 25.4hPa | 2.5V | 08:30:00 | 01:48:01 | 00:00:00 | |
| BIOWL1-15 | 2026-08-31 00:06:23 | 49.16454 | 10.26353 | 238° | 16km/h | 25385m | 5.4m/s | 0°C | 0% | 0hPa | 2.6V | 18:12:15 | 01:48:04 | 00:00:00 | |
| DM0DOS-11 | 2026-08-31 00:06:22 | 49.16457 | 10.26372 | 292° | 4km/h | 25358m | 5.4m/s | -52.3°C | 3.7% | 25.4hPa | 2.5V | 08:30:00 | 01:47:59 | 00:00:00 | |
| DK7TD | 2026-08-31 00:06:19 | 49.16458 | 10.26370 | 285° | 7km/h | 25364m | 4.6m/s | -52.3°C | 0.3% | 25.4hPa | 2.5V | 18:12:15 | 01:48:00 | 00:00:00 | |
| HSKMA3-T | 2026-08-31 00:06:17 | 49.16457 | 10.26373 | 215° | 2km/h | 25353m | 6.2m/s | -52.3°C | 0.3% | 25.4hPa | 2.6V | 18:12:15 | 01:47:58 | 00:00:00 | |
| DL1XH-west | 2026-08-31 00:06:17 | 49.16458 | 10.26373 | 151° | 4km/h | 25347m | 5.5m/s | -52.4°C | 0.3% | 25.5hPa | 2.6V | 18:12:15 | 01:47:57 | 00:00:00 | |
| DF8AY | 2026-08-31 00:06:14 | 49.16459 | 10.26370 | 106° | 4km/h | 25337m | 6.3m/s | -52.4°C | 0.3% | 25.5hPa | 2.5V | 18:12:15 | 01:47:55 | 00:00:00 | |
| DB0UT-7 | 2026-08-31 00:06:13 | 49.16459 | 10.26369 | 65° | 5km/h | 25331m | 5.7m/s | -52.4°C | 3.7% | 25.5hPa | 2.5V | 00:00:00 | 01:47:54 | 00:00:00 | |
| DM0DOS-11 | 2026-08-31 00:06:12 | 49.16460 | 10.26379 | 266° | 11km/h | 25302m | 6.5m/s | -52.5°C | 3.7% | 25.6hPa | 2.5V | 08:30:00 | 01:47:49 | 00:00:00 | |
| DK7TD | 2026-08-31 00:06:08 | 49.16459 | 10.26379 | 267° | 11km/h | 25302m | 6.5m/s | -52.5°C | 0.3% | 25.6hPa | 2.5V | 18:12:15 | 01:47:49 | 00:00:00 | |
| DL1NUX | 2026-08-31 00:06:08 | 49.16460 | 10.26392 | 239° | 7km/h | 25280m | 5.2m/s | -52.6°C | 3.7% | 25.7hPa | 2.6V | 08:30:00 | 01:47:45 | 00:00:00 | |
| BIOWL1-15 | 2026-08-31 00:06:07 | 49.16460 | 10.26389 | 255° | 7km/h | 25285m | 6.5m/s | 0°C | 0% | 0hPa | 2.6V | 18:12:15 | 01:47:46 | 00:00:00 | |
| DL1XH-west | 2026-08-31 00:06:06 | 49.16459 | 10.26386 | 270° | 9km/h | 25291m | 4.7m/s | -52.5°C | 0.3% | 25.7hPa | 2.5V | 18:12:15 | 01:47:47 | 00:00:00 | |
| DL1XH1-15 | 2026-08-31 00:06:05 | 49.16460 | 10.26398 | 340° | 5km/h | 25257m | 4.8m/s | -52.7°C | 3.7% | 25.8hPa | 2.5V | 08:30:00 | 01:47:41 | 00:00:00 | |
| DK7TD | 2026-08-31 00:05:58 | 49.16458 | 10.26399 | 280° | 4km/h | 25245m | 5.7m/s | -52.7°C | 0.3% | 25.9hPa | 2.6V | 18:12:15 | 01:47:39 | 00:00:00 | |
| HSKMA3-T | 2026-08-31 00:05:56 | 49.16458 | 10.26402 | 279° | 4km/h | 25234m | 5.7m/s | -52.7°C | 0.4% | 25.9hPa | 2.5V | 18:12:15 | 01:47:37 | 00:00:00 | |
| BIOWL1-15 | 2026-08-31 00:05:56 | 49.16457 | 10.26406 | 304° | 7km/h | 25223m | 5.1m/s | 0°C | 0% | 0hPa | 2.5V | 18:12:15 | 01:47:35 | 00:00:00 | |
| DL1XH-west | 2026-08-31 00:05:56 | 49.16457 | 10.26404 | 303° | 5km/h | 25228m | 6.2m/s | -52.8°C | 0.3% | 25.9hPa | 2.5V | 18:12:15 | 01:47:36 | 00:00:00 | |
| DF8AY | 2026-08-31 00:05:49 | 49.16452 | 10.26421 | 322° | 11km/h | 25194m | 5.9m/s | -52.9°C | 0.4% | 26hPa | 2.5V | 18:12:15 | 01:47:30 | 00:00:00 | |
| SO1NDE-10 | 2026-08-31 00:05:49 | 49.16452 | 10.26421 | 323° | 15km/h | 25194m | 5.9m/s | -52.8°C | 3.8% | 26.0hPa | 2.6V | 00:00:00 | 01:47:30 | 00:00:00 | |
| DL1NUX | 2026-08-31 00:05:48 | 49.16446 | 10.26428 | 295° | 4km/h | 25167m | 4.5m/s | -53°C | 3.8% | 26.2hPa | 2.6V | 08:30:00 | 01:47:25 | 00:00:00 | |
| DK7TD | 2026-08-31 00:05:47 | 49.16448 | 10.26425 | 333° | 7km/h | 25183m | 5.8m/s | -52.9°C | 0.4% | 26.1hPa | 2.5V | 18:12:15 | 01:47:28 | 00:00:00 | |
| DL1XH-west | 2026-08-31 00:05:45 | 49.16446 | 10.26427 | 298° | 4km/h | 25171m | 4.7m/s | -53°C | 0.4% | 26.2hPa | 2.6V | 18:12:15 | 01:47:26 | 00:00:00 | |
| BIOWL1-15 | 2026-08-31 00:05:45 | 49.16444 | 10.26430 | 336° | 7km/h | 25155m | 5.8m/s | 0°C | 0% | 0hPa | 2.5V | 18:12:15 | 01:47:23 | 00:00:00 | |
| DJ8HS-15 | 2026-08-31 00:05:45 | 49.16446 | 10.26427 | 299° | 15km/h | 25172m | 4.7m/s | -53.0°C | 3.8% | 26.1hPa | 2.6V | 00:00:00 | 01:47:26 | 00:00:00 | |
| HEMX73-11 | 2026-08-31 00:05:44 | 49.16446 | 10.26427 | 299° | 4km/h | 25172m | 4.7m/s | -53.0°C | 0.9% | 26.2hPa | 2.5V | 00:00:00 | 00:00:00 | 00:00:00 | |
| DN1GJH-1 | 2026-08-31 00:05:43 | 49.16445 | 10.26428 | 297° | 4km/h | 25167m | 4.5m/s | -53.0°C | 1.0% | 26.2hPa | 2.5V | 00:00:00 | 00:00:00 | 00:00:00 | |
| DB0UT-7 | 2026-08-31 00:05:42 | 49.16444 | 10.26430 | 336° | 15km/h | 25156m | 5.7m/s | -53.0°C | 3.8% | 26.2hPa | 2.5V | 00:00:00 | 00:00:00 | 00:00:00 | |
| DO3MHA-12 | 2026-08-31 00:05:40 | 49.16440 | 10.26434 | 310° | 18km/h | 25144m | 5.9m/s | -53.0°C | 3.8% | 26.2hPa | 2.5V | 00:00:00 | 01:47:21 | 08:30:00 | |
| DM0DOS-11 | 2026-08-31 00:05:39 | 49.16438 | 10.26444 | 282° | 16km/h | 25133m | 5m/s | -53.1°C | 3.9% | 26.3hPa | 2.6V | 08:30:00 | 01:47:19 | 00:00:00 | |
| DF8AY | 2026-08-31 00:05:39 | 49.16438 | 10.26444 | 282° | 16km/h | 25133m | 5m/s | -53.1°C | 0.4% | 26.3hPa | 2.6V | 18:12:15 | 01:47:19 | 00:00:00 | |
| DK7TD | 2026-08-31 00:05:36 | 49.16435 | 10.26458 | 292° | 22km/h | 25121m | 6.2m/s | -53.1°C | 0.5% | 26.4hPa | 2.5V | 18:12:15 | 01:47:17 | 00:00:00 | |
| DL1XH1-15 | 2026-08-31 00:05:35 | 49.16426 | 10.26502 | 293° | 15km/h | 25088m | 6.4m/s | -53.2°C | 3.9% | 26.5hPa | 2.5V | 08:30:00 | 01:47:11 | 00:00:00 | |
| DL1XH-west | 2026-08-31 00:05:34 | 49.16431 | 10.26474 | 291° | 22km/h | 25110m | 5.4m/s | -53.1°C | 0.4% | 26.4hPa | 2.6V | 18:12:15 | 01:47:15 | 00:00:00 | |
| DM0DOS-11 | 2026-08-31 00:05:33 | 49.16423 | 10.26510 | 302° | 13km/h | 25077m | 4.8m/s | -53.2°C | 3.9% | 26.6hPa | 2.5V | 08:30:00 | 01:47:09 | 00:00:00 | |
| BIOWL1-15 | 2026-08-31 00:05:33 | 49.16428 | 10.26490 | 281° | 20km/h | 25099m | 4.7m/s | 0°C | 0% | 0hPa | 2.5V | 18:12:15 | 01:47:13 | 00:00:00 | |
| DG9SBQ-11 | 2026-08-31 00:05:32 | 49.16429 | 10.26482 | 286° | 22km/h | 25105m | 6.3m/s | -53.1°C | 1.0% | 26.5hPa | 2.5V | 00:00:00 | 00:00:00 | 00:00:00 | |
| OE5WHR-10 | 2026-08-31 00:05:30 | 49.16426 | 10.26502 | 294° | 13km/h | 25088m | 6.4m/s | -53.1°C | 3.9% | 26.5hPa | 2.5V | 00:00:00 | 01:47:11 | 00:00:00 | |
| DF8AY-15 | 2026-08-31 00:05:29 | 49.16424 | 10.26506 | 307° | 13km/h | 25082m | 5.3m/s | -53.2°C | 3.9% | 26.5hPa | 2.5V | 00:00:00 | 01:47:10 | 00:00:00 | |
| DL1NUX | 2026-08-31 00:05:28 | 49.16419 | 10.26533 | 280° | 18km/h | 25054m | 6.1m/s | -53.2°C | 3.9% | 26.6hPa | 2.5V | 08:30:00 | 01:47:05 | 00:00:00 | |
| DK7TD | 2026-08-31 00:05:26 | 49.16420 | 10.26520 | 280° | 15km/h | 25065m | 5.6m/s | -53.3°C | 0.4% | 26.6hPa | 2.6V | 18:12:15 | 01:47:07 | 00:00:00 | |
| HSKMA3-T | 2026-08-31 00:05:24 | 49.16419 | 10.26533 | 280° | 18km/h | 25054m | 6.1m/s | -53.2°C | 0.5% | 26.7hPa | 2.5V | 18:12:15 | 01:47:05 | 00:00:00 | |
| DL1XH-west | 2026-08-31 00:05:24 | 49.16418 | 10.26540 | 283° | 18km/h | 25048m | 5.4m/s | -53.2°C | 0.4% | 26.7hPa | 2.5V | 18:12:15 | 01:47:04 | 00:00:00 | |
| BIOWL1-15 | 2026-08-31 00:05:21 | 49.16416 | 10.26579 | 269° | 15km/h | 25021m | 6.6m/s | 0°C | 0% | 0hPa | 2.5V | 18:12:15 | 01:46:59 | 00:00:00 | |
| DO3MHA-12 | 2026-08-31 00:05:20 | 49.16416 | 10.26564 | 271° | 9km/h | 25032m | 5.0m/s | -53.3°C | 3.9% | 26.7hPa | 2.6V | 00:00:00 | 01:47:01 | 00:00:00 | |
| SO1NDE-10 | 2026-08-31 00:05:19 | 49.16416 | 10.26572 | 270° | 11km/h | 25027m | 4.7m/s | -53.3°C | 3.9% | 26.7hPa | 2.6V | 00:00:00 | 01:47:00 | 00:00:00 | |
| DL1NUX | 2026-08-31 00:05:18 | 49.16420 | 10.26584 | 176° | 7km/h | 24997m | 5.2m/s | -53.2°C | 3.9% | 26.9hPa | 2.6V | 08:30:00 | 01:46:55 | 00:00:00 | |
| DF8AY | 2026-08-31 00:05:17 | 49.16427 | 10.26615 | 176° | 4km/h | 24935m | 6.1m/s | -53.2°C | 0.4% | 27.1hPa | 2.6V | 18:12:15 | 01:46:44 | 00:00:00 | |
| DK7TD | 2026-08-31 00:05:15 | 49.16418 | 10.26584 | 182° | 7km/h | 25003m | 6.4m/s | -53.3°C | 0.5% | 26.9hPa | 2.6V | 18:12:15 | 01:46:56 | 00:00:00 | |
| HSKMA3-T | 2026-08-31 00:05:13 | 49.16430 | 10.26614 | 167° | 7km/h | 24924m | 5.1m/s | -53.3°C | 0.5% | 27.2hPa | 2.5V | 18:12:15 | 01:46:42 | 00:00:00 | |
| DB0UT-7 | 2026-08-31 00:05:12 | 49.16424 | 10.26584 | 176° | 9km/h | 24986m | 6.2m/s | -53.1°C | 3.9% | 26.9hPa | 2.5V | 00:00:00 | 01:46:53 | 08:30:00 | |
| DL1NUX | 2026-08-31 00:05:11 | 49.16426 | 10.26614 | 258° | 2km/h | 24941m | 5m/s | -53.1°C | 3.9% | 27.1hPa | 2.6V | 08:30:00 | 01:46:45 | 00:00:00 | |
| DK7TD | 2026-08-31 00:05:11 | 49.16427 | 10.26614 | 259° | 2km/h | 24941m | 5m/s | -53.2°C | 0.5% | 27.1hPa | 2.6V | 18:12:15 | 01:46:45 | 00:00:00 | |
| DF8AY | 2026-08-31 00:05:10 | 49.16428 | 10.26614 | 169° | 5km/h | 24929m | 6m/s | -53.2°C | 0.4% | 27.2hPa | 2.5V | 18:12:15 | 01:46:43 | 00:00:00 | |
| DO3MHA-12 | 2026-08-31 00:05:10 | 49.16425 | 10.26586 | 260° | 9km/h | 24976m | 5.4m/s | -53.1°C | 3.9% | 26.9hPa | 2.5V | 00:00:00 | 01:46:51 | 00:00:00 | |
| OE5WHR-10 | 2026-08-31 00:05:09 | 49.16425 | 10.26591 | 261° | 13km/h | 24969m | 6.8m/s | -53.1°C | 3.9% | 27.0hPa | 2.6V | 00:00:00 | 00:00:00 | 08:30:00 | |
| DB0NH | 2026-08-31 00:05:08 | 49.16426 | 10.26597 | 263° | 11km/h | 24963m | 5.3m/s | -53.0°C | 3.9% | 27.0hPa | 2.5V | 00:00:00 | 01:46:49 | 00:00:00 | |
| S52SK | 2026-08-31 00:05:07 | 49.16426 | 10.26612 | 278° | 7km/h | 24947m | 5.4m/s | 0°C | 0% | 0hPa | 2.5V | 00:00:00 | 00:00:00 | 00:00:00 | |
| DL1XH-west | 2026-08-31 00:05:07 | 49.16432 | 10.26613 | 163° | 5km/h | 24919m | 5.5m/s | -53.2°C | 0.4% | 27.2hPa | 2.5V | 18:12:15 | 01:46:41 | 00:00:00 | |
| HEMX73-11 | 2026-08-31 00:05:04 | 49.16426 | 10.26612 | 278° | 7km/h | 24947m | 5.4m/s | -53.1°C | 1.0% | 27.1hPa | 2.5V | 00:00:00 | 00:00:00 | 00:00:00 | |
| DG9SBQ-11 | 2026-08-31 00:05:03 | 49.16426 | 10.26614 | 260° | 2km/h | 24941m | 5.0m/s | -53.2°C | 1.0% | 27.1hPa | 2.5V | 00:00:00 | 00:00:00 | 00:00:00 | |
| DN1GJH-1 | 2026-08-31 00:05:01 | 49.16428 | 10.26614 | 170° | 5km/h | 24930m | 6.0m/s | -53.2°C | 1.0% | 27.2hPa | 2.5V | 00:00:00 | 00:00:00 | 00:00:00 | |
| DF3TZ-5 | 2026-08-31 00:04:59 | 49.16433 | 10.26613 | 178° | 2km/h | 24913m | 6.3m/s | -53.2°C | 0.9% | 27.3hPa | 2.5V | 00:00:00 | 00:00:00 | 00:00:00 | |
| DL1NUX | 2026-08-31 00:04:58 | 49.16433 | 10.26633 | 278° | 18km/h | 24884m | 6.4m/s | -53.3°C | 3.9% | 27.4hPa | 2.5V | 08:30:00 | 01:46:35 | 00:00:00 | |
| DK7TD | 2026-08-31 00:04:54 | 49.16432 | 10.26633 | 278° | 18km/h | 24884m | 6.4m/s | -53.3°C | 0.4% | 27.4hPa | 2.5V | 18:12:15 | 01:46:35 | 00:00:00 | |
| DF8AY | 2026-08-31 00:04:52 | 49.16433 | 10.26671 | 217° | 4km/h | 24839m | 5.4m/s | -53.2°C | 0.4% | 27.6hPa | 2.6V | 18:12:15 | 01:46:27 | 00:00:00 | |
| HSKMA3-T | 2026-08-31 00:04:51 | 49.16429 | 10.26654 | 279° | 16km/h | 24868m | 5m/s | -53.3°C | 0.5% | 27.4hPa | 2.5V | 18:12:15 | 01:46:32 | 00:00:00 | |
| DL1XH-west | 2026-08-31 00:04:50 | 49.16429 | 10.26660 | 264° | 15km/h | 24862m | 6.1m/s | -53.3°C | 0.5% | 27.5hPa | 2.5V | 18:12:15 | 01:46:31 | 00:00:00 | |
| DL1XH1-15 | 2026-08-31 00:04:49 | 49.16432 | 10.26670 | 214° | 5km/h | 24845m | 6.5m/s | -53.2°C | 3.9% | 27.5hPa | 2.6V | 08:30:00 | 01:46:28 | 00:00:00 | |
| EDDB2-11 | 2026-08-31 00:04:49 | 49.16431 | 10.26668 | 225° | 7km/h | 24852m | 5.2m/s | -53.2°C | 1.0% | 27.5hPa | 2.5V | 00:00:00 | 00:00:00 | 00:00:00 | |
| SONDE2-11 | 2026-08-31 00:04:47 | 49.16433 | 10.26671 | 217° | 4km/h | 24840m | 5.4m/s | -53.2°C | -1.0% | 27.6hPa | 2.5V | 00:00:00 | 00:00:00 | 00:00:00 | |
| DJ8HS-15 | 2026-08-31 00:04:45 | 49.16434 | 10.26672 | 228° | 11km/h | 24834m | 5.1m/s | -53.2°C | 3.9% | 27.6hPa | 2.5V | 00:00:00 | 01:46:26 | 08:30:00 | |
| DM0DOS-11 | 2026-08-31 00:04:44 | 49.16437 | 10.26682 | 264° | 15km/h | 24818m | 4.8m/s | -53.3°C | 3.9% | 27.6hPa | 2.6V | 08:30:00 | 01:46:23 | 00:00:00 | |
| DK7TD | 2026-08-31 00:04:43 | 49.16436 | 10.26677 | 251° | 11km/h | 24823m | 5.1m/s | -53.3°C | 0.4% | 27.6hPa | 2.5V | 18:12:15 | 01:46:24 | 00:00:00 | |
| HSKMA3-T | 2026-08-31 00:04:41 | 49.16436 | 10.26688 | 280° | 16km/h | 24812m | 6.6m/s | -53.3°C | 0.4% | 27.7hPa | 2.6V | 18:12:15 | 01:46:22 | 00:00:00 | |
| DL1XH-west | 2026-08-31 00:04:40 | 49.16432 | 10.26718 | 249° | 9km/h | 24786m | 4.4m/s | -53.3°C | 0.5% | 27.8hPa | 2.6V | 18:12:15 | 01:46:17 | 00:00:00 | |
| DF8AY | 2026-08-31 00:04:39 | 49.16437 | 10.26707 | 161° | 5km/h | 24748m | 4.5m/s | -53.5°C | 0.4% | 28hPa | 2.5V | 18:12:15 | 01:46:10 | 00:00:00 | |
| DB0NH | 2026-08-31 00:04:39 | 49.16432 | 10.26708 | 286° | 7km/h | 24796m | 5.5m/s | -53.2°C | 3.8% | 27.7hPa | 2.5V | 00:00:00 | 01:46:19 | 00:00:00 | |
| DF7PN | 2026-08-31 00:04:38 | 49.16432 | 10.26718 | 248° | 7km/h | 24786m | 4.4m/s | -53.3°C | 1.0% | 27.8hPa | 2.5V | 00:00:00 | 00:00:00 | 00:00:00 | |
| DM0DOS-11 | 2026-08-31 00:04:36 | 49.16434 | 10.26715 | 93° | 9km/h | 24764m | 5.2m/s | -53.5°C | 3.9% | 27.9hPa | 2.5V | 08:30:00 | 01:46:13 | 00:00:00 | |
| DK7TD | 2026-08-31 00:04:32 | 49.16434 | 10.26715 | 93° | 9km/h | 24764m | 5.2m/s | -53.5°C | 0.5% | 27.9hPa | 2.5V | 18:12:15 | 01:46:13 | 00:00:00 | |
| HSKMA3-T | 2026-08-31 00:04:30 | 49.16436 | 10.26709 | 126° | 7km/h | 24753m | 6.2m/s | -53.5°C | 0.5% | 27.9hPa | 2.6V | 18:12:15 | 01:46:11 | 00:00:00 | |
| DO3MHA-12 | 2026-08-31 00:04:30 | 49.16436 | 10.26709 | 127° | 9km/h | 24753m | 6.2m/s | -53.5°C | 4.0% | 27.9hPa | 2.5V | 00:00:00 | 01:46:11 | 00:00:00 | |
| DL1NUX | 2026-08-31 00:04:29 | 49.16439 | 10.26721 | 257° | 13km/h | 24719m | 6m/s | -53.5°C | 3.9% | 28.1hPa | 2.5V | 08:30:00 | 01:46:05 | 00:00:00 | |
| DL1XH-west | 2026-08-31 00:04:28 | 49.16438 | 10.26707 | 208° | 5km/h | 24743m | 5.1m/s | -53.5°C | 0.5% | 28hPa | 2.5V | 18:12:15 | 01:46:09 | 00:00:00 | |
| DM0DOS-11 | 2026-08-31 00:04:25 | 49.16441 | 10.26729 | 240° | 9km/h | 24709m | 4.8m/s | -53.5°C | 3.9% | 28.1hPa | 2.5V | 08:30:00 | 01:46:03 | 00:00:00 | |
| DK7TD | 2026-08-31 00:04:21 | 49.16442 | 10.26731 | 242° | 4km/h | 24703m | 6.6m/s | -53.5°C | 0.5% | 28.2hPa | 2.5V | 18:12:15 | 01:46:02 | 00:00:00 | |
| HSKMA3-T | 2026-08-31 00:04:20 | 49.16442 | 10.26732 | 134° | 2km/h | 24698m | 5.1m/s | -53.6°C | 0.4% | 28.2hPa | 2.6V | 18:12:15 | 01:46:01 | 00:00:00 | |
| DF8AY | 2026-08-31 00:04:19 | 49.16444 | 10.26729 | 123° | 7km/h | 24686m | 6.3m/s | -53.6°C | 0.5% | 28.2hPa | 2.5V | 18:12:15 | 01:45:59 | 00:00:00 | |
| DL1NUX | 2026-08-31 00:04:19 | 49.16446 | 10.26717 | 96° | 5km/h | 24662m | 5m/s | -53.7°C | 3.9% | 28.4hPa | 2.6V | 08:30:00 | 01:45:55 | 00:00:00 | |
| DL1XH-west | 2026-08-31 00:04:18 | 49.16445 | 10.26726 | 117° | 9km/h | 24680m | 5.2m/s | -53.7°C | 0.5% | 28.3hPa | 2.5V | 18:12:15 | 01:45:58 | 00:00:00 | |
| DK7TD | 2026-08-31 00:04:11 | 49.16448 | 10.26717 | 230° | 7km/h | 24645m | 4.8m/s | -53.8°C | 0.5% | 28.4hPa | 2.5V | 18:12:15 | 01:45:52 | 00:00:00 | |
| DL1XH1-15 | 2026-08-31 00:04:10 | 49.16449 | 10.26725 | 252° | 4km/h | 24622m | 6.4m/s | -53.9°C | 4% | 28.5hPa | 2.5V | 08:30:00 | 01:45:48 | 00:00:00 | |
| HSKMA3-T | 2026-08-31 00:04:09 | 49.16449 | 10.26721 | 278° | 5km/h | 24633m | 5.6m/s | -53.8°C | 0.5% | 28.5hPa | 2.6V | 18:12:15 | 01:45:50 | 00:00:00 | |
| DF8AY | 2026-08-31 00:04:07 | 49.16449 | 10.26725 | 253° | 4km/h | 24622m | 6.4m/s | -53.9°C | 0.5% | 28.5hPa | 2.5V | 18:12:15 | 01:45:48 | 00:00:00 | |
| DL1XH-west | 2026-08-31 00:04:06 | 49.16450 | 10.26725 | 93° | 4km/h | 24611m | 5.1m/s | -53.9°C | 0.5% | 28.6hPa | 2.5V | 18:12:15 | 01:45:46 | 00:00:00 | |
| DF7PN | 2026-08-31 00:04:06 | 49.16450 | 10.26725 | 92° | 2km/h | 24611m | 5.1m/s | -53.9°C | 1.0% | 28.6hPa | 2.6V | 00:00:00 | 00:00:00 | 00:00:00 | |
| DJ8HS-15 | 2026-08-31 00:04:05 | 49.16450 | 10.26725 | 93° | 9km/h | 24611m | 5.0m/s | -53.9°C | 4.0% | 28.5hPa | 2.6V | 00:00:00 | 01:45:46 | 00:00:00 | |
| DL1ZP-14 | 2026-08-31 00:04:04 | 49.16448 | 10.26720 | 57° | 9km/h | 24599m | 5.5m/s | -53.9°C | 1.0% | 28.6hPa | 2.6V | 00:00:00 | 00:00:00 | 00:00:00 | |
| DL1XH1-15 | 2026-08-31 00:04:03 | 49.16441 | 10.26710 | 347° | 9km/h | 24566m | 5.4m/s | -53.8°C | 4% | 28.8hPa | 2.6V | 08:30:00 | 01:45:38 | 00:00:00 | |
| DK7TD | 2026-08-31 00:04:02 | 49.16446 | 10.26714 | 66° | 7km/h | 24588m | 6.1m/s | -53.9°C | 0.5% | 28.7hPa | 2.5V | 18:12:15 | 01:45:42 | 00:00:00 | |
| HSKMA3-T | 2026-08-31 00:03:59 | 49.16445 | 10.26710 | 32° | 5km/h | 24578m | 5.1m/s | -53.8°C | 0.5% | 28.7hPa | 2.5V | 18:12:15 | 01:45:40 | 00:00:00 | |
| DL1NUX | 2026-08-31 00:03:58 | 49.16435 | 10.26716 | 318° | 9km/h | 24549m | 4.9m/s | -53.8°C | 4% | 28.9hPa | 2.5V | 08:30:00 | 01:45:35 | 00:00:00 | |
| DF8AY | 2026-08-31 00:03:56 | 49.16439 | 10.26711 | 334° | 11km/h | 24560m | 5.5m/s | -53.8°C | 0.5% | 28.8hPa | 2.5V | 18:12:15 | 01:45:37 | 00:00:00 | |
| DL1XH-west | 2026-08-31 00:03:56 | 49.16437 | 10.26713 | 323° | 9km/h | 24555m | 6.4m/s | -53.8°C | 0.5% | 28.8hPa | 2.5V | 18:12:15 | 01:45:36 | 00:00:00 | |
| DM0DOS-11 | 2026-08-31 00:03:55 | 49.16430 | 10.26720 | 344° | 13km/h | 24538m | 6.2m/s | -53.8°C | 4% | 28.9hPa | 2.6V | 08:30:00 | 01:45:33 | 00:00:00 | |
| DK7TD | 2026-08-31 00:03:51 | 49.16424 | 10.26719 | 18° | 13km/h | 24527m | 5.9m/s | -53.8°C | 0.5% | 28.9hPa | 2.5V | 18:12:15 | 01:45:31 | 00:00:00 | |
| DL1XH1-15 | 2026-08-31 00:03:50 | 49.16416 | 10.26711 | 38° | 15km/h | 24510m | 5.5m/s | -53.7°C | 4% | 29.1hPa | 2.6V | 08:30:00 | 01:45:28 | 00:00:00 | |
| DF8AY-15 | 2026-08-31 00:03:49 | 49.16421 | 10.26717 | 36° | 15km/h | 24521m | 5.9m/s | -53.7°C | 4.0% | 28.9hPa | 2.5V | 00:00:00 | 01:45:30 | 00:00:00 | |
| DL1NUX | 2026-08-31 00:03:48 | 49.16405 | 10.26703 | 16° | 16km/h | 24492m | 6.3m/s | -53.7°C | 4% | 29.1hPa | 2.5V | 08:30:00 | 01:45:25 | 00:00:00 | |
| HSKMA3-T | 2026-08-31 00:03:48 | 49.16419 | 10.26714 | 42° | 13km/h | 24515m | 4.7m/s | -53.7°C | 0.5% | 29hPa | 2.6V | 18:12:15 | 01:45:29 | 00:00:00 | |
| DL1XH-west | 2026-08-31 00:03:46 | 49.16413 | 10.26708 | 31° | 16km/h | 24504m | 6.2m/s | -53.7°C | 0.5% | 29.1hPa | 2.5V | 18:12:15 | 01:45:27 | 00:00:00 | |
| DF8AY | 2026-08-31 00:03:45 | 49.16409 | 10.26705 | 22° | 16km/h | 24498m | 5.7m/s | -53.7°C | 0.5% | 29.1hPa | 2.5V | 18:12:15 | 01:45:26 | 00:00:00 | |
| DJ8HS-15 | 2026-08-31 00:03:45 | 49.16409 | 10.26705 | 22° | 15km/h | 24499m | 5.7m/s | -53.7°C | 4.0% | 29.0hPa | 2.5V | 00:00:00 | 01:45:26 | 00:00:00 | |
| DL1XH1-15 | 2026-08-31 00:03:43 | 49.16375 | 10.26705 | 18° | 13km/h | 24450m | 4.6m/s | -53.6°C | 4% | 29.3hPa | 2.5V | 08:30:00 | 01:45:17 | 00:00:00 | |
| DK7TD | 2026-08-31 00:03:40 | 49.16390 | 10.26702 | 347° | 18km/h | 24471m | 6m/s | -53.7°C | 0.5% | 29.2hPa | 2.6V | 18:12:15 | 01:45:21 | 00:00:00 | |
| DO3MHA-12 | 2026-08-31 00:03:40 | 49.16390 | 10.26702 | 348° | 15km/h | 24471m | 5.9m/s | -53.7°C | 4.0% | 29.2hPa | 2.6V | 00:00:00 | 01:45:21 | 00:00:00 | |
| DL1NUX | 2026-08-31 00:03:39 | 49.16368 | 10.26701 | 23° | 16km/h | 24439m | 5.6m/s | -53.6°C | 4% | 29.4hPa | 2.6V | 08:30:00 | 01:45:15 | 00:00:00 | |
| HSKMA3-T | 2026-08-31 00:03:37 | 49.16378 | 10.26706 | 3° | 13km/h | 24455m | 5.2m/s | -53.7°C | 0.5% | 29.3hPa | 2.5V | 18:12:15 | 01:45:18 | 00:00:00 | |
| DL1XH-west | 2026-08-31 00:03:35 | 49.16361 | 10.26695 | 25° | 16km/h | 24429m | 5.3m/s | -53.6°C | 0.6% | 29.4hPa | 2.5V | 18:12:15 | 01:45:13 | 00:00:00 | |
| DF8AY | 2026-08-31 00:03:34 | 49.16369 | 10.26701 | 24° | 16km/h | 24439m | 5.6m/s | -53.6°C | 0.5% | 29.4hPa | 2.6V | 18:12:15 | 01:45:15 | 00:00:00 | |
| DK7TD | 2026-08-31 00:03:31 | 49.16355 | 10.26690 | 29° | 11km/h | 24418m | 4.6m/s | -53.7°C | 0.6% | 29.4hPa | 2.5V | 18:12:15 | 01:45:11 | 00:00:00 | |
| DL1XH1-15 | 2026-08-31 00:03:31 | 49.16345 | 10.26686 | 2° | 16km/h | 24401m | 5.6m/s | -53.7°C | 4.1% | 29.5hPa | 2.5V | 08:30:00 | 01:45:08 | 00:00:00 | |
| DL1NUX | 2026-08-31 00:03:30 | 49.16334 | 10.26687 | 359° | 13km/h | 24385m | 4.8m/s | -53.6°C | 4.1% | 29.6hPa | 2.5V | 08:30:00 | 01:45:05 | 00:00:00 | |
| HSKMA3-T | 2026-08-31 00:03:26 | 49.16341 | 10.26686 | 359° | 16km/h | 24396m | 5.3m/s | -53.7°C | 0.6% | 29.6hPa | 2.5V | 18:12:15 | 01:45:07 | 00:00:00 | |
| DL1XH-west | 2026-08-31 00:03:25 | 49.16337 | 10.26687 | 358° | 13km/h | 24390m | 6.3m/s | -53.6°C | 0.6% | 29.6hPa | 2.5V | 18:12:15 | 01:45:06 | 00:00:00 | |
| DM0DOS-11 | 2026-08-31 00:03:25 | 49.16327 | 10.26686 | 8° | 16km/h | 24374m | 6.1m/s | -53.6°C | 4% | 29.6hPa | 2.6V | 08:30:00 | 01:45:03 | 00:00:00 | |
| DF8AY | 2026-08-31 00:03:24 | 49.16334 | 10.26687 | 360° | 13km/h | 24385m | 4.8m/s | -53.6°C | 0.6% | 29.6hPa | 2.5V | 18:12:15 | 01:45:05 | 00:00:00 | |
| DG9SBQ-11 | 2026-08-31 00:03:24 | 49.16334 | 10.26687 | 361° | 13km/h | 24385m | 4.8m/s | -53.6°C | 1.0% | 29.6hPa | 2.5V | 00:00:00 | 00:00:00 | 00:00:00 | |
| DL1XH1-15 | 2026-08-31 00:03:23 | 49.16307 | 10.26682 | 0° | 13km/h | 24340m | 5.3m/s | -53.5°C | 4% | 29.8hPa | 2.5V | 08:30:00 | 01:44:57 | 00:00:00 | |
| DK7TD | 2026-08-31 00:03:20 | 49.16319 | 10.26684 | 11° | 15km/h | 24363m | 5.6m/s | -53.5°C | 0.5% | 29.7hPa | 2.5V | 18:12:15 | 01:45:01 | 00:00:00 | |
| HSKMA3-T | 2026-08-31 00:03:16 | 49.16307 | 10.26682 | 1° | 13km/h | 24340m | 5.4m/s | -53.5°C | 0.5% | 29.8hPa | 2.5V | 18:12:15 | 01:44:57 | 00:00:00 | |
| DL1XH-west | 2026-08-31 00:03:15 | 49.16304 | 10.26682 | 354° | 13km/h | 24335m | 4.6m/s | -53.5°C | 0.5% | 29.8hPa | 2.5V | 18:12:15 | 01:44:56 | 00:00:00 | |
| DM0DOS-11 | 2026-08-31 00:03:15 | 49.16296 | 10.26685 | 337° | 9km/h | 24319m | 4.9m/s | -53.4°C | 4% | 29.9hPa | 2.6V | 08:30:00 | 01:44:53 | 00:00:00 | |
| DF8AY | 2026-08-31 00:03:13 | 49.16281 | 10.26689 | 350° | 11km/h | 24292m | 6.3m/s | -53.2°C | 0.5% | 30hPa | 2.6V | 18:12:15 | 01:44:48 | 00:00:00 | |
| DK7TD | 2026-08-31 00:03:11 | 49.16291 | 10.26687 | 353° | 13km/h | 24307m | 6m/s | -53.3°C | 0.5% | 30hPa | 2.5V | 18:12:15 | 01:44:51 | 00:00:00 | |
| DL1XH1-15 | 2026-08-31 00:03:10 | 49.16281 | 10.26689 | 349° | 11km/h | 24292m | 6.3m/s | -53.2°C | 4% | 30hPa | 2.6V | 08:30:00 | 01:44:48 | 00:00:00 | |
| DL1NUX | 2026-08-31 00:03:08 | 49.16273 | 10.26694 | 328° | 15km/h | 24274m | 6m/s | -53.2°C | 4% | 30.1hPa | 2.5V | 08:30:00 | 01:44:45 | 00:00:00 | |
| DM0DOS-11 | 2026-08-31 00:03:07 | 49.16268 | 10.26701 | 307° | 15km/h | 24263m | 6.7m/s | -53.2°C | 3.9% | 30.1hPa | 2.6V | 08:30:00 | 01:44:43 | 00:00:00 | |
| DL1XH-west | 2026-08-31 00:03:05 | 49.16276 | 10.26691 | 334° | 13km/h | 24280m | 6.4m/s | -53.2°C | 0.5% | 30.1hPa | 2.5V | 18:12:15 | 01:44:46 | 00:00:00 | |
| DK7TD | 2026-08-31 00:03:00 | 49.16264 | 10.26710 | 299° | 13km/h | 24252m | 4.6m/s | -53.1°C | 0.5% | 30.2hPa | 2.5V | 18:12:15 | 01:44:41 | 00:00:00 | |
| DF8AY | 2026-08-31 00:02:59 | 49.16261 | 10.26717 | 329° | 11km/h | 24240m | 5.3m/s | -53.1°C | 0.4% | 30.3hPa | 2.5V | 18:12:15 | 01:44:39 | 00:00:00 | |
| OE5DXL-15 | 2026-08-31 00:02:56 | 49.16244 | 10.26785 | 346° | 11km/h | 24014m | 5.9m/s | -52.7°C | 3.8% | 31.3hPa | 2.5V | 00:00:00 | 00:00:00 | 08:30:00 | |
| HSKMA3-T | 2026-08-31 00:02:55 | 49.16256 | 10.26718 | 17° | 5km/h | 24223m | 5.2m/s | -53°C | 0.5% | 30.3hPa | 2.6V | 18:12:15 | 01:44:36 | 00:00:00 | |
| DN1GJH-1 | 2026-08-31 00:02:55 | 49.16242 | 10.26785 | 356° | 7km/h | 24009m | 4.7m/s | -52.8°C | 1.0% | 31.4hPa | 2.5V | 00:00:00 | 00:00:00 | 00:00:00 | |
| DM0DOS-11 | 2026-08-31 00:02:54 | 49.16251 | 10.26719 | 321° | 9km/h | 24206m | 4.5m/s | -53°C | 3.8% | 30.4hPa | 2.5V | 08:30:00 | 01:44:33 | 00:00:00 | |
| DL1XH-west | 2026-08-31 00:02:54 | 49.16254 | 10.26718 | 7° | 5km/h | 24217m | 6.1m/s | -53°C | 0.4% | 30.4hPa | 2.6V | 18:12:15 | 01:44:35 | 00:00:00 | |
| DB0ND-19 | 2026-08-31 00:02:53 | 49.16240 | 10.26785 | 31° | 2km/h | 23997m | 5.7m/s | -52.7°C | 0.9% | 31.4hPa | 2.6V | 00:00:00 | 00:00:00 | 00:00:00 | |
| EDDB2-11 | 2026-08-31 00:02:51 | 49.16239 | 10.26785 | 59° | 2km/h | 23992m | 4.8m/s | -52.7°C | 1.0% | 31.5hPa | 2.6V | 00:00:00 | 00:00:00 | 00:00:00 | |
| DL1XH1-15 | 2026-08-31 00:02:50 | 49.16244 | 10.26738 | 307° | 13km/h | 24178m | 5m/s | -52.9°C | 3.9% | 30.6hPa | 2.6V | 08:30:00 | 01:44:28 | 00:00:00 | |
| DK7TD | 2026-08-31 00:02:50 | 49.16247 | 10.26730 | 290° | 13km/h | 24190m | 5.1m/s | -52.9°C | 0.4% | 30.5hPa | 2.5V | 18:12:15 | 01:44:30 | 00:00:00 | |
| OE5WHR-10 | 2026-08-31 00:02:49 | 49.16239 | 10.26784 | 60° | 11km/h | 23992m | 4.8m/s | -52.7°C | 3.8% | 31.4hPa | 2.5V | 00:00:00 | 01:43:54 | 00:00:00 | |
| DF8AY | 2026-08-31 00:02:48 | 49.16242 | 10.26750 | 250° | 5km/h | 24144m | 5m/s | -53°C | 0.4% | 30.7hPa | 2.5V | 18:12:15 | 01:44:22 | 00:00:00 | |
| DG9SBQ-11 | 2026-08-31 00:02:47 | 49.16239 | 10.26783 | 57° | 5km/h | 23987m | 6.2m/s | -52.7°C | 1.0% | 31.5hPa | 2.5V | 00:00:00 | 00:00:00 | 00:00:00 | |
| DB0UT-7 | 2026-08-31 00:02:46 | 49.16237 | 10.26781 | 47° | 13km/h | 23981m | 5.8m/s | -52.7°C | 3.8% | 31.5hPa | 2.5V | 00:00:00 | 01:43:52 | 00:00:00 | |
| DM0DOS-11 | 2026-08-31 00:02:45 | 49.16241 | 10.26748 | 238° | 4km/h | 24150m | 6.4m/s | -53°C | 3.9% | 30.7hPa | 2.6V | 08:30:00 | 01:44:23 | 00:00:00 | |
| DO3MHA-12 | 2026-08-31 00:02:45 | 49.16236 | 10.26778 | 45° | 11km/h | 23975m | 5.3m/s | -52.6°C | 3.8% | 31.5hPa | 2.5V | 00:00:00 | 01:43:51 | 00:00:00 | |
| HSKMA3-T | 2026-08-31 00:02:44 | 49.16241 | 10.26746 | 263° | 4km/h | 24162m | 5.9m/s | -53°C | 0.4% | 30.6hPa | 2.5V | 18:12:15 | 01:44:25 | 00:00:00 | |
| DL1XH-west | 2026-08-31 00:02:44 | 49.16242 | 10.26748 | 239° | 4km/h | 24150m | 6.4m/s | -53°C | 0.4% | 30.7hPa | 2.6V | 18:12:15 | 01:44:23 | 00:00:00 | |
| DL1XH1-15 | 2026-08-31 00:02:43 | 49.16248 | 10.26762 | 234° | 11km/h | 24123m | 5.2m/s | -53°C | 3.9% | 30.8hPa | 2.6V | 08:30:00 | 01:44:18 | 00:00:00 | |
| SONCRA | 2026-08-31 00:02:42 | 49.16232 | 10.26772 | 49° | 9km/h | 23963m | 5.6m/s | -52.7°C | 1.0% | 31.6hPa | 2.5V | 00:00:00 | 00:00:00 | 00:00:00 | |
| DK7TD | 2026-08-31 00:02:39 | 49.16246 | 10.26758 | 226° | 13km/h | 24128m | 5.2m/s | -53°C | 0.4% | 30.8hPa | 2.5V | 18:12:15 | 01:44:19 | 00:00:00 | |
| DF8AY-15 | 2026-08-31 00:02:38 | 49.16230 | 10.26770 | 42° | 11km/h | 23958m | 4.4m/s | -52.6°C | 3.8% | 31.6hPa | 2.5V | 00:00:00 | 01:43:48 | 00:00:00 | |
| DM0DOS-11 | 2026-08-31 00:02:37 | 49.16251 | 10.26783 | 258° | 7km/h | 24085m | 5.7m/s | -53°C | 3.9% | 31hPa | 2.5V | 08:30:00 | 01:44:11 | 00:00:00 | |
| DG9SBQ-11 | 2026-08-31 00:02:37 | 49.16228 | 10.26768 | 31° | 11km/h | 23953m | 6.7m/s | -52.7°C | 0.9% | 31.6hPa | 2.5V | 00:00:00 | 00:00:00 | 00:00:00 | |
| DJ8HS-15 | 2026-08-31 00:02:36 | 49.16226 | 10.26766 | 16° | 13km/h | 23947m | 5.7m/s | -52.6°C | 3.8% | 31.7hPa | 2.5V | 00:00:00 | 01:43:46 | 00:00:00 | |
| HSKMA3-T | 2026-08-31 00:02:34 | 49.16250 | 10.26773 | 280° | 7km/h | 24106m | 4.6m/s | -53.1°C | 0.5% | 30.9hPa | 2.5V | 18:12:15 | 01:44:15 | 00:00:00 | |
| DL1XH-west | 2026-08-31 00:02:34 | 49.16251 | 10.26789 | 283° | 4km/h | 24069m | 5.7m/s | -53°C | 0.5% | 31.1hPa | 2.5V | 18:12:15 | 01:44:08 | 00:00:00 | |
| DF7PN | 2026-08-31 00:02:33 | 49.16216 | 10.26771 | 319° | 13km/h | 23924m | 6.3m/s | -52.8°C | 0.9% | 31.8hPa | 2.5V | 00:00:00 | 00:00:00 | 00:00:00 | |
| DG9SBQ-11 | 2026-08-31 00:02:31 | 49.16213 | 10.26774 | 322° | 16km/h | 23918m | 6.0m/s | -52.8°C | 1.0% | 31.8hPa | 2.5V | 00:00:00 | 00:00:00 | 00:00:00 | |
| DL1ZP-14 | 2026-08-31 00:02:30 | 49.16210 | 10.26778 | 322° | 15km/h | 23912m | 5.2m/s | -52.8°C | 1.0% | 31.9hPa | 2.5V | 00:00:00 | 00:00:00 | 00:00:00 | |
| DK7TD | 2026-08-31 00:02:29 | 49.16251 | 10.26787 | 289° | 5km/h | 24074m | 4.8m/s | -53°C | 0.5% | 31.1hPa | 2.5V | 18:12:15 | 01:44:09 | 00:00:00 | |
| DM0DOS-11 | 2026-08-31 00:02:25 | 49.16251 | 10.26783 | 35° | 5km/h | 24041m | 5.4m/s | -52.9°C | 3.9% | 31.2hPa | 2.5V | 08:30:00 | 01:44:03 | 00:00:00 | |
| DJTTGO | 2026-08-31 00:02:23 | 49.16204 | 10.26783 | 348° | 9km/h | 23901m | 5.1m/s | -52.8°C | 1.0% | 31.9hPa | 2.5V | 00:00:00 | 00:00:00 | 00:00:00 | |
| HSKMA3-T | 2026-08-31 00:02:23 | 49.16251 | 10.26784 | 66° | 5km/h | 24047m | 5.8m/s | -52.9°C | 0.5% | 31.2hPa | 2.5V | 18:12:15 | 01:44:04 | 00:00:00 | |
| DL1XH-west | 2026-08-31 00:02:22 | 49.16251 | 10.26783 | 36° | 5km/h | 24041m | 5.4m/s | -52.9°C | 0.5% | 31.2hPa | 2.5V | 18:12:15 | 01:44:03 | 00:00:00 | |
| DN1GJH-1 | 2026-08-31 00:02:22 | 49.16202 | 10.26783 | 16° | 11km/h | 23896m | 4.8m/s | -52.7°C | 1.0% | 31.9hPa | 2.5V | 00:00:00 | 00:00:00 | 00:00:00 | |
| DF3TZ-5 | 2026-08-31 00:02:21 | 49.16188 | 10.26772 | 30° | 15km/h | 23873m | 6.0m/s | -52.7°C | 1.0% | 32.0hPa | 2.5V | 00:00:00 | 00:00:00 | 00:00:00 | |
| DC4HF-4 | 2026-08-31 00:02:20 | 49.16188 | 10.26772 | 30° | 15km/h | 23873m | 6.0m/s | -52.7°C | 1.0% | 32.0hPa | 2.5V | 00:00:00 | 00:00:00 | 00:00:00 | |
| DL1NUX | 2026-08-31 00:02:19 | 49.16240 | 10.26785 | 31° | 2km/h | 23997m | 5.7m/s | -52.7°C | 3.8% | 31.4hPa | 2.5V | 08:30:00 | 01:43:55 | 00:00:00 | |
| DM0DOS-11 | 2026-08-31 00:02:19 | 49.16239 | 10.26783 | 55° | 5km/h | 23987m | 6.2m/s | -52.7°C | 3.8% | 31.5hPa | 2.5V | 08:30:00 | 01:43:53 | 00:00:00 | |
| DK7TD | 2026-08-31 00:02:19 | 49.16246 | 10.26784 | 334° | 7km/h | 24019m | 5.9m/s | -52.8°C | 0.4% | 31.3hPa | 2.5V | 18:12:15 | 01:43:59 | 00:00:00 | |
| DG9SBQ-11 | 2026-08-31 00:02:14 | 49.16178 | 10.26769 | 356° | 15km/h | 23857m | 6.4m/s | -52.7°C | 1.0% | 32.1hPa | 2.5V | 00:00:00 | 00:00:00 | 00:00:00 | |
| HSKMA3-T | 2026-08-31 00:02:13 | 49.16239 | 10.26785 | 60° | 4km/h | 23992m | 4.8m/s | -52.7°C | 0.4% | 31.5hPa | 2.5V | 18:12:15 | 01:43:54 | 00:00:00 | |
| OE5DXL-15 | 2026-08-31 00:02:13 | 49.16171 | 10.26772 | 339° | 15km/h | 23846m | 5.8m/s | -52.7°C | 3.8% | 32.1hPa | 2.6V | 00:00:00 | 00:00:00 | 00:00:00 | |
| BIOWL1-15 | 2026-08-31 00:02:12 | 49.16234 | 10.26775 | 48° | 11km/h | 23969m | 6.1m/s | -52.7°C | 0.3% | 31.6hPa | 2.6V | 18:12:15 | 01:43:50 | 00:00:00 | |
| DL1XH-west | 2026-08-31 00:02:11 | 49.16237 | 10.26781 | 47° | 9km/h | 23980m | 5.9m/s | -52.7°C | 0.4% | 31.5hPa | 2.5V | 18:12:15 | 01:43:52 | 00:00:00 | |
| DJ8HS-15 | 2026-08-31 00:02:10 | 49.16164 | 10.26776 | 340° | 15km/h | 23835m | 4.3m/s | -52.8°C | 3.8% | 32.2hPa | 2.6V | 00:00:00 | 01:43:26 | 08:30:00 | |
| DL1NUX | 2026-08-31 00:02:09 | 49.16223 | 10.26765 | 0° | 11km/h | 23941m | 4.8m/s | -52.7°C | 3.8% | 31.7hPa | 2.5V | 08:30:00 | 01:43:45 | 00:00:00 | |
| DK7TD | 2026-08-31 00:02:09 | 49.16232 | 10.26772 | 50° | 9km/h | 23963m | 5.6m/s | -52.7°C | 0.4% | 31.6hPa | 2.6V | 18:12:15 | 01:43:49 | 00:00:00 | |
| DB0ND-19 | 2026-08-31 00:02:07 | 49.16153 | 10.26778 | 6° | 15km/h | 23819m | 5.1m/s | -52.9°C | 1.0% | 32.3hPa | 2.5V | 00:00:00 | 00:00:00 | 00:00:00 | |
| EDDB2-11 | 2026-08-31 00:02:06 | 49.16153 | 10.26778 | 6° | 15km/h | 23819m | 5.1m/s | -52.9°C | 1.0% | 32.3hPa | 2.5V | 00:00:00 | 00:00:00 | 00:00:00 | |
| DB0UT-7 | 2026-08-31 00:02:04 | 49.16149 | 10.26777 | 16° | 15km/h | 23813m | 5.9m/s | -52.9°C | 3.8% | 32.3hPa | 2.5V | 00:00:00 | 00:00:00 | 00:00:00 | |
| HSKMA3-T | 2026-08-31 00:02:03 | 49.16220 | 10.26766 | 343° | 11km/h | 23935m | 6.5m/s | -52.7°C | 0.4% | 31.8hPa | 2.5V | 18:12:15 | 01:43:44 | 00:00:00 | |
| DL1XH1-15 | 2026-08-31 00:02:03 | 49.16199 | 10.26781 | 23° | 15km/h | 23890m | 6.4m/s | -52.7°C | 3.8% | 32hPa | 2.5V | 08:30:00 | 01:43:36 | 00:00:00 | |
| DF8AY | 2026-08-31 00:02:02 | 49.16213 | 10.26774 | 321° | 16km/h | 23918m | 6m/s | -52.8°C | 0.4% | 31.8hPa | 2.5V | 18:12:15 | 01:43:41 | 00:00:00 | |
| DL1XH-west | 2026-08-31 00:02:01 | 49.16216 | 10.26771 | 320° | 13km/h | 23924m | 6.3m/s | -52.8°C | 0.4% | 31.8hPa | 2.6V | 18:12:15 | 01:43:42 | 00:00:00 | |
| DB0NH | 2026-08-31 00:02:00 | 49.16141 | 10.26771 | 23° | 13km/h | 23797m | 5.1m/s | -52.9°C | 3.8% | 32.4hPa | 2.6V | 00:00:00 | 01:43:19 | 00:00:00 | |
| DM0DOS-11 | 2026-08-31 00:01:58 | 49.16182 | 10.26769 | 7° | 13km/h | 23862m | 5.5m/s | -52.7°C | 3.8% | 32.1hPa | 2.6V | 08:30:00 | 01:43:31 | 00:00:00 | |
| DK7TD | 2026-08-31 00:01:57 | 49.16204 | 10.26783 | 347° | 9km/h | 23901m | 5.1m/s | -52.8°C | 0.4% | 31.9hPa | 2.6V | 18:12:15 | 01:43:38 | 00:00:00 | |
| DG9SBQ-11 | 2026-08-31 00:01:57 | 49.16137 | 10.26770 | 15° | 15km/h | 23792m | 6.0m/s | -53.0°C | 1.0% | 32.5hPa | 2.6V | 00:00:00 | 00:00:00 | 00:00:00 | |
| HSKMA3-T | 2026-08-31 00:01:53 | 49.16185 | 10.26770 | 23° | 13km/h | 23868m | 5.4m/s | -52.7°C | 0.4% | 32.1hPa | 2.6V | 18:12:15 | 01:43:32 | 00:00:00 | |
| DF8AY | 2026-08-31 00:01:52 | 49.16141 | 10.26772 | 22° | 13km/h | 23797m | 5.1m/s | -53°C | 0.4% | 32.4hPa | 2.5V | 18:12:15 | 01:43:19 | 00:00:00 | |
| DL1XH-west | 2026-08-31 00:01:51 | 49.16178 | 10.26769 | 355° | 15km/h | 23856m | 6.4m/s | -52.7°C | 0.4% | 32.1hPa | 2.5V | 18:12:15 | 01:43:30 | 00:00:00 | |
| DL1XH1-15 | 2026-08-31 00:01:50 | 49.16171 | 10.26772 | 338° | 15km/h | 23845m | 5.8m/s | -52.8°C | 3.8% | 32.2hPa | 2.5V | 08:30:00 | 01:43:28 | 00:00:00 | |
| OE5WHR-10 | 2026-08-31 00:01:49 | 49.16111 | 10.26768 | 349° | 13km/h | 23758m | 5.8m/s | -53.1°C | 3.9% | 32.6hPa | 2.6V | 00:00:00 | 00:00:00 | 00:00:00 | |
| DG9SBQ-11 | 2026-08-31 00:01:48 | 49.16111 | 10.26768 | 350° | 18km/h | 23758m | 5.8m/s | -53.1°C | 1.0% | 32.6hPa | 2.6V | 00:00:00 | 00:00:00 | 00:00:00 | |
| DK7TD | 2026-08-31 00:01:46 | 49.16167 | 10.26774 | 334° | 13km/h | 23840m | 5.8m/s | -52.8°C | 0.4% | 32.2hPa | 2.6V | 18:12:15 | 01:43:27 | 00:00:00 | |
| DO3MHA-12 | 2026-08-31 00:01:46 | 49.16107 | 10.26769 | 340° | 11km/h | 23753m | 4.4m/s | -53.1°C | 3.9% | 32.6hPa | 2.6V | 00:00:00 | 01:43:11 | 00:00:00 | |
| BIOWL1-15 | 2026-08-31 00:01:45 | 49.16103 | 10.26772 | 330° | 16km/h | 23748m | 5.6m/s | -53.2°C | 0.5% | 32.7hPa | 2.6V | 18:12:15 | 01:43:10 | 00:00:00 | |
| NBG1-10 | 2026-08-31 00:01:45 | 49.16103 | 10.26772 | 331° | 13km/h | 23748m | 5.5m/s | -53.2°C | 3.9% | 32.6hPa | 2.5V | 00:00:00 | 01:43:10 | 00:00:00 | |
| DM0DOS-11 | 2026-08-31 00:01:44 | 49.16153 | 10.26778 | 6° | 16km/h | 23818m | 5.1m/s | -52.9°C | 3.8% | 32.3hPa | 2.5V | 08:30:00 | 01:43:23 | 00:00:00 | |
| DL1XH1-15 | 2026-08-31 00:01:42 | 49.16137 | 10.26770 | 14° | 15km/h | 23791m | 6m/s | -53°C | 3.8% | 32.5hPa | 2.5V | 08:30:00 | 01:43:18 | 00:00:00 | |
| HSKMA3-T | 2026-08-31 00:01:41 | 49.16146 | 10.26775 | 23° | 13km/h | 23807m | 5.6m/s | -53°C | 0.4% | 32.4hPa | 2.6V | 18:12:15 | 01:43:21 | 00:00:00 | |
| DL1XH-west | 2026-08-31 00:01:40 | 49.16143 | 10.26773 | 26° | 11km/h | 23802m | 4.8m/s | -53°C | 0.4% | 32.4hPa | 2.6V | 18:12:15 | 01:43:20 | 00:00:00 | |
| DL1NUX | 2026-08-31 00:01:39 | 49.16124 | 10.26767 | 5° | 18km/h | 23775m | 6.5m/s | -53°C | 3.8% | 32.5hPa | 2.6V | 08:30:00 | 01:43:15 | 00:00:00 | |
| DM0DOS-11 | 2026-08-31 00:01:36 | 49.16116 | 10.26767 | 353° | 16km/h | 23763m | 5.8m/s | -53.1°C | 3.9% | 32.6hPa | 2.5V | 08:30:00 | 01:43:13 | 00:00:00 | |
| DK7TD | 2026-08-31 00:01:36 | 49.16129 | 10.26767 | 7° | 18km/h | 23781m | 4.7m/s | -53°C | 0.4% | 32.5hPa | 2.6V | 18:12:15 | 01:43:16 | 00:00:00 | |
| DF3TZ-5 | 2026-08-31 00:01:34 | 49.16086 | 10.26790 | 344° | 7km/h | 23703m | 4.7m/s | -53.5°C | 1.0% | 32.9hPa | 2.6V | 00:00:00 | 00:00:00 | 00:00:00 | |
| AZAK | 2026-08-31 00:01:32 | 49.16086 | 10.26790 | 345° | 9km/h | 23703m | 4.7m/s | -53.5°C | 1.0% | 32.9hPa | 2.6V | 00:00:00 | 00:00:00 | 00:00:00 | |
| HSKMA3-T | 2026-08-31 00:01:30 | 49.16107 | 10.26770 | 340° | 18km/h | 23752m | 4.5m/s | -53.2°C | 0.4% | 32.6hPa | 2.6V | 18:12:15 | 01:43:11 | 00:00:00 | |
| DL1XH1-15 | 2026-08-31 00:01:30 | 49.16098 | 10.26779 | 304° | 11km/h | 23736m | 5.3m/s | -53.3°C | 3.9% | 32.7hPa | 2.5V | 08:30:00 | 01:43:08 | 00:00:00 | |
| BIOWL1-15 | 2026-08-31 00:01:29 | 49.16098 | 10.26779 | 304° | 11km/h | 23736m | 5.3m/s | -53.3°C | 0.4% | 32.7hPa | 2.5V | 18:12:15 | 01:43:08 | 00:00:00 | |
| DL1XH-west | 2026-08-31 00:01:29 | 49.16100 | 10.26776 | 315° | 13km/h | 23741m | 6.3m/s | -53.3°C | 0.5% | 32.7hPa | 2.5V | 18:12:15 | 01:43:09 | 00:00:00 | |
| DL1NUX | 2026-08-31 00:01:28 | 49.16092 | 10.26787 | 338° | 11km/h | 23719m | 5m/s | -53.5°C | 4% | 32.8hPa | 2.6V | 08:30:00 | 01:43:05 | 00:00:00 | |
| DG9SBQ-11 | 2026-08-31 00:01:28 | 49.16080 | 10.26793 | 340° | 15km/h | 23692m | 6.3m/s | -53.5°C | 1.0% | 33.0hPa | 2.6V | 00:00:00 | 00:00:00 | 00:00:00 | |
| DL6DJ-15 | 2026-08-31 00:01:27 | 49.16074 | 10.26798 | 330° | 15km/h | 23681m | 6.4m/s | -53.5°C | 1.0% | 33.0hPa | 2.6V | 00:00:00 | 00:00:00 | 00:00:00 | |
| DC4HF-4 | 2026-08-31 00:01:26 | 49.16070 | 10.26801 | 333° | 13km/h | 23674m | 5.6m/s | -53.5°C | 1.0% | 33.0hPa | 2.6V | 00:00:00 | 00:00:00 | 00:00:00 | |
| DK7TD | 2026-08-31 00:01:24 | 49.16092 | 10.26787 | 338° | 11km/h | 23719m | 5m/s | -53.5°C | 0.5% | 32.8hPa | 2.6V | 18:12:15 | 01:43:05 | 00:00:00 | |
| DL1XH1-15 | 2026-08-31 00:01:23 | 49.16074 | 10.26798 | 330° | 15km/h | 23680m | 6.4m/s | -53.5°C | 4% | 33hPa | 2.5V | 08:30:00 | 01:42:58 | 00:00:00 | |
| DF8AY-15 | 2026-08-31 00:01:21 | 49.16056 | 10.26805 | 1° | 13km/h | 23652m | 5.5m/s | 0°C | 0% | 0hPa | 2.6V | 00:00:00 | 01:42:53 | 08:30:00 | |
| EDDB2-11 | 2026-08-31 00:01:20 | 49.16053 | 10.26805 | 0° | 11km/h | 23646m | 5.9m/s | -53.5°C | 1.0% | 33.2hPa | 2.6V | 00:00:00 | 00:00:00 | 00:00:00 | |
| HSKMA3-T | 2026-08-31 00:01:19 | 49.16081 | 10.26793 | 339° | 15km/h | 23691m | 6.3m/s | -53.5°C | 0.5% | 33hPa | 2.6V | 18:12:15 | 01:43:00 | 00:00:00 | |
| BIOWL1-15 | 2026-08-31 00:01:19 | 49.16060 | 10.26805 | 356° | 15km/h | 23658m | 5.1m/s | 0°C | 0% | 33.2hPa | 2.6V | 18:12:15 | 01:42:54 | 00:00:00 | |
| DL1NUX | 2026-08-31 00:01:19 | 49.16064 | 10.26804 | 348° | 15km/h | 23663m | 6.8m/s | -53.5°C | 3.9% | 33.1hPa | 2.5V | 08:30:00 | 01:42:55 | 00:00:00 | |
| DO3MHA-12 | 2026-08-31 00:01:18 | 49.16051 | 10.26805 | 354° | 15km/h | 23642m | 4.2m/s | -53.4°C | 3.9% | 33.2hPa | 2.5V | 00:00:00 | 01:42:51 | 08:30:00 | |
| DL1XH-west | 2026-08-31 00:01:18 | 49.16074 | 10.26798 | 331° | 15km/h | 23680m | 6.4m/s | -53.5°C | 0.5% | 33hPa | 2.5V | 18:12:15 | 01:42:58 | 00:00:00 | |
| DM0DOS-11 | 2026-08-31 00:01:17 | 49.16056 | 10.26805 | 0° | 15km/h | 23652m | 5.6m/s | -53.5°C | 3.9% | 33.2hPa | 2.6V | 08:30:00 | 01:42:53 | 00:00:00 | |
| DG9SBQ-11 | 2026-08-31 00:01:16 | 49.16048 | 10.26806 | 347° | 13km/h | 23636m | 6.0m/s | -53.5°C | 1.0% | 33.2hPa | 2.6V | 00:00:00 | 00:00:00 | 00:00:00 | |
| DB0NH | 2026-08-31 00:01:15 | 49.16044 | 10.26808 | 338° | 11km/h | 23631m | 5.8m/s | -53.4°C | 3.9% | 33.2hPa | 2.6V | 00:00:00 | 01:42:49 | 00:00:00 | |
| DK7TD | 2026-08-31 00:01:14 | 49.16064 | 10.26804 | 348° | 15km/h | 23663m | 6.8m/s | -53.5°C | 0.4% | 33.1hPa | 2.5V | 18:12:15 | 01:42:55 | 00:00:00 | |
| SONCRA | 2026-08-31 00:01:12 | 49.16037 | 10.26814 | 325° | 16km/h | 23620m | 5.2m/s | -53.4°C | 1.0% | 33.3hPa | 2.6V | 00:00:00 | 00:00:00 | 00:00:00 | |
| DJ8HS-15 | 2026-08-31 00:01:11 | 49.16034 | 10.26817 | 324° | 9km/h | 23614m | 6.2m/s | -53.3°C | 3.9% | 33.3hPa | 2.6V | 00:00:00 | 01:42:46 | 00:00:00 | |
| DL1XH1-15 | 2026-08-31 00:01:10 | 49.16041 | 10.26811 | 330° | 18km/h | 23624m | 5.2m/s | -53.4°C | 3.9% | 33.3hPa | 2.6V | 08:30:00 | 01:42:48 | 00:00:00 | |
| HSKMA3-T | 2026-08-31 00:01:09 | 49.16048 | 10.26806 | 346° | 13km/h | 23636m | 6m/s | -53.5°C | 0.5% | 33.2hPa | 2.5V | 18:12:15 | 01:42:50 | 00:00:00 | |
| DL1XH-west | 2026-08-31 00:01:07 | 49.16037 | 10.26814 | 326° | 16km/h | 23620m | 5.2m/s | -53.4°C | 0.4% | 33.3hPa | 2.5V | 18:12:15 | 01:42:47 | 00:00:00 | |
| DF7PN | 2026-08-31 00:01:06 | 49.16018 | 10.26833 | 340° | 5km/h | 23580m | 6.1m/s | -53.6°C | 1.0% | 33.5hPa | 2.5V | 00:00:00 | 00:00:00 | 00:00:00 | |
| BIOWL1-15 | 2026-08-31 00:01:05 | 49.16004 | 10.26855 | 294° | 11km/h | 23521m | 4.3m/s | 0°C | 0% | 0hPa | 2.5V | 18:12:15 | 01:42:29 | 00:00:00 | |
| DM0DOS-11 | 2026-08-31 00:01:04 | 49.16026 | 10.26827 | 325° | 15km/h | 23597m | 6.1m/s | -53.5°C | 3.9% | 33.5hPa | 2.6V | 08:30:00 | 01:42:43 | 00:00:00 | |
| DL1XH1-15 | 2026-08-31 00:01:04 | 49.16016 | 10.26834 | 351° | 5km/h | 23570m | 5.2m/s | -53.6°C | 4% | 33.6hPa | 2.6V | 08:30:00 | 01:42:38 | 00:00:00 | |
| DK7TD | 2026-08-31 00:01:04 | 49.16029 | 10.26824 | 322° | 13km/h | 23603m | 5.5m/s | -53.4°C | 0.4% | 33.4hPa | 2.6V | 18:12:15 | 01:42:44 | 00:00:00 | |
| DL1ZP-14 | 2026-08-31 00:01:02 | 49.16016 | 10.26834 | 351° | 4km/h | 23570m | 5.2m/s | -53.6°C | 1.0% | 33.6hPa | 2.6V | 00:00:00 | 00:00:00 | 00:00:00 | |
| DG9SBQ-11 | 2026-08-31 00:01:01 | 49.16016 | 10.26834 | 353° | 5km/h | 23570m | 5.2m/s | -53.6°C | 1.0% | 33.6hPa | 2.5V | 00:00:00 | 00:00:00 | 00:00:00 | |
| HSKMA3-T | 2026-08-31 00:00:59 | 49.16018 | 10.26833 | 340° | 7km/h | 23580m | 6.1m/s | -53.6°C | 0.5% | 33.5hPa | 2.5V | 18:12:15 | 01:42:40 | 00:00:00 | |
| AZAK | 2026-08-31 00:00:58 | 49.16012 | 10.26836 | 337° | 9km/h | 23559m | 5.3m/s | -53.6°C | 1.0% | 33.6hPa | 2.6V | 00:00:00 | 00:00:00 | 00:00:00 | |
| DL1XH-west | 2026-08-31 00:00:57 | 49.16016 | 10.26834 | 352° | 5km/h | 23570m | 5.2m/s | -53.6°C | 0.5% | 33.6hPa | 2.6V | 18:12:15 | 01:42:38 | 00:00:00 | |
| DN1GJH-1 | 2026-08-31 00:00:55 | 49.16008 | 10.26840 | 313° | 9km/h | 23547m | 6.3m/s | -53.7°C | 1.1% | 33.7hPa | 2.5V | 00:00:00 | 00:00:00 | 00:00:00 | |
| DF3TZ-5 | 2026-08-31 00:00:54 | 49.16006 | 10.26846 | 281° | 7km/h | 23537m | 4.0m/s | -53.7°C | 1.0% | 33.8hPa | 2.5V | 00:00:00 | 00:00:00 | 00:00:00 | |
| DK7TD | 2026-08-31 00:00:53 | 49.16008 | 10.26840 | 312° | 9km/h | 23547m | 6.3m/s | -53.7°C | 0.5% | 33.7hPa | 2.5V | 18:12:15 | 01:42:34 | 00:00:00 | |
| SO1NDE-10 | 2026-08-31 00:00:51 | 49.16005 | 10.26852 | 301° | 13km/h | 23526m | 6.0m/s | -53.6°C | 4.0% | 33.8hPa | 2.5V | 00:00:00 | 01:42:30 | 00:00:00 | |
| HSKMA3-T | 2026-08-31 00:00:49 | 49.16005 | 10.26852 | 300° | 9km/h | 23526m | 6m/s | -53.7°C | 0.6% | 33.8hPa | 2.5V | 18:12:15 | 01:42:30 | 00:00:00 | |
| DL1XH1-15 | 2026-08-31 00:00:48 | 49.16003 | 10.26859 | 287° | 11km/h | 23515m | 6.1m/s | -53.7°C | 4% | 33.9hPa | 2.5V | 08:30:00 | 01:42:28 | 00:00:00 | |
| DL1XH-west | 2026-08-31 00:00:47 | 49.16003 | 10.26859 | 288° | 11km/h | 23516m | 6.1m/s | -53.7°C | 0.6% | 33.9hPa | 2.5V | 18:12:15 | 01:42:28 | 00:00:00 | |
| OE5WHR-10 | 2026-08-31 00:00:47 | 49.16003 | 10.26859 | 288° | 13km/h | 23516m | 6.0m/s | -53.6°C | 4.0% | 33.8hPa | 2.5V | 00:00:00 | 00:00:00 | 00:00:00 | |
| DL6DJ-15 | 2026-08-31 00:00:46 | 49.16002 | 10.26863 | 279° | 9km/h | 23510m | 5.6m/s | -53.7°C | 1.0% | 33.9hPa | 2.6V | 00:00:00 | 00:00:00 | 00:00:00 | |
| DJ8HS-15 | 2026-08-31 00:00:45 | 49.16002 | 10.26867 | 287° | 13km/h | 23505m | 5.1m/s | -53.6°C | 4.0% | 33.9hPa | 2.6V | 00:00:00 | 01:42:26 | 00:00:00 | |
| EDDB2-11 | 2026-08-31 00:00:44 | 49.15991 | 10.26881 | 319° | 9km/h | 23476m | 5.5m/s | -53.6°C | 1.0% | 34.1hPa | 2.5V | 00:00:00 | 00:00:00 | 00:00:00 | |
| DM0DOS-11 | 2026-08-31 00:00:43 | 49.15996 | 10.26876 | 330° | 13km/h | 23487m | 4.8m/s | -53.6°C | 4% | 34hPa | 2.5V | 08:30:00 | 01:42:23 | 00:00:00 | |
| DK7TD | 2026-08-31 00:00:43 | 49.15999 | 10.26874 | 322° | 13km/h | 23492m | 5.6m/s | -53.6°C | 0.5% | 34hPa | 2.5V | 18:12:15 | 01:42:24 | 00:00:00 | |
| DB0NH | 2026-08-31 00:00:42 | 49.15988 | 10.26887 | 306° | 15km/h | 23466m | 6.5m/s | -53.5°C | 4.0% | 34.1hPa | 2.5V | 00:00:00 | 01:42:19 | 00:00:00 | |
| BIOWL1-15 | 2026-08-31 00:00:40 | 49.15982 | 10.26911 | 279° | 16km/h | 23442m | 4.8m/s | 0°C | 0% | 0hPa | 2.5V | 18:12:15 | 01:42:15 | 00:00:00 | |
| DF8AY-15 | 2026-08-31 00:00:40 | 49.15984 | 10.26898 | 291° | 15km/h | 23454m | 5.1m/s | 0°C | 0% | 0hPa | 2.5V | 00:00:00 | 01:42:17 | 00:00:00 | |
| DF8AY | 2026-08-31 00:00:39 | 49.15990 | 10.26884 | 309° | 11km/h | 23471m | 4.7m/s | -53.6°C | 0.5% | 34.1hPa | 2.5V | 18:12:15 | 01:42:20 | 00:00:00 | |
| DL1NUX | 2026-08-31 00:00:38 | 49.15982 | 10.26911 | 279° | 16km/h | 23442m | 4.8m/s | -53.6°C | 4% | 34.3hPa | 2.5V | 08:30:00 | 01:42:15 | 00:00:00 | |
| HSKMA3-T | 2026-08-31 00:00:38 | 49.15988 | 10.26887 | 305° | 13km/h | 23465m | 6.6m/s | -53.6°C | 0.5% | 34.2hPa | 2.5V | 18:12:15 | 01:42:19 | 00:00:00 | |
| DM0DOS-11 | 2026-08-31 00:00:38 | 49.15980 | 10.26923 | 295° | 16km/h | 23432m | 6m/s | -53.6°C | 4% | 34.3hPa | 2.5V | 08:30:00 | 01:42:13 | 00:00:00 | |
| DG9SBQ-11 | 2026-08-31 00:00:37 | 49.15983 | 10.26904 | 285° | 16km/h | 23448m | 6.3m/s | -53.6°C | 1.0% | 34.3hPa | 2.6V | 00:00:00 | 00:00:00 | 00:00:00 | |
| DL1XH-west | 2026-08-31 00:00:36 | 49.15984 | 10.26898 | 291° | 18km/h | 23454m | 5.1m/s | -53.6°C | 0.5% | 34.2hPa | 2.6V | 18:12:15 | 01:42:17 | 00:00:00 | |
| DN1GJH-1 | 2026-08-31 00:00:35 | 49.15981 | 10.26917 | 285° | 16km/h | 23438m | 5.0m/s | -53.6°C | 1.1% | 34.3hPa | 2.5V | 00:00:00 | 00:00:00 | 00:00:00 | |
| DO3MHA-12 | 2026-08-31 00:00:33 | 49.15975 | 10.26932 | 327° | 11km/h | 23421m | 4.9m/s | -53.6°C | 4.0% | 34.3hPa | 2.5V | 00:00:00 | 01:42:11 | 00:00:00 | |
| DK7TD | 2026-08-31 00:00:32 | 49.15980 | 10.26923 | 296° | 16km/h | 23432m | 6m/s | -53.6°C | 0.5% | 34.3hPa | 2.5V | 18:12:15 | 01:42:13 | 00:00:00 | |
| DL1ZP-14 | 2026-08-31 00:00:30 | 49.15963 | 10.26933 | 8° | 13km/h | 23398m | 5.9m/s | -53.6°C | 1.0% | 34.5hPa | 2.5V | 00:00:00 | 00:00:00 | 00:00:00 | |
| OE5WHR-10 | 2026-08-31 00:00:29 | 49.15963 | 10.26933 | 9° | 13km/h | 23398m | 5.8m/s | -53.5°C | 4.0% | 34.4hPa | 2.5V | 00:00:00 | 00:00:00 | 00:00:00 | |
| DF8AY | 2026-08-31 00:00:28 | 49.15969 | 10.26934 | 5° | 11km/h | 23410m | 5.6m/s | -53.6°C | 0.5% | 34.4hPa | 2.5V | 18:12:15 | 01:42:09 | 00:00:00 | |
| DL1NUX | 2026-08-31 00:00:28 | 49.15956 | 10.26933 | 348° | 11km/h | 23388m | 5.1m/s | -53.5°C | 4% | 34.6hPa | 2.6V | 08:30:00 | 01:42:05 | 00:00:00 | |
| HSKMA3-T | 2026-08-31 00:00:27 | 49.15966 | 10.26934 | 13° | 13km/h | 23404m | 5.6m/s | -53.6°C | 0.5% | 34.5hPa | 2.5V | 18:12:15 | 01:42:08 | 00:00:00 | |
| DL1XH-west | 2026-08-31 00:00:25 | 49.15957 | 10.26933 | 348° | 11km/h | 23388m | 5.1m/s | -53.6°C | 0.5% | 34.6hPa | 2.6V | 18:12:15 | 01:42:05 | 00:00:00 | |
| DO3MHA-12 | 2026-08-31 00:00:25 | 49.15950 | 10.26946 | 289° | 16km/h | 23365m | 5.5m/s | -53.4°C | 3.9% | 34.7hPa | 2.5V | 00:00:00 | 01:42:01 | 00:00:00 | |
| DF3TZ-5 | 2026-08-31 00:00:24 | 49.15949 | 10.26953 | 285° | 20km/h | 23360m | 4.5m/s | -53.4°C | 1.0% | 34.7hPa | 2.5V | 00:00:00 | 00:00:00 | 00:00:00 | |
| DK7TD | 2026-08-31 00:00:22 | 49.15951 | 10.26941 | 292° | 15km/h | 23371m | 6.3m/s | -53.5°C | 0.5% | 34.7hPa | 2.5V | 18:12:15 | 01:42:02 | 00:00:00 | |
| OE5DXL-15 | 2026-08-31 00:00:20 | 49.15946 | 10.26968 | 285° | 13km/h | 23350m | 5.2m/s | -53.3°C | 3.9% | 34.8hPa | 2.6V | 00:00:00 | 00:00:00 | 00:00:00 | |
| DL1NUX | 2026-08-31 00:00:19 | 49.15940 | 10.26985 | 314° | 16km/h | 23333m | 5.4m/s | -53.4°C | 3.9% | 34.9hPa | 2.6V | 08:30:00 | 01:41:55 | 00:00:00 | |
| DL6DJ-15 | 2026-08-31 00:00:19 | 49.15943 | 10.26980 | 301° | 16km/h | 23339m | 6.4m/s | -53.4°C | 1.0% | 34.9hPa | 2.5V | 00:00:00 | 00:00:00 | 00:00:00 | |
| DF8AY | 2026-08-31 00:00:18 | 49.15943 | 10.26980 | 302° | 16km/h | 23339m | 6.4m/s | -53.4°C | 0.5% | 34.9hPa | 2.5V | 18:12:15 | 01:41:56 | 00:00:00 | |
| HSKMA3-T | 2026-08-31 00:00:18 | 49.15946 | 10.26968 | 284° | 18km/h | 23349m | 5.2m/s | -53.4°C | 0.5% | 34.8hPa | 2.5V | 18:12:15 | 01:41:58 | 00:00:00 | |
| DL1XH-west | 2026-08-31 00:00:15 | 49.15940 | 10.26985 | 315° | 16km/h | 23333m | 5.4m/s | -53.4°C | 0.5% | 34.9hPa | 2.6V | 18:12:15 | 01:41:55 | 00:00:00 | |
| DG9SBQ-11 | 2026-08-31 00:00:14 | 49.15938 | 10.26988 | 328° | 13km/h | 23328m | 4.9m/s | -53.3°C | 1.0% | 34.9hPa | 2.5V | 00:00:00 | 00:00:00 | 00:00:00 | |
| DB0UT-7 | 2026-08-31 00:00:13 | 49.15933 | 10.26991 | 358° | 15km/h | 23317m | 5.2m/s | -53.3°C | 3.9% | 34.9hPa | 2.5V | 00:00:00 | 01:41:52 | 00:00:00 | |
| DK7TD | 2026-08-31 00:00:12 | 49.15933 | 10.26991 | 358° | 7km/h | 23317m | 5.3m/s | -53.4°C | 0.4% | 34.9hPa | 2.5V | 18:12:15 | 01:41:52 | 00:00:00 | |
| DO3MHA-12 | 2026-08-31 00:00:12 | 49.15931 | 10.26991 | 356° | 13km/h | 23312m | 5.5m/s | -53.3°C | 3.9% | 34.9hPa | 2.5V | 00:00:00 | 01:41:51 | 00:00:00 | |
| DB0NH | 2026-08-31 00:00:10 | 49.15928 | 10.26994 | 304° | 13km/h | 23300m | 4.5m/s | -53.3°C | 3.9% | 35.0hPa | 2.6V | 00:00:00 | 01:41:49 | 00:00:00 | |
| DG9SBQ-11 | 2026-08-31 00:00:09 | 49.15927 | 10.26997 | 284° | 9km/h | 23295m | 6.4m/s | -53.4°C | 1.0% | 35.1hPa | 2.6V | 00:00:00 | 00:00:00 | 00:00:00 | |
| DJTTGO | 2026-08-31 00:00:07 | 49.15927 | 10.27006 | 272° | 15km/h | 23283m | 5.0m/s | -53.4°C | 1.0% | 35.1hPa | 2.6V | 00:00:00 | 00:00:00 | 00:00:00 | |
| DF8AY | 2026-08-31 00:00:07 | 49.15928 | 10.26997 | 283° | 9km/h | 23294m | 6.4m/s | -53.4°C | 0.5% | 35.1hPa | 2.5V | 18:12:15 | 01:41:48 | 00:00:00 | |
| DM0DOS-11 | 2026-08-31 00:00:06 | 49.15924 | 10.27027 | 289° | 22km/h | 23267m | 4.3m/s | -53.4°C | 3.9% | 35.2hPa | 2.6V | 08:30:00 | 01:41:43 | 00:00:00 | |
| HSKMA3-T | 2026-08-31 00:00:06 | 49.15927 | 10.27001 | 268° | 11km/h | 23289m | 5.6m/s | -53.4°C | 0.5% | 35.1hPa | 2.5V | 18:12:15 | 01:41:47 | 00:00:00 | |
| SONCRA | 2026-08-31 00:00:06 | 49.15927 | 10.27012 | 277° | 18km/h | 23277m | 6.6m/s | -53.4°C | 1.0% | 35.2hPa | 2.5V | 00:00:00 | 00:00:00 | 00:00:00 | |
| DL1XH-west | 2026-08-31 00:00:05 | 49.15927 | 10.27012 | 277° | 18km/h | 23277m | 6.6m/s | -53.4°C | 0.5% | 35.2hPa | 2.5V | 18:12:15 | 01:41:45 | 00:00:00 | |
| DG9SBQ-11 | 2026-08-31 00:00:02 | 49.15924 | 10.27027 | 290° | 22km/h | 23267m | 4.3m/s | -53.4°C | 1.0% | 35.2hPa | 2.5V | 00:00:00 | 00:00:00 | 00:00:00 | |
| DL1XH1-15 | 2026-08-31 00:00:01 | 49.15916 | 10.27045 | 357° | 9km/h | 23241m | 5.6m/s | -53.4°C | 3.9% | 35.3hPa | 2.5V | 08:30:00 | 01:41:38 | 00:00:00 | |
| DK7TD | 2026-08-31 00:00:01 | 49.15923 | 10.27035 | 292° | 18km/h | 23262m | 5.7m/s | -53.4°C | 0.5% | 35.2hPa | 2.6V | 18:12:15 | 01:41:42 | 00:00:00 | |
| DO3MHA-12 | 2026-08-31 00:00:00 | 49.15921 | 10.27040 | 298° | 11km/h | 23257m | 5.9m/s | -53.3°C | 3.9% | 35.2hPa | 2.5V | 00:00:00 | 01:41:41 | 00:00:00 | |
| DF7PN | 2026-08-30 23:59:57 | 49.15916 | 10.27045 | 357° | 9km/h | 23241m | 5.6m/s | -53.4°C | 1.0% | 35.4hPa | 2.5V | 00:00:00 | 00:00:00 | 00:00:00 | |
| HSKMA3-T | 2026-08-30 23:59:56 | 49.15913 | 10.27045 | 351° | 13km/h | 23236m | 5.5m/s | -53.4°C | 0.5% | 35.4hPa | 2.5V | 18:12:15 | 01:41:37 | 00:00:00 | |
| DL1ZP-14 | 2026-08-30 23:59:55 | 49.15907 | 10.27049 | 319° | 11km/h | 23226m | 5.0m/s | -53.4°C | 1.0% | 35.5hPa | 2.6V | 00:00:00 | 00:00:00 | 00:00:00 | |
| DL1XH-west | 2026-08-30 23:59:53 | 49.15905 | 10.27052 | 302° | 11km/h | 23220m | 6m/s | -53.4°C | 0.5% | 35.5hPa | 2.5V | 18:12:15 | 01:41:34 | 00:00:00 | |
| DM0DOS-11 | 2026-08-30 23:59:53 | 49.15904 | 10.27056 | 284° | 11km/h | 23214m | 5m/s | -53.5°C | 3.9% | 35.5hPa | 2.5V | 08:30:00 | 01:41:33 | 00:00:00 | |
| DL1XH1-15 | 2026-08-30 23:59:51 | 49.15898 | 10.27085 | 289° | 18km/h | 23189m | 5.8m/s | -53.6°C | 3.9% | 35.6hPa | 2.5V | 08:30:00 | 01:41:28 | 00:00:00 | |
| DK7TD | 2026-08-30 23:59:51 | 49.15904 | 10.27060 | 283° | 13km/h | 23210m | 4.7m/s | -53.5°C | 0.5% | 35.5hPa | 2.5V | 18:12:15 | 01:41:32 | 00:00:00 | |
| DO3MHA-12 | 2026-08-30 23:59:50 | 49.15903 | 10.27065 | 285° | 15km/h | 23205m | 6.1m/s | -53.5°C | 3.9% | 35.5hPa | 2.5V | 00:00:00 | 01:41:31 | 00:00:00 | |
| DF3TZ-5 | 2026-08-30 23:59:49 | 49.15900 | 10.27078 | 291° | 18km/h | 23194m | 4.6m/s | -53.6°C | 1.0% | 35.6hPa | 2.5V | 00:00:00 | 00:00:00 | 00:00:00 | |
| OE5DXL-15 | 2026-08-30 23:59:47 | 49.15898 | 10.27085 | 290° | 16km/h | 23189m | 5.7m/s | -53.6°C | 3.9% | 35.6hPa | 2.5V | 00:00:00 | 00:00:00 | 00:00:00 | |
| DM0DOS-11 | 2026-08-30 23:59:46 | 49.15890 | 10.27109 | 331° | 15km/h | 23161m | 5.2m/s | -53.7°C | 4% | 35.8hPa | 2.5V | 08:30:00 | 01:41:23 | 00:00:00 | |
| HSKMA3-T | 2026-08-30 23:59:45 | 49.15896 | 10.27097 | 286° | 15km/h | 23178m | 5.2m/s | -53.6°C | 0.5% | 35.7hPa | 2.5V | 18:12:15 | 01:41:26 | 00:00:00 | |
| DJ8HS-15 | 2026-08-30 23:59:44 | 49.15894 | 10.27102 | 300° | 15km/h | 23173m | 5.0m/s | -53.6°C | 4.0% | 35.7hPa | 2.6V | 00:00:00 | 01:41:25 | 00:00:00 | |
| DL1XH-west | 2026-08-30 23:59:43 | 49.15892 | 10.27106 | 317° | 13km/h | 23167m | 6.5m/s | -53.7°C | 0.5% | 35.8hPa | 2.6V | 18:12:15 | 01:41:24 | 00:00:00 | |
| OE5WHR-10 | 2026-08-30 23:59:42 | 49.15890 | 10.27108 | 332° | 15km/h | 23161m | 5.2m/s | -53.7°C | 4.0% | 35.7hPa | 2.5V | 00:00:00 | 00:00:00 | 00:00:00 | |
| DL1XH1-15 | 2026-08-30 23:59:41 | 49.15879 | 10.27115 | 313° | 9km/h | 23133m | 6m/s | -53.9°C | 4.1% | 36hPa | 2.6V | 08:30:00 | 01:41:18 | 00:00:00 | |
| DK7TD | 2026-08-30 23:59:40 | 49.15884 | 10.27112 | 347° | 9km/h | 23150m | 6.2m/s | -53.8°C | 0.6% | 35.9hPa | 2.5V | 18:12:15 | 01:41:21 | 00:00:00 | |
| DO3MHA-12 | 2026-08-30 23:59:40 | 49.15884 | 10.27112 | 347° | 15km/h | 23150m | 6.1m/s | -53.8°C | 4.0% | 35.8hPa | 2.5V | 00:00:00 | 01:41:21 | 08:30:00 | |
| DB0ND-19 | 2026-08-30 23:59:39 | 49.15881 | 10.27113 | 334° | 5km/h | 23139m | 5.7m/s | -53.9°C | 1.0% | 35.9hPa | 2.6V | 00:00:00 | 00:00:00 | 00:00:00 | |
| EDDB2-11 | 2026-08-30 23:59:38 | 49.15881 | 10.27113 | 334° | 5km/h | 23139m | 5.7m/s | -53.9°C | 1.0% | 35.9hPa | 2.6V | 00:00:00 | 00:00:00 | 00:00:00 | |
| DB0NH | 2026-08-30 23:59:37 | 49.15879 | 10.27115 | 314° | 16km/h | 23133m | 5.9m/s | -53.9°C | 4.1% | 35.9hPa | 2.6V | 00:00:00 | 01:41:18 | 08:30:00 | |
| DL1NUX | 2026-08-30 23:59:36 | 49.15873 | 10.27151 | 294° | 24km/h | 23099m | 5m/s | -53.9°C | 4.2% | 36.1hPa | 2.5V | 08:30:00 | 01:41:12 | 00:00:00 | |
| SO1NDE-10 | 2026-08-30 23:59:36 | 49.15877 | 10.27118 | 294° | 15km/h | 23128m | 4.5m/s | -53.9°C | 4.1% | 36.0hPa | 2.5V | 00:00:00 | 01:41:17 | 00:00:00 | |
| HSKMA3-T | 2026-08-30 23:59:35 | 49.15877 | 10.27123 | 280° | 13km/h | 23122m | 6.5m/s | -54°C | 0.6% | 36hPa | 2.5V | 18:12:15 | 01:41:16 | 00:00:00 | |
| DM0DOS-11 | 2026-08-30 23:59:33 | 49.15875 | 10.27143 | 286° | 22km/h | 23105m | 6.5m/s | -54°C | 4.1% | 36.1hPa | 2.5V | 08:30:00 | 01:41:13 | 00:00:00 | |
| DL1XH-west | 2026-08-30 23:59:33 | 49.15876 | 10.27135 | 279° | 20km/h | 23111m | 5.1m/s | -54°C | 0.6% | 36.1hPa | 2.5V | 18:12:15 | 01:41:14 | 00:00:00 | |
| DL1XH1-15 | 2026-08-30 23:59:31 | 49.15861 | 10.27174 | 331° | 18km/h | 23077m | 6.7m/s | -53.8°C | 4.1% | 36.3hPa | 2.5V | 08:30:00 | 01:41:08 | 00:00:00 | |
| DK7TD | 2026-08-30 23:59:30 | 49.15870 | 10.27159 | 300° | 22km/h | 23094m | 6.1m/s | -53.9°C | 0.6% | 36.2hPa | 2.6V | 18:12:15 | 01:41:11 | 00:00:00 | |
| DO3MHA-12 | 2026-08-30 23:59:30 | 49.15870 | 10.27159 | 300° | 16km/h | 23094m | 6.1m/s | -53.9°C | 4.1% | 36.1hPa | 2.6V | 00:00:00 | 01:41:11 | 00:00:00 | |
| DG9SBQ-11 | 2026-08-30 23:59:28 | 49.15868 | 10.27165 | 309° | 18km/h | 23088m | 5.5m/s | -53.9°C | 1.1% | 36.2hPa | 2.6V | 00:00:00 | 00:00:00 | 00:00:00 | |
| DM0DOS-11 | 2026-08-30 23:59:26 | 49.15844 | 10.27187 | 301° | 15km/h | 23050m | 5.7m/s | -53.7°C | 4% | 36.4hPa | 2.6V | 08:30:00 | 01:41:03 | 00:00:00 | |
| HSKMA3-T | 2026-08-30 23:59:25 | 49.15852 | 10.27179 | 342° | 16km/h | 23065m | 5.4m/s | -53.8°C | 0.6% | 36.4hPa | 2.5V | 18:12:15 | 01:41:06 | 00:00:00 | |
| DJ8HS-15 | 2026-08-30 23:59:24 | 49.15849 | 10.27180 | 338° | 15km/h | 23060m | 5.6m/s | -53.7°C | 4.1% | 36.3hPa | 2.5V | 00:00:00 | 01:41:05 | 00:00:00 | |
| DL1XH-west | 2026-08-30 23:59:23 | 49.15846 | 10.27183 | 315° | 11km/h | 23055m | 4m/s | -53.7°C | 0.5% | 36.4hPa | 2.5V | 18:12:15 | 01:41:04 | 00:00:00 | |
| DF8AY-15 | 2026-08-30 23:59:22 | 49.15845 | 10.27187 | 302° | 13km/h | 23051m | 5.6m/s | 0°C | 0% | 0hPa | 2.5V | 00:00:00 | 01:41:03 | 00:00:00 | |
| OE5WHR-10 | 2026-08-30 23:59:21 | 49.15843 | 10.27192 | 294° | 15km/h | 23045m | 5.7m/s | -53.7°C | 4.0% | 0hPa | 2.5V | 00:00:00 | 00:00:00 | 00:00:00 | |
| DO3MHA-12 | 2026-08-30 23:59:20 | 49.15841 | 10.27199 | 287° | 16km/h | 23040m | 4.8m/s | -53.7°C | 4.0% | 36.5hPa | 2.5V | 00:00:00 | 01:41:01 | 00:00:00 | |
| DK7TD | 2026-08-30 23:59:19 | 49.15840 | 10.27207 | 280° | 22km/h | 23034m | 5.3m/s | -53.8°C | 0.5% | 36.5hPa | 2.5V | 18:12:15 | 01:41:00 | 00:00:00 | |
| DF3TZ-5 | 2026-08-30 23:59:18 | 49.15839 | 10.27223 | 268° | 16km/h | 23023m | 5.1m/s | -53.8°C | 1.0% | 36.6hPa | 2.5V | 00:00:00 | 00:00:00 | 00:00:00 | |
| NBG1-10 | 2026-08-30 23:59:17 | 49.15839 | 10.27223 | 269° | 15km/h | 23023m | 5.1m/s | -53.8°C | 4.0% | 36.5hPa | 2.5V | 00:00:00 | 01:40:58 | 00:00:00 | |
| DL1NUX | 2026-08-30 23:59:16 | 49.15831 | 10.27251 | 321° | 9km/h | 22990m | 4.8m/s | -53.7°C | 4% | 36.8hPa | 2.5V | 08:30:00 | 01:40:52 | 00:00:00 | |
| HSKMA3-T | 2026-08-30 23:59:14 | 49.15837 | 10.27240 | 300° | 15km/h | 23007m | 5.3m/s | -53.8°C | 0.5% | 36.7hPa | 2.6V | 18:12:15 | 01:40:55 | 00:00:00 | |
| DL6DJ-15 | 2026-08-30 23:59:13 | 49.15835 | 10.27245 | 308° | 13km/h | 23002m | 5.1m/s | -53.8°C | 1.0% | 36.7hPa | 2.6V | 00:00:00 | 00:00:00 | 00:00:00 | |
| DM0DOS-11 | 2026-08-30 23:59:12 | 49.15833 | 10.27248 | 311° | 11km/h | 22996m | 6.5m/s | -53.7°C | 4.1% | 36.7hPa | 2.6V | 08:30:00 | 01:40:53 | 00:00:00 | |
| DL1XH-west | 2026-08-30 23:59:12 | 49.15833 | 10.27248 | 312° | 11km/h | 22996m | 6.5m/s | -53.7°C | 0.6% | 36.7hPa | 2.6V | 18:12:15 | 01:40:53 | 00:00:00 | |
| DG9SBQ-11 | 2026-08-30 23:59:11 | 49.15833 | 10.27248 | 313° | 11km/h | 22996m | 6.5m/s | -53.7°C | 1.1% | 36.7hPa | 2.5V | 00:00:00 | 00:00:00 | 00:00:00 | |
| DO3MHA-12 | 2026-08-30 23:59:10 | 49.15829 | 10.27253 | 330° | 13km/h | 22985m | 5.9m/s | -53.6°C | 4.0% | 36.8hPa | 2.5V | 00:00:00 | 01:40:51 | 00:00:00 | |
| DK7TD | 2026-08-30 23:59:09 | 49.15827 | 10.27255 | 330° | 11km/h | 22979m | 5.6m/s | -53.7°C | 0.5% | 36.8hPa | 2.5V | 18:12:15 | 01:40:50 | 00:00:00 | |
| DB0ND-19 | 2026-08-30 23:59:08 | 49.15823 | 10.27260 | 310° | 9km/h | 22968m | 6.3m/s | -53.6°C | 1.0% | 36.9hPa | 2.5V | 00:00:00 | 00:00:00 | 00:00:00 | |
| DB0UT-7 | 2026-08-30 23:59:07 | 49.15823 | 10.27260 | 311° | 15km/h | 22968m | 6.3m/s | -53.6°C | 4.0% | 36.9hPa | 2.5V | 00:00:00 | 00:00:00 | 00:00:00 | |
| DM0DOS-11 | 2026-08-30 23:59:06 | 49.15818 | 10.27283 | 292° | 16km/h | 22942m | 4.7m/s | -53.6°C | 4% | 37.1hPa | 2.5V | 08:30:00 | 01:40:43 | 00:00:00 | |
| DL1NUX | 2026-08-30 23:59:06 | 49.15816 | 10.27288 | 294° | 15km/h | 22937m | 5.4m/s | -53.7°C | 4% | 37.1hPa | 2.5V | 08:30:00 | 01:40:42 | 00:00:00 | |
| SO1NDE-10 | 2026-08-30 23:59:06 | 49.15821 | 10.27263 | 286° | 15km/h | 22963m | 4.9m/s | -53.6°C | 4.0% | 36.9hPa | 2.6V | 00:00:00 | 01:40:47 | 00:00:00 | |
| HSKMA3-T | 2026-08-30 23:59:04 | 49.15821 | 10.27272 | 282° | 13km/h | 22953m | 5.7m/s | -53.6°C | 0.5% | 37hPa | 2.6V | 18:12:15 | 01:40:45 | 00:00:00 | |
| DJ8HS-15 | 2026-08-30 23:59:04 | 49.15821 | 10.27272 | 282° | 15km/h | 22953m | 5.7m/s | -53.6°C | 4.0% | 37.0hPa | 2.5V | 00:00:00 | 01:40:45 | 00:00:00 | |
| DF8AY | 2026-08-30 23:59:03 | 49.15820 | 10.27277 | 288° | 16km/h | 22947m | 5.7m/s | -53.7°C | 0.5% | 37hPa | 2.5V | 18:12:15 | 01:40:44 | 00:00:00 | |
| DL1XH1-15 | 2026-08-30 23:59:02 | 49.15810 | 10.27302 | 314° | 13km/h | 22914m | 5.7m/s | -53.7°C | 4.1% | 37.2hPa | 2.6V | 08:30:00 | 01:40:38 | 00:00:00 | |
| DF8AY-15 | 2026-08-30 23:59:02 | 49.15818 | 10.27283 | 293° | 15km/h | 22942m | 4.7m/s | 0°C | 0% | 0hPa | 2.5V | 00:00:00 | 01:40:43 | 00:00:00 | |
| DL1XH-west | 2026-08-30 23:59:01 | 49.15817 | 10.27288 | 295° | 15km/h | 22937m | 5.4m/s | -53.7°C | 0.5% | 37.1hPa | 2.5V | 18:12:15 | 01:40:42 | 00:00:00 | |
| BIOWL1-15 | 2026-08-30 23:58:59 | 49.15814 | 10.27296 | 305° | 9km/h | 22926m | 5.1m/s | 0°C | 0% | 0hPa | 2.5V | 18:12:15 | 01:40:40 | 00:00:00 | |
| DK7TD | 2026-08-30 23:58:58 | 49.15812 | 10.27299 | 312° | 11km/h | 22920m | 6.3m/s | -53.7°C | 0.5% | 37.2hPa | 2.6V | 18:12:15 | 01:40:39 | 00:00:00 | |
| DL1NUX | 2026-08-30 23:58:56 | 49.15805 | 10.27331 | 278° | 20km/h | 22881m | 5.4m/s | -53.6°C | 4% | 37.4hPa | 2.6V | 08:30:00 | 01:40:32 | 00:00:00 | |
| OE5DRO-10 | 2026-08-30 23:58:55 | 49.15806 | 10.27310 | 300° | 16km/h | 22904m | 5.7m/s | -53.6°C | 4.1% | 37.3hPa | 2.5V | 00:00:00 | 00:00:00 | 00:00:00 | |
| DG9SBQ-11 | 2026-08-30 23:58:54 | 49.15806 | 10.27310 | 300° | 11km/h | 22904m | 5.8m/s | -53.7°C | 1.1% | 37.3hPa | 2.5V | 00:00:00 | 00:00:00 | 00:00:00 | |
| DM0DOS-11 | 2026-08-30 23:58:53 | 49.15805 | 10.27324 | 271° | 16km/h | 22886m | 6.1m/s | -53.6°C | 4% | 37.4hPa | 2.5V | 08:30:00 | 01:40:33 | 00:00:00 | |
| HSKMA3-T | 2026-08-30 23:58:53 | 49.15805 | 10.27319 | 270° | 15km/h | 22892m | 4.8m/s | -53.6°C | 0.6% | 37.4hPa | 2.5V | 18:12:15 | 01:40:34 | 00:00:00 | |
| DL1ZP-14 | 2026-08-30 23:58:53 | 49.15805 | 10.27324 | 271° | 16km/h | 22887m | 6.1m/s | -53.6°C | 1.0% | 37.4hPa | 2.5V | 00:00:00 | 00:00:00 | 00:00:00 | |
| DL1XH1-15 | 2026-08-30 23:58:52 | 49.15799 | 10.27358 | 301° | 16km/h | 22860m | 4.9m/s | -53.5°C | 3.9% | 37.5hPa | 2.5V | 08:30:00 | 01:40:28 | 00:00:00 | |
| DL1XH-west | 2026-08-30 23:58:51 | 49.15805 | 10.27331 | 279° | 20km/h | 22881m | 5.4m/s | -53.6°C | 0.5% | 37.4hPa | 2.6V | 18:12:15 | 01:40:32 | 00:00:00 | |
| DK7TD | 2026-08-30 23:58:48 | 49.15801 | 10.27352 | 291° | 16km/h | 22865m | 5.3m/s | -53.5°C | 0.5% | 37.5hPa | 2.5V | 18:12:15 | 01:40:29 | 00:00:00 | |
| DF3TZ-5 | 2026-08-30 23:58:47 | 49.15797 | 10.27363 | 312° | 16km/h | 22854m | 6.3m/s | -53.5°C | 1.0% | 37.6hPa | 2.5V | 00:00:00 | 00:00:00 | 00:00:00 | |
| DM0DOS-11 | 2026-08-30 23:58:46 | 49.15786 | 10.27378 | 285° | 7km/h | 22833m | 4.5m/s | -53.4°C | 3.9% | 37.7hPa | 2.5V | 08:30:00 | 01:40:23 | 00:00:00 | |
| DL1NUX | 2026-08-30 23:58:46 | 49.15786 | 10.27381 | 255° | 9km/h | 22829m | 4.3m/s | -53.4°C | 3.9% | 37.7hPa | 2.5V | 08:30:00 | 01:40:22 | 00:00:00 | |
| HSKMA3-T | 2026-08-30 23:58:42 | 49.15786 | 10.27378 | 285° | 7km/h | 22833m | 4.5m/s | -53.4°C | 0.5% | 37.7hPa | 2.5V | 18:12:15 | 01:40:23 | 00:00:00 | |
| DL1XH-west | 2026-08-30 23:58:40 | 49.15787 | 10.27385 | 253° | 11km/h | 22823m | 6m/s | -53.4°C | 0.5% | 37.8hPa | 2.6V | 18:12:15 | 01:40:21 | 00:00:00 | |
| DK7TD | 2026-08-30 23:58:37 | 49.15789 | 10.27402 | 257° | 18km/h | 22807m | 5.9m/s | -53.4°C | 0.4% | 37.8hPa | 2.5V | 18:12:15 | 01:40:18 | 00:00:00 | |
| DL1NUX | 2026-08-30 23:58:36 | 49.15789 | 10.27435 | 292° | 13km/h | 22777m | 3.4m/s | -53.5°C | 3.9% | 38hPa | 2.5V | 08:30:00 | 01:40:12 | 00:00:00 | |
| HSKMA3-T | 2026-08-30 23:58:32 | 49.15790 | 10.27430 | 296° | 15km/h | 22781m | 4.5m/s | -53.5°C | 0.5% | 38hPa | 2.5V | 18:12:15 | 01:40:13 | 00:00:00 | |
| DL1XH-west | 2026-08-30 23:58:29 | 49.15788 | 10.27441 | 238° | 7km/h | 22767m | 6.1m/s | -53.5°C | 0.5% | 38.1hPa | 2.6V | 18:12:15 | 01:40:10 | 00:00:00 | |
| DK7TD | 2026-08-30 23:58:27 | 49.15792 | 10.27445 | 201° | 13km/h | 22756m | 5.1m/s | -53.6°C | 0.5% | 38.1hPa | 2.5V | 18:12:15 | 01:40:08 | 00:00:00 | |
| DJ8HS-15 | 2026-08-30 23:58:24 | 49.15800 | 10.27453 | 231° | 11km/h | 22741m | 5.4m/s | -53.5°C | 4.0% | 38.2hPa | 2.6V | 00:00:00 | 01:40:05 | 00:00:00 | |
| DL1XH1-15 | 2026-08-30 23:58:22 | 49.15797 | 10.27480 | 275° | 13km/h | 22704m | 6m/s | -53.6°C | 4% | 38.5hPa | 2.6V | 08:30:00 | 01:39:58 | 00:00:00 | |
| HSKMA3-T | 2026-08-30 23:58:21 | 49.15801 | 10.27461 | 289° | 9km/h | 22725m | 4.7m/s | -53.6°C | 0.5% | 38.3hPa | 2.5V | 18:12:15 | 01:40:02 | 00:00:00 | |
| DL1XH-west | 2026-08-30 23:58:19 | 49.15799 | 10.27469 | 291° | 15km/h | 22714m | 5.6m/s | -53.6°C | 0.5% | 38.4hPa | 2.5V | 18:12:15 | 01:40:00 | 00:00:00 | |
| DF8AY | 2026-08-30 23:58:17 | 49.15797 | 10.27480 | 276° | 13km/h | 22704m | 6m/s | -53.6°C | 0.5% | 38.5hPa | 2.6V | 18:12:15 | 01:39:58 | 00:00:00 | |
| DK7TD | 2026-08-30 23:58:16 | 49.15798 | 10.27485 | 262° | 11km/h | 22699m | 5.3m/s | -53.6°C | 0.5% | 38.5hPa | 2.6V | 18:12:15 | 01:39:57 | 00:00:00 | |
| DF3TZ-5 | 2026-08-30 23:58:15 | 49.15798 | 10.27489 | 252° | 9km/h | 22694m | 4.8m/s | -53.6°C | 1.0% | 38.5hPa | 2.5V | 00:00:00 | 00:00:00 | 00:00:00 | |
| OE5DRO-10 | 2026-08-30 23:58:14 | 49.15799 | 10.27493 | 254° | 9km/h | 22688m | 6.0m/s | -53.6°C | 4.0% | 38.5hPa | 2.5V | 00:00:00 | 00:00:00 | 00:00:00 | |
| DL1XH1-15 | 2026-08-30 23:58:12 | 49.15802 | 10.27519 | 265° | 11km/h | 22652m | 4.3m/s | -53.4°C | 4% | 38.8hPa | 2.5V | 08:30:00 | 01:39:48 | 00:00:00 | |
| HSKMA3-T | 2026-08-30 23:58:11 | 49.15801 | 10.27506 | 252° | 9km/h | 22673m | 5.9m/s | -53.6°C | 0.5% | 38.6hPa | 2.5V | 18:12:15 | 01:39:52 | 00:00:00 | |
| DL1XH-west | 2026-08-30 23:58:08 | 49.15802 | 10.27515 | 269° | 11km/h | 22657m | 5.6m/s | -53.5°C | 0.5% | 38.8hPa | 2.6V | 18:12:15 | 01:39:49 | 00:00:00 | |
| DF8AY | 2026-08-30 23:58:06 | 49.15803 | 10.27523 | 255° | 11km/h | 22648m | 5m/s | -53.4°C | 0.5% | 38.8hPa | 2.5V | 18:12:15 | 01:39:47 | 00:00:00 | |
| DM0DOS-11 | 2026-08-30 23:58:06 | 49.15809 | 10.27535 | 230° | 9km/h | 22625m | 6.2m/s | -53.3°C | 3.9% | 39hPa | 2.6V | 08:30:00 | 01:39:43 | 00:00:00 | |
| DK7TD | 2026-08-30 23:58:05 | 49.15804 | 10.27527 | 238° | 11km/h | 22642m | 6m/s | -53.4°C | 0.5% | 38.8hPa | 2.5V | 18:12:15 | 01:39:46 | 00:00:00 | |
| DJ8HS-15 | 2026-08-30 23:58:04 | 49.15806 | 10.27530 | 222° | 5km/h | 22637m | 5.1m/s | -53.3°C | 3.9% | 38.8hPa | 2.5V | 00:00:00 | 01:39:45 | 00:00:00 | |
| DL1XH1-15 | 2026-08-30 23:58:02 | 49.15812 | 10.27545 | 268° | 5km/h | 22599m | 5.1m/s | -53.4°C | 3.9% | 39.1hPa | 2.5V | 08:30:00 | 01:39:38 | 00:00:00 | |
| HSKMA3-T | 2026-08-30 23:58:00 | 49.15811 | 10.27540 | 260° | 5km/h | 22615m | 4.2m/s | -53.3°C | 0.4% | 39hPa | 2.6V | 18:12:15 | 01:39:41 | 00:00:00 | |
| DF8AY | 2026-08-30 23:57:58 | 49.15811 | 10.27548 | 277° | 7km/h | 22594m | 5.8m/s | -53.5°C | 0.5% | 39.1hPa | 2.5V | 18:12:15 | 01:39:37 | 00:00:00 | |
| DL1XH-west | 2026-08-30 23:57:57 | 49.15811 | 10.27545 | 268° | 5km/h | 22599m | 5.1m/s | -53.4°C | 0.4% | 39.1hPa | 2.5V | 18:12:15 | 01:39:38 | 00:00:00 | |
| DK7TD | 2026-08-30 23:57:55 | 49.15811 | 10.27551 | 280° | 9km/h | 22589m | 4.7m/s | -53.5°C | 0.4% | 39.1hPa | 2.5V | 18:12:15 | 01:39:36 | 00:00:00 | |
| DF7PN | 2026-08-30 23:57:53 | 49.15812 | 10.27558 | 236° | 4km/h | 22573m | 4.7m/s | -53.7°C | 1.0% | 39.2hPa | 2.6V | 00:00:00 | 00:00:00 | 00:00:00 | |
| DL1XH1-15 | 2026-08-30 23:57:52 | 49.15816 | 10.27567 | 195° | 5km/h | 22547m | 5.7m/s | -53.8°C | 3.9% | 39.4hPa | 2.6V | 08:30:00 | 01:39:28 | 00:00:00 | |
| HSKMA3-T | 2026-08-30 23:57:49 | 49.15814 | 10.27564 | 235° | 7km/h | 22557m | 4m/s | -53.8°C | 0.5% | 39.4hPa | 2.5V | 18:12:15 | 01:39:30 | 00:00:00 | |
| DL1XH-west | 2026-08-30 23:57:47 | 49.15816 | 10.27567 | 196° | 5km/h | 22547m | 5.7m/s | -53.8°C | 0.5% | 39.4hPa | 2.6V | 18:12:15 | 01:39:28 | 00:00:00 | |
| DM0DOS-11 | 2026-08-30 23:57:46 | 49.15817 | 10.27566 | 48° | 2km/h | 22521m | 5m/s | -53.8°C | 4% | 39.6hPa | 2.6V | 08:30:00 | 01:39:23 | 00:00:00 | |
| DF8AY | 2026-08-30 23:57:45 | 49.15818 | 10.27566 | 111° | 2km/h | 22537m | 5.2m/s | -53.8°C | 0.5% | 39.5hPa | 2.5V | 18:12:15 | 01:39:26 | 00:00:00 | |
| DK7TD | 2026-08-30 23:57:44 | 49.15818 | 10.27566 | 18° | 0km/h | 22531m | 5.2m/s | -53.8°C | 0.4% | 39.5hPa | 2.5V | 18:12:15 | 01:39:25 | 00:00:00 | |
| DJ8HS-15 | 2026-08-30 23:57:44 | 49.15818 | 10.27566 | 18° | 5km/h | 22532m | 5.2m/s | -53.7°C | 3.9% | 39.4hPa | 2.5V | 00:00:00 | 01:39:25 | 00:00:00 | |
| DL1XH1-15 | 2026-08-30 23:57:41 | 49.15816 | 10.27560 | 337° | 2km/h | 22495m | 4.6m/s | -53.8°C | 3.9% | 39.8hPa | 2.5V | 08:30:00 | 01:39:18 | 00:00:00 | |
| HSKMA3-T | 2026-08-30 23:57:39 | 49.15816 | 10.27562 | 75° | 5km/h | 22506m | 4.3m/s | -53.8°C | 0.5% | 39.6hPa | 2.5V | 18:12:15 | 01:39:20 | 00:00:00 | |
| DL1XH-west | 2026-08-30 23:57:36 | 49.15815 | 10.27561 | 338° | 4km/h | 22491m | 4.6m/s | -53.9°C | 0.5% | 39.8hPa | 2.6V | 18:12:15 | 01:39:17 | 00:00:00 | |
| DL1NUX | 2026-08-30 23:57:36 | 49.15807 | 10.27558 | 8° | 5km/h | 22465m | 4.8m/s | -54.2°C | 4% | 39.9hPa | 2.6V | 08:30:00 | 01:39:12 | 00:00:00 | |
| DF8AY | 2026-08-30 23:57:35 | 49.15814 | 10.27561 | 360° | 5km/h | 22486m | 5.9m/s | -53.9°C | 0.5% | 39.8hPa | 2.6V | 18:12:15 | 01:39:16 | 00:00:00 | |
| DK7TD | 2026-08-30 23:57:34 | 49.15812 | 10.27561 | 19° | 7km/h | 22480m | 5.2m/s | -54°C | 0.5% | 39.8hPa | 2.5V | 18:12:15 | 01:39:15 | 00:00:00 | |
| DM0DOS-11 | 2026-08-30 23:57:33 | 49.15808 | 10.27559 | 10° | 9km/h | 22470m | 5.5m/s | -54.1°C | 4% | 39.9hPa | 2.5V | 08:30:00 | 01:39:13 | 00:00:00 | |
| DL1XH1-15 | 2026-08-30 23:57:32 | 49.15805 | 10.27551 | 94° | 7km/h | 22445m | 4.9m/s | -54.4°C | 4.1% | 40hPa | 2.5V | 08:30:00 | 01:39:08 | 00:00:00 | |
| HSKMA3-T | 2026-08-30 23:57:28 | 49.15804 | 10.27554 | 94° | 7km/h | 22449m | 4.8m/s | -54.4°C | 0.5% | 40hPa | 2.5V | 18:12:15 | 01:39:09 | 00:00:00 | |
| DN1GJH-1 | 2026-08-30 23:57:27 | 49.15805 | 10.27554 | 95° | 7km/h | 22450m | 4.8m/s | -54.4°C | 1.1% | 40.0hPa | 2.5V | 00:00:00 | 00:00:00 | 00:00:00 | |
| DM0DOS-11 | 2026-08-30 23:57:26 | 49.15796 | 10.27542 | 24° | 16km/h | 22419m | 4.6m/s | -54.5°C | 4.2% | 40.2hPa | 2.5V | 08:30:00 | 01:39:03 | 00:00:00 | |
| DL1NUX | 2026-08-30 23:57:26 | 49.15791 | 10.27540 | 18° | 18km/h | 22415m | 4.3m/s | -54.5°C | 4.1% | 40.2hPa | 2.5V | 08:30:00 | 01:39:02 | 00:00:00 | |
| DF8AY | 2026-08-30 23:57:25 | 49.15804 | 10.27548 | 29° | 5km/h | 22434m | 4.6m/s | -54.5°C | 0.6% | 40.1hPa | 2.6V | 18:12:15 | 01:39:06 | 00:00:00 | |
| DK7TD | 2026-08-30 23:57:23 | 49.15799 | 10.27545 | 25° | 13km/h | 22424m | 6m/s | -54.5°C | 0.6% | 40.1hPa | 2.5V | 18:12:15 | 01:39:04 | 00:00:00 | |
| HSKMA3-T | 2026-08-30 23:57:17 | 49.15774 | 10.27539 | 1° | 13km/h | 22395m | 5.5m/s | -54.5°C | 0.6% | 40.4hPa | 2.5V | 18:12:15 | 01:38:58 | 00:00:00 | |
| DJ2DS-15 | 2026-08-30 23:57:17 | 49.15774 | 10.27538 | 1° | 11km/h | 22395m | 5.5m/s | 0°C | 0% | 0hPa | 2.5V | 00:00:00 | 01:38:58 | 00:00:00 | |
| DL1NUX | 2026-08-30 23:57:16 | 49.15765 | 10.27537 | 354° | 5km/h | 22365m | 4.5m/s | -54.7°C | 4.2% | 40.5hPa | 2.5V | 08:30:00 | 01:38:52 | 00:00:00 | |
| DL1XH-west | 2026-08-30 23:57:14 | 49.15769 | 10.27536 | 19° | 4km/h | 22381m | 5.4m/s | -54.6°C | 0.6% | 40.4hPa | 2.6V | 18:12:15 | 01:38:55 | 00:00:00 | |
| DL1XH1-15 | 2026-08-30 23:57:13 | 49.15756 | 10.27529 | 35° | 15km/h | 22345m | 5.7m/s | -54.6°C | 4.2% | 40.7hPa | 2.5V | 08:30:00 | 01:38:48 | 00:00:00 | |
| DK7TD | 2026-08-30 23:57:12 | 49.15767 | 10.27537 | 330° | 5km/h | 22370m | 4.7m/s | -54.6°C | 0.7% | 40.5hPa | 2.5V | 18:12:15 | 01:38:53 | 00:00:00 | |
| HSKMA3-T | 2026-08-30 23:57:07 | 49.15756 | 10.27529 | 35° | 15km/h | 22345m | 5.7m/s | -54.6°C | 0.6% | 40.7hPa | 2.5V | 18:12:15 | 01:38:48 | 00:00:00 | |
| DB0NH | 2026-08-30 23:57:07 | 49.15756 | 10.27529 | 36° | 13km/h | 22346m | 5.6m/s | -54.6°C | 4.2% | 40.6hPa | 2.5V | 00:00:00 | 01:38:48 | 00:00:00 | |
| SO1NDE-10 | 2026-08-30 23:57:06 | 49.15753 | 10.27525 | 29° | 13km/h | 22340m | 5.4m/s | -54.5°C | 4.2% | 40.6hPa | 2.5V | 00:00:00 | 01:38:47 | 00:00:00 | |
| DM0DOS-11 | 2026-08-30 23:57:05 | 49.15738 | 10.27514 | 22° | 16km/h | 22319m | 4.4m/s | -54.5°C | 4.1% | 40.8hPa | 2.5V | 08:30:00 | 01:38:43 | 00:00:00 | |
| DL1XH-west | 2026-08-30 23:57:03 | 49.15742 | 10.27517 | 29° | 18km/h | 22324m | 4.5m/s | -54.6°C | 0.7% | 40.8hPa | 2.6V | 18:12:15 | 01:38:44 | 00:00:00 | |
| DK7TD | 2026-08-30 23:57:02 | 49.15738 | 10.27514 | 22° | 16km/h | 22319m | 4.4m/s | -54.5°C | 0.6% | 40.8hPa | 2.5V | 18:12:15 | 01:38:43 | 00:00:00 | |
| DF8AY | 2026-08-30 23:57:01 | 49.15734 | 10.27512 | 13° | 16km/h | 22314m | 6.2m/s | -54.5°C | 0.6% | 40.9hPa | 2.5V | 18:12:15 | 01:38:42 | 00:00:00 | |
| SONCRA | 2026-08-30 23:56:58 | 49.15721 | 10.27507 | 23° | 11km/h | 22293m | 3.8m/s | -54.5°C | 1.1% | 41.0hPa | 2.5V | 00:00:00 | 00:00:00 | 00:00:00 | |
| DL1NUX | 2026-08-30 23:56:56 | 49.15705 | 10.27501 | 19° | 13km/h | 22263m | 4.2m/s | -54.7°C | 4.2% | 41.2hPa | 2.5V | 08:30:00 | 01:38:32 | 00:00:00 | |
| BIOWL1-15 | 2026-08-30 23:56:56 | 49.15718 | 10.27505 | 18° | 11km/h | 22288m | 5.6m/s | -54.5°C | 0.6% | 41hPa | 2.5V | 18:12:15 | 01:38:37 | 00:00:00 | |
| DM0DOS-11 | 2026-08-30 23:56:55 | 49.15708 | 10.27503 | 21° | 13km/h | 22268m | 5m/s | -54.7°C | 4.2% | 41.2hPa | 2.5V | 08:30:00 | 01:38:33 | 00:00:00 | |
| DL1XH-west | 2026-08-30 23:56:52 | 49.15708 | 10.27503 | 22° | 13km/h | 22268m | 5m/s | -54.7°C | 0.6% | 41.2hPa | 2.5V | 18:12:15 | 01:38:33 | 00:00:00 | |
| DF8AY | 2026-08-30 23:56:50 | 49.15702 | 10.27500 | 10° | 13km/h | 22259m | 5.2m/s | -54.7°C | 0.6% | 41.2hPa | 2.5V | 18:12:15 | 01:38:31 | 00:00:00 | |
| DL1ZP-14 | 2026-08-30 23:56:48 | 49.15695 | 10.27501 | 343° | 11km/h | 22248m | 5.0m/s | -54.7°C | 1.1% | 41.3hPa | 2.6V | 00:00:00 | 00:00:00 | 00:00:00 | |
| OE5DXL-15 | 2026-08-30 23:56:47 | 49.15692 | 10.27502 | 343° | 13km/h | 22244m | 4.4m/s | -54.6°C | 4.2% | 41.3hPa | 2.5V | 00:00:00 | 00:00:00 | 00:00:00 | |
| DL1NUX | 2026-08-30 23:56:46 | 49.15675 | 10.27505 | 2° | 11km/h | 22212m | 6.1m/s | -54.6°C | 4.2% | 41.5hPa | 2.5V | 08:30:00 | 01:38:22 | 00:00:00 | |
| HSKMA3-T | 2026-08-30 23:56:45 | 49.15687 | 10.27503 | 360° | 11km/h | 22233m | 4.5m/s | -54.7°C | 0.6% | 41.4hPa | 2.5V | 18:12:15 | 01:38:26 | 00:00:00 | |
| DL1XH-west | 2026-08-30 23:56:42 | 49.15678 | 10.27505 | 352° | 11km/h | 22217m | 4.9m/s | -54.6°C | 0.6% | 41.5hPa | 2.6V | 18:12:15 | 01:38:23 | 00:00:00 | |
| DK7TD | 2026-08-30 23:56:41 | 49.15675 | 10.27505 | 2° | 11km/h | 22212m | 6.1m/s | -54.6°C | 0.6% | 41.5hPa | 2.5V | 18:12:15 | 01:38:22 | 00:00:00 | |
| BIOWL1-15 | 2026-08-30 23:56:39 | 49.15659 | 10.27519 | 303° | 9km/h | 22171m | 4.3m/s | -54.6°C | 0.6% | 41.8hPa | 2.5V | 18:12:15 | 01:38:14 | 00:00:00 | |
| DL6DJ-15 | 2026-08-30 23:56:38 | 49.15665 | 10.27506 | 322° | 9km/h | 22192m | 5.2m/s | -54.5°C | 1.1% | 41.6hPa | 2.6V | 00:00:00 | 00:00:00 | 00:00:00 | |
| DB0NH | 2026-08-30 23:56:37 | 49.15665 | 10.27506 | 323° | 15km/h | 22192m | 5.2m/s | -54.5°C | 4.2% | 41.6hPa | 2.6V | 00:00:00 | 01:38:18 | 00:00:00 | |
| DL1NUX | 2026-08-30 23:56:36 | 49.15655 | 10.27527 | 318° | 15km/h | 22160m | 5m/s | -54.6°C | 4.1% | 41.9hPa | 2.6V | 08:30:00 | 01:38:12 | 00:00:00 | |
| HSKMA3-T | 2026-08-30 23:56:34 | 49.15660 | 10.27516 | 301° | 9km/h | 22176m | 5.3m/s | -54.5°C | 0.5% | 41.8hPa | 2.5V | 18:12:15 | 01:38:15 | 00:00:00 | |
| DL1XH-west | 2026-08-30 23:56:31 | 49.15655 | 10.27527 | 319° | 15km/h | 22160m | 5m/s | -54.6°C | 0.6% | 41.9hPa | 2.6V | 18:12:15 | 01:38:12 | 00:00:00 | |
| DK7TD | 2026-08-30 23:56:30 | 49.15652 | 10.27530 | 335° | 16km/h | 22156m | 4.3m/s | -54.6°C | 0.5% | 41.9hPa | 2.5V | 18:12:15 | 01:38:11 | 00:00:00 | |
| DF8AY | 2026-08-30 23:56:27 | 49.15634 | 10.27533 | 349° | 18km/h | 22136m | 5.3m/s | -54.7°C | 0.6% | 42hPa | 2.6V | 18:12:15 | 01:38:07 | 00:00:00 | |
| HSKMA3-T | 2026-08-30 23:56:23 | 49.15626 | 10.27543 | 289° | 11km/h | 22122m | 6.1m/s | -54.8°C | 0.6% | 42.1hPa | 2.5V | 18:12:15 | 01:38:04 | 00:00:00 | |
| DL1XH-west | 2026-08-30 23:56:21 | 49.15626 | 10.27552 | 253° | 15km/h | 22111m | 4.5m/s | -54.9°C | 0.6% | 42.2hPa | 2.6V | 18:12:15 | 01:38:02 | 00:00:00 | |
| BIOWL1-15 | 2026-08-30 23:56:20 | 49.15627 | 10.27557 | 258° | 16km/h | 22106m | 6m/s | -54.9°C | 0.6% | 42.3hPa | 2.5V | 18:12:15 | 01:38:01 | 00:00:00 | |
| DO3MHA-12 | 2026-08-30 23:56:20 | 49.15627 | 10.27557 | 258° | 16km/h | 22107m | 5.9m/s | -54.8°C | 4.2% | 42.2hPa | 2.6V | 00:00:00 | 01:38:01 | 00:00:00 | |
| DL1NUX | 2026-08-30 23:56:17 | 49.15606 | 10.27601 | 306° | 13km/h | 22061m | 4.9m/s | -55.1°C | 4.3% | 42.5hPa | 2.6V | 08:30:00 | 01:37:52 | 00:00:00 | |
| DF8AY | 2026-08-30 23:56:16 | 49.15624 | 10.27581 | 317° | 16km/h | 22086m | 4.2m/s | -54.9°C | 0.5% | 42.3hPa | 2.6V | 18:12:15 | 01:37:57 | 00:00:00 | |
| DM0DOS-11 | 2026-08-30 23:56:15 | 49.15608 | 10.27598 | 324° | 16km/h | 22066m | 5.1m/s | -55.1°C | 4.3% | 42.5hPa | 2.5V | 08:30:00 | 01:37:53 | 00:00:00 | |
| OE5DRO-10 | 2026-08-30 23:56:14 | 49.15617 | 10.27589 | 328° | 16km/h | 22075m | 5.2m/s | -55.0°C | 4.2% | 42.4hPa | 2.5V | 00:00:00 | 00:00:00 | 00:00:00 | |
| DJ2DS-15 | 2026-08-30 23:56:13 | 49.15612 | 10.27593 | 328° | 16km/h | 22071m | 4.1m/s | 0°C | 0% | 0hPa | 2.5V | 00:00:00 | 01:37:54 | 00:00:00 | |
| DL1XH1-15 | 2026-08-30 23:56:12 | 49.15607 | 10.27623 | 246° | 20km/h | 22040m | 4.1m/s | -55.1°C | 4.3% | 42.6hPa | 2.5V | 08:30:00 | 01:37:48 | 00:00:00 | |
| HSKMA3-T | 2026-08-30 23:56:12 | 49.15608 | 10.27598 | 325° | 16km/h | 22066m | 5.1m/s | -55.1°C | 0.7% | 42.5hPa | 2.5V | 18:12:15 | 01:37:53 | 00:00:00 | |
| DL1XH-west | 2026-08-30 23:56:11 | 49.15605 | 10.27601 | 307° | 13km/h | 22061m | 4.9m/s | -55.1°C | 0.7% | 42.5hPa | 2.6V | 18:12:15 | 01:37:52 | 00:00:00 | |
| DK7TD | 2026-08-30 23:56:10 | 49.15604 | 10.27605 | 274° | 11km/h | 22056m | 4.4m/s | -55.1°C | 0.7% | 42.5hPa | 2.6V | 18:12:15 | 01:37:51 | 00:00:00 | |
| BIOWL1-15 | 2026-08-30 23:56:08 | 49.15610 | 10.27630 | 243° | 18km/h | 22036m | 5.6m/s | -55.1°C | 0.7% | 42.7hPa | 2.6V | 18:12:15 | 01:37:47 | 00:00:00 | |
| DL6DJ-15 | 2026-08-30 23:56:07 | 49.15610 | 10.27630 | 242° | 16km/h | 22036m | 5.6m/s | -55.1°C | 1.2% | 42.7hPa | 2.5V | 00:00:00 | 00:00:00 | 00:00:00 | |
| DL1NUX | 2026-08-30 23:56:06 | 49.15610 | 10.27656 | 307° | 16km/h | 22010m | 5.6m/s | -55.1°C | 4.3% | 42.9hPa | 2.5V | 08:30:00 | 01:37:42 | 00:00:00 | |
| DF8AY | 2026-08-30 23:56:05 | 49.15611 | 10.27635 | 245° | 15km/h | 22031m | 4.7m/s | -55.1°C | 0.7% | 42.7hPa | 2.6V | 18:12:15 | 01:37:46 | 00:00:00 | |
| DM0DOS-11 | 2026-08-30 23:56:05 | 49.15612 | 10.27651 | 294° | 16km/h | 22016m | 5.2m/s | -55.1°C | 4.3% | 42.8hPa | 2.5V | 08:30:00 | 01:37:43 | 00:00:00 | |
| DB0UT-7 | 2026-08-30 23:56:04 | 49.15612 | 10.27640 | 259° | 13km/h | 22026m | 4.1m/s | -55.1°C | 4.3% | 42.7hPa | 2.5V | 00:00:00 | 00:00:00 | 00:00:00 | |
| PG1ADW-2 | 2026-08-30 23:56:03 | 49.15613 | 10.27645 | 278° | 15km/h | 22021m | 5.8m/s | -55.1°C | 4.4% | 42.7hPa | 2.5V | 00:00:00 | 00:00:00 | 00:00:00 | |
| DL1XH1-15 | 2026-08-30 23:56:02 | 49.15599 | 10.27675 | 301° | 18km/h | 21990m | 5m/s | -55.1°C | 4.3% | 43hPa | 2.5V | 08:30:00 | 01:37:38 | 00:00:00 | |
| HSKMA3-T | 2026-08-30 23:56:01 | 49.15610 | 10.27656 | 307° | 16km/h | 22010m | 5.6m/s | -55.1°C | 0.7% | 42.9hPa | 2.5V | 18:12:15 | 01:37:42 | 00:00:00 | |
| DL1XH-west | 2026-08-30 23:56:00 | 49.15607 | 10.27661 | 318° | 16km/h | 22005m | 5.5m/s | -55.1°C | 0.7% | 42.9hPa | 2.6V | 18:12:15 | 01:37:41 | 00:00:00 | |
| DK7TD | 2026-08-30 23:55:59 | 49.15604 | 10.27665 | 318° | 16km/h | 22000m | 4.1m/s | -55.1°C | 0.7% | 42.9hPa | 2.6V | 18:12:15 | 01:37:40 | 00:00:00 | |
| NBG1-10 | 2026-08-30 23:55:59 | 49.15604 | 10.27665 | 318° | 13km/h | 22000m | 4.0m/s | -55.1°C | 4.3% | 42.9hPa | 2.5V | 00:00:00 | 01:37:40 | 00:00:00 | |
| DL1NUX | 2026-08-30 23:55:56 | 49.15597 | 10.27704 | 248° | 13km/h | 21960m | 5.8m/s | -55°C | 4.3% | 43.2hPa | 2.5V | 08:30:00 | 01:37:32 | 00:00:00 | |
| DF8AY | 2026-08-30 23:55:54 | 49.15595 | 10.27692 | 272° | 11km/h | 21975m | 5.3m/s | -55°C | 0.7% | 43.1hPa | 2.6V | 18:12:15 | 01:37:35 | 00:00:00 | |
| DM0DOS-11 | 2026-08-30 23:55:53 | 49.15596 | 10.27699 | 245° | 11km/h | 21965m | 4.4m/s | -55°C | 4.3% | 43.2hPa | 2.5V | 08:30:00 | 01:37:33 | 00:00:00 | |
| DL1XH1-15 | 2026-08-30 23:55:52 | 49.15599 | 10.27723 | 277° | 11km/h | 21940m | 4.8m/s | -54.9°C | 4.2% | 43.3hPa | 2.5V | 08:30:00 | 01:37:28 | 00:00:00 | |
| HSKMA3-T | 2026-08-30 23:55:50 | 49.15598 | 10.27709 | 257° | 15km/h | 21955m | 4.4m/s | -54.9°C | 0.7% | 43.2hPa | 2.6V | 18:12:15 | 01:37:31 | 00:00:00 | |
| DL1XH-west | 2026-08-30 23:55:49 | 49.15599 | 10.27714 | 263° | 13km/h | 21951m | 4.5m/s | -54.9°C | 0.7% | 43.3hPa | 2.6V | 18:12:15 | 01:37:30 | 00:00:00 | |
| DK7TD | 2026-08-30 23:55:47 | 49.15599 | 10.27723 | 277° | 11km/h | 21940m | 4.8m/s | -54.9°C | 0.6% | 43.3hPa | 2.5V | 18:12:15 | 01:37:28 | 00:00:00 | |
| OE5DXL-15 | 2026-08-30 23:55:47 | 49.15599 | 10.27723 | 278° | 11km/h | 21941m | 4.8m/s | -54.8°C | 4.2% | 43.3hPa | 2.5V | 00:00:00 | 00:00:00 | 00:00:00 | |
| DL1NUX | 2026-08-30 23:55:46 | 49.15591 | 10.27751 | 305° | 13km/h | 21909m | 4.6m/s | -54.9°C | 4.3% | 43.5hPa | 2.5V | 08:30:00 | 01:37:22 | 00:00:00 | |
| DF8AY | 2026-08-30 23:55:43 | 49.15595 | 10.27743 | 301° | 15km/h | 21919m | 5.9m/s | -54.9°C | 0.7% | 43.5hPa | 2.6V | 18:12:15 | 01:37:24 | 00:00:00 | |
| PG1ADW-2 | 2026-08-30 23:55:43 | 49.15595 | 10.27742 | 301° | 11km/h | 21919m | 5.9m/s | -54.8°C | 4.3% | 43.4hPa | 2.5V | 00:00:00 | 00:00:00 | 00:00:00 | |
| AZAK | 2026-08-30 23:55:42 | 49.15594 | 10.27742 | 302° | 15km/h | 21919m | 5.9m/s | -54.9°C | 1.1% | 43.5hPa | 2.5V | 00:00:00 | 00:00:00 | 00:00:00 | |
| DL1XH1-15 | 2026-08-30 23:55:41 | 49.15587 | 10.27768 | 266° | 7km/h | 21888m | 5.3m/s | -54.8°C | 4.3% | 43.7hPa | 2.5V | 08:30:00 | 01:37:18 | 00:00:00 | |
| HSKMA3-T | 2026-08-30 23:55:40 | 49.15589 | 10.27755 | 295° | 13km/h | 21904m | 5.7m/s | -54.9°C | 0.7% | 43.6hPa | 2.5V | 18:12:15 | 01:37:21 | 00:00:00 | |
| DL1XH-west | 2026-08-30 23:55:39 | 49.15588 | 10.27760 | 284° | 13km/h | 21899m | 4.8m/s | -54.9°C | 0.7% | 43.6hPa | 2.6V | 18:12:15 | 01:37:20 | 00:00:00 | |
| DK7TD | 2026-08-30 23:55:37 | 49.15587 | 10.27768 | 266° | 7km/h | 21888m | 5.3m/s | -54.8°C | 0.7% | 43.7hPa | 2.5V | 18:12:15 | 01:37:18 | 00:00:00 | |
| DF8AY | 2026-08-30 23:55:33 | 49.15589 | 10.27780 | 268° | 9km/h | 21868m | 4.5m/s | -54.8°C | 0.7% | 43.8hPa | 2.6V | 18:12:15 | 01:37:14 | 00:00:00 | |
| DL1XH-west | 2026-08-30 23:55:28 | 49.15581 | 10.27795 | 309° | 15km/h | 21842m | 4.6m/s | -54.8°C | 0.6% | 44hPa | 2.6V | 18:12:15 | 01:37:09 | 00:00:00 | |
| HSKMA3-T | 2026-08-30 23:55:26 | 49.15577 | 10.27804 | 306° | 13km/h | 21832m | 6m/s | -54.7°C | 0.6% | 44.1hPa | 2.5V | 18:12:15 | 01:37:07 | 00:00:00 | |
| DM0DOS-11 | 2026-08-30 23:55:25 | 49.15577 | 10.27817 | 245° | 11km/h | 21812m | 4.3m/s | -54.7°C | 4.2% | 44.2hPa | 2.6V | 08:30:00 | 01:37:03 | 00:00:00 | |
| DF8AY | 2026-08-30 23:55:22 | 49.15576 | 10.27817 | 246° | 11km/h | 21812m | 4.3m/s | -54.7°C | 0.7% | 44.2hPa | 2.6V | 18:12:15 | 01:37:03 | 00:00:00 | |
| DL1XH1-15 | 2026-08-30 23:55:22 | 49.15578 | 10.27829 | 312° | 7km/h | 21787m | 5.8m/s | -54.5°C | 4.2% | 44.4hPa | 2.6V | 08:30:00 | 01:36:58 | 00:00:00 | |
| BIOWL1-15 | 2026-08-30 23:55:17 | 49.15574 | 10.27834 | 346° | 7km/h | 21772m | 5.7m/s | -54.5°C | 0.5% | 44.5hPa | 2.5V | 18:12:15 | 01:36:55 | 00:00:00 | |
| DL1XH-west | 2026-08-30 23:55:17 | 49.15578 | 10.27829 | 312° | 7km/h | 21787m | 5.8m/s | -54.5°C | 0.6% | 44.4hPa | 2.6V | 18:12:15 | 01:36:58 | 00:00:00 | |
| DK7TD | 2026-08-30 23:55:16 | 49.15577 | 10.27831 | 315° | 7km/h | 21782m | 4.5m/s | -54.5°C | 0.6% | 44.4hPa | 2.5V | 18:12:15 | 01:36:57 | 00:00:00 | |
| HSKMA3-T | 2026-08-30 23:55:15 | 49.15575 | 10.27833 | 327° | 7km/h | 21777m | 5.4m/s | -54.5°C | 0.6% | 44.5hPa | 2.5V | 18:12:15 | 01:36:56 | 00:00:00 | |
| DM0DOS-11 | 2026-08-30 23:55:13 | 49.15571 | 10.27836 | 323° | 5km/h | 21761m | 6.1m/s | -54.5°C | 4.2% | 44.6hPa | 2.6V | 08:30:00 | 01:36:53 | 00:00:00 | |
| DF8AY | 2026-08-30 23:55:12 | 49.15570 | 10.27837 | 295° | 5km/h | 21756m | 4.5m/s | -54.6°C | 0.6% | 44.6hPa | 2.6V | 18:12:15 | 01:36:52 | 00:00:00 | |
| DL1XH1-15 | 2026-08-30 23:55:11 | 49.15573 | 10.27842 | 205° | 7km/h | 21735m | 5.6m/s | -54.6°C | 4.2% | 44.7hPa | 2.6V | 08:30:00 | 01:36:48 | 00:00:00 | |
| DL1XH-west | 2026-08-30 23:55:07 | 49.15573 | 10.27842 | 206° | 7km/h | 21735m | 5.6m/s | -54.6°C | 0.6% | 44.7hPa | 2.6V | 18:12:15 | 01:36:48 | 00:00:00 | |
| DB0NH | 2026-08-30 23:55:07 | 49.15573 | 10.27842 | 206° | 7km/h | 21736m | 5.6m/s | -54.6°C | 4.2% | 44.7hPa | 2.6V | 00:00:00 | 01:36:48 | 08:30:00 | |
| DL1NUX | 2026-08-30 23:55:06 | 49.15578 | 10.27844 | 18° | 5km/h | 21706m | 5.4m/s | -54.7°C | 4.2% | 44.9hPa | 2.6V | 08:30:00 | 01:36:42 | 00:00:00 | |
| DK7TD | 2026-08-30 23:55:05 | 49.15576 | 10.27845 | 210° | 7km/h | 21726m | 3.8m/s | -54.7°C | 0.6% | 44.8hPa | 2.5V | 18:12:15 | 01:36:46 | 00:00:00 | |
| HSKMA3-T | 2026-08-30 23:55:04 | 49.15578 | 10.27846 | 195° | 5km/h | 21721m | 5.3m/s | -54.7°C | 0.6% | 44.9hPa | 2.5V | 18:12:15 | 01:36:45 | 00:00:00 | |
| DF8AY | 2026-08-30 23:55:01 | 49.15577 | 10.27844 | 353° | 9km/h | 21701m | 5m/s | -54.7°C | 0.6% | 0hPa | 2.5V | 18:12:15 | 01:36:41 | 00:00:00 | |
| DL1XH1-15 | 2026-08-30 23:55:01 | 49.15572 | 10.27848 | 305° | 4km/h | 21687m | 5.1m/s | -54.6°C | 4.2% | 45.1hPa | 2.5V | 08:30:00 | 01:36:38 | 00:00:00 | |
| DL1XH-west | 2026-08-30 23:54:57 | 49.15572 | 10.27848 | 306° | 4km/h | 21687m | 5.1m/s | -54.6°C | 0.7% | 45.1hPa | 2.5V | 18:12:15 | 01:36:38 | 00:00:00 | |
| DL1NUX | 2026-08-30 23:54:56 | 49.15580 | 10.27848 | 212° | 5km/h | 21658m | 4.3m/s | -54.6°C | 4.3% | 45.3hPa | 2.6V | 08:30:00 | 01:36:32 | 00:00:00 | |
| DK7TD | 2026-08-30 23:54:55 | 49.15573 | 10.27849 | 161° | 7km/h | 21677m | 4.6m/s | -54.6°C | 0.7% | 45.1hPa | 2.6V | 18:12:15 | 01:36:36 | 00:00:00 | |
| NBG1-10 | 2026-08-30 23:54:53 | 49.15577 | 10.27847 | 176° | 7km/h | 21668m | 5.2m/s | -54.6°C | 4.3% | 45.2hPa | 2.5V | 00:00:00 | 01:36:34 | 00:00:00 | |
| DL1XH1-15 | 2026-08-30 23:54:52 | 49.15583 | 10.27850 | 220° | 2km/h | 21638m | 5.7m/s | -54.6°C | 4.2% | 45.4hPa | 2.5V | 08:30:00 | 01:36:28 | 00:00:00 | |
| HSKMA3-T | 2026-08-30 23:54:50 | 49.15582 | 10.27849 | 214° | 4km/h | 21653m | 5.3m/s | -54.6°C | 0.6% | 45.4hPa | 2.6V | 18:12:15 | 01:36:31 | 00:00:00 | |
| DF8AY | 2026-08-30 23:54:49 | 49.15583 | 10.27850 | 187° | 2km/h | 21643m | 4.4m/s | -54.6°C | 0.7% | 0hPa | 2.5V | 18:12:15 | 01:36:29 | 00:00:00 | |
| DL1XH-west | 2026-08-30 23:54:47 | 49.15584 | 10.27851 | 219° | 5km/h | 21633m | 5m/s | -54.6°C | 0.6% | 45.5hPa | 2.6V | 18:12:15 | 01:36:27 | 00:00:00 | |
| DK7TD | 2026-08-30 23:54:44 | 49.15587 | 10.27852 | 170° | 9km/h | 21622m | 6.2m/s | -54.6°C | 0.7% | 45.5hPa | 2.5V | 18:12:15 | 01:36:25 | 00:00:00 | |
| HSKMA3-T | 2026-08-30 23:54:40 | 49.15599 | 10.27845 | 169° | 13km/h | 21602m | 5m/s | -54.5°C | 0.5% | 45.7hPa | 2.6V | 18:12:15 | 01:36:21 | 00:00:00 | |
| DF8AY | 2026-08-30 23:54:38 | 49.15605 | 10.27842 | 123° | 5km/h | 21588m | 5.5m/s | -54.4°C | 0.6% | 0hPa | 2.5V | 18:12:15 | 01:36:18 | 00:00:00 | |
| DL1XH-west | 2026-08-30 23:54:36 | 49.15606 | 10.27840 | 104° | 7km/h | 21583m | 4.9m/s | -54.4°C | 0.6% | 45.8hPa | 2.5V | 18:12:15 | 01:36:17 | 00:00:00 | |
| BIOWL1-15 | 2026-08-30 23:54:35 | 49.15606 | 10.27835 | 104° | 2km/h | 21568m | 4.2m/s | -54.3°C | 0.6% | 45.9hPa | 2.6V | 18:12:15 | 01:36:14 | 00:00:00 | |
| DK7TD | 2026-08-30 23:54:34 | 49.15606 | 10.27836 | 104° | 4km/h | 21573m | 5.9m/s | -54.3°C | 0.6% | 45.9hPa | 2.6V | 18:12:15 | 01:36:15 | 00:00:00 | |
| HSKMA3-T | 2026-08-30 23:54:29 | 49.15605 | 10.27829 | 69° | 7km/h | 21548m | 4.5m/s | -54.3°C | 0.6% | 46.1hPa | 2.5V | 18:12:15 | 01:36:10 | 00:00:00 | |
| DF8AY | 2026-08-30 23:54:26 | 49.15605 | 10.27822 | 97° | 7km/h | 21533m | 4.5m/s | 0°C | 0% | 0hPa | 2.6V | 18:12:15 | 01:36:07 | 00:00:00 | |
| DL1NUX | 2026-08-30 23:54:26 | 49.15603 | 10.27805 | 83° | 11km/h | 21505m | 4.5m/s | -54.3°C | 4.1% | 46.4hPa | 2.6V | 08:30:00 | 01:36:02 | 00:00:00 | |
| DL1XH-west | 2026-08-30 23:54:25 | 49.15605 | 10.27819 | 81° | 7km/h | 21528m | 6.4m/s | -54.3°C | 0.6% | 46.2hPa | 2.5V | 18:12:15 | 01:36:06 | 00:00:00 | |
| DJ8HS-15 | 2026-08-30 23:54:24 | 49.15604 | 10.27816 | 76° | 15km/h | 21522m | 5.4m/s | -54.2°C | 4.1% | 46.2hPa | 2.5V | 00:00:00 | 01:36:05 | 00:00:00 | |
| DM0DOS-11 | 2026-08-30 23:54:23 | 49.15603 | 10.27809 | 84° | 9km/h | 21510m | 5.5m/s | -54.3°C | 4.1% | 46.4hPa | 2.5V | 08:30:00 | 01:36:03 | 00:00:00 | |
| BIOWL1-15 | 2026-08-30 23:54:23 | 49.15603 | 10.27805 | 84° | 11km/h | 21505m | 4.5m/s | -54.3°C | 0.6% | 46.4hPa | 2.6V | 18:12:15 | 01:36:02 | 00:00:00 | |
| DK7TD | 2026-08-30 23:54:23 | 49.15603 | 10.27812 | 76° | 9km/h | 21516m | 6m/s | -54.3°C | 0.6% | 46.3hPa | 2.5V | 18:12:15 | 01:36:04 | 00:00:00 | |
| SONCRA | 2026-08-30 23:54:22 | 49.15603 | 10.27809 | 84° | 9km/h | 21511m | 5.5m/s | -54.3°C | 1.1% | 46.4hPa | 2.5V | 00:00:00 | 00:00:00 | 00:00:00 | |
| DL1XH1-15 | 2026-08-30 23:54:21 | 49.15601 | 10.27785 | 87° | 15km/h | 21483m | 5.8m/s | -54.5°C | 4.1% | 46.5hPa | 2.5V | 08:30:00 | 01:35:58 | 00:00:00 | |
| HSKMA3-T | 2026-08-30 23:54:19 | 49.15602 | 10.27796 | 76° | 15km/h | 21494m | 5.9m/s | -54.4°C | 0.6% | 46.5hPa | 2.6V | 18:12:15 | 01:36:00 | 00:00:00 | |
| DF8AY | 2026-08-30 23:54:16 | 49.15600 | 10.27779 | 88° | 16km/h | 21478m | 3.7m/s | 0°C | 0% | 0hPa | 2.5V | 18:12:15 | 01:35:57 | 00:00:00 | |
| DL1NUX | 2026-08-30 23:54:16 | 49.15596 | 10.27746 | 76° | 15km/h | 21451m | 4.8m/s | -54.5°C | 4.1% | 46.8hPa | 2.6V | 08:30:00 | 01:35:52 | 00:00:00 | |
| DM0DOS-11 | 2026-08-30 23:54:15 | 49.15597 | 10.27752 | 78° | 16km/h | 21456m | 5.8m/s | -54.6°C | 4.2% | 46.7hPa | 2.6V | 08:30:00 | 01:35:53 | 00:00:00 | |
| DL1XH-west | 2026-08-30 23:54:15 | 49.15600 | 10.27773 | 83° | 16km/h | 21473m | 6.1m/s | -54.5°C | 0.6% | 46.6hPa | 2.5V | 18:12:15 | 01:35:56 | 00:00:00 | |
| DK7TD | 2026-08-30 23:54:12 | 49.15597 | 10.27752 | 79° | 16km/h | 21456m | 5.8m/s | -54.6°C | 0.6% | 46.7hPa | 2.6V | 18:12:15 | 01:35:53 | 00:00:00 | |
| BIOWL1-15 | 2026-08-30 23:54:11 | 49.15596 | 10.27746 | 76° | 15km/h | 21451m | 4.8m/s | -54.6°C | 0.6% | 46.8hPa | 2.6V | 18:12:15 | 01:35:52 | 00:00:00 | |
| DL1XH1-15 | 2026-08-30 23:54:11 | 49.15588 | 10.27724 | 53° | 16km/h | 21430m | 5.5m/s | -54.5°C | 4.2% | 47hPa | 2.5V | 08:30:00 | 01:35:48 | 00:00:00 | |
| HSKMA3-T | 2026-08-30 23:54:08 | 49.15591 | 10.27729 | 53° | 16km/h | 21435m | 4.7m/s | -54.5°C | 0.6% | 46.9hPa | 2.5V | 18:12:15 | 01:35:49 | 00:00:00 | |
| DL1XH-west | 2026-08-30 23:54:04 | 49.15582 | 10.27709 | 59° | 18km/h | 21414m | 6.2m/s | -54.5°C | 0.6% | 47.1hPa | 2.5V | 18:12:15 | 01:35:45 | 00:00:00 | |
| DM0DOS-11 | 2026-08-30 23:54:03 | 49.15577 | 10.27696 | 56° | 22km/h | 21403m | 4.7m/s | -54.4°C | 4.2% | 47.1hPa | 2.5V | 08:30:00 | 01:35:43 | 00:00:00 | |
| DK7TD | 2026-08-30 23:54:02 | 49.15577 | 10.27696 | 57° | 22km/h | 21403m | 4.7m/s | -54.4°C | 0.7% | 47.1hPa | 2.5V | 18:12:15 | 01:35:43 | 00:00:00 | |
| HSKMA3-T | 2026-08-30 23:53:58 | 49.15565 | 10.27674 | 35° | 18km/h | 21382m | 6.1m/s | -54.5°C | 0.6% | 47.3hPa | 2.6V | 18:12:15 | 01:35:39 | 00:00:00 | |
| EDDB2-11 | 2026-08-30 23:53:57 | 49.15556 | 10.27667 | 24° | 18km/h | 21373m | 3.9m/s | 0°C | -1.0% | -1.0hPa | 2.6V | 00:00:00 | 00:00:00 | 00:00:00 | |
| DL1NUX | 2026-08-30 23:53:56 | 49.15542 | 10.27649 | 49° | 20km/h | 21347m | 5.3m/s | -54.5°C | 4.2% | 47.5hPa | 2.6V | 08:30:00 | 01:35:32 | 00:00:00 | |
| DL1XH-west | 2026-08-30 23:53:54 | 49.15549 | 10.27662 | 34° | 13km/h | 21362m | 5.2m/s | -54.5°C | 0.6% | 47.5hPa | 2.5V | 18:12:15 | 01:35:35 | 00:00:00 | |
| DK7TD | 2026-08-30 23:53:52 | 49.15544 | 10.27655 | 53° | 15km/h | 21352m | 5.3m/s | -54.5°C | 0.6% | 47.5hPa | 2.6V | 18:12:15 | 01:35:33 | 00:00:00 | |
| BIOWL1-15 | 2026-08-30 23:53:47 | 49.15517 | 10.27616 | 38° | 22km/h | 21317m | 5.3m/s | -54.5°C | 0.6% | 47.8hPa | 2.6V | 18:12:15 | 01:35:26 | 00:00:00 | |
| HSKMA3-T | 2026-08-30 23:53:47 | 49.15526 | 10.27627 | 38° | 20km/h | 21327m | 4.5m/s | -54.5°C | 0.6% | 47.7hPa | 2.5V | 18:12:15 | 01:35:28 | 00:00:00 | |
| OE5DXL-15 | 2026-08-30 23:53:47 | 49.15526 | 10.27627 | 39° | 18km/h | 21328m | 4.5m/s | -54.4°C | 4.2% | 47.7hPa | 2.6V | 00:00:00 | 00:00:00 | 00:00:00 | |
| DJ8HS-15 | 2026-08-30 23:53:44 | 49.15513 | 10.27611 | 38° | 18km/h | 21312m | 4.8m/s | -54.4°C | 4.2% | 47.8hPa | 2.6V | 00:00:00 | 01:35:25 | 00:00:00 | |
| DM0DOS-11 | 2026-08-30 23:53:43 | 49.15506 | 10.27603 | 35° | 15km/h | 21301m | 5.1m/s | -54.4°C | 4.2% | 47.9hPa | 2.5V | 08:30:00 | 01:35:23 | 00:00:00 | |
| DL1XH-west | 2026-08-30 23:53:43 | 49.15509 | 10.27607 | 36° | 18km/h | 21306m | 6m/s | -54.4°C | 0.6% | 47.9hPa | 2.5V | 18:12:15 | 01:35:24 | 00:00:00 | |
| DK7TD | 2026-08-30 23:53:41 | 49.15503 | 10.27600 | 34° | 15km/h | 21296m | 4.6m/s | -54.4°C | 0.6% | 48hPa | 2.5V | 18:12:15 | 01:35:22 | 00:00:00 | |
| HSKMA3-T | 2026-08-30 23:53:36 | 49.15483 | 10.27583 | 25° | 20km/h | 21271m | 4.5m/s | -54.3°C | 0.6% | 48.1hPa | 2.5V | 18:12:15 | 01:35:17 | 00:00:00 | |
| SO1NDE-10 | 2026-08-30 23:53:36 | 49.15483 | 10.27583 | 25° | 16km/h | 21271m | 4.5m/s | -54.3°C | 4.2% | 48.1hPa | 2.5V | 00:00:00 | 01:35:17 | 00:00:00 | |
| DM0DOS-11 | 2026-08-30 23:53:35 | 49.15463 | 10.27565 | 34° | 22km/h | 21251m | 5m/s | -54.2°C | 4.1% | 48.3hPa | 2.5V | 08:30:00 | 01:35:13 | 00:00:00 | |
| BIOWL1-15 | 2026-08-30 23:53:34 | 49.15473 | 10.27575 | 33° | 24km/h | 21261m | 5.8m/s | -54.3°C | 0.6% | 48.2hPa | 2.5V | 18:12:15 | 01:35:15 | 00:00:00 | |
| DL1XH-west | 2026-08-30 23:53:33 | 49.15463 | 10.27565 | 34° | 22km/h | 21251m | 5m/s | -54.2°C | 0.6% | 48.3hPa | 2.5V | 18:12:15 | 01:35:13 | 00:00:00 | |
| DL1XH1-15 | 2026-08-30 23:53:31 | 49.15443 | 10.27551 | 10° | 15km/h | 21225m | 4.1m/s | -54.3°C | 4.1% | 48.5hPa | 2.5V | 08:30:00 | 01:35:08 | 00:00:00 | |
| DK7TD | 2026-08-30 23:53:31 | 49.15459 | 10.27560 | 30° | 20km/h | 21245m | 5.5m/s | -54.2°C | 0.6% | 48.3hPa | 2.6V | 18:12:15 | 01:35:12 | 00:00:00 | |
| DO3MHA-12 | 2026-08-30 23:53:30 | 49.15455 | 10.27557 | 24° | 16km/h | 21241m | 4.4m/s | -54.2°C | 4.1% | 48.3hPa | 2.5V | 00:00:00 | 01:35:11 | 00:00:00 | |
| DC4HF-4 | 2026-08-30 23:53:28 | 49.15443 | 10.27551 | 10° | 15km/h | 21225m | 4.1m/s | -54.3°C | 1.1% | 48.5hPa | 2.5V | 00:00:00 | 00:00:00 | 00:00:00 | |
| DB0ND-19 | 2026-08-30 23:53:27 | 49.15440 | 10.27551 | 359° | 15km/h | 21220m | 6.3m/s | -54.3°C | 1.1% | 48.5hPa | 2.5V | 00:00:00 | 00:00:00 | 00:00:00 | |
| DL1NUX | 2026-08-30 23:53:26 | 49.15422 | 10.27543 | 44° | 18km/h | 21195m | 4m/s | -54.4°C | 4.1% | 48.7hPa | 2.5V | 08:30:00 | 01:35:02 | 00:00:00 | |
| HSKMA3-T | 2026-08-30 23:53:25 | 49.15436 | 10.27551 | 355° | 15km/h | 21214m | 4.2m/s | -54.3°C | 0.6% | 48.6hPa | 2.5V | 18:12:15 | 01:35:06 | 00:00:00 | |
| DJ8HS-15 | 2026-08-30 23:53:24 | 49.15432 | 10.27551 | 5° | 13km/h | 21211m | 3.8m/s | -54.3°C | 4.1% | 48.5hPa | 2.5V | 00:00:00 | 01:35:05 | 00:00:00 | |
| DM0DOS-11 | 2026-08-30 23:53:23 | 49.15425 | 10.27547 | 34° | 16km/h | 21200m | 5.1m/s | -54.3°C | 4.2% | 48.6hPa | 2.5V | 08:30:00 | 01:35:03 | 00:00:00 | |
| BIOWL1-15 | 2026-08-30 23:53:23 | 49.15429 | 10.27550 | 18° | 15km/h | 21206m | 6m/s | -54.3°C | 0.6% | 48.6hPa | 2.6V | 18:12:15 | 01:35:04 | 00:00:00 | |
| DL1XH-west | 2026-08-30 23:53:21 | 49.15422 | 10.27543 | 45° | 18km/h | 21195m | 4m/s | -54.4°C | 0.6% | 48.7hPa | 2.5V | 18:12:15 | 01:35:02 | 00:00:00 | |
| DN1GJH-1 | 2026-08-30 23:53:20 | 49.15422 | 10.27543 | 46° | 18km/h | 21196m | 4.0m/s | -54.4°C | 1.2% | 48.7hPa | 2.6V | 00:00:00 | 00:00:00 | 00:00:00 | |
| HEMX73-11 | 2026-08-30 23:53:18 | 49.15416 | 10.27533 | 44° | 16km/h | 21186m | 5.8m/s | 0°C | 0% | 0hPa | 2.6V | 00:00:00 | 00:00:00 | 00:00:00 | |
| OE5DXL-15 | 2026-08-30 23:53:17 | 49.15409 | 10.27526 | 35° | 9km/h | 21176m | 4.9m/s | -54.2°C | 4.2% | 48.8hPa | 2.6V | 00:00:00 | 00:00:00 | 08:30:00 | |
| DM0DOS-11 | 2026-08-30 23:53:16 | 49.15393 | 10.27520 | 345° | 13km/h | 21150m | 4m/s | -54.2°C | 4.1% | 49.1hPa | 2.5V | 08:30:00 | 01:34:53 | 00:00:00 | |
| DL1NUX | 2026-08-30 23:53:16 | 49.15390 | 10.27521 | 357° | 11km/h | 21145m | 5.6m/s | -54.2°C | 4.2% | 49.1hPa | 2.5V | 08:30:00 | 01:34:52 | 00:00:00 | |
| HSKMA3-T | 2026-08-30 23:53:15 | 49.15403 | 10.27520 | 20° | 15km/h | 21165m | 4.5m/s | -54.3°C | 0.6% | 48.9hPa | 2.5V | 18:12:15 | 01:34:56 | 00:00:00 | |
| NBG1-10 | 2026-08-30 23:53:14 | 49.15399 | 10.27519 | 7° | 7km/h | 21160m | 6.1m/s | -54.2°C | 4.1% | 48.9hPa | 2.5V | 00:00:00 | 01:34:55 | 00:00:00 | |
| DF7PN | 2026-08-30 23:53:13 | 49.15396 | 10.27519 | 348° | 11km/h | 21155m | 4.7m/s | -54.2°C | 1.1% | 49.0hPa | 2.5V | 00:00:00 | 00:00:00 | 00:00:00 | |
| DL1ZP-14 | 2026-08-30 23:53:11 | 49.15390 | 10.27521 | 357° | 11km/h | 21145m | 5.6m/s | -54.2°C | 1.2% | 49.1hPa | 2.5V | 00:00:00 | 00:00:00 | 00:00:00 | |
| DL1XH1-15 | 2026-08-30 23:53:10 | 49.15380 | 10.27515 | 28° | 9km/h | 21125m | 6m/s | -54.2°C | 4.2% | 49.2hPa | 2.5V | 08:30:00 | 01:34:48 | 00:00:00 | |
| DO3MHA-12 | 2026-08-30 23:53:10 | 49.15387 | 10.27521 | 13° | 9km/h | 21140m | 5.0m/s | -54.2°C | 4.2% | 49.1hPa | 2.6V | 00:00:00 | 01:34:51 | 00:00:00 | |
| DL1XH-west | 2026-08-30 23:53:10 | 49.15387 | 10.27521 | 12° | 13km/h | 21140m | 5.1m/s | -54.2°C | 0.6% | 49.1hPa | 2.6V | 18:12:15 | 01:34:51 | 00:00:00 | |
| DB0NH | 2026-08-30 23:53:07 | 49.15380 | 10.27515 | 29° | 7km/h | 21125m | 6.0m/s | -54.1°C | 4.2% | 49.1hPa | 2.5V | 00:00:00 | 01:34:48 | 00:00:00 | |
| DL1NUX | 2026-08-30 23:53:06 | 49.15368 | 10.27510 | 354° | 11km/h | 21094m | 6m/s | -54.2°C | 4.1% | 49.5hPa | 2.5V | 08:30:00 | 01:34:42 | 00:00:00 | |
| HSKMA3-T | 2026-08-30 23:53:04 | 49.15375 | 10.27512 | 24° | 9km/h | 21109m | 5.9m/s | -54.1°C | 0.6% | 49.4hPa | 2.5V | 18:12:15 | 01:34:45 | 00:00:00 | |
| DJ8HS-15 | 2026-08-30 23:53:04 | 49.15375 | 10.27512 | 25° | 7km/h | 21110m | 5.8m/s | -54.1°C | 4.1% | 49.3hPa | 2.6V | 00:00:00 | 01:34:45 | 00:00:00 | |
| DM0DOS-11 | 2026-08-30 23:53:03 | 49.15370 | 10.27510 | 7° | 11km/h | 21099m | 4.5m/s | -54.2°C | 4.1% | 49.4hPa | 2.6V | 08:30:00 | 01:34:43 | 00:00:00 | |
| PG1ADW-2 | 2026-08-30 23:53:03 | 49.15373 | 10.27510 | 19° | 7km/h | 21104m | 4.6m/s | -54.1°C | 4.1% | 49.3hPa | 2.6V | 00:00:00 | 00:00:00 | 00:00:00 | |
| DL1XH1-15 | 2026-08-30 23:53:02 | 49.15356 | 10.27512 | 13° | 11km/h | 21074m | 4.3m/s | -54.2°C | 4.2% | 49.6hPa | 2.6V | 08:30:00 | 01:34:38 | 00:00:00 | |
| BIOWL1-15 | 2026-08-30 23:53:01 | 49.15367 | 10.27510 | 355° | 11km/h | 21094m | 6m/s | -54.2°C | 0.6% | 49.5hPa | 2.5V | 18:12:15 | 01:34:42 | 00:00:00 | |
| DO3MHA-12 | 2026-08-30 23:53:00 | 49.15364 | 10.27510 | 343° | 9km/h | 21089m | 4.8m/s | -54.2°C | 4.1% | 49.5hPa | 2.5V | 00:00:00 | 01:34:41 | 00:00:00 | |
| DL1XH-west | 2026-08-30 23:53:00 | 49.15365 | 10.27510 | 342° | 11km/h | 21089m | 4.8m/s | -54.2°C | 0.6% | 49.5hPa | 2.5V | 18:12:15 | 01:34:41 | 00:00:00 | |
| DM0DOS-11 | 2026-08-30 23:52:57 | 49.15347 | 10.27505 | 57° | 7km/h | 21043m | 5.4m/s | -54.1°C | 4.1% | 49.9hPa | 2.5V | 08:30:00 | 01:34:32 | 00:00:00 | |
| DL1NUX | 2026-08-30 23:52:56 | 49.15347 | 10.27505 | 57° | 7km/h | 21043m | 5.4m/s | -54.1°C | 4.1% | 49.9hPa | 2.5V | 08:30:00 | 01:34:32 | 00:00:00 | |
| HSKMA3-T | 2026-08-30 23:52:53 | 49.15349 | 10.27508 | 32° | 5km/h | 21054m | 4.6m/s | -54.2°C | 0.6% | 49.8hPa | 2.6V | 18:12:15 | 01:34:34 | 00:00:00 | |
| DC4HF-4 | 2026-08-30 23:52:52 | 49.15347 | 10.27505 | 57° | 5km/h | 21043m | 5.4m/s | -54.1°C | 1.1% | 49.9hPa | 2.6V | 00:00:00 | 00:00:00 | 00:00:00 | |
| DL1XH1-15 | 2026-08-30 23:52:50 | 49.15345 | 10.27498 | 48° | 5km/h | 21021m | 6m/s | -53.9°C | 4.1% | 50hPa | 2.6V | 08:30:00 | 01:34:28 | 00:00:00 | |
| BIOWL1-15 | 2026-08-30 23:52:50 | 49.15346 | 10.27503 | 72° | 5km/h | 21037m | 6.1m/s | -54.1°C | 0.6% | 49.9hPa | 2.5V | 18:12:15 | 01:34:31 | 00:00:00 | |
| DK7TD | 2026-08-30 23:52:49 | 49.15346 | 10.27501 | 80° | 4km/h | 21032m | 4.8m/s | -54°C | 0.6% | 49.9hPa | 2.5V | 18:12:15 | 01:34:30 | 00:00:00 | |
| OE5DXL-15 | 2026-08-30 23:52:47 | 49.15345 | 10.27497 | 49° | 5km/h | 21022m | 6.0m/s | -53.9°C | 4.1% | 50.0hPa | 2.6V | 00:00:00 | 00:00:00 | 00:00:00 | |
| DL1NUX | 2026-08-30 23:52:46 | 49.15343 | 10.27497 | 276° | 4km/h | 20990m | 4.8m/s | -53.9°C | 4.1% | 50.3hPa | 2.6V | 08:30:00 | 01:34:22 | 00:00:00 | |
| OE5DRO-10 | 2026-08-30 23:52:45 | 49.15343 | 10.27495 | 42° | 5km/h | 21011m | 5.4m/s | -53.9°C | 4.1% | 50.1hPa | 2.5V | 00:00:00 | 00:00:00 | 08:30:00 | |
| DJ8HS-15 | 2026-08-30 23:52:44 | 49.15343 | 10.27495 | 203° | 5km/h | 21006m | 5.1m/s | -53.8°C | 4.0% | 50.1hPa | 2.5V | 00:00:00 | 01:34:25 | 08:30:00 | |
| PG1ADW-2 | 2026-08-30 23:52:43 | 49.15343 | 10.27495 | 230° | 5km/h | 21001m | 4.3m/s | -53.8°C | 4.0% | 50.1hPa | 2.5V | 00:00:00 | 00:00:00 | 00:00:00 | |
| DF7PN | 2026-08-30 23:52:42 | 49.15343 | 10.27496 | 266° | 2km/h | 20996m | 5.9m/s | -53.9°C | 1.1% | 50.2hPa | 2.5V | 00:00:00 | 00:00:00 | 00:00:00 | |
| NBG1-10 | 2026-08-30 23:52:41 | 49.15343 | 10.27497 | 277° | 7km/h | 20990m | 4.8m/s | -53.9°C | 4.1% | 50.2hPa | 2.5V | 00:00:00 | 01:34:22 | 00:00:00 | |
| DL1XH1-15 | 2026-08-30 23:52:40 | 49.15347 | 10.27505 | 224° | 9km/h | 20970m | 4.4m/s | -53.9°C | 4% | 50.4hPa | 2.5V | 08:30:00 | 01:34:18 | 00:00:00 | |
| DL1XH-west | 2026-08-30 23:52:39 | 49.15344 | 10.27501 | 238° | 7km/h | 20981m | 5.8m/s | -53.9°C | 0.6% | 50.3hPa | 2.6V | 18:12:15 | 01:34:20 | 00:00:00 | |
| DK7TD | 2026-08-30 23:52:38 | 49.15345 | 10.27503 | 223° | 9km/h | 20975m | 5.3m/s | -53.9°C | 0.6% | 50.4hPa | 2.5V | 18:12:15 | 01:34:19 | 00:00:00 | |
| BIOWL1-15 | 2026-08-30 23:52:37 | 49.15347 | 10.27505 | 225° | 9km/h | 20970m | 4.4m/s | -53.9°C | 0.6% | 50.4hPa | 2.5V | 18:12:15 | 01:34:18 | 00:00:00 | |
| DB0NH | 2026-08-30 23:52:37 | 49.15347 | 10.27505 | 225° | 7km/h | 20970m | 4.4m/s | -53.8°C | 4.0% | 50.4hPa | 2.5V | 00:00:00 | 01:34:18 | 00:00:00 | |
| DL1NUX | 2026-08-30 23:52:36 | 49.15350 | 10.27504 | 75° | 7km/h | 20939m | 6.1m/s | -53.9°C | 4% | 50.7hPa | 2.5V | 08:30:00 | 01:34:12 | 00:00:00 | |
| SO1NDE-10 | 2026-08-30 23:52:36 | 49.15348 | 10.27507 | 232° | 7km/h | 20965m | 5.7m/s | -53.8°C | 4.0% | 50.4hPa | 2.5V | 00:00:00 | 01:34:17 | 00:00:00 | |
| DF3TZ-5 | 2026-08-30 23:52:34 | 49.15349 | 10.27509 | 179° | 2km/h | 20954m | 5.8m/s | -53.9°C | 1.1% | 50.6hPa | 2.6V | 00:00:00 | 00:00:00 | 00:00:00 | |
| DL1XH1-15 | 2026-08-30 23:52:32 | 49.15351 | 10.27488 | 159° | 5km/h | 20914m | 4.5m/s | -54°C | 4.1% | 50.8hPa | 2.6V | 08:30:00 | 01:34:07 | 00:00:00 | |
| DL1XH-west | 2026-08-30 23:52:29 | 49.15349 | 10.27496 | 80° | 11km/h | 20928m | 5.1m/s | -54°C | 0.6% | 50.8hPa | 2.5V | 18:12:15 | 01:34:10 | 00:00:00 | |
| DK7TD | 2026-08-30 23:52:27 | 49.15351 | 10.27488 | 159° | 5km/h | 20914m | 4.6m/s | -54°C | 0.6% | 50.8hPa | 2.6V | 18:12:15 | 01:34:07 | 00:00:00 | |
| DM0DOS-11 | 2026-08-30 23:52:27 | 49.15353 | 10.27495 | 268° | 7km/h | 20894m | 5.4m/s | -54°C | 4.1% | 51hPa | 2.5V | 08:30:00 | 01:34:03 | 00:00:00 | |
| DL1XH-west | 2026-08-30 23:52:18 | 49.15352 | 10.27511 | 283° | 11km/h | 20875m | 4.6m/s | -53.9°C | 0.6% | 51.2hPa | 2.5V | 18:12:15 | 01:33:59 | 00:00:00 | |
| DL1XH1-15 | 2026-08-30 23:52:18 | 49.15351 | 10.27515 | 276° | 9km/h | 20871m | 5.4m/s | -53.9°C | 4% | 51.2hPa | 2.5V | 08:30:00 | 01:33:58 | 00:00:00 | |
| DK7TD | 2026-08-30 23:52:16 | 49.15351 | 10.27518 | 268° | 7km/h | 20865m | 5m/s | -53.9°C | 0.6% | 51.2hPa | 2.5V | 18:12:15 | 01:33:57 | 00:00:00 | |
| DC4HF-4 | 2026-08-30 23:52:16 | 49.15351 | 10.27519 | 282° | 2km/h | 20861m | 4.4m/s | -53.9°C | 1.1% | 51.3hPa | 2.5V | 00:00:00 | 00:00:00 | 00:00:00 | |
| DM0DOS-11 | 2026-08-30 23:52:15 | 49.15348 | 10.27516 | 46° | 11km/h | 20845m | 4.5m/s | -53.8°C | 4% | 51.4hPa | 2.5V | 08:30:00 | 01:33:53 | 00:00:00 | |
| HSKMA3-T | 2026-08-30 23:52:14 | 49.15351 | 10.27520 | 21° | 4km/h | 20855m | 5.8m/s | -53.9°C | 0.4% | 51.3hPa | 2.6V | 18:12:15 | 01:33:55 | 00:00:00 | |
| DL1XH-west | 2026-08-30 23:52:08 | 49.15342 | 10.27507 | 3° | 7km/h | 20825m | 5.8m/s | -53.9°C | 0.5% | 51.5hPa | 2.7V | 18:12:15 | 01:33:49 | 00:00:00 | |
| NBG1-10 | 2026-08-30 23:52:08 | 49.15342 | 10.27507 | 3° | 7km/h | 20825m | 5.7m/s | -53.8°C | 4.0% | 51.5hPa | 2.7V | 00:00:00 | 01:33:49 | 08:30:00 | |
| DB0NH | 2026-08-30 23:52:07 | 49.15340 | 10.27507 | 333° | 7km/h | 20820m | 4.2m/s | -53.9°C | 4.0% | 51.6hPa | 2.6V | 00:00:00 | 01:33:48 | 00:00:00 | |
| DL1NUX | 2026-08-30 23:52:06 | 49.15335 | 10.27516 | 8° | 5km/h | 20791m | 5.2m/s | -54.1°C | 4% | 51.8hPa | 2.6V | 08:30:00 | 01:33:42 | 00:00:00 | |
| DK7TD | 2026-08-30 23:52:05 | 49.15337 | 10.27512 | 293° | 7km/h | 20811m | 5.3m/s | -54°C | 0.5% | 51.7hPa | 2.5V | 18:12:15 | 01:33:46 | 00:00:00 | |
| DJ8HS-15 | 2026-08-30 23:52:04 | 49.15337 | 10.27514 | 283° | 7km/h | 20806m | 4.5m/s | -54.0°C | 4.1% | 51.7hPa | 2.7V | 00:00:00 | 01:33:45 | 00:00:00 | |
| DM0DOS-11 | 2026-08-30 23:52:03 | 49.15336 | 10.27516 | 345° | 4km/h | 20797m | 5.1m/s | -54.1°C | 4% | 51.8hPa | 2.7V | 08:30:00 | 01:33:43 | 00:00:00 | |
| HSKMA3-T | 2026-08-30 23:52:00 | 49.15333 | 10.27515 | 20° | 9km/h | 20786m | 4.5m/s | -54.1°C | 0.5% | 51.9hPa | 2.6V | 18:12:15 | 01:33:41 | 00:00:00 | |
| DO3MHA-12 | 2026-08-30 23:52:00 | 49.15333 | 10.27515 | 20° | 9km/h | 20787m | 4.5m/s | -54.0°C | 4.0% | 51.8hPa | 2.5V | 00:00:00 | 01:33:41 | 00:00:00 | |
| DL1XH1-15 | 2026-08-30 23:51:58 | 49.15328 | 10.27508 | 48° | 11km/h | 20771m | 4.5m/s | -54.2°C | 4.1% | 52hPa | 2.5V | 08:30:00 | 01:33:38 | 00:00:00 | |
| DL1XH-west | 2026-08-30 23:51:57 | 49.15328 | 10.27508 | 48° | 11km/h | 20771m | 4.5m/s | -54.2°C | 0.6% | 52hPa | 2.5V | 18:12:15 | 01:33:38 | 00:00:00 | |
| DL1NUX | 2026-08-30 23:51:56 | 49.15316 | 10.27499 | 355° | 7km/h | 20741m | 6m/s | -54.4°C | 4.2% | 52.3hPa | 2.5V | 08:30:00 | 01:33:32 | 00:00:00 | |
| BIOWL1-15 | 2026-08-30 23:51:56 | 49.15316 | 10.27498 | 356° | 7km/h | 20741m | 6m/s | -54.4°C | 0.6% | 52.3hPa | 2.5V | 18:12:15 | 01:33:32 | 00:00:00 | |
| DK7TD | 2026-08-30 23:51:55 | 49.15323 | 10.27503 | 30° | 11km/h | 20761m | 4.5m/s | -54.3°C | 0.6% | 52.1hPa | 2.6V | 18:12:15 | 01:33:36 | 00:00:00 | |
| DB0ND-19 | 2026-08-30 23:51:53 | 49.15319 | 10.27499 | 25° | 5km/h | 20750m | 5.2m/s | -54.3°C | 1.1% | 52.2hPa | 2.6V | 00:00:00 | 00:00:00 | 00:00:00 | |
| DL1XH1-15 | 2026-08-30 23:51:52 | 49.15308 | 10.27499 | 18° | 9km/h | 20720m | 3.4m/s | -54.3°C | 4.2% | 52.4hPa | 2.6V | 08:30:00 | 01:33:28 | 00:00:00 | |
| DL1XH-west | 2026-08-30 23:51:47 | 49.15308 | 10.27499 | 18° | 9km/h | 20720m | 3.4m/s | -54.3°C | 0.7% | 52.4hPa | 2.6V | 18:12:15 | 01:33:28 | 00:00:00 | |
| OE5DXL-15 | 2026-08-30 23:51:47 | 49.15308 | 10.27499 | 19° | 7km/h | 20720m | 3.3m/s | -54.3°C | 4.2% | 52.4hPa | 2.6V | 00:00:00 | 00:00:00 | 00:00:00 | |
| DM0DOS-11 | 2026-08-30 23:51:46 | 49.15296 | 10.27492 | 12° | 5km/h | 20691m | 5.4m/s | -54.4°C | 4.2% | 52.6hPa | 2.6V | 08:30:00 | 01:33:22 | 00:00:00 | |
| DK7TD | 2026-08-30 23:51:44 | 49.15300 | 10.27496 | 21° | 9km/h | 20706m | 4.2m/s | -54.3°C | 0.6% | 52.6hPa | 2.5V | 18:12:15 | 01:33:25 | 00:00:00 | |
| BIOWL1-15 | 2026-08-30 23:51:42 | 49.15279 | 10.27508 | 334° | 13km/h | 20653m | 4.1m/s | -54.3°C | 0.6% | 53hPa | 2.5V | 18:12:15 | 01:33:14 | 00:00:00 | |
| DB0UT-7 | 2026-08-30 23:51:42 | 49.15297 | 10.27493 | 33° | 7km/h | 20696m | 4.3m/s | -54.3°C | 4.1% | 52.6hPa | 2.5V | 00:00:00 | 00:00:00 | 00:00:00 | |
| DC4HF-4 | 2026-08-30 23:51:40 | 49.15292 | 10.27493 | 334° | 7km/h | 20681m | 4.3m/s | -54.4°C | 1.2% | 52.8hPa | 2.5V | 00:00:00 | 00:00:00 | 00:00:00 | |
| DL1XH1-15 | 2026-08-30 23:51:38 | 49.15289 | 10.27497 | 309° | 9km/h | 20671m | 4.6m/s | -54.4°C | 4.2% | 52.8hPa | 2.5V | 08:30:00 | 01:33:18 | 00:00:00 | |
| DL1XH-west | 2026-08-30 23:51:37 | 49.15287 | 10.27500 | 315° | 11km/h | 20667m | 4.4m/s | -54.4°C | 0.6% | 52.9hPa | 2.7V | 18:12:15 | 01:33:17 | 00:00:00 | |
| DK7TD | 2026-08-30 23:51:34 | 49.15282 | 10.27506 | 329° | 15km/h | 20657m | 4.1m/s | -54.4°C | 0.6% | 53hPa | 2.6V | 18:12:15 | 01:33:15 | 00:00:00 | |
| DL1XH1-15 | 2026-08-30 23:51:32 | 49.15268 | 10.27509 | 32° | 5km/h | 20623m | 4.7m/s | -54.2°C | 4.2% | 53.2hPa | 2.5V | 08:30:00 | 01:33:08 | 00:00:00 | |
| DL1XH-west | 2026-08-30 23:51:26 | 49.15267 | 10.27508 | 36° | 4km/h | 20618m | 5.3m/s | -54.2°C | 0.6% | 53.3hPa | 2.5V | 18:12:15 | 01:33:07 | 00:00:00 | |
| DK7TD | 2026-08-30 23:51:24 | 49.15266 | 10.27508 | 343° | 4km/h | 20608m | 5.5m/s | -54.2°C | 0.5% | 53.4hPa | 2.5V | 18:12:15 | 01:33:05 | 00:00:00 | |
| BIOWL1-15 | 2026-08-30 23:51:24 | 49.15259 | 10.27517 | 305° | 9km/h | 20583m | 4.4m/s | -54.1°C | 0.6% | 53.6hPa | 2.5V | 18:12:15 | 01:33:00 | 00:00:00 | |
| PG1ADW-2 | 2026-08-30 23:51:23 | 49.15265 | 10.27508 | 339° | 7km/h | 20603m | 5.1m/s | -54.1°C | 4.1% | 53.4hPa | 2.7V | 00:00:00 | 00:00:00 | 00:00:00 | |
| DB0ND-19 | 2026-08-30 23:51:22 | 49.15263 | 10.27509 | 328° | 7km/h | 20598m | 4.3m/s | -54.1°C | 1.1% | 53.5hPa | 2.5V | 00:00:00 | 00:00:00 | 00:00:00 | |
| DL1XH1-15 | 2026-08-30 23:51:21 | 49.15255 | 10.27523 | 324° | 11km/h | 20573m | 4.5m/s | -54°C | 4.1% | 53.7hPa | 2.5V | 08:30:00 | 01:32:58 | 00:00:00 | |
| DO3MHA-12 | 2026-08-30 23:51:20 | 49.15260 | 10.27514 | 302° | 5km/h | 20588m | 4.7m/s | -54.0°C | 4.1% | 53.5hPa | 2.5V | 00:00:00 | 01:33:01 | 00:00:00 | |
| OE5DXL-15 | 2026-08-30 23:51:17 | 49.15255 | 10.27523 | 325° | 7km/h | 20573m | 4.5m/s | -54.0°C | 4.1% | 53.6hPa | 2.5V | 00:00:00 | 00:00:00 | 00:00:00 | |
| DM0DOS-11 | 2026-08-30 23:51:16 | 49.15249 | 10.27527 | 40° | 2km/h | 20544m | 4.4m/s | -53.8°C | 4% | 53.9hPa | 2.5V | 08:30:00 | 01:32:52 | 00:00:00 | |
| DL1XH-west | 2026-08-30 23:51:15 | 49.15251 | 10.27527 | 330° | 5km/h | 20563m | 5.7m/s | -53.9°C | 0.6% | 53.8hPa | 2.6V | 18:12:15 | 01:32:56 | 00:00:00 | |
| DK7TD | 2026-08-30 23:51:13 | 49.15250 | 10.27527 | 3° | 2km/h | 20554m | 4.7m/s | -53.9°C | 0.5% | 53.8hPa | 2.5V | 18:12:15 | 01:32:54 | 00:00:00 | |
| DL1XH1-15 | 2026-08-30 23:51:12 | 49.15250 | 10.27526 | 267° | 4km/h | 20525m | 4.5m/s | -53.6°C | 4% | 54.1hPa | 2.5V | 08:30:00 | 01:32:48 | 00:00:00 | |
| BIOWL1-15 | 2026-08-30 23:51:08 | 49.15248 | 10.27537 | 282° | 15km/h | 20512m | 4.3m/s | -53.6°C | 0.4% | 54.2hPa | 2.5V | 18:12:15 | 01:32:45 | 00:00:00 | |
| DL1ZP-14 | 2026-08-30 23:51:07 | 49.15250 | 10.27528 | 291° | 7km/h | 20521m | 4.9m/s | -53.6°C | 1.1% | 54.1hPa | 2.5V | 00:00:00 | 00:00:00 | 00:00:00 | |
| SO1NDE-10 | 2026-08-30 23:51:06 | 49.15250 | 10.27528 | 292° | 9km/h | 20521m | 4.8m/s | -53.6°C | 4.0% | 54.1hPa | 2.5V | 00:00:00 | 01:32:47 | 08:30:00 | |
| DM0DOS-11 | 2026-08-30 23:51:05 | 49.15249 | 10.27549 | 229° | 5km/h | 20498m | 4.6m/s | -53.5°C | 3.9% | 54.3hPa | 2.5V | 08:30:00 | 01:32:42 | 00:00:00 | |
| DL1XH-west | 2026-08-30 23:51:05 | 49.15249 | 10.27532 | 290° | 13km/h | 20516m | 4.1m/s | -53.6°C | 0.5% | 54.1hPa | 2.5V | 18:12:15 | 01:32:46 | 00:00:00 | |
| DK7TD | 2026-08-30 23:51:03 | 49.15248 | 10.27542 | 269° | 13km/h | 20507m | 4.7m/s | -53.5°C | 0.4% | 54.2hPa | 2.7V | 18:12:15 | 01:32:44 | 00:00:00 | |
| BIOWL1-15 | 2026-08-30 23:50:57 | 49.15252 | 10.27544 | 119° | 7km/h | 20478m | 5.5m/s | -53.7°C | 0.5% | 54.5hPa | 2.7V | 18:12:15 | 01:32:38 | 00:00:00 | |
| DL1XH-west | 2026-08-30 23:50:54 | 49.15254 | 10.27542 | 258° | 2km/h | 20465m | 5.4m/s | -53.9°C | 0.6% | 54.5hPa | 2.5V | 18:12:15 | 01:32:35 | 00:00:00 | |
| DM0DOS-11 | 2026-08-30 23:50:53 | 49.15254 | 10.27550 | 254° | 13km/h | 20450m | 5.5m/s | -53.8°C | 4.1% | 54.7hPa | 2.5V | 08:30:00 | 01:32:32 | 00:00:00 | |
| DK7TD | 2026-08-30 23:50:52 | 49.15254 | 10.27546 | 274° | 9km/h | 20455m | 4.7m/s | -53.9°C | 0.6% | 54.6hPa | 2.5V | 18:12:15 | 01:32:33 | 00:00:00 | |
| BIOWL1-15 | 2026-08-30 23:50:47 | 49.15261 | 10.27567 | 222° | 9km/h | 20432m | 4.5m/s | -53.8°C | 0.6% | 54.9hPa | 2.5V | 18:12:15 | 01:32:28 | 00:00:00 | |
| OE5DXL-15 | 2026-08-30 23:50:47 | 49.15260 | 10.27567 | 222° | 7km/h | 20433m | 4.5m/s | -53.7°C | 4.1% | 54.8hPa | 2.5V | 00:00:00 | 00:00:00 | 00:00:00 | |
| DM0DOS-11 | 2026-08-30 23:50:46 | 49.15276 | 10.27569 | 215° | 7km/h | 20399m | 4.5m/s | -53.7°C | 4% | 55.1hPa | 2.5V | 08:30:00 | 01:32:21 | 00:00:00 | |
| SONCRA | 2026-08-30 23:50:45 | 49.15264 | 10.27569 | 182° | 9km/h | 20423m | 5.7m/s | -53.8°C | 1.1% | 55.0hPa | 2.6V | 00:00:00 | 00:00:00 | 00:00:00 | |
| DL1XH-west | 2026-08-30 23:50:43 | 49.15270 | 10.27568 | 175° | 11km/h | 20413m | 3.7m/s | -53.7°C | 0.6% | 55hPa | 2.6V | 18:12:15 | 01:32:24 | 00:00:00 | |
| DK7TD | 2026-08-30 23:50:41 | 49.15274 | 10.27568 | 197° | 5km/h | 20403m | 4.7m/s | -53.7°C | 0.6% | 55.1hPa | 2.5V | 18:12:15 | 01:32:22 | 00:00:00 | |
| BIOWL1-15 | 2026-08-30 23:50:40 | 49.15282 | 10.27577 | 224° | 4km/h | 20378m | 5.8m/s | -53.7°C | 0.5% | 55.3hPa | 2.6V | 18:12:15 | 01:32:17 | 00:00:00 | |
| DO3MHA-12 | 2026-08-30 23:50:40 | 49.15276 | 10.27569 | 216° | 5km/h | 20399m | 4.4m/s | -53.6°C | 4.0% | 55.1hPa | 2.5V | 00:00:00 | 01:32:21 | 08:30:00 | |
| DF7PN | 2026-08-30 23:50:38 | 49.15279 | 10.27573 | 212° | 9km/h | 20388m | 4.6m/s | -53.7°C | 1.1% | 55.2hPa | 2.6V | 00:00:00 | 00:00:00 | 00:00:00 | |
| DB0NH | 2026-08-30 23:50:37 | 49.15281 | 10.27575 | 215° | 11km/h | 20384m | 4.8m/s | -53.6°C | 3.9% | 55.2hPa | 2.6V | 00:00:00 | 01:32:18 | 08:30:00 | |
| DL1NUX | 2026-08-30 23:50:36 | 49.15282 | 10.27575 | 130° | 5km/h | 20353m | 4.2m/s | -53.5°C | 3.9% | 55.5hPa | 2.7V | 08:30:00 | 01:32:12 | 00:00:00 | |
| DL1ZP-14 | 2026-08-30 23:50:36 | 49.15283 | 10.27577 | 348° | 0km/h | 20373m | 4.9m/s | -53.6°C | 1.1% | 55.3hPa | 2.5V | 00:00:00 | 00:00:00 | 00:00:00 | |
| DM0DOS-11 | 2026-08-30 23:50:35 | 49.15283 | 10.27573 | 122° | 7km/h | 20348m | 5.3m/s | -53.5°C | 3.8% | 55.6hPa | 2.6V | 08:30:00 | 01:32:11 | 00:00:00 | |
| DL1XH-west | 2026-08-30 23:50:33 | 49.15281 | 10.27577 | 31° | 2km/h | 20363m | 5.9m/s | -53.6°C | 0.5% | 55.4hPa | 2.5V | 18:12:15 | 01:32:14 | 00:00:00 | |
| DK7TD | 2026-08-30 23:50:31 | 49.15282 | 10.27575 | 131° | 5km/h | 20353m | 4.2m/s | -53.5°C | 0.4% | 55.5hPa | 2.7V | 18:12:15 | 01:32:12 | 00:00:00 | |
| DO3MHA-12 | 2026-08-30 23:50:30 | 49.15283 | 10.27573 | 123° | 7km/h | 20349m | 5.3m/s | -53.5°C | 3.8% | 55.5hPa | 2.6V | 00:00:00 | 01:32:11 | 00:00:00 | |
| DL1XH1-15 | 2026-08-30 23:50:29 | 49.15285 | 10.27552 | 74° | 9km/h | 20311m | 5.2m/s | -53.5°C | 0% | 55.9hPa | 2.6V | 08:30:00 | 01:32:04 | 00:00:00 | |
| DC4HF-4 | 2026-08-30 23:50:28 | 49.15285 | 10.27563 | 97° | 9km/h | 20332m | 4.7m/s | -53.4°C | 1.1% | 55.7hPa | 2.5V | 00:00:00 | 00:00:00 | 00:00:00 | |
| DL1NUX | 2026-08-30 23:50:26 | 49.15285 | 10.27545 | 90° | 9km/h | 20302m | 5.1m/s | -53.6°C | 3.7% | 56hPa | 2.5V | 08:30:00 | 01:32:02 | 00:00:00 | |
| BIOWL1-15 | 2026-08-30 23:50:26 | 49.15285 | 10.27560 | 106° | 7km/h | 20327m | 5.8m/s | -53.4°C | 0.4% | 55.8hPa | 2.5V | 18:12:15 | 01:32:07 | 00:00:00 | |
| DM0DOS-11 | 2026-08-30 23:50:25 | 49.15285 | 10.27542 | 107° | 9km/h | 20297m | 5m/s | -53.7°C | 3.8% | 56hPa | 2.5V | 08:30:00 | 01:32:01 | 00:00:00 | |
| DL1XH-west | 2026-08-30 23:50:22 | 49.15285 | 10.27549 | 78° | 9km/h | 20306m | 4.4m/s | -53.5°C | 0.4% | 55.9hPa | 2.5V | 18:12:15 | 01:32:03 | 00:00:00 | |
| DK7TD | 2026-08-30 23:50:20 | 49.15285 | 10.27542 | 107° | 9km/h | 20297m | 5m/s | -53.7°C | 0.3% | 56hPa | 2.5V | 18:12:15 | 01:32:01 | 00:00:00 | |
| DO3MHA-12 | 2026-08-30 23:50:20 | 49.15285 | 10.27542 | 108° | 16km/h | 20297m | 5.0m/s | -53.6°C | 3.8% | 56.0hPa | 2.7V | 00:00:00 | 01:32:01 | 00:00:00 | |
| DL1XH1-15 | 2026-08-30 23:50:18 | 49.15289 | 10.27500 | 90° | 20km/h | 20263m | 3.7m/s | -54.1°C | 0% | 56.3hPa | 2.7V | 08:30:00 | 01:31:54 | 00:00:00 | |
| OE5DXL-15 | 2026-08-30 23:50:17 | 49.15287 | 10.27528 | 95° | 26km/h | 20282m | 5.4m/s | -53.9°C | 3.9% | 56.1hPa | 2.5V | 00:00:00 | 00:00:00 | 00:00:00 | |
| DL1NUX | 2026-08-30 23:50:16 | 49.15287 | 10.27484 | 79° | 24km/h | 20252m | 5.2m/s | -54.3°C | 4% | 56.4hPa | 2.6V | 08:30:00 | 01:31:52 | 00:00:00 | |
| BIOWL1-15 | 2026-08-30 23:50:15 | 49.15288 | 10.27500 | 91° | 20km/h | 20263m | 3.7m/s | -54.1°C | 0.5% | 56.3hPa | 2.7V | 18:12:15 | 01:31:54 | 00:00:00 | |
| DM0DOS-11 | 2026-08-30 23:50:15 | 49.15285 | 10.27467 | 84° | 22km/h | 20242m | 5.1m/s | -54.5°C | 4.1% | 56.5hPa | 2.5V | 08:30:00 | 01:31:50 | 00:00:00 | |
| DL1XH-west | 2026-08-30 23:50:12 | 49.15288 | 10.27492 | 84° | 22km/h | 20258m | 6.1m/s | -54.2°C | 0.5% | 56.3hPa | 2.7V | 18:12:15 | 01:31:53 | 00:00:00 | |
| DK7TD | 2026-08-30 23:50:10 | 49.15286 | 10.27467 | 84° | 22km/h | 20242m | 5.1m/s | -54.5°C | 0.6% | 56.5hPa | 2.5V | 18:12:15 | 01:31:50 | 00:00:00 | |
| DB0NH | 2026-08-30 23:50:07 | 49.15284 | 10.27451 | 83° | 29km/h | 20233m | 5.1m/s | -54.5°C | 4.1% | 56.5hPa | 2.5V | 00:00:00 | 01:31:48 | 00:00:00 | |
| DL1NUX | 2026-08-30 23:50:06 | 49.15277 | 10.27393 | 76° | 33km/h | 20202m | 5.8m/s | -54.8°C | 4.1% | 56.9hPa | 2.5V | 08:30:00 | 01:31:42 | 00:00:00 | |
| DL1XH1-15 | 2026-08-30 23:50:06 | 49.15280 | 10.27415 | 81° | 26km/h | 20212m | 3.5m/s | 0°C | 0% | 0hPa | 2.5V | 08:30:00 | 01:31:44 | 00:00:00 | |
| SO1NDE-10 | 2026-08-30 23:50:06 | 49.15284 | 10.27442 | 78° | 29km/h | 20227m | 5.5m/s | -54.5°C | 4.1% | 56.5hPa | 2.7V | 00:00:00 | 01:31:47 | 00:00:00 | |
| DM0DOS-11 | 2026-08-30 23:50:04 | 49.15274 | 10.27366 | 81° | 37km/h | 20192m | 5.7m/s | -55.1°C | 4.2% | 56.9hPa | 2.7V | 08:30:00 | 01:31:40 | 00:00:00 | |
| DL1XH-west | 2026-08-30 23:50:02 | 49.15279 | 10.27405 | 79° | 29km/h | 20208m | 5m/s | -54.7°C | 0.6% | 56.8hPa | 2.5V | 18:12:15 | 01:31:43 | 00:00:00 | |
| DK7TD | 2026-08-30 23:49:59 | 49.15274 | 10.27366 | 81° | 37km/h | 20192m | 5.7m/s | -55.1°C | 0.7% | 56.9hPa | 2.7V | 18:12:15 | 01:31:40 | 00:00:00 | |
| DF3TZ-5 | 2026-08-30 23:49:59 | 49.15272 | 10.27352 | 83° | 37km/h | 20187m | 4.2m/s | -55.2°C | 1.2% | 57.0hPa | 2.5V | 00:00:00 | 00:00:00 | 00:00:00 | |
| NBG1-10 | 2026-08-30 23:49:56 | 49.15270 | 10.27323 | 81° | 31km/h | 20177m | 4.7m/s | -55.1°C | 4.2% | 57.0hPa | 2.5V | 00:00:00 | 01:31:37 | 00:00:00 | |
| DN1GJH-1 | 2026-08-30 23:49:55 | 49.15270 | 10.27323 | 81° | 38km/h | 20177m | 4.8m/s | -55.2°C | 1.2% | 57.1hPa | 2.5V | 00:00:00 | 00:00:00 | 00:00:00 | |
| OE5DRO-10 | 2026-08-30 23:49:54 | 49.15267 | 10.27297 | 83° | 27km/h | 20169m | 5.0m/s | -55.1°C | 4.2% | 57.1hPa | 2.5V | 00:00:00 | 00:00:00 | 08:30:00 | |
| DM0DOS-11 | 2026-08-30 23:49:53 | 49.15263 | 10.27258 | 67° | 20km/h | 20145m | 4.3m/s | -55.3°C | 4.2% | 57.3hPa | 2.5V | 08:30:00 | 01:31:30 | 00:00:00 | |
| DL1XH1-15 | 2026-08-30 23:49:52 | 49.15266 | 10.27271 | 82° | 16km/h | 20154m | 4m/s | 0°C | 0% | 0hPa | 2.5V | 08:30:00 | 01:31:32 | 00:00:00 | |
| BIOWL1-15 | 2026-08-30 23:49:52 | 49.15266 | 10.27278 | 89° | 18km/h | 20158m | 4.4m/s | -55.2°C | 0.6% | 57.2hPa | 2.7V | 18:12:15 | 01:31:33 | 00:00:00 | |
| DL1XH-west | 2026-08-30 23:49:51 | 49.15266 | 10.27271 | 82° | 16km/h | 20154m | 4m/s | -55.3°C | 0.7% | 57.2hPa | 2.5V | 18:12:15 | 01:31:32 | 00:00:00 | |
| DK7TD | 2026-08-30 23:49:48 | 49.15261 | 10.27250 | 71° | 24km/h | 20141m | 3.9m/s | -55.4°C | 0.6% | 57.4hPa | 2.7V | 18:12:15 | 01:31:29 | 00:00:00 | |
| OE5DXL-15 | 2026-08-30 23:49:47 | 49.15259 | 10.27240 | 77° | 33km/h | 20136m | 5.1m/s | -55.4°C | 4.2% | 57.4hPa | 2.5V | 00:00:00 | 00:00:00 | 00:00:00 | |
| DJ8HS-15 | 2026-08-30 23:49:44 | 49.15254 | 10.27205 | 75° | 33km/h | 20121m | 5.3m/s | -55.5°C | 4.3% | 57.5hPa | 2.5V | 00:00:00 | 01:31:25 | 08:30:00 | |
| DM0DOS-11 | 2026-08-30 23:49:43 | 49.15243 | 10.27144 | 65° | 31km/h | 20097m | 5.4m/s | -55.7°C | 4.4% | 57.8hPa | 2.5V | 08:30:00 | 01:31:20 | 00:00:00 | |
| DL1XH-west | 2026-08-30 23:49:41 | 49.15248 | 10.27167 | 76° | 33km/h | 20106m | 4.4m/s | -55.7°C | 0.7% | 57.7hPa | 2.7V | 18:12:15 | 01:31:22 | 00:00:00 | |
| HSKMA3-T | 2026-08-30 23:49:39 | 49.15243 | 10.27144 | 66° | 31km/h | 20097m | 5.4m/s | -55.7°C | 0.7% | 57.8hPa | 2.5V | 18:12:15 | 01:31:20 | 00:00:00 | |
| DK7TD | 2026-08-30 23:49:38 | 49.15239 | 10.27133 | 60° | 31km/h | 20092m | 4.3m/s | -55.7°C | 0.7% | 57.8hPa | 2.5V | 18:12:15 | 01:31:19 | 00:00:00 | |
| DB0NH | 2026-08-30 23:49:37 | 49.15235 | 10.27123 | 61° | 31km/h | 20088m | 4.2m/s | -55.6°C | 4.3% | 57.8hPa | 2.5V | 00:00:00 | 01:31:18 | 00:00:00 | |
| Es werden nur die letzten 3500 von 4758 Frames angezeigt. GPX/KML und Diagramme bleiben verfügbar. | |||||||||||||||